<?xml version='1.0' encoding='UTF-8'?><gpx version="1.1" creator="JPX - https://github.com/jenetics/jpx" xmlns="http://www.topografix.com/GPX/1/1"><trk><trkseg><trkpt lat="44.41619" lon="12.1397"><ele>1.9999999999999998</ele><time>2026-04-18T10:11:32.993Z</time></trkpt><trkpt lat="44.4161067" lon="12.1396933"><ele>2.0</ele><time>2026-04-18T10:11:34.995Z</time></trkpt><trkpt lat="44.416035" lon="12.1395433"><ele>2.0</ele><time>2026-04-18T10:11:36.992Z</time></trkpt><trkpt lat="44.416005" lon="12.139445"><ele>2.0</ele><time>2026-04-18T10:11:37.993Z</time></trkpt><trkpt lat="44.4159767" lon="12.1393417"><ele>1.9999999999999998</ele><time>2026-04-18T10:11:38.993Z</time></trkpt><trkpt lat="44.4159533" lon="12.1392567"><ele>2.0</ele><time>2026-04-18T10:11:39.992Z</time></trkpt><trkpt lat="44.41594" lon="12.1391033"><ele>1.6</ele><time>2026-04-18T10:11:41.993Z</time></trkpt><trkpt lat="44.416035" lon="12.1389983"><ele>1.2000000000000002</ele><time>2026-04-18T10:11:43.993Z</time></trkpt><trkpt lat="44.4161183" lon="12.1389617"><ele>0.8</ele><time>2026-04-18T10:11:44.993Z</time></trkpt><trkpt lat="44.4162" lon="12.1389267"><ele>0.4</ele><time>2026-04-18T10:11:45.992Z</time></trkpt><trkpt lat="44.4162833" lon="12.138895"><ele>0.0</ele><time>2026-04-18T10:11:46.992Z</time></trkpt><trkpt lat="44.41637" lon="12.1388633"><ele>0.0</ele><time>2026-04-18T10:11:47.994Z</time></trkpt><trkpt lat="44.41646" lon="12.1388333"><ele>0.0</ele><time>2026-04-18T10:11:48.992Z</time></trkpt><trkpt lat="44.4165583" lon="12.1387983"><ele>0.0</ele><time>2026-04-18T10:11:49.994Z</time></trkpt><trkpt lat="44.41667" lon="12.1387583"><ele>0.0</ele><time>2026-04-18T10:11:50.994Z</time></trkpt><trkpt lat="44.4167967" lon="12.13871"><ele>0.0</ele><time>2026-04-18T10:11:51.994Z</time></trkpt><trkpt lat="44.4169267" lon="12.1386633"><ele>0.0</ele><time>2026-04-18T10:11:52.993Z</time></trkpt><trkpt lat="44.4170617" lon="12.1386183"><ele>0.0</ele><time>2026-04-18T10:11:53.992Z</time></trkpt><trkpt lat="44.4171833" lon="12.13858"><ele>0.0</ele><time>2026-04-18T10:11:54.993Z</time></trkpt><trkpt lat="44.41729" lon="12.1385533"><ele>0.0</ele><time>2026-04-18T10:11:55.993Z</time></trkpt><trkpt lat="44.4173867" lon="12.1385317"><ele>0.16666666666666666</ele><time>2026-04-18T10:11:56.993Z</time></trkpt><trkpt lat="44.4174783" lon="12.1385167"><ele>0.3333333333333333</ele><time>2026-04-18T10:11:57.995Z</time></trkpt><trkpt lat="44.4175667" lon="12.1385083"><ele>0.5</ele><time>2026-04-18T10:11:58.994Z</time></trkpt><trkpt lat="44.4176467" lon="12.1385033"><ele>0.6666666666666666</ele><time>2026-04-18T10:11:59.993Z</time></trkpt><trkpt lat="44.4177117" lon="12.1384917"><ele>0.8333333333333333</ele><time>2026-04-18T10:12:00.994Z</time></trkpt><trkpt lat="44.4177917" lon="12.1384467"><ele>1.0</ele><time>2026-04-18T10:12:02.993Z</time></trkpt><trkpt lat="44.417855" lon="12.138385"><ele>1.0</ele><time>2026-04-18T10:12:07.994Z</time></trkpt><trkpt lat="44.4178733" lon="12.1382833"><ele>1.0</ele><time>2026-04-18T10:12:09.994Z</time></trkpt><trkpt lat="44.41784" lon="12.1380733"><ele>1.0</ele><time>2026-04-18T10:12:11.995Z</time></trkpt><trkpt lat="44.4177983" lon="12.137895"><ele>1.0</ele><time>2026-04-18T10:12:12.993Z</time></trkpt><trkpt lat="44.4177583" lon="12.1376967"><ele>1.3333333333333333</ele><time>2026-04-18T10:12:13.993Z</time></trkpt><trkpt lat="44.4177183" lon="12.1374933"><ele>1.6666666666666665</ele><time>2026-04-18T10:12:14.994Z</time></trkpt><trkpt lat="44.4176783" lon="12.13728"><ele>2.0</ele><time>2026-04-18T10:12:15.994Z</time></trkpt><trkpt lat="44.4176367" lon="12.13706"><ele>2.0</ele><time>2026-04-18T10:12:16.993Z</time></trkpt><trkpt lat="44.4175933" lon="12.1368333"><ele>2.0</ele><time>2026-04-18T10:12:17.993Z</time></trkpt><trkpt lat="44.4175433" lon="12.1366017"><ele>2.0</ele><time>2026-04-18T10:12:18.993Z</time></trkpt><trkpt lat="44.4174867" lon="12.1363667"><ele>1.6666666666666665</ele><time>2026-04-18T10:12:19.994Z</time></trkpt><trkpt lat="44.41742" lon="12.1361267"><ele>1.3333333333333333</ele><time>2026-04-18T10:12:20.993Z</time></trkpt><trkpt lat="44.4173467" lon="12.135885"><ele>1.0</ele><time>2026-04-18T10:12:21.994Z</time></trkpt><trkpt lat="44.41727" lon="12.1356383"><ele>0.6666666666666666</ele><time>2026-04-18T10:12:22.993Z</time></trkpt><trkpt lat="44.417195" lon="12.1353883"><ele>0.3333333333333333</ele><time>2026-04-18T10:12:23.994Z</time></trkpt><trkpt lat="44.4171183" lon="12.13514"><ele>0.0</ele><time>2026-04-18T10:12:24.993Z</time></trkpt><trkpt lat="44.4170433" lon="12.1349"><ele>0.0</ele><time>2026-04-18T10:12:25.995Z</time></trkpt><trkpt lat="44.4169683" lon="12.1346667"><ele>0.0</ele><time>2026-04-18T10:12:26.994Z</time></trkpt><trkpt lat="44.4168967" lon="12.1344433"><ele>0.0</ele><time>2026-04-18T10:12:27.992Z</time></trkpt><trkpt lat="44.41683" lon="12.13423"><ele>0.3333333333333333</ele><time>2026-04-18T10:12:28.993Z</time></trkpt><trkpt lat="44.4167617" lon="12.13402"><ele>0.6666666666666666</ele><time>2026-04-18T10:12:29.993Z</time></trkpt><trkpt lat="44.41669" lon="12.13381"><ele>1.0</ele><time>2026-04-18T10:12:30.993Z</time></trkpt><trkpt lat="44.4166117" lon="12.1335983"><ele>1.0</ele><time>2026-04-18T10:12:31.992Z</time></trkpt><trkpt lat="44.4165267" lon="12.13339"><ele>1.0</ele><time>2026-04-18T10:12:32.993Z</time></trkpt><trkpt lat="44.416435" lon="12.133185"><ele>1.0</ele><time>2026-04-18T10:12:33.992Z</time></trkpt><trkpt lat="44.4163367" lon="12.1329867"><ele>1.3333333333333333</ele><time>2026-04-18T10:12:34.994Z</time></trkpt><trkpt lat="44.4162333" lon="12.1327867"><ele>1.6666666666666665</ele><time>2026-04-18T10:12:35.992Z</time></trkpt><trkpt lat="44.4161267" lon="12.1325883"><ele>2.0</ele><time>2026-04-18T10:12:36.995Z</time></trkpt><trkpt lat="44.41602" lon="12.13239"><ele>2.333333333333333</ele><time>2026-04-18T10:12:37.993Z</time></trkpt><trkpt lat="44.4159133" lon="12.1321867"><ele>2.6666666666666665</ele><time>2026-04-18T10:12:38.993Z</time></trkpt><trkpt lat="44.4158017" lon="12.1319783"><ele>3.0</ele><time>2026-04-18T10:12:39.993Z</time></trkpt><trkpt lat="44.4156783" lon="12.1317667"><ele>2.6666666666666665</ele><time>2026-04-18T10:12:40.993Z</time></trkpt><trkpt lat="44.4155433" lon="12.1315467"><ele>2.333333333333333</ele><time>2026-04-18T10:12:41.992Z</time></trkpt><trkpt lat="44.41541" lon="12.131325"><ele>2.0</ele><time>2026-04-18T10:12:42.993Z</time></trkpt><trkpt lat="44.4152783" lon="12.1311067"><ele>2.0</ele><time>2026-04-18T10:12:43.993Z</time></trkpt><trkpt lat="44.415155" lon="12.1308983"><ele>2.0</ele><time>2026-04-18T10:12:44.993Z</time></trkpt><trkpt lat="44.415035" lon="12.1307017"><ele>2.0</ele><time>2026-04-18T10:12:45.994Z</time></trkpt><trkpt lat="44.4149217" lon="12.1305117"><ele>2.0</ele><time>2026-04-18T10:12:46.992Z</time></trkpt><trkpt lat="44.414815" lon="12.1303267"><ele>2.0</ele><time>2026-04-18T10:12:47.993Z</time></trkpt><trkpt lat="44.4147133" lon="12.1301567"><ele>2.0</ele><time>2026-04-18T10:12:48.993Z</time></trkpt><trkpt lat="44.41462" lon="12.1299967"><ele>1.75</ele><time>2026-04-18T10:12:49.993Z</time></trkpt><trkpt lat="44.4145333" lon="12.12984"><ele>1.5</ele><time>2026-04-18T10:12:50.994Z</time></trkpt><trkpt lat="44.4144483" lon="12.12968"><ele>1.25</ele><time>2026-04-18T10:12:51.993Z</time></trkpt><trkpt lat="44.4143633" lon="12.129525"><ele>1.0</ele><time>2026-04-18T10:12:52.993Z</time></trkpt><trkpt lat="44.41428" lon="12.1293767"><ele>1.0</ele><time>2026-04-18T10:12:53.994Z</time></trkpt><trkpt lat="44.4142" lon="12.12924"><ele>1.0</ele><time>2026-04-18T10:12:54.993Z</time></trkpt><trkpt lat="44.4141217" lon="12.1291033"><ele>1.0</ele><time>2026-04-18T10:12:55.994Z</time></trkpt><trkpt lat="44.4140383" lon="12.1289633"><ele>1.0</ele><time>2026-04-18T10:12:56.993Z</time></trkpt><trkpt lat="44.4139583" lon="12.12881"><ele>1.0</ele><time>2026-04-18T10:12:57.993Z</time></trkpt><trkpt lat="44.4138767" lon="12.128655"><ele>1.0</ele><time>2026-04-18T10:12:58.992Z</time></trkpt><trkpt lat="44.41379" lon="12.12849"><ele>1.0</ele><time>2026-04-18T10:12:59.993Z</time></trkpt><trkpt lat="44.4136967" lon="12.1283117"><ele>1.0</ele><time>2026-04-18T10:13:00.993Z</time></trkpt><trkpt lat="44.4135967" lon="12.128125"><ele>1.0</ele><time>2026-04-18T10:13:01.993Z</time></trkpt><trkpt lat="44.4134983" lon="12.12794"><ele>1.0</ele><time>2026-04-18T10:13:02.993Z</time></trkpt><trkpt lat="44.4134117" lon="12.127765"><ele>1.0</ele><time>2026-04-18T10:13:03.993Z</time></trkpt><trkpt lat="44.4133567" lon="12.1275933"><ele>1.0</ele><time>2026-04-18T10:13:04.992Z</time></trkpt><trkpt lat="44.4133333" lon="12.12742"><ele>1.0</ele><time>2026-04-18T10:13:05.993Z</time></trkpt><trkpt lat="44.4133517" lon="12.12724"><ele>1.0</ele><time>2026-04-18T10:13:06.992Z</time></trkpt><trkpt lat="44.4134067" lon="12.1270717"><ele>1.0</ele><time>2026-04-18T10:13:07.992Z</time></trkpt><trkpt lat="44.4134983" lon="12.12693"><ele>1.0</ele><time>2026-04-18T10:13:08.993Z</time></trkpt><trkpt lat="44.4136167" lon="12.1268083"><ele>1.0</ele><time>2026-04-18T10:13:09.992Z</time></trkpt><trkpt lat="44.4137483" lon="12.1266933"><ele>1.0</ele><time>2026-04-18T10:13:10.993Z</time></trkpt><trkpt lat="44.4138783" lon="12.126585"><ele>0.6000000000000001</ele><time>2026-04-18T10:13:11.993Z</time></trkpt><trkpt lat="44.414" lon="12.1264933"><ele>0.20000000000000007</ele><time>2026-04-18T10:13:12.992Z</time></trkpt><trkpt lat="44.4141" lon="12.12642"><ele>-0.20000000000000007</ele><time>2026-04-18T10:13:13.993Z</time></trkpt><trkpt lat="44.4141767" lon="12.12637"><ele>-0.6000000000000001</ele><time>2026-04-18T10:13:14.994Z</time></trkpt><trkpt lat="44.41424" lon="12.126325"><ele>-1.0</ele><time>2026-04-18T10:13:15.993Z</time></trkpt><trkpt lat="44.4142983" lon="12.126285"><ele>-0.9999999999999999</ele><time>2026-04-18T10:13:16.992Z</time></trkpt><trkpt lat="44.4143833" lon="12.126225"><ele>-1.0</ele><time>2026-04-18T10:13:18.993Z</time></trkpt><trkpt lat="44.4144567" lon="12.1261667"><ele>-1.0</ele><time>2026-04-18T10:13:21.993Z</time></trkpt><trkpt lat="44.4145283" lon="12.1261083"><ele>-1.0</ele><time>2026-04-18T10:13:24.994Z</time></trkpt><trkpt lat="44.4146083" lon="12.1260517"><ele>-0.9999999999999999</ele><time>2026-04-18T10:13:27.994Z</time></trkpt><trkpt lat="44.4146783" lon="12.1260017"><ele>-1.0</ele><time>2026-04-18T10:13:30.992Z</time></trkpt><trkpt lat="44.4147667" lon="12.12593"><ele>-0.8333333333333333</ele><time>2026-04-18T10:14:18.994Z</time></trkpt><trkpt lat="44.414825" lon="12.1258833"><ele>-0.6666666666666666</ele><time>2026-04-18T10:14:19.993Z</time></trkpt><trkpt lat="44.4148933" lon="12.1258267"><ele>-0.5</ele><time>2026-04-18T10:14:20.993Z</time></trkpt><trkpt lat="44.4149683" lon="12.12576"><ele>-0.3333333333333333</ele><time>2026-04-18T10:14:21.995Z</time></trkpt><trkpt lat="44.415045" lon="12.1256883"><ele>-0.16666666666666666</ele><time>2026-04-18T10:14:22.993Z</time></trkpt><trkpt lat="44.41513" lon="12.1256117"><ele>0.0</ele><time>2026-04-18T10:14:23.993Z</time></trkpt><trkpt lat="44.4152133" lon="12.1255417"><ele>0.0</ele><time>2026-04-18T10:14:24.994Z</time></trkpt><trkpt lat="44.4152933" lon="12.1254767"><ele>0.0</ele><time>2026-04-18T10:14:25.994Z</time></trkpt><trkpt lat="44.4153767" lon="12.1254167"><ele>0.0</ele><time>2026-04-18T10:14:26.994Z</time></trkpt><trkpt lat="44.4154567" lon="12.1253583"><ele>0.0</ele><time>2026-04-18T10:14:27.994Z</time></trkpt><trkpt lat="44.41554" lon="12.1253"><ele>0.0</ele><time>2026-04-18T10:14:28.993Z</time></trkpt><trkpt lat="44.4156233" lon="12.1252417"><ele>0.4</ele><time>2026-04-18T10:14:29.992Z</time></trkpt><trkpt lat="44.415705" lon="12.12518"><ele>0.8</ele><time>2026-04-18T10:14:30.993Z</time></trkpt><trkpt lat="44.4157917" lon="12.1251233"><ele>1.2000000000000002</ele><time>2026-04-18T10:14:31.994Z</time></trkpt><trkpt lat="44.41588" lon="12.1250767"><ele>1.6</ele><time>2026-04-18T10:14:32.993Z</time></trkpt><trkpt lat="44.4159683" lon="12.125025"><ele>2.0</ele><time>2026-04-18T10:14:33.994Z</time></trkpt><trkpt lat="44.41605" lon="12.1249617"><ele>1.8</ele><time>2026-04-18T10:14:34.993Z</time></trkpt><trkpt lat="44.4161233" lon="12.124895"><ele>1.6</ele><time>2026-04-18T10:14:35.994Z</time></trkpt><trkpt lat="44.41619" lon="12.1248217"><ele>1.4000000000000001</ele><time>2026-04-18T10:14:36.994Z</time></trkpt><trkpt lat="44.4162567" lon="12.12473"><ele>1.2000000000000002</ele><time>2026-04-18T10:14:37.993Z</time></trkpt><trkpt lat="44.41632" lon="12.1246167"><ele>1.0</ele><time>2026-04-18T10:14:38.995Z</time></trkpt><trkpt lat="44.4163633" lon="12.1244733"><ele>0.75</ele><time>2026-04-18T10:14:39.994Z</time></trkpt><trkpt lat="44.4163767" lon="12.124315"><ele>0.5</ele><time>2026-04-18T10:14:40.993Z</time></trkpt><trkpt lat="44.416355" lon="12.1241467"><ele>0.25</ele><time>2026-04-18T10:14:41.993Z</time></trkpt><trkpt lat="44.4163" lon="12.1240033"><ele>0.0</ele><time>2026-04-18T10:14:42.993Z</time></trkpt><trkpt lat="44.41622" lon="12.123875"><ele>0.0</ele><time>2026-04-18T10:14:43.994Z</time></trkpt><trkpt lat="44.4161233" lon="12.12376"><ele>0.0</ele><time>2026-04-18T10:14:44.993Z</time></trkpt><trkpt lat="44.416015" lon="12.123645"><ele>0.0</ele><time>2026-04-18T10:14:45.994Z</time></trkpt><trkpt lat="44.4159017" lon="12.12353"><ele>0.0</ele><time>2026-04-18T10:14:46.993Z</time></trkpt><trkpt lat="44.415785" lon="12.1234117"><ele>0.0</ele><time>2026-04-18T10:14:47.994Z</time></trkpt><trkpt lat="44.4156667" lon="12.123285"><ele>0.0</ele><time>2026-04-18T10:14:48.994Z</time></trkpt><trkpt lat="44.4155533" lon="12.1231417"><ele>0.0</ele><time>2026-04-18T10:14:49.993Z</time></trkpt><trkpt lat="44.4154567" lon="12.1229733"><ele>0.0</ele><time>2026-04-18T10:14:50.994Z</time></trkpt><trkpt lat="44.415375" lon="12.1227883"><ele>0.0</ele><time>2026-04-18T10:14:51.993Z</time></trkpt><trkpt lat="44.4153033" lon="12.12259"><ele>0.0</ele><time>2026-04-18T10:14:52.992Z</time></trkpt><trkpt lat="44.4152483" lon="12.12238"><ele>0.3333333333333333</ele><time>2026-04-18T10:14:53.993Z</time></trkpt><trkpt lat="44.4152017" lon="12.1221633"><ele>0.6666666666666666</ele><time>2026-04-18T10:14:54.992Z</time></trkpt><trkpt lat="44.41516" lon="12.12194"><ele>1.0</ele><time>2026-04-18T10:14:55.994Z</time></trkpt><trkpt lat="44.41512" lon="12.1217117"><ele>1.3333333333333333</ele><time>2026-04-18T10:14:56.994Z</time></trkpt><trkpt lat="44.415075" lon="12.1214717"><ele>1.6666666666666665</ele><time>2026-04-18T10:14:57.993Z</time></trkpt><trkpt lat="44.4150233" lon="12.1212117"><ele>2.0</ele><time>2026-04-18T10:14:58.993Z</time></trkpt><trkpt lat="44.41497" lon="12.1209417"><ele>1.6666666666666665</ele><time>2026-04-18T10:14:59.992Z</time></trkpt><trkpt lat="44.414915" lon="12.120665"><ele>1.3333333333333333</ele><time>2026-04-18T10:15:00.992Z</time></trkpt><trkpt lat="44.4148633" lon="12.120385"><ele>1.0</ele><time>2026-04-18T10:15:01.994Z</time></trkpt><trkpt lat="44.414815" lon="12.120105"><ele>1.0</ele><time>2026-04-18T10:15:02.993Z</time></trkpt><trkpt lat="44.41477" lon="12.1198217"><ele>1.0</ele><time>2026-04-18T10:15:03.994Z</time></trkpt><trkpt lat="44.4147267" lon="12.1195383"><ele>1.0</ele><time>2026-04-18T10:15:04.993Z</time></trkpt><trkpt lat="44.4146783" lon="12.11925"><ele>0.6666666666666666</ele><time>2026-04-18T10:15:05.995Z</time></trkpt><trkpt lat="44.4146317" lon="12.1189533"><ele>0.3333333333333333</ele><time>2026-04-18T10:15:06.994Z</time></trkpt><trkpt lat="44.4145817" lon="12.1186517"><ele>0.0</ele><time>2026-04-18T10:15:07.994Z</time></trkpt><trkpt lat="44.41453" lon="12.118345"><ele>-0.5</ele><time>2026-04-18T10:15:08.995Z</time></trkpt><trkpt lat="44.4144783" lon="12.1180317"><ele>-1.0</ele><time>2026-04-18T10:15:09.994Z</time></trkpt><trkpt lat="44.4144267" lon="12.117715"><ele>-1.0</ele><time>2026-04-18T10:15:10.993Z</time></trkpt><trkpt lat="44.4143717" lon="12.117395"><ele>-1.0</ele><time>2026-04-18T10:15:11.994Z</time></trkpt><trkpt lat="44.4143117" lon="12.11707"><ele>-1.0</ele><time>2026-04-18T10:15:12.993Z</time></trkpt><trkpt lat="44.4142517" lon="12.1167383"><ele>-1.0</ele><time>2026-04-18T10:15:13.994Z</time></trkpt><trkpt lat="44.41419" lon="12.116405"><ele>-1.0</ele><time>2026-04-18T10:15:14.993Z</time></trkpt><trkpt lat="44.414125" lon="12.116065"><ele>-1.0</ele><time>2026-04-18T10:15:15.995Z</time></trkpt><trkpt lat="44.414055" lon="12.1157233"><ele>-1.0</ele><time>2026-04-18T10:15:16.996Z</time></trkpt><trkpt lat="44.4139833" lon="12.11538"><ele>-1.0</ele><time>2026-04-18T10:15:17.994Z</time></trkpt><trkpt lat="44.4139083" lon="12.1150417"><ele>-0.5</ele><time>2026-04-18T10:15:18.994Z</time></trkpt><trkpt lat="44.413835" lon="12.11471"><ele>0.0</ele><time>2026-04-18T10:15:19.994Z</time></trkpt><trkpt lat="44.41376" lon="12.114385"><ele>0.0</ele><time>2026-04-18T10:15:20.995Z</time></trkpt><trkpt lat="44.4136817" lon="12.1140717"><ele>0.0</ele><time>2026-04-18T10:15:21.993Z</time></trkpt><trkpt lat="44.4136067" lon="12.1137733"><ele>0.0</ele><time>2026-04-18T10:15:22.994Z</time></trkpt><trkpt lat="44.413535" lon="12.1134883"><ele>0.0</ele><time>2026-04-18T10:15:23.993Z</time></trkpt><trkpt lat="44.41346" lon="12.11321"><ele>0.0</ele><time>2026-04-18T10:15:24.995Z</time></trkpt><trkpt lat="44.4133867" lon="12.1129317"><ele>1.3333333333333333</ele><time>2026-04-18T10:15:25.994Z</time></trkpt><trkpt lat="44.4133117" lon="12.1126517"><ele>2.6666666666666665</ele><time>2026-04-18T10:15:26.994Z</time></trkpt><trkpt lat="44.413235" lon="12.112365"><ele>4.0</ele><time>2026-04-18T10:15:27.995Z</time></trkpt><trkpt lat="44.4131567" lon="12.1120767"><ele>5.0</ele><time>2026-04-18T10:15:28.994Z</time></trkpt><trkpt lat="44.4130717" lon="12.11179"><ele>6.0</ele><time>2026-04-18T10:15:29.994Z</time></trkpt><trkpt lat="44.412985" lon="12.1114983"><ele>7.0</ele><time>2026-04-18T10:15:30.993Z</time></trkpt><trkpt lat="44.4128967" lon="12.1112067"><ele>5.0</ele><time>2026-04-18T10:15:31.993Z</time></trkpt><trkpt lat="44.4128083" lon="12.1109067"><ele>3.0</ele><time>2026-04-18T10:15:32.993Z</time></trkpt><trkpt lat="44.4127167" lon="12.1106067"><ele>3.0</ele><time>2026-04-18T10:15:33.993Z</time></trkpt><trkpt lat="44.412625" lon="12.1103033"><ele>3.0</ele><time>2026-04-18T10:15:34.994Z</time></trkpt><trkpt lat="44.4125317" lon="12.1100017"><ele>3.0</ele><time>2026-04-18T10:15:35.996Z</time></trkpt><trkpt lat="44.41244" lon="12.1097"><ele>3.0</ele><time>2026-04-18T10:15:36.993Z</time></trkpt><trkpt lat="44.4123467" lon="12.1093917"><ele>3.0</ele><time>2026-04-18T10:15:37.992Z</time></trkpt><trkpt lat="44.4122483" lon="12.10908"><ele>3.0</ele><time>2026-04-18T10:15:38.994Z</time></trkpt><trkpt lat="44.41215" lon="12.1087667"><ele>3.0</ele><time>2026-04-18T10:15:39.994Z</time></trkpt><trkpt lat="44.4120517" lon="12.108455"><ele>3.0</ele><time>2026-04-18T10:15:40.994Z</time></trkpt><trkpt lat="44.41196" lon="12.1081483"><ele>3.0</ele><time>2026-04-18T10:15:41.993Z</time></trkpt><trkpt lat="44.4118733" lon="12.10786"><ele>3.0</ele><time>2026-04-18T10:15:42.993Z</time></trkpt><trkpt lat="44.411795" lon="12.1076017"><ele>3.0</ele><time>2026-04-18T10:15:43.994Z</time></trkpt><trkpt lat="44.41172" lon="12.107355"><ele>2.3333333333333335</ele><time>2026-04-18T10:15:44.993Z</time></trkpt><trkpt lat="44.41165" lon="12.1071183"><ele>1.6666666666666665</ele><time>2026-04-18T10:15:45.993Z</time></trkpt><trkpt lat="44.41158" lon="12.10689"><ele>1.0</ele><time>2026-04-18T10:15:46.994Z</time></trkpt><trkpt lat="44.4115033" lon="12.1066517"><ele>1.3333333333333333</ele><time>2026-04-18T10:15:47.994Z</time></trkpt><trkpt lat="44.411415" lon="12.1063883"><ele>1.6666666666666665</ele><time>2026-04-18T10:15:48.994Z</time></trkpt><trkpt lat="44.41131" lon="12.1061033"><ele>2.0</ele><time>2026-04-18T10:15:49.993Z</time></trkpt><trkpt lat="44.411205" lon="12.1057967"><ele>2.0</ele><time>2026-04-18T10:15:50.993Z</time></trkpt><trkpt lat="44.4111017" lon="12.105465"><ele>2.0</ele><time>2026-04-18T10:15:51.994Z</time></trkpt><trkpt lat="44.4109967" lon="12.1051183"><ele>1.5</ele><time>2026-04-18T10:15:52.993Z</time></trkpt><trkpt lat="44.4108833" lon="12.10476"><ele>1.0</ele><time>2026-04-18T10:15:53.994Z</time></trkpt><trkpt lat="44.41077" lon="12.1043917"><ele>1.0</ele><time>2026-04-18T10:15:54.993Z</time></trkpt><trkpt lat="44.410655" lon="12.104015"><ele>1.0</ele><time>2026-04-18T10:15:55.993Z</time></trkpt><trkpt lat="44.41054" lon="12.1036383"><ele>0.5</ele><time>2026-04-18T10:15:56.994Z</time></trkpt><trkpt lat="44.4104233" lon="12.103265"><ele>0.0</ele><time>2026-04-18T10:15:57.996Z</time></trkpt><trkpt lat="44.4103067" lon="12.1028933"><ele>-0.5</ele><time>2026-04-18T10:15:58.993Z</time></trkpt><trkpt lat="44.4101933" lon="12.10253"><ele>-1.0</ele><time>2026-04-18T10:15:59.993Z</time></trkpt><trkpt lat="44.41008" lon="12.1021683"><ele>0.0</ele><time>2026-04-18T10:16:00.994Z</time></trkpt><trkpt lat="44.40997" lon="12.10181"><ele>1.0</ele><time>2026-04-18T10:16:01.993Z</time></trkpt><trkpt lat="44.40986" lon="12.101455"><ele>1.0</ele><time>2026-04-18T10:16:02.993Z</time></trkpt><trkpt lat="44.4097533" lon="12.1011067"><ele>1.0</ele><time>2026-04-18T10:16:03.993Z</time></trkpt><trkpt lat="44.4096533" lon="12.1007567"><ele>0.5</ele><time>2026-04-18T10:16:04.994Z</time></trkpt><trkpt lat="44.4095583" lon="12.1004017"><ele>0.0</ele><time>2026-04-18T10:16:05.993Z</time></trkpt><trkpt lat="44.409465" lon="12.1000467"><ele>0.5</ele><time>2026-04-18T10:16:06.994Z</time></trkpt><trkpt lat="44.4093667" lon="12.099695"><ele>1.0</ele><time>2026-04-18T10:16:07.993Z</time></trkpt><trkpt lat="44.4092633" lon="12.0993433"><ele>0.5</ele><time>2026-04-18T10:16:08.995Z</time></trkpt><trkpt lat="44.4091567" lon="12.0989933"><ele>0.0</ele><time>2026-04-18T10:16:09.993Z</time></trkpt><trkpt lat="44.4090483" lon="12.09864"><ele>0.0</ele><time>2026-04-18T10:16:10.994Z</time></trkpt><trkpt lat="44.4089417" lon="12.0982917"><ele>0.0</ele><time>2026-04-18T10:16:11.994Z</time></trkpt><trkpt lat="44.4088333" lon="12.097945"><ele>0.5</ele><time>2026-04-18T10:16:12.994Z</time></trkpt><trkpt lat="44.4087283" lon="12.097595"><ele>1.0</ele><time>2026-04-18T10:16:13.994Z</time></trkpt><trkpt lat="44.4086233" lon="12.0972433"><ele>2.0</ele><time>2026-04-18T10:16:14.994Z</time></trkpt><trkpt lat="44.4085183" lon="12.0968883"><ele>3.0</ele><time>2026-04-18T10:16:15.992Z</time></trkpt><trkpt lat="44.40841" lon="12.0965317"><ele>3.0</ele><time>2026-04-18T10:16:16.993Z</time></trkpt><trkpt lat="44.4083033" lon="12.0961717"><ele>3.0</ele><time>2026-04-18T10:16:17.993Z</time></trkpt><trkpt lat="44.408195" lon="12.095815"><ele>3.0</ele><time>2026-04-18T10:16:18.993Z</time></trkpt><trkpt lat="44.4080883" lon="12.0954583"><ele>3.0</ele><time>2026-04-18T10:16:19.993Z</time></trkpt><trkpt lat="44.40798" lon="12.0950983"><ele>3.0</ele><time>2026-04-18T10:16:20.993Z</time></trkpt><trkpt lat="44.40787" lon="12.0947367"><ele>3.0</ele><time>2026-04-18T10:16:21.994Z</time></trkpt><trkpt lat="44.4077602" lon="12.0943768"><ele>3.0</ele><time>2026-04-18T10:16:22.993Z</time></trkpt><trkpt lat="44.4076493" lon="12.0940161"><ele>3.0</ele><time>2026-04-18T10:16:23.994Z</time></trkpt><trkpt lat="44.4075386" lon="12.0936537"><ele>3.0</ele><time>2026-04-18T10:16:24.994Z</time></trkpt><trkpt lat="44.407428" lon="12.0932891"><ele>3.0</ele><time>2026-04-18T10:16:25.993Z</time></trkpt><trkpt lat="44.4073175" lon="12.0929254"><ele>2.5</ele><time>2026-04-18T10:16:26.994Z</time></trkpt><trkpt lat="44.4072055" lon="12.0925623"><ele>2.0</ele><time>2026-04-18T10:16:27.994Z</time></trkpt><trkpt lat="44.4070939" lon="12.0921995"><ele>2.0</ele><time>2026-04-18T10:16:28.994Z</time></trkpt><trkpt lat="44.4069836" lon="12.091836"><ele>2.0</ele><time>2026-04-18T10:16:29.994Z</time></trkpt><trkpt lat="44.4068748" lon="12.0914723"><ele>2.5</ele><time>2026-04-18T10:16:30.993Z</time></trkpt><trkpt lat="44.4067639" lon="12.0911118"><ele>3.0</ele><time>2026-04-18T10:16:31.994Z</time></trkpt><trkpt lat="44.4066556" lon="12.0907516"><ele>3.0</ele><time>2026-04-18T10:16:32.993Z</time></trkpt><trkpt lat="44.4065492" lon="12.0903902"><ele>3.0</ele><time>2026-04-18T10:16:33.994Z</time></trkpt><trkpt lat="44.4064415" lon="12.0900288"><ele>3.0</ele><time>2026-04-18T10:16:34.995Z</time></trkpt><trkpt lat="44.4063321" lon="12.0896691"><ele>3.0</ele><time>2026-04-18T10:16:35.994Z</time></trkpt><trkpt lat="44.4062223" lon="12.0893106"><ele>3.5</ele><time>2026-04-18T10:16:36.993Z</time></trkpt><trkpt lat="44.4061142" lon="12.0889545"><ele>4.0</ele><time>2026-04-18T10:16:37.993Z</time></trkpt><trkpt lat="44.4060094" lon="12.0886129"><ele>4.0</ele><time>2026-04-18T10:16:38.994Z</time></trkpt><trkpt lat="44.405911" lon="12.0882829"><ele>4.0</ele><time>2026-04-18T10:16:39.993Z</time></trkpt><trkpt lat="44.405814" lon="12.0879543"><ele>4.0</ele><time>2026-04-18T10:16:40.994Z</time></trkpt><trkpt lat="44.4057141" lon="12.0876242"><ele>4.0</ele><time>2026-04-18T10:16:41.993Z</time></trkpt><trkpt lat="44.4056128" lon="12.0872924"><ele>4.0</ele><time>2026-04-18T10:16:42.994Z</time></trkpt><trkpt lat="44.4055109" lon="12.0869569"><ele>4.0</ele><time>2026-04-18T10:16:43.994Z</time></trkpt><trkpt lat="44.4054075" lon="12.086616"><ele>4.0</ele><time>2026-04-18T10:16:44.993Z</time></trkpt><trkpt lat="44.4053027" lon="12.0862701"><ele>4.0</ele><time>2026-04-18T10:16:45.993Z</time></trkpt><trkpt lat="44.4051973" lon="12.0859223"><ele>4.0</ele><time>2026-04-18T10:16:46.993Z</time></trkpt><trkpt lat="44.4050919" lon="12.0855743"><ele>4.0</ele><time>2026-04-18T10:16:47.993Z</time></trkpt><trkpt lat="44.4049842" lon="12.0852239"><ele>4.0</ele><time>2026-04-18T10:16:48.995Z</time></trkpt><trkpt lat="44.4048747" lon="12.0848741"><ele>4.0</ele><time>2026-04-18T10:16:49.993Z</time></trkpt><trkpt lat="44.4047664" lon="12.0845237"><ele>4.0</ele><time>2026-04-18T10:16:50.993Z</time></trkpt><trkpt lat="44.4046578" lon="12.0841709"><ele>4.0</ele><time>2026-04-18T10:16:51.994Z</time></trkpt><trkpt lat="44.4045511" lon="12.0838161"><ele>4.0</ele><time>2026-04-18T10:16:52.993Z</time></trkpt><trkpt lat="44.4044457" lon="12.0834601"><ele>4.0</ele><time>2026-04-18T10:16:53.994Z</time></trkpt><trkpt lat="44.4043392" lon="12.0831082"><ele>4.0</ele><time>2026-04-18T10:16:54.995Z</time></trkpt><trkpt lat="44.4042331" lon="12.0827606"><ele>4.0</ele><time>2026-04-18T10:16:55.994Z</time></trkpt><trkpt lat="44.4041281" lon="12.0824161"><ele>3.5</ele><time>2026-04-18T10:16:56.995Z</time></trkpt><trkpt lat="44.4040245" lon="12.0820747"><ele>3.0</ele><time>2026-04-18T10:16:57.994Z</time></trkpt><trkpt lat="44.4039191" lon="12.0817338"><ele>3.0</ele><time>2026-04-18T10:16:58.993Z</time></trkpt><trkpt lat="44.4038141" lon="12.0813938"><ele>3.0</ele><time>2026-04-18T10:16:59.993Z</time></trkpt><trkpt lat="44.4037102" lon="12.0810526"><ele>3.5</ele><time>2026-04-18T10:17:00.993Z</time></trkpt><trkpt lat="44.4036057" lon="12.0807122"><ele>4.0</ele><time>2026-04-18T10:17:01.993Z</time></trkpt><trkpt lat="44.403502" lon="12.0803722"><ele>4.0</ele><time>2026-04-18T10:17:02.993Z</time></trkpt><trkpt lat="44.4033979" lon="12.0800291"><ele>4.0</ele><time>2026-04-18T10:17:03.993Z</time></trkpt><trkpt lat="44.4032932" lon="12.0796841"><ele>4.0</ele><time>2026-04-18T10:17:04.994Z</time></trkpt><trkpt lat="44.4031864" lon="12.0793381"><ele>4.0</ele><time>2026-04-18T10:17:05.994Z</time></trkpt><trkpt lat="44.4030807" lon="12.0789926"><ele>4.0</ele><time>2026-04-18T10:17:06.993Z</time></trkpt><trkpt lat="44.4029746" lon="12.0786432"><ele>4.0</ele><time>2026-04-18T10:17:07.993Z</time></trkpt><trkpt lat="44.4028699" lon="12.0782895"><ele>3.5</ele><time>2026-04-18T10:17:08.995Z</time></trkpt><trkpt lat="44.4027641" lon="12.0779343"><ele>3.0</ele><time>2026-04-18T10:17:09.994Z</time></trkpt><trkpt lat="44.4026564" lon="12.0775785"><ele>3.0</ele><time>2026-04-18T10:17:10.994Z</time></trkpt><trkpt lat="44.4025468" lon="12.0772244"><ele>3.0</ele><time>2026-04-18T10:17:11.994Z</time></trkpt><trkpt lat="44.4024395" lon="12.0768716"><ele>4.0</ele><time>2026-04-18T10:17:12.994Z</time></trkpt><trkpt lat="44.402331" lon="12.0765223"><ele>5.0</ele><time>2026-04-18T10:17:13.993Z</time></trkpt><trkpt lat="44.402222" lon="12.0761773"><ele>4.0</ele><time>2026-04-18T10:17:14.993Z</time></trkpt><trkpt lat="44.4021159" lon="12.0758336"><ele>3.0</ele><time>2026-04-18T10:17:15.993Z</time></trkpt><trkpt lat="44.4020133" lon="12.0754939"><ele>2.5</ele><time>2026-04-18T10:17:16.993Z</time></trkpt><trkpt lat="44.4019135" lon="12.0751581"><ele>2.0</ele><time>2026-04-18T10:17:17.994Z</time></trkpt><trkpt lat="44.4018121" lon="12.0748258"><ele>3.0</ele><time>2026-04-18T10:17:18.995Z</time></trkpt><trkpt lat="44.4017117" lon="12.0744943"><ele>4.0</ele><time>2026-04-18T10:17:19.994Z</time></trkpt><trkpt lat="44.4016121" lon="12.074162"><ele>4.5</ele><time>2026-04-18T10:17:20.994Z</time></trkpt><trkpt lat="44.4015133" lon="12.0738315"><ele>5.0</ele><time>2026-04-18T10:17:21.993Z</time></trkpt><trkpt lat="44.4014112" lon="12.0735016"><ele>4.5</ele><time>2026-04-18T10:17:22.995Z</time></trkpt><trkpt lat="44.4013083" lon="12.0731707"><ele>4.0</ele><time>2026-04-18T10:17:23.994Z</time></trkpt><trkpt lat="44.4012038" lon="12.0728354"><ele>4.0</ele><time>2026-04-18T10:17:24.994Z</time></trkpt><trkpt lat="44.4010996" lon="12.0724963"><ele>4.0</ele><time>2026-04-18T10:17:25.993Z</time></trkpt><trkpt lat="44.4009952" lon="12.0721508"><ele>4.0</ele><time>2026-04-18T10:17:26.993Z</time></trkpt><trkpt lat="44.400893" lon="12.0718046"><ele>4.0</ele><time>2026-04-18T10:17:27.993Z</time></trkpt><trkpt lat="44.4007876" lon="12.0714605"><ele>4.0</ele><time>2026-04-18T10:17:28.994Z</time></trkpt><trkpt lat="44.4006833" lon="12.0711201"><ele>4.0</ele><time>2026-04-18T10:17:29.994Z</time></trkpt><trkpt lat="44.40058" lon="12.0707842"><ele>4.0</ele><time>2026-04-18T10:17:30.994Z</time></trkpt><trkpt lat="44.4004776" lon="12.0704537"><ele>4.0</ele><time>2026-04-18T10:17:31.993Z</time></trkpt><trkpt lat="44.4003785" lon="12.0701236"><ele>5.0</ele><time>2026-04-18T10:17:32.994Z</time></trkpt><trkpt lat="44.400281" lon="12.0697936"><ele>6.0</ele><time>2026-04-18T10:17:33.993Z</time></trkpt><trkpt lat="44.4001887" lon="12.0694606"><ele>6.0</ele><time>2026-04-18T10:17:34.994Z</time></trkpt><trkpt lat="44.4001032" lon="12.0691227"><ele>6.0</ele><time>2026-04-18T10:17:35.994Z</time></trkpt><trkpt lat="44.4000274" lon="12.0687827"><ele>5.5</ele><time>2026-04-18T10:17:36.993Z</time></trkpt><trkpt lat="44.3999605" lon="12.0684404"><ele>5.0</ele><time>2026-04-18T10:17:37.993Z</time></trkpt><trkpt lat="44.3999002" lon="12.0680982"><ele>5.0</ele><time>2026-04-18T10:17:38.995Z</time></trkpt><trkpt lat="44.3998452" lon="12.0677614"><ele>5.0</ele><time>2026-04-18T10:17:39.994Z</time></trkpt><trkpt lat="44.3997945" lon="12.0674294"><ele>5.0</ele><time>2026-04-18T10:17:40.994Z</time></trkpt><trkpt lat="44.3997535" lon="12.0670959"><ele>5.0</ele><time>2026-04-18T10:17:41.994Z</time></trkpt><trkpt lat="44.3997205" lon="12.0667606"><ele>5.0</ele><time>2026-04-18T10:17:42.995Z</time></trkpt><trkpt lat="44.3996948" lon="12.0664225"><ele>5.0</ele><time>2026-04-18T10:17:43.993Z</time></trkpt><trkpt lat="44.399676" lon="12.0660829"><ele>5.0</ele><time>2026-04-18T10:17:44.994Z</time></trkpt><trkpt lat="44.3996603" lon="12.0657431"><ele>5.0</ele><time>2026-04-18T10:17:45.993Z</time></trkpt><trkpt lat="44.3996516" lon="12.0654012"><ele>5.0</ele><time>2026-04-18T10:17:46.994Z</time></trkpt><trkpt lat="44.3996504" lon="12.0650566"><ele>5.0</ele><time>2026-04-18T10:17:47.994Z</time></trkpt><trkpt lat="44.3996555" lon="12.0647082"><ele>6.0</ele><time>2026-04-18T10:17:48.995Z</time></trkpt><trkpt lat="44.399669" lon="12.0643576"><ele>7.0</ele><time>2026-04-18T10:17:49.993Z</time></trkpt><trkpt lat="44.3996918" lon="12.0640078"><ele>7.5</ele><time>2026-04-18T10:17:50.993Z</time></trkpt><trkpt lat="44.3997214" lon="12.0636602"><ele>8.0</ele><time>2026-04-18T10:17:51.994Z</time></trkpt><trkpt lat="44.3997553" lon="12.063317"><ele>7.5</ele><time>2026-04-18T10:17:52.994Z</time></trkpt><trkpt lat="44.3997971" lon="12.0629747"><ele>7.0</ele><time>2026-04-18T10:17:53.993Z</time></trkpt><trkpt lat="44.3998438" lon="12.0626331"><ele>6.5</ele><time>2026-04-18T10:17:54.993Z</time></trkpt><trkpt lat="44.3998977" lon="12.0622899"><ele>6.0</ele><time>2026-04-18T10:17:55.993Z</time></trkpt><trkpt lat="44.3999546" lon="12.0619447"><ele>6.0</ele><time>2026-04-18T10:17:56.994Z</time></trkpt><trkpt lat="44.4000143" lon="12.0615979"><ele>6.0</ele><time>2026-04-18T10:17:57.992Z</time></trkpt><trkpt lat="44.4000735" lon="12.0612479"><ele>6.0</ele><time>2026-04-18T10:17:58.993Z</time></trkpt><trkpt lat="44.4001333" lon="12.060895"><ele>6.0</ele><time>2026-04-18T10:17:59.995Z</time></trkpt><trkpt lat="44.400195" lon="12.0605383"><ele>6.0</ele><time>2026-04-18T10:18:00.993Z</time></trkpt><trkpt lat="44.400255" lon="12.060175"><ele>6.0</ele><time>2026-04-18T10:18:01.993Z</time></trkpt><trkpt lat="44.400315" lon="12.05981"><ele>6.0</ele><time>2026-04-18T10:18:02.993Z</time></trkpt><trkpt lat="44.4003783" lon="12.0594417"><ele>6.0</ele><time>2026-04-18T10:18:03.993Z</time></trkpt><trkpt lat="44.4004383" lon="12.059075"><ele>5.5</ele><time>2026-04-18T10:18:04.994Z</time></trkpt><trkpt lat="44.4004967" lon="12.058705"><ele>5.0</ele><time>2026-04-18T10:18:05.993Z</time></trkpt><trkpt lat="44.4005567" lon="12.0583333"><ele>5.0</ele><time>2026-04-18T10:18:06.993Z</time></trkpt><trkpt lat="44.40062" lon="12.0579633"><ele>5.0</ele><time>2026-04-18T10:18:07.994Z</time></trkpt><trkpt lat="44.4006833" lon="12.05759"><ele>5.5</ele><time>2026-04-18T10:18:08.995Z</time></trkpt><trkpt lat="44.4007467" lon="12.057215"><ele>6.0</ele><time>2026-04-18T10:18:09.994Z</time></trkpt><trkpt lat="44.4008117" lon="12.05684"><ele>6.0</ele><time>2026-04-18T10:18:10.993Z</time></trkpt><trkpt lat="44.4008767" lon="12.056465"><ele>6.0</ele><time>2026-04-18T10:18:11.994Z</time></trkpt><trkpt lat="44.4009417" lon="12.0560883"><ele>5.5</ele><time>2026-04-18T10:18:12.994Z</time></trkpt><trkpt lat="44.4010067" lon="12.05571"><ele>5.0</ele><time>2026-04-18T10:18:13.996Z</time></trkpt><trkpt lat="44.40107" lon="12.0553317"><ele>5.0</ele><time>2026-04-18T10:18:14.994Z</time></trkpt><trkpt lat="44.401135" lon="12.0549533"><ele>5.0</ele><time>2026-04-18T10:18:15.995Z</time></trkpt><trkpt lat="44.4011983" lon="12.0545817"><ele>5.0</ele><time>2026-04-18T10:18:16.994Z</time></trkpt><trkpt lat="44.4012617" lon="12.054215"><ele>5.0</ele><time>2026-04-18T10:18:17.993Z</time></trkpt><trkpt lat="44.4013233" lon="12.05385"><ele>5.5</ele><time>2026-04-18T10:18:18.993Z</time></trkpt><trkpt lat="44.4013833" lon="12.0534883"><ele>6.0</ele><time>2026-04-18T10:18:19.993Z</time></trkpt><trkpt lat="44.40144" lon="12.05313"><ele>6.0</ele><time>2026-04-18T10:18:20.993Z</time></trkpt><trkpt lat="44.4015" lon="12.052775"><ele>6.0</ele><time>2026-04-18T10:18:21.993Z</time></trkpt><trkpt lat="44.40156" lon="12.0524233"><ele>6.0</ele><time>2026-04-18T10:18:22.993Z</time></trkpt><trkpt lat="44.40162" lon="12.0520683"><ele>6.0</ele><time>2026-04-18T10:18:23.993Z</time></trkpt><trkpt lat="44.40168" lon="12.051715"><ele>6.0</ele><time>2026-04-18T10:18:24.993Z</time></trkpt><trkpt lat="44.4017417" lon="12.0513617"><ele>6.0</ele><time>2026-04-18T10:18:25.994Z</time></trkpt><trkpt lat="44.4018" lon="12.05101"><ele>6.5</ele><time>2026-04-18T10:18:26.993Z</time></trkpt><trkpt lat="44.40186" lon="12.050655"><ele>7.0</ele><time>2026-04-18T10:18:27.993Z</time></trkpt><trkpt lat="44.40192" lon="12.0503033"><ele>6.0</ele><time>2026-04-18T10:18:28.994Z</time></trkpt><trkpt lat="44.4019817" lon="12.0499433"><ele>5.0</ele><time>2026-04-18T10:18:29.994Z</time></trkpt><trkpt lat="44.4020433" lon="12.0495833"><ele>5.0</ele><time>2026-04-18T10:18:30.993Z</time></trkpt><trkpt lat="44.402105" lon="12.0492217"><ele>5.0</ele><time>2026-04-18T10:18:31.993Z</time></trkpt><trkpt lat="44.4021667" lon="12.048855"><ele>5.5</ele><time>2026-04-18T10:18:32.993Z</time></trkpt><trkpt lat="44.4022283" lon="12.0484833"><ele>6.0</ele><time>2026-04-18T10:18:33.992Z</time></trkpt><trkpt lat="44.4022917" lon="12.0481083"><ele>6.5</ele><time>2026-04-18T10:18:34.992Z</time></trkpt><trkpt lat="44.4023567" lon="12.0477283"><ele>7.0</ele><time>2026-04-18T10:18:35.994Z</time></trkpt><trkpt lat="44.4024233" lon="12.0473483"><ele>7.0</ele><time>2026-04-18T10:18:36.994Z</time></trkpt><trkpt lat="44.4024883" lon="12.0469667"><ele>7.0</ele><time>2026-04-18T10:18:37.992Z</time></trkpt><trkpt lat="44.402555" lon="12.0465833"><ele>7.0</ele><time>2026-04-18T10:18:38.994Z</time></trkpt><trkpt lat="44.4026217" lon="12.0461967"><ele>7.0</ele><time>2026-04-18T10:18:39.993Z</time></trkpt><trkpt lat="44.402685" lon="12.0458083"><ele>6.5</ele><time>2026-04-18T10:18:40.992Z</time></trkpt><trkpt lat="44.40275" lon="12.0454217"><ele>6.0</ele><time>2026-04-18T10:18:41.992Z</time></trkpt><trkpt lat="44.402815" lon="12.0450367"><ele>6.0</ele><time>2026-04-18T10:18:42.993Z</time></trkpt><trkpt lat="44.40288" lon="12.0446467"><ele>6.0</ele><time>2026-04-18T10:18:43.993Z</time></trkpt><trkpt lat="44.402945" lon="12.044255"><ele>6.0</ele><time>2026-04-18T10:18:44.992Z</time></trkpt><trkpt lat="44.4030083" lon="12.0438667"><ele>6.0</ele><time>2026-04-18T10:18:45.992Z</time></trkpt><trkpt lat="44.4030733" lon="12.0434767"><ele>6.5</ele><time>2026-04-18T10:18:46.992Z</time></trkpt><trkpt lat="44.4031383" lon="12.0430867"><ele>7.0</ele><time>2026-04-18T10:18:47.993Z</time></trkpt><trkpt lat="44.403205" lon="12.042695"><ele>6.5</ele><time>2026-04-18T10:18:48.993Z</time></trkpt><trkpt lat="44.4032701" lon="12.0423025"><ele>6.0</ele><time>2026-04-18T10:18:49.992Z</time></trkpt><trkpt lat="44.4033369" lon="12.0419102"><ele>5.5</ele><time>2026-04-18T10:18:50.994Z</time></trkpt><trkpt lat="44.4034043" lon="12.0415193"><ele>5.0</ele><time>2026-04-18T10:18:51.993Z</time></trkpt><trkpt lat="44.4034712" lon="12.0411286"><ele>4.5</ele><time>2026-04-18T10:18:52.992Z</time></trkpt><trkpt lat="44.4035369" lon="12.04074"><ele>4.0</ele><time>2026-04-18T10:18:53.993Z</time></trkpt><trkpt lat="44.4036022" lon="12.0403528"><ele>4.5</ele><time>2026-04-18T10:18:54.993Z</time></trkpt><trkpt lat="44.4036674" lon="12.0399666"><ele>5.0</ele><time>2026-04-18T10:18:55.993Z</time></trkpt><trkpt lat="44.4037323" lon="12.0395839"><ele>5.0</ele><time>2026-04-18T10:18:56.994Z</time></trkpt><trkpt lat="44.403797" lon="12.0392051"><ele>5.0</ele><time>2026-04-18T10:18:57.992Z</time></trkpt><trkpt lat="44.4038609" lon="12.038827"><ele>6.5</ele><time>2026-04-18T10:18:58.995Z</time></trkpt><trkpt lat="44.4039263" lon="12.0384488"><ele>8.0</ele><time>2026-04-18T10:18:59.992Z</time></trkpt><trkpt lat="44.4039914" lon="12.0380729"><ele>8.0</ele><time>2026-04-18T10:19:00.992Z</time></trkpt><trkpt lat="44.4040563" lon="12.0376942"><ele>8.0</ele><time>2026-04-18T10:19:01.992Z</time></trkpt><trkpt lat="44.4041213" lon="12.0373156"><ele>7.5</ele><time>2026-04-18T10:19:02.993Z</time></trkpt><trkpt lat="44.4041867" lon="12.036929"><ele>7.0</ele><time>2026-04-18T10:19:04.033Z</time></trkpt><trkpt lat="44.4042497" lon="12.036557"><ele>7.0</ele><time>2026-04-18T10:19:04.993Z</time></trkpt><trkpt lat="44.404316" lon="12.0361698"><ele>7.0</ele><time>2026-04-18T10:19:05.994Z</time></trkpt><trkpt lat="44.4043838" lon="12.0357772"><ele>7.5</ele><time>2026-04-18T10:19:07.032Z</time></trkpt><trkpt lat="44.4044483" lon="12.0354011"><ele>8.0</ele><time>2026-04-18T10:19:07.993Z</time></trkpt><trkpt lat="44.4045127" lon="12.0350102"><ele>8.0</ele><time>2026-04-18T10:19:08.994Z</time></trkpt><trkpt lat="44.4045796" lon="12.0346129"><ele>8.0</ele><time>2026-04-18T10:19:10.033Z</time></trkpt><trkpt lat="44.4046424" lon="12.0342359"><ele>7.5</ele><time>2026-04-18T10:19:10.993Z</time></trkpt><trkpt lat="44.4047075" lon="12.0338475"><ele>7.0</ele><time>2026-04-18T10:19:11.992Z</time></trkpt><trkpt lat="44.4047707" lon="12.0334614"><ele>7.0</ele><time>2026-04-18T10:19:12.992Z</time></trkpt><trkpt lat="44.404832" lon="12.0330797"><ele>7.0</ele><time>2026-04-18T10:19:13.992Z</time></trkpt><trkpt lat="44.4048947" lon="12.0327023"><ele>7.0</ele><time>2026-04-18T10:19:14.994Z</time></trkpt><trkpt lat="44.4049571" lon="12.0323184"><ele>7.0</ele><time>2026-04-18T10:19:16.033Z</time></trkpt><trkpt lat="44.405021" lon="12.0319548"><ele>7.0</ele><time>2026-04-18T10:19:16.992Z</time></trkpt><trkpt lat="44.405085" lon="12.0315823"><ele>7.0</ele><time>2026-04-18T10:19:17.993Z</time></trkpt><trkpt lat="44.4051493" lon="12.0312049"><ele>7.0</ele><time>2026-04-18T10:19:19.033Z</time></trkpt><trkpt lat="44.405208" lon="12.0308463"><ele>7.0</ele><time>2026-04-18T10:19:19.993Z</time></trkpt><trkpt lat="44.4052703" lon="12.0304761"><ele>7.0</ele><time>2026-04-18T10:19:20.993Z</time></trkpt><trkpt lat="44.4053341" lon="12.030106"><ele>7.0</ele><time>2026-04-18T10:19:21.992Z</time></trkpt><trkpt lat="44.4053968" lon="12.0297341"><ele>8.0</ele><time>2026-04-18T10:19:22.992Z</time></trkpt><trkpt lat="44.4054607" lon="12.0293633"><ele>9.0</ele><time>2026-04-18T10:19:23.993Z</time></trkpt><trkpt lat="44.4055283" lon="12.0289855"><ele>10.5</ele><time>2026-04-18T10:19:25.033Z</time></trkpt><trkpt lat="44.4055914" lon="12.0286256"><ele>12.0</ele><time>2026-04-18T10:19:25.993Z</time></trkpt><trkpt lat="44.4056558" lon="12.0282516"><ele>12.0</ele><time>2026-04-18T10:19:26.993Z</time></trkpt><trkpt lat="44.4057195" lon="12.0278776"><ele>12.0</ele><time>2026-04-18T10:19:27.992Z</time></trkpt><trkpt lat="44.4057804" lon="12.0275005"><ele>11.5</ele><time>2026-04-18T10:19:28.993Z</time></trkpt><trkpt lat="44.4058433" lon="12.0271236"><ele>11.0</ele><time>2026-04-18T10:19:29.992Z</time></trkpt><trkpt lat="44.4059067" lon="12.0267449"><ele>9.5</ele><time>2026-04-18T10:19:30.993Z</time></trkpt><trkpt lat="44.4059721" lon="12.0263638"><ele>8.0</ele><time>2026-04-18T10:19:31.993Z</time></trkpt><trkpt lat="44.4060349" lon="12.0259831"><ele>8.0</ele><time>2026-04-18T10:19:32.993Z</time></trkpt><trkpt lat="44.4061009" lon="12.0255967"><ele>8.0</ele><time>2026-04-18T10:19:34.033Z</time></trkpt><trkpt lat="44.4061632" lon="12.025228"><ele>8.0</ele><time>2026-04-18T10:19:34.993Z</time></trkpt><trkpt lat="44.4062272" lon="12.0248479"><ele>8.0</ele><time>2026-04-18T10:19:35.992Z</time></trkpt><trkpt lat="44.4062912" lon="12.0244616"><ele>8.5</ele><time>2026-04-18T10:19:37.033Z</time></trkpt><trkpt lat="44.4063517" lon="12.02409"><ele>9.0</ele><time>2026-04-18T10:19:37.993Z</time></trkpt><trkpt lat="44.406415" lon="12.0237083"><ele>9.0</ele><time>2026-04-18T10:19:38.993Z</time></trkpt><trkpt lat="44.4064783" lon="12.0233283"><ele>9.0</ele><time>2026-04-18T10:19:40.033Z</time></trkpt><trkpt lat="44.4065433" lon="12.022945"><ele>9.0</ele><time>2026-04-18T10:19:40.993Z</time></trkpt><trkpt lat="44.4066083" lon="12.0225583"><ele>9.0</ele><time>2026-04-18T10:19:41.992Z</time></trkpt><trkpt lat="44.406675" lon="12.0221667"><ele>8.0</ele><time>2026-04-18T10:19:42.992Z</time></trkpt><trkpt lat="44.4067433" lon="12.0217717"><ele>7.0</ele><time>2026-04-18T10:19:43.992Z</time></trkpt><trkpt lat="44.40681" lon="12.021375"><ele>6.5</ele><time>2026-04-18T10:19:44.994Z</time></trkpt><trkpt lat="44.406875" lon="12.0209783"><ele>6.0</ele><time>2026-04-18T10:19:45.992Z</time></trkpt><trkpt lat="44.40694" lon="12.0205833"><ele>6.0</ele><time>2026-04-18T10:19:46.993Z</time></trkpt><trkpt lat="44.4070083" lon="12.020185"><ele>6.0</ele><time>2026-04-18T10:19:47.994Z</time></trkpt><trkpt lat="44.4070767" lon="12.0197833"><ele>6.0</ele><time>2026-04-18T10:19:48.993Z</time></trkpt><trkpt lat="44.407145" lon="12.0193783"><ele>6.0</ele><time>2026-04-18T10:19:49.992Z</time></trkpt><trkpt lat="44.4072117" lon="12.0189717"><ele>6.0</ele><time>2026-04-18T10:19:50.993Z</time></trkpt><trkpt lat="44.40727" lon="12.018565"><ele>6.0</ele><time>2026-04-18T10:19:51.992Z</time></trkpt><trkpt lat="44.4073233" lon="12.0181583"><ele>6.0</ele><time>2026-04-18T10:19:52.992Z</time></trkpt><trkpt lat="44.4073767" lon="12.0177517"><ele>6.0</ele><time>2026-04-18T10:19:53.993Z</time></trkpt><trkpt lat="44.407425" lon="12.0173467"><ele>6.0</ele><time>2026-04-18T10:19:54.992Z</time></trkpt><trkpt lat="44.407465" lon="12.016945"><ele>6.0</ele><time>2026-04-18T10:19:55.993Z</time></trkpt><trkpt lat="44.4074983" lon="12.0165533"><ele>6.5</ele><time>2026-04-18T10:19:56.992Z</time></trkpt><trkpt lat="44.40753" lon="12.016165"><ele>7.0</ele><time>2026-04-18T10:19:57.993Z</time></trkpt><trkpt lat="44.4075567" lon="12.015785"><ele>7.0</ele><time>2026-04-18T10:19:58.993Z</time></trkpt><trkpt lat="44.40758" lon="12.0154067"><ele>7.0</ele><time>2026-04-18T10:19:59.992Z</time></trkpt><trkpt lat="44.4075983" lon="12.0150283"><ele>7.0</ele><time>2026-04-18T10:20:00.993Z</time></trkpt><trkpt lat="44.407615" lon="12.0146483"><ele>7.0</ele><time>2026-04-18T10:20:01.992Z</time></trkpt><trkpt lat="44.407625" lon="12.01427"><ele>6.0</ele><time>2026-04-18T10:20:02.993Z</time></trkpt><trkpt lat="44.40763" lon="12.013895"><ele>5.0</ele><time>2026-04-18T10:20:03.993Z</time></trkpt><trkpt lat="44.4076333" lon="12.0135183"><ele>5.5</ele><time>2026-04-18T10:20:04.992Z</time></trkpt><trkpt lat="44.40763" lon="12.0131417"><ele>6.0</ele><time>2026-04-18T10:20:05.993Z</time></trkpt><trkpt lat="44.4076233" lon="12.0127617"><ele>6.0</ele><time>2026-04-18T10:20:06.993Z</time></trkpt><trkpt lat="44.4076117" lon="12.0123733"><ele>6.0</ele><time>2026-04-18T10:20:07.993Z</time></trkpt><trkpt lat="44.4075967" lon="12.01198"><ele>7.0</ele><time>2026-04-18T10:20:08.993Z</time></trkpt><trkpt lat="44.4075733" lon="12.0115817"><ele>8.0</ele><time>2026-04-18T10:20:09.992Z</time></trkpt><trkpt lat="44.4075467" lon="12.0111817"><ele>7.5</ele><time>2026-04-18T10:20:10.993Z</time></trkpt><trkpt lat="44.4075167" lon="12.0107767"><ele>7.0</ele><time>2026-04-18T10:20:11.993Z</time></trkpt><trkpt lat="44.4074817" lon="12.010375"><ele>6.0</ele><time>2026-04-18T10:20:12.993Z</time></trkpt><trkpt lat="44.40745" lon="12.0099733"><ele>5.0</ele><time>2026-04-18T10:20:13.993Z</time></trkpt><trkpt lat="44.40742" lon="12.0095717"><ele>5.0</ele><time>2026-04-18T10:20:14.993Z</time></trkpt><trkpt lat="44.4073883" lon="12.0091717"><ele>5.0</ele><time>2026-04-18T10:20:15.993Z</time></trkpt><trkpt lat="44.407355" lon="12.0087733"><ele>4.5</ele><time>2026-04-18T10:20:16.993Z</time></trkpt><trkpt lat="44.4073183" lon="12.0083783"><ele>4.0</ele><time>2026-04-18T10:20:17.992Z</time></trkpt><trkpt lat="44.4072783" lon="12.0079833"><ele>4.0</ele><time>2026-04-18T10:20:18.993Z</time></trkpt><trkpt lat="44.407235" lon="12.0075817"><ele>4.0</ele><time>2026-04-18T10:20:19.993Z</time></trkpt><trkpt lat="44.40719" lon="12.007175"><ele>5.0</ele><time>2026-04-18T10:20:20.995Z</time></trkpt><trkpt lat="44.4071467" lon="12.006765"><ele>6.0</ele><time>2026-04-18T10:20:21.992Z</time></trkpt><trkpt lat="44.407105" lon="12.0063567"><ele>6.5</ele><time>2026-04-18T10:20:22.993Z</time></trkpt><trkpt lat="44.407065" lon="12.0059467"><ele>7.0</ele><time>2026-04-18T10:20:23.994Z</time></trkpt><trkpt lat="44.4070283" lon="12.0055383"><ele>7.5</ele><time>2026-04-18T10:20:24.992Z</time></trkpt><trkpt lat="44.4069967" lon="12.00513"><ele>8.0</ele><time>2026-04-18T10:20:25.994Z</time></trkpt><trkpt lat="44.4069633" lon="12.0047217"><ele>8.5</ele><time>2026-04-18T10:20:26.993Z</time></trkpt><trkpt lat="44.4069267" lon="12.004315"><ele>9.0</ele><time>2026-04-18T10:20:27.992Z</time></trkpt><trkpt lat="44.4068867" lon="12.0039083"><ele>9.0</ele><time>2026-04-18T10:20:28.993Z</time></trkpt><trkpt lat="44.40685" lon="12.0034967"><ele>9.0</ele><time>2026-04-18T10:20:29.992Z</time></trkpt><trkpt lat="44.40681" lon="12.0030867"><ele>9.0</ele><time>2026-04-18T10:20:30.992Z</time></trkpt><trkpt lat="44.4067717" lon="12.0026767"><ele>9.0</ele><time>2026-04-18T10:20:31.992Z</time></trkpt><trkpt lat="44.4067333" lon="12.0022633"><ele>8.5</ele><time>2026-04-18T10:20:32.993Z</time></trkpt><trkpt lat="44.406695" lon="12.0018533"><ele>8.0</ele><time>2026-04-18T10:20:33.992Z</time></trkpt><trkpt lat="44.406655" lon="12.0014417"><ele>7.5</ele><time>2026-04-18T10:20:34.992Z</time></trkpt><trkpt lat="44.4066183" lon="12.00103"><ele>7.0</ele><time>2026-04-18T10:20:35.993Z</time></trkpt><trkpt lat="44.406585" lon="12.0006183"><ele>8.0</ele><time>2026-04-18T10:20:36.992Z</time></trkpt><trkpt lat="44.4065567" lon="12.000205"><ele>9.0</ele><time>2026-04-18T10:20:37.992Z</time></trkpt><trkpt lat="44.406525" lon="11.99979"><ele>9.0</ele><time>2026-04-18T10:20:38.992Z</time></trkpt><trkpt lat="44.4064933" lon="11.9993767"><ele>9.0</ele><time>2026-04-18T10:20:39.992Z</time></trkpt><trkpt lat="44.40646" lon="11.9989617"><ele>9.0</ele><time>2026-04-18T10:20:40.992Z</time></trkpt><trkpt lat="44.4064233" lon="11.99855"><ele>9.0</ele><time>2026-04-18T10:20:41.993Z</time></trkpt><trkpt lat="44.4063883" lon="11.9981367"><ele>9.0</ele><time>2026-04-18T10:20:42.993Z</time></trkpt><trkpt lat="44.4063517" lon="11.99772"><ele>9.0</ele><time>2026-04-18T10:20:43.993Z</time></trkpt><trkpt lat="44.4063133" lon="11.997305"><ele>9.0</ele><time>2026-04-18T10:20:44.994Z</time></trkpt><trkpt lat="44.4062767" lon="11.9968933"><ele>9.0</ele><time>2026-04-18T10:20:45.992Z</time></trkpt><trkpt lat="44.4062383" lon="11.99648"><ele>8.5</ele><time>2026-04-18T10:20:46.992Z</time></trkpt><trkpt lat="44.4062017" lon="11.9960683"><ele>8.0</ele><time>2026-04-18T10:20:47.993Z</time></trkpt><trkpt lat="44.406165" lon="11.99566"><ele>7.5</ele><time>2026-04-18T10:20:48.992Z</time></trkpt><trkpt lat="44.4061283" lon="11.995255"><ele>7.0</ele><time>2026-04-18T10:20:49.992Z</time></trkpt><trkpt lat="44.4060917" lon="11.9948533"><ele>7.0</ele><time>2026-04-18T10:20:50.994Z</time></trkpt><trkpt lat="44.4060583" lon="11.9944583"><ele>7.0</ele><time>2026-04-18T10:20:51.992Z</time></trkpt><trkpt lat="44.406025" lon="11.994065"><ele>6.5</ele><time>2026-04-18T10:20:52.993Z</time></trkpt><trkpt lat="44.4059917" lon="11.993675"><ele>6.0</ele><time>2026-04-18T10:20:53.992Z</time></trkpt><trkpt lat="44.40596" lon="11.993285"><ele>5.5</ele><time>2026-04-18T10:20:54.993Z</time></trkpt><trkpt lat="44.4059267" lon="11.9929017"><ele>5.0</ele><time>2026-04-18T10:20:55.992Z</time></trkpt><trkpt lat="44.4058917" lon="11.99252"><ele>5.5</ele><time>2026-04-18T10:20:56.992Z</time></trkpt><trkpt lat="44.4058567" lon="11.99214"><ele>6.0</ele><time>2026-04-18T10:20:57.993Z</time></trkpt><trkpt lat="44.4058217" lon="11.9917633"><ele>7.5</ele><time>2026-04-18T10:20:58.993Z</time></trkpt><trkpt lat="44.405785" lon="11.99139"><ele>9.0</ele><time>2026-04-18T10:20:59.992Z</time></trkpt><trkpt lat="44.40575" lon="11.9910183"><ele>9.5</ele><time>2026-04-18T10:21:00.993Z</time></trkpt><trkpt lat="44.4057183" lon="11.9906483"><ele>10.0</ele><time>2026-04-18T10:21:01.993Z</time></trkpt><trkpt lat="44.405685" lon="11.99028"><ele>9.5</ele><time>2026-04-18T10:21:02.994Z</time></trkpt><trkpt lat="44.40565" lon="11.98991"><ele>9.0</ele><time>2026-04-18T10:21:03.992Z</time></trkpt><trkpt lat="44.405615" lon="11.9895383"><ele>9.0</ele><time>2026-04-18T10:21:04.992Z</time></trkpt><trkpt lat="44.40558" lon="11.9891683"><ele>9.0</ele><time>2026-04-18T10:21:05.992Z</time></trkpt><trkpt lat="44.4055467" lon="11.9887967"><ele>9.0</ele><time>2026-04-18T10:21:06.992Z</time></trkpt><trkpt lat="44.4055133" lon="11.9884233"><ele>9.0</ele><time>2026-04-18T10:21:07.993Z</time></trkpt><trkpt lat="44.4054783" lon="11.988045"><ele>9.0</ele><time>2026-04-18T10:21:08.993Z</time></trkpt><trkpt lat="44.40544" lon="11.9876633"><ele>9.0</ele><time>2026-04-18T10:21:09.994Z</time></trkpt><trkpt lat="44.405405" lon="11.9872783"><ele>9.0</ele><time>2026-04-18T10:21:10.992Z</time></trkpt><trkpt lat="44.405365" lon="11.9868917"><ele>9.0</ele><time>2026-04-18T10:21:11.992Z</time></trkpt><trkpt lat="44.4053233" lon="11.9865017"><ele>9.0</ele><time>2026-04-18T10:21:12.993Z</time></trkpt><trkpt lat="44.4052817" lon="11.9861067"><ele>9.0</ele><time>2026-04-18T10:21:13.993Z</time></trkpt><trkpt lat="44.4052467" lon="11.98571"><ele>8.5</ele><time>2026-04-18T10:21:14.994Z</time></trkpt><trkpt lat="44.405215" lon="11.9853117"><ele>8.0</ele><time>2026-04-18T10:21:15.993Z</time></trkpt><trkpt lat="44.405185" lon="11.9849133"><ele>8.0</ele><time>2026-04-18T10:21:16.992Z</time></trkpt><trkpt lat="44.4051567" lon="11.9845133"><ele>8.0</ele><time>2026-04-18T10:21:17.993Z</time></trkpt><trkpt lat="44.4051283" lon="11.984115"><ele>8.0</ele><time>2026-04-18T10:21:18.993Z</time></trkpt><trkpt lat="44.4050967" lon="11.9837183"><ele>8.0</ele><time>2026-04-18T10:21:19.994Z</time></trkpt><trkpt lat="44.4050617" lon="11.9833217"><ele>8.0</ele><time>2026-04-18T10:21:20.993Z</time></trkpt><trkpt lat="44.4050233" lon="11.9829283"><ele>8.0</ele><time>2026-04-18T10:21:21.992Z</time></trkpt><trkpt lat="44.4049867" lon="11.9825333"><ele>7.5</ele><time>2026-04-18T10:21:22.993Z</time></trkpt><trkpt lat="44.40495" lon="11.98214"><ele>7.0</ele><time>2026-04-18T10:21:23.993Z</time></trkpt><trkpt lat="44.4049117" lon="11.98175"><ele>7.5</ele><time>2026-04-18T10:21:24.992Z</time></trkpt><trkpt lat="44.4048767" lon="11.9813583"><ele>8.0</ele><time>2026-04-18T10:21:25.992Z</time></trkpt><trkpt lat="44.40484" lon="11.98097"><ele>8.0</ele><time>2026-04-18T10:21:26.994Z</time></trkpt><trkpt lat="44.404805" lon="11.9805817"><ele>8.0</ele><time>2026-04-18T10:21:27.992Z</time></trkpt><trkpt lat="44.40477" lon="11.9801933"><ele>8.0</ele><time>2026-04-18T10:21:28.993Z</time></trkpt><trkpt lat="44.404735" lon="11.979805"><ele>8.0</ele><time>2026-04-18T10:21:29.993Z</time></trkpt><trkpt lat="44.4047017" lon="11.97942"><ele>8.0</ele><time>2026-04-18T10:21:30.992Z</time></trkpt><trkpt lat="44.4046633" lon="11.9790367"><ele>8.0</ele><time>2026-04-18T10:21:31.992Z</time></trkpt><trkpt lat="44.4046267" lon="11.978655"><ele>8.5</ele><time>2026-04-18T10:21:32.993Z</time></trkpt><trkpt lat="44.4045867" lon="11.9782833"><ele>9.0</ele><time>2026-04-18T10:21:33.992Z</time></trkpt><trkpt lat="44.4045433" lon="11.977935"><ele>9.0</ele><time>2026-04-18T10:21:34.993Z</time></trkpt><trkpt lat="44.4044983" lon="11.9776067"><ele>9.0</ele><time>2026-04-18T10:21:35.993Z</time></trkpt><trkpt lat="44.404455" lon="11.9772833"><ele>9.5</ele><time>2026-04-18T10:21:36.992Z</time></trkpt><trkpt lat="44.4044083" lon="11.9769633"><ele>10.0</ele><time>2026-04-18T10:21:37.995Z</time></trkpt><trkpt lat="44.4043583" lon="11.97664"><ele>10.5</ele><time>2026-04-18T10:21:38.993Z</time></trkpt><trkpt lat="44.4043033" lon="11.97631"><ele>11.0</ele><time>2026-04-18T10:21:39.993Z</time></trkpt><trkpt lat="44.4042433" lon="11.9759817"><ele>11.0</ele><time>2026-04-18T10:21:40.993Z</time></trkpt><trkpt lat="44.40418" lon="11.9756533"><ele>11.0</ele><time>2026-04-18T10:21:41.993Z</time></trkpt><trkpt lat="44.4041117" lon="11.9753233"><ele>11.0</ele><time>2026-04-18T10:21:42.993Z</time></trkpt><trkpt lat="44.4040433" lon="11.974995"><ele>11.0</ele><time>2026-04-18T10:21:43.993Z</time></trkpt><trkpt lat="44.40397" lon="11.9746667"><ele>11.0</ele><time>2026-04-18T10:21:44.993Z</time></trkpt><trkpt lat="44.403895" lon="11.974335"><ele>11.0</ele><time>2026-04-18T10:21:45.992Z</time></trkpt><trkpt lat="44.4038167" lon="11.9740067"><ele>11.5</ele><time>2026-04-18T10:21:46.992Z</time></trkpt><trkpt lat="44.4037317" lon="11.9736817"><ele>12.0</ele><time>2026-04-18T10:21:47.992Z</time></trkpt><trkpt lat="44.403645" lon="11.9733617"><ele>10.5</ele><time>2026-04-18T10:21:48.992Z</time></trkpt><trkpt lat="44.403555" lon="11.973045"><ele>9.0</ele><time>2026-04-18T10:21:49.992Z</time></trkpt><trkpt lat="44.4034633" lon="11.9727283"><ele>10.0</ele><time>2026-04-18T10:21:50.993Z</time></trkpt><trkpt lat="44.40337" lon="11.972415"><ele>11.0</ele><time>2026-04-18T10:21:51.992Z</time></trkpt><trkpt lat="44.4032767" lon="11.9721083"><ele>11.0</ele><time>2026-04-18T10:21:52.992Z</time></trkpt><trkpt lat="44.4031933" lon="11.9718067"><ele>11.0</ele><time>2026-04-18T10:21:53.994Z</time></trkpt><trkpt lat="44.4031067" lon="11.971515"><ele>10.666666666666666</ele><time>2026-04-18T10:21:54.992Z</time></trkpt><trkpt lat="44.403015" lon="11.971235"><ele>10.333333333333334</ele><time>2026-04-18T10:21:55.993Z</time></trkpt><trkpt lat="44.4029217" lon="11.970955"><ele>10.0</ele><time>2026-04-18T10:21:56.993Z</time></trkpt><trkpt lat="44.4028367" lon="11.9706867"><ele>10.0</ele><time>2026-04-18T10:21:57.992Z</time></trkpt><trkpt lat="44.4027633" lon="11.9704283"><ele>10.0</ele><time>2026-04-18T10:21:58.993Z</time></trkpt><trkpt lat="44.4027083" lon="11.9701733"><ele>10.0</ele><time>2026-04-18T10:21:59.992Z</time></trkpt><trkpt lat="44.4026817" lon="11.9699183"><ele>10.0</ele><time>2026-04-18T10:22:00.994Z</time></trkpt><trkpt lat="44.4026783" lon="11.9696667"><ele>10.0</ele><time>2026-04-18T10:22:01.993Z</time></trkpt><trkpt lat="44.4027" lon="11.969415"><ele>10.0</ele><time>2026-04-18T10:22:02.993Z</time></trkpt><trkpt lat="44.4027517" lon="11.96917"><ele>10.0</ele><time>2026-04-18T10:22:03.993Z</time></trkpt><trkpt lat="44.4028333" lon="11.96894"><ele>10.0</ele><time>2026-04-18T10:22:04.993Z</time></trkpt><trkpt lat="44.4029417" lon="11.96873"><ele>10.0</ele><time>2026-04-18T10:22:05.993Z</time></trkpt><trkpt lat="44.4030767" lon="11.96854"><ele>10.0</ele><time>2026-04-18T10:22:06.993Z</time></trkpt><trkpt lat="44.4032317" lon="11.96837"><ele>10.0</ele><time>2026-04-18T10:22:07.994Z</time></trkpt><trkpt lat="44.4034" lon="11.9682133"><ele>10.0</ele><time>2026-04-18T10:22:08.994Z</time></trkpt><trkpt lat="44.4035783" lon="11.968055"><ele>10.0</ele><time>2026-04-18T10:22:09.993Z</time></trkpt><trkpt lat="44.4037533" lon="11.9678967"><ele>10.0</ele><time>2026-04-18T10:22:10.992Z</time></trkpt><trkpt lat="44.4039283" lon="11.9677367"><ele>10.0</ele><time>2026-04-18T10:22:11.993Z</time></trkpt><trkpt lat="44.4041067" lon="11.96758"><ele>10.0</ele><time>2026-04-18T10:22:12.994Z</time></trkpt><trkpt lat="44.404285" lon="11.96743"><ele>10.0</ele><time>2026-04-18T10:22:13.992Z</time></trkpt><trkpt lat="44.4044667" lon="11.9672967"><ele>10.0</ele><time>2026-04-18T10:22:14.994Z</time></trkpt><trkpt lat="44.40464" lon="11.9671767"><ele>10.0</ele><time>2026-04-18T10:22:15.994Z</time></trkpt><trkpt lat="44.4047983" lon="11.96708"><ele>10.0</ele><time>2026-04-18T10:22:16.994Z</time></trkpt><trkpt lat="44.4049233" lon="11.9670133"><ele>10.0</ele><time>2026-04-18T10:22:17.992Z</time></trkpt><trkpt lat="44.4050267" lon="11.9669783"><ele>10.0</ele><time>2026-04-18T10:22:18.993Z</time></trkpt><trkpt lat="44.40512" lon="11.966975"><ele>10.0</ele><time>2026-04-18T10:22:19.993Z</time></trkpt><trkpt lat="44.4052133" lon="11.96702"><ele>10.0</ele><time>2026-04-18T10:22:20.993Z</time></trkpt><trkpt lat="44.4053333" lon="11.9670633"><ele>10.0</ele><time>2026-04-18T10:22:21.994Z</time></trkpt><trkpt lat="44.4054733" lon="11.967075"><ele>10.0</ele><time>2026-04-18T10:22:22.992Z</time></trkpt><trkpt lat="44.4056183" lon="11.9670667"><ele>10.0</ele><time>2026-04-18T10:22:23.995Z</time></trkpt><trkpt lat="44.4057483" lon="11.96703"><ele>10.0</ele><time>2026-04-18T10:22:24.994Z</time></trkpt><trkpt lat="44.4058583" lon="11.9669433"><ele>10.0</ele><time>2026-04-18T10:22:25.993Z</time></trkpt><trkpt lat="44.4059317" lon="11.9668233"><ele>10.0</ele><time>2026-04-18T10:22:26.993Z</time></trkpt><trkpt lat="44.4059783" lon="11.966655"><ele>10.0</ele><time>2026-04-18T10:22:27.992Z</time></trkpt><trkpt lat="44.4059867" lon="11.9664717"><ele>10.0</ele><time>2026-04-18T10:22:28.992Z</time></trkpt><trkpt lat="44.4059467" lon="11.9663033"><ele>10.0</ele><time>2026-04-18T10:22:29.994Z</time></trkpt><trkpt lat="44.4058667" lon="11.96616"><ele>10.0</ele><time>2026-04-18T10:22:30.994Z</time></trkpt><trkpt lat="44.40575" lon="11.9660533"><ele>10.0</ele><time>2026-04-18T10:22:31.992Z</time></trkpt><trkpt lat="44.4056217" lon="11.9660067"><ele>10.0</ele><time>2026-04-18T10:22:32.993Z</time></trkpt><trkpt lat="44.4054833" lon="11.9660067"><ele>10.0</ele><time>2026-04-18T10:22:33.992Z</time></trkpt><trkpt lat="44.4053417" lon="11.9660117"><ele>10.0</ele><time>2026-04-18T10:22:34.994Z</time></trkpt><trkpt lat="44.4052067" lon="11.965975"><ele>10.0</ele><time>2026-04-18T10:22:35.993Z</time></trkpt><trkpt lat="44.4050617" lon="11.9659083"><ele>10.0</ele><time>2026-04-18T10:22:36.993Z</time></trkpt><trkpt lat="44.4049167" lon="11.9657883"><ele>10.0</ele><time>2026-04-18T10:22:37.993Z</time></trkpt><trkpt lat="44.404765" lon="11.9656417"><ele>9.666666666666668</ele><time>2026-04-18T10:22:38.993Z</time></trkpt><trkpt lat="44.4046033" lon="11.965495"><ele>9.333333333333334</ele><time>2026-04-18T10:22:39.992Z</time></trkpt><trkpt lat="44.4044317" lon="11.9653467"><ele>9.0</ele><time>2026-04-18T10:22:40.994Z</time></trkpt><trkpt lat="44.404245" lon="11.9651967"><ele>9.0</ele><time>2026-04-18T10:22:41.993Z</time></trkpt><trkpt lat="44.40405" lon="11.965045"><ele>9.0</ele><time>2026-04-18T10:22:42.993Z</time></trkpt><trkpt lat="44.4038533" lon="11.9648917"><ele>9.0</ele><time>2026-04-18T10:22:43.994Z</time></trkpt><trkpt lat="44.403655" lon="11.9647333"><ele>9.5</ele><time>2026-04-18T10:22:44.994Z</time></trkpt><trkpt lat="44.4034533" lon="11.9645733"><ele>10.0</ele><time>2026-04-18T10:22:45.993Z</time></trkpt><trkpt lat="44.403245" lon="11.96441"><ele>10.0</ele><time>2026-04-18T10:22:46.992Z</time></trkpt><trkpt lat="44.403035" lon="11.9642433"><ele>10.0</ele><time>2026-04-18T10:22:47.992Z</time></trkpt><trkpt lat="44.402825" lon="11.9640767"><ele>10.5</ele><time>2026-04-18T10:22:48.993Z</time></trkpt><trkpt lat="44.4026183" lon="11.963915"><ele>11.0</ele><time>2026-04-18T10:22:49.992Z</time></trkpt><trkpt lat="44.40241" lon="11.9637583"><ele>11.0</ele><time>2026-04-18T10:22:50.993Z</time></trkpt><trkpt lat="44.402205" lon="11.9636"><ele>11.0</ele><time>2026-04-18T10:22:51.993Z</time></trkpt><trkpt lat="44.4019983" lon="11.963445"><ele>11.0</ele><time>2026-04-18T10:22:52.994Z</time></trkpt><trkpt lat="44.401795" lon="11.96329"><ele>11.0</ele><time>2026-04-18T10:22:53.993Z</time></trkpt><trkpt lat="44.4015967" lon="11.963135"><ele>11.0</ele><time>2026-04-18T10:22:54.994Z</time></trkpt><trkpt lat="44.4013967" lon="11.9629817"><ele>11.0</ele><time>2026-04-18T10:22:55.993Z</time></trkpt><trkpt lat="44.4011983" lon="11.962825"><ele>11.0</ele><time>2026-04-18T10:22:56.994Z</time></trkpt><trkpt lat="44.4010017" lon="11.9626683"><ele>11.0</ele><time>2026-04-18T10:22:57.992Z</time></trkpt><trkpt lat="44.4008033" lon="11.9625083"><ele>11.0</ele><time>2026-04-18T10:22:58.993Z</time></trkpt><trkpt lat="44.400605" lon="11.9623433"><ele>11.0</ele><time>2026-04-18T10:22:59.993Z</time></trkpt><trkpt lat="44.4004067" lon="11.9621767"><ele>11.0</ele><time>2026-04-18T10:23:00.992Z</time></trkpt><trkpt lat="44.400205" lon="11.962015"><ele>11.0</ele><time>2026-04-18T10:23:01.992Z</time></trkpt><trkpt lat="44.400005" lon="11.96185"><ele>12.0</ele><time>2026-04-18T10:23:02.994Z</time></trkpt><trkpt lat="44.399805" lon="11.9616883"><ele>13.0</ele><time>2026-04-18T10:23:03.993Z</time></trkpt><trkpt lat="44.3996017" lon="11.9615283"><ele>13.0</ele><time>2026-04-18T10:23:04.993Z</time></trkpt><trkpt lat="44.3994083" lon="11.9613633"><ele>13.0</ele><time>2026-04-18T10:23:05.993Z</time></trkpt><trkpt lat="44.3992033" lon="11.961205"><ele>13.0</ele><time>2026-04-18T10:23:06.992Z</time></trkpt><trkpt lat="44.399005" lon="11.9610433"><ele>13.0</ele><time>2026-04-18T10:23:07.992Z</time></trkpt><trkpt lat="44.39881" lon="11.9608817"><ele>12.0</ele><time>2026-04-18T10:23:08.992Z</time></trkpt><trkpt lat="44.3986167" lon="11.960725"><ele>11.0</ele><time>2026-04-18T10:23:09.992Z</time></trkpt><trkpt lat="44.39843" lon="11.9605817"><ele>10.0</ele><time>2026-04-18T10:23:10.993Z</time></trkpt><trkpt lat="44.3982517" lon="11.9604483"><ele>10.0</ele><time>2026-04-18T10:23:11.993Z</time></trkpt><trkpt lat="44.3980867" lon="11.9603217"><ele>10.0</ele><time>2026-04-18T10:23:12.992Z</time></trkpt><trkpt lat="44.3979267" lon="11.9602033"><ele>10.0</ele><time>2026-04-18T10:23:13.992Z</time></trkpt><trkpt lat="44.3977733" lon="11.960095"><ele>10.666666666666668</ele><time>2026-04-18T10:23:14.992Z</time></trkpt><trkpt lat="44.397625" lon="11.9599867"><ele>11.333333333333334</ele><time>2026-04-18T10:23:15.992Z</time></trkpt><trkpt lat="44.3974733" lon="11.95988"><ele>12.0</ele><time>2026-04-18T10:23:16.992Z</time></trkpt><trkpt lat="44.397315" lon="11.9597733"><ele>12.0</ele><time>2026-04-18T10:23:17.993Z</time></trkpt><trkpt lat="44.3971567" lon="11.9596667"><ele>12.0</ele><time>2026-04-18T10:23:18.994Z</time></trkpt><trkpt lat="44.396995" lon="11.9595617"><ele>12.0</ele><time>2026-04-18T10:23:19.992Z</time></trkpt><trkpt lat="44.39683" lon="11.95946"><ele>12.0</ele><time>2026-04-18T10:23:20.993Z</time></trkpt><trkpt lat="44.3966617" lon="11.9593583"><ele>12.0</ele><time>2026-04-18T10:23:21.993Z</time></trkpt><trkpt lat="44.3964883" lon="11.95925"><ele>12.0</ele><time>2026-04-18T10:23:22.993Z</time></trkpt><trkpt lat="44.396305" lon="11.95914"><ele>12.0</ele><time>2026-04-18T10:23:23.993Z</time></trkpt><trkpt lat="44.39611" lon="11.9590267"><ele>12.0</ele><time>2026-04-18T10:23:24.992Z</time></trkpt><trkpt lat="44.3959083" lon="11.9589117"><ele>12.0</ele><time>2026-04-18T10:23:25.992Z</time></trkpt><trkpt lat="44.3957083" lon="11.9587817"><ele>12.666666666666668</ele><time>2026-04-18T10:23:26.993Z</time></trkpt><trkpt lat="44.3955033" lon="11.9586533"><ele>13.333333333333334</ele><time>2026-04-18T10:23:27.993Z</time></trkpt><trkpt lat="44.3952967" lon="11.9585333"><ele>14.0</ele><time>2026-04-18T10:23:28.992Z</time></trkpt><trkpt lat="44.39509" lon="11.9584133"><ele>13.666666666666668</ele><time>2026-04-18T10:23:29.992Z</time></trkpt><trkpt lat="44.3948833" lon="11.9582967"><ele>13.333333333333332</ele><time>2026-04-18T10:23:30.992Z</time></trkpt><trkpt lat="44.394675" lon="11.958175"><ele>13.0</ele><time>2026-04-18T10:23:31.994Z</time></trkpt><trkpt lat="44.394465" lon="11.958055"><ele>13.0</ele><time>2026-04-18T10:23:32.993Z</time></trkpt><trkpt lat="44.39425" lon="11.9579383"><ele>13.0</ele><time>2026-04-18T10:23:33.993Z</time></trkpt><trkpt lat="44.394035" lon="11.95782"><ele>12.0</ele><time>2026-04-18T10:23:34.994Z</time></trkpt><trkpt lat="44.393815" lon="11.9577033"><ele>11.0</ele><time>2026-04-18T10:23:35.993Z</time></trkpt><trkpt lat="44.393595" lon="11.9575817"><ele>12.0</ele><time>2026-04-18T10:23:36.992Z</time></trkpt><trkpt lat="44.3933717" lon="11.95746"><ele>13.0</ele><time>2026-04-18T10:23:37.993Z</time></trkpt><trkpt lat="44.3931483" lon="11.957335"><ele>12.5</ele><time>2026-04-18T10:23:38.993Z</time></trkpt><trkpt lat="44.3929217" lon="11.957215"><ele>12.0</ele><time>2026-04-18T10:23:39.994Z</time></trkpt><trkpt lat="44.392695" lon="11.95709"><ele>12.0</ele><time>2026-04-18T10:23:40.992Z</time></trkpt><trkpt lat="44.3924667" lon="11.9569633"><ele>12.0</ele><time>2026-04-18T10:23:41.992Z</time></trkpt><trkpt lat="44.3922367" lon="11.9568333"><ele>12.5</ele><time>2026-04-18T10:23:42.993Z</time></trkpt><trkpt lat="44.3920067" lon="11.9567033"><ele>13.0</ele><time>2026-04-18T10:23:43.992Z</time></trkpt><trkpt lat="44.391775" lon="11.95657"><ele>13.0</ele><time>2026-04-18T10:23:44.993Z</time></trkpt><trkpt lat="44.3915433" lon="11.9564367"><ele>13.0</ele><time>2026-04-18T10:23:45.992Z</time></trkpt><trkpt lat="44.39131" lon="11.956305"><ele>13.0</ele><time>2026-04-18T10:23:46.992Z</time></trkpt><trkpt lat="44.3910767" lon="11.956175"><ele>13.0</ele><time>2026-04-18T10:23:47.993Z</time></trkpt><trkpt lat="44.3908417" lon="11.956045"><ele>13.0</ele><time>2026-04-18T10:23:48.994Z</time></trkpt><trkpt lat="44.3906083" lon="11.9559133"><ele>13.0</ele><time>2026-04-18T10:23:49.993Z</time></trkpt><trkpt lat="44.3903717" lon="11.9557817"><ele>12.5</ele><time>2026-04-18T10:23:50.994Z</time></trkpt><trkpt lat="44.3901367" lon="11.9556517"><ele>12.0</ele><time>2026-04-18T10:23:51.993Z</time></trkpt><trkpt lat="44.3899" lon="11.9555217"><ele>12.5</ele><time>2026-04-18T10:23:52.992Z</time></trkpt><trkpt lat="44.3896617" lon="11.9553917"><ele>13.0</ele><time>2026-04-18T10:23:53.994Z</time></trkpt><trkpt lat="44.389425" lon="11.9552583"><ele>13.0</ele><time>2026-04-18T10:23:54.993Z</time></trkpt><trkpt lat="44.389185" lon="11.955125"><ele>13.0</ele><time>2026-04-18T10:23:55.993Z</time></trkpt><trkpt lat="44.388945" lon="11.954995"><ele>12.5</ele><time>2026-04-18T10:23:56.995Z</time></trkpt><trkpt lat="44.388705" lon="11.954865"><ele>12.0</ele><time>2026-04-18T10:23:57.992Z</time></trkpt><trkpt lat="44.388465" lon="11.95473"><ele>12.0</ele><time>2026-04-18T10:23:58.992Z</time></trkpt><trkpt lat="44.3882233" lon="11.9545967"><ele>12.0</ele><time>2026-04-18T10:23:59.993Z</time></trkpt><trkpt lat="44.3879817" lon="11.95447"><ele>13.0</ele><time>2026-04-18T10:24:00.992Z</time></trkpt><trkpt lat="44.3877417" lon="11.95434"><ele>14.0</ele><time>2026-04-18T10:24:01.994Z</time></trkpt><trkpt lat="44.3875083" lon="11.9542067"><ele>14.0</ele><time>2026-04-18T10:24:02.993Z</time></trkpt><trkpt lat="44.387275" lon="11.9540767"><ele>14.0</ele><time>2026-04-18T10:24:03.993Z</time></trkpt><trkpt lat="44.3870483" lon="11.9539467"><ele>13.5</ele><time>2026-04-18T10:24:04.992Z</time></trkpt><trkpt lat="44.3868233" lon="11.9538183"><ele>13.0</ele><time>2026-04-18T10:24:05.994Z</time></trkpt><trkpt lat="44.3866" lon="11.953695"><ele>13.0</ele><time>2026-04-18T10:24:06.994Z</time></trkpt><trkpt lat="44.3863783" lon="11.953575"><ele>13.0</ele><time>2026-04-18T10:24:07.994Z</time></trkpt><trkpt lat="44.3861583" lon="11.9534533"><ele>12.0</ele><time>2026-04-18T10:24:08.993Z</time></trkpt><trkpt lat="44.3859383" lon="11.953335"><ele>11.0</ele><time>2026-04-18T10:24:09.993Z</time></trkpt><trkpt lat="44.3857183" lon="11.9532167"><ele>11.0</ele><time>2026-04-18T10:24:10.993Z</time></trkpt><trkpt lat="44.3855017" lon="11.9530933"><ele>11.0</ele><time>2026-04-18T10:24:11.993Z</time></trkpt><trkpt lat="44.3852883" lon="11.952975"><ele>11.0</ele><time>2026-04-18T10:24:12.994Z</time></trkpt><trkpt lat="44.3850867" lon="11.9528583"><ele>11.0</ele><time>2026-04-18T10:24:13.994Z</time></trkpt><trkpt lat="44.384895" lon="11.952745"><ele>11.0</ele><time>2026-04-18T10:24:14.993Z</time></trkpt><trkpt lat="44.384715" lon="11.9526383"><ele>11.0</ele><time>2026-04-18T10:24:15.993Z</time></trkpt><trkpt lat="44.3845417" lon="11.95254"><ele>11.0</ele><time>2026-04-18T10:24:16.992Z</time></trkpt><trkpt lat="44.3843767" lon="11.9524467"><ele>11.0</ele><time>2026-04-18T10:24:17.993Z</time></trkpt><trkpt lat="44.38422" lon="11.9523567"><ele>11.0</ele><time>2026-04-18T10:24:18.992Z</time></trkpt><trkpt lat="44.3840733" lon="11.9522717"><ele>11.0</ele><time>2026-04-18T10:24:19.993Z</time></trkpt><trkpt lat="44.383945" lon="11.9521967"><ele>11.0</ele><time>2026-04-18T10:24:20.994Z</time></trkpt><trkpt lat="44.383825" lon="11.9521267"><ele>11.0</ele><time>2026-04-18T10:24:21.992Z</time></trkpt><trkpt lat="44.3837167" lon="11.9520433"><ele>11.0</ele><time>2026-04-18T10:24:22.993Z</time></trkpt><trkpt lat="44.3836144" lon="11.9519291"><ele>11.0</ele><time>2026-04-18T10:24:23.993Z</time></trkpt><trkpt lat="44.3835179" lon="11.9518048"><ele>11.0</ele><time>2026-04-18T10:24:24.994Z</time></trkpt><trkpt lat="44.3834287" lon="11.9516473"><ele>11.0</ele><time>2026-04-18T10:24:25.993Z</time></trkpt><trkpt lat="44.3833402" lon="11.9514866"><ele>11.5</ele><time>2026-04-18T10:24:26.993Z</time></trkpt><trkpt lat="44.383239" lon="11.9513751"><ele>12.0</ele><time>2026-04-18T10:24:27.994Z</time></trkpt><trkpt lat="44.3831199" lon="11.9513248"><ele>12.5</ele><time>2026-04-18T10:24:28.992Z</time></trkpt><trkpt lat="44.3829882" lon="11.9513325"><ele>13.0</ele><time>2026-04-18T10:24:29.994Z</time></trkpt><trkpt lat="44.3828558" lon="11.9513522"><ele>13.0</ele><time>2026-04-18T10:24:30.993Z</time></trkpt><trkpt lat="44.3827098" lon="11.9513609"><ele>13.0</ele><time>2026-04-18T10:24:31.992Z</time></trkpt><trkpt lat="44.3825656" lon="11.9513432"><ele>13.0</ele><time>2026-04-18T10:24:32.994Z</time></trkpt><trkpt lat="44.3824124" lon="11.9512968"><ele>13.0</ele><time>2026-04-18T10:24:33.992Z</time></trkpt><trkpt lat="44.3822522" lon="11.9512286"><ele>13.0</ele><time>2026-04-18T10:24:34.994Z</time></trkpt><trkpt lat="44.3820866" lon="11.9511365"><ele>13.0</ele><time>2026-04-18T10:24:35.994Z</time></trkpt><trkpt lat="44.3819133" lon="11.9510324"><ele>13.0</ele><time>2026-04-18T10:24:36.993Z</time></trkpt><trkpt lat="44.3817355" lon="11.9509221"><ele>12.666666666666666</ele><time>2026-04-18T10:24:37.993Z</time></trkpt><trkpt lat="44.381555" lon="11.9508071"><ele>12.333333333333332</ele><time>2026-04-18T10:24:38.993Z</time></trkpt><trkpt lat="44.3813758" lon="11.9506946"><ele>12.0</ele><time>2026-04-18T10:24:39.992Z</time></trkpt><trkpt lat="44.3811961" lon="11.9505834"><ele>12.666666666666668</ele><time>2026-04-18T10:24:40.996Z</time></trkpt><trkpt lat="44.3810217" lon="11.9504716"><ele>13.333333333333334</ele><time>2026-04-18T10:24:41.993Z</time></trkpt><trkpt lat="44.3808501" lon="11.950357"><ele>14.0</ele><time>2026-04-18T10:24:42.993Z</time></trkpt><trkpt lat="44.3806784" lon="11.9502408"><ele>14.333333333333334</ele><time>2026-04-18T10:24:43.994Z</time></trkpt><trkpt lat="44.3805057" lon="11.950122"><ele>14.666666666666668</ele><time>2026-04-18T10:24:44.994Z</time></trkpt><trkpt lat="44.3803317" lon="11.9500045"><ele>15.0</ele><time>2026-04-18T10:24:45.992Z</time></trkpt><trkpt lat="44.3801562" lon="11.9498841"><ele>14.333333333333332</ele><time>2026-04-18T10:24:46.993Z</time></trkpt><trkpt lat="44.3799832" lon="11.9497599"><ele>13.666666666666666</ele><time>2026-04-18T10:24:47.993Z</time></trkpt><trkpt lat="44.37981" lon="11.9496357"><ele>13.0</ele><time>2026-04-18T10:24:48.994Z</time></trkpt><trkpt lat="44.3796354" lon="11.949512"><ele>13.0</ele><time>2026-04-18T10:24:49.994Z</time></trkpt><trkpt lat="44.3794582" lon="11.9493882"><ele>13.0</ele><time>2026-04-18T10:24:50.994Z</time></trkpt><trkpt lat="44.3792796" lon="11.9492594"><ele>13.0</ele><time>2026-04-18T10:24:51.993Z</time></trkpt><trkpt lat="44.3791012" lon="11.9491284"><ele>12.666666666666666</ele><time>2026-04-18T10:24:52.992Z</time></trkpt><trkpt lat="44.3789232" lon="11.9490001"><ele>12.333333333333332</ele><time>2026-04-18T10:24:53.993Z</time></trkpt><trkpt lat="44.3787461" lon="11.9488794"><ele>12.0</ele><time>2026-04-18T10:24:54.992Z</time></trkpt><trkpt lat="44.3785758" lon="11.948766"><ele>12.666666666666668</ele><time>2026-04-18T10:24:55.992Z</time></trkpt><trkpt lat="44.3784152" lon="11.9486515"><ele>13.333333333333334</ele><time>2026-04-18T10:24:56.993Z</time></trkpt><trkpt lat="44.3782562" lon="11.9485345"><ele>14.0</ele><time>2026-04-18T10:24:57.992Z</time></trkpt><trkpt lat="44.3780934" lon="11.948416"><ele>13.0</ele><time>2026-04-18T10:24:58.993Z</time></trkpt><trkpt lat="44.3779255" lon="11.9482977"><ele>12.0</ele><time>2026-04-18T10:24:59.993Z</time></trkpt><trkpt lat="44.377755" lon="11.9481754"><ele>11.0</ele><time>2026-04-18T10:25:00.992Z</time></trkpt><trkpt lat="44.3775821" lon="11.9480494"><ele>11.0</ele><time>2026-04-18T10:25:01.992Z</time></trkpt><trkpt lat="44.3774067" lon="11.9479231"><ele>11.0</ele><time>2026-04-18T10:25:02.993Z</time></trkpt><trkpt lat="44.3772283" lon="11.9477991"><ele>11.0</ele><time>2026-04-18T10:25:03.993Z</time></trkpt><trkpt lat="44.3770479" lon="11.9476718"><ele>12.333333333333332</ele><time>2026-04-18T10:25:04.993Z</time></trkpt><trkpt lat="44.3768671" lon="11.9475368"><ele>13.666666666666666</ele><time>2026-04-18T10:25:05.994Z</time></trkpt><trkpt lat="44.3766861" lon="11.9473991"><ele>15.0</ele><time>2026-04-18T10:25:06.993Z</time></trkpt><trkpt lat="44.3765024" lon="11.9472587"><ele>15.0</ele><time>2026-04-18T10:25:07.993Z</time></trkpt><trkpt lat="44.376316" lon="11.9471177"><ele>15.0</ele><time>2026-04-18T10:25:08.993Z</time></trkpt><trkpt lat="44.3761277" lon="11.9469734"><ele>15.0</ele><time>2026-04-18T10:25:09.996Z</time></trkpt><trkpt lat="44.3759374" lon="11.9468258"><ele>15.0</ele><time>2026-04-18T10:25:10.994Z</time></trkpt><trkpt lat="44.3757433" lon="11.946675"><ele>15.0</ele><time>2026-04-18T10:25:11.992Z</time></trkpt><trkpt lat="44.3755433" lon="11.9465233"><ele>14.0</ele><time>2026-04-18T10:25:12.997Z</time></trkpt><trkpt lat="44.3753433" lon="11.9463683"><ele>13.0</ele><time>2026-04-18T10:25:13.993Z</time></trkpt><trkpt lat="44.3751383" lon="11.9462117"><ele>13.0</ele><time>2026-04-18T10:25:14.994Z</time></trkpt><trkpt lat="44.37493" lon="11.9460567"><ele>13.0</ele><time>2026-04-18T10:25:15.992Z</time></trkpt><trkpt lat="44.3747233" lon="11.9458983"><ele>13.0</ele><time>2026-04-18T10:25:16.992Z</time></trkpt><trkpt lat="44.3745167" lon="11.9457433"><ele>13.0</ele><time>2026-04-18T10:25:17.992Z</time></trkpt><trkpt lat="44.37431" lon="11.9455933"><ele>13.0</ele><time>2026-04-18T10:25:18.993Z</time></trkpt><trkpt lat="44.3741067" lon="11.945445"><ele>13.0</ele><time>2026-04-18T10:25:19.993Z</time></trkpt><trkpt lat="44.373905" lon="11.945295"><ele>13.5</ele><time>2026-04-18T10:25:20.993Z</time></trkpt><trkpt lat="44.373705" lon="11.9451417"><ele>14.0</ele><time>2026-04-18T10:25:21.994Z</time></trkpt><trkpt lat="44.3735083" lon="11.9449883"><ele>14.0</ele><time>2026-04-18T10:25:22.993Z</time></trkpt><trkpt lat="44.37331" lon="11.944835"><ele>14.0</ele><time>2026-04-18T10:25:23.992Z</time></trkpt><trkpt lat="44.373115" lon="11.944685"><ele>14.0</ele><time>2026-04-18T10:25:24.992Z</time></trkpt><trkpt lat="44.3729233" lon="11.9445367"><ele>13.666666666666668</ele><time>2026-04-18T10:25:25.992Z</time></trkpt><trkpt lat="44.3727317" lon="11.9443933"><ele>13.333333333333332</ele><time>2026-04-18T10:25:26.993Z</time></trkpt><trkpt lat="44.3725367" lon="11.94425"><ele>13.0</ele><time>2026-04-18T10:25:27.992Z</time></trkpt><trkpt lat="44.3723417" lon="11.944105"><ele>13.0</ele><time>2026-04-18T10:25:28.993Z</time></trkpt><trkpt lat="44.3721483" lon="11.9439583"><ele>13.0</ele><time>2026-04-18T10:25:29.994Z</time></trkpt><trkpt lat="44.3719533" lon="11.9438083"><ele>13.0</ele><time>2026-04-18T10:25:30.993Z</time></trkpt><trkpt lat="44.37176" lon="11.9436533"><ele>13.0</ele><time>2026-04-18T10:25:31.992Z</time></trkpt><trkpt lat="44.3715683" lon="11.943495"><ele>13.0</ele><time>2026-04-18T10:25:32.993Z</time></trkpt><trkpt lat="44.3713767" lon="11.94333"><ele>13.0</ele><time>2026-04-18T10:25:33.993Z</time></trkpt><trkpt lat="44.37119" lon="11.9431567"><ele>12.666666666666666</ele><time>2026-04-18T10:25:34.992Z</time></trkpt><trkpt lat="44.37101" lon="11.9429683"><ele>12.333333333333332</ele><time>2026-04-18T10:25:35.992Z</time></trkpt><trkpt lat="44.3708433" lon="11.9427617"><ele>12.0</ele><time>2026-04-18T10:25:36.993Z</time></trkpt><trkpt lat="44.3706883" lon="11.94254"><ele>12.666666666666668</ele><time>2026-04-18T10:25:37.993Z</time></trkpt><trkpt lat="44.3705383" lon="11.942315"><ele>13.333333333333334</ele><time>2026-04-18T10:25:38.993Z</time></trkpt><trkpt lat="44.370395" lon="11.9420867"><ele>14.0</ele><time>2026-04-18T10:25:39.993Z</time></trkpt><trkpt lat="44.37025" lon="11.94186"><ele>14.333333333333334</ele><time>2026-04-18T10:25:40.993Z</time></trkpt><trkpt lat="44.3701067" lon="11.941635"><ele>14.666666666666668</ele><time>2026-04-18T10:25:41.994Z</time></trkpt><trkpt lat="44.36996" lon="11.9414117"><ele>15.0</ele><time>2026-04-18T10:25:42.994Z</time></trkpt><trkpt lat="44.3698167" lon="11.9411883"><ele>15.333333333333332</ele><time>2026-04-18T10:25:43.994Z</time></trkpt><trkpt lat="44.369675" lon="11.9409667"><ele>15.666666666666666</ele><time>2026-04-18T10:25:44.993Z</time></trkpt><trkpt lat="44.3695317" lon="11.94074"><ele>16.0</ele><time>2026-04-18T10:25:45.992Z</time></trkpt><trkpt lat="44.3693933" lon="11.9405183"><ele>16.333333333333332</ele><time>2026-04-18T10:25:46.994Z</time></trkpt><trkpt lat="44.369255" lon="11.9403"><ele>16.666666666666668</ele><time>2026-04-18T10:25:47.992Z</time></trkpt><trkpt lat="44.3691267" lon="11.9400917"><ele>17.0</ele><time>2026-04-18T10:25:48.993Z</time></trkpt><trkpt lat="44.3690067" lon="11.9398967"><ele>17.0</ele><time>2026-04-18T10:25:49.993Z</time></trkpt><trkpt lat="44.3688883" lon="11.9397017"><ele>17.0</ele><time>2026-04-18T10:25:50.993Z</time></trkpt><trkpt lat="44.36877" lon="11.939505"><ele>17.0</ele><time>2026-04-18T10:25:51.993Z</time></trkpt><trkpt lat="44.3686467" lon="11.9393017"><ele>16.333333333333336</ele><time>2026-04-18T10:25:52.992Z</time></trkpt><trkpt lat="44.36852" lon="11.939095"><ele>15.666666666666668</ele><time>2026-04-18T10:25:53.994Z</time></trkpt><trkpt lat="44.3683883" lon="11.9388867"><ele>15.0</ele><time>2026-04-18T10:25:54.993Z</time></trkpt><trkpt lat="44.3682483" lon="11.9386833"><ele>15.0</ele><time>2026-04-18T10:25:55.993Z</time></trkpt><trkpt lat="44.3681" lon="11.9384817"><ele>15.0</ele><time>2026-04-18T10:25:56.999Z</time></trkpt><trkpt lat="44.3679433" lon="11.938285"><ele>15.0</ele><time>2026-04-18T10:25:57.993Z</time></trkpt><trkpt lat="44.3677767" lon="11.9380967"><ele>15.333333333333332</ele><time>2026-04-18T10:25:58.993Z</time></trkpt><trkpt lat="44.36761" lon="11.9379233"><ele>15.666666666666666</ele><time>2026-04-18T10:25:59.993Z</time></trkpt><trkpt lat="44.3674483" lon="11.93777"><ele>16.0</ele><time>2026-04-18T10:26:00.993Z</time></trkpt><trkpt lat="44.3672967" lon="11.9376333"><ele>15.333333333333332</ele><time>2026-04-18T10:26:01.993Z</time></trkpt><trkpt lat="44.3671483" lon="11.9375083"><ele>14.666666666666668</ele><time>2026-04-18T10:26:02.993Z</time></trkpt><trkpt lat="44.367" lon="11.9373883"><ele>14.0</ele><time>2026-04-18T10:26:03.993Z</time></trkpt><trkpt lat="44.3668533" lon="11.9372717"><ele>14.0</ele><time>2026-04-18T10:26:04.994Z</time></trkpt><trkpt lat="44.3667033" lon="11.9371517"><ele>14.0</ele><time>2026-04-18T10:26:05.992Z</time></trkpt><trkpt lat="44.3665483" lon="11.9370317"><ele>14.0</ele><time>2026-04-18T10:26:06.992Z</time></trkpt><trkpt lat="44.3663917" lon="11.93691"><ele>14.0</ele><time>2026-04-18T10:26:07.993Z</time></trkpt><trkpt lat="44.366235" lon="11.9367833"><ele>14.0</ele><time>2026-04-18T10:26:08.994Z</time></trkpt><trkpt lat="44.3660833" lon="11.9366533"><ele>14.0</ele><time>2026-04-18T10:26:09.993Z</time></trkpt><trkpt lat="44.3659283" lon="11.936525"><ele>14.0</ele><time>2026-04-18T10:26:10.993Z</time></trkpt><trkpt lat="44.3657717" lon="11.9364017"><ele>14.0</ele><time>2026-04-18T10:26:11.993Z</time></trkpt><trkpt lat="44.3656183" lon="11.9362833"><ele>14.0</ele><time>2026-04-18T10:26:12.993Z</time></trkpt><trkpt lat="44.36547" lon="11.9361717"><ele>14.0</ele><time>2026-04-18T10:26:13.992Z</time></trkpt><trkpt lat="44.36533" lon="11.9360617"><ele>14.0</ele><time>2026-04-18T10:26:14.994Z</time></trkpt><trkpt lat="44.365195" lon="11.935955"><ele>14.0</ele><time>2026-04-18T10:26:15.992Z</time></trkpt><trkpt lat="44.3650583" lon="11.935845"><ele>14.0</ele><time>2026-04-18T10:26:16.993Z</time></trkpt><trkpt lat="44.364915" lon="11.9357333"><ele>14.0</ele><time>2026-04-18T10:26:17.992Z</time></trkpt><trkpt lat="44.3647667" lon="11.93562"><ele>14.0</ele><time>2026-04-18T10:26:18.993Z</time></trkpt><trkpt lat="44.3646183" lon="11.9355"><ele>13.666666666666668</ele><time>2026-04-18T10:26:19.992Z</time></trkpt><trkpt lat="44.3644633" lon="11.93538"><ele>13.333333333333332</ele><time>2026-04-18T10:26:20.992Z</time></trkpt><trkpt lat="44.3643133" lon="11.9352633"><ele>13.0</ele><time>2026-04-18T10:26:21.993Z</time></trkpt><trkpt lat="44.36417" lon="11.9351483"><ele>13.333333333333332</ele><time>2026-04-18T10:26:22.992Z</time></trkpt><trkpt lat="44.3640283" lon="11.935035"><ele>13.666666666666668</ele><time>2026-04-18T10:26:23.993Z</time></trkpt><trkpt lat="44.363885" lon="11.9349217"><ele>14.0</ele><time>2026-04-18T10:26:24.994Z</time></trkpt><trkpt lat="44.3637383" lon="11.93481"><ele>14.0</ele><time>2026-04-18T10:26:25.992Z</time></trkpt><trkpt lat="44.3635917" lon="11.9346983"><ele>14.0</ele><time>2026-04-18T10:26:26.994Z</time></trkpt><trkpt lat="44.3634433" lon="11.9345833"><ele>14.0</ele><time>2026-04-18T10:26:27.993Z</time></trkpt><trkpt lat="44.3633" lon="11.9344733"><ele>14.0</ele><time>2026-04-18T10:26:28.994Z</time></trkpt><trkpt lat="44.3631633" lon="11.93437"><ele>14.0</ele><time>2026-04-18T10:26:29.994Z</time></trkpt><trkpt lat="44.3630333" lon="11.9342683"><ele>14.0</ele><time>2026-04-18T10:26:30.992Z</time></trkpt><trkpt lat="44.36291" lon="11.9341717"><ele>14.0</ele><time>2026-04-18T10:26:31.994Z</time></trkpt><trkpt lat="44.3627917" lon="11.9340783"><ele>13.75</ele><time>2026-04-18T10:26:32.992Z</time></trkpt><trkpt lat="44.3626767" lon="11.9339883"><ele>13.5</ele><time>2026-04-18T10:26:33.992Z</time></trkpt><trkpt lat="44.3625667" lon="11.9339033"><ele>13.25</ele><time>2026-04-18T10:26:34.992Z</time></trkpt><trkpt lat="44.36246" lon="11.9338217"><ele>13.0</ele><time>2026-04-18T10:26:35.995Z</time></trkpt><trkpt lat="44.3623583" lon="11.9337417"><ele>13.0</ele><time>2026-04-18T10:26:36.994Z</time></trkpt><trkpt lat="44.362265" lon="11.93366"><ele>13.0</ele><time>2026-04-18T10:26:37.993Z</time></trkpt><trkpt lat="44.3621783" lon="11.9335717"><ele>13.0</ele><time>2026-04-18T10:26:38.994Z</time></trkpt><trkpt lat="44.3621067" lon="11.9334733"><ele>13.0</ele><time>2026-04-18T10:26:39.993Z</time></trkpt><trkpt lat="44.3620483" lon="11.9333683"><ele>13.0</ele><time>2026-04-18T10:26:40.992Z</time></trkpt><trkpt lat="44.3619967" lon="11.9332533"><ele>13.2</ele><time>2026-04-18T10:26:41.992Z</time></trkpt><trkpt lat="44.3619533" lon="11.9331283"><ele>13.4</ele><time>2026-04-18T10:26:42.992Z</time></trkpt><trkpt lat="44.3619117" lon="11.9329917"><ele>13.599999999999998</ele><time>2026-04-18T10:26:43.992Z</time></trkpt><trkpt lat="44.3618467" lon="11.9328633"><ele>13.799999999999999</ele><time>2026-04-18T10:26:44.992Z</time></trkpt><trkpt lat="44.3617617" lon="11.9327617"><ele>14.0</ele><time>2026-04-18T10:26:45.992Z</time></trkpt><trkpt lat="44.3616667" lon="11.9326967"><ele>14.0</ele><time>2026-04-18T10:26:46.992Z</time></trkpt><trkpt lat="44.3615717" lon="11.9326717"><ele>13.999999999999998</ele><time>2026-04-18T10:26:47.992Z</time></trkpt><trkpt lat="44.36148" lon="11.9326783"><ele>13.999999999999998</ele><time>2026-04-18T10:26:48.992Z</time></trkpt><trkpt lat="44.3613867" lon="11.93271"><ele>14.0</ele><time>2026-04-18T10:26:49.992Z</time></trkpt><trkpt lat="44.3612917" lon="11.9327333"><ele>14.0</ele><time>2026-04-18T10:26:50.994Z</time></trkpt><trkpt lat="44.361195" lon="11.9327333"><ele>14.25</ele><time>2026-04-18T10:26:51.995Z</time></trkpt><trkpt lat="44.3611" lon="11.932705"><ele>14.5</ele><time>2026-04-18T10:26:52.992Z</time></trkpt><trkpt lat="44.3609967" lon="11.9326567"><ele>14.75</ele><time>2026-04-18T10:26:53.992Z</time></trkpt><trkpt lat="44.360885" lon="11.9325917"><ele>15.0</ele><time>2026-04-18T10:26:54.993Z</time></trkpt><trkpt lat="44.360765" lon="11.9325133"><ele>15.0</ele><time>2026-04-18T10:26:55.993Z</time></trkpt><trkpt lat="44.3606283" lon="11.9324183"><ele>15.0</ele><time>2026-04-18T10:26:56.993Z</time></trkpt><trkpt lat="44.3604783" lon="11.93231"><ele>15.0</ele><time>2026-04-18T10:26:57.994Z</time></trkpt><trkpt lat="44.3603133" lon="11.9321917"><ele>16.0</ele><time>2026-04-18T10:26:58.993Z</time></trkpt><trkpt lat="44.3601483" lon="11.932065"><ele>17.0</ele><time>2026-04-18T10:26:59.992Z</time></trkpt><trkpt lat="44.3599733" lon="11.93193"><ele>18.0</ele><time>2026-04-18T10:27:00.992Z</time></trkpt><trkpt lat="44.359775" lon="11.9317917"><ele>17.5</ele><time>2026-04-18T10:27:01.992Z</time></trkpt><trkpt lat="44.359565" lon="11.931635"><ele>17.0</ele><time>2026-04-18T10:27:02.994Z</time></trkpt><trkpt lat="44.35935" lon="11.93147"><ele>17.0</ele><time>2026-04-18T10:27:03.993Z</time></trkpt><trkpt lat="44.3591367" lon="11.9312983"><ele>17.0</ele><time>2026-04-18T10:27:04.994Z</time></trkpt><trkpt lat="44.35893" lon="11.9311217"><ele>16.5</ele><time>2026-04-18T10:27:05.993Z</time></trkpt><trkpt lat="44.358725" lon="11.9309467"><ele>16.0</ele><time>2026-04-18T10:27:06.997Z</time></trkpt><trkpt lat="44.3585217" lon="11.9307767"><ele>16.0</ele><time>2026-04-18T10:27:07.992Z</time></trkpt><trkpt lat="44.3583183" lon="11.9306083"><ele>16.0</ele><time>2026-04-18T10:27:08.993Z</time></trkpt><trkpt lat="44.358115" lon="11.9304433"><ele>15.5</ele><time>2026-04-18T10:27:09.993Z</time></trkpt><trkpt lat="44.3579117" lon="11.9302817"><ele>15.0</ele><time>2026-04-18T10:27:10.992Z</time></trkpt><trkpt lat="44.3577067" lon="11.9301183"><ele>15.0</ele><time>2026-04-18T10:27:11.993Z</time></trkpt><trkpt lat="44.3575" lon="11.9299567"><ele>15.0</ele><time>2026-04-18T10:27:12.993Z</time></trkpt><trkpt lat="44.3572967" lon="11.9297967"><ele>14.5</ele><time>2026-04-18T10:27:13.995Z</time></trkpt><trkpt lat="44.3570933" lon="11.92964"><ele>14.0</ele><time>2026-04-18T10:27:14.994Z</time></trkpt><trkpt lat="44.3569" lon="11.929485"><ele>14.0</ele><time>2026-04-18T10:27:15.994Z</time></trkpt><trkpt lat="44.356715" lon="11.9293417"><ele>14.0</ele><time>2026-04-18T10:27:16.993Z</time></trkpt><trkpt lat="44.3565367" lon="11.9292033"><ele>14.0</ele><time>2026-04-18T10:27:17.992Z</time></trkpt><trkpt lat="44.35636" lon="11.9290633"><ele>14.333333333333334</ele><time>2026-04-18T10:27:18.992Z</time></trkpt><trkpt lat="44.3561817" lon="11.9289183"><ele>14.666666666666668</ele><time>2026-04-18T10:27:19.993Z</time></trkpt><trkpt lat="44.356005" lon="11.9287817"><ele>15.0</ele><time>2026-04-18T10:27:20.994Z</time></trkpt><trkpt lat="44.35584" lon="11.9286517"><ele>15.0</ele><time>2026-04-18T10:27:21.994Z</time></trkpt><trkpt lat="44.3556783" lon="11.9285267"><ele>15.0</ele><time>2026-04-18T10:27:22.993Z</time></trkpt><trkpt lat="44.355525" lon="11.9284083"><ele>15.0</ele><time>2026-04-18T10:27:23.994Z</time></trkpt><trkpt lat="44.3553783" lon="11.9282917"><ele>15.333333333333332</ele><time>2026-04-18T10:27:24.993Z</time></trkpt><trkpt lat="44.3552367" lon="11.928185"><ele>15.666666666666666</ele><time>2026-04-18T10:27:25.994Z</time></trkpt><trkpt lat="44.355095" lon="11.9280817"><ele>16.0</ele><time>2026-04-18T10:27:26.993Z</time></trkpt><trkpt lat="44.3549467" lon="11.927985"><ele>16.0</ele><time>2026-04-18T10:27:27.995Z</time></trkpt><trkpt lat="44.3547933" lon="11.927895"><ele>16.0</ele><time>2026-04-18T10:27:28.992Z</time></trkpt><trkpt lat="44.3546333" lon="11.9278067"><ele>16.0</ele><time>2026-04-18T10:27:29.993Z</time></trkpt><trkpt lat="44.354465" lon="11.92773"><ele>15.666666666666666</ele><time>2026-04-18T10:27:30.992Z</time></trkpt><trkpt lat="44.3542867" lon="11.927665"><ele>15.333333333333332</ele><time>2026-04-18T10:27:31.993Z</time></trkpt><trkpt lat="44.3541033" lon="11.9276083"><ele>15.0</ele><time>2026-04-18T10:27:32.993Z</time></trkpt><trkpt lat="44.3539117" lon="11.92756"><ele>14.666666666666668</ele><time>2026-04-18T10:27:33.993Z</time></trkpt><trkpt lat="44.3537183" lon="11.9275167"><ele>14.333333333333334</ele><time>2026-04-18T10:27:34.992Z</time></trkpt><trkpt lat="44.35352" lon="11.9274817"><ele>14.0</ele><time>2026-04-18T10:27:35.993Z</time></trkpt><trkpt lat="44.3533183" lon="11.9274533"><ele>14.0</ele><time>2026-04-18T10:27:36.994Z</time></trkpt><trkpt lat="44.3531117" lon="11.9274233"><ele>14.0</ele><time>2026-04-18T10:27:37.994Z</time></trkpt><trkpt lat="44.35291" lon="11.92739"><ele>14.0</ele><time>2026-04-18T10:27:38.995Z</time></trkpt><trkpt lat="44.3527067" lon="11.927355"><ele>14.333333333333334</ele><time>2026-04-18T10:27:39.993Z</time></trkpt><trkpt lat="44.3525017" lon="11.927325"><ele>14.666666666666668</ele><time>2026-04-18T10:27:40.993Z</time></trkpt><trkpt lat="44.3522983" lon="11.9272933"><ele>15.0</ele><time>2026-04-18T10:27:41.994Z</time></trkpt><trkpt lat="44.352095" lon="11.9272617"><ele>15.0</ele><time>2026-04-18T10:27:42.993Z</time></trkpt><trkpt lat="44.3518917" lon="11.9272317"><ele>15.0</ele><time>2026-04-18T10:27:43.994Z</time></trkpt><trkpt lat="44.3516883" lon="11.9272033"><ele>15.0</ele><time>2026-04-18T10:27:44.994Z</time></trkpt><trkpt lat="44.35149" lon="11.9271717"><ele>15.0</ele><time>2026-04-18T10:27:45.993Z</time></trkpt><trkpt lat="44.3513" lon="11.92714"><ele>15.0</ele><time>2026-04-18T10:27:46.993Z</time></trkpt><trkpt lat="44.3511167" lon="11.9271083"><ele>15.0</ele><time>2026-04-18T10:27:47.992Z</time></trkpt><trkpt lat="44.3509333" lon="11.9270767"><ele>15.0</ele><time>2026-04-18T10:27:48.993Z</time></trkpt><trkpt lat="44.3507467" lon="11.9270433"><ele>15.0</ele><time>2026-04-18T10:27:49.995Z</time></trkpt><trkpt lat="44.3505583" lon="11.9270017"><ele>15.0</ele><time>2026-04-18T10:27:50.993Z</time></trkpt><trkpt lat="44.35037" lon="11.9269467"><ele>14.666666666666668</ele><time>2026-04-18T10:27:51.993Z</time></trkpt><trkpt lat="44.3501833" lon="11.9268783"><ele>14.333333333333334</ele><time>2026-04-18T10:27:52.993Z</time></trkpt><trkpt lat="44.3499917" lon="11.9267983"><ele>14.0</ele><time>2026-04-18T10:27:53.993Z</time></trkpt><trkpt lat="44.3498033" lon="11.92671"><ele>14.0</ele><time>2026-04-18T10:27:54.992Z</time></trkpt><trkpt lat="44.3496167" lon="11.9266067"><ele>14.0</ele><time>2026-04-18T10:27:55.992Z</time></trkpt><trkpt lat="44.34943" lon="11.92649"><ele>14.0</ele><time>2026-04-18T10:27:56.993Z</time></trkpt><trkpt lat="44.3492467" lon="11.926365"><ele>14.0</ele><time>2026-04-18T10:27:57.993Z</time></trkpt><trkpt lat="44.3490667" lon="11.9262317"><ele>14.0</ele><time>2026-04-18T10:27:58.993Z</time></trkpt><trkpt lat="44.34889" lon="11.9260983"><ele>14.0</ele><time>2026-04-18T10:27:59.992Z</time></trkpt><trkpt lat="44.3487117" lon="11.9259633"><ele>14.333333333333334</ele><time>2026-04-18T10:28:00.993Z</time></trkpt><trkpt lat="44.3485333" lon="11.9258267"><ele>14.666666666666668</ele><time>2026-04-18T10:28:01.992Z</time></trkpt><trkpt lat="44.3483533" lon="11.9256933"><ele>15.0</ele><time>2026-04-18T10:28:02.993Z</time></trkpt><trkpt lat="44.3481833" lon="11.9255683"><ele>15.0</ele><time>2026-04-18T10:28:03.993Z</time></trkpt><trkpt lat="44.3480233" lon="11.9254433"><ele>15.0</ele><time>2026-04-18T10:28:04.992Z</time></trkpt><trkpt lat="44.3478683" lon="11.925325"><ele>15.0</ele><time>2026-04-18T10:28:05.993Z</time></trkpt><trkpt lat="44.34772" lon="11.9252133"><ele>15.0</ele><time>2026-04-18T10:28:06.993Z</time></trkpt><trkpt lat="44.34758" lon="11.9251033"><ele>15.0</ele><time>2026-04-18T10:28:07.993Z</time></trkpt><trkpt lat="44.3474467" lon="11.925"><ele>15.0</ele><time>2026-04-18T10:28:08.993Z</time></trkpt><trkpt lat="44.3473183" lon="11.9248983"><ele>15.25</ele><time>2026-04-18T10:28:09.992Z</time></trkpt><trkpt lat="44.3471933" lon="11.9247983"><ele>15.5</ele><time>2026-04-18T10:28:10.993Z</time></trkpt><trkpt lat="44.3470633" lon="11.9247"><ele>15.75</ele><time>2026-04-18T10:28:11.993Z</time></trkpt><trkpt lat="44.34693" lon="11.9246017"><ele>16.0</ele><time>2026-04-18T10:28:12.993Z</time></trkpt><trkpt lat="44.3467933" lon="11.9245017"><ele>16.0</ele><time>2026-04-18T10:28:13.993Z</time></trkpt><trkpt lat="44.3466633" lon="11.924405"><ele>16.0</ele><time>2026-04-18T10:28:14.994Z</time></trkpt><trkpt lat="44.3465417" lon="11.9243133"><ele>16.0</ele><time>2026-04-18T10:28:15.992Z</time></trkpt><trkpt lat="44.346425" lon="11.9242183"><ele>16.0</ele><time>2026-04-18T10:28:16.992Z</time></trkpt><trkpt lat="44.3463083" lon="11.924125"><ele>15.75</ele><time>2026-04-18T10:28:17.992Z</time></trkpt><trkpt lat="44.3461833" lon="11.9240317"><ele>15.5</ele><time>2026-04-18T10:28:18.992Z</time></trkpt><trkpt lat="44.346055" lon="11.9239367"><ele>15.25</ele><time>2026-04-18T10:28:19.992Z</time></trkpt><trkpt lat="44.345925" lon="11.9238383"><ele>15.0</ele><time>2026-04-18T10:28:20.998Z</time></trkpt><trkpt lat="44.345795" lon="11.923735"><ele>15.0</ele><time>2026-04-18T10:28:21.992Z</time></trkpt><trkpt lat="44.3456683" lon="11.9236333"><ele>15.0</ele><time>2026-04-18T10:28:22.994Z</time></trkpt><trkpt lat="44.3455467" lon="11.9235383"><ele>15.0</ele><time>2026-04-18T10:28:23.994Z</time></trkpt><trkpt lat="44.3454283" lon="11.9234483"><ele>15.0</ele><time>2026-04-18T10:28:24.993Z</time></trkpt><trkpt lat="44.34531" lon="11.923355"><ele>15.25</ele><time>2026-04-18T10:28:25.994Z</time></trkpt><trkpt lat="44.34519" lon="11.9232617"><ele>15.5</ele><time>2026-04-18T10:28:26.994Z</time></trkpt><trkpt lat="44.3450683" lon="11.9231683"><ele>15.75</ele><time>2026-04-18T10:28:27.993Z</time></trkpt><trkpt lat="44.344945" lon="11.9230717"><ele>16.0</ele><time>2026-04-18T10:28:28.993Z</time></trkpt><trkpt lat="44.34482" lon="11.9229717"><ele>16.25</ele><time>2026-04-18T10:28:29.992Z</time></trkpt><trkpt lat="44.344695" lon="11.9228733"><ele>16.5</ele><time>2026-04-18T10:28:30.992Z</time></trkpt><trkpt lat="44.3445717" lon="11.9227767"><ele>16.75</ele><time>2026-04-18T10:28:31.992Z</time></trkpt><trkpt lat="44.3444483" lon="11.9226783"><ele>17.0</ele><time>2026-04-18T10:28:32.994Z</time></trkpt><trkpt lat="44.3443233" lon="11.9225817"><ele>17.0</ele><time>2026-04-18T10:28:33.993Z</time></trkpt><trkpt lat="44.3441983" lon="11.9224833"><ele>17.0</ele><time>2026-04-18T10:28:34.993Z</time></trkpt><trkpt lat="44.344075" lon="11.9223833"><ele>17.0</ele><time>2026-04-18T10:28:35.992Z</time></trkpt><trkpt lat="44.343955" lon="11.9222883"><ele>17.0</ele><time>2026-04-18T10:28:36.992Z</time></trkpt><trkpt lat="44.3438317" lon="11.922195"><ele>17.0</ele><time>2026-04-18T10:28:37.992Z</time></trkpt><trkpt lat="44.3437033" lon="11.9220967"><ele>17.0</ele><time>2026-04-18T10:28:38.994Z</time></trkpt><trkpt lat="44.3435717" lon="11.921995"><ele>17.0</ele><time>2026-04-18T10:28:39.993Z</time></trkpt><trkpt lat="44.34344" lon="11.921895"><ele>17.0</ele><time>2026-04-18T10:28:40.993Z</time></trkpt><trkpt lat="44.34331" lon="11.921795"><ele>17.0</ele><time>2026-04-18T10:28:41.992Z</time></trkpt><trkpt lat="44.343185" lon="11.9216983"><ele>17.0</ele><time>2026-04-18T10:28:42.993Z</time></trkpt><trkpt lat="44.3430567" lon="11.9216033"><ele>17.0</ele><time>2026-04-18T10:28:43.992Z</time></trkpt><trkpt lat="44.342915" lon="11.921505"><ele>17.0</ele><time>2026-04-18T10:28:44.992Z</time></trkpt><trkpt lat="44.3427617" lon="11.9214017"><ele>17.0</ele><time>2026-04-18T10:28:45.992Z</time></trkpt><trkpt lat="44.3426017" lon="11.9212867"><ele>17.0</ele><time>2026-04-18T10:28:46.992Z</time></trkpt><trkpt lat="44.34243" lon="11.9211567"><ele>17.0</ele><time>2026-04-18T10:28:47.993Z</time></trkpt><trkpt lat="44.34225" lon="11.9210167"><ele>16.666666666666668</ele><time>2026-04-18T10:28:48.993Z</time></trkpt><trkpt lat="44.3420633" lon="11.9208633"><ele>16.333333333333332</ele><time>2026-04-18T10:28:49.994Z</time></trkpt><trkpt lat="44.3418667" lon="11.9207"><ele>16.0</ele><time>2026-04-18T10:28:50.993Z</time></trkpt><trkpt lat="44.3416633" lon="11.920535"><ele>16.0</ele><time>2026-04-18T10:28:51.993Z</time></trkpt><trkpt lat="44.341465" lon="11.9203767"><ele>16.0</ele><time>2026-04-18T10:28:52.993Z</time></trkpt><trkpt lat="44.3412717" lon="11.9202233"><ele>16.5</ele><time>2026-04-18T10:28:53.993Z</time></trkpt><trkpt lat="44.3410733" lon="11.9200683"><ele>17.0</ele><time>2026-04-18T10:28:54.994Z</time></trkpt><trkpt lat="44.3408717" lon="11.9199133"><ele>17.0</ele><time>2026-04-18T10:28:55.993Z</time></trkpt><trkpt lat="44.3406717" lon="11.9197567"><ele>17.0</ele><time>2026-04-18T10:28:56.993Z</time></trkpt><trkpt lat="44.3404717" lon="11.9195983"><ele>17.5</ele><time>2026-04-18T10:28:57.994Z</time></trkpt><trkpt lat="44.3402717" lon="11.91944"><ele>18.0</ele><time>2026-04-18T10:28:58.993Z</time></trkpt><trkpt lat="44.3400683" lon="11.9192833"><ele>18.0</ele><time>2026-04-18T10:28:59.994Z</time></trkpt><trkpt lat="44.339865" lon="11.9191267"><ele>18.0</ele><time>2026-04-18T10:29:00.993Z</time></trkpt><trkpt lat="44.3396617" lon="11.91897"><ele>17.5</ele><time>2026-04-18T10:29:01.993Z</time></trkpt><trkpt lat="44.339455" lon="11.9188083"><ele>17.0</ele><time>2026-04-18T10:29:02.994Z</time></trkpt><trkpt lat="44.339245" lon="11.9186483"><ele>17.0</ele><time>2026-04-18T10:29:03.994Z</time></trkpt><trkpt lat="44.33903" lon="11.918485"><ele>17.0</ele><time>2026-04-18T10:29:04.994Z</time></trkpt><trkpt lat="44.3388133" lon="11.9183217"><ele>17.0</ele><time>2026-04-18T10:29:05.995Z</time></trkpt><trkpt lat="44.3385933" lon="11.9181533"><ele>17.0</ele><time>2026-04-18T10:29:06.995Z</time></trkpt><trkpt lat="44.3383717" lon="11.917985"><ele>17.0</ele><time>2026-04-18T10:29:07.994Z</time></trkpt><trkpt lat="44.3381483" lon="11.917815"><ele>17.0</ele><time>2026-04-18T10:29:08.995Z</time></trkpt><trkpt lat="44.3379233" lon="11.9176417"><ele>17.0</ele><time>2026-04-18T10:29:09.994Z</time></trkpt><trkpt lat="44.3376983" lon="11.9174683"><ele>17.0</ele><time>2026-04-18T10:29:10.995Z</time></trkpt><trkpt lat="44.33747" lon="11.9172933"><ele>17.0</ele><time>2026-04-18T10:29:11.993Z</time></trkpt><trkpt lat="44.3372467" lon="11.9171183"><ele>17.0</ele><time>2026-04-18T10:29:12.993Z</time></trkpt><trkpt lat="44.3370267" lon="11.916945"><ele>17.5</ele><time>2026-04-18T10:29:13.992Z</time></trkpt><trkpt lat="44.3368083" lon="11.916775"><ele>18.0</ele><time>2026-04-18T10:29:14.992Z</time></trkpt><trkpt lat="44.336595" lon="11.9166133"><ele>18.5</ele><time>2026-04-18T10:29:15.993Z</time></trkpt><trkpt lat="44.336395" lon="11.91646"><ele>19.0</ele><time>2026-04-18T10:29:16.992Z</time></trkpt><trkpt lat="44.3361967" lon="11.91631"><ele>19.0</ele><time>2026-04-18T10:29:17.993Z</time></trkpt><trkpt lat="44.3360017" lon="11.91616"><ele>19.0</ele><time>2026-04-18T10:29:18.994Z</time></trkpt><trkpt lat="44.3358083" lon="11.916015"><ele>19.0</ele><time>2026-04-18T10:29:19.994Z</time></trkpt><trkpt lat="44.3356167" lon="11.9158733"><ele>19.0</ele><time>2026-04-18T10:29:20.993Z</time></trkpt><trkpt lat="44.3354217" lon="11.9157333"><ele>19.0</ele><time>2026-04-18T10:29:21.993Z</time></trkpt><trkpt lat="44.3352217" lon="11.9155917"><ele>19.0</ele><time>2026-04-18T10:29:22.995Z</time></trkpt><trkpt lat="44.335015" lon="11.9154483"><ele>19.0</ele><time>2026-04-18T10:29:23.993Z</time></trkpt><trkpt lat="44.33481" lon="11.9153"><ele>19.0</ele><time>2026-04-18T10:29:24.992Z</time></trkpt><trkpt lat="44.3346067" lon="11.9151367"><ele>19.0</ele><time>2026-04-18T10:29:25.992Z</time></trkpt><trkpt lat="44.334405" lon="11.9149667"><ele>19.0</ele><time>2026-04-18T10:29:26.992Z</time></trkpt><trkpt lat="44.3342033" lon="11.9148"><ele>19.0</ele><time>2026-04-18T10:29:27.994Z</time></trkpt><trkpt lat="44.334005" lon="11.9146433"><ele>19.0</ele><time>2026-04-18T10:29:28.991Z</time></trkpt><trkpt lat="44.3338133" lon="11.9144917"><ele>19.0</ele><time>2026-04-18T10:29:29.993Z</time></trkpt><trkpt lat="44.3336283" lon="11.9143467"><ele>18.666666666666664</ele><time>2026-04-18T10:29:30.992Z</time></trkpt><trkpt lat="44.333445" lon="11.9142067"><ele>18.333333333333332</ele><time>2026-04-18T10:29:31.994Z</time></trkpt><trkpt lat="44.3332617" lon="11.9140667"><ele>18.0</ele><time>2026-04-18T10:29:32.994Z</time></trkpt><trkpt lat="44.3330783" lon="11.9139233"><ele>18.333333333333332</ele><time>2026-04-18T10:29:33.994Z</time></trkpt><trkpt lat="44.3328967" lon="11.91378"><ele>18.666666666666664</ele><time>2026-04-18T10:29:34.992Z</time></trkpt><trkpt lat="44.3327117" lon="11.9136383"><ele>19.0</ele><time>2026-04-18T10:29:35.992Z</time></trkpt><trkpt lat="44.3325283" lon="11.9134983"><ele>19.0</ele><time>2026-04-18T10:29:36.993Z</time></trkpt><trkpt lat="44.3323467" lon="11.913355"><ele>19.0</ele><time>2026-04-18T10:29:37.994Z</time></trkpt><trkpt lat="44.332165" lon="11.9132133"><ele>19.0</ele><time>2026-04-18T10:29:38.994Z</time></trkpt><trkpt lat="44.3319817" lon="11.91307"><ele>19.0</ele><time>2026-04-18T10:29:39.993Z</time></trkpt><trkpt lat="44.3317933" lon="11.912925"><ele>19.0</ele><time>2026-04-18T10:29:40.992Z</time></trkpt><trkpt lat="44.331605" lon="11.91278"><ele>19.0</ele><time>2026-04-18T10:29:41.993Z</time></trkpt><trkpt lat="44.331415" lon="11.9126317"><ele>19.333333333333332</ele><time>2026-04-18T10:29:42.993Z</time></trkpt><trkpt lat="44.3312233" lon="11.9124817"><ele>19.666666666666668</ele><time>2026-04-18T10:29:43.994Z</time></trkpt><trkpt lat="44.3310283" lon="11.912335"><ele>20.0</ele><time>2026-04-18T10:29:44.993Z</time></trkpt><trkpt lat="44.3308333" lon="11.9121817"><ele>20.0</ele><time>2026-04-18T10:29:45.993Z</time></trkpt><trkpt lat="44.3306383" lon="11.9120267"><ele>20.0</ele><time>2026-04-18T10:29:46.993Z</time></trkpt><trkpt lat="44.3304417" lon="11.91187"><ele>19.5</ele><time>2026-04-18T10:29:47.993Z</time></trkpt><trkpt lat="44.3302417" lon="11.911715"><ele>19.0</ele><time>2026-04-18T10:29:48.993Z</time></trkpt><trkpt lat="44.3300417" lon="11.9115583"><ele>19.0</ele><time>2026-04-18T10:29:49.992Z</time></trkpt><trkpt lat="44.3298417" lon="11.9114033"><ele>19.0</ele><time>2026-04-18T10:29:50.993Z</time></trkpt><trkpt lat="44.3296433" lon="11.9112467"><ele>19.0</ele><time>2026-04-18T10:29:51.994Z</time></trkpt><trkpt lat="44.329445" lon="11.91109"><ele>19.0</ele><time>2026-04-18T10:29:52.994Z</time></trkpt><trkpt lat="44.3292467" lon="11.9109367"><ele>18.5</ele><time>2026-04-18T10:29:53.993Z</time></trkpt><trkpt lat="44.3290467" lon="11.9107817"><ele>18.0</ele><time>2026-04-18T10:29:54.992Z</time></trkpt><trkpt lat="44.3288517" lon="11.9106283"><ele>17.666666666666668</ele><time>2026-04-18T10:29:55.992Z</time></trkpt><trkpt lat="44.328655" lon="11.9104767"><ele>17.333333333333336</ele><time>2026-04-18T10:29:56.993Z</time></trkpt><trkpt lat="44.3284633" lon="11.9103267"><ele>17.0</ele><time>2026-04-18T10:29:57.992Z</time></trkpt><trkpt lat="44.3282733" lon="11.9101783"><ele>17.333333333333336</ele><time>2026-04-18T10:29:58.993Z</time></trkpt><trkpt lat="44.32809" lon="11.910035"><ele>17.666666666666668</ele><time>2026-04-18T10:29:59.993Z</time></trkpt><trkpt lat="44.3279183" lon="11.9098967"><ele>18.0</ele><time>2026-04-18T10:30:00.994Z</time></trkpt><trkpt lat="44.3277517" lon="11.9097683"><ele>18.0</ele><time>2026-04-18T10:30:01.992Z</time></trkpt><trkpt lat="44.3275983" lon="11.9096467"><ele>18.0</ele><time>2026-04-18T10:30:02.993Z</time></trkpt><trkpt lat="44.3274583" lon="11.9095367"><ele>18.0</ele><time>2026-04-18T10:30:03.993Z</time></trkpt><trkpt lat="44.3273367" lon="11.909435"><ele>18.0</ele><time>2026-04-18T10:30:04.993Z</time></trkpt><trkpt lat="44.3272333" lon="11.9093383"><ele>18.0</ele><time>2026-04-18T10:30:05.994Z</time></trkpt><trkpt lat="44.3271483" lon="11.9092367"><ele>18.0</ele><time>2026-04-18T10:30:06.993Z</time></trkpt><trkpt lat="44.3270767" lon="11.909125"><ele>18.0</ele><time>2026-04-18T10:30:07.993Z</time></trkpt><trkpt lat="44.3270067" lon="11.90899"><ele>18.75</ele><time>2026-04-18T10:30:08.994Z</time></trkpt><trkpt lat="44.3269333" lon="11.9088433"><ele>19.5</ele><time>2026-04-18T10:30:09.993Z</time></trkpt><trkpt lat="44.3268483" lon="11.9087"><ele>20.25</ele><time>2026-04-18T10:30:10.993Z</time></trkpt><trkpt lat="44.326745" lon="11.9085883"><ele>21.0</ele><time>2026-04-18T10:30:11.994Z</time></trkpt><trkpt lat="44.3266267" lon="11.90853"><ele>21.0</ele><time>2026-04-18T10:30:12.993Z</time></trkpt><trkpt lat="44.3265117" lon="11.9085267"><ele>21.0</ele><time>2026-04-18T10:30:13.994Z</time></trkpt><trkpt lat="44.3263983" lon="11.9085317"><ele>21.0</ele><time>2026-04-18T10:30:14.993Z</time></trkpt><trkpt lat="44.3262783" lon="11.9085067"><ele>21.0</ele><time>2026-04-18T10:30:15.993Z</time></trkpt><trkpt lat="44.3261517" lon="11.908465"><ele>21.0</ele><time>2026-04-18T10:30:16.993Z</time></trkpt><trkpt lat="44.32603" lon="11.9084117"><ele>21.0</ele><time>2026-04-18T10:30:17.992Z</time></trkpt><trkpt lat="44.3259167" lon="11.9083467"><ele>21.0</ele><time>2026-04-18T10:30:18.995Z</time></trkpt><trkpt lat="44.3258167" lon="11.9082733"><ele>21.0</ele><time>2026-04-18T10:30:19.992Z</time></trkpt><trkpt lat="44.3257267" lon="11.9082017"><ele>21.0</ele><time>2026-04-18T10:30:20.994Z</time></trkpt><trkpt lat="44.32564" lon="11.9081283"><ele>21.0</ele><time>2026-04-18T10:30:21.992Z</time></trkpt><trkpt lat="44.3255367" lon="11.9080467"><ele>21.0</ele><time>2026-04-18T10:30:22.992Z</time></trkpt><trkpt lat="44.3254167" lon="11.9079567"><ele>21.0</ele><time>2026-04-18T10:30:23.993Z</time></trkpt><trkpt lat="44.3252867" lon="11.9078583"><ele>21.0</ele><time>2026-04-18T10:30:24.993Z</time></trkpt><trkpt lat="44.32515" lon="11.90775"><ele>21.0</ele><time>2026-04-18T10:30:25.992Z</time></trkpt><trkpt lat="44.325" lon="11.9076383"><ele>21.0</ele><time>2026-04-18T10:30:26.992Z</time></trkpt><trkpt lat="44.3248433" lon="11.90752"><ele>21.333333333333332</ele><time>2026-04-18T10:30:27.992Z</time></trkpt><trkpt lat="44.3246817" lon="11.9074033"><ele>21.666666666666664</ele><time>2026-04-18T10:30:28.993Z</time></trkpt><trkpt lat="44.3245167" lon="11.9072767"><ele>22.0</ele><time>2026-04-18T10:30:29.992Z</time></trkpt><trkpt lat="44.3243433" lon="11.90715"><ele>22.0</ele><time>2026-04-18T10:30:30.993Z</time></trkpt><trkpt lat="44.3241633" lon="11.9070183"><ele>22.0</ele><time>2026-04-18T10:30:31.994Z</time></trkpt><trkpt lat="44.32399" lon="11.9068833"><ele>22.0</ele><time>2026-04-18T10:30:32.993Z</time></trkpt><trkpt lat="44.3238183" lon="11.90675"><ele>22.333333333333332</ele><time>2026-04-18T10:30:33.993Z</time></trkpt><trkpt lat="44.32365" lon="11.9066183"><ele>22.666666666666668</ele><time>2026-04-18T10:30:34.992Z</time></trkpt><trkpt lat="44.3234883" lon="11.9064883"><ele>23.0</ele><time>2026-04-18T10:30:35.994Z</time></trkpt><trkpt lat="44.3233317" lon="11.906365"><ele>23.0</ele><time>2026-04-18T10:30:36.994Z</time></trkpt><trkpt lat="44.3231767" lon="11.9062467"><ele>23.0</ele><time>2026-04-18T10:30:37.993Z</time></trkpt><trkpt lat="44.32302" lon="11.906125"><ele>23.0</ele><time>2026-04-18T10:30:38.993Z</time></trkpt><trkpt lat="44.32286" lon="11.9060017"><ele>23.0</ele><time>2026-04-18T10:30:39.993Z</time></trkpt><trkpt lat="44.3226967" lon="11.9058733"><ele>23.0</ele><time>2026-04-18T10:30:40.993Z</time></trkpt><trkpt lat="44.322525" lon="11.905745"><ele>23.0</ele><time>2026-04-18T10:30:41.992Z</time></trkpt><trkpt lat="44.3223533" lon="11.9056117"><ele>23.0</ele><time>2026-04-18T10:30:42.992Z</time></trkpt><trkpt lat="44.32218" lon="11.9054783"><ele>23.0</ele><time>2026-04-18T10:30:43.992Z</time></trkpt><trkpt lat="44.322005" lon="11.9053467"><ele>23.0</ele><time>2026-04-18T10:30:44.993Z</time></trkpt><trkpt lat="44.321835" lon="11.9052217"><ele>23.0</ele><time>2026-04-18T10:30:45.992Z</time></trkpt><trkpt lat="44.3216683" lon="11.905105"><ele>23.0</ele><time>2026-04-18T10:30:46.993Z</time></trkpt><trkpt lat="44.32151" lon="11.9049933"><ele>23.0</ele><time>2026-04-18T10:30:47.992Z</time></trkpt><trkpt lat="44.3213583" lon="11.904885"><ele>22.666666666666668</ele><time>2026-04-18T10:30:48.993Z</time></trkpt><trkpt lat="44.3212067" lon="11.9047733"><ele>22.333333333333332</ele><time>2026-04-18T10:30:49.993Z</time></trkpt><trkpt lat="44.321055" lon="11.9046617"><ele>22.0</ele><time>2026-04-18T10:30:50.992Z</time></trkpt><trkpt lat="44.320905" lon="11.9045533"><ele>22.0</ele><time>2026-04-18T10:30:51.992Z</time></trkpt><trkpt lat="44.320765" lon="11.904455"><ele>22.0</ele><time>2026-04-18T10:30:52.992Z</time></trkpt><trkpt lat="44.32064" lon="11.904365"><ele>22.0</ele><time>2026-04-18T10:30:53.992Z</time></trkpt><trkpt lat="44.32053" lon="11.904275"><ele>22.0</ele><time>2026-04-18T10:30:54.994Z</time></trkpt><trkpt lat="44.32043" lon="11.90419"><ele>22.200000000000003</ele><time>2026-04-18T10:30:55.993Z</time></trkpt><trkpt lat="44.32034" lon="11.9040967"><ele>22.4</ele><time>2026-04-18T10:30:56.993Z</time></trkpt><trkpt lat="44.320265" lon="11.9039933"><ele>22.6</ele><time>2026-04-18T10:30:57.992Z</time></trkpt><trkpt lat="44.3202183" lon="11.9038767"><ele>22.799999999999997</ele><time>2026-04-18T10:30:58.993Z</time></trkpt><trkpt lat="44.32021" lon="11.9037433"><ele>23.0</ele><time>2026-04-18T10:30:59.993Z</time></trkpt><trkpt lat="44.3202317" lon="11.9036083"><ele>23.0</ele><time>2026-04-18T10:31:00.994Z</time></trkpt><trkpt lat="44.3202617" lon="11.90346"><ele>23.0</ele><time>2026-04-18T10:31:01.992Z</time></trkpt><trkpt lat="44.320285" lon="11.9032933"><ele>23.0</ele><time>2026-04-18T10:31:02.993Z</time></trkpt><trkpt lat="44.32029" lon="11.9031167"><ele>23.0</ele><time>2026-04-18T10:31:03.994Z</time></trkpt><trkpt lat="44.3202733" lon="11.9029583"><ele>23.25</ele><time>2026-04-18T10:31:04.993Z</time></trkpt><trkpt lat="44.3202267" lon="11.902815"><ele>23.5</ele><time>2026-04-18T10:31:05.994Z</time></trkpt><trkpt lat="44.320155" lon="11.90269"><ele>23.75</ele><time>2026-04-18T10:31:06.992Z</time></trkpt><trkpt lat="44.3200533" lon="11.9025983"><ele>24.0</ele><time>2026-04-18T10:31:07.992Z</time></trkpt><trkpt lat="44.3199333" lon="11.90256"><ele>24.0</ele><time>2026-04-18T10:31:08.993Z</time></trkpt><trkpt lat="44.3198067" lon="11.9025833"><ele>24.0</ele><time>2026-04-18T10:31:09.993Z</time></trkpt><trkpt lat="44.31969" lon="11.9026617"><ele>24.0</ele><time>2026-04-18T10:31:10.994Z</time></trkpt><trkpt lat="44.3195917" lon="11.9027833"><ele>24.0</ele><time>2026-04-18T10:31:11.992Z</time></trkpt><trkpt lat="44.3195033" lon="11.9029233"><ele>23.75</ele><time>2026-04-18T10:31:12.993Z</time></trkpt><trkpt lat="44.3194" lon="11.9030333"><ele>23.5</ele><time>2026-04-18T10:31:13.992Z</time></trkpt><trkpt lat="44.319285" lon="11.9031133"><ele>23.25</ele><time>2026-04-18T10:31:14.994Z</time></trkpt><trkpt lat="44.31916" lon="11.90316"><ele>23.0</ele><time>2026-04-18T10:31:15.993Z</time></trkpt><trkpt lat="44.319025" lon="11.9031517"><ele>23.0</ele><time>2026-04-18T10:31:16.993Z</time></trkpt><trkpt lat="44.318895" lon="11.90311"><ele>23.0</ele><time>2026-04-18T10:31:17.992Z</time></trkpt><trkpt lat="44.3187633" lon="11.90304"><ele>23.0</ele><time>2026-04-18T10:31:18.992Z</time></trkpt><trkpt lat="44.31863" lon="11.902955"><ele>23.0</ele><time>2026-04-18T10:31:19.994Z</time></trkpt><trkpt lat="44.31849" lon="11.90287"><ele>23.0</ele><time>2026-04-18T10:31:20.994Z</time></trkpt><trkpt lat="44.3183517" lon="11.90278"><ele>23.0</ele><time>2026-04-18T10:31:21.992Z</time></trkpt><trkpt lat="44.3182183" lon="11.9026883"><ele>23.0</ele><time>2026-04-18T10:31:22.992Z</time></trkpt><trkpt lat="44.3180817" lon="11.9026"><ele>23.0</ele><time>2026-04-18T10:31:23.993Z</time></trkpt><trkpt lat="44.31794" lon="11.9025083"><ele>23.0</ele><time>2026-04-18T10:31:24.992Z</time></trkpt><trkpt lat="44.3177983" lon="11.90242"><ele>23.0</ele><time>2026-04-18T10:31:25.992Z</time></trkpt><trkpt lat="44.3176583" lon="11.90233"><ele>23.0</ele><time>2026-04-18T10:31:26.992Z</time></trkpt><trkpt lat="44.3175183" lon="11.9022367"><ele>23.0</ele><time>2026-04-18T10:31:27.992Z</time></trkpt><trkpt lat="44.31738" lon="11.902145"><ele>23.0</ele><time>2026-04-18T10:31:28.994Z</time></trkpt><trkpt lat="44.3172367" lon="11.902055"><ele>22.333333333333336</ele><time>2026-04-18T10:31:29.993Z</time></trkpt><trkpt lat="44.3170933" lon="11.901965"><ele>21.666666666666668</ele><time>2026-04-18T10:31:30.994Z</time></trkpt><trkpt lat="44.3169483" lon="11.9018767"><ele>21.0</ele><time>2026-04-18T10:31:31.994Z</time></trkpt><trkpt lat="44.3168033" lon="11.9017867"><ele>21.333333333333332</ele><time>2026-04-18T10:31:32.996Z</time></trkpt><trkpt lat="44.3166583" lon="11.901695"><ele>21.666666666666664</ele><time>2026-04-18T10:31:33.995Z</time></trkpt><trkpt lat="44.3165167" lon="11.9015983"><ele>22.0</ele><time>2026-04-18T10:31:34.994Z</time></trkpt><trkpt lat="44.3163767" lon="11.9015"><ele>22.333333333333332</ele><time>2026-04-18T10:31:35.996Z</time></trkpt><trkpt lat="44.316235" lon="11.9014083"><ele>22.666666666666668</ele><time>2026-04-18T10:31:36.994Z</time></trkpt><trkpt lat="44.3160883" lon="11.9013217"><ele>23.0</ele><time>2026-04-18T10:31:37.997Z</time></trkpt><trkpt lat="44.3159433" lon="11.90123"><ele>23.0</ele><time>2026-04-18T10:31:38.995Z</time></trkpt><trkpt lat="44.3157933" lon="11.90114"><ele>23.0</ele><time>2026-04-18T10:31:39.994Z</time></trkpt><trkpt lat="44.3156433" lon="11.9010433"><ele>23.0</ele><time>2026-04-18T10:31:40.995Z</time></trkpt><trkpt lat="44.31549" lon="11.900945"><ele>23.0</ele><time>2026-04-18T10:31:41.995Z</time></trkpt><trkpt lat="44.3153367" lon="11.900845"><ele>23.0</ele><time>2026-04-18T10:31:42.994Z</time></trkpt><trkpt lat="44.3151833" lon="11.9007433"><ele>23.0</ele><time>2026-04-18T10:31:43.995Z</time></trkpt><trkpt lat="44.3150283" lon="11.9006433"><ele>23.0</ele><time>2026-04-18T10:31:44.994Z</time></trkpt><trkpt lat="44.3148733" lon="11.900545"><ele>23.0</ele><time>2026-04-18T10:31:45.994Z</time></trkpt><trkpt lat="44.3147133" lon="11.9004517"><ele>23.0</ele><time>2026-04-18T10:31:46.993Z</time></trkpt><trkpt lat="44.31456" lon="11.9003517"><ele>23.5</ele><time>2026-04-18T10:31:47.995Z</time></trkpt><trkpt lat="44.3144167" lon="11.9002583"><ele>24.0</ele><time>2026-04-18T10:31:48.994Z</time></trkpt><trkpt lat="44.3142833" lon="11.90017"><ele>24.5</ele><time>2026-04-18T10:31:49.995Z</time></trkpt><trkpt lat="44.3141667" lon="11.9000883"><ele>25.0</ele><time>2026-04-18T10:31:50.994Z</time></trkpt><trkpt lat="44.3140733" lon="11.8999917"><ele>25.0</ele><time>2026-04-18T10:31:51.994Z</time></trkpt><trkpt lat="44.314005" lon="11.89987"><ele>25.0</ele><time>2026-04-18T10:31:52.992Z</time></trkpt><trkpt lat="44.3139267" lon="11.8997717"><ele>25.0</ele><time>2026-04-18T10:31:53.996Z</time></trkpt><trkpt lat="44.3138367" lon="11.8997183"><ele>25.0</ele><time>2026-04-18T10:31:54.992Z</time></trkpt><trkpt lat="44.313735" lon="11.8997067"><ele>25.0</ele><time>2026-04-18T10:31:55.993Z</time></trkpt><trkpt lat="44.3136217" lon="11.8996783"><ele>25.0</ele><time>2026-04-18T10:31:56.993Z</time></trkpt><trkpt lat="44.3135067" lon="11.899625"><ele>25.0</ele><time>2026-04-18T10:31:57.993Z</time></trkpt><trkpt lat="44.31339" lon="11.8995567"><ele>25.0</ele><time>2026-04-18T10:31:58.992Z</time></trkpt><trkpt lat="44.313275" lon="11.89948"><ele>25.0</ele><time>2026-04-18T10:31:59.992Z</time></trkpt><trkpt lat="44.31316" lon="11.8994017"><ele>24.75</ele><time>2026-04-18T10:32:00.992Z</time></trkpt><trkpt lat="44.3130383" lon="11.89932"><ele>24.5</ele><time>2026-04-18T10:32:01.992Z</time></trkpt><trkpt lat="44.31291" lon="11.89924"><ele>24.25</ele><time>2026-04-18T10:32:02.994Z</time></trkpt><trkpt lat="44.3127783" lon="11.8991583"><ele>24.0</ele><time>2026-04-18T10:32:03.994Z</time></trkpt><trkpt lat="44.312645" lon="11.8990717"><ele>24.0</ele><time>2026-04-18T10:32:04.998Z</time></trkpt><trkpt lat="44.3125117" lon="11.8989817"><ele>24.0</ele><time>2026-04-18T10:32:05.992Z</time></trkpt><trkpt lat="44.31237" lon="11.89889"><ele>24.0</ele><time>2026-04-18T10:32:06.994Z</time></trkpt><trkpt lat="44.3122233" lon="11.8987983"><ele>24.0</ele><time>2026-04-18T10:32:07.992Z</time></trkpt><trkpt lat="44.3120733" lon="11.898705"><ele>24.0</ele><time>2026-04-18T10:32:08.993Z</time></trkpt><trkpt lat="44.31192" lon="11.89861"><ele>24.0</ele><time>2026-04-18T10:32:09.993Z</time></trkpt><trkpt lat="44.3117617" lon="11.8985167"><ele>24.666666666666664</ele><time>2026-04-18T10:32:10.994Z</time></trkpt><trkpt lat="44.3116033" lon="11.8984133"><ele>25.333333333333332</ele><time>2026-04-18T10:32:11.994Z</time></trkpt><trkpt lat="44.311445" lon="11.8983067"><ele>26.0</ele><time>2026-04-18T10:32:12.993Z</time></trkpt><trkpt lat="44.3112833" lon="11.8982033"><ele>26.333333333333332</ele><time>2026-04-18T10:32:13.993Z</time></trkpt><trkpt lat="44.3111267" lon="11.8980983"><ele>26.666666666666664</ele><time>2026-04-18T10:32:14.993Z</time></trkpt><trkpt lat="44.3109767" lon="11.8980083"><ele>27.0</ele><time>2026-04-18T10:32:15.993Z</time></trkpt><trkpt lat="44.3108333" lon="11.8979217"><ele>27.0</ele><time>2026-04-18T10:32:16.992Z</time></trkpt><trkpt lat="44.3106983" lon="11.8978317"><ele>27.0</ele><time>2026-04-18T10:32:17.993Z</time></trkpt><trkpt lat="44.31056" lon="11.89774"><ele>27.0</ele><time>2026-04-18T10:32:18.993Z</time></trkpt><trkpt lat="44.3104217" lon="11.8976467"><ele>26.666666666666664</ele><time>2026-04-18T10:32:19.993Z</time></trkpt><trkpt lat="44.3102783" lon="11.8975533"><ele>26.333333333333332</ele><time>2026-04-18T10:32:20.993Z</time></trkpt><trkpt lat="44.31013" lon="11.8974617"><ele>26.0</ele><time>2026-04-18T10:32:21.993Z</time></trkpt><trkpt lat="44.30998" lon="11.8973667"><ele>26.0</ele><time>2026-04-18T10:32:22.992Z</time></trkpt><trkpt lat="44.3098317" lon="11.8972717"><ele>26.0</ele><time>2026-04-18T10:32:23.995Z</time></trkpt><trkpt lat="44.30968" lon="11.8971683"><ele>26.0</ele><time>2026-04-18T10:32:24.994Z</time></trkpt><trkpt lat="44.3095267" lon="11.8970683"><ele>26.0</ele><time>2026-04-18T10:32:25.993Z</time></trkpt><trkpt lat="44.3093717" lon="11.8969667"><ele>26.0</ele><time>2026-04-18T10:32:26.993Z</time></trkpt><trkpt lat="44.309215" lon="11.896865"><ele>26.0</ele><time>2026-04-18T10:32:27.992Z</time></trkpt><trkpt lat="44.3090667" lon="11.8967667"><ele>26.0</ele><time>2026-04-18T10:32:28.993Z</time></trkpt><trkpt lat="44.3089267" lon="11.8966733"><ele>26.0</ele><time>2026-04-18T10:32:29.992Z</time></trkpt><trkpt lat="44.3087917" lon="11.896585"><ele>26.0</ele><time>2026-04-18T10:32:30.992Z</time></trkpt><trkpt lat="44.308655" lon="11.8964967"><ele>25.666666666666664</ele><time>2026-04-18T10:32:31.995Z</time></trkpt><trkpt lat="44.3085133" lon="11.896405"><ele>25.333333333333336</ele><time>2026-04-18T10:32:32.996Z</time></trkpt><trkpt lat="44.3083683" lon="11.896315"><ele>25.0</ele><time>2026-04-18T10:32:33.993Z</time></trkpt><trkpt lat="44.3082233" lon="11.8962183"><ele>25.0</ele><time>2026-04-18T10:32:34.993Z</time></trkpt><trkpt lat="44.3080817" lon="11.89612"><ele>25.0</ele><time>2026-04-18T10:32:35.993Z</time></trkpt><trkpt lat="44.3079383" lon="11.8960317"><ele>25.0</ele><time>2026-04-18T10:32:36.993Z</time></trkpt><trkpt lat="44.3077983" lon="11.8959383"><ele>25.0</ele><time>2026-04-18T10:32:37.993Z</time></trkpt><trkpt lat="44.3076667" lon="11.8958533"><ele>25.0</ele><time>2026-04-18T10:32:38.992Z</time></trkpt><trkpt lat="44.30754" lon="11.8957667"><ele>25.0</ele><time>2026-04-18T10:32:39.993Z</time></trkpt><trkpt lat="44.3074117" lon="11.8956833"><ele>25.0</ele><time>2026-04-18T10:32:40.993Z</time></trkpt><trkpt lat="44.3072783" lon="11.8955967"><ele>25.333333333333336</ele><time>2026-04-18T10:32:41.993Z</time></trkpt><trkpt lat="44.3071383" lon="11.8955033"><ele>25.666666666666664</ele><time>2026-04-18T10:32:42.994Z</time></trkpt><trkpt lat="44.306995" lon="11.8954083"><ele>26.0</ele><time>2026-04-18T10:32:43.993Z</time></trkpt><trkpt lat="44.306855" lon="11.895315"><ele>26.0</ele><time>2026-04-18T10:32:44.995Z</time></trkpt><trkpt lat="44.30672" lon="11.89523"><ele>26.0</ele><time>2026-04-18T10:32:45.993Z</time></trkpt><trkpt lat="44.3065917" lon="11.8951483"><ele>26.0</ele><time>2026-04-18T10:32:46.994Z</time></trkpt><trkpt lat="44.3064633" lon="11.895065"><ele>26.0</ele><time>2026-04-18T10:32:47.993Z</time></trkpt><trkpt lat="44.30633" lon="11.89498"><ele>26.25</ele><time>2026-04-18T10:32:48.992Z</time></trkpt><trkpt lat="44.3061983" lon="11.8948983"><ele>26.5</ele><time>2026-04-18T10:32:49.993Z</time></trkpt><trkpt lat="44.306065" lon="11.8948217"><ele>26.75</ele><time>2026-04-18T10:32:50.993Z</time></trkpt><trkpt lat="44.3059317" lon="11.8947383"><ele>27.0</ele><time>2026-04-18T10:32:51.994Z</time></trkpt><trkpt lat="44.3057967" lon="11.8946483"><ele>27.0</ele><time>2026-04-18T10:32:52.992Z</time></trkpt><trkpt lat="44.3056567" lon="11.89456"><ele>27.0</ele><time>2026-04-18T10:32:53.994Z</time></trkpt><trkpt lat="44.3055117" lon="11.8944667"><ele>27.0</ele><time>2026-04-18T10:32:54.993Z</time></trkpt><trkpt lat="44.3053567" lon="11.89436"><ele>26.666666666666664</ele><time>2026-04-18T10:32:55.993Z</time></trkpt><trkpt lat="44.305175" lon="11.89425"><ele>26.333333333333332</ele><time>2026-04-18T10:32:56.992Z</time></trkpt><trkpt lat="44.3049883" lon="11.8941283"><ele>26.0</ele><time>2026-04-18T10:32:57.993Z</time></trkpt><trkpt lat="44.3048167" lon="11.89401"><ele>26.333333333333332</ele><time>2026-04-18T10:32:58.992Z</time></trkpt><trkpt lat="44.304655" lon="11.8938983"><ele>26.666666666666664</ele><time>2026-04-18T10:32:59.992Z</time></trkpt><trkpt lat="44.3045" lon="11.8937983"><ele>27.0</ele><time>2026-04-18T10:33:00.993Z</time></trkpt><trkpt lat="44.3043567" lon="11.893705"><ele>27.0</ele><time>2026-04-18T10:33:01.993Z</time></trkpt><trkpt lat="44.3042233" lon="11.8936167"><ele>27.0</ele><time>2026-04-18T10:33:02.993Z</time></trkpt><trkpt lat="44.3040967" lon="11.8935267"><ele>27.0</ele><time>2026-04-18T10:33:03.993Z</time></trkpt><trkpt lat="44.30397" lon="11.8934433"><ele>27.0</ele><time>2026-04-18T10:33:04.993Z</time></trkpt><trkpt lat="44.30384" lon="11.89336"><ele>27.25</ele><time>2026-04-18T10:33:05.992Z</time></trkpt><trkpt lat="44.3037067" lon="11.893275"><ele>27.5</ele><time>2026-04-18T10:33:06.993Z</time></trkpt><trkpt lat="44.3035733" lon="11.8931933"><ele>27.75</ele><time>2026-04-18T10:33:07.992Z</time></trkpt><trkpt lat="44.3034483" lon="11.89311"><ele>28.0</ele><time>2026-04-18T10:33:08.994Z</time></trkpt><trkpt lat="44.30334" lon="11.8930383"><ele>28.000000000000004</ele><time>2026-04-18T10:33:09.992Z</time></trkpt><trkpt lat="44.3032567" lon="11.89298"><ele>28.0</ele><time>2026-04-18T10:33:10.994Z</time></trkpt><trkpt lat="44.30319" lon="11.8929317"><ele>28.0</ele><time>2026-04-18T10:33:11.992Z</time></trkpt><trkpt lat="44.30313" lon="11.8928917"><ele>28.0</ele><time>2026-04-18T10:33:12.992Z</time></trkpt><trkpt lat="44.3030733" lon="11.8928533"><ele>28.000000000000004</ele><time>2026-04-18T10:33:13.993Z</time></trkpt><trkpt lat="44.3029817" lon="11.89277"><ele>28.0</ele><time>2026-04-18T10:33:15.992Z</time></trkpt><trkpt lat="44.3029317" lon="11.8926883"><ele>28.166666666666668</ele><time>2026-04-18T10:33:16.992Z</time></trkpt><trkpt lat="44.3028783" lon="11.892585"><ele>28.333333333333336</ele><time>2026-04-18T10:33:17.993Z</time></trkpt><trkpt lat="44.3028083" lon="11.892515"><ele>28.5</ele><time>2026-04-18T10:33:18.992Z</time></trkpt><trkpt lat="44.3027333" lon="11.892495"><ele>28.666666666666664</ele><time>2026-04-18T10:33:19.992Z</time></trkpt><trkpt lat="44.302655" lon="11.8925017"><ele>28.833333333333332</ele><time>2026-04-18T10:33:20.994Z</time></trkpt><trkpt lat="44.3025733" lon="11.892495"><ele>29.0</ele><time>2026-04-18T10:33:21.992Z</time></trkpt><trkpt lat="44.3024983" lon="11.8924633"><ele>29.0</ele><time>2026-04-18T10:33:22.993Z</time></trkpt><trkpt lat="44.3024217" lon="11.8924217"><ele>29.0</ele><time>2026-04-18T10:33:23.993Z</time></trkpt><trkpt lat="44.3023333" lon="11.89237"><ele>29.0</ele><time>2026-04-18T10:33:24.992Z</time></trkpt><trkpt lat="44.3022383" lon="11.8923133"><ele>29.0</ele><time>2026-04-18T10:33:25.994Z</time></trkpt><trkpt lat="44.3021383" lon="11.89225"><ele>29.0</ele><time>2026-04-18T10:33:26.992Z</time></trkpt><trkpt lat="44.302035" lon="11.8921817"><ele>28.75</ele><time>2026-04-18T10:33:27.993Z</time></trkpt><trkpt lat="44.30193" lon="11.8921133"><ele>28.5</ele><time>2026-04-18T10:33:28.993Z</time></trkpt><trkpt lat="44.301825" lon="11.8920433"><ele>28.25</ele><time>2026-04-18T10:33:29.992Z</time></trkpt><trkpt lat="44.3017183" lon="11.8919767"><ele>28.0</ele><time>2026-04-18T10:33:30.994Z</time></trkpt><trkpt lat="44.3016117" lon="11.8919067"><ele>28.0</ele><time>2026-04-18T10:33:31.992Z</time></trkpt><trkpt lat="44.3015017" lon="11.891835"><ele>28.0</ele><time>2026-04-18T10:33:32.993Z</time></trkpt><trkpt lat="44.3013883" lon="11.8917567"><ele>28.0</ele><time>2026-04-18T10:33:33.993Z</time></trkpt><trkpt lat="44.301275" lon="11.8916867"><ele>28.0</ele><time>2026-04-18T10:33:34.992Z</time></trkpt><trkpt lat="44.3011683" lon="11.8916183"><ele>27.75</ele><time>2026-04-18T10:33:35.995Z</time></trkpt><trkpt lat="44.3010617" lon="11.8915483"><ele>27.5</ele><time>2026-04-18T10:33:36.995Z</time></trkpt><trkpt lat="44.3009467" lon="11.891475"><ele>27.25</ele><time>2026-04-18T10:33:37.994Z</time></trkpt><trkpt lat="44.300825" lon="11.8914"><ele>27.0</ele><time>2026-04-18T10:33:38.995Z</time></trkpt><trkpt lat="44.3006967" lon="11.8913217"><ele>27.25</ele><time>2026-04-18T10:33:39.992Z</time></trkpt><trkpt lat="44.3005667" lon="11.8912383"><ele>27.5</ele><time>2026-04-18T10:33:40.994Z</time></trkpt><trkpt lat="44.3004333" lon="11.8911567"><ele>27.75</ele><time>2026-04-18T10:33:41.993Z</time></trkpt><trkpt lat="44.3003" lon="11.8910767"><ele>28.0</ele><time>2026-04-18T10:33:42.992Z</time></trkpt><trkpt lat="44.3001783" lon="11.891"><ele>28.0</ele><time>2026-04-18T10:33:43.992Z</time></trkpt><trkpt lat="44.3000633" lon="11.8909317"><ele>28.0</ele><time>2026-04-18T10:33:44.993Z</time></trkpt><trkpt lat="44.2999433" lon="11.89087"><ele>28.0</ele><time>2026-04-18T10:33:45.993Z</time></trkpt><trkpt lat="44.2998267" lon="11.8907933"><ele>28.0</ele><time>2026-04-18T10:33:46.994Z</time></trkpt><trkpt lat="44.2997067" lon="11.8907183"><ele>28.25</ele><time>2026-04-18T10:33:47.992Z</time></trkpt><trkpt lat="44.2995833" lon="11.8906383"><ele>28.5</ele><time>2026-04-18T10:33:48.993Z</time></trkpt><trkpt lat="44.2994617" lon="11.8905533"><ele>28.75</ele><time>2026-04-18T10:33:49.992Z</time></trkpt><trkpt lat="44.29935" lon="11.8904717"><ele>29.0</ele><time>2026-04-18T10:33:50.993Z</time></trkpt><trkpt lat="44.2992517" lon="11.8904067"><ele>29.0</ele><time>2026-04-18T10:33:51.993Z</time></trkpt><trkpt lat="44.2991683" lon="11.8903517"><ele>29.0</ele><time>2026-04-18T10:33:52.992Z</time></trkpt><trkpt lat="44.29909" lon="11.8902983"><ele>29.0</ele><time>2026-04-18T10:33:53.993Z</time></trkpt><trkpt lat="44.299015" lon="11.8902417"><ele>29.0</ele><time>2026-04-18T10:33:54.993Z</time></trkpt><trkpt lat="44.2989267" lon="11.890185"><ele>29.0</ele><time>2026-04-18T10:33:55.993Z</time></trkpt><trkpt lat="44.29883" lon="11.8901283"><ele>29.25</ele><time>2026-04-18T10:33:56.993Z</time></trkpt><trkpt lat="44.2987283" lon="11.89007"><ele>29.5</ele><time>2026-04-18T10:33:57.992Z</time></trkpt><trkpt lat="44.298595" lon="11.8899983"><ele>29.75</ele><time>2026-04-18T10:33:58.992Z</time></trkpt><trkpt lat="44.298455" lon="11.8899133"><ele>30.0</ele><time>2026-04-18T10:33:59.992Z</time></trkpt><trkpt lat="44.2983317" lon="11.8898333"><ele>30.0</ele><time>2026-04-18T10:34:00.993Z</time></trkpt><trkpt lat="44.2982" lon="11.88975"><ele>30.0</ele><time>2026-04-18T10:34:01.992Z</time></trkpt><trkpt lat="44.2980683" lon="11.8896617"><ele>30.0</ele><time>2026-04-18T10:34:02.995Z</time></trkpt><trkpt lat="44.2979483" lon="11.8895817"><ele>30.0</ele><time>2026-04-18T10:34:03.993Z</time></trkpt><trkpt lat="44.2978467" lon="11.88952"><ele>30.0</ele><time>2026-04-18T10:34:04.993Z</time></trkpt><trkpt lat="44.2977617" lon="11.8894683"><ele>30.0</ele><time>2026-04-18T10:34:05.992Z</time></trkpt><trkpt lat="44.2976783" lon="11.8894167"><ele>30.0</ele><time>2026-04-18T10:34:06.993Z</time></trkpt><trkpt lat="44.297595" lon="11.88937"><ele>30.0</ele><time>2026-04-18T10:34:07.993Z</time></trkpt><trkpt lat="44.2975033" lon="11.88932"><ele>30.0</ele><time>2026-04-18T10:34:08.993Z</time></trkpt><trkpt lat="44.2974" lon="11.8892633"><ele>30.25</ele><time>2026-04-18T10:34:09.994Z</time></trkpt><trkpt lat="44.2972883" lon="11.8891983"><ele>30.5</ele><time>2026-04-18T10:34:10.992Z</time></trkpt><trkpt lat="44.29717" lon="11.8891267"><ele>30.75</ele><time>2026-04-18T10:34:11.993Z</time></trkpt><trkpt lat="44.2970433" lon="11.8890533"><ele>31.0</ele><time>2026-04-18T10:34:12.993Z</time></trkpt><trkpt lat="44.2969333" lon="11.888985"><ele>31.000000000000004</ele><time>2026-04-18T10:34:13.993Z</time></trkpt><trkpt lat="44.29683" lon="11.8889217"><ele>31.0</ele><time>2026-04-18T10:34:14.994Z</time></trkpt><trkpt lat="44.29675" lon="11.8888717"><ele>31.0</ele><time>2026-04-18T10:34:15.994Z</time></trkpt><trkpt lat="44.29669" lon="11.8888383"><ele>31.0</ele><time>2026-04-18T10:34:16.992Z</time></trkpt><trkpt lat="44.296615" lon="11.8887967"><ele>31.000000000000004</ele><time>2026-04-18T10:34:17.992Z</time></trkpt><trkpt lat="44.2965383" lon="11.8887533"><ele>31.0</ele><time>2026-04-18T10:34:18.993Z</time></trkpt><trkpt lat="44.2964633" lon="11.888695"><ele>31.0</ele><time>2026-04-18T10:34:20.994Z</time></trkpt><trkpt lat="44.2963917" lon="11.8886433"><ele>31.0</ele><time>2026-04-18T10:34:23.992Z</time></trkpt><trkpt lat="44.2963033" lon="11.888585"><ele>31.0</ele><time>2026-04-18T10:34:26.994Z</time></trkpt><trkpt lat="44.2962317" lon="11.88854"><ele>31.0</ele><time>2026-04-18T10:34:28.995Z</time></trkpt><trkpt lat="44.29613" lon="11.8884567"><ele>31.0</ele><time>2026-04-18T10:34:30.993Z</time></trkpt><trkpt lat="44.2960683" lon="11.8883617"><ele>31.0</ele><time>2026-04-18T10:34:32.994Z</time></trkpt><trkpt lat="44.2960267" lon="11.8882767"><ele>31.0</ele><time>2026-04-18T10:34:34.992Z</time></trkpt><trkpt lat="44.2959783" lon="11.88809"><ele>31.0</ele><time>2026-04-18T10:34:36.993Z</time></trkpt><trkpt lat="44.295945" lon="11.887965"><ele>31.0</ele><time>2026-04-18T10:34:37.994Z</time></trkpt><trkpt lat="44.2959033" lon="11.887865"><ele>31.0</ele><time>2026-04-18T10:34:38.997Z</time></trkpt><trkpt lat="44.295845" lon="11.8877983"><ele>31.0</ele><time>2026-04-18T10:34:39.994Z</time></trkpt><trkpt lat="44.2957317" lon="11.8877767"><ele>31.0</ele><time>2026-04-18T10:34:41.992Z</time></trkpt><trkpt lat="44.2956333" lon="11.8878633"><ele>31.0</ele><time>2026-04-18T10:34:43.992Z</time></trkpt><trkpt lat="44.2955467" lon="11.887975"><ele>31.0</ele><time>2026-04-18T10:34:45.994Z</time></trkpt><trkpt lat="44.2954883" lon="11.8880217"><ele>31.0</ele><time>2026-04-18T10:34:46.992Z</time></trkpt><trkpt lat="44.295415" lon="11.88805"><ele>31.200000000000003</ele><time>2026-04-18T10:34:47.993Z</time></trkpt><trkpt lat="44.2953317" lon="11.8880583"><ele>31.400000000000002</ele><time>2026-04-18T10:34:48.992Z</time></trkpt><trkpt lat="44.29524" lon="11.8880383"><ele>31.6</ele><time>2026-04-18T10:34:49.993Z</time></trkpt><trkpt lat="44.2951417" lon="11.88799"><ele>31.8</ele><time>2026-04-18T10:34:50.993Z</time></trkpt><trkpt lat="44.2950383" lon="11.88792"><ele>32.0</ele><time>2026-04-18T10:34:51.993Z</time></trkpt><trkpt lat="44.2949267" lon="11.887845"><ele>32.0</ele><time>2026-04-18T10:34:52.992Z</time></trkpt><trkpt lat="44.2948067" lon="11.8877667"><ele>32.0</ele><time>2026-04-18T10:34:53.993Z</time></trkpt><trkpt lat="44.2946883" lon="11.88768"><ele>32.0</ele><time>2026-04-18T10:34:54.992Z</time></trkpt><trkpt lat="44.2945633" lon="11.8875967"><ele>32.0</ele><time>2026-04-18T10:34:55.993Z</time></trkpt><trkpt lat="44.294435" lon="11.8875117"><ele>32.25</ele><time>2026-04-18T10:34:56.993Z</time></trkpt><trkpt lat="44.2943017" lon="11.8874267"><ele>32.5</ele><time>2026-04-18T10:34:57.992Z</time></trkpt><trkpt lat="44.29417" lon="11.8873417"><ele>32.75</ele><time>2026-04-18T10:34:58.993Z</time></trkpt><trkpt lat="44.2940383" lon="11.8872567"><ele>33.0</ele><time>2026-04-18T10:34:59.993Z</time></trkpt><trkpt lat="44.2939067" lon="11.8871717"><ele>33.75</ele><time>2026-04-18T10:35:00.993Z</time></trkpt><trkpt lat="44.2937717" lon="11.8870867"><ele>34.5</ele><time>2026-04-18T10:35:01.993Z</time></trkpt><trkpt lat="44.2936333" lon="11.8870033"><ele>35.25</ele><time>2026-04-18T10:35:02.993Z</time></trkpt><trkpt lat="44.2934983" lon="11.88692"><ele>36.0</ele><time>2026-04-18T10:35:03.992Z</time></trkpt><trkpt lat="44.293375" lon="11.886835"><ele>35.5</ele><time>2026-04-18T10:35:04.993Z</time></trkpt><trkpt lat="44.29326" lon="11.8867567"><ele>35.0</ele><time>2026-04-18T10:35:05.993Z</time></trkpt><trkpt lat="44.293145" lon="11.8866817"><ele>34.5</ele><time>2026-04-18T10:35:06.992Z</time></trkpt><trkpt lat="44.29303" lon="11.8866067"><ele>34.0</ele><time>2026-04-18T10:35:07.992Z</time></trkpt><trkpt lat="44.2929183" lon="11.8865317"><ele>34.0</ele><time>2026-04-18T10:35:08.993Z</time></trkpt><trkpt lat="44.2928083" lon="11.8864617"><ele>34.0</ele><time>2026-04-18T10:35:09.992Z</time></trkpt><trkpt lat="44.292705" lon="11.8863933"><ele>34.0</ele><time>2026-04-18T10:35:10.993Z</time></trkpt><trkpt lat="44.2926033" lon="11.8863267"><ele>34.0</ele><time>2026-04-18T10:35:11.992Z</time></trkpt><trkpt lat="44.2925" lon="11.886265"><ele>34.0</ele><time>2026-04-18T10:35:12.992Z</time></trkpt><trkpt lat="44.2923933" lon="11.8862"><ele>34.0</ele><time>2026-04-18T10:35:13.993Z</time></trkpt><trkpt lat="44.2922867" lon="11.8861333"><ele>34.0</ele><time>2026-04-18T10:35:14.994Z</time></trkpt><trkpt lat="44.29218" lon="11.88607"><ele>34.0</ele><time>2026-04-18T10:35:15.993Z</time></trkpt><trkpt lat="44.2920767" lon="11.886005"><ele>34.4</ele><time>2026-04-18T10:35:16.993Z</time></trkpt><trkpt lat="44.2919733" lon="11.8859417"><ele>34.8</ele><time>2026-04-18T10:35:17.993Z</time></trkpt><trkpt lat="44.29187" lon="11.8858767"><ele>35.2</ele><time>2026-04-18T10:35:18.992Z</time></trkpt><trkpt lat="44.29177" lon="11.8858133"><ele>35.6</ele><time>2026-04-18T10:35:19.994Z</time></trkpt><trkpt lat="44.2916733" lon="11.8857517"><ele>36.0</ele><time>2026-04-18T10:35:20.993Z</time></trkpt><trkpt lat="44.2915833" lon="11.8856917"><ele>36.0</ele><time>2026-04-18T10:35:21.992Z</time></trkpt><trkpt lat="44.2915" lon="11.885635"><ele>36.0</ele><time>2026-04-18T10:35:22.994Z</time></trkpt><trkpt lat="44.2914283" lon="11.8855883"><ele>36.0</ele><time>2026-04-18T10:35:23.993Z</time></trkpt><trkpt lat="44.2913617" lon="11.8855467"><ele>36.0</ele><time>2026-04-18T10:35:24.993Z</time></trkpt><trkpt lat="44.2912717" lon="11.885485"><ele>36.0</ele><time>2026-04-18T10:35:26.993Z</time></trkpt><trkpt lat="44.2912067" lon="11.885445"><ele>36.0</ele><time>2026-04-18T10:35:28.992Z</time></trkpt><trkpt lat="44.2911367" lon="11.8853933"><ele>36.0</ele><time>2026-04-18T10:35:31.993Z</time></trkpt><trkpt lat="44.2910767" lon="11.8853467"><ele>36.0</ele><time>2026-04-18T10:35:33.992Z</time></trkpt><trkpt lat="44.2909933" lon="11.8852883"><ele>36.0</ele><time>2026-04-18T10:35:35.992Z</time></trkpt><trkpt lat="44.29093" lon="11.8852383"><ele>36.0</ele><time>2026-04-18T10:35:36.993Z</time></trkpt><trkpt lat="44.2908633" lon="11.8851683"><ele>36.0</ele><time>2026-04-18T10:35:37.992Z</time></trkpt><trkpt lat="44.2908067" lon="11.8850967"><ele>36.0</ele><time>2026-04-18T10:35:38.992Z</time></trkpt><trkpt lat="44.2907483" lon="11.8850267"><ele>36.4</ele><time>2026-04-18T10:35:39.992Z</time></trkpt><trkpt lat="44.29068" lon="11.8849417"><ele>36.8</ele><time>2026-04-18T10:35:40.993Z</time></trkpt><trkpt lat="44.290605" lon="11.8848483"><ele>37.199999999999996</ele><time>2026-04-18T10:35:41.992Z</time></trkpt><trkpt lat="44.2905383" lon="11.884755"><ele>37.6</ele><time>2026-04-18T10:35:42.992Z</time></trkpt><trkpt lat="44.2904783" lon="11.8846667"><ele>38.0</ele><time>2026-04-18T10:35:43.993Z</time></trkpt><trkpt lat="44.2904217" lon="11.8845883"><ele>38.166666666666664</ele><time>2026-04-18T10:35:44.994Z</time></trkpt><trkpt lat="44.2903683" lon="11.8845217"><ele>38.33333333333333</ele><time>2026-04-18T10:35:45.993Z</time></trkpt><trkpt lat="44.29031" lon="11.8844833"><ele>38.5</ele><time>2026-04-18T10:35:46.994Z</time></trkpt><trkpt lat="44.29023" lon="11.8845017"><ele>38.666666666666664</ele><time>2026-04-18T10:35:48.994Z</time></trkpt><trkpt lat="44.2901867" lon="11.884625"><ele>38.833333333333336</ele><time>2026-04-18T10:35:50.993Z</time></trkpt><trkpt lat="44.2901533" lon="11.884735"><ele>39.0</ele><time>2026-04-18T10:35:51.992Z</time></trkpt><trkpt lat="44.2901117" lon="11.88488"><ele>39.0</ele><time>2026-04-18T10:35:52.993Z</time></trkpt><trkpt lat="44.2900567" lon="11.8850567"><ele>39.0</ele><time>2026-04-18T10:35:53.993Z</time></trkpt><trkpt lat="44.2899917" lon="11.8852533"><ele>39.0</ele><time>2026-04-18T10:35:54.992Z</time></trkpt><trkpt lat="44.28992" lon="11.8854283"><ele>39.0</ele><time>2026-04-18T10:35:55.992Z</time></trkpt><trkpt lat="44.289865" lon="11.8855617"><ele>39.0</ele><time>2026-04-18T10:35:56.994Z</time></trkpt><trkpt lat="44.289825" lon="11.8856617"><ele>39.0</ele><time>2026-04-18T10:35:57.992Z</time></trkpt><trkpt lat="44.2897833" lon="11.8857733"><ele>39.0</ele><time>2026-04-18T10:35:59.993Z</time></trkpt><trkpt lat="44.289745" lon="11.885855"><ele>39.0</ele><time>2026-04-18T10:36:02.992Z</time></trkpt><trkpt lat="44.2897017" lon="11.88595"><ele>39.0</ele><time>2026-04-18T10:36:05.992Z</time></trkpt><trkpt lat="44.2896667" lon="11.88603"><ele>39.0</ele><time>2026-04-18T10:36:06.992Z</time></trkpt><trkpt lat="44.2896033" lon="11.8861817"><ele>38.8</ele><time>2026-04-18T10:36:08.992Z</time></trkpt><trkpt lat="44.289555" lon="11.8862883"><ele>38.599999999999994</ele><time>2026-04-18T10:36:09.992Z</time></trkpt><trkpt lat="44.2895033" lon="11.8864033"><ele>38.4</ele><time>2026-04-18T10:36:10.993Z</time></trkpt><trkpt lat="44.2894433" lon="11.8865283"><ele>38.199999999999996</ele><time>2026-04-18T10:36:11.994Z</time></trkpt><trkpt lat="44.2893883" lon="11.886645"><ele>38.0</ele><time>2026-04-18T10:36:12.993Z</time></trkpt><trkpt lat="44.2893283" lon="11.88677"><ele>37.5</ele><time>2026-04-18T10:36:13.994Z</time></trkpt><trkpt lat="44.2892633" lon="11.8868983"><ele>37.0</ele><time>2026-04-18T10:36:14.994Z</time></trkpt><trkpt lat="44.2891933" lon="11.8870267"><ele>36.5</ele><time>2026-04-18T10:36:15.993Z</time></trkpt><trkpt lat="44.2891167" lon="11.887155"><ele>36.0</ele><time>2026-04-18T10:36:16.994Z</time></trkpt><trkpt lat="44.289035" lon="11.887285"><ele>36.0</ele><time>2026-04-18T10:36:17.993Z</time></trkpt><trkpt lat="44.2889567" lon="11.88741"><ele>36.0</ele><time>2026-04-18T10:36:18.993Z</time></trkpt><trkpt lat="44.288885" lon="11.8875267"><ele>36.0</ele><time>2026-04-18T10:36:19.994Z</time></trkpt><trkpt lat="44.288815" lon="11.8876317"><ele>36.0</ele><time>2026-04-18T10:36:20.992Z</time></trkpt><trkpt lat="44.28875" lon="11.887735"><ele>36.0</ele><time>2026-04-18T10:36:21.992Z</time></trkpt><trkpt lat="44.2886883" lon="11.8878317"><ele>35.666666666666664</ele><time>2026-04-18T10:36:22.993Z</time></trkpt><trkpt lat="44.2886283" lon="11.8879217"><ele>35.333333333333336</ele><time>2026-04-18T10:36:23.993Z</time></trkpt><trkpt lat="44.2885767" lon="11.888005"><ele>35.0</ele><time>2026-04-18T10:36:24.994Z</time></trkpt><trkpt lat="44.2885333" lon="11.8880717"><ele>34.66666666666667</ele><time>2026-04-18T10:36:25.992Z</time></trkpt><trkpt lat="44.28847" lon="11.8881667"><ele>34.333333333333336</ele><time>2026-04-18T10:36:27.992Z</time></trkpt><trkpt lat="44.28842" lon="11.8882383"><ele>34.0</ele><time>2026-04-18T10:36:31.992Z</time></trkpt><trkpt lat="44.2884683" lon="11.888155"><ele>34.0</ele><time>2026-04-18T10:36:44.992Z</time></trkpt><trkpt lat="44.2883933" lon="11.888305"><ele>34.0</ele><time>2026-04-18T10:37:41.994Z</time></trkpt><trkpt lat="44.2883183" lon="11.8884383"><ele>34.0</ele><time>2026-04-18T10:37:43.993Z</time></trkpt><trkpt lat="44.288275" lon="11.8885167"><ele>34.0</ele><time>2026-04-18T10:37:44.993Z</time></trkpt><trkpt lat="44.2882183" lon="11.88859"><ele>34.0</ele><time>2026-04-18T10:37:45.992Z</time></trkpt><trkpt lat="44.28815" lon="11.88865"><ele>34.0</ele><time>2026-04-18T10:37:46.992Z</time></trkpt><trkpt lat="44.2880567" lon="11.8886867"><ele>34.0</ele><time>2026-04-18T10:37:47.992Z</time></trkpt><trkpt lat="44.2879533" lon="11.888725"><ele>34.0</ele><time>2026-04-18T10:37:48.992Z</time></trkpt><trkpt lat="44.287855" lon="11.8887633"><ele>34.0</ele><time>2026-04-18T10:37:49.993Z</time></trkpt><trkpt lat="44.28775" lon="11.8887983"><ele>34.0</ele><time>2026-04-18T10:37:50.993Z</time></trkpt><trkpt lat="44.2876417" lon="11.8888367"><ele>34.0</ele><time>2026-04-18T10:37:51.993Z</time></trkpt><trkpt lat="44.2875283" lon="11.8888767"><ele>34.0</ele><time>2026-04-18T10:37:52.992Z</time></trkpt><trkpt lat="44.287415" lon="11.8889167"><ele>34.0</ele><time>2026-04-18T10:37:53.992Z</time></trkpt><trkpt lat="44.2873083" lon="11.8889417"><ele>34.0</ele><time>2026-04-18T10:37:54.993Z</time></trkpt><trkpt lat="44.287205" lon="11.8889567"><ele>34.0</ele><time>2026-04-18T10:37:55.992Z</time></trkpt><trkpt lat="44.2871" lon="11.8889633"><ele>34.2</ele><time>2026-04-18T10:37:56.992Z</time></trkpt><trkpt lat="44.28699" lon="11.88895"><ele>34.4</ele><time>2026-04-18T10:37:57.993Z</time></trkpt><trkpt lat="44.2868783" lon="11.8889283"><ele>34.6</ele><time>2026-04-18T10:37:58.992Z</time></trkpt><trkpt lat="44.2867667" lon="11.8889033"><ele>34.8</ele><time>2026-04-18T10:37:59.992Z</time></trkpt><trkpt lat="44.2866583" lon="11.888885"><ele>35.0</ele><time>2026-04-18T10:38:00.992Z</time></trkpt><trkpt lat="44.2865483" lon="11.888865"><ele>35.0</ele><time>2026-04-18T10:38:01.994Z</time></trkpt><trkpt lat="44.286435" lon="11.8888467"><ele>35.0</ele><time>2026-04-18T10:38:02.992Z</time></trkpt><trkpt lat="44.2863233" lon="11.8888233"><ele>35.0</ele><time>2026-04-18T10:38:03.992Z</time></trkpt><trkpt lat="44.2862133" lon="11.8887917"><ele>35.0</ele><time>2026-04-18T10:38:04.992Z</time></trkpt><trkpt lat="44.28611" lon="11.8887517"><ele>35.0</ele><time>2026-04-18T10:38:05.993Z</time></trkpt><trkpt lat="44.2860167" lon="11.888705"><ele>35.2</ele><time>2026-04-18T10:38:06.992Z</time></trkpt><trkpt lat="44.2859283" lon="11.8886517"><ele>35.4</ele><time>2026-04-18T10:38:07.994Z</time></trkpt><trkpt lat="44.2858383" lon="11.8885967"><ele>35.6</ele><time>2026-04-18T10:38:08.994Z</time></trkpt><trkpt lat="44.28575" lon="11.8885383"><ele>35.8</ele><time>2026-04-18T10:38:09.993Z</time></trkpt><trkpt lat="44.2856617" lon="11.8884817"><ele>36.0</ele><time>2026-04-18T10:38:10.993Z</time></trkpt><trkpt lat="44.2855717" lon="11.8884233"><ele>36.0</ele><time>2026-04-18T10:38:11.992Z</time></trkpt><trkpt lat="44.28548" lon="11.8883667"><ele>36.0</ele><time>2026-04-18T10:38:12.993Z</time></trkpt><trkpt lat="44.2853867" lon="11.8883067"><ele>36.0</ele><time>2026-04-18T10:38:13.993Z</time></trkpt><trkpt lat="44.2852933" lon="11.8882467"><ele>36.0</ele><time>2026-04-18T10:38:14.993Z</time></trkpt><trkpt lat="44.2851967" lon="11.8881817"><ele>36.0</ele><time>2026-04-18T10:38:15.993Z</time></trkpt><trkpt lat="44.2851033" lon="11.88812"><ele>36.0</ele><time>2026-04-18T10:38:16.993Z</time></trkpt><trkpt lat="44.285015" lon="11.8880633"><ele>36.0</ele><time>2026-04-18T10:38:17.993Z</time></trkpt><trkpt lat="44.28493" lon="11.8879933"><ele>36.0</ele><time>2026-04-18T10:38:18.992Z</time></trkpt><trkpt lat="44.2848383" lon="11.8879133"><ele>36.0</ele><time>2026-04-18T10:38:19.993Z</time></trkpt><trkpt lat="44.2847483" lon="11.8878383"><ele>36.0</ele><time>2026-04-18T10:38:20.994Z</time></trkpt><trkpt lat="44.2846633" lon="11.88777"><ele>35.8</ele><time>2026-04-18T10:38:21.992Z</time></trkpt><trkpt lat="44.2845817" lon="11.8877083"><ele>35.6</ele><time>2026-04-18T10:38:22.992Z</time></trkpt><trkpt lat="44.2845117" lon="11.88765"><ele>35.4</ele><time>2026-04-18T10:38:23.992Z</time></trkpt><trkpt lat="44.28445" lon="11.8875967"><ele>35.2</ele><time>2026-04-18T10:38:24.992Z</time></trkpt><trkpt lat="44.2843833" lon="11.8875333"><ele>35.0</ele><time>2026-04-18T10:38:26.992Z</time></trkpt><trkpt lat="44.28422" lon="11.8874167"><ele>35.0</ele><time>2026-04-18T10:39:43.992Z</time></trkpt><trkpt lat="44.28411" lon="11.88736"><ele>35.0</ele><time>2026-04-18T10:39:45.993Z</time></trkpt><trkpt lat="44.2839817" lon="11.8873"><ele>35.0</ele><time>2026-04-18T10:39:47.993Z</time></trkpt><trkpt lat="44.2838983" lon="11.8872567"><ele>35.0</ele><time>2026-04-18T10:39:48.994Z</time></trkpt><trkpt lat="44.283805" lon="11.8872133"><ele>35.0</ele><time>2026-04-18T10:39:49.994Z</time></trkpt><trkpt lat="44.2837117" lon="11.88717"><ele>34.2</ele><time>2026-04-18T10:39:50.993Z</time></trkpt><trkpt lat="44.283625" lon="11.88713"><ele>33.4</ele><time>2026-04-18T10:39:51.993Z</time></trkpt><trkpt lat="44.2835317" lon="11.887085"><ele>32.6</ele><time>2026-04-18T10:39:52.994Z</time></trkpt><trkpt lat="44.2834383" lon="11.8870383"><ele>31.8</ele><time>2026-04-18T10:39:53.994Z</time></trkpt><trkpt lat="44.283345" lon="11.8869917"><ele>31.0</ele><time>2026-04-18T10:39:54.994Z</time></trkpt><trkpt lat="44.2832517" lon="11.8869483"><ele>31.0</ele><time>2026-04-18T10:39:55.993Z</time></trkpt><trkpt lat="44.2831617" lon="11.8869067"><ele>31.0</ele><time>2026-04-18T10:39:56.993Z</time></trkpt><trkpt lat="44.28308" lon="11.88687"><ele>31.0</ele><time>2026-04-18T10:39:57.994Z</time></trkpt><trkpt lat="44.2830083" lon="11.8868383"><ele>31.0</ele><time>2026-04-18T10:39:58.993Z</time></trkpt><trkpt lat="44.2828917" lon="11.88679"><ele>31.0</ele><time>2026-04-18T10:40:00.993Z</time></trkpt><trkpt lat="44.2828067" lon="11.8867667"><ele>31.25</ele><time>2026-04-18T10:40:01.994Z</time></trkpt><trkpt lat="44.2826967" lon="11.8867567"><ele>31.5</ele><time>2026-04-18T10:40:02.993Z</time></trkpt><trkpt lat="44.2825667" lon="11.88674"><ele>31.75</ele><time>2026-04-18T10:40:03.993Z</time></trkpt><trkpt lat="44.2824233" lon="11.8867133"><ele>32.0</ele><time>2026-04-18T10:40:04.993Z</time></trkpt><trkpt lat="44.28227" lon="11.886685"><ele>31.0</ele><time>2026-04-18T10:40:05.993Z</time></trkpt><trkpt lat="44.2821183" lon="11.8866283"><ele>30.0</ele><time>2026-04-18T10:40:06.993Z</time></trkpt><trkpt lat="44.2819667" lon="11.8865567"><ele>29.0</ele><time>2026-04-18T10:40:07.993Z</time></trkpt><trkpt lat="44.281815" lon="11.886465"><ele>29.0</ele><time>2026-04-18T10:40:08.993Z</time></trkpt><trkpt lat="44.2816633" lon="11.88637"><ele>29.0</ele><time>2026-04-18T10:40:09.993Z</time></trkpt><trkpt lat="44.2815083" lon="11.8862717"><ele>29.0</ele><time>2026-04-18T10:40:10.993Z</time></trkpt><trkpt lat="44.2813567" lon="11.886165"><ele>29.333333333333332</ele><time>2026-04-18T10:40:11.993Z</time></trkpt><trkpt lat="44.281205" lon="11.8860533"><ele>29.666666666666664</ele><time>2026-04-18T10:40:12.994Z</time></trkpt><trkpt lat="44.28105" lon="11.88594"><ele>30.0</ele><time>2026-04-18T10:40:13.993Z</time></trkpt><trkpt lat="44.2808933" lon="11.8858267"><ele>30.333333333333336</ele><time>2026-04-18T10:40:14.994Z</time></trkpt><trkpt lat="44.2807383" lon="11.8857117"><ele>30.666666666666668</ele><time>2026-04-18T10:40:15.993Z</time></trkpt><trkpt lat="44.280585" lon="11.8855917"><ele>31.0</ele><time>2026-04-18T10:40:16.993Z</time></trkpt><trkpt lat="44.280435" lon="11.8854683"><ele>31.333333333333336</ele><time>2026-04-18T10:40:17.992Z</time></trkpt><trkpt lat="44.2802883" lon="11.8853417"><ele>31.666666666666664</ele><time>2026-04-18T10:40:18.993Z</time></trkpt><trkpt lat="44.28014" lon="11.8852117"><ele>32.0</ele><time>2026-04-18T10:40:19.993Z</time></trkpt><trkpt lat="44.2799917" lon="11.8850767"><ele>32.0</ele><time>2026-04-18T10:40:20.993Z</time></trkpt><trkpt lat="44.2798433" lon="11.8849417"><ele>32.0</ele><time>2026-04-18T10:40:21.994Z</time></trkpt><trkpt lat="44.2796983" lon="11.8848033"><ele>32.0</ele><time>2026-04-18T10:40:22.994Z</time></trkpt><trkpt lat="44.2795567" lon="11.8846583"><ele>31.666666666666664</ele><time>2026-04-18T10:40:23.992Z</time></trkpt><trkpt lat="44.279415" lon="11.8845217"><ele>31.333333333333336</ele><time>2026-04-18T10:40:24.994Z</time></trkpt><trkpt lat="44.2792783" lon="11.88438"><ele>31.0</ele><time>2026-04-18T10:40:25.994Z</time></trkpt><trkpt lat="44.2791483" lon="11.8842367"><ele>31.0</ele><time>2026-04-18T10:40:26.994Z</time></trkpt><trkpt lat="44.2790167" lon="11.884095"><ele>31.0</ele><time>2026-04-18T10:40:27.993Z</time></trkpt><trkpt lat="44.278885" lon="11.8839467"><ele>31.0</ele><time>2026-04-18T10:40:28.993Z</time></trkpt><trkpt lat="44.2787517" lon="11.8838"><ele>31.0</ele><time>2026-04-18T10:40:29.993Z</time></trkpt><trkpt lat="44.278615" lon="11.88365"><ele>31.0</ele><time>2026-04-18T10:40:30.993Z</time></trkpt><trkpt lat="44.2784833" lon="11.8834983"><ele>31.0</ele><time>2026-04-18T10:40:31.994Z</time></trkpt><trkpt lat="44.2783567" lon="11.8833383"><ele>31.0</ele><time>2026-04-18T10:40:32.993Z</time></trkpt><trkpt lat="44.2782333" lon="11.8831783"><ele>31.0</ele><time>2026-04-18T10:40:33.992Z</time></trkpt><trkpt lat="44.2781083" lon="11.883025"><ele>31.0</ele><time>2026-04-18T10:40:34.992Z</time></trkpt><trkpt lat="44.27798" lon="11.8828783"><ele>31.0</ele><time>2026-04-18T10:40:35.992Z</time></trkpt><trkpt lat="44.2778517" lon="11.8827267"><ele>31.0</ele><time>2026-04-18T10:40:36.993Z</time></trkpt><trkpt lat="44.2777267" lon="11.882575"><ele>31.0</ele><time>2026-04-18T10:40:37.993Z</time></trkpt><trkpt lat="44.2776017" lon="11.8824133"><ele>31.0</ele><time>2026-04-18T10:40:38.993Z</time></trkpt><trkpt lat="44.27748" lon="11.8822533"><ele>31.0</ele><time>2026-04-18T10:40:39.992Z</time></trkpt><trkpt lat="44.2773617" lon="11.8820833"><ele>31.0</ele><time>2026-04-18T10:40:40.992Z</time></trkpt><trkpt lat="44.2772483" lon="11.88191"><ele>30.666666666666668</ele><time>2026-04-18T10:40:41.992Z</time></trkpt><trkpt lat="44.2771483" lon="11.8817333"><ele>30.333333333333336</ele><time>2026-04-18T10:40:42.994Z</time></trkpt><trkpt lat="44.27708" lon="11.881545"><ele>30.0</ele><time>2026-04-18T10:40:43.992Z</time></trkpt><trkpt lat="44.2770467" lon="11.88134"><ele>30.0</ele><time>2026-04-18T10:40:44.993Z</time></trkpt><trkpt lat="44.277045" lon="11.8811383"><ele>30.0</ele><time>2026-04-18T10:40:45.993Z</time></trkpt><trkpt lat="44.2770717" lon="11.8809367"><ele>30.0</ele><time>2026-04-18T10:40:46.992Z</time></trkpt><trkpt lat="44.27713" lon="11.880725"><ele>30.333333333333336</ele><time>2026-04-18T10:40:47.994Z</time></trkpt><trkpt lat="44.2772017" lon="11.8805083"><ele>30.666666666666668</ele><time>2026-04-18T10:40:48.993Z</time></trkpt><trkpt lat="44.277285" lon="11.88029"><ele>31.0</ele><time>2026-04-18T10:40:49.993Z</time></trkpt><trkpt lat="44.2773717" lon="11.8800867"><ele>31.0</ele><time>2026-04-18T10:40:50.994Z</time></trkpt><trkpt lat="44.2774583" lon="11.8798967"><ele>31.0</ele><time>2026-04-18T10:40:51.992Z</time></trkpt><trkpt lat="44.2775433" lon="11.87972"><ele>31.0</ele><time>2026-04-18T10:40:52.993Z</time></trkpt><trkpt lat="44.2776217" lon="11.8795567"><ele>31.0</ele><time>2026-04-18T10:40:53.993Z</time></trkpt><trkpt lat="44.277695" lon="11.87942"><ele>31.0</ele><time>2026-04-18T10:40:54.993Z</time></trkpt><trkpt lat="44.2777517" lon="11.8793167"><ele>31.0</ele><time>2026-04-18T10:40:55.993Z</time></trkpt><trkpt lat="44.2777933" lon="11.8792417"><ele>31.0</ele><time>2026-04-18T10:40:56.993Z</time></trkpt><trkpt lat="44.2778467" lon="11.8791567"><ele>31.0</ele><time>2026-04-18T10:40:58.993Z</time></trkpt><trkpt lat="44.277935" lon="11.8790383"><ele>30.8</ele><time>2026-04-18T10:41:21.993Z</time></trkpt><trkpt lat="44.2779933" lon="11.8789483"><ele>30.6</ele><time>2026-04-18T10:41:24.995Z</time></trkpt><trkpt lat="44.2780533" lon="11.8788467"><ele>30.4</ele><time>2026-04-18T10:41:33.993Z</time></trkpt><trkpt lat="44.2781083" lon="11.8787617"><ele>30.2</ele><time>2026-04-18T10:41:36.993Z</time></trkpt><trkpt lat="44.2781517" lon="11.8786967"><ele>30.0</ele><time>2026-04-18T10:41:38.993Z</time></trkpt><trkpt lat="44.27822" lon="11.8785317"><ele>30.0</ele><time>2026-04-18T10:41:47.992Z</time></trkpt><trkpt lat="44.278215" lon="11.878395"><ele>30.0</ele><time>2026-04-18T10:41:50.993Z</time></trkpt><trkpt lat="44.2781483" lon="11.8783117"><ele>30.0</ele><time>2026-04-18T10:41:52.993Z</time></trkpt><trkpt lat="44.2780917" lon="11.87826"><ele>30.0</ele><time>2026-04-18T10:41:53.994Z</time></trkpt><trkpt lat="44.2780267" lon="11.8781983"><ele>30.0</ele><time>2026-04-18T10:41:54.994Z</time></trkpt><trkpt lat="44.2779483" lon="11.8781217"><ele>30.0</ele><time>2026-04-18T10:41:55.995Z</time></trkpt><trkpt lat="44.2778633" lon="11.878045"><ele>30.0</ele><time>2026-04-18T10:41:56.994Z</time></trkpt><trkpt lat="44.277785" lon="11.87798"><ele>30.0</ele><time>2026-04-18T10:41:57.993Z</time></trkpt><trkpt lat="44.2777217" lon="11.877935"><ele>30.0</ele><time>2026-04-18T10:41:58.993Z</time></trkpt><trkpt lat="44.2776017" lon="11.8779817"><ele>30.0</ele><time>2026-04-18T10:42:00.993Z</time></trkpt><trkpt lat="44.277535" lon="11.8780817"><ele>30.0</ele><time>2026-04-18T10:42:01.992Z</time></trkpt><trkpt lat="44.2774583" lon="11.8782083"><ele>30.0</ele><time>2026-04-18T10:42:02.993Z</time></trkpt><trkpt lat="44.2773733" lon="11.8783583"><ele>30.0</ele><time>2026-04-18T10:42:03.992Z</time></trkpt><trkpt lat="44.277275" lon="11.8785367"><ele>30.0</ele><time>2026-04-18T10:42:04.992Z</time></trkpt><trkpt lat="44.277175" lon="11.8787283"><ele>30.333333333333336</ele><time>2026-04-18T10:42:05.993Z</time></trkpt><trkpt lat="44.27707" lon="11.8789267"><ele>30.666666666666668</ele><time>2026-04-18T10:42:06.992Z</time></trkpt><trkpt lat="44.276965" lon="11.8791167"><ele>31.0</ele><time>2026-04-18T10:42:07.993Z</time></trkpt><trkpt lat="44.27686" lon="11.87929"><ele>31.25</ele><time>2026-04-18T10:42:08.993Z</time></trkpt><trkpt lat="44.2767617" lon="11.879465"><ele>31.5</ele><time>2026-04-18T10:42:09.993Z</time></trkpt><trkpt lat="44.2766717" lon="11.87963"><ele>31.75</ele><time>2026-04-18T10:42:10.993Z</time></trkpt><trkpt lat="44.2765883" lon="11.8797667"><ele>32.0</ele><time>2026-04-18T10:42:11.993Z</time></trkpt><trkpt lat="44.276505" lon="11.8798683"><ele>32.2</ele><time>2026-04-18T10:42:12.993Z</time></trkpt><trkpt lat="44.2764167" lon="11.87994"><ele>32.400000000000006</ele><time>2026-04-18T10:42:13.994Z</time></trkpt><trkpt lat="44.2763233" lon="11.8799633"><ele>32.599999999999994</ele><time>2026-04-18T10:42:14.993Z</time></trkpt><trkpt lat="44.2762217" lon="11.8799533"><ele>32.8</ele><time>2026-04-18T10:42:15.993Z</time></trkpt><trkpt lat="44.2761267" lon="11.8799483"><ele>33.0</ele><time>2026-04-18T10:42:16.993Z</time></trkpt><trkpt lat="44.2760333" lon="11.8799733"><ele>33.0</ele><time>2026-04-18T10:42:17.994Z</time></trkpt><trkpt lat="44.27595" lon="11.8800033"><ele>33.0</ele><time>2026-04-18T10:42:18.993Z</time></trkpt><trkpt lat="44.2758783" lon="11.8800833"><ele>33.0</ele><time>2026-04-18T10:42:19.992Z</time></trkpt><trkpt lat="44.2758183" lon="11.880185"><ele>33.0</ele><time>2026-04-18T10:42:20.993Z</time></trkpt><trkpt lat="44.2757717" lon="11.8803333"><ele>33.0</ele><time>2026-04-18T10:42:21.993Z</time></trkpt><trkpt lat="44.2757217" lon="11.880485"><ele>32.6</ele><time>2026-04-18T10:42:22.993Z</time></trkpt><trkpt lat="44.2756717" lon="11.880645"><ele>32.199999999999996</ele><time>2026-04-18T10:42:23.994Z</time></trkpt><trkpt lat="44.2756217" lon="11.8807983"><ele>31.8</ele><time>2026-04-18T10:42:24.992Z</time></trkpt><trkpt lat="44.275585" lon="11.8809267"><ele>31.4</ele><time>2026-04-18T10:42:25.993Z</time></trkpt><trkpt lat="44.2755583" lon="11.88103"><ele>31.0</ele><time>2026-04-18T10:42:26.993Z</time></trkpt><trkpt lat="44.2755117" lon="11.8811033"><ele>31.0</ele><time>2026-04-18T10:42:27.993Z</time></trkpt><trkpt lat="44.27544" lon="11.8811333"><ele>31.0</ele><time>2026-04-18T10:42:28.994Z</time></trkpt><trkpt lat="44.2753567" lon="11.8811267"><ele>31.0</ele><time>2026-04-18T10:42:29.992Z</time></trkpt><trkpt lat="44.2752667" lon="11.8811133"><ele>31.0</ele><time>2026-04-18T10:42:30.993Z</time></trkpt><trkpt lat="44.2751683" lon="11.8810967"><ele>31.0</ele><time>2026-04-18T10:42:31.992Z</time></trkpt><trkpt lat="44.2750517" lon="11.881095"><ele>31.0</ele><time>2026-04-18T10:42:32.993Z</time></trkpt><trkpt lat="44.2749167" lon="11.8811217"><ele>31.0</ele><time>2026-04-18T10:42:33.993Z</time></trkpt><trkpt lat="44.27476" lon="11.88118"><ele>31.0</ele><time>2026-04-18T10:42:34.994Z</time></trkpt><trkpt lat="44.2746017" lon="11.8812733"><ele>30.666666666666668</ele><time>2026-04-18T10:42:35.992Z</time></trkpt><trkpt lat="44.27444" lon="11.8813917"><ele>30.333333333333336</ele><time>2026-04-18T10:42:36.994Z</time></trkpt><trkpt lat="44.2742817" lon="11.8815233"><ele>30.0</ele><time>2026-04-18T10:42:37.994Z</time></trkpt><trkpt lat="44.2741217" lon="11.8816617"><ele>29.666666666666664</ele><time>2026-04-18T10:42:38.994Z</time></trkpt><trkpt lat="44.2739533" lon="11.8817767"><ele>29.333333333333332</ele><time>2026-04-18T10:42:39.993Z</time></trkpt><trkpt lat="44.27379" lon="11.8818567"><ele>29.0</ele><time>2026-04-18T10:42:40.992Z</time></trkpt><trkpt lat="44.273625" lon="11.881895"><ele>29.0</ele><time>2026-04-18T10:42:41.992Z</time></trkpt><trkpt lat="44.2734617" lon="11.8818967"><ele>29.0</ele><time>2026-04-18T10:42:42.993Z</time></trkpt><trkpt lat="44.2732883" lon="11.8818767"><ele>29.0</ele><time>2026-04-18T10:42:43.994Z</time></trkpt><trkpt lat="44.2731083" lon="11.8818383"><ele>29.333333333333332</ele><time>2026-04-18T10:42:44.993Z</time></trkpt><trkpt lat="44.2729217" lon="11.88179"><ele>29.666666666666664</ele><time>2026-04-18T10:42:45.992Z</time></trkpt><trkpt lat="44.2727333" lon="11.88174"><ele>30.0</ele><time>2026-04-18T10:42:46.993Z</time></trkpt><trkpt lat="44.2725417" lon="11.8816933"><ele>30.0</ele><time>2026-04-18T10:42:47.992Z</time></trkpt><trkpt lat="44.2723483" lon="11.8816333"><ele>30.0</ele><time>2026-04-18T10:42:48.993Z</time></trkpt><trkpt lat="44.2721567" lon="11.8815583"><ele>30.0</ele><time>2026-04-18T10:42:49.993Z</time></trkpt><trkpt lat="44.2719717" lon="11.8814583"><ele>32.0</ele><time>2026-04-18T10:42:50.993Z</time></trkpt><trkpt lat="44.2717883" lon="11.8813383"><ele>34.0</ele><time>2026-04-18T10:42:51.993Z</time></trkpt><trkpt lat="44.2716083" lon="11.88121"><ele>36.0</ele><time>2026-04-18T10:42:52.993Z</time></trkpt><trkpt lat="44.27143" lon="11.8810767"><ele>35.333333333333336</ele><time>2026-04-18T10:42:53.993Z</time></trkpt><trkpt lat="44.2712517" lon="11.8809417"><ele>34.66666666666667</ele><time>2026-04-18T10:42:54.992Z</time></trkpt><trkpt lat="44.271075" lon="11.8808"><ele>34.0</ele><time>2026-04-18T10:42:55.994Z</time></trkpt><trkpt lat="44.2709017" lon="11.880645"><ele>34.0</ele><time>2026-04-18T10:42:56.994Z</time></trkpt><trkpt lat="44.2707267" lon="11.8804917"><ele>34.0</ele><time>2026-04-18T10:42:57.992Z</time></trkpt><trkpt lat="44.2705483" lon="11.88034"><ele>34.0</ele><time>2026-04-18T10:42:58.994Z</time></trkpt><trkpt lat="44.2703667" lon="11.8801933"><ele>33.333333333333336</ele><time>2026-04-18T10:42:59.993Z</time></trkpt><trkpt lat="44.2701833" lon="11.8800483"><ele>32.666666666666664</ele><time>2026-04-18T10:43:00.993Z</time></trkpt><trkpt lat="44.2700033" lon="11.8798967"><ele>32.0</ele><time>2026-04-18T10:43:01.992Z</time></trkpt><trkpt lat="44.2698267" lon="11.879745"><ele>32.666666666666664</ele><time>2026-04-18T10:43:02.993Z</time></trkpt><trkpt lat="44.2696633" lon="11.8796067"><ele>33.333333333333336</ele><time>2026-04-18T10:43:03.993Z</time></trkpt><trkpt lat="44.2695017" lon="11.879475"><ele>34.0</ele><time>2026-04-18T10:43:04.992Z</time></trkpt><trkpt lat="44.2693467" lon="11.8793567"><ele>34.0</ele><time>2026-04-18T10:43:05.994Z</time></trkpt><trkpt lat="44.2691983" lon="11.8792533"><ele>34.0</ele><time>2026-04-18T10:43:06.994Z</time></trkpt><trkpt lat="44.2690533" lon="11.879185"><ele>34.0</ele><time>2026-04-18T10:43:07.993Z</time></trkpt><trkpt lat="44.2688933" lon="11.879165"><ele>34.0</ele><time>2026-04-18T10:43:08.993Z</time></trkpt><trkpt lat="44.2687267" lon="11.8791833"><ele>34.0</ele><time>2026-04-18T10:43:09.995Z</time></trkpt><trkpt lat="44.268555" lon="11.8792233"><ele>34.0</ele><time>2026-04-18T10:43:10.992Z</time></trkpt><trkpt lat="44.268375" lon="11.879285"><ele>35.0</ele><time>2026-04-18T10:43:11.993Z</time></trkpt><trkpt lat="44.2681933" lon="11.87935"><ele>36.0</ele><time>2026-04-18T10:43:12.993Z</time></trkpt><trkpt lat="44.268005" lon="11.879405"><ele>37.0</ele><time>2026-04-18T10:43:13.994Z</time></trkpt><trkpt lat="44.267815" lon="11.8794417"><ele>37.66666666666667</ele><time>2026-04-18T10:43:14.993Z</time></trkpt><trkpt lat="44.2676283" lon="11.8794633"><ele>38.333333333333336</ele><time>2026-04-18T10:43:15.992Z</time></trkpt><trkpt lat="44.26744" lon="11.8794783"><ele>39.0</ele><time>2026-04-18T10:43:16.993Z</time></trkpt><trkpt lat="44.26726" lon="11.879485"><ele>39.0</ele><time>2026-04-18T10:43:17.993Z</time></trkpt><trkpt lat="44.267095" lon="11.879475"><ele>39.0</ele><time>2026-04-18T10:43:18.993Z</time></trkpt><trkpt lat="44.2669483" lon="11.8794683"><ele>39.0</ele><time>2026-04-18T10:43:19.992Z</time></trkpt><trkpt lat="44.266825" lon="11.8794717"><ele>39.0</ele><time>2026-04-18T10:43:20.993Z</time></trkpt><trkpt lat="44.26672" lon="11.87951"><ele>39.0</ele><time>2026-04-18T10:43:21.993Z</time></trkpt><trkpt lat="44.2666217" lon="11.8795833"><ele>39.0</ele><time>2026-04-18T10:43:22.993Z</time></trkpt><trkpt lat="44.26654" lon="11.87968"><ele>39.0</ele><time>2026-04-18T10:43:23.992Z</time></trkpt><trkpt lat="44.266465" lon="11.87982"><ele>39.0</ele><time>2026-04-18T10:43:24.993Z</time></trkpt><trkpt lat="44.266405" lon="11.87999"><ele>38.5</ele><time>2026-04-18T10:43:25.993Z</time></trkpt><trkpt lat="44.2663517" lon="11.8801733"><ele>38.0</ele><time>2026-04-18T10:43:26.994Z</time></trkpt><trkpt lat="44.26631" lon="11.8803717"><ele>37.5</ele><time>2026-04-18T10:43:27.993Z</time></trkpt><trkpt lat="44.2662667" lon="11.8805833"><ele>37.0</ele><time>2026-04-18T10:43:28.992Z</time></trkpt><trkpt lat="44.2662133" lon="11.8808"><ele>37.333333333333336</ele><time>2026-04-18T10:43:29.994Z</time></trkpt><trkpt lat="44.2661617" lon="11.8810233"><ele>37.666666666666664</ele><time>2026-04-18T10:43:30.994Z</time></trkpt><trkpt lat="44.266115" lon="11.8812517"><ele>38.0</ele><time>2026-04-18T10:43:31.993Z</time></trkpt><trkpt lat="44.2660717" lon="11.8814817"><ele>38.0</ele><time>2026-04-18T10:43:32.993Z</time></trkpt><trkpt lat="44.266015" lon="11.8817133"><ele>38.0</ele><time>2026-04-18T10:43:33.993Z</time></trkpt><trkpt lat="44.26596" lon="11.8819483"><ele>38.0</ele><time>2026-04-18T10:43:34.993Z</time></trkpt><trkpt lat="44.26591" lon="11.8821867"><ele>38.0</ele><time>2026-04-18T10:43:35.993Z</time></trkpt><trkpt lat="44.265865" lon="11.88243"><ele>38.0</ele><time>2026-04-18T10:43:36.993Z</time></trkpt><trkpt lat="44.2658167" lon="11.8826733"><ele>38.0</ele><time>2026-04-18T10:43:37.993Z</time></trkpt><trkpt lat="44.2657667" lon="11.8829167"><ele>38.666666666666664</ele><time>2026-04-18T10:43:38.993Z</time></trkpt><trkpt lat="44.26572" lon="11.8831583"><ele>39.333333333333336</ele><time>2026-04-18T10:43:39.993Z</time></trkpt><trkpt lat="44.265675" lon="11.883385"><ele>40.0</ele><time>2026-04-18T10:43:40.993Z</time></trkpt><trkpt lat="44.26563" lon="11.883595"><ele>40.5</ele><time>2026-04-18T10:43:41.993Z</time></trkpt><trkpt lat="44.2655883" lon="11.883785"><ele>41.0</ele><time>2026-04-18T10:43:42.993Z</time></trkpt><trkpt lat="44.26555" lon="11.883945"><ele>41.5</ele><time>2026-04-18T10:43:43.995Z</time></trkpt><trkpt lat="44.2655267" lon="11.8840833"><ele>42.0</ele><time>2026-04-18T10:43:44.994Z</time></trkpt><trkpt lat="44.2655283" lon="11.8842183"><ele>42.2</ele><time>2026-04-18T10:43:45.992Z</time></trkpt><trkpt lat="44.2655617" lon="11.8843467"><ele>42.400000000000006</ele><time>2026-04-18T10:43:46.994Z</time></trkpt><trkpt lat="44.2656117" lon="11.884475"><ele>42.599999999999994</ele><time>2026-04-18T10:43:47.993Z</time></trkpt><trkpt lat="44.26565" lon="11.8846133"><ele>42.8</ele><time>2026-04-18T10:43:48.992Z</time></trkpt><trkpt lat="44.2656617" lon="11.8847567"><ele>43.0</ele><time>2026-04-18T10:43:49.993Z</time></trkpt><trkpt lat="44.2656433" lon="11.8849083"><ele>43.0</ele><time>2026-04-18T10:43:50.994Z</time></trkpt><trkpt lat="44.2655967" lon="11.8850617"><ele>43.0</ele><time>2026-04-18T10:43:51.993Z</time></trkpt><trkpt lat="44.2655183" lon="11.88521"><ele>43.0</ele><time>2026-04-18T10:43:52.993Z</time></trkpt><trkpt lat="44.2654233" lon="11.885355"><ele>43.0</ele><time>2026-04-18T10:43:53.994Z</time></trkpt><trkpt lat="44.2653233" lon="11.885505"><ele>43.25</ele><time>2026-04-18T10:43:54.996Z</time></trkpt><trkpt lat="44.2652267" lon="11.8856583"><ele>43.5</ele><time>2026-04-18T10:43:55.993Z</time></trkpt><trkpt lat="44.26515" lon="11.88579"><ele>43.75</ele><time>2026-04-18T10:43:56.993Z</time></trkpt><trkpt lat="44.2650967" lon="11.885895"><ele>44.0</ele><time>2026-04-18T10:43:57.993Z</time></trkpt><trkpt lat="44.2650433" lon="11.886005"><ele>44.0</ele><time>2026-04-18T10:43:58.993Z</time></trkpt><trkpt lat="44.2649867" lon="11.8861283"><ele>44.0</ele><time>2026-04-18T10:43:59.992Z</time></trkpt><trkpt lat="44.2649033" lon="11.88625"><ele>44.0</ele><time>2026-04-18T10:44:00.993Z</time></trkpt><trkpt lat="44.2648167" lon="11.8863833"><ele>44.0</ele><time>2026-04-18T10:44:01.993Z</time></trkpt><trkpt lat="44.264725" lon="11.8865317"><ele>44.0</ele><time>2026-04-18T10:44:02.993Z</time></trkpt><trkpt lat="44.2646267" lon="11.8866917"><ele>44.0</ele><time>2026-04-18T10:44:03.995Z</time></trkpt><trkpt lat="44.2645183" lon="11.8868667"><ele>44.0</ele><time>2026-04-18T10:44:04.993Z</time></trkpt><trkpt lat="44.2644133" lon="11.8870467"><ele>44.666666666666664</ele><time>2026-04-18T10:44:05.993Z</time></trkpt><trkpt lat="44.2643033" lon="11.8872233"><ele>45.333333333333336</ele><time>2026-04-18T10:44:06.994Z</time></trkpt><trkpt lat="44.2641867" lon="11.8874"><ele>46.0</ele><time>2026-04-18T10:44:07.993Z</time></trkpt><trkpt lat="44.26406" lon="11.887565"><ele>45.66666666666667</ele><time>2026-04-18T10:44:08.993Z</time></trkpt><trkpt lat="44.2639183" lon="11.8877117"><ele>45.333333333333336</ele><time>2026-04-18T10:44:09.994Z</time></trkpt><trkpt lat="44.2637683" lon="11.8878367"><ele>45.0</ele><time>2026-04-18T10:44:10.994Z</time></trkpt><trkpt lat="44.2636133" lon="11.8879517"><ele>45.0</ele><time>2026-04-18T10:44:11.993Z</time></trkpt><trkpt lat="44.2634483" lon="11.8880633"><ele>45.0</ele><time>2026-04-18T10:44:12.993Z</time></trkpt><trkpt lat="44.2632867" lon="11.88818"><ele>45.0</ele><time>2026-04-18T10:44:13.993Z</time></trkpt><trkpt lat="44.26312" lon="11.8882983"><ele>45.0</ele><time>2026-04-18T10:44:14.994Z</time></trkpt><trkpt lat="44.2629533" lon="11.8884167"><ele>45.0</ele><time>2026-04-18T10:44:15.994Z</time></trkpt><trkpt lat="44.262785" lon="11.8885317"><ele>45.0</ele><time>2026-04-18T10:44:16.994Z</time></trkpt><trkpt lat="44.262615" lon="11.8886483"><ele>45.0</ele><time>2026-04-18T10:44:17.993Z</time></trkpt><trkpt lat="44.262445" lon="11.8887633"><ele>45.0</ele><time>2026-04-18T10:44:18.994Z</time></trkpt><trkpt lat="44.2622783" lon="11.8888817"><ele>45.0</ele><time>2026-04-18T10:44:19.993Z</time></trkpt><trkpt lat="44.2621067" lon="11.888995"><ele>45.0</ele><time>2026-04-18T10:44:20.993Z</time></trkpt><trkpt lat="44.261935" lon="11.8891117"><ele>45.0</ele><time>2026-04-18T10:44:21.994Z</time></trkpt><trkpt lat="44.2617617" lon="11.8892267"><ele>45.0</ele><time>2026-04-18T10:44:22.993Z</time></trkpt><trkpt lat="44.261595" lon="11.889345"><ele>45.0</ele><time>2026-04-18T10:44:23.993Z</time></trkpt><trkpt lat="44.261425" lon="11.88947"><ele>45.0</ele><time>2026-04-18T10:44:24.994Z</time></trkpt><trkpt lat="44.2612617" lon="11.8896017"><ele>45.0</ele><time>2026-04-18T10:44:25.993Z</time></trkpt><trkpt lat="44.26111" lon="11.88975"><ele>45.0</ele><time>2026-04-18T10:44:26.994Z</time></trkpt><trkpt lat="44.2609717" lon="11.889915"><ele>45.0</ele><time>2026-04-18T10:44:27.993Z</time></trkpt><trkpt lat="44.26084" lon="11.8900917"><ele>45.0</ele><time>2026-04-18T10:44:28.994Z</time></trkpt><trkpt lat="44.26071" lon="11.8902783"><ele>45.0</ele><time>2026-04-18T10:44:29.992Z</time></trkpt><trkpt lat="44.26058" lon="11.8904667"><ele>45.0</ele><time>2026-04-18T10:44:30.994Z</time></trkpt><trkpt lat="44.2604467" lon="11.8906533"><ele>45.0</ele><time>2026-04-18T10:44:31.993Z</time></trkpt><trkpt lat="44.2603" lon="11.8908283"><ele>46.0</ele><time>2026-04-18T10:44:32.993Z</time></trkpt><trkpt lat="44.260145" lon="11.890985"><ele>47.0</ele><time>2026-04-18T10:44:33.994Z</time></trkpt><trkpt lat="44.2599767" lon="11.8911283"><ele>48.0</ele><time>2026-04-18T10:44:34.993Z</time></trkpt><trkpt lat="44.25981" lon="11.8912683"><ele>47.333333333333336</ele><time>2026-04-18T10:44:35.993Z</time></trkpt><trkpt lat="44.2596467" lon="11.8914117"><ele>46.66666666666667</ele><time>2026-04-18T10:44:36.993Z</time></trkpt><trkpt lat="44.2594917" lon="11.8915517"><ele>46.0</ele><time>2026-04-18T10:44:37.993Z</time></trkpt><trkpt lat="44.259345" lon="11.8916817"><ele>46.333333333333336</ele><time>2026-04-18T10:44:38.993Z</time></trkpt><trkpt lat="44.2592083" lon="11.89182"><ele>46.666666666666664</ele><time>2026-04-18T10:44:39.993Z</time></trkpt><trkpt lat="44.2590783" lon="11.89197"><ele>47.0</ele><time>2026-04-18T10:44:40.992Z</time></trkpt><trkpt lat="44.25895" lon="11.89213"><ele>47.0</ele><time>2026-04-18T10:44:41.994Z</time></trkpt><trkpt lat="44.258835" lon="11.892295"><ele>47.0</ele><time>2026-04-18T10:44:42.993Z</time></trkpt><trkpt lat="44.2587217" lon="11.8924583"><ele>47.0</ele><time>2026-04-18T10:44:43.993Z</time></trkpt><trkpt lat="44.25861" lon="11.8926167"><ele>47.25</ele><time>2026-04-18T10:44:44.994Z</time></trkpt><trkpt lat="44.258505" lon="11.8927617"><ele>47.5</ele><time>2026-04-18T10:44:45.994Z</time></trkpt><trkpt lat="44.2584067" lon="11.8928983"><ele>47.75</ele><time>2026-04-18T10:44:46.994Z</time></trkpt><trkpt lat="44.2583133" lon="11.8930283"><ele>48.0</ele><time>2026-04-18T10:44:47.994Z</time></trkpt><trkpt lat="44.2582233" lon="11.8931533"><ele>48.0</ele><time>2026-04-18T10:44:48.993Z</time></trkpt><trkpt lat="44.2581367" lon="11.8932667"><ele>48.0</ele><time>2026-04-18T10:44:49.993Z</time></trkpt><trkpt lat="44.2580483" lon="11.893385"><ele>48.0</ele><time>2026-04-18T10:44:50.994Z</time></trkpt><trkpt lat="44.257965" lon="11.8935317"><ele>48.0</ele><time>2026-04-18T10:44:51.994Z</time></trkpt><trkpt lat="44.2578967" lon="11.8937"><ele>48.5</ele><time>2026-04-18T10:44:52.993Z</time></trkpt><trkpt lat="44.2578483" lon="11.8938833"><ele>49.0</ele><time>2026-04-18T10:44:53.993Z</time></trkpt><trkpt lat="44.2578183" lon="11.8940717"><ele>49.5</ele><time>2026-04-18T10:44:54.992Z</time></trkpt><trkpt lat="44.2578067" lon="11.8942583"><ele>50.0</ele><time>2026-04-18T10:44:55.993Z</time></trkpt><trkpt lat="44.257805" lon="11.894445"><ele>50.0</ele><time>2026-04-18T10:44:56.994Z</time></trkpt><trkpt lat="44.2577983" lon="11.89464"><ele>50.0</ele><time>2026-04-18T10:44:57.994Z</time></trkpt><trkpt lat="44.2577833" lon="11.894835"><ele>50.0</ele><time>2026-04-18T10:44:58.993Z</time></trkpt><trkpt lat="44.2577667" lon="11.8950217"><ele>50.0</ele><time>2026-04-18T10:44:59.992Z</time></trkpt><trkpt lat="44.2577467" lon="11.8951983"><ele>50.0</ele><time>2026-04-18T10:45:00.993Z</time></trkpt><trkpt lat="44.25773" lon="11.8953633"><ele>50.0</ele><time>2026-04-18T10:45:01.994Z</time></trkpt><trkpt lat="44.2577133" lon="11.8955217"><ele>50.0</ele><time>2026-04-18T10:45:02.993Z</time></trkpt><trkpt lat="44.2576967" lon="11.8956717"><ele>50.0</ele><time>2026-04-18T10:45:03.995Z</time></trkpt><trkpt lat="44.2576733" lon="11.8958167"><ele>50.0</ele><time>2026-04-18T10:45:04.993Z</time></trkpt><trkpt lat="44.2576467" lon="11.895965"><ele>50.0</ele><time>2026-04-18T10:45:05.993Z</time></trkpt><trkpt lat="44.2576167" lon="11.8961183"><ele>50.0</ele><time>2026-04-18T10:45:06.993Z</time></trkpt><trkpt lat="44.2575917" lon="11.8962733"><ele>50.0</ele><time>2026-04-18T10:45:07.995Z</time></trkpt><trkpt lat="44.2575783" lon="11.8964217"><ele>50.0</ele><time>2026-04-18T10:45:08.993Z</time></trkpt><trkpt lat="44.2575783" lon="11.8965583"><ele>50.0</ele><time>2026-04-18T10:45:09.995Z</time></trkpt><trkpt lat="44.25758" lon="11.8966883"><ele>50.00000000000001</ele><time>2026-04-18T10:45:10.994Z</time></trkpt><trkpt lat="44.2575833" lon="11.8968017"><ele>50.0</ele><time>2026-04-18T10:45:11.994Z</time></trkpt><trkpt lat="44.2575917" lon="11.8968967"><ele>50.0</ele><time>2026-04-18T10:45:12.995Z</time></trkpt><trkpt lat="44.2576017" lon="11.897005"><ele>50.0</ele><time>2026-04-18T10:45:14.994Z</time></trkpt><trkpt lat="44.2575983" lon="11.89713"><ele>50.00000000000001</ele><time>2026-04-18T10:45:18.993Z</time></trkpt><trkpt lat="44.257535" lon="11.897215"><ele>50.0</ele><time>2026-04-18T10:45:21.993Z</time></trkpt><trkpt lat="44.2574383" lon="11.897275"><ele>50.0</ele><time>2026-04-18T10:45:23.993Z</time></trkpt><trkpt lat="44.2572883" lon="11.8973417"><ele>50.0</ele><time>2026-04-18T10:45:25.993Z</time></trkpt><trkpt lat="44.2571683" lon="11.897385"><ele>50.0</ele><time>2026-04-18T10:45:26.994Z</time></trkpt><trkpt lat="44.257025" lon="11.8974267"><ele>50.0</ele><time>2026-04-18T10:45:27.994Z</time></trkpt><trkpt lat="44.25687" lon="11.89746"><ele>49.66666666666667</ele><time>2026-04-18T10:45:28.993Z</time></trkpt><trkpt lat="44.2567067" lon="11.8974883"><ele>49.33333333333333</ele><time>2026-04-18T10:45:29.992Z</time></trkpt><trkpt lat="44.2565467" lon="11.8975217"><ele>49.0</ele><time>2026-04-18T10:45:30.993Z</time></trkpt><trkpt lat="44.2563783" lon="11.8975617"><ele>48.33333333333333</ele><time>2026-04-18T10:45:31.993Z</time></trkpt><trkpt lat="44.2562067" lon="11.897605"><ele>47.666666666666664</ele><time>2026-04-18T10:45:32.993Z</time></trkpt><trkpt lat="44.2560283" lon="11.897655"><ele>47.0</ele><time>2026-04-18T10:45:33.993Z</time></trkpt><trkpt lat="44.2558517" lon="11.897705"><ele>47.0</ele><time>2026-04-18T10:45:34.993Z</time></trkpt><trkpt lat="44.25567" lon="11.897755"><ele>47.0</ele><time>2026-04-18T10:45:35.993Z</time></trkpt><trkpt lat="44.2554817" lon="11.897805"><ele>47.0</ele><time>2026-04-18T10:45:36.993Z</time></trkpt><trkpt lat="44.2552867" lon="11.8978583"><ele>46.33333333333333</ele><time>2026-04-18T10:45:37.993Z</time></trkpt><trkpt lat="44.2550917" lon="11.8979083"><ele>45.666666666666664</ele><time>2026-04-18T10:45:38.994Z</time></trkpt><trkpt lat="44.2548933" lon="11.8979567"><ele>45.0</ele><time>2026-04-18T10:45:39.992Z</time></trkpt><trkpt lat="44.25469" lon="11.8980067"><ele>45.0</ele><time>2026-04-18T10:45:40.992Z</time></trkpt><trkpt lat="44.2544833" lon="11.89806"><ele>45.0</ele><time>2026-04-18T10:45:41.994Z</time></trkpt><trkpt lat="44.2542783" lon="11.8981167"><ele>45.0</ele><time>2026-04-18T10:45:42.993Z</time></trkpt><trkpt lat="44.25407" lon="11.8981683"><ele>45.666666666666664</ele><time>2026-04-18T10:45:43.992Z</time></trkpt><trkpt lat="44.2538617" lon="11.89822"><ele>46.33333333333333</ele><time>2026-04-18T10:45:44.994Z</time></trkpt><trkpt lat="44.25365" lon="11.8982717"><ele>47.0</ele><time>2026-04-18T10:45:45.994Z</time></trkpt><trkpt lat="44.25344" lon="11.8983217"><ele>47.0</ele><time>2026-04-18T10:45:46.993Z</time></trkpt><trkpt lat="44.2532283" lon="11.8983733"><ele>47.0</ele><time>2026-04-18T10:45:47.993Z</time></trkpt><trkpt lat="44.2530167" lon="11.89843"><ele>47.0</ele><time>2026-04-18T10:45:48.993Z</time></trkpt><trkpt lat="44.2528033" lon="11.8984883"><ele>48.0</ele><time>2026-04-18T10:45:49.994Z</time></trkpt><trkpt lat="44.25259" lon="11.8985467"><ele>49.0</ele><time>2026-04-18T10:45:50.993Z</time></trkpt><trkpt lat="44.2523717" lon="11.8986033"><ele>50.0</ele><time>2026-04-18T10:45:51.994Z</time></trkpt><trkpt lat="44.25215" lon="11.89866"><ele>50.333333333333336</ele><time>2026-04-18T10:45:52.994Z</time></trkpt><trkpt lat="44.25193" lon="11.8987167"><ele>50.66666666666667</ele><time>2026-04-18T10:45:53.993Z</time></trkpt><trkpt lat="44.25171" lon="11.8987717"><ele>51.0</ele><time>2026-04-18T10:45:54.993Z</time></trkpt><trkpt lat="44.2514867" lon="11.8988267"><ele>51.66666666666667</ele><time>2026-04-18T10:45:55.992Z</time></trkpt><trkpt lat="44.251265" lon="11.89888"><ele>52.333333333333336</ele><time>2026-04-18T10:45:56.993Z</time></trkpt><trkpt lat="44.2510483" lon="11.89893"><ele>53.0</ele><time>2026-04-18T10:45:57.993Z</time></trkpt><trkpt lat="44.2508317" lon="11.8989767"><ele>52.333333333333336</ele><time>2026-04-18T10:45:58.992Z</time></trkpt><trkpt lat="44.2506167" lon="11.8990333"><ele>51.66666666666667</ele><time>2026-04-18T10:45:59.994Z</time></trkpt><trkpt lat="44.2504033" lon="11.8990883"><ele>51.0</ele><time>2026-04-18T10:46:00.992Z</time></trkpt><trkpt lat="44.25019" lon="11.8991417"><ele>51.0</ele><time>2026-04-18T10:46:01.992Z</time></trkpt><trkpt lat="44.2499767" lon="11.8991883"><ele>51.0</ele><time>2026-04-18T10:46:02.994Z</time></trkpt><trkpt lat="44.2497667" lon="11.8992267"><ele>51.0</ele><time>2026-04-18T10:46:03.993Z</time></trkpt><trkpt lat="44.2495717" lon="11.8992667"><ele>51.33333333333333</ele><time>2026-04-18T10:46:04.993Z</time></trkpt><trkpt lat="44.2493867" lon="11.8993083"><ele>51.666666666666664</ele><time>2026-04-18T10:46:05.992Z</time></trkpt><trkpt lat="44.2492117" lon="11.8993483"><ele>52.0</ele><time>2026-04-18T10:46:06.994Z</time></trkpt><trkpt lat="44.2490383" lon="11.89939"><ele>52.33333333333333</ele><time>2026-04-18T10:46:07.993Z</time></trkpt><trkpt lat="44.2488633" lon="11.8994317"><ele>52.66666666666667</ele><time>2026-04-18T10:46:08.994Z</time></trkpt><trkpt lat="44.2486883" lon="11.89947"><ele>53.0</ele><time>2026-04-18T10:46:09.994Z</time></trkpt><trkpt lat="44.248515" lon="11.8995067"><ele>53.0</ele><time>2026-04-18T10:46:10.994Z</time></trkpt><trkpt lat="44.24834" lon="11.899545"><ele>53.0</ele><time>2026-04-18T10:46:11.995Z</time></trkpt><trkpt lat="44.2481683" lon="11.8995817"><ele>53.0</ele><time>2026-04-18T10:46:12.994Z</time></trkpt><trkpt lat="44.248" lon="11.89962"><ele>53.333333333333336</ele><time>2026-04-18T10:46:13.995Z</time></trkpt><trkpt lat="44.2478267" lon="11.8996567"><ele>53.66666666666667</ele><time>2026-04-18T10:46:14.994Z</time></trkpt><trkpt lat="44.247655" lon="11.899695"><ele>54.0</ele><time>2026-04-18T10:46:15.993Z</time></trkpt><trkpt lat="44.2474817" lon="11.8997333"><ele>54.0</ele><time>2026-04-18T10:46:16.993Z</time></trkpt><trkpt lat="44.2473117" lon="11.8997717"><ele>54.0</ele><time>2026-04-18T10:46:17.996Z</time></trkpt><trkpt lat="44.2471517" lon="11.8998083"><ele>54.0</ele><time>2026-04-18T10:46:18.992Z</time></trkpt><trkpt lat="44.246995" lon="11.899845"><ele>54.66666666666667</ele><time>2026-04-18T10:46:19.993Z</time></trkpt><trkpt lat="44.2468433" lon="11.8998817"><ele>55.333333333333336</ele><time>2026-04-18T10:46:20.993Z</time></trkpt><trkpt lat="44.2466917" lon="11.8999133"><ele>56.0</ele><time>2026-04-18T10:46:21.993Z</time></trkpt><trkpt lat="44.246535" lon="11.899925"><ele>55.66666666666667</ele><time>2026-04-18T10:46:22.993Z</time></trkpt><trkpt lat="44.246375" lon="11.8999183"><ele>55.33333333333333</ele><time>2026-04-18T10:46:23.993Z</time></trkpt><trkpt lat="44.246215" lon="11.8999017"><ele>55.0</ele><time>2026-04-18T10:46:24.992Z</time></trkpt><trkpt lat="44.24606" lon="11.89989"><ele>55.0</ele><time>2026-04-18T10:46:25.993Z</time></trkpt><trkpt lat="44.2459117" lon="11.89988"><ele>55.0</ele><time>2026-04-18T10:46:26.993Z</time></trkpt><trkpt lat="44.2457633" lon="11.8998733"><ele>55.0</ele><time>2026-04-18T10:46:27.993Z</time></trkpt><trkpt lat="44.245615" lon="11.899865"><ele>55.0</ele><time>2026-04-18T10:46:28.996Z</time></trkpt><trkpt lat="44.245465" lon="11.8998583"><ele>55.25</ele><time>2026-04-18T10:46:29.992Z</time></trkpt><trkpt lat="44.2453183" lon="11.8998483"><ele>55.5</ele><time>2026-04-18T10:46:30.994Z</time></trkpt><trkpt lat="44.2451817" lon="11.89984"><ele>55.75</ele><time>2026-04-18T10:46:31.992Z</time></trkpt><trkpt lat="44.2450483" lon="11.8998317"><ele>56.0</ele><time>2026-04-18T10:46:32.993Z</time></trkpt><trkpt lat="44.2449167" lon="11.8998233"><ele>56.25</ele><time>2026-04-18T10:46:33.993Z</time></trkpt><trkpt lat="44.24478" lon="11.899815"><ele>56.5</ele><time>2026-04-18T10:46:34.994Z</time></trkpt><trkpt lat="44.2446417" lon="11.8998067"><ele>56.75</ele><time>2026-04-18T10:46:35.993Z</time></trkpt><trkpt lat="44.2445033" lon="11.8998"><ele>57.0</ele><time>2026-04-18T10:46:36.992Z</time></trkpt><trkpt lat="44.24436" lon="11.8997917"><ele>57.0</ele><time>2026-04-18T10:46:37.992Z</time></trkpt><trkpt lat="44.2442167" lon="11.8997817"><ele>57.0</ele><time>2026-04-18T10:46:38.994Z</time></trkpt><trkpt lat="44.2440767" lon="11.8997683"><ele>57.0</ele><time>2026-04-18T10:46:39.993Z</time></trkpt><trkpt lat="44.243945" lon="11.8997617"><ele>57.0</ele><time>2026-04-18T10:46:40.993Z</time></trkpt><trkpt lat="44.2438183" lon="11.899765"><ele>57.5</ele><time>2026-04-18T10:46:41.993Z</time></trkpt><trkpt lat="44.2436983" lon="11.8997833"><ele>58.0</ele><time>2026-04-18T10:46:42.994Z</time></trkpt><trkpt lat="44.2435867" lon="11.8998217"><ele>58.5</ele><time>2026-04-18T10:46:43.993Z</time></trkpt><trkpt lat="44.243475" lon="11.89987"><ele>59.0</ele><time>2026-04-18T10:46:44.995Z</time></trkpt><trkpt lat="44.2433583" lon="11.8999067"><ele>59.0</ele><time>2026-04-18T10:46:45.993Z</time></trkpt><trkpt lat="44.243235" lon="11.8999117"><ele>59.0</ele><time>2026-04-18T10:46:46.993Z</time></trkpt><trkpt lat="44.2431117" lon="11.8999"><ele>59.0</ele><time>2026-04-18T10:46:47.993Z</time></trkpt><trkpt lat="44.2429883" lon="11.8998783"><ele>59.0</ele><time>2026-04-18T10:46:48.994Z</time></trkpt><trkpt lat="44.242865" lon="11.8998467"><ele>59.25</ele><time>2026-04-18T10:46:49.994Z</time></trkpt><trkpt lat="44.24274" lon="11.8998133"><ele>59.5</ele><time>2026-04-18T10:46:50.995Z</time></trkpt><trkpt lat="44.242615" lon="11.8997767"><ele>59.75</ele><time>2026-04-18T10:46:51.994Z</time></trkpt><trkpt lat="44.24249" lon="11.8997417"><ele>60.0</ele><time>2026-04-18T10:46:52.993Z</time></trkpt><trkpt lat="44.242365" lon="11.8997033"><ele>60.5</ele><time>2026-04-18T10:46:53.994Z</time></trkpt><trkpt lat="44.2422467" lon="11.8996517"><ele>61.0</ele><time>2026-04-18T10:46:54.994Z</time></trkpt><trkpt lat="44.24213" lon="11.89959"><ele>61.5</ele><time>2026-04-18T10:46:55.993Z</time></trkpt><trkpt lat="44.2420267" lon="11.8995167"><ele>62.0</ele><time>2026-04-18T10:46:56.994Z</time></trkpt><trkpt lat="44.2419233" lon="11.899435"><ele>62.0</ele><time>2026-04-18T10:46:57.994Z</time></trkpt><trkpt lat="44.2418217" lon="11.899345"><ele>62.0</ele><time>2026-04-18T10:46:58.994Z</time></trkpt><trkpt lat="44.2417117" lon="11.899255"><ele>62.0</ele><time>2026-04-18T10:46:59.993Z</time></trkpt><trkpt lat="44.241595" lon="11.8991683"><ele>62.0</ele><time>2026-04-18T10:47:00.993Z</time></trkpt><trkpt lat="44.2414717" lon="11.89909"><ele>61.5</ele><time>2026-04-18T10:47:01.994Z</time></trkpt><trkpt lat="44.2413367" lon="11.8990217"><ele>61.0</ele><time>2026-04-18T10:47:02.993Z</time></trkpt><trkpt lat="44.2412033" lon="11.898955"><ele>60.5</ele><time>2026-04-18T10:47:03.994Z</time></trkpt><trkpt lat="44.2410617" lon="11.8988967"><ele>60.0</ele><time>2026-04-18T10:47:04.994Z</time></trkpt><trkpt lat="44.2409183" lon="11.8988383"><ele>60.0</ele><time>2026-04-18T10:47:05.993Z</time></trkpt><trkpt lat="44.2407717" lon="11.898775"><ele>60.0</ele><time>2026-04-18T10:47:06.994Z</time></trkpt><trkpt lat="44.2406217" lon="11.8987133"><ele>60.0</ele><time>2026-04-18T10:47:07.993Z</time></trkpt><trkpt lat="44.2404717" lon="11.8986483"><ele>60.75</ele><time>2026-04-18T10:47:08.994Z</time></trkpt><trkpt lat="44.240325" lon="11.8985883"><ele>61.5</ele><time>2026-04-18T10:47:09.993Z</time></trkpt><trkpt lat="44.2401833" lon="11.89853"><ele>62.25</ele><time>2026-04-18T10:47:10.993Z</time></trkpt><trkpt lat="44.2400483" lon="11.89848"><ele>63.0</ele><time>2026-04-18T10:47:11.993Z</time></trkpt><trkpt lat="44.239915" lon="11.8984283"><ele>62.75</ele><time>2026-04-18T10:47:12.993Z</time></trkpt><trkpt lat="44.23978" lon="11.8983733"><ele>62.5</ele><time>2026-04-18T10:47:13.994Z</time></trkpt><trkpt lat="44.2396433" lon="11.8983133"><ele>62.25</ele><time>2026-04-18T10:47:14.994Z</time></trkpt><trkpt lat="44.2395067" lon="11.89825"><ele>62.0</ele><time>2026-04-18T10:47:15.994Z</time></trkpt><trkpt lat="44.239375" lon="11.8981783"><ele>62.0</ele><time>2026-04-18T10:47:16.992Z</time></trkpt><trkpt lat="44.2392483" lon="11.898105"><ele>62.0</ele><time>2026-04-18T10:47:17.993Z</time></trkpt><trkpt lat="44.2391267" lon="11.8980333"><ele>62.0</ele><time>2026-04-18T10:47:18.993Z</time></trkpt><trkpt lat="44.2390133" lon="11.8979667"><ele>62.0</ele><time>2026-04-18T10:47:19.993Z</time></trkpt><trkpt lat="44.238905" lon="11.8979"><ele>62.8</ele><time>2026-04-18T10:47:20.994Z</time></trkpt><trkpt lat="44.238805" lon="11.897835"><ele>63.6</ele><time>2026-04-18T10:47:21.994Z</time></trkpt><trkpt lat="44.2387183" lon="11.8977767"><ele>64.39999999999999</ele><time>2026-04-18T10:47:22.994Z</time></trkpt><trkpt lat="44.2386317" lon="11.8977233"><ele>65.2</ele><time>2026-04-18T10:47:23.993Z</time></trkpt><trkpt lat="44.2385383" lon="11.8976617"><ele>66.0</ele><time>2026-04-18T10:47:24.994Z</time></trkpt><trkpt lat="44.2384333" lon="11.8975933"><ele>66.0</ele><time>2026-04-18T10:47:25.994Z</time></trkpt><trkpt lat="44.2383233" lon="11.8975133"><ele>66.0</ele><time>2026-04-18T10:47:26.993Z</time></trkpt><trkpt lat="44.238205" lon="11.8974333"><ele>66.0</ele><time>2026-04-18T10:47:27.995Z</time></trkpt><trkpt lat="44.2380783" lon="11.89735"><ele>66.0</ele><time>2026-04-18T10:47:28.993Z</time></trkpt><trkpt lat="44.2379467" lon="11.897265"><ele>66.0</ele><time>2026-04-18T10:47:29.994Z</time></trkpt><trkpt lat="44.2378117" lon="11.8971767"><ele>66.0</ele><time>2026-04-18T10:47:30.993Z</time></trkpt><trkpt lat="44.2376767" lon="11.8970883"><ele>66.0</ele><time>2026-04-18T10:47:31.993Z</time></trkpt><trkpt lat="44.2375433" lon="11.897005"><ele>66.0</ele><time>2026-04-18T10:47:32.994Z</time></trkpt><trkpt lat="44.2374117" lon="11.8969333"><ele>66.25</ele><time>2026-04-18T10:47:33.992Z</time></trkpt><trkpt lat="44.2372767" lon="11.89687"><ele>66.5</ele><time>2026-04-18T10:47:34.993Z</time></trkpt><trkpt lat="44.2371383" lon="11.8968267"><ele>66.75</ele><time>2026-04-18T10:47:35.992Z</time></trkpt><trkpt lat="44.2370033" lon="11.8968"><ele>67.0</ele><time>2026-04-18T10:47:36.996Z</time></trkpt><trkpt lat="44.23687" lon="11.8967833"><ele>67.0</ele><time>2026-04-18T10:47:37.992Z</time></trkpt><trkpt lat="44.2367367" lon="11.8967633"><ele>67.0</ele><time>2026-04-18T10:47:38.993Z</time></trkpt><trkpt lat="44.2366" lon="11.896745"><ele>67.0</ele><time>2026-04-18T10:47:39.993Z</time></trkpt><trkpt lat="44.2364633" lon="11.896725"><ele>67.0</ele><time>2026-04-18T10:47:40.994Z</time></trkpt><trkpt lat="44.2363317" lon="11.8967083"><ele>65.4</ele><time>2026-04-18T10:47:41.992Z</time></trkpt><trkpt lat="44.236215" lon="11.8966883"><ele>63.800000000000004</ele><time>2026-04-18T10:47:42.993Z</time></trkpt><trkpt lat="44.2361167" lon="11.8966667"><ele>62.2</ele><time>2026-04-18T10:47:43.994Z</time></trkpt><trkpt lat="44.2360317" lon="11.8966467"><ele>60.6</ele><time>2026-04-18T10:47:44.995Z</time></trkpt><trkpt lat="44.2359533" lon="11.896615"><ele>59.0</ele><time>2026-04-18T10:47:45.994Z</time></trkpt><trkpt lat="44.2358717" lon="11.89658"><ele>59.0</ele><time>2026-04-18T10:47:46.992Z</time></trkpt><trkpt lat="44.23578" lon="11.8965333"><ele>59.0</ele><time>2026-04-18T10:47:47.992Z</time></trkpt><trkpt lat="44.2356783" lon="11.896475"><ele>59.0</ele><time>2026-04-18T10:47:48.994Z</time></trkpt><trkpt lat="44.23556" lon="11.8964017"><ele>59.0</ele><time>2026-04-18T10:47:49.994Z</time></trkpt><trkpt lat="44.235435" lon="11.896315"><ele>58.333333333333336</ele><time>2026-04-18T10:47:50.993Z</time></trkpt><trkpt lat="44.2353" lon="11.8962167"><ele>57.66666666666667</ele><time>2026-04-18T10:47:51.993Z</time></trkpt><trkpt lat="44.23516" lon="11.8961133"><ele>57.0</ele><time>2026-04-18T10:47:52.992Z</time></trkpt><trkpt lat="44.23501" lon="11.8960117"><ele>55.33333333333333</ele><time>2026-04-18T10:47:53.993Z</time></trkpt><trkpt lat="44.2348567" lon="11.8959033"><ele>53.666666666666664</ele><time>2026-04-18T10:47:54.993Z</time></trkpt><trkpt lat="44.2347067" lon="11.8957983"><ele>52.0</ele><time>2026-04-18T10:47:55.993Z</time></trkpt><trkpt lat="44.2345567" lon="11.895705"><ele>52.0</ele><time>2026-04-18T10:47:56.994Z</time></trkpt><trkpt lat="44.2344067" lon="11.89564"><ele>52.0</ele><time>2026-04-18T10:47:57.992Z</time></trkpt><trkpt lat="44.2342567" lon="11.89559"><ele>52.0</ele><time>2026-04-18T10:47:58.993Z</time></trkpt><trkpt lat="44.2341217" lon="11.89552"><ele>52.0</ele><time>2026-04-18T10:47:59.992Z</time></trkpt><trkpt lat="44.2340017" lon="11.8954067"><ele>52.0</ele><time>2026-04-18T10:48:00.993Z</time></trkpt><trkpt lat="44.2338933" lon="11.8952633"><ele>52.0</ele><time>2026-04-18T10:48:01.992Z</time></trkpt><trkpt lat="44.2337967" lon="11.8951217"><ele>52.0</ele><time>2026-04-18T10:48:02.993Z</time></trkpt><trkpt lat="44.2337" lon="11.8950033"><ele>52.8</ele><time>2026-04-18T10:48:03.994Z</time></trkpt><trkpt lat="44.233615" lon="11.8949083"><ele>53.6</ele><time>2026-04-18T10:48:04.993Z</time></trkpt><trkpt lat="44.233535" lon="11.8948517"><ele>54.39999999999999</ele><time>2026-04-18T10:48:05.993Z</time></trkpt><trkpt lat="44.2334483" lon="11.8948567"><ele>55.199999999999996</ele><time>2026-04-18T10:48:06.992Z</time></trkpt><trkpt lat="44.233365" lon="11.89491"><ele>56.0</ele><time>2026-04-18T10:48:07.992Z</time></trkpt><trkpt lat="44.2332767" lon="11.8950033"><ele>55.5</ele><time>2026-04-18T10:48:08.994Z</time></trkpt><trkpt lat="44.2331683" lon="11.8951033"><ele>55.0</ele><time>2026-04-18T10:48:09.993Z</time></trkpt><trkpt lat="44.2330433" lon="11.8951833"><ele>54.5</ele><time>2026-04-18T10:48:10.993Z</time></trkpt><trkpt lat="44.2329117" lon="11.8952067"><ele>54.0</ele><time>2026-04-18T10:48:11.993Z</time></trkpt><trkpt lat="44.2327767" lon="11.89519"><ele>56.33333333333333</ele><time>2026-04-18T10:48:12.994Z</time></trkpt><trkpt lat="44.2326267" lon="11.895145"><ele>58.666666666666664</ele><time>2026-04-18T10:48:13.993Z</time></trkpt><trkpt lat="44.2324617" lon="11.8950967"><ele>61.0</ele><time>2026-04-18T10:48:14.994Z</time></trkpt><trkpt lat="44.2322917" lon="11.8950533"><ele>62.0</ele><time>2026-04-18T10:48:15.993Z</time></trkpt><trkpt lat="44.2321167" lon="11.8950183"><ele>63.0</ele><time>2026-04-18T10:48:16.993Z</time></trkpt><trkpt lat="44.2319333" lon="11.8949867"><ele>64.0</ele><time>2026-04-18T10:48:17.993Z</time></trkpt><trkpt lat="44.2317417" lon="11.89496"><ele>64.0</ele><time>2026-04-18T10:48:18.994Z</time></trkpt><trkpt lat="44.2315433" lon="11.894925"><ele>64.0</ele><time>2026-04-18T10:48:19.993Z</time></trkpt><trkpt lat="44.2313467" lon="11.8948917"><ele>64.0</ele><time>2026-04-18T10:48:20.995Z</time></trkpt><trkpt lat="44.2311483" lon="11.8948567"><ele>64.33333333333333</ele><time>2026-04-18T10:48:21.993Z</time></trkpt><trkpt lat="44.2309467" lon="11.8948233"><ele>64.66666666666667</ele><time>2026-04-18T10:48:22.993Z</time></trkpt><trkpt lat="44.2307433" lon="11.8947967"><ele>65.0</ele><time>2026-04-18T10:48:23.993Z</time></trkpt><trkpt lat="44.2305367" lon="11.894765"><ele>65.33333333333334</ele><time>2026-04-18T10:48:24.992Z</time></trkpt><trkpt lat="44.2303317" lon="11.89473"><ele>65.66666666666667</ele><time>2026-04-18T10:48:25.994Z</time></trkpt><trkpt lat="44.23013" lon="11.894695"><ele>66.0</ele><time>2026-04-18T10:48:26.993Z</time></trkpt><trkpt lat="44.229925" lon="11.8946583"><ele>66.0</ele><time>2026-04-18T10:48:27.993Z</time></trkpt><trkpt lat="44.2297217" lon="11.8946217"><ele>66.0</ele><time>2026-04-18T10:48:28.993Z</time></trkpt><trkpt lat="44.229515" lon="11.894585"><ele>66.0</ele><time>2026-04-18T10:48:29.993Z</time></trkpt><trkpt lat="44.229305" lon="11.89455"><ele>66.0</ele><time>2026-04-18T10:48:30.994Z</time></trkpt><trkpt lat="44.2290983" lon="11.89451"><ele>66.0</ele><time>2026-04-18T10:48:31.994Z</time></trkpt><trkpt lat="44.22889" lon="11.8944717"><ele>66.0</ele><time>2026-04-18T10:48:32.994Z</time></trkpt><trkpt lat="44.2286817" lon="11.8944333"><ele>66.33333333333333</ele><time>2026-04-18T10:48:33.993Z</time></trkpt><trkpt lat="44.22847" lon="11.8943983"><ele>66.66666666666666</ele><time>2026-04-18T10:48:34.992Z</time></trkpt><trkpt lat="44.22826" lon="11.8943583"><ele>67.0</ele><time>2026-04-18T10:48:35.992Z</time></trkpt><trkpt lat="44.2280467" lon="11.89432"><ele>67.0</ele><time>2026-04-18T10:48:36.992Z</time></trkpt><trkpt lat="44.22783" lon="11.8942833"><ele>67.0</ele><time>2026-04-18T10:48:37.993Z</time></trkpt><trkpt lat="44.2276117" lon="11.8942467"><ele>67.0</ele><time>2026-04-18T10:48:38.994Z</time></trkpt><trkpt lat="44.2273917" lon="11.89421"><ele>66.66666666666666</ele><time>2026-04-18T10:48:39.993Z</time></trkpt><trkpt lat="44.22717" lon="11.8941717"><ele>66.33333333333333</ele><time>2026-04-18T10:48:40.993Z</time></trkpt><trkpt lat="44.2269467" lon="11.894135"><ele>66.0</ele><time>2026-04-18T10:48:41.993Z</time></trkpt><trkpt lat="44.2267217" lon="11.8941"><ele>66.0</ele><time>2026-04-18T10:48:42.992Z</time></trkpt><trkpt lat="44.2264983" lon="11.8940683"><ele>66.0</ele><time>2026-04-18T10:48:43.993Z</time></trkpt><trkpt lat="44.2262733" lon="11.894035"><ele>66.33333333333333</ele><time>2026-04-18T10:48:44.994Z</time></trkpt><trkpt lat="44.2260517" lon="11.8940017"><ele>66.66666666666666</ele><time>2026-04-18T10:48:45.992Z</time></trkpt><trkpt lat="44.2258317" lon="11.8939683"><ele>67.0</ele><time>2026-04-18T10:48:46.994Z</time></trkpt><trkpt lat="44.22562" lon="11.893935"><ele>67.5</ele><time>2026-04-18T10:48:47.994Z</time></trkpt><trkpt lat="44.225445" lon="11.8939033"><ele>68.0</ele><time>2026-04-18T10:48:48.993Z</time></trkpt><trkpt lat="44.2253133" lon="11.8938783"><ele>68.5</ele><time>2026-04-18T10:48:50.067Z</time></trkpt><trkpt lat="44.22523" lon="11.893855"><ele>69.0</ele><time>2026-04-18T10:48:50.994Z</time></trkpt><trkpt lat="44.22515" lon="11.8937517"><ele>69.0</ele><time>2026-04-18T10:48:53.066Z</time></trkpt><trkpt lat="44.22511" lon="11.8936817"><ele>69.0</ele><time>2026-04-18T10:48:53.994Z</time></trkpt><trkpt lat="44.2250683" lon="11.893605"><ele>69.0</ele><time>2026-04-18T10:48:54.994Z</time></trkpt><trkpt lat="44.2250183" lon="11.89352"><ele>69.0</ele><time>2026-04-18T10:48:55.993Z</time></trkpt><trkpt lat="44.2249617" lon="11.8934083"><ele>69.0</ele><time>2026-04-18T10:48:56.993Z</time></trkpt><trkpt lat="44.2248983" lon="11.8932817"><ele>69.0</ele><time>2026-04-18T10:48:57.994Z</time></trkpt><trkpt lat="44.22483" lon="11.8931433"><ele>70.5</ele><time>2026-04-18T10:48:58.994Z</time></trkpt><trkpt lat="44.2247583" lon="11.893"><ele>72.0</ele><time>2026-04-18T10:48:59.994Z</time></trkpt><trkpt lat="44.224685" lon="11.8928517"><ele>73.5</ele><time>2026-04-18T10:49:00.992Z</time></trkpt><trkpt lat="44.2246067" lon="11.8926983"><ele>75.0</ele><time>2026-04-18T10:49:01.993Z</time></trkpt><trkpt lat="44.2245283" lon="11.8925383"><ele>76.0</ele><time>2026-04-18T10:49:02.993Z</time></trkpt><trkpt lat="44.2244496" lon="11.8923757"><ele>77.0</ele><time>2026-04-18T10:49:03.992Z</time></trkpt><trkpt lat="44.2243707" lon="11.8922125"><ele>78.0</ele><time>2026-04-18T10:49:04.993Z</time></trkpt><trkpt lat="44.2242975" lon="11.8920584"><ele>79.0</ele><time>2026-04-18T10:49:05.992Z</time></trkpt><trkpt lat="44.2242379" lon="11.8919235"><ele>79.0</ele><time>2026-04-18T10:49:06.993Z</time></trkpt><trkpt lat="44.2241866" lon="11.8918105"><ele>79.0</ele><time>2026-04-18T10:49:07.992Z</time></trkpt><trkpt lat="44.2241369" lon="11.8917425"><ele>79.0</ele><time>2026-04-18T10:49:08.993Z</time></trkpt><trkpt lat="44.2240683" lon="11.8916947"><ele>79.0</ele><time>2026-04-18T10:49:09.993Z</time></trkpt><trkpt lat="44.2239873" lon="11.8916547"><ele>79.0</ele><time>2026-04-18T10:49:10.993Z</time></trkpt><trkpt lat="44.2238862" lon="11.8916289"><ele>79.0</ele><time>2026-04-18T10:49:11.994Z</time></trkpt><trkpt lat="44.223777" lon="11.8915968"><ele>83.25</ele><time>2026-04-18T10:49:12.994Z</time></trkpt><trkpt lat="44.2236687" lon="11.8915448"><ele>87.5</ele><time>2026-04-18T10:49:13.994Z</time></trkpt><trkpt lat="44.2235645" lon="11.8914762"><ele>91.75</ele><time>2026-04-18T10:49:14.994Z</time></trkpt><trkpt lat="44.2234631" lon="11.8913948"><ele>96.0</ele><time>2026-04-18T10:49:15.994Z</time></trkpt><trkpt lat="44.2233601" lon="11.8913102"><ele>96.0</ele><time>2026-04-18T10:49:16.993Z</time></trkpt><trkpt lat="44.2232543" lon="11.8912256"><ele>96.0</ele><time>2026-04-18T10:49:17.994Z</time></trkpt><trkpt lat="44.2231414" lon="11.8911485"><ele>96.0</ele><time>2026-04-18T10:49:18.993Z</time></trkpt><trkpt lat="44.2230245" lon="11.891077"><ele>96.0</ele><time>2026-04-18T10:49:19.994Z</time></trkpt><trkpt lat="44.2229053" lon="11.8910103"><ele>98.5</ele><time>2026-04-18T10:49:20.993Z</time></trkpt><trkpt lat="44.2227842" lon="11.8909606"><ele>101.0</ele><time>2026-04-18T10:49:21.994Z</time></trkpt><trkpt lat="44.2226602" lon="11.8909408"><ele>103.5</ele><time>2026-04-18T10:49:22.993Z</time></trkpt><trkpt lat="44.22254" lon="11.8909508"><ele>106.0</ele><time>2026-04-18T10:49:23.994Z</time></trkpt><trkpt lat="44.2224435" lon="11.8909534"><ele>107.19999999999999</ele><time>2026-04-18T10:49:24.995Z</time></trkpt><trkpt lat="44.2223669" lon="11.8908929"><ele>108.39999999999999</ele><time>2026-04-18T10:49:25.993Z</time></trkpt><trkpt lat="44.222299" lon="11.8908097"><ele>109.6</ele><time>2026-04-18T10:49:26.994Z</time></trkpt><trkpt lat="44.2222382" lon="11.8906949"><ele>110.8</ele><time>2026-04-18T10:49:27.993Z</time></trkpt><trkpt lat="44.2221619" lon="11.8905821"><ele>112.0</ele><time>2026-04-18T10:49:28.993Z</time></trkpt><trkpt lat="44.2220724" lon="11.8904823"><ele>114.19999999999999</ele><time>2026-04-18T10:49:29.994Z</time></trkpt><trkpt lat="44.2219747" lon="11.8904114"><ele>116.39999999999999</ele><time>2026-04-18T10:49:30.993Z</time></trkpt><trkpt lat="44.2218794" lon="11.8903737"><ele>118.60000000000001</ele><time>2026-04-18T10:49:31.993Z</time></trkpt><trkpt lat="44.2218143" lon="11.8903738"><ele>120.80000000000001</ele><time>2026-04-18T10:49:32.994Z</time></trkpt><trkpt lat="44.2217443" lon="11.8904118"><ele>123.0</ele><time>2026-04-18T10:49:34.993Z</time></trkpt><trkpt lat="44.2216296" lon="11.8904454"><ele>123.0</ele><time>2026-04-18T10:49:36.993Z</time></trkpt><trkpt lat="44.2215431" lon="11.8904691"><ele>123.00000000000001</ele><time>2026-04-18T10:49:37.993Z</time></trkpt><trkpt lat="44.2214464" lon="11.8904795"><ele>123.00000000000001</ele><time>2026-04-18T10:49:38.994Z</time></trkpt><trkpt lat="44.2213411" lon="11.8904664"><ele>123.0</ele><time>2026-04-18T10:49:39.994Z</time></trkpt><trkpt lat="44.2212268" lon="11.8904348"><ele>123.0</ele><time>2026-04-18T10:49:40.993Z</time></trkpt><trkpt lat="44.2211041" lon="11.8903924"><ele>124.25</ele><time>2026-04-18T10:49:41.992Z</time></trkpt><trkpt lat="44.2209801" lon="11.890346"><ele>125.5</ele><time>2026-04-18T10:49:42.993Z</time></trkpt><trkpt lat="44.2208605" lon="11.8902991"><ele>126.75</ele><time>2026-04-18T10:49:43.994Z</time></trkpt><trkpt lat="44.2207449" lon="11.8902514"><ele>128.0</ele><time>2026-04-18T10:49:44.994Z</time></trkpt><trkpt lat="44.2206277" lon="11.8902039"><ele>128.5</ele><time>2026-04-18T10:49:45.993Z</time></trkpt><trkpt lat="44.2205101" lon="11.8901524"><ele>129.0</ele><time>2026-04-18T10:49:46.992Z</time></trkpt><trkpt lat="44.2203913" lon="11.8900929"><ele>129.5</ele><time>2026-04-18T10:49:47.994Z</time></trkpt><trkpt lat="44.2202704" lon="11.8900291"><ele>130.0</ele><time>2026-04-18T10:49:48.993Z</time></trkpt><trkpt lat="44.220151" lon="11.889963"><ele>132.0</ele><time>2026-04-18T10:49:49.992Z</time></trkpt><trkpt lat="44.2200286" lon="11.8898998"><ele>134.0</ele><time>2026-04-18T10:49:50.993Z</time></trkpt><trkpt lat="44.2199039" lon="11.8898458"><ele>136.0</ele><time>2026-04-18T10:49:51.994Z</time></trkpt><trkpt lat="44.21978" lon="11.8897991"><ele>138.0</ele><time>2026-04-18T10:49:52.993Z</time></trkpt><trkpt lat="44.2196649" lon="11.8897553"><ele>138.0</ele><time>2026-04-18T10:49:53.992Z</time></trkpt><trkpt lat="44.2195562" lon="11.8897099"><ele>138.0</ele><time>2026-04-18T10:49:54.992Z</time></trkpt><trkpt lat="44.2194475" lon="11.8896521"><ele>138.0</ele><time>2026-04-18T10:49:55.994Z</time></trkpt><trkpt lat="44.2193402" lon="11.8895732"><ele>138.0</ele><time>2026-04-18T10:49:56.994Z</time></trkpt><trkpt lat="44.2192351" lon="11.8894757"><ele>138.0</ele><time>2026-04-18T10:49:57.992Z</time></trkpt><trkpt lat="44.2191275" lon="11.8893684"><ele>138.0</ele><time>2026-04-18T10:49:58.992Z</time></trkpt><trkpt lat="44.2190162" lon="11.8892619"><ele>138.0</ele><time>2026-04-18T10:49:59.993Z</time></trkpt><trkpt lat="44.2189008" lon="11.889164"><ele>138.0</ele><time>2026-04-18T10:50:00.993Z</time></trkpt><trkpt lat="44.2187801" lon="11.8890762"><ele>139.75</ele><time>2026-04-18T10:50:01.993Z</time></trkpt><trkpt lat="44.218656" lon="11.8889958"><ele>141.5</ele><time>2026-04-18T10:50:02.994Z</time></trkpt><trkpt lat="44.218528" lon="11.8889259"><ele>143.25</ele><time>2026-04-18T10:50:03.993Z</time></trkpt><trkpt lat="44.2183949" lon="11.8888701"><ele>145.0</ele><time>2026-04-18T10:50:04.993Z</time></trkpt><trkpt lat="44.2182568" lon="11.8888251"><ele>145.25</ele><time>2026-04-18T10:50:05.993Z</time></trkpt><trkpt lat="44.2181185" lon="11.8887821"><ele>145.5</ele><time>2026-04-18T10:50:06.992Z</time></trkpt><trkpt lat="44.2179804" lon="11.8887426"><ele>145.75</ele><time>2026-04-18T10:50:07.992Z</time></trkpt><trkpt lat="44.2178416" lon="11.8887029"><ele>146.0</ele><time>2026-04-18T10:50:08.994Z</time></trkpt><trkpt lat="44.217703" lon="11.8886531"><ele>146.0</ele><time>2026-04-18T10:50:09.993Z</time></trkpt><trkpt lat="44.2175635" lon="11.8885974"><ele>146.0</ele><time>2026-04-18T10:50:10.993Z</time></trkpt><trkpt lat="44.2174233" lon="11.8885376"><ele>146.0</ele><time>2026-04-18T10:50:11.993Z</time></trkpt><trkpt lat="44.2172817" lon="11.888477"><ele>146.0</ele><time>2026-04-18T10:50:12.993Z</time></trkpt><trkpt lat="44.2171407" lon="11.8884118"><ele>149.25</ele><time>2026-04-18T10:50:13.992Z</time></trkpt><trkpt lat="44.2170002" lon="11.8883433"><ele>152.5</ele><time>2026-04-18T10:50:14.994Z</time></trkpt><trkpt lat="44.2168605" lon="11.8882734"><ele>155.75</ele><time>2026-04-18T10:50:15.995Z</time></trkpt><trkpt lat="44.2167212" lon="11.8882024"><ele>159.0</ele><time>2026-04-18T10:50:16.993Z</time></trkpt><trkpt lat="44.2165839" lon="11.8881332"><ele>162.5</ele><time>2026-04-18T10:50:17.993Z</time></trkpt><trkpt lat="44.2164495" lon="11.8880685"><ele>166.0</ele><time>2026-04-18T10:50:18.993Z</time></trkpt><trkpt lat="44.2163164" lon="11.8880065"><ele>169.5</ele><time>2026-04-18T10:50:19.993Z</time></trkpt><trkpt lat="44.2161846" lon="11.8879491"><ele>173.0</ele><time>2026-04-18T10:50:20.993Z</time></trkpt><trkpt lat="44.2160547" lon="11.8878926"><ele>173.0</ele><time>2026-04-18T10:50:21.992Z</time></trkpt><trkpt lat="44.2159265" lon="11.8878413"><ele>173.0</ele><time>2026-04-18T10:50:22.992Z</time></trkpt><trkpt lat="44.2157987" lon="11.8877894"><ele>173.0</ele><time>2026-04-18T10:50:23.994Z</time></trkpt><trkpt lat="44.2156721" lon="11.8877311"><ele>173.0</ele><time>2026-04-18T10:50:24.992Z</time></trkpt><trkpt lat="44.2155478" lon="11.887658"><ele>175.25</ele><time>2026-04-18T10:50:25.998Z</time></trkpt><trkpt lat="44.2154283" lon="11.8875691"><ele>177.5</ele><time>2026-04-18T10:50:26.993Z</time></trkpt><trkpt lat="44.2153087" lon="11.8874766"><ele>179.75</ele><time>2026-04-18T10:50:27.992Z</time></trkpt><trkpt lat="44.2151872" lon="11.8873922"><ele>182.0</ele><time>2026-04-18T10:50:28.992Z</time></trkpt><trkpt lat="44.2150606" lon="11.8873267"><ele>182.0</ele><time>2026-04-18T10:50:29.993Z</time></trkpt><trkpt lat="44.2149286" lon="11.8872743"><ele>182.0</ele><time>2026-04-18T10:50:30.994Z</time></trkpt><trkpt lat="44.2147959" lon="11.8872278"><ele>182.0</ele><time>2026-04-18T10:50:31.994Z</time></trkpt><trkpt lat="44.2146645" lon="11.8871837"><ele>182.0</ele><time>2026-04-18T10:50:32.994Z</time></trkpt><trkpt lat="44.2145359" lon="11.8871344"><ele>184.75</ele><time>2026-04-18T10:50:33.992Z</time></trkpt><trkpt lat="44.2144085" lon="11.8870788"><ele>187.5</ele><time>2026-04-18T10:50:34.994Z</time></trkpt><trkpt lat="44.2142828" lon="11.8870177"><ele>190.25</ele><time>2026-04-18T10:50:35.993Z</time></trkpt><trkpt lat="44.2141554" lon="11.8869503"><ele>193.0</ele><time>2026-04-18T10:50:36.994Z</time></trkpt><trkpt lat="44.2140286" lon="11.886878"><ele>191.5</ele><time>2026-04-18T10:50:37.995Z</time></trkpt><trkpt lat="44.2139061" lon="11.8868039"><ele>190.0</ele><time>2026-04-18T10:50:38.994Z</time></trkpt><trkpt lat="44.2137937" lon="11.8867372"><ele>188.5</ele><time>2026-04-18T10:50:39.993Z</time></trkpt><trkpt lat="44.2136869" lon="11.8866762"><ele>187.0</ele><time>2026-04-18T10:50:40.992Z</time></trkpt><trkpt lat="44.2135875" lon="11.8866179"><ele>187.0</ele><time>2026-04-18T10:50:41.993Z</time></trkpt><trkpt lat="44.2134928" lon="11.8865653"><ele>187.0</ele><time>2026-04-18T10:50:42.993Z</time></trkpt><trkpt lat="44.2134041" lon="11.8865123"><ele>187.0</ele><time>2026-04-18T10:50:43.993Z</time></trkpt><trkpt lat="44.2133275" lon="11.886456"><ele>187.0</ele><time>2026-04-18T10:50:44.993Z</time></trkpt><trkpt lat="44.2132614" lon="11.8864022"><ele>187.0</ele><time>2026-04-18T10:50:45.993Z</time></trkpt><trkpt lat="44.2132069" lon="11.8863388"><ele>187.0</ele><time>2026-04-18T10:50:46.994Z</time></trkpt><trkpt lat="44.213164" lon="11.8862688"><ele>187.42857142857142</ele><time>2026-04-18T10:50:47.993Z</time></trkpt><trkpt lat="44.213136" lon="11.8861897"><ele>187.85714285714286</ele><time>2026-04-18T10:50:48.994Z</time></trkpt><trkpt lat="44.2131136" lon="11.8861017"><ele>188.28571428571428</ele><time>2026-04-18T10:50:49.993Z</time></trkpt><trkpt lat="44.2130922" lon="11.8860038"><ele>188.71428571428572</ele><time>2026-04-18T10:50:50.993Z</time></trkpt><trkpt lat="44.2130661" lon="11.8859004"><ele>189.14285714285717</ele><time>2026-04-18T10:50:51.994Z</time></trkpt><trkpt lat="44.2130268" lon="11.885799"><ele>189.57142857142858</ele><time>2026-04-18T10:50:52.995Z</time></trkpt><trkpt lat="44.2129819" lon="11.8857133"><ele>190.0</ele><time>2026-04-18T10:50:53.993Z</time></trkpt><trkpt lat="44.2129099" lon="11.8856591"><ele>190.0</ele><time>2026-04-18T10:50:54.992Z</time></trkpt><trkpt lat="44.2128397" lon="11.88561"><ele>190.0</ele><time>2026-04-18T10:50:55.992Z</time></trkpt><trkpt lat="44.2127564" lon="11.8855775"><ele>190.0</ele><time>2026-04-18T10:50:56.992Z</time></trkpt><trkpt lat="44.2126667" lon="11.8855421"><ele>190.0</ele><time>2026-04-18T10:50:57.993Z</time></trkpt><trkpt lat="44.2125748" lon="11.8854997"><ele>190.0</ele><time>2026-04-18T10:50:58.992Z</time></trkpt><trkpt lat="44.2124813" lon="11.8854536"><ele>190.0</ele><time>2026-04-18T10:50:59.993Z</time></trkpt><trkpt lat="44.2123857" lon="11.8854048"><ele>190.0</ele><time>2026-04-18T10:51:00.993Z</time></trkpt><trkpt lat="44.2122906" lon="11.8853523"><ele>190.0</ele><time>2026-04-18T10:51:01.993Z</time></trkpt><trkpt lat="44.212195" lon="11.8852982"><ele>190.0</ele><time>2026-04-18T10:51:02.993Z</time></trkpt><trkpt lat="44.2120981" lon="11.8852447"><ele>190.0</ele><time>2026-04-18T10:51:03.994Z</time></trkpt><trkpt lat="44.2120022" lon="11.8851916"><ele>189.8</ele><time>2026-04-18T10:51:04.993Z</time></trkpt><trkpt lat="44.2119074" lon="11.8851401"><ele>189.6</ele><time>2026-04-18T10:51:05.993Z</time></trkpt><trkpt lat="44.2118109" lon="11.8850883"><ele>189.39999999999998</ele><time>2026-04-18T10:51:06.994Z</time></trkpt><trkpt lat="44.2117205" lon="11.8850437"><ele>189.2</ele><time>2026-04-18T10:51:07.993Z</time></trkpt><trkpt lat="44.2116404" lon="11.8850039"><ele>189.0</ele><time>2026-04-18T10:51:08.993Z</time></trkpt><trkpt lat="44.2115727" lon="11.8849645"><ele>191.0</ele><time>2026-04-18T10:51:09.993Z</time></trkpt><trkpt lat="44.2115076" lon="11.8849247"><ele>193.0</ele><time>2026-04-18T10:51:10.992Z</time></trkpt><trkpt lat="44.2114381" lon="11.8848867"><ele>195.0</ele><time>2026-04-18T10:51:11.993Z</time></trkpt><trkpt lat="44.211361" lon="11.8848492"><ele>197.0</ele><time>2026-04-18T10:51:12.992Z</time></trkpt><trkpt lat="44.2112779" lon="11.8848098"><ele>199.0</ele><time>2026-04-18T10:51:13.993Z</time></trkpt><trkpt lat="44.2111922" lon="11.8847704"><ele>201.0</ele><time>2026-04-18T10:51:14.992Z</time></trkpt><trkpt lat="44.2110986" lon="11.8847317"><ele>201.0</ele><time>2026-04-18T10:51:15.994Z</time></trkpt><trkpt lat="44.210999" lon="11.8846902"><ele>201.0</ele><time>2026-04-18T10:51:16.992Z</time></trkpt><trkpt lat="44.210894" lon="11.8846468"><ele>201.0</ele><time>2026-04-18T10:51:17.994Z</time></trkpt><trkpt lat="44.2107899" lon="11.8846046"><ele>201.0</ele><time>2026-04-18T10:51:18.994Z</time></trkpt><trkpt lat="44.2106907" lon="11.884562"><ele>201.0</ele><time>2026-04-18T10:51:19.993Z</time></trkpt><trkpt lat="44.2105947" lon="11.8845236"><ele>200.60000000000002</ele><time>2026-04-18T10:51:20.993Z</time></trkpt><trkpt lat="44.2104964" lon="11.8844886"><ele>200.2</ele><time>2026-04-18T10:51:21.994Z</time></trkpt><trkpt lat="44.2103918" lon="11.8844597"><ele>199.8</ele><time>2026-04-18T10:51:22.994Z</time></trkpt><trkpt lat="44.2102832" lon="11.8844373"><ele>199.39999999999998</ele><time>2026-04-18T10:51:23.994Z</time></trkpt><trkpt lat="44.2101735" lon="11.8844154"><ele>199.0</ele><time>2026-04-18T10:51:24.996Z</time></trkpt><trkpt lat="44.2100634" lon="11.8843943"><ele>199.0</ele><time>2026-04-18T10:51:25.993Z</time></trkpt><trkpt lat="44.2099571" lon="11.8843724"><ele>199.0</ele><time>2026-04-18T10:51:26.994Z</time></trkpt><trkpt lat="44.2098546" lon="11.884349"><ele>199.0</ele><time>2026-04-18T10:51:27.994Z</time></trkpt><trkpt lat="44.2097532" lon="11.8843298"><ele>199.0</ele><time>2026-04-18T10:51:28.993Z</time></trkpt><trkpt lat="44.2096533" lon="11.8843117"><ele>199.0</ele><time>2026-04-18T10:51:29.993Z</time></trkpt><trkpt lat="44.2095483" lon="11.8842783"><ele>195.2</ele><time>2026-04-18T10:51:30.992Z</time></trkpt><trkpt lat="44.2094533" lon="11.88421"><ele>191.39999999999998</ele><time>2026-04-18T10:51:31.992Z</time></trkpt><trkpt lat="44.209375" lon="11.88412"><ele>187.6</ele><time>2026-04-18T10:51:32.993Z</time></trkpt><trkpt lat="44.2092983" lon="11.884005"><ele>183.8</ele><time>2026-04-18T10:51:33.992Z</time></trkpt><trkpt lat="44.2092167" lon="11.8838817"><ele>180.0</ele><time>2026-04-18T10:51:34.993Z</time></trkpt><trkpt lat="44.2091317" lon="11.8837533"><ele>180.0</ele><time>2026-04-18T10:51:35.993Z</time></trkpt><trkpt lat="44.209045" lon="11.8836183"><ele>180.0</ele><time>2026-04-18T10:51:36.993Z</time></trkpt><trkpt lat="44.20896" lon="11.8834767"><ele>180.0</ele><time>2026-04-18T10:51:37.993Z</time></trkpt><trkpt lat="44.2088717" lon="11.883335"><ele>180.0</ele><time>2026-04-18T10:51:38.993Z</time></trkpt><trkpt lat="44.208785" lon="11.88319"><ele>178.5</ele><time>2026-04-18T10:51:39.993Z</time></trkpt><trkpt lat="44.2086967" lon="11.8830483"><ele>177.0</ele><time>2026-04-18T10:51:40.992Z</time></trkpt><trkpt lat="44.2086117" lon="11.8829117"><ele>175.5</ele><time>2026-04-18T10:51:41.993Z</time></trkpt><trkpt lat="44.208525" lon="11.8827783"><ele>174.0</ele><time>2026-04-18T10:51:42.993Z</time></trkpt><trkpt lat="44.208435" lon="11.8826467"><ele>174.25</ele><time>2026-04-18T10:51:43.993Z</time></trkpt><trkpt lat="44.2083433" lon="11.882525"><ele>174.5</ele><time>2026-04-18T10:51:44.994Z</time></trkpt><trkpt lat="44.20824" lon="11.8824283"><ele>174.75</ele><time>2026-04-18T10:51:45.992Z</time></trkpt><trkpt lat="44.20813" lon="11.8823483"><ele>175.0</ele><time>2026-04-18T10:51:46.992Z</time></trkpt><trkpt lat="44.208015" lon="11.88228"><ele>175.5</ele><time>2026-04-18T10:51:47.994Z</time></trkpt><trkpt lat="44.2078983" lon="11.8822117"><ele>176.0</ele><time>2026-04-18T10:51:48.992Z</time></trkpt><trkpt lat="44.2077833" lon="11.88214"><ele>176.5</ele><time>2026-04-18T10:51:49.994Z</time></trkpt><trkpt lat="44.2076717" lon="11.8820617"><ele>177.0</ele><time>2026-04-18T10:51:50.993Z</time></trkpt><trkpt lat="44.207565" lon="11.8819883"><ele>177.0</ele><time>2026-04-18T10:51:51.993Z</time></trkpt><trkpt lat="44.2074533" lon="11.8819383"><ele>177.0</ele><time>2026-04-18T10:51:52.993Z</time></trkpt><trkpt lat="44.207335" lon="11.88192"><ele>177.0</ele><time>2026-04-18T10:51:53.993Z</time></trkpt><trkpt lat="44.2072167" lon="11.8819317"><ele>177.0</ele><time>2026-04-18T10:51:54.993Z</time></trkpt><trkpt lat="44.2070967" lon="11.881955"><ele>180.0</ele><time>2026-04-18T10:51:55.994Z</time></trkpt><trkpt lat="44.206975" lon="11.88198"><ele>183.0</ele><time>2026-04-18T10:51:56.994Z</time></trkpt><trkpt lat="44.206855" lon="11.8819967"><ele>186.0</ele><time>2026-04-18T10:51:57.993Z</time></trkpt><trkpt lat="44.2067267" lon="11.8820083"><ele>189.0</ele><time>2026-04-18T10:51:58.994Z</time></trkpt><trkpt lat="44.2065983" lon="11.8820083"><ele>190.0</ele><time>2026-04-18T10:51:59.993Z</time></trkpt><trkpt lat="44.2064717" lon="11.8820017"><ele>191.0</ele><time>2026-04-18T10:52:00.993Z</time></trkpt><trkpt lat="44.20635" lon="11.8819817"><ele>192.0</ele><time>2026-04-18T10:52:01.994Z</time></trkpt><trkpt lat="44.206245" lon="11.8819383"><ele>193.0</ele><time>2026-04-18T10:52:02.994Z</time></trkpt><trkpt lat="44.2061683" lon="11.8818567"><ele>194.0</ele><time>2026-04-18T10:52:03.992Z</time></trkpt><trkpt lat="44.2061267" lon="11.8817567"><ele>195.0</ele><time>2026-04-18T10:52:04.993Z</time></trkpt><trkpt lat="44.2061167" lon="11.8816317"><ele>196.0</ele><time>2026-04-18T10:52:05.994Z</time></trkpt><trkpt lat="44.2061233" lon="11.88149"><ele>197.0</ele><time>2026-04-18T10:52:06.993Z</time></trkpt><trkpt lat="44.2061367" lon="11.8813367"><ele>198.0</ele><time>2026-04-18T10:52:07.992Z</time></trkpt><trkpt lat="44.206155" lon="11.8811767"><ele>198.0</ele><time>2026-04-18T10:52:08.993Z</time></trkpt><trkpt lat="44.2061733" lon="11.8810133"><ele>198.0</ele><time>2026-04-18T10:52:09.993Z</time></trkpt><trkpt lat="44.2061933" lon="11.8808533"><ele>198.0</ele><time>2026-04-18T10:52:10.992Z</time></trkpt><trkpt lat="44.206215" lon="11.8806967"><ele>198.0</ele><time>2026-04-18T10:52:11.993Z</time></trkpt><trkpt lat="44.206235" lon="11.8805333"><ele>198.4</ele><time>2026-04-18T10:52:12.994Z</time></trkpt><trkpt lat="44.2062533" lon="11.880375"><ele>198.8</ele><time>2026-04-18T10:52:13.992Z</time></trkpt><trkpt lat="44.20626" lon="11.8802583"><ele>199.2</ele><time>2026-04-18T10:52:14.993Z</time></trkpt><trkpt lat="44.206265" lon="11.8801317"><ele>199.6</ele><time>2026-04-18T10:52:16.993Z</time></trkpt><trkpt lat="44.2062875" lon="11.8799907"><ele>200.0</ele><time>2026-04-18T10:54:25.992Z</time></trkpt><trkpt lat="44.2062845" lon="11.8798686"><ele>199.8</ele><time>2026-04-18T10:54:26.994Z</time></trkpt><trkpt lat="44.2062841" lon="11.879742"><ele>199.6</ele><time>2026-04-18T10:54:27.993Z</time></trkpt><trkpt lat="44.2062879" lon="11.8796147"><ele>199.39999999999998</ele><time>2026-04-18T10:54:28.992Z</time></trkpt><trkpt lat="44.2062947" lon="11.8794875"><ele>199.2</ele><time>2026-04-18T10:54:29.993Z</time></trkpt><trkpt lat="44.2063029" lon="11.8793643"><ele>199.0</ele><time>2026-04-18T10:54:30.993Z</time></trkpt><trkpt lat="44.2063141" lon="11.8792345"><ele>199.0</ele><time>2026-04-18T10:54:31.994Z</time></trkpt><trkpt lat="44.2063255" lon="11.8791039"><ele>199.0</ele><time>2026-04-18T10:54:32.994Z</time></trkpt><trkpt lat="44.2063323" lon="11.8789786"><ele>199.0</ele><time>2026-04-18T10:54:33.993Z</time></trkpt><trkpt lat="44.2063403" lon="11.8788451"><ele>199.0</ele><time>2026-04-18T10:54:34.993Z</time></trkpt><trkpt lat="44.2063445" lon="11.8787149"><ele>199.0</ele><time>2026-04-18T10:54:35.993Z</time></trkpt><trkpt lat="44.2063487" lon="11.8785779"><ele>198.99999999999997</ele><time>2026-04-18T10:54:36.993Z</time></trkpt><trkpt lat="44.2063525" lon="11.8784355"><ele>199.0</ele><time>2026-04-18T10:54:37.994Z</time></trkpt><trkpt lat="44.2063523" lon="11.878313"><ele>199.0</ele><time>2026-04-18T10:54:38.994Z</time></trkpt><trkpt lat="44.2063432" lon="11.8781952"><ele>199.0</ele><time>2026-04-18T10:54:39.993Z</time></trkpt><trkpt lat="44.2063333" lon="11.87808"><ele>198.99999999999997</ele><time>2026-04-18T10:54:40.993Z</time></trkpt><trkpt lat="44.20633" lon="11.8779567"><ele>199.0</ele><time>2026-04-18T10:54:41.993Z</time></trkpt><trkpt lat="44.2063233" lon="11.8778283"><ele>198.39999999999998</ele><time>2026-04-18T10:54:42.992Z</time></trkpt><trkpt lat="44.2063183" lon="11.8776933"><ele>197.8</ele><time>2026-04-18T10:54:43.992Z</time></trkpt><trkpt lat="44.2063133" lon="11.8775617"><ele>197.2</ele><time>2026-04-18T10:54:44.993Z</time></trkpt><trkpt lat="44.2063" lon="11.8774283"><ele>196.60000000000002</ele><time>2026-04-18T10:54:45.994Z</time></trkpt><trkpt lat="44.20628" lon="11.8772967"><ele>196.0</ele><time>2026-04-18T10:54:46.992Z</time></trkpt><trkpt lat="44.2062533" lon="11.8771633"><ele>196.0</ele><time>2026-04-18T10:54:47.992Z</time></trkpt><trkpt lat="44.206225" lon="11.8770367"><ele>196.0</ele><time>2026-04-18T10:54:48.993Z</time></trkpt><trkpt lat="44.2062" lon="11.876905"><ele>196.0</ele><time>2026-04-18T10:54:49.994Z</time></trkpt><trkpt lat="44.206175" lon="11.87677"><ele>196.0</ele><time>2026-04-18T10:54:50.993Z</time></trkpt><trkpt lat="44.2061483" lon="11.8766267"><ele>196.0</ele><time>2026-04-18T10:54:51.993Z</time></trkpt><trkpt lat="44.2061217" lon="11.8764817"><ele>198.4</ele><time>2026-04-18T10:54:52.993Z</time></trkpt><trkpt lat="44.2060933" lon="11.8763433"><ele>200.8</ele><time>2026-04-18T10:54:53.994Z</time></trkpt><trkpt lat="44.2060667" lon="11.876195"><ele>203.20000000000002</ele><time>2026-04-18T10:54:54.992Z</time></trkpt><trkpt lat="44.2060417" lon="11.8760533"><ele>205.60000000000002</ele><time>2026-04-18T10:54:55.993Z</time></trkpt><trkpt lat="44.2060117" lon="11.8759233"><ele>208.0</ele><time>2026-04-18T10:54:56.993Z</time></trkpt><trkpt lat="44.2059717" lon="11.8758"><ele>208.4</ele><time>2026-04-18T10:54:57.992Z</time></trkpt><trkpt lat="44.205925" lon="11.8756867"><ele>208.8</ele><time>2026-04-18T10:54:58.993Z</time></trkpt><trkpt lat="44.2058633" lon="11.8755733"><ele>209.2</ele><time>2026-04-18T10:54:59.993Z</time></trkpt><trkpt lat="44.2057883" lon="11.87546"><ele>209.6</ele><time>2026-04-18T10:55:00.993Z</time></trkpt><trkpt lat="44.205705" lon="11.8753483"><ele>210.0</ele><time>2026-04-18T10:55:01.993Z</time></trkpt><trkpt lat="44.2056233" lon="11.8752333"><ele>209.5</ele><time>2026-04-18T10:55:02.993Z</time></trkpt><trkpt lat="44.2055417" lon="11.8751167"><ele>209.0</ele><time>2026-04-18T10:55:03.993Z</time></trkpt><trkpt lat="44.20546" lon="11.8749967"><ele>208.5</ele><time>2026-04-18T10:55:04.993Z</time></trkpt><trkpt lat="44.2053767" lon="11.8748817"><ele>208.0</ele><time>2026-04-18T10:55:05.993Z</time></trkpt><trkpt lat="44.2052917" lon="11.87478"><ele>208.0</ele><time>2026-04-18T10:55:06.993Z</time></trkpt><trkpt lat="44.20521" lon="11.8747"><ele>208.0</ele><time>2026-04-18T10:55:07.993Z</time></trkpt><trkpt lat="44.205115" lon="11.874645"><ele>208.0</ele><time>2026-04-18T10:55:08.993Z</time></trkpt><trkpt lat="44.2050133" lon="11.8746233"><ele>208.0</ele><time>2026-04-18T10:55:09.994Z</time></trkpt><trkpt lat="44.20491" lon="11.8746317"><ele>208.0</ele><time>2026-04-18T10:55:10.993Z</time></trkpt><trkpt lat="44.2048117" lon="11.8746333"><ele>207.2</ele><time>2026-04-18T10:55:11.993Z</time></trkpt><trkpt lat="44.2047217" lon="11.87461"><ele>206.4</ele><time>2026-04-18T10:55:12.993Z</time></trkpt><trkpt lat="44.2046283" lon="11.87456"><ele>205.6</ele><time>2026-04-18T10:55:13.993Z</time></trkpt><trkpt lat="44.2045333" lon="11.874485"><ele>204.79999999999998</ele><time>2026-04-18T10:55:14.994Z</time></trkpt><trkpt lat="44.20443" lon="11.874405"><ele>204.0</ele><time>2026-04-18T10:55:15.993Z</time></trkpt><trkpt lat="44.2043267" lon="11.874335"><ele>204.0</ele><time>2026-04-18T10:55:16.993Z</time></trkpt><trkpt lat="44.2042183" lon="11.8742783"><ele>204.0</ele><time>2026-04-18T10:55:17.993Z</time></trkpt><trkpt lat="44.2041017" lon="11.8742333"><ele>204.0</ele><time>2026-04-18T10:55:18.992Z</time></trkpt><trkpt lat="44.2039833" lon="11.8742017"><ele>204.0</ele><time>2026-04-18T10:55:19.994Z</time></trkpt><trkpt lat="44.2038633" lon="11.8741833"><ele>206.25</ele><time>2026-04-18T10:55:20.994Z</time></trkpt><trkpt lat="44.203745" lon="11.8741583"><ele>208.5</ele><time>2026-04-18T10:55:21.993Z</time></trkpt><trkpt lat="44.2036317" lon="11.87413"><ele>210.75</ele><time>2026-04-18T10:55:22.994Z</time></trkpt><trkpt lat="44.2035167" lon="11.8741017"><ele>213.0</ele><time>2026-04-18T10:55:23.993Z</time></trkpt><trkpt lat="44.2033983" lon="11.87407"><ele>213.0</ele><time>2026-04-18T10:55:24.993Z</time></trkpt><trkpt lat="44.20328" lon="11.87404"><ele>213.0</ele><time>2026-04-18T10:55:25.993Z</time></trkpt><trkpt lat="44.2031633" lon="11.8740083"><ele>213.0</ele><time>2026-04-18T10:55:26.993Z</time></trkpt><trkpt lat="44.2030417" lon="11.8739733"><ele>213.0</ele><time>2026-04-18T10:55:27.994Z</time></trkpt><trkpt lat="44.2029167" lon="11.8739367"><ele>214.5</ele><time>2026-04-18T10:55:28.994Z</time></trkpt><trkpt lat="44.20279" lon="11.8739017"><ele>216.0</ele><time>2026-04-18T10:55:29.993Z</time></trkpt><trkpt lat="44.2026639" lon="11.8738708"><ele>217.5</ele><time>2026-04-18T10:55:30.993Z</time></trkpt><trkpt lat="44.2025381" lon="11.8738398"><ele>219.0</ele><time>2026-04-18T10:55:31.995Z</time></trkpt><trkpt lat="44.2024117" lon="11.8738085"><ele>219.75</ele><time>2026-04-18T10:55:32.994Z</time></trkpt><trkpt lat="44.202285" lon="11.8737781"><ele>220.5</ele><time>2026-04-18T10:55:33.993Z</time></trkpt><trkpt lat="44.2021601" lon="11.8737474"><ele>221.25</ele><time>2026-04-18T10:55:34.994Z</time></trkpt><trkpt lat="44.2020356" lon="11.873718"><ele>222.0</ele><time>2026-04-18T10:55:35.993Z</time></trkpt><trkpt lat="44.2019135" lon="11.8736906"><ele>222.0</ele><time>2026-04-18T10:55:36.994Z</time></trkpt><trkpt lat="44.2017921" lon="11.8736617"><ele>222.0</ele><time>2026-04-18T10:55:37.993Z</time></trkpt><trkpt lat="44.2016743" lon="11.8736428"><ele>222.0</ele><time>2026-04-18T10:55:38.994Z</time></trkpt><trkpt lat="44.2015612" lon="11.8736372"><ele>222.0</ele><time>2026-04-18T10:55:39.993Z</time></trkpt><trkpt lat="44.2014523" lon="11.8736483"><ele>221.0</ele><time>2026-04-18T10:55:40.993Z</time></trkpt><trkpt lat="44.2013422" lon="11.8736725"><ele>220.0</ele><time>2026-04-18T10:55:41.992Z</time></trkpt><trkpt lat="44.201231" lon="11.8737052"><ele>219.0</ele><time>2026-04-18T10:55:42.992Z</time></trkpt><trkpt lat="44.2011226" lon="11.8737378"><ele>218.0</ele><time>2026-04-18T10:55:43.993Z</time></trkpt><trkpt lat="44.201015" lon="11.8737721"><ele>217.0</ele><time>2026-04-18T10:55:44.995Z</time></trkpt><trkpt lat="44.2009057" lon="11.873792"><ele>217.0</ele><time>2026-04-18T10:55:45.994Z</time></trkpt><trkpt lat="44.200792" lon="11.8737885"><ele>217.0</ele><time>2026-04-18T10:55:46.992Z</time></trkpt><trkpt lat="44.2006764" lon="11.8737879"><ele>217.0</ele><time>2026-04-18T10:55:47.994Z</time></trkpt><trkpt lat="44.2005527" lon="11.8738254"><ele>217.0</ele><time>2026-04-18T10:55:48.993Z</time></trkpt><trkpt lat="44.2004299" lon="11.8738925"><ele>216.66666666666666</ele><time>2026-04-18T10:55:49.994Z</time></trkpt><trkpt lat="44.2003016" lon="11.8739997"><ele>216.33333333333331</ele><time>2026-04-18T10:55:50.994Z</time></trkpt><trkpt lat="44.2001723" lon="11.8741173"><ele>216.0</ele><time>2026-04-18T10:55:51.993Z</time></trkpt><trkpt lat="44.2000426" lon="11.8742369"><ele>213.25</ele><time>2026-04-18T10:55:52.994Z</time></trkpt><trkpt lat="44.199915" lon="11.874349"><ele>210.5</ele><time>2026-04-18T10:55:53.994Z</time></trkpt><trkpt lat="44.1997882" lon="11.874452"><ele>207.75</ele><time>2026-04-18T10:55:54.993Z</time></trkpt><trkpt lat="44.1996559" lon="11.8745426"><ele>205.0</ele><time>2026-04-18T10:55:55.993Z</time></trkpt><trkpt lat="44.1995193" lon="11.8746204"><ele>210.75</ele><time>2026-04-18T10:55:56.995Z</time></trkpt><trkpt lat="44.1993824" lon="11.8746862"><ele>216.5</ele><time>2026-04-18T10:55:57.994Z</time></trkpt><trkpt lat="44.1992443" lon="11.8747443"><ele>222.25</ele><time>2026-04-18T10:55:58.992Z</time></trkpt><trkpt lat="44.1991068" lon="11.8747973"><ele>228.0</ele><time>2026-04-18T10:55:59.992Z</time></trkpt><trkpt lat="44.1989703" lon="11.8748458"><ele>231.5</ele><time>2026-04-18T10:56:00.992Z</time></trkpt><trkpt lat="44.1988374" lon="11.8748953"><ele>235.0</ele><time>2026-04-18T10:56:01.995Z</time></trkpt><trkpt lat="44.1987115" lon="11.8749464"><ele>238.5</ele><time>2026-04-18T10:56:02.993Z</time></trkpt><trkpt lat="44.1985881" lon="11.8749885"><ele>242.0</ele><time>2026-04-18T10:56:03.992Z</time></trkpt><trkpt lat="44.1984669" lon="11.8750096"><ele>242.0</ele><time>2026-04-18T10:56:04.994Z</time></trkpt><trkpt lat="44.1983565" lon="11.8749931"><ele>242.0</ele><time>2026-04-18T10:56:05.994Z</time></trkpt><trkpt lat="44.1982498" lon="11.8749592"><ele>242.0</ele><time>2026-04-18T10:56:06.994Z</time></trkpt><trkpt lat="44.1981503" lon="11.8748942"><ele>242.0</ele><time>2026-04-18T10:56:07.994Z</time></trkpt><trkpt lat="44.1980529" lon="11.8748177"><ele>242.0</ele><time>2026-04-18T10:56:08.993Z</time></trkpt><trkpt lat="44.1979533" lon="11.8747369"><ele>242.75</ele><time>2026-04-18T10:56:09.994Z</time></trkpt><trkpt lat="44.197849" lon="11.874663"><ele>243.5</ele><time>2026-04-18T10:56:10.993Z</time></trkpt><trkpt lat="44.1977417" lon="11.8745988"><ele>244.25</ele><time>2026-04-18T10:56:11.994Z</time></trkpt><trkpt lat="44.197632" lon="11.8745363"><ele>245.0</ele><time>2026-04-18T10:56:12.994Z</time></trkpt><trkpt lat="44.1975201" lon="11.8744673"><ele>245.0</ele><time>2026-04-18T10:56:13.993Z</time></trkpt><trkpt lat="44.1974065" lon="11.8743939"><ele>245.0</ele><time>2026-04-18T10:56:14.993Z</time></trkpt><trkpt lat="44.1972929" lon="11.8743187"><ele>245.0</ele><time>2026-04-18T10:56:15.993Z</time></trkpt><trkpt lat="44.1971738" lon="11.8742437"><ele>245.0</ele><time>2026-04-18T10:56:16.992Z</time></trkpt><trkpt lat="44.1970507" lon="11.8741684"><ele>247.0</ele><time>2026-04-18T10:56:17.992Z</time></trkpt><trkpt lat="44.1969319" lon="11.8740901"><ele>249.0</ele><time>2026-04-18T10:56:18.993Z</time></trkpt><trkpt lat="44.1968172" lon="11.8740075"><ele>251.0</ele><time>2026-04-18T10:56:19.993Z</time></trkpt><trkpt lat="44.1967029" lon="11.8739274"><ele>253.0</ele><time>2026-04-18T10:56:20.993Z</time></trkpt><trkpt lat="44.1965871" lon="11.873854"><ele>254.75</ele><time>2026-04-18T10:56:21.994Z</time></trkpt><trkpt lat="44.1964677" lon="11.8737868"><ele>256.5</ele><time>2026-04-18T10:56:22.994Z</time></trkpt><trkpt lat="44.1963486" lon="11.8737168"><ele>258.25</ele><time>2026-04-18T10:56:23.993Z</time></trkpt><trkpt lat="44.1962333" lon="11.8736368"><ele>260.0</ele><time>2026-04-18T10:56:24.994Z</time></trkpt><trkpt lat="44.1961199" lon="11.8735525"><ele>260.0</ele><time>2026-04-18T10:56:25.994Z</time></trkpt><trkpt lat="44.1960043" lon="11.873467"><ele>260.0</ele><time>2026-04-18T10:56:26.994Z</time></trkpt><trkpt lat="44.19589" lon="11.873384"><ele>260.0</ele><time>2026-04-18T10:56:27.992Z</time></trkpt><trkpt lat="44.1957816" lon="11.8733023"><ele>260.0</ele><time>2026-04-18T10:56:28.994Z</time></trkpt><trkpt lat="44.1956873" lon="11.8732138"><ele>259.2</ele><time>2026-04-18T10:56:29.993Z</time></trkpt><trkpt lat="44.1956042" lon="11.8731218"><ele>258.4</ele><time>2026-04-18T10:56:30.992Z</time></trkpt><trkpt lat="44.1955272" lon="11.8730334"><ele>257.6</ele><time>2026-04-18T10:56:31.994Z</time></trkpt><trkpt lat="44.1954527" lon="11.8729553"><ele>256.8</ele><time>2026-04-18T10:56:32.993Z</time></trkpt><trkpt lat="44.1953795" lon="11.8728885"><ele>256.0</ele><time>2026-04-18T10:56:33.993Z</time></trkpt><trkpt lat="44.1953085" lon="11.8728221"><ele>255.99999999999997</ele><time>2026-04-18T10:56:34.992Z</time></trkpt><trkpt lat="44.1952415" lon="11.872758"><ele>256.0</ele><time>2026-04-18T10:56:35.993Z</time></trkpt><trkpt lat="44.1951849" lon="11.8727002"><ele>256.0</ele><time>2026-04-18T10:56:36.994Z</time></trkpt><trkpt lat="44.1951363" lon="11.8726411"><ele>256.0</ele><time>2026-04-18T10:56:37.998Z</time></trkpt><trkpt lat="44.1950929" lon="11.8725685"><ele>255.99999999999997</ele><time>2026-04-18T10:56:38.994Z</time></trkpt><trkpt lat="44.1950517" lon="11.8724693"><ele>256.0</ele><time>2026-04-18T10:56:39.992Z</time></trkpt><trkpt lat="44.1950056" lon="11.8723463"><ele>254.75</ele><time>2026-04-18T10:56:40.993Z</time></trkpt><trkpt lat="44.1949554" lon="11.8722017"><ele>253.5</ele><time>2026-04-18T10:56:41.993Z</time></trkpt><trkpt lat="44.1949025" lon="11.8720428"><ele>252.25</ele><time>2026-04-18T10:56:42.994Z</time></trkpt><trkpt lat="44.1948432" lon="11.8718725"><ele>251.0</ele><time>2026-04-18T10:56:43.992Z</time></trkpt><trkpt lat="44.1947798" lon="11.8716967"><ele>249.25</ele><time>2026-04-18T10:56:44.993Z</time></trkpt><trkpt lat="44.1947164" lon="11.8715258"><ele>247.5</ele><time>2026-04-18T10:56:45.994Z</time></trkpt><trkpt lat="44.1946546" lon="11.8713609"><ele>245.75</ele><time>2026-04-18T10:56:46.992Z</time></trkpt><trkpt lat="44.1945907" lon="11.8712047"><ele>244.0</ele><time>2026-04-18T10:56:47.993Z</time></trkpt><trkpt lat="44.1945115" lon="11.8710679"><ele>244.0</ele><time>2026-04-18T10:56:48.992Z</time></trkpt><trkpt lat="44.1944215" lon="11.870934"><ele>244.0</ele><time>2026-04-18T10:56:49.992Z</time></trkpt><trkpt lat="44.1943097" lon="11.8708167"><ele>244.0</ele><time>2026-04-18T10:56:50.994Z</time></trkpt><trkpt lat="44.1941906" lon="11.8707007"><ele>244.0</ele><time>2026-04-18T10:56:51.993Z</time></trkpt><trkpt lat="44.1940712" lon="11.8705889"><ele>244.0</ele><time>2026-04-18T10:56:52.993Z</time></trkpt><trkpt lat="44.1939556" lon="11.870484"><ele>244.0</ele><time>2026-04-18T10:56:53.993Z</time></trkpt><trkpt lat="44.1938391" lon="11.8703958"><ele>244.0</ele><time>2026-04-18T10:56:54.994Z</time></trkpt><trkpt lat="44.1937168" lon="11.8703281"><ele>244.0</ele><time>2026-04-18T10:56:55.993Z</time></trkpt><trkpt lat="44.193588" lon="11.8702788"><ele>244.0</ele><time>2026-04-18T10:56:56.994Z</time></trkpt><trkpt lat="44.1934608" lon="11.8702402"><ele>244.0</ele><time>2026-04-18T10:56:57.992Z</time></trkpt><trkpt lat="44.1933366" lon="11.8702093"><ele>244.0</ele><time>2026-04-18T10:56:58.994Z</time></trkpt><trkpt lat="44.1932123" lon="11.8701901"><ele>244.0</ele><time>2026-04-18T10:56:59.993Z</time></trkpt><trkpt lat="44.1930894" lon="11.8701862"><ele>245.25</ele><time>2026-04-18T10:57:00.993Z</time></trkpt><trkpt lat="44.1929644" lon="11.8701992"><ele>246.5</ele><time>2026-04-18T10:57:01.995Z</time></trkpt><trkpt lat="44.1928382" lon="11.8702179"><ele>247.75</ele><time>2026-04-18T10:57:02.993Z</time></trkpt><trkpt lat="44.1927088" lon="11.8702339"><ele>249.0</ele><time>2026-04-18T10:57:03.994Z</time></trkpt><trkpt lat="44.1925784" lon="11.8702428"><ele>249.0</ele><time>2026-04-18T10:57:04.993Z</time></trkpt><trkpt lat="44.1924479" lon="11.8702466"><ele>249.0</ele><time>2026-04-18T10:57:05.994Z</time></trkpt><trkpt lat="44.1923177" lon="11.8702461"><ele>249.0</ele><time>2026-04-18T10:57:06.993Z</time></trkpt><trkpt lat="44.192192" lon="11.8702572"><ele>249.0</ele><time>2026-04-18T10:57:07.993Z</time></trkpt><trkpt lat="44.192072" lon="11.870293"><ele>251.75</ele><time>2026-04-18T10:57:08.991Z</time></trkpt><trkpt lat="44.1919566" lon="11.8703574"><ele>254.5</ele><time>2026-04-18T10:57:09.993Z</time></trkpt><trkpt lat="44.1918412" lon="11.870429"><ele>257.25</ele><time>2026-04-18T10:57:10.993Z</time></trkpt><trkpt lat="44.1917269" lon="11.870497"><ele>260.0</ele><time>2026-04-18T10:57:11.993Z</time></trkpt><trkpt lat="44.1916106" lon="11.87056"><ele>260.2</ele><time>2026-04-18T10:57:12.994Z</time></trkpt><trkpt lat="44.1915003" lon="11.8706115"><ele>260.4</ele><time>2026-04-18T10:57:13.998Z</time></trkpt><trkpt lat="44.1914012" lon="11.8706429"><ele>260.6</ele><time>2026-04-18T10:57:14.993Z</time></trkpt><trkpt lat="44.191321" lon="11.8706399"><ele>260.8</ele><time>2026-04-18T10:57:15.993Z</time></trkpt><trkpt lat="44.1912432" lon="11.8706105"><ele>261.0</ele><time>2026-04-18T10:57:16.994Z</time></trkpt><trkpt lat="44.19118" lon="11.8705506"><ele>261.0</ele><time>2026-04-18T10:57:17.992Z</time></trkpt><trkpt lat="44.1911254" lon="11.8704924"><ele>261.0</ele><time>2026-04-18T10:57:18.993Z</time></trkpt><trkpt lat="44.1910953" lon="11.8704053"><ele>261.0</ele><time>2026-04-18T10:57:19.993Z</time></trkpt><trkpt lat="44.1910794" lon="11.8702964"><ele>261.0</ele><time>2026-04-18T10:57:20.994Z</time></trkpt><trkpt lat="44.1910745" lon="11.8701664"><ele>261.0</ele><time>2026-04-18T10:57:21.994Z</time></trkpt><trkpt lat="44.1910897" lon="11.8699958"><ele>261.0</ele><time>2026-04-18T10:57:22.992Z</time></trkpt><trkpt lat="44.1910991" lon="11.8698408"><ele>264.2</ele><time>2026-04-18T10:57:23.994Z</time></trkpt><trkpt lat="44.1911046" lon="11.8696785"><ele>267.40000000000003</ele><time>2026-04-18T10:57:24.994Z</time></trkpt><trkpt lat="44.1910898" lon="11.8695168"><ele>270.6</ele><time>2026-04-18T10:57:25.992Z</time></trkpt><trkpt lat="44.1910644" lon="11.8693887"><ele>273.8</ele><time>2026-04-18T10:57:26.993Z</time></trkpt><trkpt lat="44.1910115" lon="11.8692802"><ele>277.0</ele><time>2026-04-18T10:57:27.992Z</time></trkpt><trkpt lat="44.1909463" lon="11.8691891"><ele>278.0</ele><time>2026-04-18T10:57:28.993Z</time></trkpt><trkpt lat="44.1908792" lon="11.8691058"><ele>279.0</ele><time>2026-04-18T10:57:29.994Z</time></trkpt><trkpt lat="44.1907887" lon="11.8690345"><ele>280.0</ele><time>2026-04-18T10:57:30.995Z</time></trkpt><trkpt lat="44.1906881" lon="11.8689585"><ele>281.0</ele><time>2026-04-18T10:57:31.993Z</time></trkpt><trkpt lat="44.1905824" lon="11.8688795"><ele>282.0</ele><time>2026-04-18T10:57:32.994Z</time></trkpt><trkpt lat="44.1904761" lon="11.8687939"><ele>283.5</ele><time>2026-04-18T10:57:33.994Z</time></trkpt><trkpt lat="44.1903705" lon="11.8687028"><ele>285.0</ele><time>2026-04-18T10:57:34.996Z</time></trkpt><trkpt lat="44.1902655" lon="11.8686145"><ele>286.5</ele><time>2026-04-18T10:57:35.995Z</time></trkpt><trkpt lat="44.1901575" lon="11.868531"><ele>288.0</ele><time>2026-04-18T10:57:36.994Z</time></trkpt><trkpt lat="44.1900451" lon="11.8684541"><ele>289.25</ele><time>2026-04-18T10:57:37.993Z</time></trkpt><trkpt lat="44.1899288" lon="11.8683776"><ele>290.5</ele><time>2026-04-18T10:57:38.994Z</time></trkpt><trkpt lat="44.1898133" lon="11.8682981"><ele>291.75</ele><time>2026-04-18T10:57:39.994Z</time></trkpt><trkpt lat="44.1897012" lon="11.868214"><ele>293.0</ele><time>2026-04-18T10:57:40.994Z</time></trkpt><trkpt lat="44.1895901" lon="11.8681265"><ele>295.25</ele><time>2026-04-18T10:57:41.994Z</time></trkpt><trkpt lat="44.1894837" lon="11.8680329"><ele>297.5</ele><time>2026-04-18T10:57:42.993Z</time></trkpt><trkpt lat="44.1893811" lon="11.8679257"><ele>299.75</ele><time>2026-04-18T10:57:43.995Z</time></trkpt><trkpt lat="44.1892823" lon="11.8678142"><ele>302.0</ele><time>2026-04-18T10:57:44.994Z</time></trkpt><trkpt lat="44.1891853" lon="11.8677045"><ele>303.0</ele><time>2026-04-18T10:57:45.993Z</time></trkpt><trkpt lat="44.1890908" lon="11.867605"><ele>304.0</ele><time>2026-04-18T10:57:46.992Z</time></trkpt><trkpt lat="44.188999" lon="11.8675147"><ele>305.0</ele><time>2026-04-18T10:57:47.993Z</time></trkpt><trkpt lat="44.1889116" lon="11.8674312"><ele>306.0</ele><time>2026-04-18T10:57:48.993Z</time></trkpt><trkpt lat="44.188834" lon="11.8673574"><ele>307.0</ele><time>2026-04-18T10:57:49.992Z</time></trkpt><trkpt lat="44.1887709" lon="11.8672883"><ele>309.6</ele><time>2026-04-18T10:57:50.993Z</time></trkpt><trkpt lat="44.1887205" lon="11.8671313"><ele>312.2</ele><time>2026-04-18T10:57:52.994Z</time></trkpt><trkpt lat="44.1887143" lon="11.8670383"><ele>314.8</ele><time>2026-04-18T10:57:53.994Z</time></trkpt><trkpt lat="44.1887409" lon="11.8669295"><ele>317.4</ele><time>2026-04-18T10:57:54.995Z</time></trkpt><trkpt lat="44.1887812" lon="11.8668008"><ele>320.0</ele><time>2026-04-18T10:57:55.993Z</time></trkpt><trkpt lat="44.1888336" lon="11.8666602"><ele>321.0</ele><time>2026-04-18T10:57:56.993Z</time></trkpt><trkpt lat="44.1888981" lon="11.8665128"><ele>322.0</ele><time>2026-04-18T10:57:57.994Z</time></trkpt><trkpt lat="44.1889676" lon="11.8663567"><ele>323.0</ele><time>2026-04-18T10:57:58.993Z</time></trkpt><trkpt lat="44.189032" lon="11.866178"><ele>324.0</ele><time>2026-04-18T10:57:59.993Z</time></trkpt><trkpt lat="44.1890897" lon="11.8659937"><ele>321.75</ele><time>2026-04-18T10:58:00.994Z</time></trkpt><trkpt lat="44.1891511" lon="11.865813"><ele>319.5</ele><time>2026-04-18T10:58:01.993Z</time></trkpt><trkpt lat="44.189217" lon="11.8656358"><ele>317.25</ele><time>2026-04-18T10:58:02.994Z</time></trkpt><trkpt lat="44.1892897" lon="11.8654562"><ele>315.0</ele><time>2026-04-18T10:58:03.993Z</time></trkpt><trkpt lat="44.1893607" lon="11.8652746"><ele>316.3333333333333</ele><time>2026-04-18T10:58:04.994Z</time></trkpt><trkpt lat="44.1894402" lon="11.8650911"><ele>317.66666666666663</ele><time>2026-04-18T10:58:05.994Z</time></trkpt><trkpt lat="44.1895302" lon="11.8649147"><ele>319.0</ele><time>2026-04-18T10:58:06.996Z</time></trkpt><trkpt lat="44.189628" lon="11.8647429"><ele>319.0</ele><time>2026-04-18T10:58:07.993Z</time></trkpt><trkpt lat="44.1897292" lon="11.8645704"><ele>319.0</ele><time>2026-04-18T10:58:08.993Z</time></trkpt><trkpt lat="44.1898315" lon="11.8643948"><ele>319.0</ele><time>2026-04-18T10:58:09.992Z</time></trkpt><trkpt lat="44.1899396" lon="11.8642239"><ele>317.0</ele><time>2026-04-18T10:58:10.992Z</time></trkpt><trkpt lat="44.1900579" lon="11.8640658"><ele>315.0</ele><time>2026-04-18T10:58:11.993Z</time></trkpt><trkpt lat="44.1901841" lon="11.8639165"><ele>313.0</ele><time>2026-04-18T10:58:12.994Z</time></trkpt><trkpt lat="44.1903109" lon="11.8637755"><ele>313.0</ele><time>2026-04-18T10:58:13.993Z</time></trkpt><trkpt lat="44.1904335" lon="11.8636397"><ele>313.0</ele><time>2026-04-18T10:58:14.994Z</time></trkpt><trkpt lat="44.1905483" lon="11.8635195"><ele>313.0</ele><time>2026-04-18T10:58:15.993Z</time></trkpt><trkpt lat="44.1906666" lon="11.8634133"><ele>313.0</ele><time>2026-04-18T10:58:16.994Z</time></trkpt><trkpt lat="44.1907848" lon="11.8633071"><ele>312.66666666666663</ele><time>2026-04-18T10:58:17.993Z</time></trkpt><trkpt lat="44.1909005" lon="11.8631887"><ele>312.3333333333333</ele><time>2026-04-18T10:58:18.992Z</time></trkpt><trkpt lat="44.1910134" lon="11.8630313"><ele>312.0</ele><time>2026-04-18T10:58:19.993Z</time></trkpt><trkpt lat="44.1911221" lon="11.8628665"><ele>312.0</ele><time>2026-04-18T10:58:20.993Z</time></trkpt><trkpt lat="44.1912261" lon="11.8626659"><ele>312.0</ele><time>2026-04-18T10:58:21.992Z</time></trkpt><trkpt lat="44.1913285" lon="11.8624575"><ele>312.0</ele><time>2026-04-18T10:58:22.993Z</time></trkpt><trkpt lat="44.1914289" lon="11.8622539"><ele>306.6666666666667</ele><time>2026-04-18T10:58:23.993Z</time></trkpt><trkpt lat="44.1915223" lon="11.8620574"><ele>301.33333333333337</ele><time>2026-04-18T10:58:24.994Z</time></trkpt><trkpt lat="44.1916113" lon="11.8618746"><ele>296.0</ele><time>2026-04-18T10:58:25.992Z</time></trkpt><trkpt lat="44.1916846" lon="11.8617163"><ele>296.0</ele><time>2026-04-18T10:58:26.993Z</time></trkpt><trkpt lat="44.1917515" lon="11.8615822"><ele>296.0</ele><time>2026-04-18T10:58:27.993Z</time></trkpt><trkpt lat="44.191828" lon="11.8615007"><ele>296.0</ele><time>2026-04-18T10:58:28.992Z</time></trkpt><trkpt lat="44.1919276" lon="11.8614566"><ele>296.0</ele><time>2026-04-18T10:58:29.992Z</time></trkpt><trkpt lat="44.1920334" lon="11.8614271"><ele>296.0</ele><time>2026-04-18T10:58:30.993Z</time></trkpt><trkpt lat="44.1921665" lon="11.861426"><ele>296.0</ele><time>2026-04-18T10:58:31.993Z</time></trkpt><trkpt lat="44.1922985" lon="11.8613715"><ele>296.0</ele><time>2026-04-18T10:58:32.993Z</time></trkpt><trkpt lat="44.1924242" lon="11.8613031"><ele>296.0</ele><time>2026-04-18T10:58:33.994Z</time></trkpt><trkpt lat="44.1925685" lon="11.8611957"><ele>296.0</ele><time>2026-04-18T10:58:34.993Z</time></trkpt><trkpt lat="44.1927121" lon="11.8610968"><ele>295.6666666666667</ele><time>2026-04-18T10:58:35.994Z</time></trkpt><trkpt lat="44.1928527" lon="11.8609965"><ele>295.3333333333333</ele><time>2026-04-18T10:58:36.994Z</time></trkpt><trkpt lat="44.1929798" lon="11.8608827"><ele>295.0</ele><time>2026-04-18T10:58:37.993Z</time></trkpt><trkpt lat="44.1930921" lon="11.8607322"><ele>286.66666666666663</ele><time>2026-04-18T10:58:38.994Z</time></trkpt><trkpt lat="44.1931951" lon="11.860569"><ele>278.3333333333333</ele><time>2026-04-18T10:58:39.993Z</time></trkpt><trkpt lat="44.1932807" lon="11.8603793"><ele>270.0</ele><time>2026-04-18T10:58:40.992Z</time></trkpt><trkpt lat="44.1933584" lon="11.8601841"><ele>274.6666666666667</ele><time>2026-04-18T10:58:41.994Z</time></trkpt><trkpt lat="44.1934348" lon="11.8599854"><ele>279.33333333333337</ele><time>2026-04-18T10:58:42.992Z</time></trkpt><trkpt lat="44.1935148" lon="11.8597872"><ele>284.0</ele><time>2026-04-18T10:58:43.996Z</time></trkpt><trkpt lat="44.1935939" lon="11.8595979"><ele>284.0</ele><time>2026-04-18T10:58:44.993Z</time></trkpt><trkpt lat="44.1936683" lon="11.8594217"><ele>284.0</ele><time>2026-04-18T10:58:45.994Z</time></trkpt><trkpt lat="44.19375" lon="11.8592533"><ele>284.0</ele><time>2026-04-18T10:58:46.993Z</time></trkpt><trkpt lat="44.1938417" lon="11.8591083"><ele>284.0</ele><time>2026-04-18T10:58:47.993Z</time></trkpt><trkpt lat="44.19395" lon="11.85898"><ele>282.2</ele><time>2026-04-18T10:58:48.994Z</time></trkpt><trkpt lat="44.194055" lon="11.8588767"><ele>280.4</ele><time>2026-04-18T10:58:49.993Z</time></trkpt><trkpt lat="44.1941483" lon="11.8588367"><ele>278.6</ele><time>2026-04-18T10:58:50.994Z</time></trkpt><trkpt lat="44.1942283" lon="11.858835"><ele>276.8</ele><time>2026-04-18T10:58:51.993Z</time></trkpt><trkpt lat="44.1943167" lon="11.858865"><ele>275.0</ele><time>2026-04-18T10:58:52.993Z</time></trkpt><trkpt lat="44.1944117" lon="11.8589167"><ele>275.0</ele><time>2026-04-18T10:58:53.993Z</time></trkpt><trkpt lat="44.1945133" lon="11.8589833"><ele>275.0</ele><time>2026-04-18T10:58:54.993Z</time></trkpt><trkpt lat="44.1946183" lon="11.859055"><ele>275.0</ele><time>2026-04-18T10:58:55.992Z</time></trkpt><trkpt lat="44.19472" lon="11.8591133"><ele>275.0</ele><time>2026-04-18T10:58:56.993Z</time></trkpt><trkpt lat="44.194825" lon="11.85914"><ele>275.0</ele><time>2026-04-18T10:58:57.993Z</time></trkpt><trkpt lat="44.1949367" lon="11.85913"><ele>275.25</ele><time>2026-04-18T10:58:58.993Z</time></trkpt><trkpt lat="44.1950483" lon="11.859095"><ele>275.5</ele><time>2026-04-18T10:58:59.993Z</time></trkpt><trkpt lat="44.1951667" lon="11.8590333"><ele>275.75</ele><time>2026-04-18T10:59:00.993Z</time></trkpt><trkpt lat="44.195285" lon="11.8589683"><ele>276.0</ele><time>2026-04-18T10:59:01.993Z</time></trkpt><trkpt lat="44.195405" lon="11.8589"><ele>276.0</ele><time>2026-04-18T10:59:02.993Z</time></trkpt><trkpt lat="44.1955333" lon="11.8588283"><ele>276.0</ele><time>2026-04-18T10:59:03.994Z</time></trkpt><trkpt lat="44.1956567" lon="11.8587583"><ele>276.0</ele><time>2026-04-18T10:59:04.993Z</time></trkpt><trkpt lat="44.195775" lon="11.8586917"><ele>276.0</ele><time>2026-04-18T10:59:05.993Z</time></trkpt><trkpt lat="44.19589" lon="11.8586233"><ele>276.25</ele><time>2026-04-18T10:59:06.993Z</time></trkpt><trkpt lat="44.1960067" lon="11.8585433"><ele>276.5</ele><time>2026-04-18T10:59:07.994Z</time></trkpt><trkpt lat="44.1961283" lon="11.8584567"><ele>276.75</ele><time>2026-04-18T10:59:08.993Z</time></trkpt><trkpt lat="44.19625" lon="11.8583783"><ele>277.0</ele><time>2026-04-18T10:59:09.993Z</time></trkpt><trkpt lat="44.1963767" lon="11.8583283"><ele>273.75</ele><time>2026-04-18T10:59:10.995Z</time></trkpt><trkpt lat="44.19651" lon="11.85831"><ele>270.5</ele><time>2026-04-18T10:59:11.993Z</time></trkpt><trkpt lat="44.19665" lon="11.858315"><ele>267.25</ele><time>2026-04-18T10:59:12.994Z</time></trkpt><trkpt lat="44.1967983" lon="11.8583333"><ele>264.0</ele><time>2026-04-18T10:59:13.994Z</time></trkpt><trkpt lat="44.1969533" lon="11.8583633"><ele>264.0</ele><time>2026-04-18T10:59:14.993Z</time></trkpt><trkpt lat="44.1971067" lon="11.8583967"><ele>264.0</ele><time>2026-04-18T10:59:15.993Z</time></trkpt><trkpt lat="44.1972633" lon="11.8584317"><ele>264.0</ele><time>2026-04-18T10:59:16.993Z</time></trkpt><trkpt lat="44.1974183" lon="11.858465"><ele>260.25</ele><time>2026-04-18T10:59:17.993Z</time></trkpt><trkpt lat="44.1975717" lon="11.8585017"><ele>256.5</ele><time>2026-04-18T10:59:18.994Z</time></trkpt><trkpt lat="44.1977133" lon="11.8585333"><ele>252.75</ele><time>2026-04-18T10:59:19.993Z</time></trkpt><trkpt lat="44.1978367" lon="11.8585617"><ele>249.0</ele><time>2026-04-18T10:59:20.994Z</time></trkpt><trkpt lat="44.1979433" lon="11.8585933"><ele>249.0</ele><time>2026-04-18T10:59:21.993Z</time></trkpt><trkpt lat="44.1980317" lon="11.85864"><ele>248.99999999999997</ele><time>2026-04-18T10:59:22.993Z</time></trkpt><trkpt lat="44.1981017" lon="11.85873"><ele>248.99999999999997</ele><time>2026-04-18T10:59:23.993Z</time></trkpt><trkpt lat="44.1981433" lon="11.8588583"><ele>249.0</ele><time>2026-04-18T10:59:24.993Z</time></trkpt><trkpt lat="44.1981583" lon="11.8590083"><ele>249.0</ele><time>2026-04-18T10:59:25.992Z</time></trkpt><trkpt lat="44.19818" lon="11.859165"><ele>244.75</ele><time>2026-04-18T10:59:26.994Z</time></trkpt><trkpt lat="44.1982267" lon="11.859315"><ele>240.5</ele><time>2026-04-18T10:59:27.993Z</time></trkpt><trkpt lat="44.1982933" lon="11.8594567"><ele>236.25</ele><time>2026-04-18T10:59:28.993Z</time></trkpt><trkpt lat="44.19838" lon="11.859585"><ele>232.0</ele><time>2026-04-18T10:59:29.993Z</time></trkpt><trkpt lat="44.1984817" lon="11.8597217"><ele>232.0</ele><time>2026-04-18T10:59:30.995Z</time></trkpt><trkpt lat="44.1985867" lon="11.8598667"><ele>232.0</ele><time>2026-04-18T10:59:31.994Z</time></trkpt><trkpt lat="44.1986967" lon="11.86002"><ele>232.0</ele><time>2026-04-18T10:59:32.993Z</time></trkpt><trkpt lat="44.1988117" lon="11.8601767"><ele>228.66666666666666</ele><time>2026-04-18T10:59:33.993Z</time></trkpt><trkpt lat="44.1989317" lon="11.8603367"><ele>225.33333333333331</ele><time>2026-04-18T10:59:34.994Z</time></trkpt><trkpt lat="44.1990533" lon="11.860495"><ele>222.0</ele><time>2026-04-18T10:59:35.993Z</time></trkpt><trkpt lat="44.1991783" lon="11.8606433"><ele>222.0</ele><time>2026-04-18T10:59:36.995Z</time></trkpt><trkpt lat="44.1993167" lon="11.8607667"><ele>222.0</ele><time>2026-04-18T10:59:37.993Z</time></trkpt><trkpt lat="44.1994667" lon="11.8608617"><ele>222.0</ele><time>2026-04-18T10:59:38.993Z</time></trkpt><trkpt lat="44.1996183" lon="11.8609333"><ele>221.5</ele><time>2026-04-18T10:59:39.993Z</time></trkpt><trkpt lat="44.1997633" lon="11.8610017"><ele>221.0</ele><time>2026-04-18T10:59:40.993Z</time></trkpt><trkpt lat="44.1998983" lon="11.86108"><ele>220.5</ele><time>2026-04-18T10:59:41.995Z</time></trkpt><trkpt lat="44.2000167" lon="11.86118"><ele>220.0</ele><time>2026-04-18T10:59:42.994Z</time></trkpt><trkpt lat="44.2001317" lon="11.8612933"><ele>220.0</ele><time>2026-04-18T10:59:43.994Z</time></trkpt><trkpt lat="44.2002483" lon="11.8614"><ele>220.0</ele><time>2026-04-18T10:59:44.995Z</time></trkpt><trkpt lat="44.2003767" lon="11.861495"><ele>220.0</ele><time>2026-04-18T10:59:45.994Z</time></trkpt><trkpt lat="44.2005167" lon="11.86157"><ele>220.0</ele><time>2026-04-18T10:59:46.993Z</time></trkpt><trkpt lat="44.2006617" lon="11.8616383"><ele>218.33333333333331</ele><time>2026-04-18T10:59:47.993Z</time></trkpt><trkpt lat="44.20081" lon="11.861705"><ele>216.66666666666669</ele><time>2026-04-18T10:59:48.994Z</time></trkpt><trkpt lat="44.2009583" lon="11.8617683"><ele>215.0</ele><time>2026-04-18T10:59:49.993Z</time></trkpt><trkpt lat="44.20111" lon="11.86183"><ele>215.0</ele><time>2026-04-18T10:59:50.993Z</time></trkpt><trkpt lat="44.2012617" lon="11.8618917"><ele>215.0</ele><time>2026-04-18T10:59:51.994Z</time></trkpt><trkpt lat="44.2014117" lon="11.8619533"><ele>215.0</ele><time>2026-04-18T10:59:52.993Z</time></trkpt><trkpt lat="44.2015617" lon="11.8620133"><ele>219.66666666666669</ele><time>2026-04-18T10:59:53.993Z</time></trkpt><trkpt lat="44.20171" lon="11.862075"><ele>224.33333333333331</ele><time>2026-04-18T10:59:54.993Z</time></trkpt><trkpt lat="44.2018533" lon="11.8621333"><ele>229.0</ele><time>2026-04-18T10:59:55.994Z</time></trkpt><trkpt lat="44.202" lon="11.8622017"><ele>229.0</ele><time>2026-04-18T10:59:56.993Z</time></trkpt><trkpt lat="44.2021467" lon="11.8622733"><ele>229.0</ele><time>2026-04-18T10:59:57.993Z</time></trkpt><trkpt lat="44.2022917" lon="11.8623433"><ele>229.0</ele><time>2026-04-18T10:59:58.993Z</time></trkpt><trkpt lat="44.2024383" lon="11.8623983"><ele>228.75</ele><time>2026-04-18T10:59:59.993Z</time></trkpt><trkpt lat="44.2025833" lon="11.8624167"><ele>228.5</ele><time>2026-04-18T11:00:00.993Z</time></trkpt><trkpt lat="44.2027333" lon="11.86239"><ele>228.25</ele><time>2026-04-18T11:00:01.995Z</time></trkpt><trkpt lat="44.2028833" lon="11.8623517"><ele>228.0</ele><time>2026-04-18T11:00:02.995Z</time></trkpt><trkpt lat="44.20303" lon="11.8623133"><ele>226.75</ele><time>2026-04-18T11:00:03.994Z</time></trkpt><trkpt lat="44.203175" lon="11.8622817"><ele>225.5</ele><time>2026-04-18T11:00:04.993Z</time></trkpt><trkpt lat="44.2033233" lon="11.8622617"><ele>224.25</ele><time>2026-04-18T11:00:05.994Z</time></trkpt><trkpt lat="44.2034733" lon="11.8622567"><ele>223.0</ele><time>2026-04-18T11:00:06.993Z</time></trkpt><trkpt lat="44.2036267" lon="11.8622467"><ele>223.0</ele><time>2026-04-18T11:00:07.994Z</time></trkpt><trkpt lat="44.20378" lon="11.8622183"><ele>223.0</ele><time>2026-04-18T11:00:08.994Z</time></trkpt><trkpt lat="44.2039267" lon="11.86216"><ele>223.0</ele><time>2026-04-18T11:00:09.994Z</time></trkpt><trkpt lat="44.2040633" lon="11.8620633"><ele>218.0</ele><time>2026-04-18T11:00:10.994Z</time></trkpt><trkpt lat="44.2042" lon="11.8619467"><ele>213.0</ele><time>2026-04-18T11:00:11.992Z</time></trkpt><trkpt lat="44.204335" lon="11.8618233"><ele>208.0</ele><time>2026-04-18T11:00:12.994Z</time></trkpt><trkpt lat="44.2044617" lon="11.8616933"><ele>207.33333333333331</ele><time>2026-04-18T11:00:13.994Z</time></trkpt><trkpt lat="44.20458" lon="11.8615467"><ele>206.66666666666669</ele><time>2026-04-18T11:00:14.994Z</time></trkpt><trkpt lat="44.2046917" lon="11.8613917"><ele>206.0</ele><time>2026-04-18T11:00:15.995Z</time></trkpt><trkpt lat="44.2048033" lon="11.8612267"><ele>205.0</ele><time>2026-04-18T11:00:16.993Z</time></trkpt><trkpt lat="44.2049017" lon="11.8610533"><ele>204.0</ele><time>2026-04-18T11:00:17.994Z</time></trkpt><trkpt lat="44.204995" lon="11.8608883"><ele>203.0</ele><time>2026-04-18T11:00:18.993Z</time></trkpt><trkpt lat="44.205085" lon="11.8607283"><ele>205.0</ele><time>2026-04-18T11:00:19.995Z</time></trkpt><trkpt lat="44.20517" lon="11.8605833"><ele>207.0</ele><time>2026-04-18T11:00:20.994Z</time></trkpt><trkpt lat="44.2052483" lon="11.86045"><ele>209.0</ele><time>2026-04-18T11:00:21.994Z</time></trkpt><trkpt lat="44.20531" lon="11.8603217"><ele>211.0</ele><time>2026-04-18T11:00:22.993Z</time></trkpt><trkpt lat="44.2053583" lon="11.8601933"><ele>210.0</ele><time>2026-04-18T11:00:23.993Z</time></trkpt><trkpt lat="44.2053917" lon="11.8600617"><ele>209.0</ele><time>2026-04-18T11:00:24.994Z</time></trkpt><trkpt lat="44.2054167" lon="11.8599133"><ele>208.0</ele><time>2026-04-18T11:00:25.994Z</time></trkpt><trkpt lat="44.2054367" lon="11.8597517"><ele>207.0</ele><time>2026-04-18T11:00:26.994Z</time></trkpt><trkpt lat="44.2054633" lon="11.8595967"><ele>206.0</ele><time>2026-04-18T11:00:27.994Z</time></trkpt><trkpt lat="44.2054983" lon="11.8594433"><ele>206.0</ele><time>2026-04-18T11:00:28.993Z</time></trkpt><trkpt lat="44.2055383" lon="11.8592933"><ele>206.0</ele><time>2026-04-18T11:00:29.993Z</time></trkpt><trkpt lat="44.2055817" lon="11.85914"><ele>206.0</ele><time>2026-04-18T11:00:30.993Z</time></trkpt><trkpt lat="44.2056283" lon="11.858985"><ele>206.0</ele><time>2026-04-18T11:00:31.996Z</time></trkpt><trkpt lat="44.2056767" lon="11.85883"><ele>206.0</ele><time>2026-04-18T11:00:32.993Z</time></trkpt><trkpt lat="44.2057217" lon="11.8586767"><ele>206.0</ele><time>2026-04-18T11:00:33.994Z</time></trkpt><trkpt lat="44.2057567" lon="11.8585133"><ele>206.0</ele><time>2026-04-18T11:00:34.993Z</time></trkpt><trkpt lat="44.205785" lon="11.8583417"><ele>206.0</ele><time>2026-04-18T11:00:35.993Z</time></trkpt><trkpt lat="44.2058033" lon="11.8581617"><ele>205.75</ele><time>2026-04-18T11:00:36.993Z</time></trkpt><trkpt lat="44.205815" lon="11.8579783"><ele>205.5</ele><time>2026-04-18T11:00:37.993Z</time></trkpt><trkpt lat="44.2058267" lon="11.8577983"><ele>205.25</ele><time>2026-04-18T11:00:38.994Z</time></trkpt><trkpt lat="44.205855" lon="11.8576383"><ele>205.0</ele><time>2026-04-18T11:00:39.993Z</time></trkpt><trkpt lat="44.2059067" lon="11.8574983"><ele>203.5</ele><time>2026-04-18T11:00:40.998Z</time></trkpt><trkpt lat="44.2059767" lon="11.85737"><ele>202.0</ele><time>2026-04-18T11:00:41.992Z</time></trkpt><trkpt lat="44.20605" lon="11.85724"><ele>200.5</ele><time>2026-04-18T11:00:42.993Z</time></trkpt><trkpt lat="44.2061267" lon="11.857095"><ele>199.0</ele><time>2026-04-18T11:00:43.993Z</time></trkpt><trkpt lat="44.2061967" lon="11.856935"><ele>198.0</ele><time>2026-04-18T11:00:44.994Z</time></trkpt><trkpt lat="44.206255" lon="11.8567667"><ele>197.0</ele><time>2026-04-18T11:00:45.993Z</time></trkpt><trkpt lat="44.2063017" lon="11.8565917"><ele>196.0</ele><time>2026-04-18T11:00:46.994Z</time></trkpt><trkpt lat="44.2063533" lon="11.8564333"><ele>195.0</ele><time>2026-04-18T11:00:47.995Z</time></trkpt><trkpt lat="44.2064267" lon="11.8563"><ele>191.75</ele><time>2026-04-18T11:00:48.994Z</time></trkpt><trkpt lat="44.2065217" lon="11.8562"><ele>188.5</ele><time>2026-04-18T11:00:49.993Z</time></trkpt><trkpt lat="44.2066317" lon="11.856135"><ele>185.25</ele><time>2026-04-18T11:00:50.995Z</time></trkpt><trkpt lat="44.20676" lon="11.856085"><ele>182.0</ele><time>2026-04-18T11:00:51.994Z</time></trkpt><trkpt lat="44.2068967" lon="11.85606"><ele>182.0</ele><time>2026-04-18T11:00:52.993Z</time></trkpt><trkpt lat="44.2070417" lon="11.8560533"><ele>182.0</ele><time>2026-04-18T11:00:53.993Z</time></trkpt><trkpt lat="44.2071867" lon="11.856055"><ele>182.0</ele><time>2026-04-18T11:00:54.993Z</time></trkpt><trkpt lat="44.207335" lon="11.856075"><ele>182.0</ele><time>2026-04-18T11:00:55.994Z</time></trkpt><trkpt lat="44.207485" lon="11.8560933"><ele>175.0</ele><time>2026-04-18T11:00:56.993Z</time></trkpt><trkpt lat="44.20764" lon="11.8560867"><ele>168.0</ele><time>2026-04-18T11:00:57.994Z</time></trkpt><trkpt lat="44.2078" lon="11.8560567"><ele>161.0</ele><time>2026-04-18T11:00:58.993Z</time></trkpt><trkpt lat="44.2079567" lon="11.856015"><ele>161.0</ele><time>2026-04-18T11:00:59.994Z</time></trkpt><trkpt lat="44.20811" lon="11.8559633"><ele>161.0</ele><time>2026-04-18T11:01:00.994Z</time></trkpt><trkpt lat="44.2082583" lon="11.8559233"><ele>161.0</ele><time>2026-04-18T11:01:01.999Z</time></trkpt><trkpt lat="44.2084017" lon="11.8559367"><ele>158.0</ele><time>2026-04-18T11:01:02.993Z</time></trkpt><trkpt lat="44.2085417" lon="11.8559717"><ele>155.0</ele><time>2026-04-18T11:01:03.994Z</time></trkpt><trkpt lat="44.2086833" lon="11.8559883"><ele>152.0</ele><time>2026-04-18T11:01:04.994Z</time></trkpt><trkpt lat="44.2088233" lon="11.8559833"><ele>149.0</ele><time>2026-04-18T11:01:05.994Z</time></trkpt><trkpt lat="44.2089633" lon="11.8559683"><ele>148.0</ele><time>2026-04-18T11:01:06.993Z</time></trkpt><trkpt lat="44.20911" lon="11.8559417"><ele>147.0</ele><time>2026-04-18T11:01:07.994Z</time></trkpt><trkpt lat="44.2092583" lon="11.855895"><ele>146.0</ele><time>2026-04-18T11:01:08.995Z</time></trkpt><trkpt lat="44.2094083" lon="11.8558317"><ele>146.0</ele><time>2026-04-18T11:01:09.994Z</time></trkpt><trkpt lat="44.209565" lon="11.8557633"><ele>146.0</ele><time>2026-04-18T11:01:10.994Z</time></trkpt><trkpt lat="44.2097317" lon="11.8557083"><ele>146.0</ele><time>2026-04-18T11:01:11.992Z</time></trkpt><trkpt lat="44.2099083" lon="11.8556667"><ele>144.0</ele><time>2026-04-18T11:01:12.994Z</time></trkpt><trkpt lat="44.2100883" lon="11.855635"><ele>142.0</ele><time>2026-04-18T11:01:13.994Z</time></trkpt><trkpt lat="44.21027" lon="11.8556"><ele>140.0</ele><time>2026-04-18T11:01:14.994Z</time></trkpt><trkpt lat="44.2104583" lon="11.8555617"><ele>140.0</ele><time>2026-04-18T11:01:15.994Z</time></trkpt><trkpt lat="44.2106433" lon="11.85552"><ele>140.0</ele><time>2026-04-18T11:01:16.993Z</time></trkpt><trkpt lat="44.21082" lon="11.85548"><ele>140.0</ele><time>2026-04-18T11:01:17.995Z</time></trkpt><trkpt lat="44.210985" lon="11.855445"><ele>138.0</ele><time>2026-04-18T11:01:18.993Z</time></trkpt><trkpt lat="44.2111467" lon="11.855435"><ele>136.0</ele><time>2026-04-18T11:01:19.994Z</time></trkpt><trkpt lat="44.2112933" lon="11.8554717"><ele>134.0</ele><time>2026-04-18T11:01:20.997Z</time></trkpt><trkpt lat="44.211435" lon="11.85554"><ele>135.33333333333331</ele><time>2026-04-18T11:01:21.993Z</time></trkpt><trkpt lat="44.2115733" lon="11.8556283"><ele>136.66666666666666</ele><time>2026-04-18T11:01:22.993Z</time></trkpt><trkpt lat="44.2117167" lon="11.8557367"><ele>138.0</ele><time>2026-04-18T11:01:23.994Z</time></trkpt><trkpt lat="44.21186" lon="11.8558567"><ele>134.0</ele><time>2026-04-18T11:01:24.994Z</time></trkpt><trkpt lat="44.212005" lon="11.8559717"><ele>130.0</ele><time>2026-04-18T11:01:25.994Z</time></trkpt><trkpt lat="44.21214" lon="11.8560917"><ele>126.0</ele><time>2026-04-18T11:01:26.993Z</time></trkpt><trkpt lat="44.2122617" lon="11.8562133"><ele>127.25</ele><time>2026-04-18T11:01:27.993Z</time></trkpt><trkpt lat="44.212365" lon="11.8563367"><ele>128.5</ele><time>2026-04-18T11:01:28.993Z</time></trkpt><trkpt lat="44.21245" lon="11.85645"><ele>129.75</ele><time>2026-04-18T11:01:29.995Z</time></trkpt><trkpt lat="44.2125383" lon="11.8565367"><ele>131.0</ele><time>2026-04-18T11:01:30.994Z</time></trkpt><trkpt lat="44.2126433" lon="11.8566"><ele>131.0</ele><time>2026-04-18T11:01:31.994Z</time></trkpt><trkpt lat="44.21276" lon="11.856625"><ele>131.0</ele><time>2026-04-18T11:01:32.995Z</time></trkpt><trkpt lat="44.21289" lon="11.856605"><ele>131.0</ele><time>2026-04-18T11:01:33.994Z</time></trkpt><trkpt lat="44.2130283" lon="11.8565733"><ele>131.0</ele><time>2026-04-18T11:01:34.993Z</time></trkpt><trkpt lat="44.2131783" lon="11.8565433"><ele>128.5</ele><time>2026-04-18T11:01:35.993Z</time></trkpt><trkpt lat="44.2133267" lon="11.85649"><ele>126.0</ele><time>2026-04-18T11:01:36.993Z</time></trkpt><trkpt lat="44.2134567" lon="11.8564217"><ele>123.5</ele><time>2026-04-18T11:01:37.993Z</time></trkpt><trkpt lat="44.2135667" lon="11.8563283"><ele>121.0</ele><time>2026-04-18T11:01:38.995Z</time></trkpt><trkpt lat="44.2136633" lon="11.85622"><ele>121.0</ele><time>2026-04-18T11:01:39.993Z</time></trkpt><trkpt lat="44.213755" lon="11.8561317"><ele>121.0</ele><time>2026-04-18T11:01:40.993Z</time></trkpt><trkpt lat="44.2138633" lon="11.8560783"><ele>121.0</ele><time>2026-04-18T11:01:41.993Z</time></trkpt><trkpt lat="44.2139817" lon="11.8560767"><ele>121.0</ele><time>2026-04-18T11:01:42.993Z</time></trkpt><trkpt lat="44.2141" lon="11.856125"><ele>117.5</ele><time>2026-04-18T11:01:43.994Z</time></trkpt><trkpt lat="44.2142233" lon="11.8561867"><ele>114.0</ele><time>2026-04-18T11:01:44.994Z</time></trkpt><trkpt lat="44.21435" lon="11.8562367"><ele>110.5</ele><time>2026-04-18T11:01:45.993Z</time></trkpt><trkpt lat="44.21447" lon="11.856275"><ele>107.0</ele><time>2026-04-18T11:01:46.993Z</time></trkpt><trkpt lat="44.2145833" lon="11.8562917"><ele>107.0</ele><time>2026-04-18T11:01:47.992Z</time></trkpt><trkpt lat="44.214685" lon="11.8562867"><ele>106.99999999999999</ele><time>2026-04-18T11:01:48.994Z</time></trkpt><trkpt lat="44.2147817" lon="11.8562567"><ele>106.99999999999999</ele><time>2026-04-18T11:01:49.993Z</time></trkpt><trkpt lat="44.2148867" lon="11.8562067"><ele>107.0</ele><time>2026-04-18T11:01:50.994Z</time></trkpt><trkpt lat="44.2149917" lon="11.8561417"><ele>107.0</ele><time>2026-04-18T11:01:51.994Z</time></trkpt><trkpt lat="44.21509" lon="11.8560683"><ele>106.0</ele><time>2026-04-18T11:01:52.993Z</time></trkpt><trkpt lat="44.2151833" lon="11.8559917"><ele>104.99999999999999</ele><time>2026-04-18T11:01:53.993Z</time></trkpt><trkpt lat="44.2152633" lon="11.8559217"><ele>104.0</ele><time>2026-04-18T11:01:54.993Z</time></trkpt><trkpt lat="44.215335" lon="11.8558667"><ele>103.0</ele><time>2026-04-18T11:01:55.993Z</time></trkpt><trkpt lat="44.2154" lon="11.8558433"><ele>102.0</ele><time>2026-04-18T11:01:56.994Z</time></trkpt><trkpt lat="44.2155183" lon="11.8558733"><ele>102.0</ele><time>2026-04-18T11:01:58.993Z</time></trkpt><trkpt lat="44.2156017" lon="11.8559167"><ele>102.0</ele><time>2026-04-18T11:02:00.994Z</time></trkpt><trkpt lat="44.2157033" lon="11.8559517"><ele>102.0</ele><time>2026-04-18T11:02:02.994Z</time></trkpt><trkpt lat="44.2157633" lon="11.8559783"><ele>102.0</ele><time>2026-04-18T11:02:03.993Z</time></trkpt><trkpt lat="44.2158317" lon="11.8560033"><ele>102.0</ele><time>2026-04-18T11:02:04.995Z</time></trkpt><trkpt lat="44.2159083" lon="11.8560233"><ele>102.0</ele><time>2026-04-18T11:02:05.994Z</time></trkpt><trkpt lat="44.2159933" lon="11.8560467"><ele>101.8</ele><time>2026-04-18T11:02:06.994Z</time></trkpt><trkpt lat="44.2160783" lon="11.856075"><ele>101.6</ele><time>2026-04-18T11:02:07.993Z</time></trkpt><trkpt lat="44.2161683" lon="11.856115"><ele>101.39999999999999</ele><time>2026-04-18T11:02:08.993Z</time></trkpt><trkpt lat="44.2162533" lon="11.8561667"><ele>101.19999999999999</ele><time>2026-04-18T11:02:09.993Z</time></trkpt><trkpt lat="44.2163417" lon="11.8562317"><ele>101.0</ele><time>2026-04-18T11:02:10.993Z</time></trkpt><trkpt lat="44.2164367" lon="11.8563083"><ele>100.75</ele><time>2026-04-18T11:02:11.995Z</time></trkpt><trkpt lat="44.2165267" lon="11.8563917"><ele>100.5</ele><time>2026-04-18T11:02:12.994Z</time></trkpt><trkpt lat="44.2166233" lon="11.8564833"><ele>100.25</ele><time>2026-04-18T11:02:13.993Z</time></trkpt><trkpt lat="44.2167217" lon="11.856575"><ele>100.0</ele><time>2026-04-18T11:02:14.993Z</time></trkpt><trkpt lat="44.21682" lon="11.856665"><ele>100.00000000000001</ele><time>2026-04-18T11:02:15.993Z</time></trkpt><trkpt lat="44.2169133" lon="11.8567467"><ele>100.0</ele><time>2026-04-18T11:02:16.993Z</time></trkpt><trkpt lat="44.217" lon="11.8568167"><ele>100.0</ele><time>2026-04-18T11:02:17.994Z</time></trkpt><trkpt lat="44.2170767" lon="11.8568617"><ele>100.0</ele><time>2026-04-18T11:02:18.993Z</time></trkpt><trkpt lat="44.2171517" lon="11.8568733"><ele>100.00000000000001</ele><time>2026-04-18T11:02:19.993Z</time></trkpt><trkpt lat="44.2172217" lon="11.8568433"><ele>100.0</ele><time>2026-04-18T11:02:20.993Z</time></trkpt><trkpt lat="44.2172817" lon="11.85678"><ele>99.33333333333334</ele><time>2026-04-18T11:02:21.994Z</time></trkpt><trkpt lat="44.2173367" lon="11.8567067"><ele>98.66666666666667</ele><time>2026-04-18T11:02:22.994Z</time></trkpt><trkpt lat="44.2173917" lon="11.8566333"><ele>98.0</ele><time>2026-04-18T11:02:23.995Z</time></trkpt><trkpt lat="44.2174433" lon="11.8565633"><ele>97.33333333333334</ele><time>2026-04-18T11:02:24.994Z</time></trkpt><trkpt lat="44.2175033" lon="11.8565067"><ele>96.66666666666667</ele><time>2026-04-18T11:02:25.994Z</time></trkpt><trkpt lat="44.2175717" lon="11.856465"><ele>96.0</ele><time>2026-04-18T11:02:26.993Z</time></trkpt><trkpt lat="44.21765" lon="11.8564417"><ele>96.0</ele><time>2026-04-18T11:02:27.994Z</time></trkpt><trkpt lat="44.2177367" lon="11.8564483"><ele>96.0</ele><time>2026-04-18T11:02:28.992Z</time></trkpt><trkpt lat="44.217835" lon="11.8564733"><ele>96.0</ele><time>2026-04-18T11:02:29.993Z</time></trkpt><trkpt lat="44.2179467" lon="11.8565083"><ele>96.0</ele><time>2026-04-18T11:02:30.994Z</time></trkpt><trkpt lat="44.218065" lon="11.8565617"><ele>96.0</ele><time>2026-04-18T11:02:31.993Z</time></trkpt><trkpt lat="44.2181833" lon="11.8566183"><ele>95.0</ele><time>2026-04-18T11:02:32.994Z</time></trkpt><trkpt lat="44.2182867" lon="11.8566883"><ele>94.0</ele><time>2026-04-18T11:02:33.994Z</time></trkpt><trkpt lat="44.2183733" lon="11.8567883"><ele>93.0</ele><time>2026-04-18T11:02:34.992Z</time></trkpt><trkpt lat="44.218455" lon="11.8568983"><ele>92.0</ele><time>2026-04-18T11:02:35.994Z</time></trkpt><trkpt lat="44.2185317" lon="11.8570267"><ele>92.0</ele><time>2026-04-18T11:02:36.993Z</time></trkpt><trkpt lat="44.2186033" lon="11.85716"><ele>92.0</ele><time>2026-04-18T11:02:37.993Z</time></trkpt><trkpt lat="44.218685" lon="11.8572933"><ele>92.0</ele><time>2026-04-18T11:02:38.995Z</time></trkpt><trkpt lat="44.2187667" lon="11.8574333"><ele>92.0</ele><time>2026-04-18T11:02:39.993Z</time></trkpt><trkpt lat="44.2188433" lon="11.857575"><ele>92.0</ele><time>2026-04-18T11:02:40.994Z</time></trkpt><trkpt lat="44.2189217" lon="11.8577117"><ele>92.0</ele><time>2026-04-18T11:02:41.993Z</time></trkpt><trkpt lat="44.2190017" lon="11.8578467"><ele>92.0</ele><time>2026-04-18T11:02:42.994Z</time></trkpt><trkpt lat="44.21908" lon="11.85799"><ele>92.0</ele><time>2026-04-18T11:02:43.993Z</time></trkpt><trkpt lat="44.21916" lon="11.8581317"><ele>91.25</ele><time>2026-04-18T11:02:44.994Z</time></trkpt><trkpt lat="44.2192383" lon="11.8582783"><ele>90.5</ele><time>2026-04-18T11:02:45.993Z</time></trkpt><trkpt lat="44.2193167" lon="11.858435"><ele>89.75</ele><time>2026-04-18T11:02:46.994Z</time></trkpt><trkpt lat="44.2194017" lon="11.8585933"><ele>89.0</ele><time>2026-04-18T11:02:47.993Z</time></trkpt><trkpt lat="44.21949" lon="11.85874"><ele>89.0</ele><time>2026-04-18T11:02:48.993Z</time></trkpt><trkpt lat="44.21958" lon="11.8588733"><ele>89.0</ele><time>2026-04-18T11:02:49.993Z</time></trkpt><trkpt lat="44.2196567" lon="11.8589967"><ele>89.0</ele><time>2026-04-18T11:02:50.994Z</time></trkpt><trkpt lat="44.2197133" lon="11.8591383"><ele>89.0</ele><time>2026-04-18T11:02:51.992Z</time></trkpt><trkpt lat="44.2197417" lon="11.8592983"><ele>88.75</ele><time>2026-04-18T11:02:52.994Z</time></trkpt><trkpt lat="44.2197517" lon="11.8594733"><ele>88.5</ele><time>2026-04-18T11:02:53.994Z</time></trkpt><trkpt lat="44.219745" lon="11.8596433"><ele>88.25</ele><time>2026-04-18T11:02:54.993Z</time></trkpt><trkpt lat="44.2197183" lon="11.8598017"><ele>88.0</ele><time>2026-04-18T11:02:55.993Z</time></trkpt><trkpt lat="44.2196833" lon="11.8599383"><ele>88.0</ele><time>2026-04-18T11:02:56.993Z</time></trkpt><trkpt lat="44.2196633" lon="11.86005"><ele>88.0</ele><time>2026-04-18T11:02:57.994Z</time></trkpt><trkpt lat="44.2196667" lon="11.8601433"><ele>88.0</ele><time>2026-04-18T11:02:58.994Z</time></trkpt><trkpt lat="44.219675" lon="11.860235"><ele>88.0</ele><time>2026-04-18T11:02:59.993Z</time></trkpt><trkpt lat="44.2197083" lon="11.860315"><ele>88.0</ele><time>2026-04-18T11:03:00.994Z</time></trkpt><trkpt lat="44.2197633" lon="11.86038"><ele>88.0</ele><time>2026-04-18T11:03:01.994Z</time></trkpt><trkpt lat="44.2198483" lon="11.860425"><ele>88.0</ele><time>2026-04-18T11:03:02.993Z</time></trkpt><trkpt lat="44.2199583" lon="11.8604417"><ele>84.25</ele><time>2026-04-18T11:03:03.993Z</time></trkpt><trkpt lat="44.22006" lon="11.86042"><ele>80.5</ele><time>2026-04-18T11:03:04.993Z</time></trkpt><trkpt lat="44.2201667" lon="11.8603733"><ele>76.75</ele><time>2026-04-18T11:03:05.994Z</time></trkpt><trkpt lat="44.22028" lon="11.8603067"><ele>73.0</ele><time>2026-04-18T11:03:06.994Z</time></trkpt><trkpt lat="44.2203883" lon="11.86023"><ele>73.0</ele><time>2026-04-18T11:03:07.994Z</time></trkpt><trkpt lat="44.2204933" lon="11.86015"><ele>73.0</ele><time>2026-04-18T11:03:08.994Z</time></trkpt><trkpt lat="44.2206067" lon="11.8600817"><ele>73.0</ele><time>2026-04-18T11:03:09.993Z</time></trkpt><trkpt lat="44.2207283" lon="11.860015"><ele>73.0</ele><time>2026-04-18T11:03:10.993Z</time></trkpt><trkpt lat="44.2208567" lon="11.8599483"><ele>72.0</ele><time>2026-04-18T11:03:11.993Z</time></trkpt><trkpt lat="44.2209833" lon="11.8598867"><ele>71.0</ele><time>2026-04-18T11:03:12.994Z</time></trkpt><trkpt lat="44.2211117" lon="11.8598217"><ele>70.0</ele><time>2026-04-18T11:03:13.993Z</time></trkpt><trkpt lat="44.2212333" lon="11.8597667"><ele>69.0</ele><time>2026-04-18T11:03:14.995Z</time></trkpt><trkpt lat="44.2213533" lon="11.8597283"><ele>69.0</ele><time>2026-04-18T11:03:15.994Z</time></trkpt><trkpt lat="44.22147" lon="11.8596817"><ele>69.0</ele><time>2026-04-18T11:03:16.993Z</time></trkpt><trkpt lat="44.2215833" lon="11.85962"><ele>69.0</ele><time>2026-04-18T11:03:17.992Z</time></trkpt><trkpt lat="44.2216983" lon="11.85955"><ele>69.0</ele><time>2026-04-18T11:03:18.993Z</time></trkpt><trkpt lat="44.221815" lon="11.8594767"><ele>68.75</ele><time>2026-04-18T11:03:19.993Z</time></trkpt><trkpt lat="44.2219333" lon="11.8593983"><ele>68.5</ele><time>2026-04-18T11:03:20.994Z</time></trkpt><trkpt lat="44.2220583" lon="11.85932"><ele>68.25</ele><time>2026-04-18T11:03:21.993Z</time></trkpt><trkpt lat="44.2221867" lon="11.8592367"><ele>68.0</ele><time>2026-04-18T11:03:22.994Z</time></trkpt><trkpt lat="44.22231" lon="11.859145"><ele>67.0</ele><time>2026-04-18T11:03:23.994Z</time></trkpt><trkpt lat="44.2224383" lon="11.8590533"><ele>66.0</ele><time>2026-04-18T11:03:24.994Z</time></trkpt><trkpt lat="44.222565" lon="11.8589683"><ele>65.0</ele><time>2026-04-18T11:03:25.994Z</time></trkpt><trkpt lat="44.222685" lon="11.858885"><ele>64.0</ele><time>2026-04-18T11:03:26.995Z</time></trkpt><trkpt lat="44.2228067" lon="11.858825"><ele>64.0</ele><time>2026-04-18T11:03:27.994Z</time></trkpt><trkpt lat="44.2229283" lon="11.8588033"><ele>64.0</ele><time>2026-04-18T11:03:28.993Z</time></trkpt><trkpt lat="44.2230467" lon="11.8588033"><ele>64.0</ele><time>2026-04-18T11:03:29.994Z</time></trkpt><trkpt lat="44.22316" lon="11.8588133"><ele>64.0</ele><time>2026-04-18T11:03:30.993Z</time></trkpt><trkpt lat="44.2232533" lon="11.8588117"><ele>64.0</ele><time>2026-04-18T11:03:31.993Z</time></trkpt><trkpt lat="44.2233367" lon="11.85878"><ele>63.99999999999999</ele><time>2026-04-18T11:03:32.994Z</time></trkpt><trkpt lat="44.2234067" lon="11.858725"><ele>64.0</ele><time>2026-04-18T11:03:33.993Z</time></trkpt><trkpt lat="44.22347" lon="11.85865"><ele>64.0</ele><time>2026-04-18T11:03:34.994Z</time></trkpt><trkpt lat="44.22353" lon="11.85856"><ele>64.0</ele><time>2026-04-18T11:03:35.993Z</time></trkpt><trkpt lat="44.2235867" lon="11.858475"><ele>63.99999999999999</ele><time>2026-04-18T11:03:36.993Z</time></trkpt><trkpt lat="44.223645" lon="11.8583983"><ele>64.0</ele><time>2026-04-18T11:03:37.994Z</time></trkpt><trkpt lat="44.22371" lon="11.85834"><ele>63.99999999999999</ele><time>2026-04-18T11:03:38.994Z</time></trkpt><trkpt lat="44.22378" lon="11.85831"><ele>64.0</ele><time>2026-04-18T11:03:39.994Z</time></trkpt><trkpt lat="44.22385" lon="11.8582983"><ele>64.0</ele><time>2026-04-18T11:03:40.995Z</time></trkpt><trkpt lat="44.2239233" lon="11.85831"><ele>64.0</ele><time>2026-04-18T11:03:41.993Z</time></trkpt><trkpt lat="44.2239967" lon="11.858345"><ele>63.99999999999999</ele><time>2026-04-18T11:03:42.993Z</time></trkpt><trkpt lat="44.2240717" lon="11.8584"><ele>64.0</ele><time>2026-04-18T11:03:43.993Z</time></trkpt><trkpt lat="44.2241417" lon="11.8584533"><ele>63.99999999999999</ele><time>2026-04-18T11:03:44.993Z</time></trkpt><trkpt lat="44.22421" lon="11.8585017"><ele>64.0</ele><time>2026-04-18T11:03:45.993Z</time></trkpt><trkpt lat="44.2242717" lon="11.8585533"><ele>64.0</ele><time>2026-04-18T11:03:46.993Z</time></trkpt><trkpt lat="44.224335" lon="11.8586067"><ele>64.0</ele><time>2026-04-18T11:03:47.993Z</time></trkpt><trkpt lat="44.2244033" lon="11.8586567"><ele>63.99999999999999</ele><time>2026-04-18T11:03:48.993Z</time></trkpt><trkpt lat="44.2244767" lon="11.858705"><ele>64.0</ele><time>2026-04-18T11:03:49.995Z</time></trkpt><trkpt lat="44.22455" lon="11.8587517"><ele>63.99999999999999</ele><time>2026-04-18T11:03:50.993Z</time></trkpt><trkpt lat="44.2246267" lon="11.858795"><ele>64.0</ele><time>2026-04-18T11:03:51.994Z</time></trkpt><trkpt lat="44.2247067" lon="11.858835"><ele>64.0</ele><time>2026-04-18T11:03:52.995Z</time></trkpt><trkpt lat="44.2247883" lon="11.8588717"><ele>64.0</ele><time>2026-04-18T11:03:53.994Z</time></trkpt><trkpt lat="44.224865" lon="11.8589033"><ele>63.99999999999999</ele><time>2026-04-18T11:03:54.994Z</time></trkpt><trkpt lat="44.2249417" lon="11.8589233"><ele>64.0</ele><time>2026-04-18T11:03:55.994Z</time></trkpt><trkpt lat="44.2250183" lon="11.8589483"><ele>64.2</ele><time>2026-04-18T11:03:56.994Z</time></trkpt><trkpt lat="44.2250983" lon="11.858985"><ele>64.4</ele><time>2026-04-18T11:03:57.995Z</time></trkpt><trkpt lat="44.2251817" lon="11.8590267"><ele>64.6</ele><time>2026-04-18T11:03:58.994Z</time></trkpt><trkpt lat="44.2252717" lon="11.8590617"><ele>64.8</ele><time>2026-04-18T11:03:59.994Z</time></trkpt><trkpt lat="44.225365" lon="11.8591033"><ele>65.0</ele><time>2026-04-18T11:04:00.994Z</time></trkpt><trkpt lat="44.22546" lon="11.8591483"><ele>65.0</ele><time>2026-04-18T11:04:01.994Z</time></trkpt><trkpt lat="44.225555" lon="11.85919"><ele>65.0</ele><time>2026-04-18T11:04:02.993Z</time></trkpt><trkpt lat="44.2256417" lon="11.859225"><ele>65.0</ele><time>2026-04-18T11:04:03.994Z</time></trkpt><trkpt lat="44.22573" lon="11.85926"><ele>65.0</ele><time>2026-04-18T11:04:04.993Z</time></trkpt><trkpt lat="44.225825" lon="11.859295"><ele>65.0</ele><time>2026-04-18T11:04:05.995Z</time></trkpt><trkpt lat="44.2259233" lon="11.8593317"><ele>65.0</ele><time>2026-04-18T11:04:06.994Z</time></trkpt><trkpt lat="44.22602" lon="11.8593683"><ele>65.0</ele><time>2026-04-18T11:04:07.993Z</time></trkpt><trkpt lat="44.2261133" lon="11.8594083"><ele>65.0</ele><time>2026-04-18T11:04:08.993Z</time></trkpt><trkpt lat="44.226205" lon="11.8594433"><ele>65.0</ele><time>2026-04-18T11:04:09.993Z</time></trkpt><trkpt lat="44.226295" lon="11.859475"><ele>65.0</ele><time>2026-04-18T11:04:10.993Z</time></trkpt><trkpt lat="44.22638" lon="11.8595067"><ele>65.0</ele><time>2026-04-18T11:04:11.993Z</time></trkpt><trkpt lat="44.22646" lon="11.85954"><ele>65.0</ele><time>2026-04-18T11:04:12.994Z</time></trkpt><trkpt lat="44.2265367" lon="11.85957"><ele>65.0</ele><time>2026-04-18T11:04:13.994Z</time></trkpt><trkpt lat="44.226605" lon="11.8596017"><ele>65.0</ele><time>2026-04-18T11:04:14.993Z</time></trkpt><trkpt lat="44.2266917" lon="11.8596383"><ele>65.0</ele><time>2026-04-18T11:04:16.993Z</time></trkpt><trkpt lat="44.2267833" lon="11.8596717"><ele>65.0</ele><time>2026-04-18T11:04:18.995Z</time></trkpt><trkpt lat="44.226855" lon="11.8596917"><ele>65.16666666666667</ele><time>2026-04-18T11:04:20.995Z</time></trkpt><trkpt lat="44.226925" lon="11.859655"><ele>65.33333333333334</ele><time>2026-04-18T11:04:25.995Z</time></trkpt><trkpt lat="44.22693" lon="11.8595633"><ele>65.5</ele><time>2026-04-18T11:04:26.995Z</time></trkpt><trkpt lat="44.2269233" lon="11.8594517"><ele>65.66666666666667</ele><time>2026-04-18T11:04:27.995Z</time></trkpt><trkpt lat="44.2269117" lon="11.8593117"><ele>65.83333333333333</ele><time>2026-04-18T11:04:28.995Z</time></trkpt><trkpt lat="44.2268967" lon="11.8591483"><ele>66.0</ele><time>2026-04-18T11:04:29.995Z</time></trkpt><trkpt lat="44.2268817" lon="11.8589783"><ele>66.0</ele><time>2026-04-18T11:04:30.996Z</time></trkpt><trkpt lat="44.2268633" lon="11.8588"><ele>66.0</ele><time>2026-04-18T11:04:31.996Z</time></trkpt><trkpt lat="44.226845" lon="11.858615"><ele>66.0</ele><time>2026-04-18T11:04:32.994Z</time></trkpt><trkpt lat="44.2268267" lon="11.8584217"><ele>66.0</ele><time>2026-04-18T11:04:33.994Z</time></trkpt><trkpt lat="44.2268033" lon="11.85822"><ele>67.0</ele><time>2026-04-18T11:04:34.994Z</time></trkpt><trkpt lat="44.2267667" lon="11.8580167"><ele>68.0</ele><time>2026-04-18T11:04:35.995Z</time></trkpt><trkpt lat="44.2267167" lon="11.8578117"><ele>69.0</ele><time>2026-04-18T11:04:36.995Z</time></trkpt><trkpt lat="44.2266517" lon="11.85761"><ele>70.66666666666667</ele><time>2026-04-18T11:04:37.995Z</time></trkpt><trkpt lat="44.2265767" lon="11.8574083"><ele>72.33333333333334</ele><time>2026-04-18T11:04:38.996Z</time></trkpt><trkpt lat="44.2265033" lon="11.8572067"><ele>74.0</ele><time>2026-04-18T11:04:39.996Z</time></trkpt><trkpt lat="44.2264317" lon="11.8569983"><ele>74.33333333333334</ele><time>2026-04-18T11:04:40.994Z</time></trkpt><trkpt lat="44.226375" lon="11.8567817"><ele>74.66666666666667</ele><time>2026-04-18T11:04:41.993Z</time></trkpt><trkpt lat="44.22633" lon="11.8565583"><ele>75.0</ele><time>2026-04-18T11:04:42.993Z</time></trkpt><trkpt lat="44.2262983" lon="11.856325"><ele>75.0</ele><time>2026-04-18T11:04:43.993Z</time></trkpt><trkpt lat="44.22627" lon="11.85609"><ele>75.0</ele><time>2026-04-18T11:04:44.994Z</time></trkpt><trkpt lat="44.226245" lon="11.8558467"><ele>75.0</ele><time>2026-04-18T11:04:45.994Z</time></trkpt><trkpt lat="44.2262183" lon="11.8555983"><ele>75.0</ele><time>2026-04-18T11:04:46.994Z</time></trkpt><trkpt lat="44.2261917" lon="11.85535"><ele>75.0</ele><time>2026-04-18T11:04:47.993Z</time></trkpt><trkpt lat="44.2261617" lon="11.8551"><ele>75.0</ele><time>2026-04-18T11:04:48.993Z</time></trkpt><trkpt lat="44.22613" lon="11.8548517"><ele>75.0</ele><time>2026-04-18T11:04:49.993Z</time></trkpt><trkpt lat="44.2261033" lon="11.8546283"><ele>75.0</ele><time>2026-04-18T11:04:50.993Z</time></trkpt><trkpt lat="44.22608" lon="11.8544333"><ele>75.0</ele><time>2026-04-18T11:04:51.994Z</time></trkpt><trkpt lat="44.22606" lon="11.854275"><ele>75.0</ele><time>2026-04-18T11:04:52.994Z</time></trkpt><trkpt lat="44.2260367" lon="11.8541533"><ele>75.2</ele><time>2026-04-18T11:04:53.993Z</time></trkpt><trkpt lat="44.2259617" lon="11.8540333"><ele>75.4</ele><time>2026-04-18T11:04:55.995Z</time></trkpt><trkpt lat="44.2258633" lon="11.8540267"><ele>75.6</ele><time>2026-04-18T11:04:57.993Z</time></trkpt><trkpt lat="44.225735" lon="11.8540717"><ele>75.8</ele><time>2026-04-18T11:04:59.994Z</time></trkpt><trkpt lat="44.2256517" lon="11.8541067"><ele>76.0</ele><time>2026-04-18T11:05:00.993Z</time></trkpt><trkpt lat="44.2255533" lon="11.85415"><ele>76.0</ele><time>2026-04-18T11:05:01.993Z</time></trkpt><trkpt lat="44.2254483" lon="11.8542"><ele>76.0</ele><time>2026-04-18T11:05:02.994Z</time></trkpt><trkpt lat="44.2253517" lon="11.8542483"><ele>76.0</ele><time>2026-04-18T11:05:03.993Z</time></trkpt><trkpt lat="44.225255" lon="11.8542917"><ele>76.0</ele><time>2026-04-18T11:05:04.993Z</time></trkpt><trkpt lat="44.2251617" lon="11.8543333"><ele>76.0</ele><time>2026-04-18T11:05:05.993Z</time></trkpt><trkpt lat="44.2250767" lon="11.8543733"><ele>75.85714285714285</ele><time>2026-04-18T11:05:06.994Z</time></trkpt><trkpt lat="44.2249983" lon="11.85441"><ele>75.71428571428572</ele><time>2026-04-18T11:05:07.995Z</time></trkpt><trkpt lat="44.2249233" lon="11.8544417"><ele>75.57142857142857</ele><time>2026-04-18T11:05:08.996Z</time></trkpt><trkpt lat="44.2248533" lon="11.854475"><ele>75.42857142857142</ele><time>2026-04-18T11:05:09.994Z</time></trkpt><trkpt lat="44.224785" lon="11.854505"><ele>75.28571428571428</ele><time>2026-04-18T11:05:10.993Z</time></trkpt><trkpt lat="44.2247217" lon="11.8545367"><ele>75.14285714285714</ele><time>2026-04-18T11:05:11.994Z</time></trkpt><trkpt lat="44.22466" lon="11.854565"><ele>75.0</ele><time>2026-04-18T11:05:12.994Z</time></trkpt><trkpt lat="44.2246" lon="11.8545933"><ele>75.0</ele><time>2026-04-18T11:05:13.994Z</time></trkpt><trkpt lat="44.2245183" lon="11.8546383"><ele>75.0</ele><time>2026-04-18T11:05:15.993Z</time></trkpt><trkpt lat="44.224605" lon="11.8546417"><ele>75.0</ele><time>2026-04-18T11:05:19.996Z</time></trkpt><trkpt lat="44.2246667" lon="11.8546033"><ele>75.0</ele><time>2026-04-18T11:05:20.994Z</time></trkpt><trkpt lat="44.22475" lon="11.85455"><ele>75.0</ele><time>2026-04-18T11:05:21.993Z</time></trkpt><trkpt lat="44.224855" lon="11.8544917"><ele>75.0</ele><time>2026-04-18T11:05:22.994Z</time></trkpt><trkpt lat="44.2249717" lon="11.8544317"><ele>75.0</ele><time>2026-04-18T11:05:23.994Z</time></trkpt><trkpt lat="44.2251" lon="11.85437"><ele>75.0</ele><time>2026-04-18T11:05:24.994Z</time></trkpt><trkpt lat="44.225235" lon="11.8543033"><ele>75.0</ele><time>2026-04-18T11:05:25.994Z</time></trkpt><trkpt lat="44.2253717" lon="11.854235"><ele>75.0</ele><time>2026-04-18T11:05:26.994Z</time></trkpt><trkpt lat="44.2254983" lon="11.8541667"><ele>75.2</ele><time>2026-04-18T11:05:27.994Z</time></trkpt><trkpt lat="44.225615" lon="11.8541083"><ele>75.4</ele><time>2026-04-18T11:05:28.993Z</time></trkpt><trkpt lat="44.2257183" lon="11.85406"><ele>75.6</ele><time>2026-04-18T11:05:29.995Z</time></trkpt><trkpt lat="44.225795" lon="11.8540267"><ele>75.8</ele><time>2026-04-18T11:05:30.993Z</time></trkpt><trkpt lat="44.22588" lon="11.853995"><ele>76.0</ele><time>2026-04-18T11:05:32.993Z</time></trkpt><trkpt lat="44.2259317" lon="11.8539433"><ele>76.6</ele><time>2026-04-18T11:05:34.995Z</time></trkpt><trkpt lat="44.2259167" lon="11.8537867"><ele>77.19999999999999</ele><time>2026-04-18T11:05:36.994Z</time></trkpt><trkpt lat="44.22589" lon="11.8536733"><ele>77.80000000000001</ele><time>2026-04-18T11:05:37.994Z</time></trkpt><trkpt lat="44.2258483" lon="11.8535483"><ele>78.4</ele><time>2026-04-18T11:05:38.994Z</time></trkpt><trkpt lat="44.225795" lon="11.8533933"><ele>79.0</ele><time>2026-04-18T11:05:39.993Z</time></trkpt><trkpt lat="44.22574" lon="11.8532117"><ele>78.66666666666666</ele><time>2026-04-18T11:05:40.994Z</time></trkpt><trkpt lat="44.22568" lon="11.85301"><ele>78.33333333333333</ele><time>2026-04-18T11:05:41.994Z</time></trkpt><trkpt lat="44.2256283" lon="11.8527883"><ele>78.0</ele><time>2026-04-18T11:05:42.994Z</time></trkpt><trkpt lat="44.22558" lon="11.8525583"><ele>78.66666666666667</ele><time>2026-04-18T11:05:43.993Z</time></trkpt><trkpt lat="44.225535" lon="11.8523233"><ele>79.33333333333334</ele><time>2026-04-18T11:05:44.993Z</time></trkpt><trkpt lat="44.22549" lon="11.8520883"><ele>80.0</ele><time>2026-04-18T11:05:45.993Z</time></trkpt><trkpt lat="44.2254483" lon="11.85185"><ele>80.33333333333334</ele><time>2026-04-18T11:05:46.994Z</time></trkpt><trkpt lat="44.2254067" lon="11.8516183"><ele>80.66666666666667</ele><time>2026-04-18T11:05:47.993Z</time></trkpt><trkpt lat="44.2253667" lon="11.8513983"><ele>81.0</ele><time>2026-04-18T11:05:48.994Z</time></trkpt><trkpt lat="44.2253333" lon="11.8511883"><ele>81.0</ele><time>2026-04-18T11:05:49.993Z</time></trkpt><trkpt lat="44.2253117" lon="11.8509733"><ele>81.0</ele><time>2026-04-18T11:05:50.995Z</time></trkpt><trkpt lat="44.2253017" lon="11.8507433"><ele>81.0</ele><time>2026-04-18T11:05:51.993Z</time></trkpt><trkpt lat="44.225295" lon="11.850505"><ele>81.0</ele><time>2026-04-18T11:05:52.994Z</time></trkpt><trkpt lat="44.2252917" lon="11.85026"><ele>81.0</ele><time>2026-04-18T11:05:53.994Z</time></trkpt><trkpt lat="44.2253033" lon="11.8500083"><ele>81.0</ele><time>2026-04-18T11:05:54.994Z</time></trkpt><trkpt lat="44.2253283" lon="11.8497567"><ele>80.66666666666667</ele><time>2026-04-18T11:05:55.994Z</time></trkpt><trkpt lat="44.225355" lon="11.8495033"><ele>80.33333333333334</ele><time>2026-04-18T11:05:56.994Z</time></trkpt><trkpt lat="44.2253817" lon="11.8492483"><ele>80.0</ele><time>2026-04-18T11:05:57.994Z</time></trkpt><trkpt lat="44.2254067" lon="11.84899"><ele>78.33333333333334</ele><time>2026-04-18T11:05:58.993Z</time></trkpt><trkpt lat="44.2254283" lon="11.8487283"><ele>76.66666666666667</ele><time>2026-04-18T11:05:59.993Z</time></trkpt><trkpt lat="44.2254417" lon="11.8484567"><ele>75.0</ele><time>2026-04-18T11:06:00.994Z</time></trkpt><trkpt lat="44.2254417" lon="11.8481833"><ele>75.33333333333333</ele><time>2026-04-18T11:06:01.993Z</time></trkpt><trkpt lat="44.225425" lon="11.8479083"><ele>75.66666666666666</ele><time>2026-04-18T11:06:02.994Z</time></trkpt><trkpt lat="44.2253933" lon="11.8476483"><ele>76.0</ele><time>2026-04-18T11:06:03.993Z</time></trkpt><trkpt lat="44.2253467" lon="11.8474083"><ele>76.0</ele><time>2026-04-18T11:06:04.993Z</time></trkpt><trkpt lat="44.2252683" lon="11.8472"><ele>76.0</ele><time>2026-04-18T11:06:05.994Z</time></trkpt><trkpt lat="44.2251533" lon="11.847015"><ele>76.0</ele><time>2026-04-18T11:06:06.993Z</time></trkpt><trkpt lat="44.2250217" lon="11.8468317"><ele>77.33333333333333</ele><time>2026-04-18T11:06:07.995Z</time></trkpt><trkpt lat="44.2248867" lon="11.846645"><ele>78.66666666666667</ele><time>2026-04-18T11:06:08.993Z</time></trkpt><trkpt lat="44.2247517" lon="11.8464583"><ele>80.0</ele><time>2026-04-18T11:06:09.993Z</time></trkpt><trkpt lat="44.2246183" lon="11.8462717"><ele>78.33333333333334</ele><time>2026-04-18T11:06:10.995Z</time></trkpt><trkpt lat="44.2244983" lon="11.8460867"><ele>76.66666666666667</ele><time>2026-04-18T11:06:11.994Z</time></trkpt><trkpt lat="44.224395" lon="11.845895"><ele>75.0</ele><time>2026-04-18T11:06:12.994Z</time></trkpt><trkpt lat="44.2243117" lon="11.845685"><ele>75.0</ele><time>2026-04-18T11:06:13.993Z</time></trkpt><trkpt lat="44.2242533" lon="11.8454683"><ele>75.0</ele><time>2026-04-18T11:06:14.993Z</time></trkpt><trkpt lat="44.2242167" lon="11.845255"><ele>75.0</ele><time>2026-04-18T11:06:15.993Z</time></trkpt><trkpt lat="44.224195" lon="11.8450517"><ele>75.2</ele><time>2026-04-18T11:06:16.994Z</time></trkpt><trkpt lat="44.224175" lon="11.844865"><ele>75.4</ele><time>2026-04-18T11:06:17.993Z</time></trkpt><trkpt lat="44.22416" lon="11.844715"><ele>75.6</ele><time>2026-04-18T11:06:18.993Z</time></trkpt><trkpt lat="44.2241433" lon="11.8446183"><ele>75.8</ele><time>2026-04-18T11:06:19.993Z</time></trkpt><trkpt lat="44.2240567" lon="11.8445583"><ele>76.0</ele><time>2026-04-18T11:06:21.993Z</time></trkpt><trkpt lat="44.2239133" lon="11.8446167"><ele>76.0</ele><time>2026-04-18T11:06:23.994Z</time></trkpt><trkpt lat="44.2238117" lon="11.844665"><ele>76.0</ele><time>2026-04-18T11:06:24.993Z</time></trkpt><trkpt lat="44.2236933" lon="11.84473"><ele>76.0</ele><time>2026-04-18T11:06:25.993Z</time></trkpt><trkpt lat="44.22356" lon="11.8447983"><ele>76.0</ele><time>2026-04-18T11:06:26.993Z</time></trkpt><trkpt lat="44.2234133" lon="11.8448733"><ele>76.0</ele><time>2026-04-18T11:06:27.994Z</time></trkpt><trkpt lat="44.223265" lon="11.8449517"><ele>76.0</ele><time>2026-04-18T11:06:28.993Z</time></trkpt><trkpt lat="44.2231117" lon="11.8450283"><ele>76.0</ele><time>2026-04-18T11:06:29.993Z</time></trkpt><trkpt lat="44.2229517" lon="11.8451083"><ele>75.33333333333333</ele><time>2026-04-18T11:06:30.994Z</time></trkpt><trkpt lat="44.2227917" lon="11.8451883"><ele>74.66666666666667</ele><time>2026-04-18T11:06:31.993Z</time></trkpt><trkpt lat="44.2226283" lon="11.8452683"><ele>74.0</ele><time>2026-04-18T11:06:32.993Z</time></trkpt><trkpt lat="44.2224633" lon="11.8453433"><ele>74.0</ele><time>2026-04-18T11:06:33.994Z</time></trkpt><trkpt lat="44.2222933" lon="11.8454283"><ele>74.0</ele><time>2026-04-18T11:06:34.993Z</time></trkpt><trkpt lat="44.222125" lon="11.8455167"><ele>74.0</ele><time>2026-04-18T11:06:35.994Z</time></trkpt><trkpt lat="44.221955" lon="11.8455983"><ele>74.0</ele><time>2026-04-18T11:06:36.993Z</time></trkpt><trkpt lat="44.2217833" lon="11.845685"><ele>74.0</ele><time>2026-04-18T11:06:37.994Z</time></trkpt><trkpt lat="44.2216083" lon="11.8457683"><ele>74.0</ele><time>2026-04-18T11:06:38.994Z</time></trkpt><trkpt lat="44.221435" lon="11.845855"><ele>74.0</ele><time>2026-04-18T11:06:39.994Z</time></trkpt><trkpt lat="44.2212617" lon="11.8459433"><ele>74.0</ele><time>2026-04-18T11:06:40.993Z</time></trkpt><trkpt lat="44.2210867" lon="11.8460283"><ele>74.0</ele><time>2026-04-18T11:06:41.993Z</time></trkpt><trkpt lat="44.220915" lon="11.8461133"><ele>73.66666666666667</ele><time>2026-04-18T11:06:42.993Z</time></trkpt><trkpt lat="44.220745" lon="11.8462033"><ele>73.33333333333333</ele><time>2026-04-18T11:06:43.994Z</time></trkpt><trkpt lat="44.220575" lon="11.8462933"><ele>73.0</ele><time>2026-04-18T11:06:44.994Z</time></trkpt><trkpt lat="44.2204067" lon="11.8463833"><ele>72.33333333333333</ele><time>2026-04-18T11:06:45.993Z</time></trkpt><trkpt lat="44.2202383" lon="11.8464717"><ele>71.66666666666667</ele><time>2026-04-18T11:06:46.994Z</time></trkpt><trkpt lat="44.2200817" lon="11.8465533"><ele>71.0</ele><time>2026-04-18T11:06:47.993Z</time></trkpt><trkpt lat="44.2199333" lon="11.84663"><ele>72.33333333333334</ele><time>2026-04-18T11:06:48.993Z</time></trkpt><trkpt lat="44.21979" lon="11.8467033"><ele>73.66666666666667</ele><time>2026-04-18T11:06:49.994Z</time></trkpt><trkpt lat="44.2196467" lon="11.846775"><ele>75.0</ele><time>2026-04-18T11:06:50.993Z</time></trkpt><trkpt lat="44.21951" lon="11.8468417"><ele>75.75</ele><time>2026-04-18T11:06:51.993Z</time></trkpt><trkpt lat="44.2193833" lon="11.8469033"><ele>76.5</ele><time>2026-04-18T11:06:52.993Z</time></trkpt><trkpt lat="44.219265" lon="11.8469667"><ele>77.25</ele><time>2026-04-18T11:06:53.993Z</time></trkpt><trkpt lat="44.2191717" lon="11.8470483"><ele>78.0</ele><time>2026-04-18T11:06:54.994Z</time></trkpt><trkpt lat="44.219105" lon="11.8471583"><ele>78.0</ele><time>2026-04-18T11:06:55.993Z</time></trkpt><trkpt lat="44.2190833" lon="11.8473"><ele>78.0</ele><time>2026-04-18T11:06:56.994Z</time></trkpt><trkpt lat="44.21908" lon="11.847435"><ele>78.0</ele><time>2026-04-18T11:06:57.993Z</time></trkpt><trkpt lat="44.21905" lon="11.847535"><ele>78.0</ele><time>2026-04-18T11:06:58.994Z</time></trkpt><trkpt lat="44.21899" lon="11.8476117"><ele>78.0</ele><time>2026-04-18T11:06:59.994Z</time></trkpt><trkpt lat="44.2188867" lon="11.8476467"><ele>81.0</ele><time>2026-04-18T11:07:01.992Z</time></trkpt><trkpt lat="44.2187967" lon="11.847645"><ele>84.0</ele><time>2026-04-18T11:07:02.993Z</time></trkpt><trkpt lat="44.2186867" lon="11.8476183"><ele>87.0</ele><time>2026-04-18T11:07:03.993Z</time></trkpt><trkpt lat="44.21856" lon="11.8475633"><ele>90.0</ele><time>2026-04-18T11:07:04.992Z</time></trkpt><trkpt lat="44.21844" lon="11.847495"><ele>90.0</ele><time>2026-04-18T11:07:05.993Z</time></trkpt><trkpt lat="44.2183233" lon="11.8474267"><ele>90.0</ele><time>2026-04-18T11:07:06.994Z</time></trkpt><trkpt lat="44.2182083" lon="11.8473567"><ele>90.0</ele><time>2026-04-18T11:07:07.992Z</time></trkpt><trkpt lat="44.2180917" lon="11.8472817"><ele>90.0</ele><time>2026-04-18T11:07:08.993Z</time></trkpt><trkpt lat="44.2179733" lon="11.8472067"><ele>90.75</ele><time>2026-04-18T11:07:09.992Z</time></trkpt><trkpt lat="44.2178567" lon="11.8471333"><ele>91.5</ele><time>2026-04-18T11:07:10.993Z</time></trkpt><trkpt lat="44.2177383" lon="11.8470617"><ele>92.25</ele><time>2026-04-18T11:07:11.993Z</time></trkpt><trkpt lat="44.21762" lon="11.8469867"><ele>93.0</ele><time>2026-04-18T11:07:12.992Z</time></trkpt><trkpt lat="44.2174983" lon="11.84691"><ele>93.0</ele><time>2026-04-18T11:07:13.993Z</time></trkpt><trkpt lat="44.2173767" lon="11.8468317"><ele>93.0</ele><time>2026-04-18T11:07:14.993Z</time></trkpt><trkpt lat="44.2172533" lon="11.84675"><ele>93.0</ele><time>2026-04-18T11:07:15.993Z</time></trkpt><trkpt lat="44.2171267" lon="11.8466717"><ele>93.0</ele><time>2026-04-18T11:07:16.992Z</time></trkpt><trkpt lat="44.2170133" lon="11.8465967"><ele>93.5</ele><time>2026-04-18T11:07:17.992Z</time></trkpt><trkpt lat="44.216905" lon="11.84653"><ele>94.0</ele><time>2026-04-18T11:07:18.993Z</time></trkpt><trkpt lat="44.2167983" lon="11.8464617"><ele>94.5</ele><time>2026-04-18T11:07:19.992Z</time></trkpt><trkpt lat="44.21669" lon="11.84639"><ele>95.0</ele><time>2026-04-18T11:07:20.993Z</time></trkpt><trkpt lat="44.21658" lon="11.8463167"><ele>95.25</ele><time>2026-04-18T11:07:21.993Z</time></trkpt><trkpt lat="44.2164633" lon="11.8462467"><ele>95.5</ele><time>2026-04-18T11:07:22.992Z</time></trkpt><trkpt lat="44.2163467" lon="11.8461717"><ele>95.75</ele><time>2026-04-18T11:07:23.992Z</time></trkpt><trkpt lat="44.21623" lon="11.84608"><ele>96.0</ele><time>2026-04-18T11:07:24.992Z</time></trkpt><trkpt lat="44.21612" lon="11.845975"><ele>96.5</ele><time>2026-04-18T11:07:25.993Z</time></trkpt><trkpt lat="44.2160217" lon="11.8458533"><ele>97.0</ele><time>2026-04-18T11:07:26.994Z</time></trkpt><trkpt lat="44.2159433" lon="11.8457217"><ele>97.5</ele><time>2026-04-18T11:07:27.993Z</time></trkpt><trkpt lat="44.2158833" lon="11.8455833"><ele>98.0</ele><time>2026-04-18T11:07:28.995Z</time></trkpt><trkpt lat="44.21582" lon="11.84544"><ele>98.0</ele><time>2026-04-18T11:07:29.992Z</time></trkpt><trkpt lat="44.2157483" lon="11.845295"><ele>98.0</ele><time>2026-04-18T11:07:30.992Z</time></trkpt><trkpt lat="44.2156683" lon="11.8451633"><ele>98.0</ele><time>2026-04-18T11:07:31.992Z</time></trkpt><trkpt lat="44.2155733" lon="11.8450583"><ele>98.0</ele><time>2026-04-18T11:07:32.994Z</time></trkpt><trkpt lat="44.2154583" lon="11.8449783"><ele>99.0</ele><time>2026-04-18T11:07:33.993Z</time></trkpt><trkpt lat="44.2153317" lon="11.8449133"><ele>100.0</ele><time>2026-04-18T11:07:34.992Z</time></trkpt><trkpt lat="44.2152067" lon="11.844855"><ele>101.0</ele><time>2026-04-18T11:07:35.992Z</time></trkpt><trkpt lat="44.2150867" lon="11.844805"><ele>102.0</ele><time>2026-04-18T11:07:36.993Z</time></trkpt><trkpt lat="44.2149767" lon="11.84478"><ele>102.0</ele><time>2026-04-18T11:07:37.993Z</time></trkpt><trkpt lat="44.214865" lon="11.844795"><ele>102.0</ele><time>2026-04-18T11:07:38.993Z</time></trkpt><trkpt lat="44.21475" lon="11.8448233"><ele>102.0</ele><time>2026-04-18T11:07:39.992Z</time></trkpt><trkpt lat="44.2146267" lon="11.8448267"><ele>102.0</ele><time>2026-04-18T11:07:40.992Z</time></trkpt><trkpt lat="44.214515" lon="11.8447733"><ele>105.0</ele><time>2026-04-18T11:07:41.994Z</time></trkpt><trkpt lat="44.214405" lon="11.844715"><ele>108.0</ele><time>2026-04-18T11:07:42.992Z</time></trkpt><trkpt lat="44.214285" lon="11.8446833"><ele>111.0</ele><time>2026-04-18T11:07:43.992Z</time></trkpt><trkpt lat="44.21416" lon="11.84466"><ele>114.0</ele><time>2026-04-18T11:07:44.992Z</time></trkpt><trkpt lat="44.2140283" lon="11.844655"><ele>115.75</ele><time>2026-04-18T11:07:45.992Z</time></trkpt><trkpt lat="44.2139" lon="11.8446567"><ele>117.5</ele><time>2026-04-18T11:07:46.992Z</time></trkpt><trkpt lat="44.21377" lon="11.844655"><ele>119.25</ele><time>2026-04-18T11:07:47.992Z</time></trkpt><trkpt lat="44.213635" lon="11.84465"><ele>121.0</ele><time>2026-04-18T11:07:48.993Z</time></trkpt><trkpt lat="44.2135017" lon="11.8446467"><ele>121.0</ele><time>2026-04-18T11:07:49.992Z</time></trkpt><trkpt lat="44.2133617" lon="11.8446417"><ele>121.0</ele><time>2026-04-18T11:07:50.994Z</time></trkpt><trkpt lat="44.2132233" lon="11.8446483"><ele>121.0</ele><time>2026-04-18T11:07:51.992Z</time></trkpt><trkpt lat="44.213085" lon="11.8446717"><ele>121.0</ele><time>2026-04-18T11:07:52.992Z</time></trkpt><trkpt lat="44.212955" lon="11.844695"><ele>120.4</ele><time>2026-04-18T11:07:53.992Z</time></trkpt><trkpt lat="44.21284" lon="11.84471"><ele>119.8</ele><time>2026-04-18T11:07:54.992Z</time></trkpt><trkpt lat="44.2127367" lon="11.84472"><ele>119.20000000000002</ele><time>2026-04-18T11:07:55.993Z</time></trkpt><trkpt lat="44.2126533" lon="11.84475"><ele>118.60000000000001</ele><time>2026-04-18T11:07:56.992Z</time></trkpt><trkpt lat="44.212595" lon="11.8448033"><ele>118.0</ele><time>2026-04-18T11:07:57.992Z</time></trkpt><trkpt lat="44.2125967" lon="11.84491"><ele>118.0</ele><time>2026-04-18T11:07:59.992Z</time></trkpt><trkpt lat="44.21272" lon="11.8449467"><ele>118.0</ele><time>2026-04-18T11:08:01.993Z</time></trkpt><trkpt lat="44.2128183" lon="11.8449317"><ele>118.0</ele><time>2026-04-18T11:08:02.994Z</time></trkpt><trkpt lat="44.21293" lon="11.844905"><ele>118.0</ele><time>2026-04-18T11:08:03.992Z</time></trkpt><trkpt lat="44.2130417" lon="11.8448783"><ele>118.0</ele><time>2026-04-18T11:08:04.991Z</time></trkpt><trkpt lat="44.2131483" lon="11.844885"><ele>118.00000000000001</ele><time>2026-04-18T11:08:05.994Z</time></trkpt><trkpt lat="44.213245" lon="11.844915"><ele>118.00000000000001</ele><time>2026-04-18T11:08:06.992Z</time></trkpt><trkpt lat="44.2133017" lon="11.8449683"><ele>118.0</ele><time>2026-04-18T11:08:07.993Z</time></trkpt><trkpt lat="44.213285" lon="11.8450967"><ele>118.0</ele><time>2026-04-18T11:08:09.993Z</time></trkpt><trkpt lat="44.2131717" lon="11.84513"><ele>118.0</ele><time>2026-04-18T11:08:11.992Z</time></trkpt><trkpt lat="44.213085" lon="11.845125"><ele>118.00000000000001</ele><time>2026-04-18T11:08:12.993Z</time></trkpt><trkpt lat="44.213" lon="11.8451333"><ele>118.00000000000001</ele><time>2026-04-18T11:08:13.992Z</time></trkpt><trkpt lat="44.21291" lon="11.8451817"><ele>118.0</ele><time>2026-04-18T11:08:14.993Z</time></trkpt><trkpt lat="44.2128217" lon="11.8452767"><ele>118.0</ele><time>2026-04-18T11:08:15.993Z</time></trkpt><trkpt lat="44.2127333" lon="11.8453983"><ele>122.25</ele><time>2026-04-18T11:08:16.991Z</time></trkpt><trkpt lat="44.212635" lon="11.8455117"><ele>126.5</ele><time>2026-04-18T11:08:17.992Z</time></trkpt><trkpt lat="44.2125283" lon="11.845615"><ele>130.75</ele><time>2026-04-18T11:08:18.992Z</time></trkpt><trkpt lat="44.2124133" lon="11.8456983"><ele>135.0</ele><time>2026-04-18T11:08:19.992Z</time></trkpt><trkpt lat="44.212295" lon="11.8457683"><ele>135.0</ele><time>2026-04-18T11:08:20.993Z</time></trkpt><trkpt lat="44.2121817" lon="11.8458317"><ele>135.0</ele><time>2026-04-18T11:08:21.993Z</time></trkpt><trkpt lat="44.2120817" lon="11.8458833"><ele>135.0</ele><time>2026-04-18T11:08:22.994Z</time></trkpt><trkpt lat="44.2119867" lon="11.8459183"><ele>135.0</ele><time>2026-04-18T11:08:23.993Z</time></trkpt><trkpt lat="44.211895" lon="11.8459317"><ele>135.0</ele><time>2026-04-18T11:08:24.993Z</time></trkpt><trkpt lat="44.2117983" lon="11.8459167"><ele>135.0</ele><time>2026-04-18T11:08:25.992Z</time></trkpt><trkpt lat="44.211695" lon="11.8458917"><ele>135.0</ele><time>2026-04-18T11:08:26.992Z</time></trkpt><trkpt lat="44.2116017" lon="11.8458867"><ele>135.0</ele><time>2026-04-18T11:08:27.991Z</time></trkpt><trkpt lat="44.21152" lon="11.8459067"><ele>135.0</ele><time>2026-04-18T11:08:28.993Z</time></trkpt><trkpt lat="44.2114767" lon="11.8459833"><ele>135.0</ele><time>2026-04-18T11:08:29.993Z</time></trkpt><trkpt lat="44.211465" lon="11.846075"><ele>135.0</ele><time>2026-04-18T11:08:30.992Z</time></trkpt><trkpt lat="44.211485" lon="11.8461683"><ele>136.33333333333334</ele><time>2026-04-18T11:08:31.993Z</time></trkpt><trkpt lat="44.2114883" lon="11.8462967"><ele>137.66666666666666</ele><time>2026-04-18T11:08:33.993Z</time></trkpt><trkpt lat="44.2113933" lon="11.8463"><ele>139.0</ele><time>2026-04-18T11:08:36.994Z</time></trkpt><trkpt lat="44.2113267" lon="11.8462383"><ele>140.33333333333331</ele><time>2026-04-18T11:08:37.992Z</time></trkpt><trkpt lat="44.211255" lon="11.8461767"><ele>141.66666666666666</ele><time>2026-04-18T11:08:38.992Z</time></trkpt><trkpt lat="44.2111717" lon="11.846105"><ele>143.0</ele><time>2026-04-18T11:08:39.993Z</time></trkpt><trkpt lat="44.2110817" lon="11.8460217"><ele>144.0</ele><time>2026-04-18T11:08:40.992Z</time></trkpt><trkpt lat="44.2109817" lon="11.84594"><ele>145.0</ele><time>2026-04-18T11:08:41.993Z</time></trkpt><trkpt lat="44.2108717" lon="11.84588"><ele>146.0</ele><time>2026-04-18T11:08:42.992Z</time></trkpt><trkpt lat="44.2107633" lon="11.84583"><ele>147.0</ele><time>2026-04-18T11:08:43.994Z</time></trkpt><trkpt lat="44.2106533" lon="11.8457933"><ele>148.75</ele><time>2026-04-18T11:08:44.993Z</time></trkpt><trkpt lat="44.2105417" lon="11.84577"><ele>150.5</ele><time>2026-04-18T11:08:45.993Z</time></trkpt><trkpt lat="44.210425" lon="11.8457617"><ele>152.25</ele><time>2026-04-18T11:08:46.992Z</time></trkpt><trkpt lat="44.2103067" lon="11.84576"><ele>154.0</ele><time>2026-04-18T11:08:47.992Z</time></trkpt><trkpt lat="44.2101883" lon="11.84576"><ele>154.0</ele><time>2026-04-18T11:08:48.992Z</time></trkpt><trkpt lat="44.2100683" lon="11.845765"><ele>154.0</ele><time>2026-04-18T11:08:49.992Z</time></trkpt><trkpt lat="44.20995" lon="11.845775"><ele>154.0</ele><time>2026-04-18T11:08:50.993Z</time></trkpt><trkpt lat="44.20983" lon="11.8457867"><ele>154.0</ele><time>2026-04-18T11:08:51.992Z</time></trkpt><trkpt lat="44.2097117" lon="11.845805"><ele>155.8</ele><time>2026-04-18T11:08:52.992Z</time></trkpt><trkpt lat="44.2095967" lon="11.8458233"><ele>157.60000000000002</ele><time>2026-04-18T11:08:53.992Z</time></trkpt><trkpt lat="44.209485" lon="11.8458433"><ele>159.4</ele><time>2026-04-18T11:08:54.994Z</time></trkpt><trkpt lat="44.20938" lon="11.8458667"><ele>161.20000000000002</ele><time>2026-04-18T11:08:55.992Z</time></trkpt><trkpt lat="44.2092867" lon="11.8458867"><ele>163.0</ele><time>2026-04-18T11:08:56.992Z</time></trkpt><trkpt lat="44.2092033" lon="11.8458983"><ele>163.0</ele><time>2026-04-18T11:08:57.992Z</time></trkpt><trkpt lat="44.2091333" lon="11.8458917"><ele>163.0</ele><time>2026-04-18T11:08:58.992Z</time></trkpt><trkpt lat="44.2090733" lon="11.845865"><ele>163.0</ele><time>2026-04-18T11:08:59.994Z</time></trkpt><trkpt lat="44.208995" lon="11.8457183"><ele>163.0</ele><time>2026-04-18T11:09:01.993Z</time></trkpt><trkpt lat="44.2089617" lon="11.8456183"><ele>163.0</ele><time>2026-04-18T11:09:02.993Z</time></trkpt><trkpt lat="44.2089283" lon="11.8455017"><ele>163.0</ele><time>2026-04-18T11:09:03.992Z</time></trkpt><trkpt lat="44.2088933" lon="11.845385"><ele>165.60000000000002</ele><time>2026-04-18T11:09:04.992Z</time></trkpt><trkpt lat="44.208855" lon="11.8452633"><ele>168.20000000000002</ele><time>2026-04-18T11:09:05.993Z</time></trkpt><trkpt lat="44.2088117" lon="11.8451417"><ele>170.8</ele><time>2026-04-18T11:09:06.992Z</time></trkpt><trkpt lat="44.2087667" lon="11.8450183"><ele>173.4</ele><time>2026-04-18T11:09:07.994Z</time></trkpt><trkpt lat="44.2087233" lon="11.8448967"><ele>176.0</ele><time>2026-04-18T11:09:08.994Z</time></trkpt><trkpt lat="44.2086733" lon="11.8447933"><ele>176.4</ele><time>2026-04-18T11:09:09.994Z</time></trkpt><trkpt lat="44.20861" lon="11.8447067"><ele>176.8</ele><time>2026-04-18T11:09:10.991Z</time></trkpt><trkpt lat="44.2085383" lon="11.8446333"><ele>177.20000000000002</ele><time>2026-04-18T11:09:11.994Z</time></trkpt><trkpt lat="44.2084567" lon="11.84458"><ele>177.60000000000002</ele><time>2026-04-18T11:09:12.993Z</time></trkpt><trkpt lat="44.2083733" lon="11.84456"><ele>178.0</ele><time>2026-04-18T11:09:13.993Z</time></trkpt><trkpt lat="44.208275" lon="11.8445583"><ele>178.0</ele><time>2026-04-18T11:09:14.993Z</time></trkpt><trkpt lat="44.208175" lon="11.8445717"><ele>178.0</ele><time>2026-04-18T11:09:15.992Z</time></trkpt><trkpt lat="44.2080733" lon="11.8445717"><ele>178.0</ele><time>2026-04-18T11:09:16.993Z</time></trkpt><trkpt lat="44.2079783" lon="11.8445467"><ele>178.0</ele><time>2026-04-18T11:09:17.992Z</time></trkpt><trkpt lat="44.2079" lon="11.8444917"><ele>178.0</ele><time>2026-04-18T11:09:18.992Z</time></trkpt><trkpt lat="44.2078317" lon="11.8444167"><ele>180.60000000000002</ele><time>2026-04-18T11:09:19.992Z</time></trkpt><trkpt lat="44.207785" lon="11.8443217"><ele>183.20000000000002</ele><time>2026-04-18T11:09:20.993Z</time></trkpt><trkpt lat="44.2077717" lon="11.8441967"><ele>185.8</ele><time>2026-04-18T11:09:21.992Z</time></trkpt><trkpt lat="44.2077833" lon="11.84406"><ele>188.4</ele><time>2026-04-18T11:09:22.993Z</time></trkpt><trkpt lat="44.2077817" lon="11.8439233"><ele>191.0</ele><time>2026-04-18T11:09:23.992Z</time></trkpt><trkpt lat="44.2077733" lon="11.843775"><ele>191.60000000000002</ele><time>2026-04-18T11:09:24.992Z</time></trkpt><trkpt lat="44.2077533" lon="11.843625"><ele>192.2</ele><time>2026-04-18T11:09:25.994Z</time></trkpt><trkpt lat="44.2077317" lon="11.843475"><ele>192.8</ele><time>2026-04-18T11:09:26.992Z</time></trkpt><trkpt lat="44.20772" lon="11.84332"><ele>193.39999999999998</ele><time>2026-04-18T11:09:27.992Z</time></trkpt><trkpt lat="44.20772" lon="11.8431667"><ele>194.0</ele><time>2026-04-18T11:09:28.992Z</time></trkpt><trkpt lat="44.207735" lon="11.8430183"><ele>194.16666666666669</ele><time>2026-04-18T11:09:29.992Z</time></trkpt><trkpt lat="44.2077483" lon="11.8428883"><ele>194.33333333333334</ele><time>2026-04-18T11:09:30.993Z</time></trkpt><trkpt lat="44.2077483" lon="11.842775"><ele>194.5</ele><time>2026-04-18T11:09:31.993Z</time></trkpt><trkpt lat="44.2077283" lon="11.84268"><ele>194.66666666666669</ele><time>2026-04-18T11:09:32.993Z</time></trkpt><trkpt lat="44.207665" lon="11.8426217"><ele>194.83333333333334</ele><time>2026-04-18T11:09:33.992Z</time></trkpt><trkpt lat="44.2075733" lon="11.8425867"><ele>195.0</ele><time>2026-04-18T11:09:34.992Z</time></trkpt><trkpt lat="44.207475" lon="11.8425517"><ele>194.4</ele><time>2026-04-18T11:09:35.993Z</time></trkpt><trkpt lat="44.2073833" lon="11.8425"><ele>193.8</ele><time>2026-04-18T11:09:36.992Z</time></trkpt><trkpt lat="44.2072883" lon="11.8424333"><ele>193.2</ele><time>2026-04-18T11:09:37.992Z</time></trkpt><trkpt lat="44.2071983" lon="11.842355"><ele>192.6</ele><time>2026-04-18T11:09:38.992Z</time></trkpt><trkpt lat="44.2071133" lon="11.842275"><ele>192.0</ele><time>2026-04-18T11:09:39.994Z</time></trkpt><trkpt lat="44.207035" lon="11.8421933"><ele>193.66666666666666</ele><time>2026-04-18T11:09:40.992Z</time></trkpt><trkpt lat="44.206965" lon="11.842115"><ele>195.33333333333331</ele><time>2026-04-18T11:09:41.992Z</time></trkpt><trkpt lat="44.2068983" lon="11.8420517"><ele>197.0</ele><time>2026-04-18T11:09:42.992Z</time></trkpt><trkpt lat="44.2068267" lon="11.8420167"><ele>198.66666666666666</ele><time>2026-04-18T11:09:43.992Z</time></trkpt><trkpt lat="44.2067567" lon="11.84202"><ele>200.33333333333331</ele><time>2026-04-18T11:09:44.993Z</time></trkpt><trkpt lat="44.2066717" lon="11.8420433"><ele>202.0</ele><time>2026-04-18T11:09:45.992Z</time></trkpt><trkpt lat="44.2065817" lon="11.842055"><ele>199.8</ele><time>2026-04-18T11:09:46.992Z</time></trkpt><trkpt lat="44.2064833" lon="11.8420417"><ele>197.6</ele><time>2026-04-18T11:09:47.993Z</time></trkpt><trkpt lat="44.2063867" lon="11.841975"><ele>195.4</ele><time>2026-04-18T11:09:48.992Z</time></trkpt><trkpt lat="44.2063" lon="11.841875"><ele>193.20000000000002</ele><time>2026-04-18T11:09:49.993Z</time></trkpt><trkpt lat="44.2062233" lon="11.8417433"><ele>191.0</ele><time>2026-04-18T11:09:50.993Z</time></trkpt><trkpt lat="44.2061617" lon="11.8415883"><ele>191.0</ele><time>2026-04-18T11:09:51.993Z</time></trkpt><trkpt lat="44.2061117" lon="11.8414167"><ele>191.0</ele><time>2026-04-18T11:09:52.992Z</time></trkpt><trkpt lat="44.2060633" lon="11.841245"><ele>191.0</ele><time>2026-04-18T11:09:53.993Z</time></trkpt><trkpt lat="44.2060067" lon="11.8410783"><ele>191.0</ele><time>2026-04-18T11:09:54.993Z</time></trkpt><trkpt lat="44.205945" lon="11.8409233"><ele>191.5</ele><time>2026-04-18T11:09:55.992Z</time></trkpt><trkpt lat="44.2058767" lon="11.8407867"><ele>192.0</ele><time>2026-04-18T11:09:56.993Z</time></trkpt><trkpt lat="44.2057933" lon="11.8406583"><ele>192.5</ele><time>2026-04-18T11:09:57.992Z</time></trkpt><trkpt lat="44.2057" lon="11.8405367"><ele>193.0</ele><time>2026-04-18T11:09:58.992Z</time></trkpt><trkpt lat="44.2056" lon="11.8404233"><ele>193.5</ele><time>2026-04-18T11:09:59.993Z</time></trkpt><trkpt lat="44.2054883" lon="11.8403283"><ele>194.0</ele><time>2026-04-18T11:10:00.994Z</time></trkpt><trkpt lat="44.2053683" lon="11.84025"><ele>194.5</ele><time>2026-04-18T11:10:01.992Z</time></trkpt><trkpt lat="44.2052483" lon="11.8401867"><ele>195.0</ele><time>2026-04-18T11:10:02.994Z</time></trkpt><trkpt lat="44.2051283" lon="11.840135"><ele>196.25</ele><time>2026-04-18T11:10:03.993Z</time></trkpt><trkpt lat="44.2050117" lon="11.8400783"><ele>197.5</ele><time>2026-04-18T11:10:04.992Z</time></trkpt><trkpt lat="44.2049067" lon="11.840005"><ele>198.75</ele><time>2026-04-18T11:10:05.993Z</time></trkpt><trkpt lat="44.204815" lon="11.839905"><ele>200.0</ele><time>2026-04-18T11:10:06.994Z</time></trkpt><trkpt lat="44.2047333" lon="11.8397783"><ele>202.25</ele><time>2026-04-18T11:10:07.993Z</time></trkpt><trkpt lat="44.2046567" lon="11.8396417"><ele>204.5</ele><time>2026-04-18T11:10:08.993Z</time></trkpt><trkpt lat="44.2045783" lon="11.839505"><ele>206.75</ele><time>2026-04-18T11:10:09.993Z</time></trkpt><trkpt lat="44.2045017" lon="11.8393667"><ele>209.0</ele><time>2026-04-18T11:10:10.992Z</time></trkpt><trkpt lat="44.204425" lon="11.8392233"><ele>209.6</ele><time>2026-04-18T11:10:11.993Z</time></trkpt><trkpt lat="44.20435" lon="11.8390867"><ele>210.2</ele><time>2026-04-18T11:10:12.994Z</time></trkpt><trkpt lat="44.204275" lon="11.8389733"><ele>210.79999999999998</ele><time>2026-04-18T11:10:13.994Z</time></trkpt><trkpt lat="44.2041933" lon="11.8388983"><ele>211.39999999999998</ele><time>2026-04-18T11:10:14.995Z</time></trkpt><trkpt lat="44.2041017" lon="11.8388667"><ele>212.0</ele><time>2026-04-18T11:10:15.993Z</time></trkpt><trkpt lat="44.2040033" lon="11.838875"><ele>214.6</ele><time>2026-04-18T11:10:16.993Z</time></trkpt><trkpt lat="44.2038967" lon="11.8388817"><ele>217.2</ele><time>2026-04-18T11:10:17.993Z</time></trkpt><trkpt lat="44.2038" lon="11.8388517"><ele>219.8</ele><time>2026-04-18T11:10:18.994Z</time></trkpt><trkpt lat="44.203705" lon="11.838785"><ele>222.4</ele><time>2026-04-18T11:10:19.993Z</time></trkpt><trkpt lat="44.2036083" lon="11.8387067"><ele>225.0</ele><time>2026-04-18T11:10:20.993Z</time></trkpt><trkpt lat="44.2035117" lon="11.8386283"><ele>225.0</ele><time>2026-04-18T11:10:21.992Z</time></trkpt><trkpt lat="44.20341" lon="11.8385533"><ele>225.0</ele><time>2026-04-18T11:10:22.993Z</time></trkpt><trkpt lat="44.2033117" lon="11.83848"><ele>225.0</ele><time>2026-04-18T11:10:23.993Z</time></trkpt><trkpt lat="44.20322" lon="11.8384167"><ele>225.0</ele><time>2026-04-18T11:10:24.994Z</time></trkpt><trkpt lat="44.2031283" lon="11.838375"><ele>225.0</ele><time>2026-04-18T11:10:25.994Z</time></trkpt><trkpt lat="44.2030333" lon="11.8383617"><ele>229.0</ele><time>2026-04-18T11:10:26.993Z</time></trkpt><trkpt lat="44.2029322" lon="11.838372"><ele>233.0</ele><time>2026-04-18T11:10:27.992Z</time></trkpt><trkpt lat="44.2028242" lon="11.8383895"><ele>237.0</ele><time>2026-04-18T11:10:28.992Z</time></trkpt><trkpt lat="44.2027109" lon="11.8383981"><ele>241.0</ele><time>2026-04-18T11:10:29.994Z</time></trkpt><trkpt lat="44.202599" lon="11.8384008"><ele>245.0</ele><time>2026-04-18T11:10:30.995Z</time></trkpt><trkpt lat="44.2024886" lon="11.8383973"><ele>245.0</ele><time>2026-04-18T11:10:31.993Z</time></trkpt><trkpt lat="44.2023813" lon="11.8383886"><ele>245.0</ele><time>2026-04-18T11:10:32.993Z</time></trkpt><trkpt lat="44.202272" lon="11.838378"><ele>245.0</ele><time>2026-04-18T11:10:33.994Z</time></trkpt><trkpt lat="44.2021577" lon="11.8383609"><ele>245.0</ele><time>2026-04-18T11:10:34.992Z</time></trkpt><trkpt lat="44.2020433" lon="11.8383414"><ele>245.0</ele><time>2026-04-18T11:10:35.993Z</time></trkpt><trkpt lat="44.2019316" lon="11.8383201"><ele>246.50000000000003</ele><time>2026-04-18T11:10:36.994Z</time></trkpt><trkpt lat="44.2018347" lon="11.8382996"><ele>248.0</ele><time>2026-04-18T11:10:37.992Z</time></trkpt><trkpt lat="44.2017509" lon="11.8382903"><ele>249.5</ele><time>2026-04-18T11:10:38.993Z</time></trkpt><trkpt lat="44.2016782" lon="11.8383014"><ele>251.0</ele><time>2026-04-18T11:10:39.993Z</time></trkpt><trkpt lat="44.2016123" lon="11.8383404"><ele>252.50000000000003</ele><time>2026-04-18T11:10:40.993Z</time></trkpt><trkpt lat="44.2015636" lon="11.8384325"><ele>254.0</ele><time>2026-04-18T11:10:41.993Z</time></trkpt><trkpt lat="44.2015272" lon="11.8385587"><ele>256.59999999999997</ele><time>2026-04-18T11:10:42.992Z</time></trkpt><trkpt lat="44.2014933" lon="11.8386977"><ele>259.2</ele><time>2026-04-18T11:10:43.993Z</time></trkpt><trkpt lat="44.2014568" lon="11.8388413"><ele>261.79999999999995</ele><time>2026-04-18T11:10:44.993Z</time></trkpt><trkpt lat="44.2014146" lon="11.8389855"><ele>264.4</ele><time>2026-04-18T11:10:45.992Z</time></trkpt><trkpt lat="44.2013679" lon="11.8391098"><ele>267.0</ele><time>2026-04-18T11:10:46.992Z</time></trkpt><trkpt lat="44.201319" lon="11.8392038"><ele>267.0</ele><time>2026-04-18T11:10:47.995Z</time></trkpt><trkpt lat="44.2012707" lon="11.8392714"><ele>267.0</ele><time>2026-04-18T11:10:48.992Z</time></trkpt><trkpt lat="44.2011861" lon="11.8392655"><ele>267.0</ele><time>2026-04-18T11:10:50.994Z</time></trkpt><trkpt lat="44.2011036" lon="11.8391578"><ele>267.0</ele><time>2026-04-18T11:10:52.994Z</time></trkpt><trkpt lat="44.2010477" lon="11.839087"><ele>267.0</ele><time>2026-04-18T11:10:53.994Z</time></trkpt><trkpt lat="44.2009841" lon="11.8390161"><ele>267.0</ele><time>2026-04-18T11:10:54.993Z</time></trkpt><trkpt lat="44.2009206" lon="11.8389483"><ele>267.0</ele><time>2026-04-18T11:10:55.993Z</time></trkpt><trkpt lat="44.2008572" lon="11.8388853"><ele>267.0</ele><time>2026-04-18T11:10:56.993Z</time></trkpt><trkpt lat="44.2008004" lon="11.838829"><ele>267.0</ele><time>2026-04-18T11:10:57.993Z</time></trkpt><trkpt lat="44.2007172" lon="11.8387447"><ele>267.0</ele><time>2026-04-18T11:10:59.993Z</time></trkpt><trkpt lat="44.2006675" lon="11.8386527"><ele>267.0</ele><time>2026-04-18T11:11:01.993Z</time></trkpt><trkpt lat="44.2006446" lon="11.8384917"><ele>271.5</ele><time>2026-04-18T11:11:03.992Z</time></trkpt><trkpt lat="44.2006363" lon="11.8383929"><ele>276.0</ele><time>2026-04-18T11:11:04.992Z</time></trkpt><trkpt lat="44.200624" lon="11.8382822"><ele>280.5</ele><time>2026-04-18T11:11:05.993Z</time></trkpt><trkpt lat="44.2006105" lon="11.8381602"><ele>285.0</ele><time>2026-04-18T11:11:06.992Z</time></trkpt><trkpt lat="44.2006021" lon="11.8380247"><ele>289.5</ele><time>2026-04-18T11:11:07.992Z</time></trkpt><trkpt lat="44.2005975" lon="11.8378806"><ele>294.0</ele><time>2026-04-18T11:11:08.992Z</time></trkpt><trkpt lat="44.200589" lon="11.8377392"><ele>294.59999999999997</ele><time>2026-04-18T11:11:09.992Z</time></trkpt><trkpt lat="44.2005805" lon="11.8376061"><ele>295.2</ele><time>2026-04-18T11:11:10.994Z</time></trkpt><trkpt lat="44.2005667" lon="11.8374856"><ele>295.79999999999995</ele><time>2026-04-18T11:11:11.993Z</time></trkpt><trkpt lat="44.2005481" lon="11.8373668"><ele>296.4</ele><time>2026-04-18T11:11:12.992Z</time></trkpt><trkpt lat="44.2005216" lon="11.8372448"><ele>297.0</ele><time>2026-04-18T11:11:13.995Z</time></trkpt><trkpt lat="44.2004793" lon="11.8371185"><ele>297.0</ele><time>2026-04-18T11:11:14.992Z</time></trkpt><trkpt lat="44.200425" lon="11.8369917"><ele>297.0</ele><time>2026-04-18T11:11:15.993Z</time></trkpt><trkpt lat="44.200385" lon="11.8368683"><ele>297.0</ele><time>2026-04-18T11:11:16.992Z</time></trkpt><trkpt lat="44.20036" lon="11.8367483"><ele>297.0</ele><time>2026-04-18T11:11:17.992Z</time></trkpt><trkpt lat="44.2003483" lon="11.8366383"><ele>297.0</ele><time>2026-04-18T11:11:18.995Z</time></trkpt><trkpt lat="44.2003633" lon="11.836535"><ele>297.0</ele><time>2026-04-18T11:11:19.994Z</time></trkpt><trkpt lat="44.20039" lon="11.8364367"><ele>296.6</ele><time>2026-04-18T11:11:20.993Z</time></trkpt><trkpt lat="44.2004383" lon="11.8363383"><ele>296.2</ele><time>2026-04-18T11:11:21.994Z</time></trkpt><trkpt lat="44.200495" lon="11.8362367"><ele>295.8</ele><time>2026-04-18T11:11:22.992Z</time></trkpt><trkpt lat="44.2005633" lon="11.8361217"><ele>295.4</ele><time>2026-04-18T11:11:23.992Z</time></trkpt><trkpt lat="44.2006283" lon="11.8359983"><ele>295.0</ele><time>2026-04-18T11:11:24.993Z</time></trkpt><trkpt lat="44.2006867" lon="11.8358733"><ele>294.0</ele><time>2026-04-18T11:11:25.993Z</time></trkpt><trkpt lat="44.20074" lon="11.8357467"><ele>293.0</ele><time>2026-04-18T11:11:26.992Z</time></trkpt><trkpt lat="44.20078" lon="11.8356317"><ele>292.0</ele><time>2026-04-18T11:11:27.992Z</time></trkpt><trkpt lat="44.200805" lon="11.83553"><ele>291.0</ele><time>2026-04-18T11:11:28.992Z</time></trkpt><trkpt lat="44.2008167" lon="11.8354317"><ele>290.0</ele><time>2026-04-18T11:11:29.992Z</time></trkpt><trkpt lat="44.2008383" lon="11.835345"><ele>289.0</ele><time>2026-04-18T11:11:30.992Z</time></trkpt><trkpt lat="44.2009133" lon="11.8352283"><ele>289.0</ele><time>2026-04-18T11:11:32.992Z</time></trkpt><trkpt lat="44.2010283" lon="11.835275"><ele>289.0</ele><time>2026-04-18T11:11:34.993Z</time></trkpt><trkpt lat="44.2011117" lon="11.83542"><ele>289.0</ele><time>2026-04-18T11:11:36.992Z</time></trkpt><trkpt lat="44.20116" lon="11.83553"><ele>289.0</ele><time>2026-04-18T11:11:37.994Z</time></trkpt><trkpt lat="44.2012067" lon="11.8356567"><ele>289.0</ele><time>2026-04-18T11:11:38.992Z</time></trkpt><trkpt lat="44.201255" lon="11.8357933"><ele>289.0</ele><time>2026-04-18T11:11:39.992Z</time></trkpt><trkpt lat="44.2013083" lon="11.8359217"><ele>289.0</ele><time>2026-04-18T11:11:40.992Z</time></trkpt><trkpt lat="44.20136" lon="11.83602"><ele>289.0</ele><time>2026-04-18T11:11:41.993Z</time></trkpt><trkpt lat="44.2014217" lon="11.8360883"><ele>289.0</ele><time>2026-04-18T11:11:42.993Z</time></trkpt><trkpt lat="44.2015017" lon="11.8361367"><ele>289.0</ele><time>2026-04-18T11:11:43.993Z</time></trkpt><trkpt lat="44.201585" lon="11.836155"><ele>289.0</ele><time>2026-04-18T11:11:44.993Z</time></trkpt><trkpt lat="44.20168" lon="11.8361483"><ele>284.5</ele><time>2026-04-18T11:11:45.993Z</time></trkpt><trkpt lat="44.2017833" lon="11.8361317"><ele>280.0</ele><time>2026-04-18T11:11:46.993Z</time></trkpt><trkpt lat="44.2018933" lon="11.8361017"><ele>275.5</ele><time>2026-04-18T11:11:47.992Z</time></trkpt><trkpt lat="44.20201" lon="11.83607"><ele>271.0</ele><time>2026-04-18T11:11:48.993Z</time></trkpt><trkpt lat="44.2021283" lon="11.836035"><ele>271.0</ele><time>2026-04-18T11:11:49.993Z</time></trkpt><trkpt lat="44.2022383" lon="11.8359933"><ele>271.0</ele><time>2026-04-18T11:11:50.993Z</time></trkpt><trkpt lat="44.2023367" lon="11.8359433"><ele>271.0</ele><time>2026-04-18T11:11:51.993Z</time></trkpt><trkpt lat="44.202435" lon="11.8358767"><ele>271.0</ele><time>2026-04-18T11:11:52.992Z</time></trkpt><trkpt lat="44.2025267" lon="11.8357833"><ele>271.0</ele><time>2026-04-18T11:11:53.993Z</time></trkpt><trkpt lat="44.20261" lon="11.8356817"><ele>270.6</ele><time>2026-04-18T11:11:54.993Z</time></trkpt><trkpt lat="44.2026783" lon="11.8355733"><ele>270.20000000000005</ele><time>2026-04-18T11:11:55.993Z</time></trkpt><trkpt lat="44.20273" lon="11.83546"><ele>269.79999999999995</ele><time>2026-04-18T11:11:56.993Z</time></trkpt><trkpt lat="44.202765" lon="11.83534"><ele>269.4</ele><time>2026-04-18T11:11:57.992Z</time></trkpt><trkpt lat="44.202785" lon="11.83522"><ele>269.0</ele><time>2026-04-18T11:11:58.994Z</time></trkpt><trkpt lat="44.2027817" lon="11.835095"><ele>268.59999999999997</ele><time>2026-04-18T11:11:59.992Z</time></trkpt><trkpt lat="44.2027583" lon="11.8349583"><ele>268.2</ele><time>2026-04-18T11:12:00.994Z</time></trkpt><trkpt lat="44.2027167" lon="11.8348133"><ele>267.79999999999995</ele><time>2026-04-18T11:12:01.994Z</time></trkpt><trkpt lat="44.202665" lon="11.8346667"><ele>267.4</ele><time>2026-04-18T11:12:02.994Z</time></trkpt><trkpt lat="44.202615" lon="11.83452"><ele>267.0</ele><time>2026-04-18T11:12:03.993Z</time></trkpt><trkpt lat="44.20258" lon="11.8343683"><ele>264.75</ele><time>2026-04-18T11:12:04.993Z</time></trkpt><trkpt lat="44.202565" lon="11.8342117"><ele>262.5</ele><time>2026-04-18T11:12:05.992Z</time></trkpt><trkpt lat="44.202565" lon="11.8340433"><ele>260.25</ele><time>2026-04-18T11:12:06.993Z</time></trkpt><trkpt lat="44.2025733" lon="11.83386"><ele>258.0</ele><time>2026-04-18T11:12:07.993Z</time></trkpt><trkpt lat="44.2025817" lon="11.8336683"><ele>257.5</ele><time>2026-04-18T11:12:08.994Z</time></trkpt><trkpt lat="44.20259" lon="11.83347"><ele>257.0</ele><time>2026-04-18T11:12:09.993Z</time></trkpt><trkpt lat="44.2025983" lon="11.83327"><ele>256.5</ele><time>2026-04-18T11:12:10.994Z</time></trkpt><trkpt lat="44.2026083" lon="11.8330783"><ele>256.0</ele><time>2026-04-18T11:12:11.993Z</time></trkpt><trkpt lat="44.2026217" lon="11.8329"><ele>256.0</ele><time>2026-04-18T11:12:12.993Z</time></trkpt><trkpt lat="44.2026483" lon="11.8327317"><ele>256.0</ele><time>2026-04-18T11:12:13.993Z</time></trkpt><trkpt lat="44.2026883" lon="11.8325733"><ele>256.0</ele><time>2026-04-18T11:12:14.994Z</time></trkpt><trkpt lat="44.2027417" lon="11.8324167"><ele>256.0</ele><time>2026-04-18T11:12:15.992Z</time></trkpt><trkpt lat="44.20279" lon="11.8322583"><ele>256.0</ele><time>2026-04-18T11:12:16.992Z</time></trkpt><trkpt lat="44.20283" lon="11.8320917"><ele>256.0</ele><time>2026-04-18T11:12:17.993Z</time></trkpt><trkpt lat="44.2028633" lon="11.8319133"><ele>256.0</ele><time>2026-04-18T11:12:18.993Z</time></trkpt><trkpt lat="44.2028967" lon="11.831735"><ele>256.0</ele><time>2026-04-18T11:12:19.992Z</time></trkpt><trkpt lat="44.2029367" lon="11.83157"><ele>255.60000000000002</ele><time>2026-04-18T11:12:20.992Z</time></trkpt><trkpt lat="44.2029733" lon="11.831415"><ele>255.20000000000002</ele><time>2026-04-18T11:12:21.992Z</time></trkpt><trkpt lat="44.2029967" lon="11.8312667"><ele>254.79999999999998</ele><time>2026-04-18T11:12:22.993Z</time></trkpt><trkpt lat="44.20301" lon="11.8311267"><ele>254.39999999999998</ele><time>2026-04-18T11:12:23.992Z</time></trkpt><trkpt lat="44.2030333" lon="11.8310017"><ele>254.0</ele><time>2026-04-18T11:12:24.994Z</time></trkpt><trkpt lat="44.2030633" lon="11.830905"><ele>254.00000000000003</ele><time>2026-04-18T11:12:25.993Z</time></trkpt><trkpt lat="44.2031017" lon="11.8308167"><ele>254.0</ele><time>2026-04-18T11:12:26.993Z</time></trkpt><trkpt lat="44.203155" lon="11.8307517"><ele>254.0</ele><time>2026-04-18T11:12:27.992Z</time></trkpt><trkpt lat="44.2032033" lon="11.83068"><ele>254.0</ele><time>2026-04-18T11:12:28.994Z</time></trkpt><trkpt lat="44.203265" lon="11.8305867"><ele>254.00000000000003</ele><time>2026-04-18T11:12:29.993Z</time></trkpt><trkpt lat="44.2033217" lon="11.830465"><ele>254.0</ele><time>2026-04-18T11:12:30.992Z</time></trkpt><trkpt lat="44.2033733" lon="11.8303283"><ele>250.25</ele><time>2026-04-18T11:12:31.992Z</time></trkpt><trkpt lat="44.2034267" lon="11.8301783"><ele>246.5</ele><time>2026-04-18T11:12:32.993Z</time></trkpt><trkpt lat="44.2034767" lon="11.8300333"><ele>242.75</ele><time>2026-04-18T11:12:33.993Z</time></trkpt><trkpt lat="44.2035233" lon="11.8298967"><ele>239.0</ele><time>2026-04-18T11:12:34.992Z</time></trkpt><trkpt lat="44.2035633" lon="11.8297567"><ele>239.0</ele><time>2026-04-18T11:12:35.992Z</time></trkpt><trkpt lat="44.2035983" lon="11.8296183"><ele>238.99999999999997</ele><time>2026-04-18T11:12:36.992Z</time></trkpt><trkpt lat="44.20363" lon="11.8294867"><ele>238.99999999999997</ele><time>2026-04-18T11:12:37.992Z</time></trkpt><trkpt lat="44.2036567" lon="11.829355"><ele>239.0</ele><time>2026-04-18T11:12:38.992Z</time></trkpt><trkpt lat="44.203695" lon="11.8292233"><ele>239.0</ele><time>2026-04-18T11:12:39.994Z</time></trkpt><trkpt lat="44.203735" lon="11.82908"><ele>237.75</ele><time>2026-04-18T11:12:40.993Z</time></trkpt><trkpt lat="44.2037867" lon="11.8289383"><ele>236.5</ele><time>2026-04-18T11:12:41.993Z</time></trkpt><trkpt lat="44.2038667" lon="11.8288117"><ele>235.25</ele><time>2026-04-18T11:12:42.992Z</time></trkpt><trkpt lat="44.2039567" lon="11.8286983"><ele>234.0</ele><time>2026-04-18T11:12:43.992Z</time></trkpt><trkpt lat="44.2040483" lon="11.828585"><ele>229.5</ele><time>2026-04-18T11:12:44.992Z</time></trkpt><trkpt lat="44.2041467" lon="11.8284667"><ele>225.0</ele><time>2026-04-18T11:12:45.992Z</time></trkpt><trkpt lat="44.204235" lon="11.82835"><ele>220.5</ele><time>2026-04-18T11:12:46.992Z</time></trkpt><trkpt lat="44.20433" lon="11.82823"><ele>216.0</ele><time>2026-04-18T11:12:47.992Z</time></trkpt><trkpt lat="44.2044217" lon="11.8281117"><ele>216.0</ele><time>2026-04-18T11:12:48.993Z</time></trkpt><trkpt lat="44.2045033" lon="11.8279983"><ele>216.00000000000003</ele><time>2026-04-18T11:12:49.992Z</time></trkpt><trkpt lat="44.204575" lon="11.827895"><ele>216.00000000000003</ele><time>2026-04-18T11:12:50.993Z</time></trkpt><trkpt lat="44.2046333" lon="11.8277983"><ele>216.0</ele><time>2026-04-18T11:12:51.992Z</time></trkpt><trkpt lat="44.20468" lon="11.8277"><ele>216.0</ele><time>2026-04-18T11:12:52.992Z</time></trkpt><trkpt lat="44.204695" lon="11.8276067"><ele>216.0</ele><time>2026-04-18T11:12:53.995Z</time></trkpt><trkpt lat="44.2046283" lon="11.8275317"><ele>216.0</ele><time>2026-04-18T11:12:55.992Z</time></trkpt><trkpt lat="44.2044483" lon="11.8275733"><ele>216.0</ele><time>2026-04-18T11:12:57.992Z</time></trkpt><trkpt lat="44.2043167" lon="11.82764"><ele>216.0</ele><time>2026-04-18T11:12:58.992Z</time></trkpt><trkpt lat="44.2041883" lon="11.8277033"><ele>216.0</ele><time>2026-04-18T11:12:59.992Z</time></trkpt><trkpt lat="44.2040683" lon="11.8277717"><ele>216.00000000000003</ele><time>2026-04-18T11:13:00.992Z</time></trkpt><trkpt lat="44.2039683" lon="11.8278283"><ele>216.00000000000003</ele><time>2026-04-18T11:13:01.993Z</time></trkpt><trkpt lat="44.2038883" lon="11.8278617"><ele>216.0</ele><time>2026-04-18T11:13:02.994Z</time></trkpt><trkpt lat="44.2038233" lon="11.827865"><ele>216.0</ele><time>2026-04-18T11:13:03.993Z</time></trkpt><trkpt lat="44.2037767" lon="11.82776"><ele>216.4</ele><time>2026-04-18T11:13:05.993Z</time></trkpt><trkpt lat="44.2038583" lon="11.827655"><ele>216.8</ele><time>2026-04-18T11:13:07.994Z</time></trkpt><trkpt lat="44.2039383" lon="11.8276233"><ele>217.20000000000002</ele><time>2026-04-18T11:13:08.993Z</time></trkpt><trkpt lat="44.2040333" lon="11.82758"><ele>217.60000000000002</ele><time>2026-04-18T11:13:09.992Z</time></trkpt><trkpt lat="44.20414" lon="11.8275183"><ele>218.0</ele><time>2026-04-18T11:13:10.993Z</time></trkpt><trkpt lat="44.2042433" lon="11.827435"><ele>213.75</ele><time>2026-04-18T11:13:11.992Z</time></trkpt><trkpt lat="44.2043467" lon="11.8273417"><ele>209.5</ele><time>2026-04-18T11:13:12.993Z</time></trkpt><trkpt lat="44.2044517" lon="11.8272433"><ele>205.25</ele><time>2026-04-18T11:13:13.994Z</time></trkpt><trkpt lat="44.2045683" lon="11.827135"><ele>201.0</ele><time>2026-04-18T11:13:14.994Z</time></trkpt><trkpt lat="44.20469" lon="11.8270217"><ele>201.0</ele><time>2026-04-18T11:13:15.993Z</time></trkpt><trkpt lat="44.20481" lon="11.8268983"><ele>201.0</ele><time>2026-04-18T11:13:16.993Z</time></trkpt><trkpt lat="44.2049317" lon="11.8267667"><ele>201.0</ele><time>2026-04-18T11:13:17.992Z</time></trkpt><trkpt lat="44.2050483" lon="11.8266317"><ele>198.5</ele><time>2026-04-18T11:13:18.994Z</time></trkpt><trkpt lat="44.205165" lon="11.8265033"><ele>196.0</ele><time>2026-04-18T11:13:19.993Z</time></trkpt><trkpt lat="44.2052833" lon="11.8263717"><ele>193.5</ele><time>2026-04-18T11:13:20.995Z</time></trkpt><trkpt lat="44.2054" lon="11.8262433"><ele>191.0</ele><time>2026-04-18T11:13:21.993Z</time></trkpt><trkpt lat="44.2055117" lon="11.8261217"><ele>191.0</ele><time>2026-04-18T11:13:22.993Z</time></trkpt><trkpt lat="44.2056217" lon="11.8260183"><ele>191.0</ele><time>2026-04-18T11:13:23.992Z</time></trkpt><trkpt lat="44.2057233" lon="11.82595"><ele>191.0</ele><time>2026-04-18T11:13:24.992Z</time></trkpt><trkpt lat="44.2058217" lon="11.8259167"><ele>191.0</ele><time>2026-04-18T11:13:25.993Z</time></trkpt><trkpt lat="44.2059167" lon="11.8259267"><ele>191.0</ele><time>2026-04-18T11:13:26.992Z</time></trkpt><trkpt lat="44.2059917" lon="11.8259783"><ele>188.4</ele><time>2026-04-18T11:13:27.993Z</time></trkpt><trkpt lat="44.2060533" lon="11.8260533"><ele>185.8</ele><time>2026-04-18T11:13:28.993Z</time></trkpt><trkpt lat="44.20608" lon="11.8261667"><ele>183.20000000000002</ele><time>2026-04-18T11:13:29.997Z</time></trkpt><trkpt lat="44.2060833" lon="11.8263167"><ele>180.60000000000002</ele><time>2026-04-18T11:13:30.993Z</time></trkpt><trkpt lat="44.2060633" lon="11.826485"><ele>178.0</ele><time>2026-04-18T11:13:31.992Z</time></trkpt><trkpt lat="44.2060383" lon="11.8266417"><ele>178.0</ele><time>2026-04-18T11:13:32.993Z</time></trkpt><trkpt lat="44.2060067" lon="11.8267833"><ele>178.0</ele><time>2026-04-18T11:13:33.994Z</time></trkpt><trkpt lat="44.20598" lon="11.8268983"><ele>178.0</ele><time>2026-04-18T11:13:34.993Z</time></trkpt><trkpt lat="44.2059633" lon="11.827"><ele>178.0</ele><time>2026-04-18T11:13:35.993Z</time></trkpt><trkpt lat="44.2060317" lon="11.82707"><ele>178.0</ele><time>2026-04-18T11:13:37.994Z</time></trkpt><trkpt lat="44.2061433" lon="11.827"><ele>178.0</ele><time>2026-04-18T11:13:39.991Z</time></trkpt><trkpt lat="44.2062017" lon="11.8269083"><ele>178.0</ele><time>2026-04-18T11:13:40.993Z</time></trkpt><trkpt lat="44.206285" lon="11.82677"><ele>178.0</ele><time>2026-04-18T11:13:41.993Z</time></trkpt><trkpt lat="44.206365" lon="11.826615"><ele>178.0</ele><time>2026-04-18T11:13:42.993Z</time></trkpt><trkpt lat="44.20645" lon="11.8264417"><ele>172.0</ele><time>2026-04-18T11:13:43.992Z</time></trkpt><trkpt lat="44.206535" lon="11.8262617"><ele>166.0</ele><time>2026-04-18T11:13:44.997Z</time></trkpt><trkpt lat="44.2066183" lon="11.826075"><ele>160.0</ele><time>2026-04-18T11:13:45.992Z</time></trkpt><trkpt lat="44.2067083" lon="11.8258933"><ele>160.0</ele><time>2026-04-18T11:13:46.993Z</time></trkpt><trkpt lat="44.20681" lon="11.8257267"><ele>160.0</ele><time>2026-04-18T11:13:47.993Z</time></trkpt><trkpt lat="44.20693" lon="11.82557"><ele>160.0</ele><time>2026-04-18T11:13:48.992Z</time></trkpt><trkpt lat="44.20706" lon="11.825415"><ele>160.0</ele><time>2026-04-18T11:13:49.993Z</time></trkpt><trkpt lat="44.2071933" lon="11.825275"><ele>160.0</ele><time>2026-04-18T11:13:50.992Z</time></trkpt><trkpt lat="44.20733" lon="11.825145"><ele>160.0</ele><time>2026-04-18T11:13:51.992Z</time></trkpt><trkpt lat="44.20746" lon="11.82502"><ele>152.66666666666669</ele><time>2026-04-18T11:13:52.991Z</time></trkpt><trkpt lat="44.2075883" lon="11.8248817"><ele>145.33333333333334</ele><time>2026-04-18T11:13:53.993Z</time></trkpt><trkpt lat="44.2077083" lon="11.8247367"><ele>138.0</ele><time>2026-04-18T11:13:54.992Z</time></trkpt><trkpt lat="44.20781" lon="11.8245833"><ele>138.0</ele><time>2026-04-18T11:13:55.992Z</time></trkpt><trkpt lat="44.207895" lon="11.8244383"><ele>138.0</ele><time>2026-04-18T11:13:56.993Z</time></trkpt><trkpt lat="44.2079517" lon="11.8243017"><ele>138.0</ele><time>2026-04-18T11:13:57.993Z</time></trkpt><trkpt lat="44.2079883" lon="11.8241617"><ele>138.0</ele><time>2026-04-18T11:13:58.993Z</time></trkpt><trkpt lat="44.2080067" lon="11.82401"><ele>137.25</ele><time>2026-04-18T11:13:59.992Z</time></trkpt><trkpt lat="44.2080317" lon="11.823855"><ele>136.5</ele><time>2026-04-18T11:14:00.992Z</time></trkpt><trkpt lat="44.2080717" lon="11.8237117"><ele>135.75</ele><time>2026-04-18T11:14:01.992Z</time></trkpt><trkpt lat="44.2081417" lon="11.8235717"><ele>135.0</ele><time>2026-04-18T11:14:02.992Z</time></trkpt><trkpt lat="44.2082217" lon="11.8234383"><ele>132.0</ele><time>2026-04-18T11:14:03.993Z</time></trkpt><trkpt lat="44.2083083" lon="11.8233267"><ele>129.0</ele><time>2026-04-18T11:14:04.992Z</time></trkpt><trkpt lat="44.20839" lon="11.82324"><ele>126.0</ele><time>2026-04-18T11:14:05.992Z</time></trkpt><trkpt lat="44.2084733" lon="11.8231983"><ele>123.0</ele><time>2026-04-18T11:14:06.993Z</time></trkpt><trkpt lat="44.2085533" lon="11.8231867"><ele>120.0</ele><time>2026-04-18T11:14:07.992Z</time></trkpt><trkpt lat="44.2086333" lon="11.8232367"><ele>120.0</ele><time>2026-04-18T11:14:08.994Z</time></trkpt><trkpt lat="44.2087217" lon="11.823325"><ele>120.0</ele><time>2026-04-18T11:14:09.992Z</time></trkpt><trkpt lat="44.2088267" lon="11.823425"><ele>120.0</ele><time>2026-04-18T11:14:10.994Z</time></trkpt><trkpt lat="44.2089467" lon="11.8235083"><ele>120.0</ele><time>2026-04-18T11:14:11.993Z</time></trkpt><trkpt lat="44.2090767" lon="11.8235767"><ele>119.2</ele><time>2026-04-18T11:14:12.992Z</time></trkpt><trkpt lat="44.2092" lon="11.8236417"><ele>118.4</ele><time>2026-04-18T11:14:13.993Z</time></trkpt><trkpt lat="44.209305" lon="11.8236883"><ele>117.6</ele><time>2026-04-18T11:14:14.992Z</time></trkpt><trkpt lat="44.2093967" lon="11.8237017"><ele>116.8</ele><time>2026-04-18T11:14:15.993Z</time></trkpt><trkpt lat="44.2094783" lon="11.823695"><ele>116.0</ele><time>2026-04-18T11:14:16.992Z</time></trkpt><trkpt lat="44.2095367" lon="11.8236317"><ele>116.0</ele><time>2026-04-18T11:14:17.993Z</time></trkpt><trkpt lat="44.2095867" lon="11.8235433"><ele>116.0</ele><time>2026-04-18T11:14:18.992Z</time></trkpt><trkpt lat="44.2096317" lon="11.8234167"><ele>116.0</ele><time>2026-04-18T11:14:19.993Z</time></trkpt><trkpt lat="44.2096833" lon="11.823255"><ele>116.0</ele><time>2026-04-18T11:14:20.993Z</time></trkpt><trkpt lat="44.2097483" lon="11.82308"><ele>112.5</ele><time>2026-04-18T11:14:21.993Z</time></trkpt><trkpt lat="44.2098283" lon="11.822905"><ele>109.0</ele><time>2026-04-18T11:14:22.992Z</time></trkpt><trkpt lat="44.209915" lon="11.822735"><ele>105.5</ele><time>2026-04-18T11:14:23.992Z</time></trkpt><trkpt lat="44.210005" lon="11.82257"><ele>102.0</ele><time>2026-04-18T11:14:24.994Z</time></trkpt><trkpt lat="44.2100867" lon="11.822405"><ele>102.0</ele><time>2026-04-18T11:14:25.993Z</time></trkpt><trkpt lat="44.2101567" lon="11.8222383"><ele>102.0</ele><time>2026-04-18T11:14:26.993Z</time></trkpt><trkpt lat="44.2102183" lon="11.8220717"><ele>102.0</ele><time>2026-04-18T11:14:27.994Z</time></trkpt><trkpt lat="44.21028" lon="11.8219217"><ele>102.0</ele><time>2026-04-18T11:14:28.993Z</time></trkpt><trkpt lat="44.2103533" lon="11.8217833"><ele>101.0</ele><time>2026-04-18T11:14:29.993Z</time></trkpt><trkpt lat="44.2104383" lon="11.82166"><ele>100.0</ele><time>2026-04-18T11:14:30.993Z</time></trkpt><trkpt lat="44.210535" lon="11.8215617"><ele>99.0</ele><time>2026-04-18T11:14:31.992Z</time></trkpt><trkpt lat="44.2106183" lon="11.8214667"><ele>98.0</ele><time>2026-04-18T11:14:32.993Z</time></trkpt><trkpt lat="44.2106717" lon="11.8213583"><ele>97.0</ele><time>2026-04-18T11:14:33.992Z</time></trkpt><trkpt lat="44.210695" lon="11.8212433"><ele>96.0</ele><time>2026-04-18T11:14:34.994Z</time></trkpt><trkpt lat="44.210695" lon="11.821125"><ele>95.0</ele><time>2026-04-18T11:14:35.993Z</time></trkpt><trkpt lat="44.2106633" lon="11.8210283"><ele>94.0</ele><time>2026-04-18T11:14:36.994Z</time></trkpt><trkpt lat="44.210625" lon="11.8209433"><ele>93.0</ele><time>2026-04-18T11:14:37.992Z</time></trkpt><trkpt lat="44.2105167" lon="11.82095"><ele>92.0</ele><time>2026-04-18T11:14:38.993Z</time></trkpt><trkpt lat="44.2104017" lon="11.8209683"><ele>91.75</ele><time>2026-04-18T11:14:39.993Z</time></trkpt><trkpt lat="44.210265" lon="11.8209617"><ele>91.5</ele><time>2026-04-18T11:14:40.993Z</time></trkpt><trkpt lat="44.2101367" lon="11.82092"><ele>91.25</ele><time>2026-04-18T11:14:41.993Z</time></trkpt><trkpt lat="44.2100117" lon="11.8208433"><ele>91.0</ele><time>2026-04-18T11:14:42.993Z</time></trkpt><trkpt lat="44.209885" lon="11.8207633"><ele>91.5</ele><time>2026-04-18T11:14:43.992Z</time></trkpt><trkpt lat="44.2097533" lon="11.8206833"><ele>92.0</ele><time>2026-04-18T11:14:44.994Z</time></trkpt><trkpt lat="44.2096217" lon="11.8206017"><ele>92.5</ele><time>2026-04-18T11:14:45.994Z</time></trkpt><trkpt lat="44.2094883" lon="11.8205167"><ele>93.0</ele><time>2026-04-18T11:14:46.993Z</time></trkpt><trkpt lat="44.209355" lon="11.8204333"><ele>93.0</ele><time>2026-04-18T11:14:47.994Z</time></trkpt><trkpt lat="44.2092233" lon="11.8203517"><ele>93.0</ele><time>2026-04-18T11:14:48.991Z</time></trkpt><trkpt lat="44.20911" lon="11.82028"><ele>93.0</ele><time>2026-04-18T11:14:49.992Z</time></trkpt><trkpt lat="44.20902" lon="11.8202083"><ele>93.0</ele><time>2026-04-18T11:14:50.993Z</time></trkpt><trkpt lat="44.2089467" lon="11.8201317"><ele>93.33333333333333</ele><time>2026-04-18T11:14:51.993Z</time></trkpt><trkpt lat="44.2088867" lon="11.8200383"><ele>93.66666666666667</ele><time>2026-04-18T11:14:52.992Z</time></trkpt><trkpt lat="44.2088367" lon="11.8199317"><ele>94.0</ele><time>2026-04-18T11:14:53.993Z</time></trkpt><trkpt lat="44.2088017" lon="11.819825"><ele>94.33333333333334</ele><time>2026-04-18T11:14:54.991Z</time></trkpt><trkpt lat="44.2087733" lon="11.8197317"><ele>94.66666666666667</ele><time>2026-04-18T11:14:55.993Z</time></trkpt><trkpt lat="44.20877" lon="11.8195933"><ele>95.0</ele><time>2026-04-18T11:14:57.992Z</time></trkpt><trkpt lat="44.2088583" lon="11.8194917"><ele>95.0</ele><time>2026-04-18T11:14:59.992Z</time></trkpt><trkpt lat="44.2089383" lon="11.8194617"><ele>95.0</ele><time>2026-04-18T11:15:00.992Z</time></trkpt><trkpt lat="44.2090117" lon="11.819445"><ele>95.0</ele><time>2026-04-18T11:15:01.993Z</time></trkpt><trkpt lat="44.209075" lon="11.8194267"><ele>95.0</ele><time>2026-04-18T11:15:02.993Z</time></trkpt><trkpt lat="44.2091717" lon="11.8193383"><ele>95.0</ele><time>2026-04-18T11:15:04.993Z</time></trkpt><trkpt lat="44.20921" lon="11.8191733"><ele>93.8</ele><time>2026-04-18T11:15:06.993Z</time></trkpt><trkpt lat="44.2091883" lon="11.8190317"><ele>92.6</ele><time>2026-04-18T11:15:08.993Z</time></trkpt><trkpt lat="44.2091033" lon="11.8189333"><ele>91.4</ele><time>2026-04-18T11:15:10.992Z</time></trkpt><trkpt lat="44.20903" lon="11.81881"><ele>90.2</ele><time>2026-04-18T11:15:12.993Z</time></trkpt><trkpt lat="44.2090333" lon="11.81869"><ele>89.0</ele><time>2026-04-18T11:15:14.992Z</time></trkpt><trkpt lat="44.2090317" lon="11.8185767"><ele>89.0</ele><time>2026-04-18T11:15:55.994Z</time></trkpt><trkpt lat="44.2089967" lon="11.8186533"><ele>89.0</ele><time>2026-04-18T11:15:58.992Z</time></trkpt><trkpt lat="44.209005" lon="11.8187683"><ele>89.0</ele><time>2026-04-18T11:16:19.992Z</time></trkpt><trkpt lat="44.2090283" lon="11.8188767"><ele>89.0</ele><time>2026-04-18T11:16:21.993Z</time></trkpt><trkpt lat="44.2090667" lon="11.8189533"><ele>89.0</ele><time>2026-04-18T11:16:23.994Z</time></trkpt><trkpt lat="44.209125" lon="11.8189983"><ele>89.0</ele><time>2026-04-18T11:16:26.994Z</time></trkpt><trkpt lat="44.20921" lon="11.8191167"><ele>89.0</ele><time>2026-04-18T11:19:40.993Z</time></trkpt><trkpt lat="44.2091217" lon="11.819025"><ele>89.0</ele><time>2026-04-18T11:22:31.994Z</time></trkpt><trkpt lat="44.20903" lon="11.8189283"><ele>89.0</ele><time>2026-04-18T11:22:33.993Z</time></trkpt><trkpt lat="44.2090183" lon="11.81877"><ele>89.0</ele><time>2026-04-18T11:22:35.994Z</time></trkpt><trkpt lat="44.2090417" lon="11.8186667"><ele>89.0</ele><time>2026-04-18T11:22:37.994Z</time></trkpt><trkpt lat="44.20904" lon="11.8185733"><ele>89.4</ele><time>2026-04-18T11:22:41.993Z</time></trkpt><trkpt lat="44.20897" lon="11.818525"><ele>89.80000000000001</ele><time>2026-04-18T11:22:43.993Z</time></trkpt><trkpt lat="44.20885" lon="11.8185383"><ele>90.19999999999999</ele><time>2026-04-18T11:22:45.994Z</time></trkpt><trkpt lat="44.2087833" lon="11.8185533"><ele>90.6</ele><time>2026-04-18T11:22:46.994Z</time></trkpt><trkpt lat="44.208665" lon="11.8185683"><ele>91.0</ele><time>2026-04-18T11:22:48.994Z</time></trkpt><trkpt lat="44.2085933" lon="11.81857"><ele>91.0</ele><time>2026-04-18T11:22:50.993Z</time></trkpt><trkpt lat="44.2085067" lon="11.8185783"><ele>91.0</ele><time>2026-04-18T11:23:01.993Z</time></trkpt><trkpt lat="44.2083767" lon="11.8185917"><ele>91.0</ele><time>2026-04-18T11:23:03.992Z</time></trkpt><trkpt lat="44.2082817" lon="11.8186083"><ele>91.0</ele><time>2026-04-18T11:23:04.994Z</time></trkpt><trkpt lat="44.2081817" lon="11.8186217"><ele>91.0</ele><time>2026-04-18T11:23:05.994Z</time></trkpt><trkpt lat="44.20807" lon="11.8186383"><ele>91.5</ele><time>2026-04-18T11:23:06.992Z</time></trkpt><trkpt lat="44.2079533" lon="11.8186617"><ele>92.0</ele><time>2026-04-18T11:23:07.993Z</time></trkpt><trkpt lat="44.2078367" lon="11.8186883"><ele>92.5</ele><time>2026-04-18T11:23:08.993Z</time></trkpt><trkpt lat="44.2077133" lon="11.8187233"><ele>93.0</ele><time>2026-04-18T11:23:09.993Z</time></trkpt><trkpt lat="44.2075917" lon="11.81877"><ele>93.0</ele><time>2026-04-18T11:23:10.993Z</time></trkpt><trkpt lat="44.2074683" lon="11.81882"><ele>93.0</ele><time>2026-04-18T11:23:11.993Z</time></trkpt><trkpt lat="44.2073383" lon="11.818865"><ele>93.0</ele><time>2026-04-18T11:23:12.994Z</time></trkpt><trkpt lat="44.207205" lon="11.818915"><ele>93.0</ele><time>2026-04-18T11:23:13.993Z</time></trkpt><trkpt lat="44.2070633" lon="11.81896"><ele>92.66666666666667</ele><time>2026-04-18T11:23:14.994Z</time></trkpt><trkpt lat="44.2069183" lon="11.8190083"><ele>92.33333333333334</ele><time>2026-04-18T11:23:15.993Z</time></trkpt><trkpt lat="44.2067667" lon="11.8190583"><ele>92.0</ele><time>2026-04-18T11:23:16.993Z</time></trkpt><trkpt lat="44.20661" lon="11.8190967"><ele>93.0</ele><time>2026-04-18T11:23:17.994Z</time></trkpt><trkpt lat="44.2064483" lon="11.8191367"><ele>94.0</ele><time>2026-04-18T11:23:18.994Z</time></trkpt><trkpt lat="44.2062817" lon="11.8191817"><ele>95.0</ele><time>2026-04-18T11:23:19.993Z</time></trkpt><trkpt lat="44.2061133" lon="11.8192283"><ele>95.0</ele><time>2026-04-18T11:23:20.993Z</time></trkpt><trkpt lat="44.205945" lon="11.8192733"><ele>95.0</ele><time>2026-04-18T11:23:21.993Z</time></trkpt><trkpt lat="44.20578" lon="11.8193167"><ele>95.0</ele><time>2026-04-18T11:23:22.994Z</time></trkpt><trkpt lat="44.2056183" lon="11.8193517"><ele>95.66666666666667</ele><time>2026-04-18T11:23:23.995Z</time></trkpt><trkpt lat="44.2054617" lon="11.8193683"><ele>96.33333333333334</ele><time>2026-04-18T11:23:24.993Z</time></trkpt><trkpt lat="44.2053083" lon="11.8193667"><ele>97.0</ele><time>2026-04-18T11:23:25.993Z</time></trkpt><trkpt lat="44.2051517" lon="11.819355"><ele>97.0</ele><time>2026-04-18T11:23:26.994Z</time></trkpt><trkpt lat="44.2049933" lon="11.8193317"><ele>97.0</ele><time>2026-04-18T11:23:27.993Z</time></trkpt><trkpt lat="44.2048333" lon="11.8192917"><ele>97.0</ele><time>2026-04-18T11:23:28.993Z</time></trkpt><trkpt lat="44.2046733" lon="11.819245"><ele>96.0</ele><time>2026-04-18T11:23:29.993Z</time></trkpt><trkpt lat="44.2045183" lon="11.8191733"><ele>95.0</ele><time>2026-04-18T11:23:30.993Z</time></trkpt><trkpt lat="44.2043667" lon="11.81908"><ele>94.0</ele><time>2026-04-18T11:23:31.993Z</time></trkpt><trkpt lat="44.2042183" lon="11.81898"><ele>94.0</ele><time>2026-04-18T11:23:32.995Z</time></trkpt><trkpt lat="44.204065" lon="11.81888"><ele>94.0</ele><time>2026-04-18T11:23:33.993Z</time></trkpt><trkpt lat="44.2039117" lon="11.8187833"><ele>94.0</ele><time>2026-04-18T11:23:34.993Z</time></trkpt><trkpt lat="44.2037583" lon="11.8186833"><ele>94.0</ele><time>2026-04-18T11:23:35.993Z</time></trkpt><trkpt lat="44.2036067" lon="11.8185733"><ele>94.0</ele><time>2026-04-18T11:23:36.993Z</time></trkpt><trkpt lat="44.2034517" lon="11.8184617"><ele>94.0</ele><time>2026-04-18T11:23:37.993Z</time></trkpt><trkpt lat="44.203295" lon="11.8183517"><ele>94.0</ele><time>2026-04-18T11:23:38.993Z</time></trkpt><trkpt lat="44.20314" lon="11.8182383"><ele>94.0</ele><time>2026-04-18T11:23:39.994Z</time></trkpt><trkpt lat="44.202985" lon="11.8181233"><ele>94.0</ele><time>2026-04-18T11:23:40.994Z</time></trkpt><trkpt lat="44.2028267" lon="11.81801"><ele>94.0</ele><time>2026-04-18T11:23:41.993Z</time></trkpt><trkpt lat="44.2026683" lon="11.817895"><ele>94.0</ele><time>2026-04-18T11:23:42.993Z</time></trkpt><trkpt lat="44.20251" lon="11.817775"><ele>94.0</ele><time>2026-04-18T11:23:43.993Z</time></trkpt><trkpt lat="44.2023517" lon="11.8176533"><ele>94.33333333333333</ele><time>2026-04-18T11:23:44.993Z</time></trkpt><trkpt lat="44.2021967" lon="11.8175333"><ele>94.66666666666667</ele><time>2026-04-18T11:23:45.992Z</time></trkpt><trkpt lat="44.20204" lon="11.8174183"><ele>95.0</ele><time>2026-04-18T11:23:46.993Z</time></trkpt><trkpt lat="44.2018867" lon="11.8173017"><ele>95.0</ele><time>2026-04-18T11:23:47.994Z</time></trkpt><trkpt lat="44.2017367" lon="11.8171883"><ele>95.0</ele><time>2026-04-18T11:23:48.995Z</time></trkpt><trkpt lat="44.2015883" lon="11.8170733"><ele>95.0</ele><time>2026-04-18T11:23:49.994Z</time></trkpt><trkpt lat="44.20144" lon="11.81696"><ele>96.66666666666667</ele><time>2026-04-18T11:23:50.993Z</time></trkpt><trkpt lat="44.20129" lon="11.8168483"><ele>98.33333333333334</ele><time>2026-04-18T11:23:51.992Z</time></trkpt><trkpt lat="44.201145" lon="11.8167417"><ele>100.0</ele><time>2026-04-18T11:23:52.993Z</time></trkpt><trkpt lat="44.201015" lon="11.8166417"><ele>100.2</ele><time>2026-04-18T11:23:53.993Z</time></trkpt><trkpt lat="44.2009033" lon="11.8165583"><ele>100.4</ele><time>2026-04-18T11:23:54.993Z</time></trkpt><trkpt lat="44.2008017" lon="11.8165"><ele>100.6</ele><time>2026-04-18T11:23:55.992Z</time></trkpt><trkpt lat="44.2007033" lon="11.81648"><ele>100.8</ele><time>2026-04-18T11:23:56.994Z</time></trkpt><trkpt lat="44.20061" lon="11.8165117"><ele>101.0</ele><time>2026-04-18T11:23:57.993Z</time></trkpt><trkpt lat="44.2005233" lon="11.8165933"><ele>100.75</ele><time>2026-04-18T11:23:58.992Z</time></trkpt><trkpt lat="44.2004383" lon="11.816715"><ele>100.5</ele><time>2026-04-18T11:23:59.993Z</time></trkpt><trkpt lat="44.2003517" lon="11.8168483"><ele>100.25</ele><time>2026-04-18T11:24:00.993Z</time></trkpt><trkpt lat="44.2002567" lon="11.8169967"><ele>100.0</ele><time>2026-04-18T11:24:01.993Z</time></trkpt><trkpt lat="44.2001533" lon="11.8171533"><ele>100.0</ele><time>2026-04-18T11:24:02.993Z</time></trkpt><trkpt lat="44.2000433" lon="11.817325"><ele>100.0</ele><time>2026-04-18T11:24:03.992Z</time></trkpt><trkpt lat="44.19993" lon="11.817505"><ele>100.0</ele><time>2026-04-18T11:24:04.993Z</time></trkpt><trkpt lat="44.199815" lon="11.8176867"><ele>100.33333333333334</ele><time>2026-04-18T11:24:05.992Z</time></trkpt><trkpt lat="44.1996933" lon="11.8178633"><ele>100.66666666666666</ele><time>2026-04-18T11:24:06.993Z</time></trkpt><trkpt lat="44.199565" lon="11.81802"><ele>101.0</ele><time>2026-04-18T11:24:07.993Z</time></trkpt><trkpt lat="44.199425" lon="11.8181483"><ele>101.0</ele><time>2026-04-18T11:24:08.994Z</time></trkpt><trkpt lat="44.1992767" lon="11.818245"><ele>101.0</ele><time>2026-04-18T11:24:09.992Z</time></trkpt><trkpt lat="44.1991217" lon="11.8183117"><ele>101.0</ele><time>2026-04-18T11:24:10.992Z</time></trkpt><trkpt lat="44.1989617" lon="11.8183533"><ele>101.33333333333333</ele><time>2026-04-18T11:24:11.992Z</time></trkpt><trkpt lat="44.1987983" lon="11.8183767"><ele>101.66666666666666</ele><time>2026-04-18T11:24:12.992Z</time></trkpt><trkpt lat="44.1986317" lon="11.8183867"><ele>102.0</ele><time>2026-04-18T11:24:13.993Z</time></trkpt><trkpt lat="44.1984617" lon="11.818395"><ele>102.0</ele><time>2026-04-18T11:24:14.992Z</time></trkpt><trkpt lat="44.1982883" lon="11.8184033"><ele>102.0</ele><time>2026-04-18T11:24:15.992Z</time></trkpt><trkpt lat="44.1981133" lon="11.81841"><ele>102.0</ele><time>2026-04-18T11:24:16.993Z</time></trkpt><trkpt lat="44.1979417" lon="11.8184083"><ele>104.0</ele><time>2026-04-18T11:24:17.994Z</time></trkpt><trkpt lat="44.1977783" lon="11.81839"><ele>106.0</ele><time>2026-04-18T11:24:18.992Z</time></trkpt><trkpt lat="44.197625" lon="11.8183567"><ele>108.0</ele><time>2026-04-18T11:24:19.993Z</time></trkpt><trkpt lat="44.1974817" lon="11.8183167"><ele>108.0</ele><time>2026-04-18T11:24:20.995Z</time></trkpt><trkpt lat="44.197345" lon="11.8182767"><ele>108.0</ele><time>2026-04-18T11:24:21.992Z</time></trkpt><trkpt lat="44.197205" lon="11.8182483"><ele>108.0</ele><time>2026-04-18T11:24:22.992Z</time></trkpt><trkpt lat="44.19706" lon="11.8182333"><ele>108.0</ele><time>2026-04-18T11:24:23.994Z</time></trkpt><trkpt lat="44.1969117" lon="11.818235"><ele>107.5</ele><time>2026-04-18T11:24:24.992Z</time></trkpt><trkpt lat="44.1967683" lon="11.8182633"><ele>107.0</ele><time>2026-04-18T11:24:25.992Z</time></trkpt><trkpt lat="44.1966317" lon="11.8183133"><ele>106.5</ele><time>2026-04-18T11:24:26.992Z</time></trkpt><trkpt lat="44.1964967" lon="11.8183883"><ele>106.0</ele><time>2026-04-18T11:24:27.992Z</time></trkpt><trkpt lat="44.196365" lon="11.8184883"><ele>104.66666666666667</ele><time>2026-04-18T11:24:28.994Z</time></trkpt><trkpt lat="44.1962333" lon="11.8186033"><ele>103.33333333333334</ele><time>2026-04-18T11:24:29.993Z</time></trkpt><trkpt lat="44.1961" lon="11.818725"><ele>102.0</ele><time>2026-04-18T11:24:30.993Z</time></trkpt><trkpt lat="44.1959667" lon="11.81885"><ele>102.0</ele><time>2026-04-18T11:24:31.993Z</time></trkpt><trkpt lat="44.1958317" lon="11.8189833"><ele>102.0</ele><time>2026-04-18T11:24:32.994Z</time></trkpt><trkpt lat="44.195695" lon="11.819115"><ele>102.0</ele><time>2026-04-18T11:24:33.994Z</time></trkpt><trkpt lat="44.1955517" lon="11.8192267"><ele>102.75</ele><time>2026-04-18T11:24:34.992Z</time></trkpt><trkpt lat="44.1954067" lon="11.81931"><ele>103.5</ele><time>2026-04-18T11:24:35.993Z</time></trkpt><trkpt lat="44.1952617" lon="11.8193517"><ele>104.25</ele><time>2026-04-18T11:24:36.992Z</time></trkpt><trkpt lat="44.1951183" lon="11.8193533"><ele>105.0</ele><time>2026-04-18T11:24:37.992Z</time></trkpt><trkpt lat="44.1949767" lon="11.819325"><ele>106.66666666666666</ele><time>2026-04-18T11:24:38.993Z</time></trkpt><trkpt lat="44.1948317" lon="11.8192733"><ele>108.33333333333333</ele><time>2026-04-18T11:24:39.993Z</time></trkpt><trkpt lat="44.1946783" lon="11.81921"><ele>110.0</ele><time>2026-04-18T11:24:40.993Z</time></trkpt><trkpt lat="44.1945183" lon="11.8191417"><ele>110.0</ele><time>2026-04-18T11:24:41.993Z</time></trkpt><trkpt lat="44.1943517" lon="11.8190717"><ele>110.0</ele><time>2026-04-18T11:24:42.993Z</time></trkpt><trkpt lat="44.1941833" lon="11.819"><ele>110.0</ele><time>2026-04-18T11:24:43.993Z</time></trkpt><trkpt lat="44.19401" lon="11.81893"><ele>111.66666666666666</ele><time>2026-04-18T11:24:44.994Z</time></trkpt><trkpt lat="44.193835" lon="11.8188617"><ele>113.33333333333334</ele><time>2026-04-18T11:24:45.993Z</time></trkpt><trkpt lat="44.19367" lon="11.8187933"><ele>115.0</ele><time>2026-04-18T11:24:46.992Z</time></trkpt><trkpt lat="44.193525" lon="11.81873"><ele>115.0</ele><time>2026-04-18T11:24:47.993Z</time></trkpt><trkpt lat="44.1933917" lon="11.81866"><ele>115.0</ele><time>2026-04-18T11:24:48.994Z</time></trkpt><trkpt lat="44.1932733" lon="11.8185617"><ele>115.0</ele><time>2026-04-18T11:24:49.993Z</time></trkpt><trkpt lat="44.1931583" lon="11.8184467"><ele>115.0</ele><time>2026-04-18T11:24:50.993Z</time></trkpt><trkpt lat="44.1930517" lon="11.8183183"><ele>117.0</ele><time>2026-04-18T11:24:51.993Z</time></trkpt><trkpt lat="44.1929433" lon="11.8181833"><ele>119.0</ele><time>2026-04-18T11:24:52.992Z</time></trkpt><trkpt lat="44.1928283" lon="11.8180617"><ele>121.0</ele><time>2026-04-18T11:24:53.994Z</time></trkpt><trkpt lat="44.19271" lon="11.8179667"><ele>123.0</ele><time>2026-04-18T11:24:54.994Z</time></trkpt><trkpt lat="44.19259" lon="11.81791"><ele>123.0</ele><time>2026-04-18T11:24:55.992Z</time></trkpt><trkpt lat="44.1924683" lon="11.8178867"><ele>123.0</ele><time>2026-04-18T11:24:56.994Z</time></trkpt><trkpt lat="44.1923383" lon="11.81789"><ele>123.0</ele><time>2026-04-18T11:24:57.992Z</time></trkpt><trkpt lat="44.1922133" lon="11.8179217"><ele>123.0</ele><time>2026-04-18T11:24:58.993Z</time></trkpt><trkpt lat="44.1920967" lon="11.8179917"><ele>124.75</ele><time>2026-04-18T11:24:59.992Z</time></trkpt><trkpt lat="44.1919867" lon="11.81809"><ele>126.5</ele><time>2026-04-18T11:25:00.993Z</time></trkpt><trkpt lat="44.1918783" lon="11.818215"><ele>128.25</ele><time>2026-04-18T11:25:01.992Z</time></trkpt><trkpt lat="44.1917633" lon="11.8183517"><ele>130.0</ele><time>2026-04-18T11:25:02.993Z</time></trkpt><trkpt lat="44.1916367" lon="11.8184817"><ele>132.0</ele><time>2026-04-18T11:25:03.993Z</time></trkpt><trkpt lat="44.1915" lon="11.8185983"><ele>134.0</ele><time>2026-04-18T11:25:04.993Z</time></trkpt><trkpt lat="44.19136" lon="11.8186983"><ele>136.0</ele><time>2026-04-18T11:25:05.992Z</time></trkpt><trkpt lat="44.1912117" lon="11.81878"><ele>136.0</ele><time>2026-04-18T11:25:06.994Z</time></trkpt><trkpt lat="44.191055" lon="11.8188533"><ele>136.0</ele><time>2026-04-18T11:25:07.993Z</time></trkpt><trkpt lat="44.190895" lon="11.8189133"><ele>136.0</ele><time>2026-04-18T11:25:08.993Z</time></trkpt><trkpt lat="44.190735" lon="11.818975"><ele>136.66666666666669</ele><time>2026-04-18T11:25:09.993Z</time></trkpt><trkpt lat="44.19057" lon="11.819035"><ele>137.33333333333334</ele><time>2026-04-18T11:25:10.992Z</time></trkpt><trkpt lat="44.1904" lon="11.8190983"><ele>138.0</ele><time>2026-04-18T11:25:11.992Z</time></trkpt><trkpt lat="44.1902267" lon="11.8191617"><ele>138.0</ele><time>2026-04-18T11:25:12.992Z</time></trkpt><trkpt lat="44.190055" lon="11.819225"><ele>138.0</ele><time>2026-04-18T11:25:13.995Z</time></trkpt><trkpt lat="44.1898817" lon="11.8192867"><ele>138.0</ele><time>2026-04-18T11:25:14.994Z</time></trkpt><trkpt lat="44.1897067" lon="11.8193483"><ele>138.0</ele><time>2026-04-18T11:25:15.995Z</time></trkpt><trkpt lat="44.1895317" lon="11.8194083"><ele>138.0</ele><time>2026-04-18T11:25:16.995Z</time></trkpt><trkpt lat="44.189355" lon="11.81947"><ele>138.0</ele><time>2026-04-18T11:25:17.994Z</time></trkpt><trkpt lat="44.1891783" lon="11.81953"><ele>138.0</ele><time>2026-04-18T11:25:18.993Z</time></trkpt><trkpt lat="44.189" lon="11.8195933"><ele>138.0</ele><time>2026-04-18T11:25:19.994Z</time></trkpt><trkpt lat="44.1888233" lon="11.8196567"><ele>138.0</ele><time>2026-04-18T11:25:20.994Z</time></trkpt><trkpt lat="44.188645" lon="11.8197183"><ele>138.0</ele><time>2026-04-18T11:25:21.994Z</time></trkpt><trkpt lat="44.18847" lon="11.81978"><ele>138.0</ele><time>2026-04-18T11:25:22.993Z</time></trkpt><trkpt lat="44.1883033" lon="11.819835"><ele>138.0</ele><time>2026-04-18T11:25:23.994Z</time></trkpt><trkpt lat="44.188145" lon="11.8198883"><ele>139.0</ele><time>2026-04-18T11:25:24.993Z</time></trkpt><trkpt lat="44.187985" lon="11.819945"><ele>140.0</ele><time>2026-04-18T11:25:25.993Z</time></trkpt><trkpt lat="44.1878233" lon="11.8200017"><ele>141.0</ele><time>2026-04-18T11:25:26.992Z</time></trkpt><trkpt lat="44.18766" lon="11.82006"><ele>141.0</ele><time>2026-04-18T11:25:27.992Z</time></trkpt><trkpt lat="44.187495" lon="11.820115"><ele>141.0</ele><time>2026-04-18T11:25:28.992Z</time></trkpt><trkpt lat="44.1873267" lon="11.8201667"><ele>141.0</ele><time>2026-04-18T11:25:29.993Z</time></trkpt><trkpt lat="44.1871533" lon="11.820205"><ele>140.33333333333334</ele><time>2026-04-18T11:25:30.993Z</time></trkpt><trkpt lat="44.1869783" lon="11.8202283"><ele>139.66666666666669</ele><time>2026-04-18T11:25:31.992Z</time></trkpt><trkpt lat="44.1868017" lon="11.8202367"><ele>139.0</ele><time>2026-04-18T11:25:32.993Z</time></trkpt><trkpt lat="44.1866217" lon="11.820245"><ele>139.66666666666669</ele><time>2026-04-18T11:25:33.993Z</time></trkpt><trkpt lat="44.1864417" lon="11.8202517"><ele>140.33333333333334</ele><time>2026-04-18T11:25:34.992Z</time></trkpt><trkpt lat="44.1862667" lon="11.8202583"><ele>141.0</ele><time>2026-04-18T11:25:35.992Z</time></trkpt><trkpt lat="44.1861017" lon="11.8202617"><ele>141.0</ele><time>2026-04-18T11:25:36.992Z</time></trkpt><trkpt lat="44.185945" lon="11.8202667"><ele>141.0</ele><time>2026-04-18T11:25:37.993Z</time></trkpt><trkpt lat="44.1857883" lon="11.8202733"><ele>141.0</ele><time>2026-04-18T11:25:38.992Z</time></trkpt><trkpt lat="44.18563" lon="11.8202783"><ele>141.0</ele><time>2026-04-18T11:25:39.993Z</time></trkpt><trkpt lat="44.18547" lon="11.8202817"><ele>141.0</ele><time>2026-04-18T11:25:40.992Z</time></trkpt><trkpt lat="44.1853067" lon="11.8202833"><ele>141.0</ele><time>2026-04-18T11:25:41.992Z</time></trkpt><trkpt lat="44.18514" lon="11.820285"><ele>141.0</ele><time>2026-04-18T11:25:42.991Z</time></trkpt><trkpt lat="44.1849717" lon="11.8202917"><ele>141.0</ele><time>2026-04-18T11:25:43.993Z</time></trkpt><trkpt lat="44.184805" lon="11.820295"><ele>141.0</ele><time>2026-04-18T11:25:44.993Z</time></trkpt><trkpt lat="44.1846367" lon="11.82029"><ele>141.33333333333334</ele><time>2026-04-18T11:25:45.992Z</time></trkpt><trkpt lat="44.18447" lon="11.8202783"><ele>141.66666666666669</ele><time>2026-04-18T11:25:46.992Z</time></trkpt><trkpt lat="44.1843033" lon="11.8202583"><ele>142.0</ele><time>2026-04-18T11:25:47.992Z</time></trkpt><trkpt lat="44.1841383" lon="11.8202183"><ele>141.66666666666669</ele><time>2026-04-18T11:25:48.993Z</time></trkpt><trkpt lat="44.1839733" lon="11.8201667"><ele>141.33333333333334</ele><time>2026-04-18T11:25:49.993Z</time></trkpt><trkpt lat="44.18381" lon="11.8201067"><ele>141.0</ele><time>2026-04-18T11:25:50.993Z</time></trkpt><trkpt lat="44.1836483" lon="11.820045"><ele>141.66666666666666</ele><time>2026-04-18T11:25:51.992Z</time></trkpt><trkpt lat="44.1834883" lon="11.8199817"><ele>142.33333333333331</ele><time>2026-04-18T11:25:52.993Z</time></trkpt><trkpt lat="44.1833267" lon="11.819915"><ele>143.0</ele><time>2026-04-18T11:25:53.992Z</time></trkpt><trkpt lat="44.1831683" lon="11.8198433"><ele>144.0</ele><time>2026-04-18T11:25:54.993Z</time></trkpt><trkpt lat="44.1830067" lon="11.819775"><ele>145.0</ele><time>2026-04-18T11:25:55.993Z</time></trkpt><trkpt lat="44.1828433" lon="11.819715"><ele>146.0</ele><time>2026-04-18T11:25:56.994Z</time></trkpt><trkpt lat="44.1826783" lon="11.8196633"><ele>146.0</ele><time>2026-04-18T11:25:57.992Z</time></trkpt><trkpt lat="44.1825083" lon="11.8196167"><ele>146.0</ele><time>2026-04-18T11:25:58.992Z</time></trkpt><trkpt lat="44.1823383" lon="11.8195733"><ele>146.0</ele><time>2026-04-18T11:25:59.993Z</time></trkpt><trkpt lat="44.182165" lon="11.8195333"><ele>146.33333333333331</ele><time>2026-04-18T11:26:00.992Z</time></trkpt><trkpt lat="44.1819883" lon="11.81949"><ele>146.66666666666666</ele><time>2026-04-18T11:26:01.992Z</time></trkpt><trkpt lat="44.18181" lon="11.81945"><ele>147.0</ele><time>2026-04-18T11:26:02.993Z</time></trkpt><trkpt lat="44.18163" lon="11.81941"><ele>146.33333333333334</ele><time>2026-04-18T11:26:03.992Z</time></trkpt><trkpt lat="44.1814533" lon="11.8193733"><ele>145.66666666666669</ele><time>2026-04-18T11:26:04.993Z</time></trkpt><trkpt lat="44.1812883" lon="11.81934"><ele>145.0</ele><time>2026-04-18T11:26:05.992Z</time></trkpt><trkpt lat="44.1811283" lon="11.81931"><ele>146.66666666666669</ele><time>2026-04-18T11:26:06.993Z</time></trkpt><trkpt lat="44.18097" lon="11.8192733"><ele>148.33333333333334</ele><time>2026-04-18T11:26:07.993Z</time></trkpt><trkpt lat="44.18081" lon="11.819235"><ele>150.0</ele><time>2026-04-18T11:26:08.993Z</time></trkpt><trkpt lat="44.1806433" lon="11.8191933"><ele>150.33333333333334</ele><time>2026-04-18T11:26:09.992Z</time></trkpt><trkpt lat="44.1804717" lon="11.8191533"><ele>150.66666666666669</ele><time>2026-04-18T11:26:10.994Z</time></trkpt><trkpt lat="44.180295" lon="11.8191033"><ele>151.0</ele><time>2026-04-18T11:26:11.993Z</time></trkpt><trkpt lat="44.1801183" lon="11.819045"><ele>151.0</ele><time>2026-04-18T11:26:12.992Z</time></trkpt><trkpt lat="44.17994" lon="11.8189833"><ele>151.0</ele><time>2026-04-18T11:26:13.993Z</time></trkpt><trkpt lat="44.1797583" lon="11.8189217"><ele>151.0</ele><time>2026-04-18T11:26:14.997Z</time></trkpt><trkpt lat="44.1795767" lon="11.8188617"><ele>150.66666666666669</ele><time>2026-04-18T11:26:15.992Z</time></trkpt><trkpt lat="44.1794" lon="11.8187983"><ele>150.33333333333334</ele><time>2026-04-18T11:26:16.992Z</time></trkpt><trkpt lat="44.1792233" lon="11.818735"><ele>150.0</ele><time>2026-04-18T11:26:17.993Z</time></trkpt><trkpt lat="44.179045" lon="11.8186767"><ele>149.66666666666666</ele><time>2026-04-18T11:26:18.992Z</time></trkpt><trkpt lat="44.17887" lon="11.8186133"><ele>149.33333333333331</ele><time>2026-04-18T11:26:19.993Z</time></trkpt><trkpt lat="44.1786983" lon="11.8185583"><ele>149.0</ele><time>2026-04-18T11:26:20.993Z</time></trkpt><trkpt lat="44.1785317" lon="11.8184967"><ele>150.33333333333331</ele><time>2026-04-18T11:26:21.992Z</time></trkpt><trkpt lat="44.1783667" lon="11.81843"><ele>151.66666666666666</ele><time>2026-04-18T11:26:22.993Z</time></trkpt><trkpt lat="44.1782083" lon="11.8183583"><ele>153.0</ele><time>2026-04-18T11:26:23.992Z</time></trkpt><trkpt lat="44.17805" lon="11.8182667"><ele>153.0</ele><time>2026-04-18T11:26:24.993Z</time></trkpt><trkpt lat="44.1778933" lon="11.81817"><ele>153.0</ele><time>2026-04-18T11:26:25.992Z</time></trkpt><trkpt lat="44.1777383" lon="11.8180733"><ele>153.0</ele><time>2026-04-18T11:26:26.992Z</time></trkpt><trkpt lat="44.1775883" lon="11.81797"><ele>153.0</ele><time>2026-04-18T11:26:27.992Z</time></trkpt><trkpt lat="44.1774417" lon="11.81787"><ele>153.0</ele><time>2026-04-18T11:26:28.993Z</time></trkpt><trkpt lat="44.1772883" lon="11.81777"><ele>153.0</ele><time>2026-04-18T11:26:29.993Z</time></trkpt><trkpt lat="44.1771367" lon="11.8176717"><ele>156.0</ele><time>2026-04-18T11:26:30.992Z</time></trkpt><trkpt lat="44.1769883" lon="11.8175767"><ele>159.0</ele><time>2026-04-18T11:26:31.992Z</time></trkpt><trkpt lat="44.17684" lon="11.8174783"><ele>162.0</ele><time>2026-04-18T11:26:32.993Z</time></trkpt><trkpt lat="44.1766933" lon="11.8173817"><ele>162.0</ele><time>2026-04-18T11:26:33.992Z</time></trkpt><trkpt lat="44.1765433" lon="11.8172833"><ele>162.0</ele><time>2026-04-18T11:26:34.992Z</time></trkpt><trkpt lat="44.1763933" lon="11.8171833"><ele>162.0</ele><time>2026-04-18T11:26:35.993Z</time></trkpt><trkpt lat="44.1762417" lon="11.8170783"><ele>162.66666666666666</ele><time>2026-04-18T11:26:36.992Z</time></trkpt><trkpt lat="44.1760883" lon="11.816975"><ele>163.33333333333331</ele><time>2026-04-18T11:26:37.992Z</time></trkpt><trkpt lat="44.1759317" lon="11.8168733"><ele>164.0</ele><time>2026-04-18T11:26:38.993Z</time></trkpt><trkpt lat="44.1757733" lon="11.8167717"><ele>162.0</ele><time>2026-04-18T11:26:39.992Z</time></trkpt><trkpt lat="44.1756233" lon="11.8166767"><ele>160.0</ele><time>2026-04-18T11:26:40.993Z</time></trkpt><trkpt lat="44.1754767" lon="11.8165833"><ele>158.0</ele><time>2026-04-18T11:26:41.993Z</time></trkpt><trkpt lat="44.17533" lon="11.8164883"><ele>158.0</ele><time>2026-04-18T11:26:42.993Z</time></trkpt><trkpt lat="44.1751833" lon="11.8163933"><ele>158.0</ele><time>2026-04-18T11:26:43.993Z</time></trkpt><trkpt lat="44.1750383" lon="11.8163017"><ele>158.0</ele><time>2026-04-18T11:26:44.994Z</time></trkpt><trkpt lat="44.1748933" lon="11.816215"><ele>157.66666666666666</ele><time>2026-04-18T11:26:45.992Z</time></trkpt><trkpt lat="44.1747483" lon="11.8161333"><ele>157.33333333333334</ele><time>2026-04-18T11:26:46.994Z</time></trkpt><trkpt lat="44.1746033" lon="11.81605"><ele>157.0</ele><time>2026-04-18T11:26:47.993Z</time></trkpt><trkpt lat="44.1744583" lon="11.8159617"><ele>157.66666666666669</ele><time>2026-04-18T11:26:48.993Z</time></trkpt><trkpt lat="44.174315" lon="11.8158733"><ele>158.33333333333334</ele><time>2026-04-18T11:26:49.994Z</time></trkpt><trkpt lat="44.1741733" lon="11.815785"><ele>159.0</ele><time>2026-04-18T11:26:50.994Z</time></trkpt><trkpt lat="44.1740283" lon="11.8156933"><ele>157.33333333333334</ele><time>2026-04-18T11:26:51.992Z</time></trkpt><trkpt lat="44.1738817" lon="11.8156017"><ele>155.66666666666669</ele><time>2026-04-18T11:26:52.993Z</time></trkpt><trkpt lat="44.1737367" lon="11.8155033"><ele>154.0</ele><time>2026-04-18T11:26:53.992Z</time></trkpt><trkpt lat="44.1735967" lon="11.8153933"><ele>154.0</ele><time>2026-04-18T11:26:54.992Z</time></trkpt><trkpt lat="44.1734667" lon="11.8152633"><ele>154.0</ele><time>2026-04-18T11:26:55.993Z</time></trkpt><trkpt lat="44.1733467" lon="11.8151133"><ele>154.0</ele><time>2026-04-18T11:26:56.994Z</time></trkpt><trkpt lat="44.1732333" lon="11.8149483"><ele>154.66666666666669</ele><time>2026-04-18T11:26:57.993Z</time></trkpt><trkpt lat="44.1731333" lon="11.8147667"><ele>155.33333333333334</ele><time>2026-04-18T11:26:58.992Z</time></trkpt><trkpt lat="44.1730433" lon="11.814575"><ele>156.0</ele><time>2026-04-18T11:26:59.994Z</time></trkpt><trkpt lat="44.17297" lon="11.8143683"><ele>156.66666666666666</ele><time>2026-04-18T11:27:00.992Z</time></trkpt><trkpt lat="44.17291" lon="11.8141517"><ele>157.33333333333331</ele><time>2026-04-18T11:27:01.992Z</time></trkpt><trkpt lat="44.17287" lon="11.813925"><ele>158.0</ele><time>2026-04-18T11:27:02.994Z</time></trkpt><trkpt lat="44.1728467" lon="11.813695"><ele>157.6</ele><time>2026-04-18T11:27:03.992Z</time></trkpt><trkpt lat="44.17284" lon="11.813485"><ele>157.20000000000002</ele><time>2026-04-18T11:27:04.993Z</time></trkpt><trkpt lat="44.1728317" lon="11.8133317"><ele>156.8</ele><time>2026-04-18T11:27:05.993Z</time></trkpt><trkpt lat="44.1728317" lon="11.8132233"><ele>156.4</ele><time>2026-04-18T11:27:06.992Z</time></trkpt><trkpt lat="44.1728317" lon="11.813135"><ele>156.0</ele><time>2026-04-18T11:27:07.992Z</time></trkpt><trkpt lat="44.1728267" lon="11.81301"><ele>156.0</ele><time>2026-04-18T11:27:09.994Z</time></trkpt><trkpt lat="44.17285" lon="11.8127633"><ele>156.0</ele><time>2026-04-18T11:27:54.993Z</time></trkpt><trkpt lat="44.17284" lon="11.8126567"><ele>156.0</ele><time>2026-04-18T11:27:55.993Z</time></trkpt><trkpt lat="44.172835" lon="11.81253"><ele>156.0</ele><time>2026-04-18T11:27:56.993Z</time></trkpt><trkpt lat="44.172825" lon="11.812395"><ele>156.0</ele><time>2026-04-18T11:27:57.992Z</time></trkpt><trkpt lat="44.1728117" lon="11.812255"><ele>156.2</ele><time>2026-04-18T11:27:58.992Z</time></trkpt><trkpt lat="44.1727917" lon="11.81211"><ele>156.39999999999998</ele><time>2026-04-18T11:27:59.994Z</time></trkpt><trkpt lat="44.17276" lon="11.8119617"><ele>156.6</ele><time>2026-04-18T11:28:00.993Z</time></trkpt><trkpt lat="44.17272" lon="11.8118133"><ele>156.79999999999998</ele><time>2026-04-18T11:28:01.992Z</time></trkpt><trkpt lat="44.1726717" lon="11.8116667"><ele>157.0</ele><time>2026-04-18T11:28:02.993Z</time></trkpt><trkpt lat="44.1726183" lon="11.8115167"><ele>157.0</ele><time>2026-04-18T11:28:03.993Z</time></trkpt><trkpt lat="44.1725583" lon="11.81136"><ele>157.0</ele><time>2026-04-18T11:28:04.993Z</time></trkpt><trkpt lat="44.1724933" lon="11.8111983"><ele>157.0</ele><time>2026-04-18T11:28:05.993Z</time></trkpt><trkpt lat="44.1724233" lon="11.8110367"><ele>157.0</ele><time>2026-04-18T11:28:06.992Z</time></trkpt><trkpt lat="44.1723483" lon="11.81087"><ele>154.75</ele><time>2026-04-18T11:28:07.992Z</time></trkpt><trkpt lat="44.1722667" lon="11.8106983"><ele>152.5</ele><time>2026-04-18T11:28:08.994Z</time></trkpt><trkpt lat="44.17218" lon="11.8105317"><ele>150.25</ele><time>2026-04-18T11:28:09.992Z</time></trkpt><trkpt lat="44.1720883" lon="11.8103917"><ele>148.0</ele><time>2026-04-18T11:28:10.994Z</time></trkpt><trkpt lat="44.1719967" lon="11.8102717"><ele>153.0</ele><time>2026-04-18T11:28:11.992Z</time></trkpt><trkpt lat="44.1719017" lon="11.8101567"><ele>158.0</ele><time>2026-04-18T11:28:12.995Z</time></trkpt><trkpt lat="44.1717967" lon="11.8100433"><ele>163.0</ele><time>2026-04-18T11:28:13.994Z</time></trkpt><trkpt lat="44.1716833" lon="11.8099383"><ele>168.0</ele><time>2026-04-18T11:28:14.993Z</time></trkpt><trkpt lat="44.171555" lon="11.8098517"><ele>164.0</ele><time>2026-04-18T11:28:15.991Z</time></trkpt><trkpt lat="44.171425" lon="11.80977"><ele>160.0</ele><time>2026-04-18T11:28:16.992Z</time></trkpt><trkpt lat="44.1713017" lon="11.8096917"><ele>156.0</ele><time>2026-04-18T11:28:17.992Z</time></trkpt><trkpt lat="44.1711917" lon="11.8095983"><ele>152.0</ele><time>2026-04-18T11:28:18.992Z</time></trkpt><trkpt lat="44.1710833" lon="11.80949"><ele>152.0</ele><time>2026-04-18T11:28:19.992Z</time></trkpt><trkpt lat="44.1709667" lon="11.8093783"><ele>152.0</ele><time>2026-04-18T11:28:20.995Z</time></trkpt><trkpt lat="44.1708483" lon="11.8092533"><ele>152.0</ele><time>2026-04-18T11:28:21.994Z</time></trkpt><trkpt lat="44.1707333" lon="11.8091083"><ele>152.0</ele><time>2026-04-18T11:28:22.992Z</time></trkpt><trkpt lat="44.170625" lon="11.8089517"><ele>153.33333333333331</ele><time>2026-04-18T11:28:23.994Z</time></trkpt><trkpt lat="44.17053" lon="11.8087733"><ele>154.66666666666666</ele><time>2026-04-18T11:28:24.995Z</time></trkpt><trkpt lat="44.170445" lon="11.8085783"><ele>156.0</ele><time>2026-04-18T11:28:25.994Z</time></trkpt><trkpt lat="44.1703667" lon="11.8083767"><ele>157.66666666666666</ele><time>2026-04-18T11:28:26.994Z</time></trkpt><trkpt lat="44.17029" lon="11.8081733"><ele>159.33333333333331</ele><time>2026-04-18T11:28:27.994Z</time></trkpt><trkpt lat="44.1702133" lon="11.80797"><ele>161.0</ele><time>2026-04-18T11:28:28.994Z</time></trkpt><trkpt lat="44.1701383" lon="11.8077583"><ele>161.66666666666666</ele><time>2026-04-18T11:28:29.993Z</time></trkpt><trkpt lat="44.1700633" lon="11.80754"><ele>162.33333333333334</ele><time>2026-04-18T11:28:30.992Z</time></trkpt><trkpt lat="44.169985" lon="11.80732"><ele>163.0</ele><time>2026-04-18T11:28:31.993Z</time></trkpt><trkpt lat="44.169905" lon="11.8070933"><ele>159.33333333333334</ele><time>2026-04-18T11:28:32.993Z</time></trkpt><trkpt lat="44.1698233" lon="11.80686"><ele>155.66666666666666</ele><time>2026-04-18T11:28:33.993Z</time></trkpt><trkpt lat="44.16974" lon="11.8066233"><ele>152.0</ele><time>2026-04-18T11:28:34.992Z</time></trkpt><trkpt lat="44.16965" lon="11.80638"><ele>152.0</ele><time>2026-04-18T11:28:35.992Z</time></trkpt><trkpt lat="44.1695583" lon="11.8061317"><ele>152.0</ele><time>2026-04-18T11:28:36.992Z</time></trkpt><trkpt lat="44.1694683" lon="11.8058817"><ele>152.0</ele><time>2026-04-18T11:28:37.993Z</time></trkpt><trkpt lat="44.1693767" lon="11.8056283"><ele>153.33333333333331</ele><time>2026-04-18T11:28:38.993Z</time></trkpt><trkpt lat="44.169285" lon="11.80537"><ele>154.66666666666666</ele><time>2026-04-18T11:28:39.993Z</time></trkpt><trkpt lat="44.1691967" lon="11.80511"><ele>156.0</ele><time>2026-04-18T11:28:40.994Z</time></trkpt><trkpt lat="44.1691067" lon="11.8048517"><ele>156.0</ele><time>2026-04-18T11:28:41.993Z</time></trkpt><trkpt lat="44.1690183" lon="11.8045983"><ele>156.0</ele><time>2026-04-18T11:28:42.993Z</time></trkpt><trkpt lat="44.1689317" lon="11.8043633"><ele>156.0</ele><time>2026-04-18T11:28:43.993Z</time></trkpt><trkpt lat="44.168845" lon="11.804135"><ele>158.33333333333334</ele><time>2026-04-18T11:28:44.995Z</time></trkpt><trkpt lat="44.168755" lon="11.8039117"><ele>160.66666666666669</ele><time>2026-04-18T11:28:45.993Z</time></trkpt><trkpt lat="44.16866" lon="11.8036917"><ele>163.0</ele><time>2026-04-18T11:28:46.992Z</time></trkpt><trkpt lat="44.1685583" lon="11.8034733"><ele>164.0</ele><time>2026-04-18T11:28:47.994Z</time></trkpt><trkpt lat="44.1684483" lon="11.8032633"><ele>165.0</ele><time>2026-04-18T11:28:48.994Z</time></trkpt><trkpt lat="44.16833" lon="11.8030567"><ele>166.0</ele><time>2026-04-18T11:28:49.993Z</time></trkpt><trkpt lat="44.168205" lon="11.8028567"><ele>166.33333333333334</ele><time>2026-04-18T11:28:50.994Z</time></trkpt><trkpt lat="44.168075" lon="11.80266"><ele>166.66666666666666</ele><time>2026-04-18T11:28:51.993Z</time></trkpt><trkpt lat="44.1679417" lon="11.8024717"><ele>167.0</ele><time>2026-04-18T11:28:52.993Z</time></trkpt><trkpt lat="44.1678033" lon="11.8022867"><ele>167.0</ele><time>2026-04-18T11:28:53.994Z</time></trkpt><trkpt lat="44.1676633" lon="11.8021017"><ele>167.0</ele><time>2026-04-18T11:28:54.993Z</time></trkpt><trkpt lat="44.167525" lon="11.801915"><ele>167.0</ele><time>2026-04-18T11:28:55.993Z</time></trkpt><trkpt lat="44.1673933" lon="11.8017367"><ele>165.66666666666666</ele><time>2026-04-18T11:28:56.994Z</time></trkpt><trkpt lat="44.167265" lon="11.8015667"><ele>164.33333333333334</ele><time>2026-04-18T11:28:57.994Z</time></trkpt><trkpt lat="44.16714" lon="11.8013967"><ele>163.0</ele><time>2026-04-18T11:28:58.992Z</time></trkpt><trkpt lat="44.1670133" lon="11.80123"><ele>163.0</ele><time>2026-04-18T11:28:59.993Z</time></trkpt><trkpt lat="44.1668867" lon="11.80106"><ele>163.0</ele><time>2026-04-18T11:29:00.992Z</time></trkpt><trkpt lat="44.1667583" lon="11.800885"><ele>163.0</ele><time>2026-04-18T11:29:01.993Z</time></trkpt><trkpt lat="44.1666317" lon="11.8007117"><ele>161.33333333333334</ele><time>2026-04-18T11:29:02.992Z</time></trkpt><trkpt lat="44.166505" lon="11.80054"><ele>159.66666666666666</ele><time>2026-04-18T11:29:03.994Z</time></trkpt><trkpt lat="44.16638" lon="11.80038"><ele>158.0</ele><time>2026-04-18T11:29:04.993Z</time></trkpt><trkpt lat="44.1662617" lon="11.8002283"><ele>159.66666666666666</ele><time>2026-04-18T11:29:05.993Z</time></trkpt><trkpt lat="44.1661483" lon="11.8000783"><ele>161.33333333333334</ele><time>2026-04-18T11:29:06.992Z</time></trkpt><trkpt lat="44.1660317" lon="11.7999283"><ele>163.0</ele><time>2026-04-18T11:29:07.992Z</time></trkpt><trkpt lat="44.1659117" lon="11.7997783"><ele>163.0</ele><time>2026-04-18T11:29:08.994Z</time></trkpt><trkpt lat="44.16579" lon="11.7996283"><ele>163.0</ele><time>2026-04-18T11:29:09.993Z</time></trkpt><trkpt lat="44.1656683" lon="11.79948"><ele>163.0</ele><time>2026-04-18T11:29:10.992Z</time></trkpt><trkpt lat="44.1655567" lon="11.799345"><ele>163.0</ele><time>2026-04-18T11:29:11.992Z</time></trkpt><trkpt lat="44.16544" lon="11.7992133"><ele>163.0</ele><time>2026-04-18T11:29:12.992Z</time></trkpt><trkpt lat="44.1653267" lon="11.7990767"><ele>163.0</ele><time>2026-04-18T11:29:13.992Z</time></trkpt><trkpt lat="44.1652083" lon="11.7989383"><ele>163.0</ele><time>2026-04-18T11:29:14.993Z</time></trkpt><trkpt lat="44.1650883" lon="11.7988017"><ele>163.0</ele><time>2026-04-18T11:29:15.995Z</time></trkpt><trkpt lat="44.1649617" lon="11.798665"><ele>163.0</ele><time>2026-04-18T11:29:16.992Z</time></trkpt><trkpt lat="44.1648317" lon="11.798525"><ele>166.0</ele><time>2026-04-18T11:29:17.993Z</time></trkpt><trkpt lat="44.1647" lon="11.7983883"><ele>169.0</ele><time>2026-04-18T11:29:18.993Z</time></trkpt><trkpt lat="44.1645817" lon="11.7982633"><ele>172.0</ele><time>2026-04-18T11:29:19.994Z</time></trkpt><trkpt lat="44.1644783" lon="11.7981483"><ele>175.0</ele><time>2026-04-18T11:29:20.993Z</time></trkpt><trkpt lat="44.16438" lon="11.7980383"><ele>175.0</ele><time>2026-04-18T11:29:21.992Z</time></trkpt><trkpt lat="44.1642767" lon="11.7979333"><ele>175.0</ele><time>2026-04-18T11:29:22.993Z</time></trkpt><trkpt lat="44.1641683" lon="11.7978333"><ele>175.0</ele><time>2026-04-18T11:29:23.994Z</time></trkpt><trkpt lat="44.16406" lon="11.7977267"><ele>175.0</ele><time>2026-04-18T11:29:24.993Z</time></trkpt><trkpt lat="44.1639533" lon="11.797615"><ele>175.25</ele><time>2026-04-18T11:29:25.994Z</time></trkpt><trkpt lat="44.1638417" lon="11.797495"><ele>175.5</ele><time>2026-04-18T11:29:26.994Z</time></trkpt><trkpt lat="44.1637283" lon="11.7973717"><ele>175.75</ele><time>2026-04-18T11:29:27.993Z</time></trkpt><trkpt lat="44.1636233" lon="11.7972567"><ele>176.0</ele><time>2026-04-18T11:29:28.994Z</time></trkpt><trkpt lat="44.1635183" lon="11.7971417"><ele>176.0</ele><time>2026-04-18T11:29:29.993Z</time></trkpt><trkpt lat="44.1634133" lon="11.797025"><ele>176.0</ele><time>2026-04-18T11:29:30.993Z</time></trkpt><trkpt lat="44.1633083" lon="11.7968917"><ele>176.0</ele><time>2026-04-18T11:29:31.993Z</time></trkpt><trkpt lat="44.1632017" lon="11.7967567"><ele>176.0</ele><time>2026-04-18T11:29:32.993Z</time></trkpt><trkpt lat="44.1630867" lon="11.7966017"><ele>174.66666666666666</ele><time>2026-04-18T11:29:33.993Z</time></trkpt><trkpt lat="44.1629917" lon="11.79644"><ele>173.33333333333334</ele><time>2026-04-18T11:29:34.992Z</time></trkpt><trkpt lat="44.162885" lon="11.7962667"><ele>172.0</ele><time>2026-04-18T11:29:35.992Z</time></trkpt><trkpt lat="44.1627833" lon="11.7960967"><ele>173.0</ele><time>2026-04-18T11:29:36.993Z</time></trkpt><trkpt lat="44.1626767" lon="11.7959283"><ele>174.0</ele><time>2026-04-18T11:29:37.992Z</time></trkpt><trkpt lat="44.1625633" lon="11.79577"><ele>175.0</ele><time>2026-04-18T11:29:38.992Z</time></trkpt><trkpt lat="44.1624467" lon="11.7956033"><ele>173.33333333333334</ele><time>2026-04-18T11:29:39.993Z</time></trkpt><trkpt lat="44.16233" lon="11.7954533"><ele>171.66666666666666</ele><time>2026-04-18T11:29:40.992Z</time></trkpt><trkpt lat="44.1622067" lon="11.79532"><ele>170.0</ele><time>2026-04-18T11:29:41.992Z</time></trkpt><trkpt lat="44.162085" lon="11.7952017"><ele>170.75</ele><time>2026-04-18T11:29:42.993Z</time></trkpt><trkpt lat="44.1619633" lon="11.7950933"><ele>171.5</ele><time>2026-04-18T11:29:43.993Z</time></trkpt><trkpt lat="44.1618317" lon="11.7949867"><ele>172.25</ele><time>2026-04-18T11:29:44.993Z</time></trkpt><trkpt lat="44.1616967" lon="11.79489"><ele>173.0</ele><time>2026-04-18T11:29:45.993Z</time></trkpt><trkpt lat="44.1615567" lon="11.7948083"><ele>171.66666666666666</ele><time>2026-04-18T11:29:46.993Z</time></trkpt><trkpt lat="44.1614117" lon="11.794735"><ele>170.33333333333334</ele><time>2026-04-18T11:29:47.993Z</time></trkpt><trkpt lat="44.161265" lon="11.7946683"><ele>169.0</ele><time>2026-04-18T11:29:48.993Z</time></trkpt><trkpt lat="44.1611183" lon="11.7946083"><ele>169.0</ele><time>2026-04-18T11:29:49.992Z</time></trkpt><trkpt lat="44.16097" lon="11.7945533"><ele>169.0</ele><time>2026-04-18T11:29:50.993Z</time></trkpt><trkpt lat="44.1608267" lon="11.7945033"><ele>169.0</ele><time>2026-04-18T11:29:51.993Z</time></trkpt><trkpt lat="44.1606933" lon="11.7944567"><ele>169.0</ele><time>2026-04-18T11:29:52.994Z</time></trkpt><trkpt lat="44.1605617" lon="11.7944167"><ele>169.0</ele><time>2026-04-18T11:29:53.993Z</time></trkpt><trkpt lat="44.1604333" lon="11.79437"><ele>169.0</ele><time>2026-04-18T11:29:54.994Z</time></trkpt><trkpt lat="44.1603033" lon="11.7943217"><ele>169.0</ele><time>2026-04-18T11:29:55.993Z</time></trkpt><trkpt lat="44.16017" lon="11.7942683"><ele>169.0</ele><time>2026-04-18T11:29:56.993Z</time></trkpt><trkpt lat="44.1600517" lon="11.7941967"><ele>169.0</ele><time>2026-04-18T11:29:57.994Z</time></trkpt><trkpt lat="44.159965" lon="11.7941167"><ele>169.0</ele><time>2026-04-18T11:29:58.993Z</time></trkpt><trkpt lat="44.1598983" lon="11.7940283"><ele>169.0</ele><time>2026-04-18T11:29:59.993Z</time></trkpt><trkpt lat="44.1598333" lon="11.7939383"><ele>169.0</ele><time>2026-04-18T11:30:00.993Z</time></trkpt><trkpt lat="44.1597717" lon="11.7938433"><ele>169.0</ele><time>2026-04-18T11:30:01.993Z</time></trkpt><trkpt lat="44.1597117" lon="11.7937317"><ele>168.0</ele><time>2026-04-18T11:30:02.993Z</time></trkpt><trkpt lat="44.159655" lon="11.7935917"><ele>167.0</ele><time>2026-04-18T11:30:03.994Z</time></trkpt><trkpt lat="44.159615" lon="11.7934267"><ele>166.0</ele><time>2026-04-18T11:30:04.992Z</time></trkpt><trkpt lat="44.1595783" lon="11.7932417"><ele>165.0</ele><time>2026-04-18T11:30:05.993Z</time></trkpt><trkpt lat="44.1595417" lon="11.7930417"><ele>165.0</ele><time>2026-04-18T11:30:06.992Z</time></trkpt><trkpt lat="44.1595033" lon="11.792835"><ele>165.0</ele><time>2026-04-18T11:30:07.993Z</time></trkpt><trkpt lat="44.1594633" lon="11.7926283"><ele>165.0</ele><time>2026-04-18T11:30:08.994Z</time></trkpt><trkpt lat="44.1594217" lon="11.7924283"><ele>165.5</ele><time>2026-04-18T11:30:09.995Z</time></trkpt><trkpt lat="44.1593817" lon="11.7922417"><ele>166.0</ele><time>2026-04-18T11:30:10.992Z</time></trkpt><trkpt lat="44.1593467" lon="11.7920633"><ele>166.5</ele><time>2026-04-18T11:30:11.993Z</time></trkpt><trkpt lat="44.1593117" lon="11.7918883"><ele>167.0</ele><time>2026-04-18T11:30:12.994Z</time></trkpt><trkpt lat="44.1592767" lon="11.791715"><ele>168.5</ele><time>2026-04-18T11:30:13.993Z</time></trkpt><trkpt lat="44.159245" lon="11.7915483"><ele>170.0</ele><time>2026-04-18T11:30:14.995Z</time></trkpt><trkpt lat="44.1592133" lon="11.7913967"><ele>171.5</ele><time>2026-04-18T11:30:15.994Z</time></trkpt><trkpt lat="44.159175" lon="11.79125"><ele>173.0</ele><time>2026-04-18T11:30:16.992Z</time></trkpt><trkpt lat="44.1591217" lon="11.79111"><ele>174.4</ele><time>2026-04-18T11:30:17.993Z</time></trkpt><trkpt lat="44.1590517" lon="11.7909883"><ele>175.8</ele><time>2026-04-18T11:30:18.993Z</time></trkpt><trkpt lat="44.1589667" lon="11.7908983"><ele>177.2</ele><time>2026-04-18T11:30:19.992Z</time></trkpt><trkpt lat="44.1588767" lon="11.7908367"><ele>178.6</ele><time>2026-04-18T11:30:20.995Z</time></trkpt><trkpt lat="44.1587867" lon="11.7908"><ele>180.0</ele><time>2026-04-18T11:30:21.992Z</time></trkpt><trkpt lat="44.1586933" lon="11.7907833"><ele>181.83333333333334</ele><time>2026-04-18T11:30:22.994Z</time></trkpt><trkpt lat="44.158605" lon="11.7907833"><ele>183.66666666666666</ele><time>2026-04-18T11:30:23.992Z</time></trkpt><trkpt lat="44.1585233" lon="11.79079"><ele>185.5</ele><time>2026-04-18T11:30:24.992Z</time></trkpt><trkpt lat="44.1584483" lon="11.7907983"><ele>187.33333333333331</ele><time>2026-04-18T11:30:25.992Z</time></trkpt><trkpt lat="44.158365" lon="11.7908117"><ele>189.16666666666666</ele><time>2026-04-18T11:30:26.994Z</time></trkpt><trkpt lat="44.1582817" lon="11.7908333"><ele>191.0</ele><time>2026-04-18T11:30:27.992Z</time></trkpt><trkpt lat="44.1581933" lon="11.7908517"><ele>191.4</ele><time>2026-04-18T11:30:28.993Z</time></trkpt><trkpt lat="44.1580967" lon="11.7908583"><ele>191.8</ele><time>2026-04-18T11:30:29.993Z</time></trkpt><trkpt lat="44.1579883" lon="11.7908683"><ele>192.20000000000002</ele><time>2026-04-18T11:30:30.993Z</time></trkpt><trkpt lat="44.1578783" lon="11.7908617"><ele>192.60000000000002</ele><time>2026-04-18T11:30:31.993Z</time></trkpt><trkpt lat="44.1577717" lon="11.7908233"><ele>193.0</ele><time>2026-04-18T11:30:32.993Z</time></trkpt><trkpt lat="44.15766" lon="11.7907733"><ele>193.0</ele><time>2026-04-18T11:30:33.993Z</time></trkpt><trkpt lat="44.1575467" lon="11.7907267"><ele>193.0</ele><time>2026-04-18T11:30:34.994Z</time></trkpt><trkpt lat="44.157435" lon="11.7906767"><ele>193.0</ele><time>2026-04-18T11:30:35.993Z</time></trkpt><trkpt lat="44.1573217" lon="11.79062"><ele>193.0</ele><time>2026-04-18T11:30:36.994Z</time></trkpt><trkpt lat="44.1572067" lon="11.7905633"><ele>192.25</ele><time>2026-04-18T11:30:37.993Z</time></trkpt><trkpt lat="44.1570867" lon="11.79052"><ele>191.5</ele><time>2026-04-18T11:30:38.998Z</time></trkpt><trkpt lat="44.15697" lon="11.7904633"><ele>190.75</ele><time>2026-04-18T11:30:39.994Z</time></trkpt><trkpt lat="44.15686" lon="11.7904167"><ele>190.0</ele><time>2026-04-18T11:30:40.993Z</time></trkpt><trkpt lat="44.156755" lon="11.79037"><ele>190.0</ele><time>2026-04-18T11:30:41.994Z</time></trkpt><trkpt lat="44.1566583" lon="11.7903233"><ele>190.0</ele><time>2026-04-18T11:30:42.992Z</time></trkpt><trkpt lat="44.1565533" lon="11.79027"><ele>190.0</ele><time>2026-04-18T11:30:43.994Z</time></trkpt><trkpt lat="44.1564417" lon="11.7902183"><ele>190.0</ele><time>2026-04-18T11:30:44.994Z</time></trkpt><trkpt lat="44.156325" lon="11.7901667"><ele>192.5</ele><time>2026-04-18T11:30:45.993Z</time></trkpt><trkpt lat="44.1562033" lon="11.79011"><ele>195.0</ele><time>2026-04-18T11:30:46.992Z</time></trkpt><trkpt lat="44.156075" lon="11.7900533"><ele>197.5</ele><time>2026-04-18T11:30:47.992Z</time></trkpt><trkpt lat="44.155945" lon="11.7899917"><ele>200.0</ele><time>2026-04-18T11:30:48.993Z</time></trkpt><trkpt lat="44.155815" lon="11.7899317"><ele>197.75</ele><time>2026-04-18T11:30:49.992Z</time></trkpt><trkpt lat="44.1556833" lon="11.7898717"><ele>195.5</ele><time>2026-04-18T11:30:50.993Z</time></trkpt><trkpt lat="44.155555" lon="11.78981"><ele>193.25</ele><time>2026-04-18T11:30:51.994Z</time></trkpt><trkpt lat="44.1554317" lon="11.7897533"><ele>191.0</ele><time>2026-04-18T11:30:52.992Z</time></trkpt><trkpt lat="44.1553167" lon="11.7897"><ele>191.0</ele><time>2026-04-18T11:30:53.992Z</time></trkpt><trkpt lat="44.1552067" lon="11.7896417"><ele>191.0</ele><time>2026-04-18T11:30:54.993Z</time></trkpt><trkpt lat="44.155105" lon="11.7895717"><ele>191.0</ele><time>2026-04-18T11:30:55.999Z</time></trkpt><trkpt lat="44.1550017" lon="11.789485"><ele>191.0</ele><time>2026-04-18T11:30:56.992Z</time></trkpt><trkpt lat="44.1548983" lon="11.7893933"><ele>191.75</ele><time>2026-04-18T11:30:57.992Z</time></trkpt><trkpt lat="44.1547917" lon="11.7893"><ele>192.5</ele><time>2026-04-18T11:30:58.993Z</time></trkpt><trkpt lat="44.154685" lon="11.7892033"><ele>193.25</ele><time>2026-04-18T11:30:59.994Z</time></trkpt><trkpt lat="44.154575" lon="11.7891017"><ele>194.0</ele><time>2026-04-18T11:31:00.994Z</time></trkpt><trkpt lat="44.15447" lon="11.789"><ele>194.0</ele><time>2026-04-18T11:31:01.993Z</time></trkpt><trkpt lat="44.1543767" lon="11.7889083"><ele>194.0</ele><time>2026-04-18T11:31:02.993Z</time></trkpt><trkpt lat="44.154295" lon="11.7888233"><ele>194.0</ele><time>2026-04-18T11:31:03.993Z</time></trkpt><trkpt lat="44.1542267" lon="11.7887583"><ele>194.0</ele><time>2026-04-18T11:31:04.992Z</time></trkpt><trkpt lat="44.1541717" lon="11.7887033"><ele>194.0</ele><time>2026-04-18T11:31:05.993Z</time></trkpt><trkpt lat="44.15412" lon="11.7885767"><ele>196.33333333333334</ele><time>2026-04-18T11:31:07.993Z</time></trkpt><trkpt lat="44.15413" lon="11.7884"><ele>198.66666666666669</ele><time>2026-04-18T11:31:09.994Z</time></trkpt><trkpt lat="44.1541583" lon="11.7883117"><ele>201.0</ele><time>2026-04-18T11:31:10.993Z</time></trkpt><trkpt lat="44.1542033" lon="11.7882467"><ele>203.33333333333331</ele><time>2026-04-18T11:31:11.993Z</time></trkpt><trkpt lat="44.1542617" lon="11.788205"><ele>205.66666666666666</ele><time>2026-04-18T11:31:12.993Z</time></trkpt><trkpt lat="44.1543767" lon="11.7882267"><ele>208.0</ele><time>2026-04-18T11:31:14.997Z</time></trkpt><trkpt lat="44.1544333" lon="11.7882717"><ele>208.0</ele><time>2026-04-18T11:31:15.992Z</time></trkpt><trkpt lat="44.154495" lon="11.7883317"><ele>208.0</ele><time>2026-04-18T11:31:16.992Z</time></trkpt><trkpt lat="44.1545683" lon="11.7884"><ele>208.0</ele><time>2026-04-18T11:31:17.992Z</time></trkpt><trkpt lat="44.15465" lon="11.7884733"><ele>208.0</ele><time>2026-04-18T11:31:18.992Z</time></trkpt><trkpt lat="44.1547383" lon="11.7885417"><ele>208.0</ele><time>2026-04-18T11:31:19.993Z</time></trkpt><trkpt lat="44.1548317" lon="11.7886033"><ele>207.4</ele><time>2026-04-18T11:31:20.992Z</time></trkpt><trkpt lat="44.1549283" lon="11.7886567"><ele>206.8</ele><time>2026-04-18T11:31:21.993Z</time></trkpt><trkpt lat="44.1550317" lon="11.7887"><ele>206.2</ele><time>2026-04-18T11:31:22.993Z</time></trkpt><trkpt lat="44.1551383" lon="11.7887383"><ele>205.6</ele><time>2026-04-18T11:31:23.993Z</time></trkpt><trkpt lat="44.1552483" lon="11.7887817"><ele>205.0</ele><time>2026-04-18T11:31:24.993Z</time></trkpt><trkpt lat="44.155365" lon="11.7888233"><ele>205.0</ele><time>2026-04-18T11:31:25.993Z</time></trkpt><trkpt lat="44.1554817" lon="11.788865"><ele>205.0</ele><time>2026-04-18T11:31:26.993Z</time></trkpt><trkpt lat="44.155595" lon="11.7889067"><ele>205.0</ele><time>2026-04-18T11:31:27.993Z</time></trkpt><trkpt lat="44.1557117" lon="11.78895"><ele>205.0</ele><time>2026-04-18T11:31:28.994Z</time></trkpt><trkpt lat="44.1558283" lon="11.7889883"><ele>208.0</ele><time>2026-04-18T11:31:29.993Z</time></trkpt><trkpt lat="44.1559267" lon="11.78902"><ele>211.0</ele><time>2026-04-18T11:31:30.993Z</time></trkpt><trkpt lat="44.1560267" lon="11.7890383"><ele>214.0</ele><time>2026-04-18T11:31:31.994Z</time></trkpt><trkpt lat="44.1561267" lon="11.7890367"><ele>217.0</ele><time>2026-04-18T11:31:32.993Z</time></trkpt><trkpt lat="44.1562217" lon="11.7890167"><ele>220.0</ele><time>2026-04-18T11:31:33.993Z</time></trkpt><trkpt lat="44.1562917" lon="11.7889683"><ele>219.99999999999997</ele><time>2026-04-18T11:31:34.993Z</time></trkpt><trkpt lat="44.156335" lon="11.7888983"><ele>220.0</ele><time>2026-04-18T11:31:35.993Z</time></trkpt><trkpt lat="44.1563617" lon="11.7888017"><ele>220.0</ele><time>2026-04-18T11:31:36.992Z</time></trkpt><trkpt lat="44.15638" lon="11.7887017"><ele>220.0</ele><time>2026-04-18T11:31:37.993Z</time></trkpt><trkpt lat="44.1564033" lon="11.7885917"><ele>219.99999999999997</ele><time>2026-04-18T11:31:38.993Z</time></trkpt><trkpt lat="44.1564267" lon="11.788455"><ele>220.0</ele><time>2026-04-18T11:31:39.994Z</time></trkpt><trkpt lat="44.1564317" lon="11.7883217"><ele>225.0</ele><time>2026-04-18T11:31:40.994Z</time></trkpt><trkpt lat="44.1564183" lon="11.7881783"><ele>230.0</ele><time>2026-04-18T11:31:41.992Z</time></trkpt><trkpt lat="44.1563867" lon="11.78803"><ele>235.0</ele><time>2026-04-18T11:31:42.995Z</time></trkpt><trkpt lat="44.1563417" lon="11.787865"><ele>240.0</ele><time>2026-04-18T11:31:43.993Z</time></trkpt><trkpt lat="44.1562967" lon="11.78769"><ele>242.75</ele><time>2026-04-18T11:31:44.994Z</time></trkpt><trkpt lat="44.156245" lon="11.7875117"><ele>245.5</ele><time>2026-04-18T11:31:45.994Z</time></trkpt><trkpt lat="44.1561883" lon="11.78733"><ele>248.25</ele><time>2026-04-18T11:31:46.993Z</time></trkpt><trkpt lat="44.1561317" lon="11.7871383"><ele>251.0</ele><time>2026-04-18T11:31:47.993Z</time></trkpt><trkpt lat="44.156065" lon="11.786945"><ele>249.33333333333334</ele><time>2026-04-18T11:31:48.992Z</time></trkpt><trkpt lat="44.1559933" lon="11.7867517"><ele>247.66666666666669</ele><time>2026-04-18T11:31:49.993Z</time></trkpt><trkpt lat="44.1559133" lon="11.786555"><ele>246.0</ele><time>2026-04-18T11:31:50.993Z</time></trkpt><trkpt lat="44.1558283" lon="11.7863567"><ele>246.0</ele><time>2026-04-18T11:31:51.994Z</time></trkpt><trkpt lat="44.1557433" lon="11.7861633"><ele>246.0</ele><time>2026-04-18T11:31:52.994Z</time></trkpt><trkpt lat="44.1556517" lon="11.7859633"><ele>246.0</ele><time>2026-04-18T11:31:53.992Z</time></trkpt><trkpt lat="44.1555517" lon="11.78577"><ele>247.66666666666669</ele><time>2026-04-18T11:31:54.998Z</time></trkpt><trkpt lat="44.1554483" lon="11.7855883"><ele>249.33333333333334</ele><time>2026-04-18T11:31:55.993Z</time></trkpt><trkpt lat="44.1553517" lon="11.785415"><ele>251.0</ele><time>2026-04-18T11:31:56.994Z</time></trkpt><trkpt lat="44.155265" lon="11.785265"><ele>252.0</ele><time>2026-04-18T11:31:57.993Z</time></trkpt><trkpt lat="44.1551833" lon="11.7851233"><ele>253.0</ele><time>2026-04-18T11:31:58.993Z</time></trkpt><trkpt lat="44.1551" lon="11.784985"><ele>254.0</ele><time>2026-04-18T11:31:59.994Z</time></trkpt><trkpt lat="44.1549983" lon="11.7848783"><ele>255.0</ele><time>2026-04-18T11:32:00.994Z</time></trkpt><trkpt lat="44.1548733" lon="11.784805"><ele>255.75</ele><time>2026-04-18T11:32:01.994Z</time></trkpt><trkpt lat="44.1547367" lon="11.78476"><ele>256.5</ele><time>2026-04-18T11:32:02.995Z</time></trkpt><trkpt lat="44.1545983" lon="11.78472"><ele>257.25</ele><time>2026-04-18T11:32:03.995Z</time></trkpt><trkpt lat="44.154465" lon="11.7846717"><ele>258.0</ele><time>2026-04-18T11:32:04.995Z</time></trkpt><trkpt lat="44.1543317" lon="11.7846117"><ele>258.0</ele><time>2026-04-18T11:32:05.994Z</time></trkpt><trkpt lat="44.1542" lon="11.7845367"><ele>258.0</ele><time>2026-04-18T11:32:06.994Z</time></trkpt><trkpt lat="44.1540767" lon="11.7844533"><ele>258.0</ele><time>2026-04-18T11:32:07.994Z</time></trkpt><trkpt lat="44.15396" lon="11.78435"><ele>258.0</ele><time>2026-04-18T11:32:08.994Z</time></trkpt><trkpt lat="44.15385" lon="11.784235"><ele>260.5</ele><time>2026-04-18T11:32:09.994Z</time></trkpt><trkpt lat="44.1537433" lon="11.7841167"><ele>263.0</ele><time>2026-04-18T11:32:10.994Z</time></trkpt><trkpt lat="44.1536367" lon="11.783995"><ele>265.5</ele><time>2026-04-18T11:32:11.995Z</time></trkpt><trkpt lat="44.15352" lon="11.7838867"><ele>268.0</ele><time>2026-04-18T11:32:12.994Z</time></trkpt><trkpt lat="44.1533933" lon="11.78378"><ele>268.0</ele><time>2026-04-18T11:32:13.996Z</time></trkpt><trkpt lat="44.1532667" lon="11.783675"><ele>268.0</ele><time>2026-04-18T11:32:14.993Z</time></trkpt><trkpt lat="44.153135" lon="11.78358"><ele>268.0</ele><time>2026-04-18T11:32:15.992Z</time></trkpt><trkpt lat="44.1529933" lon="11.783505"><ele>268.0</ele><time>2026-04-18T11:32:16.993Z</time></trkpt><trkpt lat="44.1528483" lon="11.7834533"><ele>271.75</ele><time>2026-04-18T11:32:17.994Z</time></trkpt><trkpt lat="44.1527033" lon="11.7834067"><ele>275.5</ele><time>2026-04-18T11:32:18.994Z</time></trkpt><trkpt lat="44.1525667" lon="11.7833633"><ele>279.25</ele><time>2026-04-18T11:32:19.993Z</time></trkpt><trkpt lat="44.152445" lon="11.7833333"><ele>283.0</ele><time>2026-04-18T11:32:20.994Z</time></trkpt><trkpt lat="44.152335" lon="11.783315"><ele>283.0</ele><time>2026-04-18T11:32:21.994Z</time></trkpt><trkpt lat="44.152245" lon="11.7832967"><ele>283.0</ele><time>2026-04-18T11:32:22.993Z</time></trkpt><trkpt lat="44.1521683" lon="11.783275"><ele>283.0</ele><time>2026-04-18T11:32:23.993Z</time></trkpt><trkpt lat="44.1520983" lon="11.7832467"><ele>283.0</ele><time>2026-04-18T11:32:24.993Z</time></trkpt><trkpt lat="44.1520167" lon="11.7831417"><ele>283.0</ele><time>2026-04-18T11:32:26.993Z</time></trkpt><trkpt lat="44.1520283" lon="11.783025"><ele>283.0</ele><time>2026-04-18T11:32:28.993Z</time></trkpt><trkpt lat="44.1521133" lon="11.7829517"><ele>283.0</ele><time>2026-04-18T11:32:30.993Z</time></trkpt><trkpt lat="44.1521917" lon="11.7829183"><ele>283.0</ele><time>2026-04-18T11:32:31.992Z</time></trkpt><trkpt lat="44.15228" lon="11.78288"><ele>283.0</ele><time>2026-04-18T11:32:32.994Z</time></trkpt><trkpt lat="44.1523767" lon="11.7828367"><ele>283.0</ele><time>2026-04-18T11:32:33.993Z</time></trkpt><trkpt lat="44.1524867" lon="11.78279"><ele>283.0</ele><time>2026-04-18T11:32:34.993Z</time></trkpt><trkpt lat="44.1526" lon="11.7827283"><ele>288.0</ele><time>2026-04-18T11:32:35.994Z</time></trkpt><trkpt lat="44.1527083" lon="11.7826583"><ele>293.0</ele><time>2026-04-18T11:32:36.993Z</time></trkpt><trkpt lat="44.1528133" lon="11.7825667"><ele>298.0</ele><time>2026-04-18T11:32:37.993Z</time></trkpt><trkpt lat="44.1529067" lon="11.7824633"><ele>303.0</ele><time>2026-04-18T11:32:38.993Z</time></trkpt><trkpt lat="44.1529833" lon="11.7823567"><ele>303.0</ele><time>2026-04-18T11:32:39.993Z</time></trkpt><trkpt lat="44.1530317" lon="11.7822467"><ele>303.0</ele><time>2026-04-18T11:32:40.993Z</time></trkpt><trkpt lat="44.1530567" lon="11.782125"><ele>303.0</ele><time>2026-04-18T11:32:41.992Z</time></trkpt><trkpt lat="44.1530467" lon="11.7820033"><ele>303.0</ele><time>2026-04-18T11:32:42.993Z</time></trkpt><trkpt lat="44.1530033" lon="11.7818983"><ele>303.0</ele><time>2026-04-18T11:32:43.993Z</time></trkpt><trkpt lat="44.152925" lon="11.78182"><ele>304.2</ele><time>2026-04-18T11:32:44.994Z</time></trkpt><trkpt lat="44.15283" lon="11.7817483"><ele>305.4</ele><time>2026-04-18T11:32:45.993Z</time></trkpt><trkpt lat="44.15273" lon="11.78168"><ele>306.59999999999997</ele><time>2026-04-18T11:32:46.992Z</time></trkpt><trkpt lat="44.15263" lon="11.7816133"><ele>307.8</ele><time>2026-04-18T11:32:47.993Z</time></trkpt><trkpt lat="44.1525317" lon="11.7815467"><ele>309.0</ele><time>2026-04-18T11:32:48.993Z</time></trkpt><trkpt lat="44.1524267" lon="11.78149"><ele>311.25</ele><time>2026-04-18T11:32:49.993Z</time></trkpt><trkpt lat="44.1523167" lon="11.7814383"><ele>313.5</ele><time>2026-04-18T11:32:50.993Z</time></trkpt><trkpt lat="44.1522017" lon="11.7813933"><ele>315.75</ele><time>2026-04-18T11:32:51.992Z</time></trkpt><trkpt lat="44.15208" lon="11.7813467"><ele>318.0</ele><time>2026-04-18T11:32:52.993Z</time></trkpt><trkpt lat="44.1519567" lon="11.781305"><ele>318.0</ele><time>2026-04-18T11:32:53.993Z</time></trkpt><trkpt lat="44.1518333" lon="11.781265"><ele>318.0</ele><time>2026-04-18T11:32:54.993Z</time></trkpt><trkpt lat="44.1517017" lon="11.7812317"><ele>318.0</ele><time>2026-04-18T11:32:55.992Z</time></trkpt><trkpt lat="44.1515683" lon="11.7812017"><ele>318.0</ele><time>2026-04-18T11:32:56.994Z</time></trkpt><trkpt lat="44.1514317" lon="11.781175"><ele>319.5</ele><time>2026-04-18T11:32:57.992Z</time></trkpt><trkpt lat="44.1512967" lon="11.7811533"><ele>321.0</ele><time>2026-04-18T11:32:58.993Z</time></trkpt><trkpt lat="44.15116" lon="11.7811367"><ele>322.5</ele><time>2026-04-18T11:32:59.993Z</time></trkpt><trkpt lat="44.1510267" lon="11.7811217"><ele>324.0</ele><time>2026-04-18T11:33:00.992Z</time></trkpt><trkpt lat="44.1508883" lon="11.78111"><ele>324.0</ele><time>2026-04-18T11:33:01.992Z</time></trkpt><trkpt lat="44.15075" lon="11.7810983"><ele>324.0</ele><time>2026-04-18T11:33:02.994Z</time></trkpt><trkpt lat="44.1506117" lon="11.7810783"><ele>324.0</ele><time>2026-04-18T11:33:03.993Z</time></trkpt><trkpt lat="44.150475" lon="11.7810383"><ele>324.0</ele><time>2026-04-18T11:33:04.994Z</time></trkpt><trkpt lat="44.15034" lon="11.7809783"><ele>326.25</ele><time>2026-04-18T11:33:05.992Z</time></trkpt><trkpt lat="44.15021" lon="11.7809"><ele>328.5</ele><time>2026-04-18T11:33:06.994Z</time></trkpt><trkpt lat="44.1500783" lon="11.7808067"><ele>330.75</ele><time>2026-04-18T11:33:07.992Z</time></trkpt><trkpt lat="44.1499483" lon="11.7807067"><ele>333.0</ele><time>2026-04-18T11:33:08.995Z</time></trkpt><trkpt lat="44.149815" lon="11.78061"><ele>333.0</ele><time>2026-04-18T11:33:09.993Z</time></trkpt><trkpt lat="44.14968" lon="11.780505"><ele>333.0</ele><time>2026-04-18T11:33:10.993Z</time></trkpt><trkpt lat="44.1495683" lon="11.7804017"><ele>333.0</ele><time>2026-04-18T11:33:11.992Z</time></trkpt><trkpt lat="44.1495" lon="11.7802817"><ele>333.0</ele><time>2026-04-18T11:33:12.992Z</time></trkpt><trkpt lat="44.1494717" lon="11.780145"><ele>336.79999999999995</ele><time>2026-04-18T11:33:13.992Z</time></trkpt><trkpt lat="44.1494883" lon="11.7800133"><ele>340.6</ele><time>2026-04-18T11:33:14.994Z</time></trkpt><trkpt lat="44.1495333" lon="11.77988"><ele>344.4</ele><time>2026-04-18T11:33:15.992Z</time></trkpt><trkpt lat="44.1496017" lon="11.7797567"><ele>348.20000000000005</ele><time>2026-04-18T11:33:16.992Z</time></trkpt><trkpt lat="44.1496867" lon="11.779655"><ele>352.0</ele><time>2026-04-18T11:33:17.992Z</time></trkpt><trkpt lat="44.149765" lon="11.7795517"><ele>352.0</ele><time>2026-04-18T11:33:18.993Z</time></trkpt><trkpt lat="44.149825" lon="11.7794233"><ele>352.0</ele><time>2026-04-18T11:33:19.992Z</time></trkpt><trkpt lat="44.14986" lon="11.7792783"><ele>352.0</ele><time>2026-04-18T11:33:20.992Z</time></trkpt><trkpt lat="44.1498733" lon="11.7791233"><ele>352.0</ele><time>2026-04-18T11:33:21.992Z</time></trkpt><trkpt lat="44.1498867" lon="11.778965"><ele>352.0</ele><time>2026-04-18T11:33:22.993Z</time></trkpt><trkpt lat="44.1499317" lon="11.77881"><ele>352.5</ele><time>2026-04-18T11:33:23.992Z</time></trkpt><trkpt lat="44.1499983" lon="11.7786767"><ele>353.0</ele><time>2026-04-18T11:33:24.993Z</time></trkpt><trkpt lat="44.150085" lon="11.778555"><ele>353.5</ele><time>2026-04-18T11:33:25.992Z</time></trkpt><trkpt lat="44.1501683" lon="11.7784167"><ele>354.0</ele><time>2026-04-18T11:33:26.993Z</time></trkpt><trkpt lat="44.1502383" lon="11.77826"><ele>357.25</ele><time>2026-04-18T11:33:27.994Z</time></trkpt><trkpt lat="44.1503083" lon="11.778105"><ele>360.5</ele><time>2026-04-18T11:33:28.992Z</time></trkpt><trkpt lat="44.1503967" lon="11.77797"><ele>363.75</ele><time>2026-04-18T11:33:29.994Z</time></trkpt><trkpt lat="44.1504867" lon="11.7778533"><ele>367.0</ele><time>2026-04-18T11:33:30.993Z</time></trkpt><trkpt lat="44.1505483" lon="11.7777567"><ele>369.16666666666663</ele><time>2026-04-18T11:33:31.994Z</time></trkpt><trkpt lat="44.1505767" lon="11.7776617"><ele>371.3333333333333</ele><time>2026-04-18T11:33:32.995Z</time></trkpt><trkpt lat="44.1505683" lon="11.7775617"><ele>373.5</ele><time>2026-04-18T11:33:33.993Z</time></trkpt><trkpt lat="44.1505233" lon="11.7774833"><ele>375.6666666666667</ele><time>2026-04-18T11:33:34.993Z</time></trkpt><trkpt lat="44.1504467" lon="11.7774483"><ele>377.83333333333337</ele><time>2026-04-18T11:33:35.994Z</time></trkpt><trkpt lat="44.1503533" lon="11.7774783"><ele>380.0</ele><time>2026-04-18T11:33:36.993Z</time></trkpt><trkpt lat="44.1502633" lon="11.7775467"><ele>380.0</ele><time>2026-04-18T11:33:37.993Z</time></trkpt><trkpt lat="44.150175" lon="11.7776333"><ele>380.0</ele><time>2026-04-18T11:33:38.994Z</time></trkpt><trkpt lat="44.1500733" lon="11.777715"><ele>380.0</ele><time>2026-04-18T11:33:39.993Z</time></trkpt><trkpt lat="44.1499617" lon="11.77778"><ele>380.0</ele><time>2026-04-18T11:33:40.999Z</time></trkpt><trkpt lat="44.1498383" lon="11.7778533"><ele>382.33333333333337</ele><time>2026-04-18T11:33:41.993Z</time></trkpt><trkpt lat="44.1497083" lon="11.7779317"><ele>384.6666666666667</ele><time>2026-04-18T11:33:42.994Z</time></trkpt><trkpt lat="44.1495633" lon="11.7780133"><ele>387.0</ele><time>2026-04-18T11:33:43.993Z</time></trkpt><trkpt lat="44.1494233" lon="11.7781067"><ele>387.0</ele><time>2026-04-18T11:33:44.994Z</time></trkpt><trkpt lat="44.1492867" lon="11.7782117"><ele>387.0</ele><time>2026-04-18T11:33:45.994Z</time></trkpt><trkpt lat="44.1491467" lon="11.7783117"><ele>387.0</ele><time>2026-04-18T11:33:46.993Z</time></trkpt><trkpt lat="44.1490033" lon="11.77839"><ele>389.5</ele><time>2026-04-18T11:33:47.993Z</time></trkpt><trkpt lat="44.148855" lon="11.778445"><ele>392.0</ele><time>2026-04-18T11:33:48.994Z</time></trkpt><trkpt lat="44.1487033" lon="11.7784817"><ele>394.5</ele><time>2026-04-18T11:33:49.992Z</time></trkpt><trkpt lat="44.148565" lon="11.7785233"><ele>397.0</ele><time>2026-04-18T11:33:50.993Z</time></trkpt><trkpt lat="44.1484517" lon="11.778585"><ele>397.0</ele><time>2026-04-18T11:33:51.994Z</time></trkpt><trkpt lat="44.1483683" lon="11.77863"><ele>397.0</ele><time>2026-04-18T11:33:52.992Z</time></trkpt><trkpt lat="44.1482983" lon="11.7786483"><ele>397.0</ele><time>2026-04-18T11:33:53.993Z</time></trkpt><trkpt lat="44.148235" lon="11.7785917"><ele>397.0</ele><time>2026-04-18T11:33:55.992Z</time></trkpt><trkpt lat="44.1483033" lon="11.77845"><ele>397.0</ele><time>2026-04-18T11:33:57.992Z</time></trkpt><trkpt lat="44.1483767" lon="11.7783217"><ele>397.0</ele><time>2026-04-18T11:33:58.993Z</time></trkpt><trkpt lat="44.14845" lon="11.7781817"><ele>397.0</ele><time>2026-04-18T11:33:59.993Z</time></trkpt><trkpt lat="44.1485283" lon="11.77804"><ele>397.0</ele><time>2026-04-18T11:34:00.993Z</time></trkpt><trkpt lat="44.1486033" lon="11.7778883"><ele>397.0</ele><time>2026-04-18T11:34:01.993Z</time></trkpt><trkpt lat="44.1486633" lon="11.7777433"><ele>399.33333333333337</ele><time>2026-04-18T11:34:02.994Z</time></trkpt><trkpt lat="44.1487033" lon="11.7776167"><ele>401.6666666666667</ele><time>2026-04-18T11:34:03.994Z</time></trkpt><trkpt lat="44.148705" lon="11.777515"><ele>404.0</ele><time>2026-04-18T11:34:04.993Z</time></trkpt><trkpt lat="44.1486267" lon="11.7774567"><ele>406.33333333333337</ele><time>2026-04-18T11:34:06.993Z</time></trkpt><trkpt lat="44.1485667" lon="11.7774933"><ele>408.6666666666667</ele><time>2026-04-18T11:34:07.993Z</time></trkpt><trkpt lat="44.148505" lon="11.7775617"><ele>411.0</ele><time>2026-04-18T11:34:08.994Z</time></trkpt><trkpt lat="44.14843" lon="11.7776317"><ele>408.6</ele><time>2026-04-18T11:34:09.995Z</time></trkpt><trkpt lat="44.1483367" lon="11.7776867"><ele>406.20000000000005</ele><time>2026-04-18T11:34:10.994Z</time></trkpt><trkpt lat="44.1482283" lon="11.77773"><ele>403.79999999999995</ele><time>2026-04-18T11:34:11.992Z</time></trkpt><trkpt lat="44.148115" lon="11.77777"><ele>401.4</ele><time>2026-04-18T11:34:12.992Z</time></trkpt><trkpt lat="44.1480067" lon="11.7778083"><ele>399.0</ele><time>2026-04-18T11:34:13.993Z</time></trkpt><trkpt lat="44.14792" lon="11.777815"><ele>399.0</ele><time>2026-04-18T11:34:14.994Z</time></trkpt><trkpt lat="44.147835" lon="11.777775"><ele>399.0</ele><time>2026-04-18T11:34:15.993Z</time></trkpt><trkpt lat="44.1477517" lon="11.7777"><ele>399.0</ele><time>2026-04-18T11:34:16.994Z</time></trkpt><trkpt lat="44.14766" lon="11.7776"><ele>399.0</ele><time>2026-04-18T11:34:17.993Z</time></trkpt><trkpt lat="44.14756" lon="11.7774883"><ele>399.0</ele><time>2026-04-18T11:34:18.993Z</time></trkpt><trkpt lat="44.1474483" lon="11.77738"><ele>403.25</ele><time>2026-04-18T11:34:19.993Z</time></trkpt><trkpt lat="44.1473283" lon="11.7772883"><ele>407.5</ele><time>2026-04-18T11:34:20.993Z</time></trkpt><trkpt lat="44.1472" lon="11.77721"><ele>411.75</ele><time>2026-04-18T11:34:21.993Z</time></trkpt><trkpt lat="44.1470683" lon="11.7771433"><ele>416.0</ele><time>2026-04-18T11:34:22.994Z</time></trkpt><trkpt lat="44.146945" lon="11.7770967"><ele>416.0</ele><time>2026-04-18T11:34:23.993Z</time></trkpt><trkpt lat="44.1468433" lon="11.7770533"><ele>416.0</ele><time>2026-04-18T11:34:24.993Z</time></trkpt><trkpt lat="44.146765" lon="11.7769917"><ele>416.0</ele><time>2026-04-18T11:34:25.993Z</time></trkpt><trkpt lat="44.1467067" lon="11.776905"><ele>416.0</ele><time>2026-04-18T11:34:26.993Z</time></trkpt><trkpt lat="44.14666" lon="11.7768"><ele>416.0</ele><time>2026-04-18T11:34:27.993Z</time></trkpt><trkpt lat="44.1466" lon="11.77668"><ele>420.25</ele><time>2026-04-18T11:34:28.993Z</time></trkpt><trkpt lat="44.14652" lon="11.77656"><ele>424.5</ele><time>2026-04-18T11:34:29.994Z</time></trkpt><trkpt lat="44.1464167" lon="11.7764517"><ele>428.75</ele><time>2026-04-18T11:34:30.994Z</time></trkpt><trkpt lat="44.1462917" lon="11.7763683"><ele>433.0</ele><time>2026-04-18T11:34:31.993Z</time></trkpt><trkpt lat="44.1461583" lon="11.7763183"><ele>433.0</ele><time>2026-04-18T11:34:32.993Z</time></trkpt><trkpt lat="44.14602" lon="11.7762783"><ele>433.0</ele><time>2026-04-18T11:34:33.992Z</time></trkpt><trkpt lat="44.14588" lon="11.7762267"><ele>433.0</ele><time>2026-04-18T11:34:34.993Z</time></trkpt><trkpt lat="44.1457467" lon="11.776165"><ele>433.0</ele><time>2026-04-18T11:34:35.994Z</time></trkpt><trkpt lat="44.1456167" lon="11.7760983"><ele>432.25</ele><time>2026-04-18T11:34:36.994Z</time></trkpt><trkpt lat="44.1454933" lon="11.7760233"><ele>431.5</ele><time>2026-04-18T11:34:37.993Z</time></trkpt><trkpt lat="44.14537" lon="11.7759383"><ele>430.75</ele><time>2026-04-18T11:34:38.994Z</time></trkpt><trkpt lat="44.1452467" lon="11.77584"><ele>430.0</ele><time>2026-04-18T11:34:39.993Z</time></trkpt><trkpt lat="44.1451267" lon="11.7757317"><ele>430.75</ele><time>2026-04-18T11:34:40.993Z</time></trkpt><trkpt lat="44.145015" lon="11.7756217"><ele>431.5</ele><time>2026-04-18T11:34:41.994Z</time></trkpt><trkpt lat="44.1449217" lon="11.7755167"><ele>432.25</ele><time>2026-04-18T11:34:42.992Z</time></trkpt><trkpt lat="44.1448317" lon="11.77541"><ele>433.0</ele><time>2026-04-18T11:34:43.996Z</time></trkpt><trkpt lat="44.14474" lon="11.77531"><ele>433.0</ele><time>2026-04-18T11:34:44.994Z</time></trkpt><trkpt lat="44.1446367" lon="11.7752183"><ele>433.0</ele><time>2026-04-18T11:34:45.994Z</time></trkpt><trkpt lat="44.14454" lon="11.7751083"><ele>433.0</ele><time>2026-04-18T11:34:46.993Z</time></trkpt><trkpt lat="44.1444467" lon="11.775005"><ele>433.0</ele><time>2026-04-18T11:34:47.992Z</time></trkpt><trkpt lat="44.1443617" lon="11.774885"><ele>435.25</ele><time>2026-04-18T11:34:48.994Z</time></trkpt><trkpt lat="44.14427" lon="11.7747683"><ele>437.5</ele><time>2026-04-18T11:34:49.993Z</time></trkpt><trkpt lat="44.1441667" lon="11.7746567"><ele>439.75</ele><time>2026-04-18T11:34:50.993Z</time></trkpt><trkpt lat="44.144055" lon="11.774535"><ele>442.0</ele><time>2026-04-18T11:34:51.992Z</time></trkpt><trkpt lat="44.1439417" lon="11.7744133"><ele>445.0</ele><time>2026-04-18T11:34:52.993Z</time></trkpt><trkpt lat="44.1438433" lon="11.7742867"><ele>448.0</ele><time>2026-04-18T11:34:53.993Z</time></trkpt><trkpt lat="44.1437517" lon="11.774165"><ele>451.0</ele><time>2026-04-18T11:34:54.993Z</time></trkpt><trkpt lat="44.14364" lon="11.7740733"><ele>454.0</ele><time>2026-04-18T11:34:55.992Z</time></trkpt><trkpt lat="44.1435133" lon="11.7739917"><ele>454.0</ele><time>2026-04-18T11:34:56.993Z</time></trkpt><trkpt lat="44.1433883" lon="11.773905"><ele>454.0</ele><time>2026-04-18T11:34:57.993Z</time></trkpt><trkpt lat="44.1432717" lon="11.77381"><ele>454.0</ele><time>2026-04-18T11:34:58.994Z</time></trkpt><trkpt lat="44.14318" lon="11.7737117"><ele>454.0</ele><time>2026-04-18T11:34:59.992Z</time></trkpt><trkpt lat="44.1431117" lon="11.7736033"><ele>459.6</ele><time>2026-04-18T11:35:00.993Z</time></trkpt><trkpt lat="44.1430633" lon="11.7734917"><ele>465.2</ele><time>2026-04-18T11:35:01.993Z</time></trkpt><trkpt lat="44.143015" lon="11.7733733"><ele>470.80000000000007</ele><time>2026-04-18T11:35:02.993Z</time></trkpt><trkpt lat="44.142945" lon="11.7732533"><ele>476.40000000000003</ele><time>2026-04-18T11:35:03.994Z</time></trkpt><trkpt lat="44.142865" lon="11.7731333"><ele>482.0</ele><time>2026-04-18T11:35:04.993Z</time></trkpt><trkpt lat="44.1427867" lon="11.7730217"><ele>482.0</ele><time>2026-04-18T11:35:05.995Z</time></trkpt><trkpt lat="44.1427067" lon="11.77291"><ele>482.0</ele><time>2026-04-18T11:35:06.994Z</time></trkpt><trkpt lat="44.1426183" lon="11.7727917"><ele>482.0</ele><time>2026-04-18T11:35:07.992Z</time></trkpt><trkpt lat="44.142545" lon="11.77266"><ele>482.0</ele><time>2026-04-18T11:35:08.993Z</time></trkpt><trkpt lat="44.1424867" lon="11.7725183"><ele>479.8</ele><time>2026-04-18T11:35:09.994Z</time></trkpt><trkpt lat="44.1424367" lon="11.7723833"><ele>477.6</ele><time>2026-04-18T11:35:10.992Z</time></trkpt><trkpt lat="44.1423933" lon="11.772255"><ele>475.40000000000003</ele><time>2026-04-18T11:35:11.993Z</time></trkpt><trkpt lat="44.1423483" lon="11.7721383"><ele>473.20000000000005</ele><time>2026-04-18T11:35:12.994Z</time></trkpt><trkpt lat="44.1422883" lon="11.7720283"><ele>471.0</ele><time>2026-04-18T11:35:13.994Z</time></trkpt><trkpt lat="44.1422183" lon="11.77194"><ele>471.0</ele><time>2026-04-18T11:35:14.993Z</time></trkpt><trkpt lat="44.1421417" lon="11.7718667"><ele>471.0</ele><time>2026-04-18T11:35:15.993Z</time></trkpt><trkpt lat="44.1420517" lon="11.7718217"><ele>471.0</ele><time>2026-04-18T11:35:16.992Z</time></trkpt><trkpt lat="44.1419567" lon="11.7717833"><ele>471.0</ele><time>2026-04-18T11:35:17.996Z</time></trkpt><trkpt lat="44.1418717" lon="11.77174"><ele>471.0</ele><time>2026-04-18T11:35:18.993Z</time></trkpt><trkpt lat="44.1417983" lon="11.7716717"><ele>471.0</ele><time>2026-04-18T11:35:19.994Z</time></trkpt><trkpt lat="44.1417367" lon="11.7715917"><ele>471.0</ele><time>2026-04-18T11:35:20.994Z</time></trkpt><trkpt lat="44.1416783" lon="11.7715067"><ele>471.0</ele><time>2026-04-18T11:35:21.993Z</time></trkpt><trkpt lat="44.1416183" lon="11.771445"><ele>471.0</ele><time>2026-04-18T11:35:22.993Z</time></trkpt><trkpt lat="44.1415383" lon="11.77139"><ele>471.0</ele><time>2026-04-18T11:35:23.992Z</time></trkpt><trkpt lat="44.1414533" lon="11.77135"><ele>471.0</ele><time>2026-04-18T11:35:24.993Z</time></trkpt><trkpt lat="44.1413683" lon="11.771295"><ele>472.8</ele><time>2026-04-18T11:35:25.993Z</time></trkpt><trkpt lat="44.1412933" lon="11.77123"><ele>474.6</ele><time>2026-04-18T11:35:26.992Z</time></trkpt><trkpt lat="44.1412233" lon="11.7711383"><ele>476.4</ele><time>2026-04-18T11:35:27.993Z</time></trkpt><trkpt lat="44.1411567" lon="11.7710317"><ele>478.2</ele><time>2026-04-18T11:35:28.993Z</time></trkpt><trkpt lat="44.1410933" lon="11.7709367"><ele>480.0</ele><time>2026-04-18T11:35:29.993Z</time></trkpt><trkpt lat="44.1410467" lon="11.7708383"><ele>480.0</ele><time>2026-04-18T11:35:30.993Z</time></trkpt><trkpt lat="44.1410233" lon="11.7707367"><ele>480.0</ele><time>2026-04-18T11:35:31.993Z</time></trkpt><trkpt lat="44.1410183" lon="11.770625"><ele>480.0</ele><time>2026-04-18T11:35:32.994Z</time></trkpt><trkpt lat="44.1410033" lon="11.77051"><ele>480.0</ele><time>2026-04-18T11:35:33.994Z</time></trkpt><trkpt lat="44.14097" lon="11.7704017"><ele>480.0</ele><time>2026-04-18T11:35:34.993Z</time></trkpt><trkpt lat="44.140905" lon="11.770315"><ele>480.0</ele><time>2026-04-18T11:35:35.993Z</time></trkpt><trkpt lat="44.1408367" lon="11.7702467"><ele>481.6</ele><time>2026-04-18T11:35:36.993Z</time></trkpt><trkpt lat="44.14075" lon="11.7701817"><ele>483.2</ele><time>2026-04-18T11:35:37.993Z</time></trkpt><trkpt lat="44.14066" lon="11.7701083"><ele>484.79999999999995</ele><time>2026-04-18T11:35:38.995Z</time></trkpt><trkpt lat="44.140565" lon="11.7700167"><ele>486.4</ele><time>2026-04-18T11:35:39.994Z</time></trkpt><trkpt lat="44.1404767" lon="11.76991"><ele>488.0</ele><time>2026-04-18T11:35:40.993Z</time></trkpt><trkpt lat="44.1404067" lon="11.7697967"><ele>488.0</ele><time>2026-04-18T11:35:41.994Z</time></trkpt><trkpt lat="44.1403567" lon="11.7696717"><ele>487.99999999999994</ele><time>2026-04-18T11:35:42.993Z</time></trkpt><trkpt lat="44.1403167" lon="11.769555"><ele>487.99999999999994</ele><time>2026-04-18T11:35:43.994Z</time></trkpt><trkpt lat="44.1402783" lon="11.7694467"><ele>488.0</ele><time>2026-04-18T11:35:44.994Z</time></trkpt><trkpt lat="44.1402217" lon="11.7693433"><ele>488.0</ele><time>2026-04-18T11:35:45.993Z</time></trkpt><trkpt lat="44.1401517" lon="11.7692533"><ele>484.8333333333333</ele><time>2026-04-18T11:35:46.993Z</time></trkpt><trkpt lat="44.1400767" lon="11.7691817"><ele>481.66666666666663</ele><time>2026-04-18T11:35:47.993Z</time></trkpt><trkpt lat="44.1399983" lon="11.769125"><ele>478.5</ele><time>2026-04-18T11:35:48.994Z</time></trkpt><trkpt lat="44.13991" lon="11.7691"><ele>475.33333333333337</ele><time>2026-04-18T11:35:49.993Z</time></trkpt><trkpt lat="44.1398233" lon="11.7691133"><ele>472.1666666666667</ele><time>2026-04-18T11:35:50.994Z</time></trkpt><trkpt lat="44.1397417" lon="11.7691517"><ele>469.0</ele><time>2026-04-18T11:35:51.993Z</time></trkpt><trkpt lat="44.1396617" lon="11.7691983"><ele>469.00000000000006</ele><time>2026-04-18T11:35:52.993Z</time></trkpt><trkpt lat="44.139585" lon="11.7692517"><ele>469.0</ele><time>2026-04-18T11:35:53.994Z</time></trkpt><trkpt lat="44.1395117" lon="11.7693067"><ele>469.0</ele><time>2026-04-18T11:35:54.993Z</time></trkpt><trkpt lat="44.1394333" lon="11.7693633"><ele>469.0</ele><time>2026-04-18T11:35:55.997Z</time></trkpt><trkpt lat="44.1393467" lon="11.7694183"><ele>469.00000000000006</ele><time>2026-04-18T11:35:56.993Z</time></trkpt><trkpt lat="44.139255" lon="11.7694567"><ele>469.0</ele><time>2026-04-18T11:35:57.992Z</time></trkpt><trkpt lat="44.1391567" lon="11.7694717"><ele>469.79999999999995</ele><time>2026-04-18T11:35:58.993Z</time></trkpt><trkpt lat="44.139055" lon="11.7694633"><ele>470.59999999999997</ele><time>2026-04-18T11:35:59.992Z</time></trkpt><trkpt lat="44.1389583" lon="11.7694317"><ele>471.4</ele><time>2026-04-18T11:36:00.993Z</time></trkpt><trkpt lat="44.1388633" lon="11.769385"><ele>472.2</ele><time>2026-04-18T11:36:01.994Z</time></trkpt><trkpt lat="44.138765" lon="11.7693367"><ele>473.0</ele><time>2026-04-18T11:36:02.993Z</time></trkpt><trkpt lat="44.138665" lon="11.7692933"><ele>473.0</ele><time>2026-04-18T11:36:03.994Z</time></trkpt><trkpt lat="44.1385583" lon="11.7692733"><ele>472.99999999999994</ele><time>2026-04-18T11:36:04.992Z</time></trkpt><trkpt lat="44.138445" lon="11.76928"><ele>472.99999999999994</ele><time>2026-04-18T11:36:05.993Z</time></trkpt><trkpt lat="44.1383383" lon="11.76932"><ele>473.0</ele><time>2026-04-18T11:36:06.993Z</time></trkpt><trkpt lat="44.13823" lon="11.76938"><ele>473.0</ele><time>2026-04-18T11:36:07.993Z</time></trkpt><trkpt lat="44.1381183" lon="11.7694483"><ele>478.0</ele><time>2026-04-18T11:36:08.993Z</time></trkpt><trkpt lat="44.1380033" lon="11.7695183"><ele>483.0</ele><time>2026-04-18T11:36:09.994Z</time></trkpt><trkpt lat="44.1378867" lon="11.7695983"><ele>488.0</ele><time>2026-04-18T11:36:10.993Z</time></trkpt><trkpt lat="44.1377717" lon="11.7696917"><ele>493.0</ele><time>2026-04-18T11:36:11.993Z</time></trkpt><trkpt lat="44.1376667" lon="11.769805"><ele>493.0</ele><time>2026-04-18T11:36:12.993Z</time></trkpt><trkpt lat="44.1375583" lon="11.7699083"><ele>493.0</ele><time>2026-04-18T11:36:13.994Z</time></trkpt><trkpt lat="44.1374417" lon="11.7699967"><ele>493.0</ele><time>2026-04-18T11:36:14.994Z</time></trkpt><trkpt lat="44.1373267" lon="11.7700767"><ele>493.0</ele><time>2026-04-18T11:36:15.993Z</time></trkpt><trkpt lat="44.1372217" lon="11.7701433"><ele>490.4</ele><time>2026-04-18T11:36:16.993Z</time></trkpt><trkpt lat="44.1371283" lon="11.7702"><ele>487.79999999999995</ele><time>2026-04-18T11:36:17.994Z</time></trkpt><trkpt lat="44.13703" lon="11.7702283"><ele>485.2</ele><time>2026-04-18T11:36:18.993Z</time></trkpt><trkpt lat="44.1369283" lon="11.7702333"><ele>482.6</ele><time>2026-04-18T11:36:19.993Z</time></trkpt><trkpt lat="44.1368167" lon="11.770235"><ele>480.0</ele><time>2026-04-18T11:36:20.993Z</time></trkpt><trkpt lat="44.1367033" lon="11.770235"><ele>480.0</ele><time>2026-04-18T11:36:21.995Z</time></trkpt><trkpt lat="44.1365867" lon="11.770235"><ele>480.0</ele><time>2026-04-18T11:36:22.993Z</time></trkpt><trkpt lat="44.136475" lon="11.7702433"><ele>480.0</ele><time>2026-04-18T11:36:23.993Z</time></trkpt><trkpt lat="44.1363733" lon="11.7702467"><ele>480.0</ele><time>2026-04-18T11:36:24.992Z</time></trkpt><trkpt lat="44.136265" lon="11.7702167"><ele>480.0</ele><time>2026-04-18T11:36:25.993Z</time></trkpt><trkpt lat="44.1361567" lon="11.77017"><ele>479.5</ele><time>2026-04-18T11:36:26.994Z</time></trkpt><trkpt lat="44.1360433" lon="11.770105"><ele>479.0</ele><time>2026-04-18T11:36:27.994Z</time></trkpt><trkpt lat="44.1359333" lon="11.7700267"><ele>478.5</ele><time>2026-04-18T11:36:28.993Z</time></trkpt><trkpt lat="44.135815" lon="11.7699467"><ele>478.0</ele><time>2026-04-18T11:36:29.992Z</time></trkpt><trkpt lat="44.1357" lon="11.769885"><ele>480.5</ele><time>2026-04-18T11:36:30.993Z</time></trkpt><trkpt lat="44.1355833" lon="11.7698383"><ele>483.0</ele><time>2026-04-18T11:36:31.994Z</time></trkpt><trkpt lat="44.1354733" lon="11.7698"><ele>485.5</ele><time>2026-04-18T11:36:32.993Z</time></trkpt><trkpt lat="44.1353633" lon="11.76977"><ele>488.0</ele><time>2026-04-18T11:36:33.993Z</time></trkpt><trkpt lat="44.135255" lon="11.7697317"><ele>488.0</ele><time>2026-04-18T11:36:34.992Z</time></trkpt><trkpt lat="44.1351533" lon="11.7696917"><ele>487.99999999999994</ele><time>2026-04-18T11:36:35.994Z</time></trkpt><trkpt lat="44.1350483" lon="11.7696667"><ele>487.99999999999994</ele><time>2026-04-18T11:36:36.994Z</time></trkpt><trkpt lat="44.1349433" lon="11.7696583"><ele>488.0</ele><time>2026-04-18T11:36:37.994Z</time></trkpt><trkpt lat="44.1348433" lon="11.7696867"><ele>488.0</ele><time>2026-04-18T11:36:38.994Z</time></trkpt><trkpt lat="44.1347433" lon="11.7697283"><ele>489.59999999999997</ele><time>2026-04-18T11:36:39.993Z</time></trkpt><trkpt lat="44.134635" lon="11.7697617"><ele>491.19999999999993</ele><time>2026-04-18T11:36:40.993Z</time></trkpt><trkpt lat="44.1345267" lon="11.769785"><ele>492.8</ele><time>2026-04-18T11:36:41.993Z</time></trkpt><trkpt lat="44.1344217" lon="11.7698083"><ele>494.4</ele><time>2026-04-18T11:36:42.992Z</time></trkpt><trkpt lat="44.134325" lon="11.7698583"><ele>496.0</ele><time>2026-04-18T11:36:43.992Z</time></trkpt><trkpt lat="44.1342367" lon="11.7699283"><ele>496.0</ele><time>2026-04-18T11:36:44.993Z</time></trkpt><trkpt lat="44.1341467" lon="11.7700117"><ele>496.0</ele><time>2026-04-18T11:36:45.992Z</time></trkpt><trkpt lat="44.1340467" lon="11.77009"><ele>496.0</ele><time>2026-04-18T11:36:46.993Z</time></trkpt><trkpt lat="44.1339333" lon="11.7701483"><ele>496.0</ele><time>2026-04-18T11:36:47.993Z</time></trkpt><trkpt lat="44.133815" lon="11.7701883"><ele>497.6</ele><time>2026-04-18T11:36:48.992Z</time></trkpt><trkpt lat="44.1337" lon="11.7702"><ele>499.20000000000005</ele><time>2026-04-18T11:36:49.994Z</time></trkpt><trkpt lat="44.13359" lon="11.7701883"><ele>500.79999999999995</ele><time>2026-04-18T11:36:50.993Z</time></trkpt><trkpt lat="44.133495" lon="11.770195"><ele>502.4</ele><time>2026-04-18T11:36:51.993Z</time></trkpt><trkpt lat="44.1333983" lon="11.77024"><ele>504.0</ele><time>2026-04-18T11:36:52.992Z</time></trkpt><trkpt lat="44.133315" lon="11.77032"><ele>505.0</ele><time>2026-04-18T11:36:53.993Z</time></trkpt><trkpt lat="44.1332467" lon="11.7704267"><ele>506.0</ele><time>2026-04-18T11:36:54.994Z</time></trkpt><trkpt lat="44.1331867" lon="11.7705483"><ele>507.0</ele><time>2026-04-18T11:36:55.994Z</time></trkpt><trkpt lat="44.1331233" lon="11.77066"><ele>508.0</ele><time>2026-04-18T11:36:56.993Z</time></trkpt><trkpt lat="44.13305" lon="11.7707467"><ele>509.0</ele><time>2026-04-18T11:36:57.994Z</time></trkpt><trkpt lat="44.1329733" lon="11.770815"><ele>509.0</ele><time>2026-04-18T11:36:58.994Z</time></trkpt><trkpt lat="44.1328817" lon="11.7708633"><ele>509.0</ele><time>2026-04-18T11:36:59.992Z</time></trkpt><trkpt lat="44.1327733" lon="11.7708867"><ele>509.0</ele><time>2026-04-18T11:37:00.994Z</time></trkpt><trkpt lat="44.132655" lon="11.7708883"><ele>509.0</ele><time>2026-04-18T11:37:01.993Z</time></trkpt><trkpt lat="44.1325367" lon="11.770865"><ele>509.0</ele><time>2026-04-18T11:37:02.993Z</time></trkpt><trkpt lat="44.1324117" lon="11.7708367"><ele>506.5</ele><time>2026-04-18T11:37:03.994Z</time></trkpt><trkpt lat="44.132285" lon="11.77081"><ele>504.0</ele><time>2026-04-18T11:37:04.993Z</time></trkpt><trkpt lat="44.13216" lon="11.77078"><ele>501.5</ele><time>2026-04-18T11:37:05.993Z</time></trkpt><trkpt lat="44.132035" lon="11.7707467"><ele>499.0</ele><time>2026-04-18T11:37:06.993Z</time></trkpt><trkpt lat="44.1319183" lon="11.77071"><ele>499.0</ele><time>2026-04-18T11:37:07.993Z</time></trkpt><trkpt lat="44.1318133" lon="11.770675"><ele>499.0</ele><time>2026-04-18T11:37:08.994Z</time></trkpt><trkpt lat="44.1317067" lon="11.7706417"><ele>499.0</ele><time>2026-04-18T11:37:09.994Z</time></trkpt><trkpt lat="44.1315967" lon="11.770605"><ele>499.0</ele><time>2026-04-18T11:37:10.994Z</time></trkpt><trkpt lat="44.1314883" lon="11.7705633"><ele>499.0</ele><time>2026-04-18T11:37:11.993Z</time></trkpt><trkpt lat="44.1313933" lon="11.7705017"><ele>500.4</ele><time>2026-04-18T11:37:12.994Z</time></trkpt><trkpt lat="44.13131" lon="11.7704267"><ele>501.79999999999995</ele><time>2026-04-18T11:37:13.994Z</time></trkpt><trkpt lat="44.1312317" lon="11.77035"><ele>503.20000000000005</ele><time>2026-04-18T11:37:14.993Z</time></trkpt><trkpt lat="44.1311517" lon="11.7702817"><ele>504.6</ele><time>2026-04-18T11:37:15.994Z</time></trkpt><trkpt lat="44.1310667" lon="11.7702267"><ele>506.0</ele><time>2026-04-18T11:37:16.992Z</time></trkpt><trkpt lat="44.130965" lon="11.7701933"><ele>506.0</ele><time>2026-04-18T11:37:17.994Z</time></trkpt><trkpt lat="44.1308533" lon="11.770165"><ele>506.0</ele><time>2026-04-18T11:37:18.993Z</time></trkpt><trkpt lat="44.1307383" lon="11.7701433"><ele>506.0</ele><time>2026-04-18T11:37:19.993Z</time></trkpt><trkpt lat="44.1306233" lon="11.7701167"><ele>506.0</ele><time>2026-04-18T11:37:20.992Z</time></trkpt><trkpt lat="44.1305033" lon="11.7700833"><ele>506.0</ele><time>2026-04-18T11:37:21.993Z</time></trkpt><trkpt lat="44.1303883" lon="11.770035"><ele>506.0</ele><time>2026-04-18T11:37:22.995Z</time></trkpt><trkpt lat="44.13027" lon="11.7699683"><ele>506.0</ele><time>2026-04-18T11:37:23.994Z</time></trkpt><trkpt lat="44.13016" lon="11.7699"><ele>506.0</ele><time>2026-04-18T11:37:24.993Z</time></trkpt><trkpt lat="44.1300467" lon="11.7698183"><ele>506.0</ele><time>2026-04-18T11:37:25.992Z</time></trkpt><trkpt lat="44.12993" lon="11.769755"><ele>506.0</ele><time>2026-04-18T11:37:26.994Z</time></trkpt><trkpt lat="44.129815" lon="11.7696983"><ele>506.0</ele><time>2026-04-18T11:37:27.993Z</time></trkpt><trkpt lat="44.1297083" lon="11.7696433"><ele>506.0</ele><time>2026-04-18T11:37:28.993Z</time></trkpt><trkpt lat="44.1296083" lon="11.7695883"><ele>501.8</ele><time>2026-04-18T11:37:29.992Z</time></trkpt><trkpt lat="44.129515" lon="11.7695183"><ele>497.6</ele><time>2026-04-18T11:37:30.993Z</time></trkpt><trkpt lat="44.1294333" lon="11.7694217"><ele>493.4</ele><time>2026-04-18T11:37:31.992Z</time></trkpt><trkpt lat="44.1293583" lon="11.769315"><ele>489.2</ele><time>2026-04-18T11:37:32.993Z</time></trkpt><trkpt lat="44.129275" lon="11.7692067"><ele>485.0</ele><time>2026-04-18T11:37:33.993Z</time></trkpt><trkpt lat="44.1291783" lon="11.7691083"><ele>485.0</ele><time>2026-04-18T11:37:34.992Z</time></trkpt><trkpt lat="44.12908" lon="11.7690233"><ele>485.0</ele><time>2026-04-18T11:37:35.992Z</time></trkpt><trkpt lat="44.1289833" lon="11.7689433"><ele>485.0</ele><time>2026-04-18T11:37:36.992Z</time></trkpt><trkpt lat="44.1288883" lon="11.7688633"><ele>485.0</ele><time>2026-04-18T11:37:37.992Z</time></trkpt><trkpt lat="44.1288017" lon="11.76878"><ele>485.0</ele><time>2026-04-18T11:37:38.993Z</time></trkpt><trkpt lat="44.1287267" lon="11.7686867"><ele>485.6</ele><time>2026-04-18T11:37:39.993Z</time></trkpt><trkpt lat="44.128665" lon="11.7685817"><ele>486.2</ele><time>2026-04-18T11:37:40.993Z</time></trkpt><trkpt lat="44.128605" lon="11.76847"><ele>486.79999999999995</ele><time>2026-04-18T11:37:41.994Z</time></trkpt><trkpt lat="44.1285267" lon="11.7683717"><ele>487.4</ele><time>2026-04-18T11:37:42.992Z</time></trkpt><trkpt lat="44.1284367" lon="11.7682883"><ele>488.0</ele><time>2026-04-18T11:37:43.994Z</time></trkpt><trkpt lat="44.1283467" lon="11.7682133"><ele>488.0</ele><time>2026-04-18T11:37:44.993Z</time></trkpt><trkpt lat="44.128255" lon="11.76813"><ele>487.99999999999994</ele><time>2026-04-18T11:37:45.992Z</time></trkpt><trkpt lat="44.1281717" lon="11.7680333"><ele>487.99999999999994</ele><time>2026-04-18T11:37:46.992Z</time></trkpt><trkpt lat="44.1280883" lon="11.7679417"><ele>488.0</ele><time>2026-04-18T11:37:47.992Z</time></trkpt><trkpt lat="44.1279983" lon="11.7678583"><ele>488.0</ele><time>2026-04-18T11:37:48.992Z</time></trkpt><trkpt lat="44.1279033" lon="11.7677767"><ele>486.59999999999997</ele><time>2026-04-18T11:37:49.993Z</time></trkpt><trkpt lat="44.1278083" lon="11.7677017"><ele>485.19999999999993</ele><time>2026-04-18T11:37:50.993Z</time></trkpt><trkpt lat="44.127705" lon="11.7676517"><ele>483.8</ele><time>2026-04-18T11:37:51.993Z</time></trkpt><trkpt lat="44.127595" lon="11.7676233"><ele>482.4</ele><time>2026-04-18T11:37:52.992Z</time></trkpt><trkpt lat="44.127495" lon="11.7676183"><ele>481.0</ele><time>2026-04-18T11:37:53.993Z</time></trkpt><trkpt lat="44.127415" lon="11.7675933"><ele>481.00000000000006</ele><time>2026-04-18T11:37:54.993Z</time></trkpt><trkpt lat="44.127345" lon="11.7675483"><ele>481.0</ele><time>2026-04-18T11:37:55.993Z</time></trkpt><trkpt lat="44.127295" lon="11.767485"><ele>481.0</ele><time>2026-04-18T11:37:56.993Z</time></trkpt><trkpt lat="44.1272617" lon="11.767385"><ele>481.0</ele><time>2026-04-18T11:37:57.993Z</time></trkpt><trkpt lat="44.12724" lon="11.76726"><ele>481.00000000000006</ele><time>2026-04-18T11:37:58.992Z</time></trkpt><trkpt lat="44.12722" lon="11.7671217"><ele>481.0</ele><time>2026-04-18T11:37:59.993Z</time></trkpt><trkpt lat="44.12718" lon="11.7669883"><ele>481.0</ele><time>2026-04-18T11:38:00.993Z</time></trkpt><trkpt lat="44.1271267" lon="11.7668633"><ele>481.0</ele><time>2026-04-18T11:38:01.992Z</time></trkpt><trkpt lat="44.1270583" lon="11.7667467"><ele>481.0</ele><time>2026-04-18T11:38:02.993Z</time></trkpt><trkpt lat="44.1269967" lon="11.7666267"><ele>481.0</ele><time>2026-04-18T11:38:03.992Z</time></trkpt><trkpt lat="44.1269367" lon="11.7665117"><ele>481.0</ele><time>2026-04-18T11:38:04.998Z</time></trkpt><trkpt lat="44.126875" lon="11.7664067"><ele>484.6</ele><time>2026-04-18T11:38:05.993Z</time></trkpt><trkpt lat="44.1268183" lon="11.7663033"><ele>488.20000000000005</ele><time>2026-04-18T11:38:06.993Z</time></trkpt><trkpt lat="44.12676" lon="11.7662"><ele>491.79999999999995</ele><time>2026-04-18T11:38:07.993Z</time></trkpt><trkpt lat="44.12671" lon="11.766095"><ele>495.4</ele><time>2026-04-18T11:38:08.993Z</time></trkpt><trkpt lat="44.126675" lon="11.7659767"><ele>499.0</ele><time>2026-04-18T11:38:09.993Z</time></trkpt><trkpt lat="44.12665" lon="11.7658483"><ele>498.50000000000006</ele><time>2026-04-18T11:38:10.993Z</time></trkpt><trkpt lat="44.1266283" lon="11.7657167"><ele>498.0</ele><time>2026-04-18T11:38:11.993Z</time></trkpt><trkpt lat="44.1266033" lon="11.76559"><ele>497.5</ele><time>2026-04-18T11:38:12.994Z</time></trkpt><trkpt lat="44.126575" lon="11.765475"><ele>497.0</ele><time>2026-04-18T11:38:13.993Z</time></trkpt><trkpt lat="44.1265467" lon="11.7653633"><ele>496.50000000000006</ele><time>2026-04-18T11:38:14.994Z</time></trkpt><trkpt lat="44.1265117" lon="11.7652583"><ele>496.0</ele><time>2026-04-18T11:38:15.993Z</time></trkpt><trkpt lat="44.12647" lon="11.7651567"><ele>496.00000000000006</ele><time>2026-04-18T11:38:16.992Z</time></trkpt><trkpt lat="44.126435" lon="11.7650567"><ele>496.0</ele><time>2026-04-18T11:38:17.993Z</time></trkpt><trkpt lat="44.1263983" lon="11.7649533"><ele>496.0</ele><time>2026-04-18T11:38:18.995Z</time></trkpt><trkpt lat="44.12636" lon="11.76485"><ele>496.0</ele><time>2026-04-18T11:38:19.994Z</time></trkpt><trkpt lat="44.1263233" lon="11.764745"><ele>496.00000000000006</ele><time>2026-04-18T11:38:20.993Z</time></trkpt><trkpt lat="44.126285" lon="11.76464"><ele>496.0</ele><time>2026-04-18T11:38:21.993Z</time></trkpt><trkpt lat="44.126255" lon="11.76454"><ele>496.0</ele><time>2026-04-18T11:38:22.993Z</time></trkpt><trkpt lat="44.12623" lon="11.7644467"><ele>496.00000000000006</ele><time>2026-04-18T11:38:23.993Z</time></trkpt><trkpt lat="44.1262033" lon="11.7643433"><ele>496.0</ele><time>2026-04-18T11:38:24.994Z</time></trkpt><trkpt lat="44.1261833" lon="11.7642433"><ele>496.0</ele><time>2026-04-18T11:38:25.994Z</time></trkpt><trkpt lat="44.12617" lon="11.7641483"><ele>496.00000000000006</ele><time>2026-04-18T11:38:26.994Z</time></trkpt><trkpt lat="44.126165" lon="11.7640517"><ele>496.0</ele><time>2026-04-18T11:38:27.994Z</time></trkpt><trkpt lat="44.1261617" lon="11.7639483"><ele>496.0</ele><time>2026-04-18T11:38:28.992Z</time></trkpt><trkpt lat="44.12615" lon="11.7638467"><ele>498.83333333333337</ele><time>2026-04-18T11:38:29.994Z</time></trkpt><trkpt lat="44.1261233" lon="11.7637433"><ele>501.6666666666667</ele><time>2026-04-18T11:38:30.993Z</time></trkpt><trkpt lat="44.12608" lon="11.7636517"><ele>504.5</ele><time>2026-04-18T11:38:31.992Z</time></trkpt><trkpt lat="44.1260183" lon="11.7635783"><ele>507.33333333333337</ele><time>2026-04-18T11:38:32.993Z</time></trkpt><trkpt lat="44.12595" lon="11.763515"><ele>510.1666666666667</ele><time>2026-04-18T11:38:33.992Z</time></trkpt><trkpt lat="44.125885" lon="11.76346"><ele>513.0</ele><time>2026-04-18T11:38:34.993Z</time></trkpt><trkpt lat="44.1258183" lon="11.7634017"><ele>512.8</ele><time>2026-04-18T11:38:35.994Z</time></trkpt><trkpt lat="44.1257567" lon="11.763325"><ele>512.5999999999999</ele><time>2026-04-18T11:38:36.993Z</time></trkpt><trkpt lat="44.1256917" lon="11.7632383"><ele>512.4000000000001</ele><time>2026-04-18T11:38:37.993Z</time></trkpt><trkpt lat="44.1256283" lon="11.7631433"><ele>512.2</ele><time>2026-04-18T11:38:38.993Z</time></trkpt><trkpt lat="44.1255617" lon="11.763045"><ele>512.0</ele><time>2026-04-18T11:38:39.992Z</time></trkpt><trkpt lat="44.1254967" lon="11.7629417"><ele>512.0</ele><time>2026-04-18T11:38:40.993Z</time></trkpt><trkpt lat="44.1254317" lon="11.7628367"><ele>512.0</ele><time>2026-04-18T11:38:41.993Z</time></trkpt><trkpt lat="44.12537" lon="11.762735"><ele>512.0</ele><time>2026-04-18T11:38:42.992Z</time></trkpt><trkpt lat="44.1253083" lon="11.7626283"><ele>512.0</ele><time>2026-04-18T11:38:43.993Z</time></trkpt><trkpt lat="44.125245" lon="11.7625217"><ele>512.0</ele><time>2026-04-18T11:38:44.995Z</time></trkpt><trkpt lat="44.1251817" lon="11.7624233"><ele>517.4</ele><time>2026-04-18T11:38:45.992Z</time></trkpt><trkpt lat="44.1251033" lon="11.76234"><ele>522.8000000000001</ele><time>2026-04-18T11:38:46.992Z</time></trkpt><trkpt lat="44.12502" lon="11.7622583"><ele>528.2</ele><time>2026-04-18T11:38:47.994Z</time></trkpt><trkpt lat="44.1249317" lon="11.7621917"><ele>533.6</ele><time>2026-04-18T11:38:48.993Z</time></trkpt><trkpt lat="44.12484" lon="11.7621633"><ele>539.0</ele><time>2026-04-18T11:38:49.993Z</time></trkpt><trkpt lat="44.1247667" lon="11.7621817"><ele>539.3333333333333</ele><time>2026-04-18T11:38:50.993Z</time></trkpt><trkpt lat="44.124695" lon="11.762205"><ele>539.6666666666666</ele><time>2026-04-18T11:38:51.993Z</time></trkpt><trkpt lat="44.12462" lon="11.76223"><ele>540.0</ele><time>2026-04-18T11:38:52.994Z</time></trkpt><trkpt lat="44.1245383" lon="11.7622467"><ele>540.3333333333334</ele><time>2026-04-18T11:38:53.993Z</time></trkpt><trkpt lat="44.124455" lon="11.7622517"><ele>540.6666666666667</ele><time>2026-04-18T11:38:54.994Z</time></trkpt><trkpt lat="44.1243717" lon="11.7622533"><ele>541.0</ele><time>2026-04-18T11:38:55.993Z</time></trkpt><trkpt lat="44.1242817" lon="11.7622733"><ele>541.0</ele><time>2026-04-18T11:38:56.994Z</time></trkpt><trkpt lat="44.1241967" lon="11.76231"><ele>541.0</ele><time>2026-04-18T11:38:57.993Z</time></trkpt><trkpt lat="44.1241233" lon="11.7623517"><ele>541.0</ele><time>2026-04-18T11:38:58.992Z</time></trkpt><trkpt lat="44.1240433" lon="11.762405"><ele>541.0</ele><time>2026-04-18T11:38:59.993Z</time></trkpt><trkpt lat="44.1239633" lon="11.7624633"><ele>541.0</ele><time>2026-04-18T11:39:00.993Z</time></trkpt><trkpt lat="44.1238733" lon="11.76254"><ele>541.3333333333334</ele><time>2026-04-18T11:39:01.994Z</time></trkpt><trkpt lat="44.1237917" lon="11.762615"><ele>541.6666666666667</ele><time>2026-04-18T11:39:02.993Z</time></trkpt><trkpt lat="44.1237267" lon="11.7627"><ele>542.0</ele><time>2026-04-18T11:39:03.994Z</time></trkpt><trkpt lat="44.1236733" lon="11.762775"><ele>542.3333333333334</ele><time>2026-04-18T11:39:04.993Z</time></trkpt><trkpt lat="44.1236133" lon="11.7628233"><ele>542.6666666666666</ele><time>2026-04-18T11:39:05.993Z</time></trkpt><trkpt lat="44.1235467" lon="11.7628483"><ele>543.0</ele><time>2026-04-18T11:39:06.994Z</time></trkpt><trkpt lat="44.1234667" lon="11.762745"><ele>543.0</ele><time>2026-04-18T11:39:08.993Z</time></trkpt><trkpt lat="44.1234317" lon="11.762535"><ele>543.0</ele><time>2026-04-18T11:39:10.993Z</time></trkpt><trkpt lat="44.1234333" lon="11.7624083"><ele>543.0</ele><time>2026-04-18T11:39:11.992Z</time></trkpt><trkpt lat="44.1234383" lon="11.7622717"><ele>543.0</ele><time>2026-04-18T11:39:12.994Z</time></trkpt><trkpt lat="44.1234433" lon="11.7621267"><ele>543.0</ele><time>2026-04-18T11:39:13.992Z</time></trkpt><trkpt lat="44.1234467" lon="11.761985"><ele>544.8</ele><time>2026-04-18T11:39:14.994Z</time></trkpt><trkpt lat="44.1234367" lon="11.761845"><ele>546.5999999999999</ele><time>2026-04-18T11:39:15.993Z</time></trkpt><trkpt lat="44.1234117" lon="11.7617117"><ele>548.4000000000001</ele><time>2026-04-18T11:39:16.993Z</time></trkpt><trkpt lat="44.1233683" lon="11.7615833"><ele>550.2</ele><time>2026-04-18T11:39:17.993Z</time></trkpt><trkpt lat="44.1233133" lon="11.76147"><ele>552.0</ele><time>2026-04-18T11:39:18.994Z</time></trkpt><trkpt lat="44.12328" lon="11.761355"><ele>552.0</ele><time>2026-04-18T11:39:19.993Z</time></trkpt><trkpt lat="44.1232617" lon="11.7612367"><ele>552.0</ele><time>2026-04-18T11:39:20.995Z</time></trkpt><trkpt lat="44.1232517" lon="11.7611167"><ele>552.0</ele><time>2026-04-18T11:39:21.993Z</time></trkpt><trkpt lat="44.1232383" lon="11.7609983"><ele>552.0</ele><time>2026-04-18T11:39:22.993Z</time></trkpt><trkpt lat="44.1232233" lon="11.76089"><ele>552.0</ele><time>2026-04-18T11:39:23.993Z</time></trkpt><trkpt lat="44.1232017" lon="11.760805"><ele>552.0</ele><time>2026-04-18T11:39:24.993Z</time></trkpt><trkpt lat="44.123165" lon="11.7606433"><ele>552.5</ele><time>2026-04-18T11:39:26.994Z</time></trkpt><trkpt lat="44.1231467" lon="11.7605433"><ele>553.0</ele><time>2026-04-18T11:39:27.994Z</time></trkpt><trkpt lat="44.1231233" lon="11.76043"><ele>553.5</ele><time>2026-04-18T11:39:28.993Z</time></trkpt><trkpt lat="44.1231067" lon="11.76032"><ele>554.0</ele><time>2026-04-18T11:39:29.993Z</time></trkpt><trkpt lat="44.1230883" lon="11.7602217"><ele>554.5</ele><time>2026-04-18T11:39:30.993Z</time></trkpt><trkpt lat="44.12307" lon="11.7601133"><ele>555.0</ele><time>2026-04-18T11:39:31.993Z</time></trkpt><trkpt lat="44.1230367" lon="11.7600367"><ele>555.0</ele><time>2026-04-18T11:39:32.993Z</time></trkpt><trkpt lat="44.1229883" lon="11.759975"><ele>555.0</ele><time>2026-04-18T11:39:33.994Z</time></trkpt><trkpt lat="44.1228867" lon="11.759895"><ele>555.0</ele><time>2026-04-18T11:39:35.993Z</time></trkpt><trkpt lat="44.12277" lon="11.759815"><ele>555.0</ele><time>2026-04-18T11:39:37.993Z</time></trkpt><trkpt lat="44.1226883" lon="11.7597583"><ele>555.0</ele><time>2026-04-18T11:39:38.993Z</time></trkpt><trkpt lat="44.12262" lon="11.75967"><ele>555.0</ele><time>2026-04-18T11:39:39.992Z</time></trkpt><trkpt lat="44.12256" lon="11.7595567"><ele>555.0</ele><time>2026-04-18T11:39:40.992Z</time></trkpt><trkpt lat="44.1225033" lon="11.7594267"><ele>555.0</ele><time>2026-04-18T11:39:41.993Z</time></trkpt><trkpt lat="44.1224567" lon="11.7592933"><ele>555.0</ele><time>2026-04-18T11:39:42.992Z</time></trkpt><trkpt lat="44.1223933" lon="11.7591733"><ele>555.0</ele><time>2026-04-18T11:39:43.992Z</time></trkpt><trkpt lat="44.1223283" lon="11.7590867"><ele>554.4</ele><time>2026-04-18T11:39:44.993Z</time></trkpt><trkpt lat="44.12226" lon="11.7590033"><ele>553.8</ele><time>2026-04-18T11:39:45.993Z</time></trkpt><trkpt lat="44.122205" lon="11.758915"><ele>553.2</ele><time>2026-04-18T11:39:46.994Z</time></trkpt><trkpt lat="44.1221633" lon="11.7588117"><ele>552.6</ele><time>2026-04-18T11:39:47.992Z</time></trkpt><trkpt lat="44.1221483" lon="11.7587167"><ele>552.0</ele><time>2026-04-18T11:39:48.993Z</time></trkpt><trkpt lat="44.122195" lon="11.7585417"><ele>551.0</ele><time>2026-04-18T11:39:50.993Z</time></trkpt><trkpt lat="44.12222" lon="11.75844"><ele>550.0</ele><time>2026-04-18T11:39:51.994Z</time></trkpt><trkpt lat="44.1222483" lon="11.7583167"><ele>549.0</ele><time>2026-04-18T11:39:52.993Z</time></trkpt><trkpt lat="44.122265" lon="11.758185"><ele>548.0</ele><time>2026-04-18T11:39:53.993Z</time></trkpt><trkpt lat="44.1222733" lon="11.758045"><ele>547.0</ele><time>2026-04-18T11:39:54.994Z</time></trkpt><trkpt lat="44.1222817" lon="11.7579067"><ele>547.0</ele><time>2026-04-18T11:39:55.993Z</time></trkpt><trkpt lat="44.12229" lon="11.7577783"><ele>547.0</ele><time>2026-04-18T11:39:56.994Z</time></trkpt><trkpt lat="44.1222817" lon="11.7576717"><ele>547.0</ele><time>2026-04-18T11:39:57.994Z</time></trkpt><trkpt lat="44.122255" lon="11.75757"><ele>547.0</ele><time>2026-04-18T11:39:58.993Z</time></trkpt><trkpt lat="44.122215" lon="11.7574667"><ele>547.0</ele><time>2026-04-18T11:39:59.994Z</time></trkpt><trkpt lat="44.12217" lon="11.75736"><ele>547.0</ele><time>2026-04-18T11:40:00.994Z</time></trkpt><trkpt lat="44.1221217" lon="11.7572483"><ele>548.2</ele><time>2026-04-18T11:40:01.993Z</time></trkpt><trkpt lat="44.1220617" lon="11.7571383"><ele>549.4000000000001</ele><time>2026-04-18T11:40:02.993Z</time></trkpt><trkpt lat="44.1219917" lon="11.7570383"><ele>550.5999999999999</ele><time>2026-04-18T11:40:03.994Z</time></trkpt><trkpt lat="44.1219133" lon="11.7569567"><ele>551.8</ele><time>2026-04-18T11:40:04.993Z</time></trkpt><trkpt lat="44.12182" lon="11.7568883"><ele>553.0</ele><time>2026-04-18T11:40:05.993Z</time></trkpt><trkpt lat="44.1217183" lon="11.7568317"><ele>551.1666666666667</ele><time>2026-04-18T11:40:06.994Z</time></trkpt><trkpt lat="44.1216233" lon="11.75678"><ele>549.3333333333334</ele><time>2026-04-18T11:40:07.993Z</time></trkpt><trkpt lat="44.1215533" lon="11.7567217"><ele>547.5</ele><time>2026-04-18T11:40:08.993Z</time></trkpt><trkpt lat="44.1215067" lon="11.75658"><ele>545.6666666666666</ele><time>2026-04-18T11:40:10.992Z</time></trkpt><trkpt lat="44.1215033" lon="11.7564917"><ele>543.8333333333333</ele><time>2026-04-18T11:40:11.994Z</time></trkpt><trkpt lat="44.1215067" lon="11.7563933"><ele>542.0</ele><time>2026-04-18T11:40:12.992Z</time></trkpt><trkpt lat="44.121515" lon="11.7562817"><ele>542.0</ele><time>2026-04-18T11:40:13.994Z</time></trkpt><trkpt lat="44.1215233" lon="11.7561633"><ele>542.0</ele><time>2026-04-18T11:40:14.995Z</time></trkpt><trkpt lat="44.121525" lon="11.75603"><ele>542.0</ele><time>2026-04-18T11:40:15.995Z</time></trkpt><trkpt lat="44.1215083" lon="11.755905"><ele>542.0</ele><time>2026-04-18T11:40:16.995Z</time></trkpt><trkpt lat="44.1214733" lon="11.75581"><ele>542.0</ele><time>2026-04-18T11:40:17.994Z</time></trkpt><trkpt lat="44.1214333" lon="11.7557333"><ele>542.0</ele><time>2026-04-18T11:40:18.995Z</time></trkpt><trkpt lat="44.1213883" lon="11.7556567"><ele>544.6666666666666</ele><time>2026-04-18T11:40:19.994Z</time></trkpt><trkpt lat="44.1213267" lon="11.755595"><ele>547.3333333333333</ele><time>2026-04-18T11:40:20.995Z</time></trkpt><trkpt lat="44.12126" lon="11.75554"><ele>550.0</ele><time>2026-04-18T11:40:21.995Z</time></trkpt><trkpt lat="44.121185" lon="11.7554733"><ele>552.6666666666666</ele><time>2026-04-18T11:40:22.994Z</time></trkpt><trkpt lat="44.1211033" lon="11.75542"><ele>555.3333333333334</ele><time>2026-04-18T11:40:23.994Z</time></trkpt><trkpt lat="44.1210233" lon="11.755365"><ele>558.0</ele><time>2026-04-18T11:40:24.994Z</time></trkpt><trkpt lat="44.120965" lon="11.7553"><ele>557.9999999999999</ele><time>2026-04-18T11:40:25.994Z</time></trkpt><trkpt lat="44.120925" lon="11.7552267"><ele>558.0</ele><time>2026-04-18T11:40:26.994Z</time></trkpt><trkpt lat="44.1209083" lon="11.7551417"><ele>558.0</ele><time>2026-04-18T11:40:27.994Z</time></trkpt><trkpt lat="44.120915" lon="11.7550467"><ele>558.0</ele><time>2026-04-18T11:40:28.994Z</time></trkpt><trkpt lat="44.1209367" lon="11.754955"><ele>558.0</ele><time>2026-04-18T11:40:29.996Z</time></trkpt><trkpt lat="44.1209683" lon="11.7548617"><ele>557.9999999999999</ele><time>2026-04-18T11:40:30.993Z</time></trkpt><trkpt lat="44.1210033" lon="11.7547567"><ele>558.0</ele><time>2026-04-18T11:40:31.993Z</time></trkpt><trkpt lat="44.121035" lon="11.7546383"><ele>560.6666666666666</ele><time>2026-04-18T11:40:32.995Z</time></trkpt><trkpt lat="44.1210433" lon="11.7545167"><ele>563.3333333333334</ele><time>2026-04-18T11:40:33.993Z</time></trkpt><trkpt lat="44.12103" lon="11.7543867"><ele>566.0</ele><time>2026-04-18T11:40:34.993Z</time></trkpt><trkpt lat="44.121" lon="11.75427"><ele>568.6666666666667</ele><time>2026-04-18T11:40:35.992Z</time></trkpt><trkpt lat="44.1209617" lon="11.7541583"><ele>571.3333333333334</ele><time>2026-04-18T11:40:36.994Z</time></trkpt><trkpt lat="44.1209067" lon="11.7540633"><ele>574.0</ele><time>2026-04-18T11:40:37.993Z</time></trkpt><trkpt lat="44.1208417" lon="11.7539817"><ele>574.8333333333334</ele><time>2026-04-18T11:40:38.993Z</time></trkpt><trkpt lat="44.1207683" lon="11.7539067"><ele>575.6666666666667</ele><time>2026-04-18T11:40:39.993Z</time></trkpt><trkpt lat="44.1206933" lon="11.7538383"><ele>576.5</ele><time>2026-04-18T11:40:40.993Z</time></trkpt><trkpt lat="44.120625" lon="11.7537733"><ele>577.3333333333334</ele><time>2026-04-18T11:40:41.994Z</time></trkpt><trkpt lat="44.1205833" lon="11.7537"><ele>578.1666666666666</ele><time>2026-04-18T11:40:42.994Z</time></trkpt><trkpt lat="44.120555" lon="11.7536117"><ele>579.0</ele><time>2026-04-18T11:40:43.993Z</time></trkpt><trkpt lat="44.12054" lon="11.7535183"><ele>579.0</ele><time>2026-04-18T11:40:44.993Z</time></trkpt><trkpt lat="44.1205383" lon="11.7534117"><ele>579.0</ele><time>2026-04-18T11:40:45.993Z</time></trkpt><trkpt lat="44.120545" lon="11.7533"><ele>579.0</ele><time>2026-04-18T11:40:46.994Z</time></trkpt><trkpt lat="44.1205533" lon="11.753195"><ele>579.0</ele><time>2026-04-18T11:40:47.995Z</time></trkpt><trkpt lat="44.1205467" lon="11.7531033"><ele>579.0</ele><time>2026-04-18T11:40:48.994Z</time></trkpt><trkpt lat="44.1205" lon="11.7529817"><ele>579.0</ele><time>2026-04-18T11:40:50.995Z</time></trkpt><trkpt lat="44.1203933" lon="11.752915"><ele>579.0</ele><time>2026-04-18T11:40:52.994Z</time></trkpt><trkpt lat="44.1203217" lon="11.7528917"><ele>579.0</ele><time>2026-04-18T11:40:53.994Z</time></trkpt><trkpt lat="44.1202183" lon="11.7528767"><ele>579.0</ele><time>2026-04-18T11:40:54.995Z</time></trkpt><trkpt lat="44.1201233" lon="11.7528717"><ele>579.0</ele><time>2026-04-18T11:40:55.994Z</time></trkpt><trkpt lat="44.1200133" lon="11.75287"><ele>579.0</ele><time>2026-04-18T11:40:56.994Z</time></trkpt><trkpt lat="44.1199033" lon="11.752865"><ele>579.2</ele><time>2026-04-18T11:40:57.994Z</time></trkpt><trkpt lat="44.1197883" lon="11.75286"><ele>579.4</ele><time>2026-04-18T11:40:58.994Z</time></trkpt><trkpt lat="44.119675" lon="11.7528683"><ele>579.6</ele><time>2026-04-18T11:40:59.995Z</time></trkpt><trkpt lat="44.119565" lon="11.7528883"><ele>579.8</ele><time>2026-04-18T11:41:00.995Z</time></trkpt><trkpt lat="44.1194567" lon="11.7529083"><ele>580.0</ele><time>2026-04-18T11:41:01.994Z</time></trkpt><trkpt lat="44.1193583" lon="11.75291"><ele>580.0</ele><time>2026-04-18T11:41:02.994Z</time></trkpt><trkpt lat="44.1192783" lon="11.75288"><ele>580.0</ele><time>2026-04-18T11:41:03.995Z</time></trkpt><trkpt lat="44.1191983" lon="11.752825"><ele>580.0</ele><time>2026-04-18T11:41:04.994Z</time></trkpt><trkpt lat="44.1191183" lon="11.7527483"><ele>580.0</ele><time>2026-04-18T11:41:05.994Z</time></trkpt><trkpt lat="44.11904" lon="11.7526517"><ele>580.0</ele><time>2026-04-18T11:41:06.995Z</time></trkpt><trkpt lat="44.1189483" lon="11.7525667"><ele>583.0</ele><time>2026-04-18T11:41:07.995Z</time></trkpt><trkpt lat="44.1188517" lon="11.752525"><ele>586.0</ele><time>2026-04-18T11:41:08.996Z</time></trkpt><trkpt lat="44.1187467" lon="11.7524933"><ele>589.0</ele><time>2026-04-18T11:41:09.996Z</time></trkpt><trkpt lat="44.1186583" lon="11.752445"><ele>592.0</ele><time>2026-04-18T11:41:10.994Z</time></trkpt><trkpt lat="44.1185683" lon="11.752405"><ele>595.0</ele><time>2026-04-18T11:41:11.994Z</time></trkpt><trkpt lat="44.1184733" lon="11.752375"><ele>595.0</ele><time>2026-04-18T11:41:12.999Z</time></trkpt><trkpt lat="44.1183817" lon="11.7523533"><ele>595.0</ele><time>2026-04-18T11:41:13.994Z</time></trkpt><trkpt lat="44.1182983" lon="11.752355"><ele>595.0</ele><time>2026-04-18T11:41:14.993Z</time></trkpt><trkpt lat="44.118225" lon="11.7523783"><ele>595.0</ele><time>2026-04-18T11:41:15.994Z</time></trkpt><trkpt lat="44.1181517" lon="11.7524083"><ele>595.0</ele><time>2026-04-18T11:41:16.993Z</time></trkpt><trkpt lat="44.1180817" lon="11.7524117"><ele>595.0</ele><time>2026-04-18T11:41:17.994Z</time></trkpt><trkpt lat="44.117965" lon="11.7523717"><ele>594.8333333333334</ele><time>2026-04-18T11:41:19.993Z</time></trkpt><trkpt lat="44.1179017" lon="11.7522917"><ele>594.6666666666667</ele><time>2026-04-18T11:41:20.994Z</time></trkpt><trkpt lat="44.117835" lon="11.75221"><ele>594.5</ele><time>2026-04-18T11:41:21.993Z</time></trkpt><trkpt lat="44.1177583" lon="11.7521383"><ele>594.3333333333334</ele><time>2026-04-18T11:41:22.993Z</time></trkpt><trkpt lat="44.1176833" lon="11.752095"><ele>594.1666666666666</ele><time>2026-04-18T11:41:23.993Z</time></trkpt><trkpt lat="44.1176067" lon="11.7520683"><ele>594.0</ele><time>2026-04-18T11:41:24.993Z</time></trkpt><trkpt lat="44.1175283" lon="11.752065"><ele>594.0</ele><time>2026-04-18T11:41:25.994Z</time></trkpt><trkpt lat="44.1174383" lon="11.7520733"><ele>594.0</ele><time>2026-04-18T11:41:26.993Z</time></trkpt><trkpt lat="44.1173417" lon="11.7521017"><ele>594.0</ele><time>2026-04-18T11:41:27.993Z</time></trkpt><trkpt lat="44.1172383" lon="11.7521333"><ele>594.0</ele><time>2026-04-18T11:41:28.993Z</time></trkpt><trkpt lat="44.1171433" lon="11.7521467"><ele>594.0</ele><time>2026-04-18T11:41:29.994Z</time></trkpt><trkpt lat="44.11705" lon="11.7521367"><ele>595.0</ele><time>2026-04-18T11:41:30.995Z</time></trkpt><trkpt lat="44.1169517" lon="11.7521233"><ele>596.0</ele><time>2026-04-18T11:41:31.992Z</time></trkpt><trkpt lat="44.1168517" lon="11.75211"><ele>597.0</ele><time>2026-04-18T11:41:32.993Z</time></trkpt><trkpt lat="44.116775" lon="11.7520817"><ele>598.0</ele><time>2026-04-18T11:41:33.993Z</time></trkpt><trkpt lat="44.1167067" lon="11.7520267"><ele>599.0</ele><time>2026-04-18T11:41:34.993Z</time></trkpt><trkpt lat="44.1166417" lon="11.75196"><ele>600.0</ele><time>2026-04-18T11:41:35.993Z</time></trkpt><trkpt lat="44.1165833" lon="11.7518917"><ele>598.5</ele><time>2026-04-18T11:41:36.993Z</time></trkpt><trkpt lat="44.1165083" lon="11.7518267"><ele>597.0</ele><time>2026-04-18T11:41:37.992Z</time></trkpt><trkpt lat="44.1164333" lon="11.7517867"><ele>595.5</ele><time>2026-04-18T11:41:38.993Z</time></trkpt><trkpt lat="44.116365" lon="11.7517833"><ele>594.0</ele><time>2026-04-18T11:41:39.994Z</time></trkpt><trkpt lat="44.1162617" lon="11.7518417"><ele>592.5</ele><time>2026-04-18T11:41:41.993Z</time></trkpt><trkpt lat="44.1162067" lon="11.7518917"><ele>591.0</ele><time>2026-04-18T11:41:42.994Z</time></trkpt><trkpt lat="44.1161383" lon="11.7519233"><ele>591.0</ele><time>2026-04-18T11:41:43.993Z</time></trkpt><trkpt lat="44.1160333" lon="11.751915"><ele>591.0</ele><time>2026-04-18T11:41:45.995Z</time></trkpt><trkpt lat="44.1159733" lon="11.7518817"><ele>591.0</ele><time>2026-04-18T11:41:46.992Z</time></trkpt><trkpt lat="44.1159083" lon="11.751825"><ele>591.0</ele><time>2026-04-18T11:41:47.993Z</time></trkpt><trkpt lat="44.11583" lon="11.751755"><ele>591.0</ele><time>2026-04-18T11:41:48.994Z</time></trkpt><trkpt lat="44.1157767" lon="11.7516717"><ele>591.0</ele><time>2026-04-18T11:41:49.993Z</time></trkpt><trkpt lat="44.115735" lon="11.751565"><ele>591.3333333333334</ele><time>2026-04-18T11:41:50.995Z</time></trkpt><trkpt lat="44.1157" lon="11.75146"><ele>591.6666666666666</ele><time>2026-04-18T11:41:51.993Z</time></trkpt><trkpt lat="44.1156567" lon="11.751365"><ele>592.0</ele><time>2026-04-18T11:41:52.993Z</time></trkpt><trkpt lat="44.1155917" lon="11.7512867"><ele>592.3333333333333</ele><time>2026-04-18T11:41:53.993Z</time></trkpt><trkpt lat="44.1155183" lon="11.75122"><ele>592.6666666666666</ele><time>2026-04-18T11:41:54.994Z</time></trkpt><trkpt lat="44.1154367" lon="11.7511533"><ele>593.0</ele><time>2026-04-18T11:41:55.993Z</time></trkpt><trkpt lat="44.115345" lon="11.7510917"><ele>593.0</ele><time>2026-04-18T11:41:56.993Z</time></trkpt><trkpt lat="44.11525" lon="11.751045"><ele>593.0</ele><time>2026-04-18T11:41:57.994Z</time></trkpt><trkpt lat="44.1151517" lon="11.751"><ele>593.0</ele><time>2026-04-18T11:41:58.993Z</time></trkpt><trkpt lat="44.1150483" lon="11.7509433"><ele>593.0</ele><time>2026-04-18T11:41:59.993Z</time></trkpt><trkpt lat="44.11495" lon="11.7508817"><ele>593.0</ele><time>2026-04-18T11:42:00.993Z</time></trkpt><trkpt lat="44.1148533" lon="11.750805"><ele>596.6</ele><time>2026-04-18T11:42:01.993Z</time></trkpt><trkpt lat="44.114755" lon="11.7507267"><ele>600.1999999999999</ele><time>2026-04-18T11:42:02.993Z</time></trkpt><trkpt lat="44.1146567" lon="11.75066"><ele>603.8</ele><time>2026-04-18T11:42:03.993Z</time></trkpt><trkpt lat="44.1145633" lon="11.7505833"><ele>607.4</ele><time>2026-04-18T11:42:04.992Z</time></trkpt><trkpt lat="44.1144733" lon="11.7505067"><ele>611.0</ele><time>2026-04-18T11:42:05.994Z</time></trkpt><trkpt lat="44.114385" lon="11.7504317"><ele>611.0</ele><time>2026-04-18T11:42:06.993Z</time></trkpt><trkpt lat="44.114295" lon="11.7503567"><ele>611.0</ele><time>2026-04-18T11:42:07.994Z</time></trkpt><trkpt lat="44.1142083" lon="11.7503033"><ele>611.0</ele><time>2026-04-18T11:42:08.993Z</time></trkpt><trkpt lat="44.1141217" lon="11.7502767"><ele>611.0</ele><time>2026-04-18T11:42:09.994Z</time></trkpt><trkpt lat="44.1140267" lon="11.7502733"><ele>611.0</ele><time>2026-04-18T11:42:10.995Z</time></trkpt><trkpt lat="44.1139183" lon="11.750285"><ele>609.0</ele><time>2026-04-18T11:42:11.992Z</time></trkpt><trkpt lat="44.113805" lon="11.750295"><ele>607.0</ele><time>2026-04-18T11:42:12.992Z</time></trkpt><trkpt lat="44.1136917" lon="11.7503083"><ele>605.0</ele><time>2026-04-18T11:42:13.993Z</time></trkpt><trkpt lat="44.1135783" lon="11.7503317"><ele>603.0</ele><time>2026-04-18T11:42:14.992Z</time></trkpt><trkpt lat="44.1134667" lon="11.75036"><ele>603.0</ele><time>2026-04-18T11:42:15.993Z</time></trkpt><trkpt lat="44.1133517" lon="11.7503983"><ele>603.0</ele><time>2026-04-18T11:42:16.993Z</time></trkpt><trkpt lat="44.1132433" lon="11.7504267"><ele>603.0</ele><time>2026-04-18T11:42:17.993Z</time></trkpt><trkpt lat="44.1131433" lon="11.7504283"><ele>603.0</ele><time>2026-04-18T11:42:18.994Z</time></trkpt><trkpt lat="44.1130417" lon="11.7504217"><ele>603.0</ele><time>2026-04-18T11:42:19.994Z</time></trkpt><trkpt lat="44.1129483" lon="11.750425"><ele>605.6</ele><time>2026-04-18T11:42:20.994Z</time></trkpt><trkpt lat="44.112855" lon="11.75046"><ele>608.1999999999999</ele><time>2026-04-18T11:42:21.992Z</time></trkpt><trkpt lat="44.1127783" lon="11.7505283"><ele>610.8</ele><time>2026-04-18T11:42:22.993Z</time></trkpt><trkpt lat="44.1127067" lon="11.7506083"><ele>613.4</ele><time>2026-04-18T11:42:23.994Z</time></trkpt><trkpt lat="44.1126317" lon="11.7506933"><ele>616.0</ele><time>2026-04-18T11:42:24.993Z</time></trkpt><trkpt lat="44.11256" lon="11.7507833"><ele>616.0</ele><time>2026-04-18T11:42:25.993Z</time></trkpt><trkpt lat="44.112485" lon="11.7508567"><ele>616.0</ele><time>2026-04-18T11:42:26.994Z</time></trkpt><trkpt lat="44.1123967" lon="11.750895"><ele>616.0</ele><time>2026-04-18T11:42:27.992Z</time></trkpt><trkpt lat="44.1123" lon="11.75091"><ele>616.0</ele><time>2026-04-18T11:42:28.993Z</time></trkpt><trkpt lat="44.1122" lon="11.7509017"><ele>616.0</ele><time>2026-04-18T11:42:29.995Z</time></trkpt><trkpt lat="44.1120917" lon="11.750885"><ele>617.2</ele><time>2026-04-18T11:42:30.993Z</time></trkpt><trkpt lat="44.1119783" lon="11.7508817"><ele>618.4000000000001</ele><time>2026-04-18T11:42:31.992Z</time></trkpt><trkpt lat="44.1118817" lon="11.7508967"><ele>619.6</ele><time>2026-04-18T11:42:32.994Z</time></trkpt><trkpt lat="44.1117867" lon="11.7509167"><ele>620.8000000000001</ele><time>2026-04-18T11:42:33.993Z</time></trkpt><trkpt lat="44.1116967" lon="11.75094"><ele>622.0</ele><time>2026-04-18T11:42:34.993Z</time></trkpt><trkpt lat="44.1116067" lon="11.75097"><ele>622.3333333333334</ele><time>2026-04-18T11:42:35.992Z</time></trkpt><trkpt lat="44.1115183" lon="11.75101"><ele>622.6666666666667</ele><time>2026-04-18T11:42:36.995Z</time></trkpt><trkpt lat="44.1114317" lon="11.75105"><ele>623.0</ele><time>2026-04-18T11:42:37.993Z</time></trkpt><trkpt lat="44.1113483" lon="11.7510917"><ele>623.3333333333334</ele><time>2026-04-18T11:42:38.994Z</time></trkpt><trkpt lat="44.111275" lon="11.7511467"><ele>623.6666666666666</ele><time>2026-04-18T11:42:39.994Z</time></trkpt><trkpt lat="44.1112233" lon="11.7512317"><ele>624.0</ele><time>2026-04-18T11:42:40.993Z</time></trkpt><trkpt lat="44.11119" lon="11.7513267"><ele>619.6666666666666</ele><time>2026-04-18T11:42:41.994Z</time></trkpt><trkpt lat="44.111155" lon="11.751415"><ele>615.3333333333334</ele><time>2026-04-18T11:42:42.994Z</time></trkpt><trkpt lat="44.1111017" lon="11.75149"><ele>611.0</ele><time>2026-04-18T11:42:43.993Z</time></trkpt><trkpt lat="44.111045" lon="11.751535"><ele>606.6666666666667</ele><time>2026-04-18T11:42:44.993Z</time></trkpt><trkpt lat="44.1109433" lon="11.7515"><ele>602.3333333333334</ele><time>2026-04-18T11:42:46.993Z</time></trkpt><trkpt lat="44.11089" lon="11.7514033"><ele>598.0</ele><time>2026-04-18T11:42:48.994Z</time></trkpt><trkpt lat="44.11085" lon="11.7513283"><ele>598.0</ele><time>2026-04-18T11:42:49.993Z</time></trkpt><trkpt lat="44.1108083" lon="11.7512567"><ele>598.0</ele><time>2026-04-18T11:42:50.994Z</time></trkpt><trkpt lat="44.1107467" lon="11.75118"><ele>598.0</ele><time>2026-04-18T11:42:51.994Z</time></trkpt><trkpt lat="44.1106933" lon="11.7511217"><ele>598.0</ele><time>2026-04-18T11:42:52.993Z</time></trkpt><trkpt lat="44.1105383" lon="11.7509767"><ele>598.0</ele><time>2026-04-18T11:42:54.994Z</time></trkpt><trkpt lat="44.110445" lon="11.7508933"><ele>598.8</ele><time>2026-04-18T11:42:55.992Z</time></trkpt><trkpt lat="44.1103717" lon="11.75081"><ele>599.5999999999999</ele><time>2026-04-18T11:42:56.994Z</time></trkpt><trkpt lat="44.110295" lon="11.750725"><ele>600.4000000000001</ele><time>2026-04-18T11:42:57.994Z</time></trkpt><trkpt lat="44.110215" lon="11.7506533"><ele>601.2</ele><time>2026-04-18T11:42:58.992Z</time></trkpt><trkpt lat="44.1101233" lon="11.7505867"><ele>602.0</ele><time>2026-04-18T11:42:59.993Z</time></trkpt><trkpt lat="44.11002" lon="11.7505367"><ele>602.0</ele><time>2026-04-18T11:43:00.992Z</time></trkpt><trkpt lat="44.1099167" lon="11.75049"><ele>602.0</ele><time>2026-04-18T11:43:01.993Z</time></trkpt><trkpt lat="44.109815" lon="11.750445"><ele>602.0</ele><time>2026-04-18T11:43:02.993Z</time></trkpt><trkpt lat="44.1097017" lon="11.75041"><ele>602.0</ele><time>2026-04-18T11:43:03.992Z</time></trkpt><trkpt lat="44.10959" lon="11.7503683"><ele>602.0</ele><time>2026-04-18T11:43:04.993Z</time></trkpt><trkpt lat="44.1094817" lon="11.750335"><ele>602.5</ele><time>2026-04-18T11:43:05.993Z</time></trkpt><trkpt lat="44.1093683" lon="11.7502933"><ele>603.0</ele><time>2026-04-18T11:43:06.997Z</time></trkpt><trkpt lat="44.1092517" lon="11.7502433"><ele>603.5</ele><time>2026-04-18T11:43:07.993Z</time></trkpt><trkpt lat="44.10914" lon="11.7501883"><ele>604.0</ele><time>2026-04-18T11:43:08.993Z</time></trkpt><trkpt lat="44.1090333" lon="11.75013"><ele>601.5</ele><time>2026-04-18T11:43:09.993Z</time></trkpt><trkpt lat="44.1089267" lon="11.7500683"><ele>599.0</ele><time>2026-04-18T11:43:10.994Z</time></trkpt><trkpt lat="44.10882" lon="11.74999"><ele>596.5</ele><time>2026-04-18T11:43:11.992Z</time></trkpt><trkpt lat="44.1087183" lon="11.7499067"><ele>594.0</ele><time>2026-04-18T11:43:12.994Z</time></trkpt><trkpt lat="44.1086083" lon="11.74983"><ele>594.0</ele><time>2026-04-18T11:43:13.992Z</time></trkpt><trkpt lat="44.1084967" lon="11.7497517"><ele>594.0</ele><time>2026-04-18T11:43:14.994Z</time></trkpt><trkpt lat="44.10838" lon="11.749675"><ele>594.0</ele><time>2026-04-18T11:43:15.992Z</time></trkpt><trkpt lat="44.1082767" lon="11.749595"><ele>594.0</ele><time>2026-04-18T11:43:16.993Z</time></trkpt><trkpt lat="44.1081783" lon="11.7495133"><ele>594.5</ele><time>2026-04-18T11:43:17.993Z</time></trkpt><trkpt lat="44.1080817" lon="11.7494383"><ele>595.0</ele><time>2026-04-18T11:43:18.993Z</time></trkpt><trkpt lat="44.10798" lon="11.7493667"><ele>595.5</ele><time>2026-04-18T11:43:19.993Z</time></trkpt><trkpt lat="44.1078733" lon="11.7492917"><ele>596.0</ele><time>2026-04-18T11:43:20.995Z</time></trkpt><trkpt lat="44.10776" lon="11.7492117"><ele>596.0</ele><time>2026-04-18T11:43:21.992Z</time></trkpt><trkpt lat="44.10765" lon="11.7491267"><ele>596.0</ele><time>2026-04-18T11:43:22.992Z</time></trkpt><trkpt lat="44.1075433" lon="11.7490533"><ele>596.0</ele><time>2026-04-18T11:43:23.992Z</time></trkpt><trkpt lat="44.1074467" lon="11.748985"><ele>596.0</ele><time>2026-04-18T11:43:24.993Z</time></trkpt><trkpt lat="44.1073517" lon="11.7489033"><ele>595.6</ele><time>2026-04-18T11:43:25.993Z</time></trkpt><trkpt lat="44.1072483" lon="11.74883"><ele>595.2</ele><time>2026-04-18T11:43:26.993Z</time></trkpt><trkpt lat="44.1071533" lon="11.7487633"><ele>594.8</ele><time>2026-04-18T11:43:27.992Z</time></trkpt><trkpt lat="44.1070633" lon="11.7487"><ele>594.4</ele><time>2026-04-18T11:43:28.992Z</time></trkpt><trkpt lat="44.106975" lon="11.7486483"><ele>594.0</ele><time>2026-04-18T11:43:29.993Z</time></trkpt><trkpt lat="44.1068817" lon="11.748615"><ele>594.0</ele><time>2026-04-18T11:43:30.992Z</time></trkpt><trkpt lat="44.1067833" lon="11.7486017"><ele>594.0</ele><time>2026-04-18T11:43:31.993Z</time></trkpt><trkpt lat="44.10668" lon="11.74859"><ele>594.0</ele><time>2026-04-18T11:43:32.994Z</time></trkpt><trkpt lat="44.10658" lon="11.7485717"><ele>594.0</ele><time>2026-04-18T11:43:33.994Z</time></trkpt><trkpt lat="44.1064783" lon="11.7485517"><ele>594.0</ele><time>2026-04-18T11:43:34.993Z</time></trkpt><trkpt lat="44.1063783" lon="11.748535"><ele>594.0</ele><time>2026-04-18T11:43:35.993Z</time></trkpt><trkpt lat="44.1062867" lon="11.7485167"><ele>594.0</ele><time>2026-04-18T11:43:36.993Z</time></trkpt><trkpt lat="44.1062" lon="11.7485017"><ele>594.0</ele><time>2026-04-18T11:43:37.993Z</time></trkpt><trkpt lat="44.106115" lon="11.7485283"><ele>594.0</ele><time>2026-04-18T11:43:38.994Z</time></trkpt><trkpt lat="44.106045" lon="11.7485917"><ele>594.0</ele><time>2026-04-18T11:43:39.994Z</time></trkpt><trkpt lat="44.10598" lon="11.74867"><ele>594.0</ele><time>2026-04-18T11:43:40.993Z</time></trkpt><trkpt lat="44.10592" lon="11.7487467"><ele>594.0</ele><time>2026-04-18T11:43:41.993Z</time></trkpt><trkpt lat="44.105845" lon="11.7487917"><ele>594.0</ele><time>2026-04-18T11:43:42.996Z</time></trkpt><trkpt lat="44.105765" lon="11.7488233"><ele>594.0</ele><time>2026-04-18T11:43:43.994Z</time></trkpt><trkpt lat="44.1056817" lon="11.7488417"><ele>594.0</ele><time>2026-04-18T11:43:44.994Z</time></trkpt><trkpt lat="44.1056033" lon="11.7488283"><ele>594.0</ele><time>2026-04-18T11:43:45.993Z</time></trkpt><trkpt lat="44.1055367" lon="11.7487917"><ele>594.0</ele><time>2026-04-18T11:43:46.992Z</time></trkpt><trkpt lat="44.10548" lon="11.748745"><ele>594.5</ele><time>2026-04-18T11:43:47.994Z</time></trkpt><trkpt lat="44.1054183" lon="11.748675"><ele>595.0</ele><time>2026-04-18T11:43:48.995Z</time></trkpt><trkpt lat="44.1053567" lon="11.7485917"><ele>595.5</ele><time>2026-04-18T11:43:49.993Z</time></trkpt><trkpt lat="44.1053" lon="11.7485217"><ele>596.0</ele><time>2026-04-18T11:43:50.993Z</time></trkpt><trkpt lat="44.105235" lon="11.7484367"><ele>596.5</ele><time>2026-04-18T11:43:51.993Z</time></trkpt><trkpt lat="44.105165" lon="11.7483467"><ele>597.0</ele><time>2026-04-18T11:43:52.992Z</time></trkpt><trkpt lat="44.1050883" lon="11.7482567"><ele>597.0</ele><time>2026-04-18T11:43:53.994Z</time></trkpt><trkpt lat="44.104995" lon="11.7481717"><ele>597.0</ele><time>2026-04-18T11:43:54.993Z</time></trkpt><trkpt lat="44.1049083" lon="11.7480933"><ele>597.0</ele><time>2026-04-18T11:43:55.994Z</time></trkpt><trkpt lat="44.1048267" lon="11.7480567"><ele>597.0</ele><time>2026-04-18T11:43:56.993Z</time></trkpt><trkpt lat="44.104745" lon="11.7480483"><ele>597.0</ele><time>2026-04-18T11:43:57.993Z</time></trkpt><trkpt lat="44.1046667" lon="11.7480633"><ele>597.6666666666666</ele><time>2026-04-18T11:43:58.993Z</time></trkpt><trkpt lat="44.104585" lon="11.7480933"><ele>598.3333333333334</ele><time>2026-04-18T11:43:59.993Z</time></trkpt><trkpt lat="44.1045117" lon="11.74813"><ele>599.0</ele><time>2026-04-18T11:44:00.994Z</time></trkpt><trkpt lat="44.1044317" lon="11.7481383"><ele>599.6666666666667</ele><time>2026-04-18T11:44:01.994Z</time></trkpt><trkpt lat="44.1043467" lon="11.7481183"><ele>600.3333333333334</ele><time>2026-04-18T11:44:02.993Z</time></trkpt><trkpt lat="44.1042717" lon="11.7481033"><ele>601.0</ele><time>2026-04-18T11:44:03.993Z</time></trkpt><trkpt lat="44.104195" lon="11.7480783"><ele>601.0</ele><time>2026-04-18T11:44:04.994Z</time></trkpt><trkpt lat="44.1041067" lon="11.74803"><ele>601.0</ele><time>2026-04-18T11:44:05.993Z</time></trkpt><trkpt lat="44.104025" lon="11.7479767"><ele>601.0</ele><time>2026-04-18T11:44:06.993Z</time></trkpt><trkpt lat="44.1039433" lon="11.7478983"><ele>601.0</ele><time>2026-04-18T11:44:07.994Z</time></trkpt><trkpt lat="44.1038583" lon="11.747805"><ele>601.0</ele><time>2026-04-18T11:44:08.995Z</time></trkpt><trkpt lat="44.103785" lon="11.747695"><ele>600.4</ele><time>2026-04-18T11:44:09.995Z</time></trkpt><trkpt lat="44.103725" lon="11.7475717"><ele>599.8</ele><time>2026-04-18T11:44:10.993Z</time></trkpt><trkpt lat="44.1036733" lon="11.747435"><ele>599.1999999999999</ele><time>2026-04-18T11:44:11.993Z</time></trkpt><trkpt lat="44.10362" lon="11.7473117"><ele>598.6</ele><time>2026-04-18T11:44:12.993Z</time></trkpt><trkpt lat="44.1035633" lon="11.7471883"><ele>598.0</ele><time>2026-04-18T11:44:13.994Z</time></trkpt><trkpt lat="44.1035033" lon="11.74708"><ele>598.0</ele><time>2026-04-18T11:44:14.993Z</time></trkpt><trkpt lat="44.1034367" lon="11.7469717"><ele>598.0</ele><time>2026-04-18T11:44:15.992Z</time></trkpt><trkpt lat="44.1033733" lon="11.7468633"><ele>598.0</ele><time>2026-04-18T11:44:16.993Z</time></trkpt><trkpt lat="44.1033167" lon="11.7467433"><ele>598.0</ele><time>2026-04-18T11:44:17.994Z</time></trkpt><trkpt lat="44.10327" lon="11.7466233"><ele>598.0</ele><time>2026-04-18T11:44:18.993Z</time></trkpt><trkpt lat="44.1032517" lon="11.7464983"><ele>594.6666666666667</ele><time>2026-04-18T11:44:19.994Z</time></trkpt><trkpt lat="44.1032333" lon="11.746375"><ele>591.3333333333334</ele><time>2026-04-18T11:44:20.994Z</time></trkpt><trkpt lat="44.1032083" lon="11.7462633"><ele>588.0</ele><time>2026-04-18T11:44:21.994Z</time></trkpt><trkpt lat="44.103165" lon="11.7461583"><ele>584.6666666666666</ele><time>2026-04-18T11:44:22.993Z</time></trkpt><trkpt lat="44.1031183" lon="11.7460767"><ele>581.3333333333333</ele><time>2026-04-18T11:44:23.993Z</time></trkpt><trkpt lat="44.1030667" lon="11.7460167"><ele>578.0</ele><time>2026-04-18T11:44:24.993Z</time></trkpt><trkpt lat="44.10301" lon="11.7459783"><ele>578.0</ele><time>2026-04-18T11:44:25.994Z</time></trkpt><trkpt lat="44.102925" lon="11.7459267"><ele>578.0</ele><time>2026-04-18T11:44:27.993Z</time></trkpt><trkpt lat="44.1028467" lon="11.74587"><ele>578.0</ele><time>2026-04-18T11:44:29.993Z</time></trkpt><trkpt lat="44.1027683" lon="11.745775"><ele>578.0</ele><time>2026-04-18T11:44:31.994Z</time></trkpt><trkpt lat="44.1026917" lon="11.7456667"><ele>578.0</ele><time>2026-04-18T11:44:33.993Z</time></trkpt><trkpt lat="44.1026267" lon="11.74558"><ele>578.0</ele><time>2026-04-18T11:44:35.994Z</time></trkpt><trkpt lat="44.1025617" lon="11.745515"><ele>578.0</ele><time>2026-04-18T11:44:37.992Z</time></trkpt><trkpt lat="44.1025017" lon="11.7454667"><ele>578.0</ele><time>2026-04-18T11:44:39.994Z</time></trkpt><trkpt lat="44.1024233" lon="11.74541"><ele>578.0</ele><time>2026-04-18T11:44:41.994Z</time></trkpt><trkpt lat="44.1023533" lon="11.745325"><ele>578.0</ele><time>2026-04-18T11:44:43.993Z</time></trkpt><trkpt lat="44.1022867" lon="11.7452117"><ele>578.0</ele><time>2026-04-18T11:44:45.992Z</time></trkpt><trkpt lat="44.102215" lon="11.7450867"><ele>578.6666666666666</ele><time>2026-04-18T11:44:47.993Z</time></trkpt><trkpt lat="44.10217" lon="11.7450167"><ele>579.3333333333333</ele><time>2026-04-18T11:44:48.993Z</time></trkpt><trkpt lat="44.1021167" lon="11.7449367"><ele>580.0</ele><time>2026-04-18T11:44:49.992Z</time></trkpt><trkpt lat="44.1020683" lon="11.74484"><ele>580.6666666666666</ele><time>2026-04-18T11:44:50.993Z</time></trkpt><trkpt lat="44.10203" lon="11.74473"><ele>581.3333333333334</ele><time>2026-04-18T11:44:51.993Z</time></trkpt><trkpt lat="44.101995" lon="11.7446117"><ele>582.0</ele><time>2026-04-18T11:44:52.993Z</time></trkpt><trkpt lat="44.10198" lon="11.7444767"><ele>584.4</ele><time>2026-04-18T11:44:53.993Z</time></trkpt><trkpt lat="44.101985" lon="11.7443433"><ele>586.8000000000001</ele><time>2026-04-18T11:44:54.993Z</time></trkpt><trkpt lat="44.101995" lon="11.7441983"><ele>589.2</ele><time>2026-04-18T11:44:55.993Z</time></trkpt><trkpt lat="44.1019817" lon="11.7440567"><ele>591.6</ele><time>2026-04-18T11:44:56.993Z</time></trkpt><trkpt lat="44.101965" lon="11.7439233"><ele>594.0</ele><time>2026-04-18T11:44:57.994Z</time></trkpt><trkpt lat="44.1019583" lon="11.7438117"><ele>594.0</ele><time>2026-04-18T11:44:58.994Z</time></trkpt><trkpt lat="44.1019583" lon="11.7437067"><ele>594.0</ele><time>2026-04-18T11:44:59.994Z</time></trkpt><trkpt lat="44.1019567" lon="11.7435967"><ele>594.0</ele><time>2026-04-18T11:45:00.994Z</time></trkpt><trkpt lat="44.1019717" lon="11.743495"><ele>594.0</ele><time>2026-04-18T11:45:01.993Z</time></trkpt><trkpt lat="44.1019983" lon="11.7433933"><ele>594.0</ele><time>2026-04-18T11:45:02.993Z</time></trkpt><trkpt lat="44.1020417" lon="11.7432967"><ele>594.0</ele><time>2026-04-18T11:45:03.992Z</time></trkpt><trkpt lat="44.1020917" lon="11.7432067"><ele>593.5</ele><time>2026-04-18T11:45:04.992Z</time></trkpt><trkpt lat="44.1021383" lon="11.7431117"><ele>593.0</ele><time>2026-04-18T11:45:05.994Z</time></trkpt><trkpt lat="44.1021883" lon="11.7430133"><ele>592.5</ele><time>2026-04-18T11:45:06.994Z</time></trkpt><trkpt lat="44.1022317" lon="11.7429217"><ele>592.0</ele><time>2026-04-18T11:45:07.994Z</time></trkpt><trkpt lat="44.102255" lon="11.7428317"><ele>591.5</ele><time>2026-04-18T11:45:08.993Z</time></trkpt><trkpt lat="44.1022783" lon="11.7427317"><ele>591.0</ele><time>2026-04-18T11:45:09.994Z</time></trkpt><trkpt lat="44.1022833" lon="11.7426183"><ele>591.0</ele><time>2026-04-18T11:45:10.992Z</time></trkpt><trkpt lat="44.10228" lon="11.7425117"><ele>591.0</ele><time>2026-04-18T11:45:11.993Z</time></trkpt><trkpt lat="44.1022817" lon="11.74241"><ele>591.0</ele><time>2026-04-18T11:45:12.993Z</time></trkpt><trkpt lat="44.1022733" lon="11.74231"><ele>591.0</ele><time>2026-04-18T11:45:13.992Z</time></trkpt><trkpt lat="44.1022717" lon="11.7422033"><ele>591.0</ele><time>2026-04-18T11:45:14.992Z</time></trkpt><trkpt lat="44.1022667" lon="11.742095"><ele>591.0</ele><time>2026-04-18T11:45:15.992Z</time></trkpt><trkpt lat="44.1022617" lon="11.7419833"><ele>588.7142857142857</ele><time>2026-04-18T11:45:16.993Z</time></trkpt><trkpt lat="44.1022633" lon="11.741875"><ele>586.4285714285714</ele><time>2026-04-18T11:45:17.994Z</time></trkpt><trkpt lat="44.1022567" lon="11.7417767"><ele>584.1428571428571</ele><time>2026-04-18T11:45:18.992Z</time></trkpt><trkpt lat="44.102245" lon="11.74168"><ele>581.8571428571429</ele><time>2026-04-18T11:45:19.993Z</time></trkpt><trkpt lat="44.1022333" lon="11.741585"><ele>579.5714285714286</ele><time>2026-04-18T11:45:20.993Z</time></trkpt><trkpt lat="44.10223" lon="11.7414917"><ele>577.2857142857142</ele><time>2026-04-18T11:45:21.992Z</time></trkpt><trkpt lat="44.10222" lon="11.7413933"><ele>575.0</ele><time>2026-04-18T11:45:22.992Z</time></trkpt><trkpt lat="44.10221" lon="11.741295"><ele>575.0</ele><time>2026-04-18T11:45:23.993Z</time></trkpt><trkpt lat="44.1021933" lon="11.7411267"><ele>575.0</ele><time>2026-04-18T11:45:25.993Z</time></trkpt><trkpt lat="44.1021867" lon="11.7410367"><ele>575.0</ele><time>2026-04-18T11:45:26.993Z</time></trkpt><trkpt lat="44.1021717" lon="11.740945"><ele>575.0</ele><time>2026-04-18T11:45:27.992Z</time></trkpt><trkpt lat="44.1021517" lon="11.7408517"><ele>575.0</ele><time>2026-04-18T11:45:28.992Z</time></trkpt><trkpt lat="44.1021267" lon="11.740755"><ele>575.0</ele><time>2026-04-18T11:45:29.993Z</time></trkpt><trkpt lat="44.102105" lon="11.7406483"><ele>573.1666666666666</ele><time>2026-04-18T11:45:30.993Z</time></trkpt><trkpt lat="44.1020917" lon="11.7405367"><ele>571.3333333333333</ele><time>2026-04-18T11:45:31.993Z</time></trkpt><trkpt lat="44.1020867" lon="11.7404233"><ele>569.5</ele><time>2026-04-18T11:45:32.993Z</time></trkpt><trkpt lat="44.102085" lon="11.7403117"><ele>567.6666666666666</ele><time>2026-04-18T11:45:33.993Z</time></trkpt><trkpt lat="44.1020817" lon="11.7401967"><ele>565.8333333333334</ele><time>2026-04-18T11:45:34.992Z</time></trkpt><trkpt lat="44.102075" lon="11.740075"><ele>564.0</ele><time>2026-04-18T11:45:35.993Z</time></trkpt><trkpt lat="44.10207" lon="11.7399417"><ele>562.6666666666666</ele><time>2026-04-18T11:45:36.993Z</time></trkpt><trkpt lat="44.10207" lon="11.7398167"><ele>561.3333333333334</ele><time>2026-04-18T11:45:37.994Z</time></trkpt><trkpt lat="44.1020717" lon="11.739695"><ele>560.0</ele><time>2026-04-18T11:45:38.993Z</time></trkpt><trkpt lat="44.1020767" lon="11.739575"><ele>558.6666666666667</ele><time>2026-04-18T11:45:39.993Z</time></trkpt><trkpt lat="44.1020867" lon="11.739465"><ele>557.3333333333334</ele><time>2026-04-18T11:45:40.994Z</time></trkpt><trkpt lat="44.102105" lon="11.7393617"><ele>556.0</ele><time>2026-04-18T11:45:41.992Z</time></trkpt><trkpt lat="44.1021283" lon="11.739265"><ele>556.0</ele><time>2026-04-18T11:45:42.993Z</time></trkpt><trkpt lat="44.1021567" lon="11.739165"><ele>556.0</ele><time>2026-04-18T11:45:43.993Z</time></trkpt><trkpt lat="44.102195" lon="11.7390583"><ele>556.0</ele><time>2026-04-18T11:45:44.993Z</time></trkpt><trkpt lat="44.1022467" lon="11.7389567"><ele>556.0</ele><time>2026-04-18T11:45:45.993Z</time></trkpt><trkpt lat="44.102305" lon="11.738875"><ele>556.0</ele><time>2026-04-18T11:45:46.992Z</time></trkpt><trkpt lat="44.1023683" lon="11.7388"><ele>556.0</ele><time>2026-04-18T11:45:47.994Z</time></trkpt><trkpt lat="44.102425" lon="11.7387217"><ele>552.4</ele><time>2026-04-18T11:45:48.992Z</time></trkpt><trkpt lat="44.1024783" lon="11.7386333"><ele>548.8</ele><time>2026-04-18T11:45:49.994Z</time></trkpt><trkpt lat="44.102525" lon="11.7385367"><ele>545.1999999999999</ele><time>2026-04-18T11:45:50.993Z</time></trkpt><trkpt lat="44.1025667" lon="11.7384167"><ele>541.6</ele><time>2026-04-18T11:45:51.995Z</time></trkpt><trkpt lat="44.1026083" lon="11.73829"><ele>538.0</ele><time>2026-04-18T11:45:52.992Z</time></trkpt><trkpt lat="44.1026483" lon="11.7381667"><ele>538.0</ele><time>2026-04-18T11:45:53.993Z</time></trkpt><trkpt lat="44.1026867" lon="11.7380483"><ele>538.0</ele><time>2026-04-18T11:45:54.993Z</time></trkpt><trkpt lat="44.1027233" lon="11.737935"><ele>538.0</ele><time>2026-04-18T11:45:55.993Z</time></trkpt><trkpt lat="44.10275" lon="11.7378183"><ele>538.0</ele><time>2026-04-18T11:45:56.993Z</time></trkpt><trkpt lat="44.1027883" lon="11.7376917"><ele>538.0</ele><time>2026-04-18T11:45:57.993Z</time></trkpt><trkpt lat="44.1028317" lon="11.737565"><ele>540.0</ele><time>2026-04-18T11:45:58.993Z</time></trkpt><trkpt lat="44.10288" lon="11.7374433"><ele>542.0</ele><time>2026-04-18T11:45:59.993Z</time></trkpt><trkpt lat="44.1029167" lon="11.7373233"><ele>544.0</ele><time>2026-04-18T11:46:00.993Z</time></trkpt><trkpt lat="44.1029483" lon="11.7372017"><ele>546.0</ele><time>2026-04-18T11:46:01.994Z</time></trkpt><trkpt lat="44.1029867" lon="11.737085"><ele>548.0</ele><time>2026-04-18T11:46:02.993Z</time></trkpt><trkpt lat="44.1030217" lon="11.7369667"><ele>548.0</ele><time>2026-04-18T11:46:03.993Z</time></trkpt><trkpt lat="44.1030533" lon="11.73685"><ele>548.0</ele><time>2026-04-18T11:46:04.994Z</time></trkpt><trkpt lat="44.1030983" lon="11.73673"><ele>548.0</ele><time>2026-04-18T11:46:05.992Z</time></trkpt><trkpt lat="44.103145" lon="11.7366033"><ele>548.0</ele><time>2026-04-18T11:46:06.993Z</time></trkpt><trkpt lat="44.10318" lon="11.7365"><ele>548.0</ele><time>2026-04-18T11:46:07.993Z</time></trkpt><trkpt lat="44.1032033" lon="11.73641"><ele>548.0</ele><time>2026-04-18T11:46:08.993Z</time></trkpt><trkpt lat="44.1032167" lon="11.7363133"><ele>548.0000000000001</ele><time>2026-04-18T11:46:09.993Z</time></trkpt><trkpt lat="44.10322" lon="11.7362083"><ele>548.0</ele><time>2026-04-18T11:46:10.994Z</time></trkpt><trkpt lat="44.103225" lon="11.7361017"><ele>548.0</ele><time>2026-04-18T11:46:11.993Z</time></trkpt><trkpt lat="44.1032317" lon="11.736"><ele>548.0</ele><time>2026-04-18T11:46:12.993Z</time></trkpt><trkpt lat="44.1032467" lon="11.735905"><ele>548.0</ele><time>2026-04-18T11:46:13.993Z</time></trkpt><trkpt lat="44.103275" lon="11.73582"><ele>548.0000000000001</ele><time>2026-04-18T11:46:14.993Z</time></trkpt><trkpt lat="44.1033217" lon="11.7357417"><ele>548.0</ele><time>2026-04-18T11:46:15.993Z</time></trkpt><trkpt lat="44.1033733" lon="11.735675"><ele>543.1428571428572</ele><time>2026-04-18T11:46:16.993Z</time></trkpt><trkpt lat="44.1034283" lon="11.7356217"><ele>538.2857142857143</ele><time>2026-04-18T11:46:17.993Z</time></trkpt><trkpt lat="44.103485" lon="11.7355833"><ele>533.4285714285714</ele><time>2026-04-18T11:46:18.992Z</time></trkpt><trkpt lat="44.103545" lon="11.7355483"><ele>528.5714285714287</ele><time>2026-04-18T11:46:19.992Z</time></trkpt><trkpt lat="44.103605" lon="11.735515"><ele>523.7142857142858</ele><time>2026-04-18T11:46:20.994Z</time></trkpt><trkpt lat="44.103715" lon="11.7354467"><ele>518.8571428571429</ele><time>2026-04-18T11:46:22.992Z</time></trkpt><trkpt lat="44.103775" lon="11.735405"><ele>514.0</ele><time>2026-04-18T11:46:23.992Z</time></trkpt><trkpt lat="44.1038367" lon="11.735365"><ele>514.0</ele><time>2026-04-18T11:46:24.992Z</time></trkpt><trkpt lat="44.1039017" lon="11.7353283"><ele>514.0</ele><time>2026-04-18T11:46:25.992Z</time></trkpt><trkpt lat="44.1039667" lon="11.735295"><ele>514.0</ele><time>2026-04-18T11:46:26.994Z</time></trkpt><trkpt lat="44.10403" lon="11.7352583"><ele>514.0</ele><time>2026-04-18T11:46:27.992Z</time></trkpt><trkpt lat="44.10409" lon="11.7352167"><ele>514.0</ele><time>2026-04-18T11:46:28.992Z</time></trkpt><trkpt lat="44.10415" lon="11.7351517"><ele>514.0</ele><time>2026-04-18T11:46:29.992Z</time></trkpt><trkpt lat="44.10419" lon="11.7350767"><ele>514.0</ele><time>2026-04-18T11:46:30.992Z</time></trkpt><trkpt lat="44.1042083" lon="11.7349917"><ele>513.0</ele><time>2026-04-18T11:46:31.993Z</time></trkpt><trkpt lat="44.104215" lon="11.7348367"><ele>512.0</ele><time>2026-04-18T11:46:33.993Z</time></trkpt><trkpt lat="44.1042083" lon="11.73474"><ele>511.0</ele><time>2026-04-18T11:46:34.992Z</time></trkpt><trkpt lat="44.1041917" lon="11.7346317"><ele>510.0</ele><time>2026-04-18T11:46:35.993Z</time></trkpt><trkpt lat="44.1041767" lon="11.73453"><ele>509.00000000000006</ele><time>2026-04-18T11:46:36.993Z</time></trkpt><trkpt lat="44.10416" lon="11.7344317"><ele>508.0</ele><time>2026-04-18T11:46:37.993Z</time></trkpt><trkpt lat="44.104145" lon="11.7343417"><ele>508.14285714285717</ele><time>2026-04-18T11:46:38.995Z</time></trkpt><trkpt lat="44.1041317" lon="11.7342517"><ele>508.2857142857142</ele><time>2026-04-18T11:46:39.995Z</time></trkpt><trkpt lat="44.1041133" lon="11.7341533"><ele>508.4285714285714</ele><time>2026-04-18T11:46:40.993Z</time></trkpt><trkpt lat="44.10408" lon="11.734065"><ele>508.57142857142856</ele><time>2026-04-18T11:46:41.992Z</time></trkpt><trkpt lat="44.1040383" lon="11.7339917"><ele>508.71428571428567</ele><time>2026-04-18T11:46:42.994Z</time></trkpt><trkpt lat="44.10398" lon="11.7339217"><ele>508.8571428571428</ele><time>2026-04-18T11:46:43.992Z</time></trkpt><trkpt lat="44.103915" lon="11.7338567"><ele>508.99999999999994</ele><time>2026-04-18T11:46:44.992Z</time></trkpt><trkpt lat="44.1038467" lon="11.7338017"><ele>508.99999999999994</ele><time>2026-04-18T11:46:45.993Z</time></trkpt><trkpt lat="44.1037717" lon="11.7337717"><ele>509.0</ele><time>2026-04-18T11:46:46.992Z</time></trkpt><trkpt lat="44.1036917" lon="11.7337467"><ele>509.0</ele><time>2026-04-18T11:46:47.993Z</time></trkpt><trkpt lat="44.10361" lon="11.7337133"><ele>509.0</ele><time>2026-04-18T11:46:48.993Z</time></trkpt><trkpt lat="44.1035233" lon="11.73368"><ele>508.99999999999994</ele><time>2026-04-18T11:46:49.992Z</time></trkpt><trkpt lat="44.103435" lon="11.733645"><ele>509.0</ele><time>2026-04-18T11:46:50.994Z</time></trkpt><trkpt lat="44.103345" lon="11.7336117"><ele>508.99999999999994</ele><time>2026-04-18T11:46:51.992Z</time></trkpt><trkpt lat="44.1032517" lon="11.733575"><ele>509.0</ele><time>2026-04-18T11:46:52.993Z</time></trkpt><trkpt lat="44.1031667" lon="11.73354"><ele>509.0</ele><time>2026-04-18T11:46:53.993Z</time></trkpt><trkpt lat="44.1030917" lon="11.7335"><ele>509.0</ele><time>2026-04-18T11:46:54.994Z</time></trkpt><trkpt lat="44.103025" lon="11.7334483"><ele>508.99999999999994</ele><time>2026-04-18T11:46:55.993Z</time></trkpt><trkpt lat="44.1029617" lon="11.7333817"><ele>509.0</ele><time>2026-04-18T11:46:56.993Z</time></trkpt><trkpt lat="44.1028983" lon="11.7332933"><ele>507.8333333333333</ele><time>2026-04-18T11:46:57.994Z</time></trkpt><trkpt lat="44.1028267" lon="11.7331983"><ele>506.66666666666663</ele><time>2026-04-18T11:46:58.992Z</time></trkpt><trkpt lat="44.1027667" lon="11.7331017"><ele>505.5</ele><time>2026-04-18T11:46:59.993Z</time></trkpt><trkpt lat="44.1027167" lon="11.733"><ele>504.33333333333337</ele><time>2026-04-18T11:47:00.992Z</time></trkpt><trkpt lat="44.102675" lon="11.7329017"><ele>503.1666666666667</ele><time>2026-04-18T11:47:01.993Z</time></trkpt><trkpt lat="44.102645" lon="11.7327967"><ele>502.0</ele><time>2026-04-18T11:47:02.993Z</time></trkpt><trkpt lat="44.1026167" lon="11.732685"><ele>500.00000000000006</ele><time>2026-04-18T11:47:03.992Z</time></trkpt><trkpt lat="44.1025983" lon="11.7325767"><ele>498.0</ele><time>2026-04-18T11:47:04.993Z</time></trkpt><trkpt lat="44.1025833" lon="11.7324733"><ele>496.0</ele><time>2026-04-18T11:47:05.993Z</time></trkpt><trkpt lat="44.102575" lon="11.7323633"><ele>494.0</ele><time>2026-04-18T11:47:06.994Z</time></trkpt><trkpt lat="44.1025617" lon="11.73226"><ele>492.00000000000006</ele><time>2026-04-18T11:47:07.994Z</time></trkpt><trkpt lat="44.1025333" lon="11.7321667"><ele>490.0</ele><time>2026-04-18T11:47:08.994Z</time></trkpt><trkpt lat="44.1024867" lon="11.732085"><ele>490.00000000000006</ele><time>2026-04-18T11:47:09.993Z</time></trkpt><trkpt lat="44.10243" lon="11.7319983"><ele>490.0</ele><time>2026-04-18T11:47:10.992Z</time></trkpt><trkpt lat="44.1023683" lon="11.7319167"><ele>490.0</ele><time>2026-04-18T11:47:11.993Z</time></trkpt><trkpt lat="44.1023" lon="11.7318483"><ele>490.0</ele><time>2026-04-18T11:47:12.994Z</time></trkpt><trkpt lat="44.1022333" lon="11.7317933"><ele>490.00000000000006</ele><time>2026-04-18T11:47:13.993Z</time></trkpt><trkpt lat="44.1021667" lon="11.731745"><ele>490.0</ele><time>2026-04-18T11:47:14.994Z</time></trkpt><trkpt lat="44.1020967" lon="11.7317067"><ele>487.33333333333337</ele><time>2026-04-18T11:47:15.994Z</time></trkpt><trkpt lat="44.1020183" lon="11.7316617"><ele>484.6666666666667</ele><time>2026-04-18T11:47:16.994Z</time></trkpt><trkpt lat="44.1019383" lon="11.7316167"><ele>482.0</ele><time>2026-04-18T11:47:17.994Z</time></trkpt><trkpt lat="44.1018617" lon="11.7315783"><ele>479.33333333333337</ele><time>2026-04-18T11:47:18.992Z</time></trkpt><trkpt lat="44.1017867" lon="11.73155"><ele>476.6666666666667</ele><time>2026-04-18T11:47:19.993Z</time></trkpt><trkpt lat="44.1017067" lon="11.73152"><ele>474.0</ele><time>2026-04-18T11:47:20.993Z</time></trkpt><trkpt lat="44.1016217" lon="11.73148"><ele>472.5</ele><time>2026-04-18T11:47:21.994Z</time></trkpt><trkpt lat="44.1015417" lon="11.7314417"><ele>471.0</ele><time>2026-04-18T11:47:22.993Z</time></trkpt><trkpt lat="44.1014583" lon="11.7314017"><ele>469.5</ele><time>2026-04-18T11:47:23.994Z</time></trkpt><trkpt lat="44.101375" lon="11.73136"><ele>468.0</ele><time>2026-04-18T11:47:24.997Z</time></trkpt><trkpt lat="44.1012983" lon="11.7313217"><ele>466.5</ele><time>2026-04-18T11:47:25.993Z</time></trkpt><trkpt lat="44.1012267" lon="11.73128"><ele>465.0</ele><time>2026-04-18T11:47:26.993Z</time></trkpt><trkpt lat="44.101155" lon="11.7312467"><ele>465.0</ele><time>2026-04-18T11:47:27.993Z</time></trkpt><trkpt lat="44.1010783" lon="11.731215"><ele>465.0</ele><time>2026-04-18T11:47:28.994Z</time></trkpt><trkpt lat="44.10101" lon="11.7311817"><ele>465.0</ele><time>2026-04-18T11:47:29.995Z</time></trkpt><trkpt lat="44.10095" lon="11.73114"><ele>465.0</ele><time>2026-04-18T11:47:30.993Z</time></trkpt><trkpt lat="44.100855" lon="11.7310267"><ele>465.0</ele><time>2026-04-18T11:47:32.994Z</time></trkpt><trkpt lat="44.1008383" lon="11.7308683"><ele>463.2</ele><time>2026-04-18T11:47:34.992Z</time></trkpt><trkpt lat="44.1008617" lon="11.73078"><ele>461.4</ele><time>2026-04-18T11:47:35.993Z</time></trkpt><trkpt lat="44.1009567" lon="11.730665"><ele>459.6</ele><time>2026-04-18T11:47:37.992Z</time></trkpt><trkpt lat="44.1010367" lon="11.7306183"><ele>457.8</ele><time>2026-04-18T11:47:38.993Z</time></trkpt><trkpt lat="44.1011233" lon="11.730575"><ele>456.0</ele><time>2026-04-18T11:47:39.993Z</time></trkpt><trkpt lat="44.1012017" lon="11.73054"><ele>456.0</ele><time>2026-04-18T11:47:40.993Z</time></trkpt><trkpt lat="44.101275" lon="11.7305133"><ele>456.0</ele><time>2026-04-18T11:47:41.992Z</time></trkpt><trkpt lat="44.1013483" lon="11.73051"><ele>456.0</ele><time>2026-04-18T11:47:42.993Z</time></trkpt><trkpt lat="44.1014283" lon="11.730535"><ele>456.0</ele><time>2026-04-18T11:47:43.993Z</time></trkpt><trkpt lat="44.1015217" lon="11.7305817"><ele>456.0</ele><time>2026-04-18T11:47:44.993Z</time></trkpt><trkpt lat="44.1016267" lon="11.7306217"><ele>456.0</ele><time>2026-04-18T11:47:45.993Z</time></trkpt><trkpt lat="44.10174" lon="11.7306483"><ele>455.8</ele><time>2026-04-18T11:47:46.994Z</time></trkpt><trkpt lat="44.1018533" lon="11.7306667"><ele>455.6</ele><time>2026-04-18T11:47:47.992Z</time></trkpt><trkpt lat="44.101965" lon="11.7306917"><ele>455.4</ele><time>2026-04-18T11:47:48.994Z</time></trkpt><trkpt lat="44.102065" lon="11.7307267"><ele>455.2</ele><time>2026-04-18T11:47:49.993Z</time></trkpt><trkpt lat="44.10216" lon="11.7307817"><ele>455.0</ele><time>2026-04-18T11:47:50.993Z</time></trkpt><trkpt lat="44.10226" lon="11.7308333"><ele>455.0</ele><time>2026-04-18T11:47:51.992Z</time></trkpt><trkpt lat="44.10236" lon="11.7308567"><ele>455.0</ele><time>2026-04-18T11:47:52.992Z</time></trkpt><trkpt lat="44.1024583" lon="11.7308617"><ele>455.0</ele><time>2026-04-18T11:47:53.993Z</time></trkpt><trkpt lat="44.1025583" lon="11.7308433"><ele>455.0</ele><time>2026-04-18T11:47:54.993Z</time></trkpt><trkpt lat="44.1026567" lon="11.7308167"><ele>455.0</ele><time>2026-04-18T11:47:55.994Z</time></trkpt><trkpt lat="44.10276" lon="11.730795"><ele>452.8</ele><time>2026-04-18T11:47:56.993Z</time></trkpt><trkpt lat="44.1028583" lon="11.73079"><ele>450.6</ele><time>2026-04-18T11:47:57.993Z</time></trkpt><trkpt lat="44.102955" lon="11.7308117"><ele>448.4</ele><time>2026-04-18T11:47:58.992Z</time></trkpt><trkpt lat="44.1030517" lon="11.7308433"><ele>446.2</ele><time>2026-04-18T11:47:59.993Z</time></trkpt><trkpt lat="44.103145" lon="11.7308633"><ele>444.0</ele><time>2026-04-18T11:48:00.993Z</time></trkpt><trkpt lat="44.10324" lon="11.7308617"><ele>442.0</ele><time>2026-04-18T11:48:01.993Z</time></trkpt><trkpt lat="44.1033283" lon="11.7308383"><ele>440.0</ele><time>2026-04-18T11:48:02.994Z</time></trkpt><trkpt lat="44.1034117" lon="11.7307883"><ele>438.0</ele><time>2026-04-18T11:48:03.992Z</time></trkpt><trkpt lat="44.10349" lon="11.730735"><ele>436.0</ele><time>2026-04-18T11:48:04.993Z</time></trkpt><trkpt lat="44.103575" lon="11.730695"><ele>434.0</ele><time>2026-04-18T11:48:05.993Z</time></trkpt><trkpt lat="44.10366" lon="11.7306533"><ele>432.0</ele><time>2026-04-18T11:48:06.994Z</time></trkpt><trkpt lat="44.1037467" lon="11.730635"><ele>432.0</ele><time>2026-04-18T11:48:07.993Z</time></trkpt><trkpt lat="44.1038283" lon="11.7306317"><ele>432.0</ele><time>2026-04-18T11:48:08.993Z</time></trkpt><trkpt lat="44.1038983" lon="11.73063"><ele>432.0</ele><time>2026-04-18T11:48:09.993Z</time></trkpt><trkpt lat="44.1039617" lon="11.7306283"><ele>432.0</ele><time>2026-04-18T11:48:10.992Z</time></trkpt><trkpt lat="44.1040267" lon="11.7306083"><ele>432.0</ele><time>2026-04-18T11:48:11.994Z</time></trkpt><trkpt lat="44.1040883" lon="11.7305267"><ele>432.0</ele><time>2026-04-18T11:48:13.993Z</time></trkpt><trkpt lat="44.1040517" lon="11.73041"><ele>432.0</ele><time>2026-04-18T11:48:15.993Z</time></trkpt><trkpt lat="44.104005" lon="11.73035"><ele>432.0</ele><time>2026-04-18T11:48:16.994Z</time></trkpt><trkpt lat="44.103945" lon="11.7302967"><ele>432.0</ele><time>2026-04-18T11:48:17.992Z</time></trkpt><trkpt lat="44.103875" lon="11.7302167"><ele>432.0</ele><time>2026-04-18T11:48:18.992Z</time></trkpt><trkpt lat="44.103795" lon="11.7301383"><ele>432.0</ele><time>2026-04-18T11:48:19.994Z</time></trkpt><trkpt lat="44.1037117" lon="11.7300533"><ele>432.0</ele><time>2026-04-18T11:48:20.993Z</time></trkpt><trkpt lat="44.103625" lon="11.729985"><ele>431.20000000000005</ele><time>2026-04-18T11:48:21.994Z</time></trkpt><trkpt lat="44.1035367" lon="11.729955"><ele>430.40000000000003</ele><time>2026-04-18T11:48:22.993Z</time></trkpt><trkpt lat="44.1034533" lon="11.729925"><ele>429.59999999999997</ele><time>2026-04-18T11:48:23.993Z</time></trkpt><trkpt lat="44.1033633" lon="11.72987"><ele>428.79999999999995</ele><time>2026-04-18T11:48:24.994Z</time></trkpt><trkpt lat="44.1032767" lon="11.7297933"><ele>428.0</ele><time>2026-04-18T11:48:25.992Z</time></trkpt><trkpt lat="44.1031933" lon="11.7297133"><ele>428.0</ele><time>2026-04-18T11:48:26.993Z</time></trkpt><trkpt lat="44.1031083" lon="11.7296283"><ele>427.99999999999994</ele><time>2026-04-18T11:48:27.994Z</time></trkpt><trkpt lat="44.10303" lon="11.7295333"><ele>427.99999999999994</ele><time>2026-04-18T11:48:28.993Z</time></trkpt><trkpt lat="44.1029633" lon="11.72943"><ele>428.0</ele><time>2026-04-18T11:48:29.993Z</time></trkpt><trkpt lat="44.1028983" lon="11.729335"><ele>428.0</ele><time>2026-04-18T11:48:30.992Z</time></trkpt><trkpt lat="44.102825" lon="11.72927"><ele>425.16666666666663</ele><time>2026-04-18T11:48:31.993Z</time></trkpt><trkpt lat="44.1027467" lon="11.7292133"><ele>422.3333333333333</ele><time>2026-04-18T11:48:32.993Z</time></trkpt><trkpt lat="44.1026833" lon="11.7291333"><ele>419.5</ele><time>2026-04-18T11:48:33.993Z</time></trkpt><trkpt lat="44.1026483" lon="11.7290517"><ele>416.66666666666663</ele><time>2026-04-18T11:48:34.992Z</time></trkpt><trkpt lat="44.1026033" lon="11.7288883"><ele>413.8333333333333</ele><time>2026-04-18T11:48:36.992Z</time></trkpt><trkpt lat="44.1025867" lon="11.7287917"><ele>411.0</ele><time>2026-04-18T11:48:37.992Z</time></trkpt><trkpt lat="44.1025667" lon="11.7286883"><ele>411.0</ele><time>2026-04-18T11:48:38.993Z</time></trkpt><trkpt lat="44.10254" lon="11.7285883"><ele>411.0</ele><time>2026-04-18T11:48:39.993Z</time></trkpt><trkpt lat="44.1025283" lon="11.7284917"><ele>411.0</ele><time>2026-04-18T11:48:40.994Z</time></trkpt><trkpt lat="44.1024983" lon="11.7283683"><ele>411.0</ele><time>2026-04-18T11:48:41.993Z</time></trkpt><trkpt lat="44.10244" lon="11.7282817"><ele>411.0</ele><time>2026-04-18T11:48:42.994Z</time></trkpt><trkpt lat="44.1023883" lon="11.7281717"><ele>411.0</ele><time>2026-04-18T11:48:43.993Z</time></trkpt><trkpt lat="44.10233" lon="11.72804"><ele>412.20000000000005</ele><time>2026-04-18T11:48:44.993Z</time></trkpt><trkpt lat="44.1022867" lon="11.727905"><ele>413.40000000000003</ele><time>2026-04-18T11:48:45.992Z</time></trkpt><trkpt lat="44.1022467" lon="11.7277683"><ele>414.6</ele><time>2026-04-18T11:48:46.994Z</time></trkpt><trkpt lat="44.1021983" lon="11.7276333"><ele>415.8</ele><time>2026-04-18T11:48:47.993Z</time></trkpt><trkpt lat="44.1021467" lon="11.727525"><ele>417.0</ele><time>2026-04-18T11:48:48.993Z</time></trkpt><trkpt lat="44.102095" lon="11.727435"><ele>414.6</ele><time>2026-04-18T11:48:49.993Z</time></trkpt><trkpt lat="44.1020317" lon="11.727335"><ele>412.20000000000005</ele><time>2026-04-18T11:48:50.994Z</time></trkpt><trkpt lat="44.1019867" lon="11.72722"><ele>409.8</ele><time>2026-04-18T11:48:51.993Z</time></trkpt><trkpt lat="44.10196" lon="11.7270983"><ele>407.4</ele><time>2026-04-18T11:48:52.992Z</time></trkpt><trkpt lat="44.1019483" lon="11.7269733"><ele>405.0</ele><time>2026-04-18T11:48:53.993Z</time></trkpt><trkpt lat="44.101935" lon="11.7268583"><ele>401.5</ele><time>2026-04-18T11:48:54.992Z</time></trkpt><trkpt lat="44.1019367" lon="11.7267417"><ele>398.0</ele><time>2026-04-18T11:48:55.993Z</time></trkpt><trkpt lat="44.1019383" lon="11.7266317"><ele>394.5</ele><time>2026-04-18T11:48:56.993Z</time></trkpt><trkpt lat="44.10192" lon="11.7265267"><ele>391.0</ele><time>2026-04-18T11:48:57.992Z</time></trkpt><trkpt lat="44.1018917" lon="11.7264433"><ele>387.5</ele><time>2026-04-18T11:48:58.993Z</time></trkpt><trkpt lat="44.1017917" lon="11.72637"><ele>384.0</ele><time>2026-04-18T11:49:00.993Z</time></trkpt><trkpt lat="44.1017183" lon="11.7263817"><ele>384.0</ele><time>2026-04-18T11:49:01.992Z</time></trkpt><trkpt lat="44.10164" lon="11.726405"><ele>384.0</ele><time>2026-04-18T11:49:02.992Z</time></trkpt><trkpt lat="44.101545" lon="11.7264467"><ele>384.0</ele><time>2026-04-18T11:49:03.993Z</time></trkpt><trkpt lat="44.1014383" lon="11.7265033"><ele>384.0</ele><time>2026-04-18T11:49:04.992Z</time></trkpt><trkpt lat="44.1013233" lon="11.7265717"><ele>384.0</ele><time>2026-04-18T11:49:05.992Z</time></trkpt><trkpt lat="44.101225" lon="11.7266467"><ele>383.0</ele><time>2026-04-18T11:49:06.993Z</time></trkpt><trkpt lat="44.1011383" lon="11.7267017"><ele>382.0</ele><time>2026-04-18T11:49:07.994Z</time></trkpt><trkpt lat="44.10105" lon="11.72673"><ele>381.0</ele><time>2026-04-18T11:49:08.993Z</time></trkpt><trkpt lat="44.100965" lon="11.72673"><ele>380.0</ele><time>2026-04-18T11:49:09.994Z</time></trkpt><trkpt lat="44.10089" lon="11.7267"><ele>379.0</ele><time>2026-04-18T11:49:10.992Z</time></trkpt><trkpt lat="44.1008233" lon="11.7266467"><ele>378.0</ele><time>2026-04-18T11:49:11.993Z</time></trkpt><trkpt lat="44.10078" lon="11.726555"><ele>376.4</ele><time>2026-04-18T11:49:12.993Z</time></trkpt><trkpt lat="44.10074" lon="11.7264333"><ele>374.79999999999995</ele><time>2026-04-18T11:49:13.994Z</time></trkpt><trkpt lat="44.10071" lon="11.7262917"><ele>373.2</ele><time>2026-04-18T11:49:14.992Z</time></trkpt><trkpt lat="44.1007017" lon="11.7261467"><ele>371.6</ele><time>2026-04-18T11:49:15.993Z</time></trkpt><trkpt lat="44.100705" lon="11.725995"><ele>370.0</ele><time>2026-04-18T11:49:16.993Z</time></trkpt><trkpt lat="44.1006883" lon="11.7258567"><ele>370.0</ele><time>2026-04-18T11:49:17.994Z</time></trkpt><trkpt lat="44.100665" lon="11.72573"><ele>370.0</ele><time>2026-04-18T11:49:18.994Z</time></trkpt><trkpt lat="44.10063" lon="11.7256183"><ele>370.0</ele><time>2026-04-18T11:49:19.994Z</time></trkpt><trkpt lat="44.1005783" lon="11.725515"><ele>370.0</ele><time>2026-04-18T11:49:20.993Z</time></trkpt><trkpt lat="44.1005167" lon="11.7254167"><ele>370.0</ele><time>2026-04-18T11:49:21.993Z</time></trkpt><trkpt lat="44.1004517" lon="11.7253417"><ele>370.0</ele><time>2026-04-18T11:49:22.992Z</time></trkpt><trkpt lat="44.100385" lon="11.7252967"><ele>370.0</ele><time>2026-04-18T11:49:23.993Z</time></trkpt><trkpt lat="44.100305" lon="11.7252783"><ele>370.0</ele><time>2026-04-18T11:49:24.993Z</time></trkpt><trkpt lat="44.10021" lon="11.72527"><ele>370.0</ele><time>2026-04-18T11:49:25.993Z</time></trkpt><trkpt lat="44.1001133" lon="11.7252717"><ele>370.0</ele><time>2026-04-18T11:49:26.992Z</time></trkpt><trkpt lat="44.1000283" lon="11.72525"><ele>370.0</ele><time>2026-04-18T11:49:27.993Z</time></trkpt><trkpt lat="44.0999567" lon="11.7252033"><ele>366.8333333333333</ele><time>2026-04-18T11:49:28.994Z</time></trkpt><trkpt lat="44.0999" lon="11.7251317"><ele>363.66666666666663</ele><time>2026-04-18T11:49:29.992Z</time></trkpt><trkpt lat="44.099855" lon="11.7250467"><ele>360.5</ele><time>2026-04-18T11:49:30.994Z</time></trkpt><trkpt lat="44.0998167" lon="11.7249567"><ele>357.3333333333333</ele><time>2026-04-18T11:49:31.993Z</time></trkpt><trkpt lat="44.099775" lon="11.72487"><ele>354.1666666666667</ele><time>2026-04-18T11:49:32.993Z</time></trkpt><trkpt lat="44.0997233" lon="11.7247967"><ele>351.0</ele><time>2026-04-18T11:49:33.993Z</time></trkpt><trkpt lat="44.0996583" lon="11.7247333"><ele>351.0</ele><time>2026-04-18T11:49:34.992Z</time></trkpt><trkpt lat="44.0995717" lon="11.724685"><ele>351.0</ele><time>2026-04-18T11:49:35.993Z</time></trkpt><trkpt lat="44.0994717" lon="11.7246567"><ele>351.0</ele><time>2026-04-18T11:49:36.993Z</time></trkpt><trkpt lat="44.0993617" lon="11.7246633"><ele>351.0</ele><time>2026-04-18T11:49:37.993Z</time></trkpt><trkpt lat="44.09926" lon="11.7246933"><ele>351.0</ele><time>2026-04-18T11:49:38.993Z</time></trkpt><trkpt lat="44.0991733" lon="11.7247267"><ele>351.0</ele><time>2026-04-18T11:49:39.992Z</time></trkpt><trkpt lat="44.0991" lon="11.7247417"><ele>351.0</ele><time>2026-04-18T11:49:40.992Z</time></trkpt><trkpt lat="44.0990333" lon="11.7247167"><ele>351.0</ele><time>2026-04-18T11:49:41.993Z</time></trkpt><trkpt lat="44.0989617" lon="11.7246067"><ele>351.0</ele><time>2026-04-18T11:49:43.993Z</time></trkpt><trkpt lat="44.0989667" lon="11.7243967"><ele>351.0</ele><time>2026-04-18T11:49:45.992Z</time></trkpt><trkpt lat="44.09899" lon="11.7242917"><ele>350.3333333333333</ele><time>2026-04-18T11:49:46.993Z</time></trkpt><trkpt lat="44.0990233" lon="11.7241767"><ele>349.6666666666667</ele><time>2026-04-18T11:49:47.993Z</time></trkpt><trkpt lat="44.099055" lon="11.724055"><ele>349.0</ele><time>2026-04-18T11:49:48.992Z</time></trkpt><trkpt lat="44.0990817" lon="11.723945"><ele>348.33333333333337</ele><time>2026-04-18T11:49:49.993Z</time></trkpt><trkpt lat="44.0991033" lon="11.723835"><ele>347.6666666666667</ele><time>2026-04-18T11:49:50.994Z</time></trkpt><trkpt lat="44.09913" lon="11.723735"><ele>347.0</ele><time>2026-04-18T11:49:51.993Z</time></trkpt><trkpt lat="44.0991833" lon="11.723635"><ele>347.0</ele><time>2026-04-18T11:49:53.992Z</time></trkpt><trkpt lat="44.09913" lon="11.7235683"><ele>347.0</ele><time>2026-04-18T11:49:57.992Z</time></trkpt><trkpt lat="44.0990633" lon="11.7235817"><ele>347.0</ele><time>2026-04-18T11:49:59.993Z</time></trkpt><trkpt lat="44.09901" lon="11.7235317"><ele>347.0</ele><time>2026-04-18T11:50:01.992Z</time></trkpt><trkpt lat="44.09892" lon="11.7234"><ele>347.0</ele><time>2026-04-18T11:50:03.993Z</time></trkpt><trkpt lat="44.0988517" lon="11.72329"><ele>347.0</ele><time>2026-04-18T11:50:04.993Z</time></trkpt><trkpt lat="44.0987717" lon="11.7231667"><ele>344.8</ele><time>2026-04-18T11:50:05.993Z</time></trkpt><trkpt lat="44.09869" lon="11.7230583"><ele>342.6</ele><time>2026-04-18T11:50:06.992Z</time></trkpt><trkpt lat="44.098605" lon="11.7229667"><ele>340.40000000000003</ele><time>2026-04-18T11:50:07.993Z</time></trkpt><trkpt lat="44.0985083" lon="11.7229117"><ele>338.20000000000005</ele><time>2026-04-18T11:50:08.994Z</time></trkpt><trkpt lat="44.0983883" lon="11.72288"><ele>336.0</ele><time>2026-04-18T11:50:09.994Z</time></trkpt><trkpt lat="44.098255" lon="11.7228517"><ele>337.0</ele><time>2026-04-18T11:50:10.992Z</time></trkpt><trkpt lat="44.0981067" lon="11.7228367"><ele>338.0</ele><time>2026-04-18T11:50:11.992Z</time></trkpt><trkpt lat="44.0979467" lon="11.7228117"><ele>339.0</ele><time>2026-04-18T11:50:12.992Z</time></trkpt><trkpt lat="44.0977833" lon="11.7227617"><ele>337.0</ele><time>2026-04-18T11:50:13.994Z</time></trkpt><trkpt lat="44.097615" lon="11.7227"><ele>335.0</ele><time>2026-04-18T11:50:14.993Z</time></trkpt><trkpt lat="44.09744" lon="11.7226333"><ele>333.0</ele><time>2026-04-18T11:50:15.993Z</time></trkpt><trkpt lat="44.0972633" lon="11.72258"><ele>333.0</ele><time>2026-04-18T11:50:16.992Z</time></trkpt><trkpt lat="44.0970783" lon="11.7225367"><ele>333.0</ele><time>2026-04-18T11:50:17.995Z</time></trkpt><trkpt lat="44.0968933" lon="11.722495"><ele>333.0</ele><time>2026-04-18T11:50:18.992Z</time></trkpt><trkpt lat="44.0967067" lon="11.7224567"><ele>334.3333333333333</ele><time>2026-04-18T11:50:19.992Z</time></trkpt><trkpt lat="44.0965267" lon="11.7224067"><ele>335.66666666666663</ele><time>2026-04-18T11:50:20.993Z</time></trkpt><trkpt lat="44.09635" lon="11.72236"><ele>337.0</ele><time>2026-04-18T11:50:21.993Z</time></trkpt><trkpt lat="44.0961733" lon="11.7223233"><ele>337.0</ele><time>2026-04-18T11:50:22.992Z</time></trkpt><trkpt lat="44.095995" lon="11.7223017"><ele>337.0</ele><time>2026-04-18T11:50:23.992Z</time></trkpt><trkpt lat="44.0958183" lon="11.722285"><ele>337.0</ele><time>2026-04-18T11:50:24.993Z</time></trkpt><trkpt lat="44.09565" lon="11.7222617"><ele>337.5</ele><time>2026-04-18T11:50:25.994Z</time></trkpt><trkpt lat="44.095525" lon="11.7222383"><ele>338.0</ele><time>2026-04-18T11:50:26.993Z</time></trkpt><trkpt lat="44.095435" lon="11.7222183"><ele>338.5</ele><time>2026-04-18T11:50:27.994Z</time></trkpt><trkpt lat="44.0953533" lon="11.722125"><ele>339.0</ele><time>2026-04-18T11:50:29.993Z</time></trkpt><trkpt lat="44.0953617" lon="11.7219283"><ele>338.2</ele><time>2026-04-18T11:50:31.993Z</time></trkpt><trkpt lat="44.095365" lon="11.7218233"><ele>337.4</ele><time>2026-04-18T11:50:32.993Z</time></trkpt><trkpt lat="44.0953433" lon="11.7217367"><ele>336.6</ele><time>2026-04-18T11:50:33.993Z</time></trkpt><trkpt lat="44.0952483" lon="11.7216483"><ele>335.8</ele><time>2026-04-18T11:50:35.993Z</time></trkpt><trkpt lat="44.0951517" lon="11.7216283"><ele>335.0</ele><time>2026-04-18T11:50:36.994Z</time></trkpt><trkpt lat="44.0950317" lon="11.7216117"><ele>336.33333333333337</ele><time>2026-04-18T11:50:37.993Z</time></trkpt><trkpt lat="44.0948933" lon="11.7215967"><ele>337.6666666666667</ele><time>2026-04-18T11:50:38.993Z</time></trkpt><trkpt lat="44.09474" lon="11.721585"><ele>339.0</ele><time>2026-04-18T11:50:39.993Z</time></trkpt><trkpt lat="44.0945767" lon="11.7215733"><ele>339.0</ele><time>2026-04-18T11:50:40.993Z</time></trkpt><trkpt lat="44.094405" lon="11.7215617"><ele>339.0</ele><time>2026-04-18T11:50:41.992Z</time></trkpt><trkpt lat="44.094225" lon="11.7215433"><ele>339.0</ele><time>2026-04-18T11:50:42.994Z</time></trkpt><trkpt lat="44.0940417" lon="11.7215167"><ele>339.6666666666667</ele><time>2026-04-18T11:50:43.994Z</time></trkpt><trkpt lat="44.0938567" lon="11.7215033"><ele>340.33333333333337</ele><time>2026-04-18T11:50:44.993Z</time></trkpt><trkpt lat="44.0936733" lon="11.721505"><ele>341.0</ele><time>2026-04-18T11:50:45.994Z</time></trkpt><trkpt lat="44.0934917" lon="11.7215083"><ele>341.0</ele><time>2026-04-18T11:50:46.992Z</time></trkpt><trkpt lat="44.0933117" lon="11.7215"><ele>341.0</ele><time>2026-04-18T11:50:47.993Z</time></trkpt><trkpt lat="44.09313" lon="11.7214817"><ele>341.0</ele><time>2026-04-18T11:50:48.992Z</time></trkpt><trkpt lat="44.092945" lon="11.7214633"><ele>341.0</ele><time>2026-04-18T11:50:49.993Z</time></trkpt><trkpt lat="44.0927583" lon="11.72145"><ele>341.0</ele><time>2026-04-18T11:50:50.994Z</time></trkpt><trkpt lat="44.09257" lon="11.7214467"><ele>341.0</ele><time>2026-04-18T11:50:51.993Z</time></trkpt><trkpt lat="44.0923783" lon="11.721455"><ele>341.33333333333337</ele><time>2026-04-18T11:50:52.993Z</time></trkpt><trkpt lat="44.0921917" lon="11.7214783"><ele>341.6666666666667</ele><time>2026-04-18T11:50:53.993Z</time></trkpt><trkpt lat="44.092015" lon="11.7215167"><ele>342.0</ele><time>2026-04-18T11:50:54.992Z</time></trkpt><trkpt lat="44.09185" lon="11.72157"><ele>342.0</ele><time>2026-04-18T11:50:55.992Z</time></trkpt><trkpt lat="44.0916933" lon="11.7216267"><ele>342.0</ele><time>2026-04-18T11:50:56.993Z</time></trkpt><trkpt lat="44.0915517" lon="11.7216617"><ele>342.0</ele><time>2026-04-18T11:50:57.993Z</time></trkpt><trkpt lat="44.09143" lon="11.7216683"><ele>342.0</ele><time>2026-04-18T11:50:58.993Z</time></trkpt><trkpt lat="44.091325" lon="11.7216417"><ele>343.20000000000005</ele><time>2026-04-18T11:50:59.993Z</time></trkpt><trkpt lat="44.0912317" lon="11.7215833"><ele>344.4</ele><time>2026-04-18T11:51:00.993Z</time></trkpt><trkpt lat="44.09115" lon="11.7214983"><ele>345.6</ele><time>2026-04-18T11:51:01.994Z</time></trkpt><trkpt lat="44.0910883" lon="11.72139"><ele>346.79999999999995</ele><time>2026-04-18T11:51:02.993Z</time></trkpt><trkpt lat="44.091065" lon="11.7212683"><ele>348.0</ele><time>2026-04-18T11:51:03.992Z</time></trkpt><trkpt lat="44.0910733" lon="11.72112"><ele>347.5</ele><time>2026-04-18T11:51:04.993Z</time></trkpt><trkpt lat="44.0910967" lon="11.7209567"><ele>347.0</ele><time>2026-04-18T11:51:05.992Z</time></trkpt><trkpt lat="44.091125" lon="11.720775"><ele>346.5</ele><time>2026-04-18T11:51:06.992Z</time></trkpt><trkpt lat="44.091165" lon="11.7205783"><ele>346.0</ele><time>2026-04-18T11:51:07.992Z</time></trkpt><trkpt lat="44.0912033" lon="11.720365"><ele>346.3333333333333</ele><time>2026-04-18T11:51:08.993Z</time></trkpt><trkpt lat="44.0912417" lon="11.7201467"><ele>346.6666666666667</ele><time>2026-04-18T11:51:09.993Z</time></trkpt><trkpt lat="44.0912767" lon="11.719925"><ele>347.0</ele><time>2026-04-18T11:51:10.993Z</time></trkpt><trkpt lat="44.0913083" lon="11.7196967"><ele>347.0</ele><time>2026-04-18T11:51:11.993Z</time></trkpt><trkpt lat="44.09134" lon="11.7194683"><ele>347.0</ele><time>2026-04-18T11:51:12.993Z</time></trkpt><trkpt lat="44.0913683" lon="11.7192383"><ele>347.0</ele><time>2026-04-18T11:51:13.993Z</time></trkpt><trkpt lat="44.0913883" lon="11.7190267"><ele>347.40000000000003</ele><time>2026-04-18T11:51:14.994Z</time></trkpt><trkpt lat="44.0914033" lon="11.7188317"><ele>347.8</ele><time>2026-04-18T11:51:15.993Z</time></trkpt><trkpt lat="44.09142" lon="11.7186817"><ele>348.2</ele><time>2026-04-18T11:51:16.993Z</time></trkpt><trkpt lat="44.0914283" lon="11.7185667"><ele>348.6</ele><time>2026-04-18T11:51:17.992Z</time></trkpt><trkpt lat="44.091435" lon="11.7184767"><ele>349.0</ele><time>2026-04-18T11:51:18.992Z</time></trkpt><trkpt lat="44.09145" lon="11.7183633"><ele>350.6</ele><time>2026-04-18T11:51:20.993Z</time></trkpt><trkpt lat="44.0914667" lon="11.7182483"><ele>352.2</ele><time>2026-04-18T11:51:23.992Z</time></trkpt><trkpt lat="44.091435" lon="11.7181133"><ele>353.8</ele><time>2026-04-18T11:51:26.993Z</time></trkpt><trkpt lat="44.0913183" lon="11.7180317"><ele>355.40000000000003</ele><time>2026-04-18T11:51:28.992Z</time></trkpt><trkpt lat="44.0912367" lon="11.71802"><ele>357.0</ele><time>2026-04-18T11:51:29.992Z</time></trkpt><trkpt lat="44.09115" lon="11.7180333"><ele>357.0</ele><time>2026-04-18T11:51:30.993Z</time></trkpt><trkpt lat="44.0910583" lon="11.7180767"><ele>357.0</ele><time>2026-04-18T11:51:31.993Z</time></trkpt><trkpt lat="44.0909533" lon="11.71812"><ele>357.0</ele><time>2026-04-18T11:51:32.994Z</time></trkpt><trkpt lat="44.0908333" lon="11.7181567"><ele>357.0</ele><time>2026-04-18T11:51:33.994Z</time></trkpt><trkpt lat="44.0907033" lon="11.7181867"><ele>357.25</ele><time>2026-04-18T11:51:34.992Z</time></trkpt><trkpt lat="44.0905717" lon="11.71821"><ele>357.5</ele><time>2026-04-18T11:51:35.994Z</time></trkpt><trkpt lat="44.0904367" lon="11.7182133"><ele>357.75</ele><time>2026-04-18T11:51:36.992Z</time></trkpt><trkpt lat="44.0902917" lon="11.7182117"><ele>358.0</ele><time>2026-04-18T11:51:37.993Z</time></trkpt><trkpt lat="44.090145" lon="11.7182017"><ele>358.0</ele><time>2026-04-18T11:51:38.992Z</time></trkpt><trkpt lat="44.0899933" lon="11.7181833"><ele>358.0</ele><time>2026-04-18T11:51:39.992Z</time></trkpt><trkpt lat="44.0898417" lon="11.71816"><ele>358.0</ele><time>2026-04-18T11:51:40.992Z</time></trkpt><trkpt lat="44.0896883" lon="11.718135"><ele>358.66666666666663</ele><time>2026-04-18T11:51:41.993Z</time></trkpt><trkpt lat="44.0895317" lon="11.718105"><ele>359.3333333333333</ele><time>2026-04-18T11:51:42.992Z</time></trkpt><trkpt lat="44.0893767" lon="11.7180717"><ele>360.0</ele><time>2026-04-18T11:51:43.993Z</time></trkpt><trkpt lat="44.08922" lon="11.7180383"><ele>359.3333333333333</ele><time>2026-04-18T11:51:44.993Z</time></trkpt><trkpt lat="44.0890583" lon="11.7180067"><ele>358.66666666666663</ele><time>2026-04-18T11:51:45.993Z</time></trkpt><trkpt lat="44.088895" lon="11.7179683"><ele>358.0</ele><time>2026-04-18T11:51:46.992Z</time></trkpt><trkpt lat="44.0887283" lon="11.7179333"><ele>358.0</ele><time>2026-04-18T11:51:47.993Z</time></trkpt><trkpt lat="44.0885583" lon="11.7179067"><ele>358.0</ele><time>2026-04-18T11:51:48.995Z</time></trkpt><trkpt lat="44.0883867" lon="11.7178833"><ele>358.0</ele><time>2026-04-18T11:51:49.992Z</time></trkpt><trkpt lat="44.08821" lon="11.7178717"><ele>358.0</ele><time>2026-04-18T11:51:50.993Z</time></trkpt><trkpt lat="44.0880283" lon="11.717865"><ele>358.0</ele><time>2026-04-18T11:51:51.994Z</time></trkpt><trkpt lat="44.0878433" lon="11.71785"><ele>358.0</ele><time>2026-04-18T11:51:52.993Z</time></trkpt><trkpt lat="44.087655" lon="11.7178333"><ele>358.0</ele><time>2026-04-18T11:51:53.993Z</time></trkpt><trkpt lat="44.087465" lon="11.7178217"><ele>358.0</ele><time>2026-04-18T11:51:54.994Z</time></trkpt><trkpt lat="44.0872733" lon="11.7178067"><ele>358.0</ele><time>2026-04-18T11:51:55.992Z</time></trkpt><trkpt lat="44.08709" lon="11.7178033"><ele>358.5</ele><time>2026-04-18T11:51:56.993Z</time></trkpt><trkpt lat="44.0869283" lon="11.7178033"><ele>359.0</ele><time>2026-04-18T11:51:57.992Z</time></trkpt><trkpt lat="44.0867817" lon="11.717795"><ele>359.5</ele><time>2026-04-18T11:51:58.994Z</time></trkpt><trkpt lat="44.0866433" lon="11.7177683"><ele>360.0</ele><time>2026-04-18T11:51:59.992Z</time></trkpt><trkpt lat="44.0865017" lon="11.7177283"><ele>367.0</ele><time>2026-04-18T11:52:00.993Z</time></trkpt><trkpt lat="44.0863617" lon="11.7176767"><ele>374.0</ele><time>2026-04-18T11:52:01.993Z</time></trkpt><trkpt lat="44.086215" lon="11.7176317"><ele>381.0</ele><time>2026-04-18T11:52:02.993Z</time></trkpt><trkpt lat="44.0860617" lon="11.7176017"><ele>381.0</ele><time>2026-04-18T11:52:03.994Z</time></trkpt><trkpt lat="44.0859083" lon="11.7175783"><ele>381.0</ele><time>2026-04-18T11:52:04.992Z</time></trkpt><trkpt lat="44.0857567" lon="11.7175517"><ele>381.0</ele><time>2026-04-18T11:52:05.992Z</time></trkpt><trkpt lat="44.085605" lon="11.717525"><ele>379.25</ele><time>2026-04-18T11:52:06.993Z</time></trkpt><trkpt lat="44.0854633" lon="11.7174917"><ele>377.5</ele><time>2026-04-18T11:52:07.992Z</time></trkpt><trkpt lat="44.085325" lon="11.7174667"><ele>375.75</ele><time>2026-04-18T11:52:08.992Z</time></trkpt><trkpt lat="44.0851917" lon="11.7174383"><ele>374.0</ele><time>2026-04-18T11:52:09.993Z</time></trkpt><trkpt lat="44.0850517" lon="11.7174067"><ele>371.75</ele><time>2026-04-18T11:52:10.992Z</time></trkpt><trkpt lat="44.0849083" lon="11.7173667"><ele>369.5</ele><time>2026-04-18T11:52:11.993Z</time></trkpt><trkpt lat="44.08477" lon="11.7173083"><ele>367.25</ele><time>2026-04-18T11:52:12.993Z</time></trkpt><trkpt lat="44.08464" lon="11.7172417"><ele>365.0</ele><time>2026-04-18T11:52:13.993Z</time></trkpt><trkpt lat="44.0845317" lon="11.7171667"><ele>365.0</ele><time>2026-04-18T11:52:14.994Z</time></trkpt><trkpt lat="44.084435" lon="11.7170717"><ele>365.0</ele><time>2026-04-18T11:52:15.992Z</time></trkpt><trkpt lat="44.0843467" lon="11.7169533"><ele>365.0</ele><time>2026-04-18T11:52:16.992Z</time></trkpt><trkpt lat="44.0842633" lon="11.7168117"><ele>365.0</ele><time>2026-04-18T11:52:17.992Z</time></trkpt><trkpt lat="44.0841817" lon="11.7166533"><ele>363.0</ele><time>2026-04-18T11:52:18.993Z</time></trkpt><trkpt lat="44.08411" lon="11.7164733"><ele>361.0</ele><time>2026-04-18T11:52:19.993Z</time></trkpt><trkpt lat="44.0840467" lon="11.7162733"><ele>359.0</ele><time>2026-04-18T11:52:20.993Z</time></trkpt><trkpt lat="44.0839783" lon="11.7160717"><ele>360.33333333333337</ele><time>2026-04-18T11:52:21.993Z</time></trkpt><trkpt lat="44.0839117" lon="11.7158617"><ele>361.6666666666667</ele><time>2026-04-18T11:52:22.994Z</time></trkpt><trkpt lat="44.0838467" lon="11.7156433"><ele>363.0</ele><time>2026-04-18T11:52:23.994Z</time></trkpt><trkpt lat="44.0837717" lon="11.7154283"><ele>366.3333333333333</ele><time>2026-04-18T11:52:24.993Z</time></trkpt><trkpt lat="44.0836817" lon="11.71522"><ele>369.66666666666663</ele><time>2026-04-18T11:52:25.993Z</time></trkpt><trkpt lat="44.08358" lon="11.7150167"><ele>373.0</ele><time>2026-04-18T11:52:26.993Z</time></trkpt><trkpt lat="44.0834767" lon="11.7148117"><ele>373.0</ele><time>2026-04-18T11:52:27.993Z</time></trkpt><trkpt lat="44.083375" lon="11.7146"><ele>373.0</ele><time>2026-04-18T11:52:28.993Z</time></trkpt><trkpt lat="44.0832783" lon="11.714375"><ele>373.0</ele><time>2026-04-18T11:52:29.993Z</time></trkpt><trkpt lat="44.083185" lon="11.7141467"><ele>372.0</ele><time>2026-04-18T11:52:30.992Z</time></trkpt><trkpt lat="44.0830967" lon="11.7139133"><ele>371.0</ele><time>2026-04-18T11:52:31.992Z</time></trkpt><trkpt lat="44.0830117" lon="11.7136967"><ele>370.0</ele><time>2026-04-18T11:52:32.995Z</time></trkpt><trkpt lat="44.0829367" lon="11.7134783"><ele>370.0</ele><time>2026-04-18T11:52:33.992Z</time></trkpt><trkpt lat="44.0828733" lon="11.7132533"><ele>370.0</ele><time>2026-04-18T11:52:34.993Z</time></trkpt><trkpt lat="44.0828133" lon="11.7130183"><ele>370.0</ele><time>2026-04-18T11:52:35.992Z</time></trkpt><trkpt lat="44.082755" lon="11.7127817"><ele>373.66666666666663</ele><time>2026-04-18T11:52:36.992Z</time></trkpt><trkpt lat="44.0826967" lon="11.7125383"><ele>377.3333333333333</ele><time>2026-04-18T11:52:37.993Z</time></trkpt><trkpt lat="44.082635" lon="11.7122983"><ele>381.0</ele><time>2026-04-18T11:52:38.992Z</time></trkpt><trkpt lat="44.082575" lon="11.7120717"><ele>382.66666666666663</ele><time>2026-04-18T11:52:39.993Z</time></trkpt><trkpt lat="44.0825167" lon="11.711855"><ele>384.3333333333333</ele><time>2026-04-18T11:52:40.993Z</time></trkpt><trkpt lat="44.0824667" lon="11.71164"><ele>386.0</ele><time>2026-04-18T11:52:41.993Z</time></trkpt><trkpt lat="44.0824283" lon="11.71142"><ele>381.66666666666663</ele><time>2026-04-18T11:52:42.993Z</time></trkpt><trkpt lat="44.082395" lon="11.7111967"><ele>377.3333333333333</ele><time>2026-04-18T11:52:43.995Z</time></trkpt><trkpt lat="44.082345" lon="11.7109733"><ele>373.0</ele><time>2026-04-18T11:52:44.994Z</time></trkpt><trkpt lat="44.082265" lon="11.7107667"><ele>373.0</ele><time>2026-04-18T11:52:45.994Z</time></trkpt><trkpt lat="44.082165" lon="11.7105767"><ele>373.0</ele><time>2026-04-18T11:52:46.992Z</time></trkpt><trkpt lat="44.0820617" lon="11.7104033"><ele>373.0</ele><time>2026-04-18T11:52:47.993Z</time></trkpt><trkpt lat="44.081965" lon="11.71024"><ele>374.25</ele><time>2026-04-18T11:52:48.993Z</time></trkpt><trkpt lat="44.0818767" lon="11.7100817"><ele>375.5</ele><time>2026-04-18T11:52:49.992Z</time></trkpt><trkpt lat="44.08179" lon="11.7099333"><ele>376.75</ele><time>2026-04-18T11:52:50.993Z</time></trkpt><trkpt lat="44.08171" lon="11.709795"><ele>378.0</ele><time>2026-04-18T11:52:51.992Z</time></trkpt><trkpt lat="44.0816333" lon="11.7096617"><ele>378.4</ele><time>2026-04-18T11:52:52.993Z</time></trkpt><trkpt lat="44.081555" lon="11.70954"><ele>378.79999999999995</ele><time>2026-04-18T11:52:53.992Z</time></trkpt><trkpt lat="44.0814767" lon="11.7094383"><ele>379.2</ele><time>2026-04-18T11:52:54.993Z</time></trkpt><trkpt lat="44.0813917" lon="11.7093633"><ele>379.6</ele><time>2026-04-18T11:52:55.993Z</time></trkpt><trkpt lat="44.081295" lon="11.709325"><ele>380.0</ele><time>2026-04-18T11:52:56.998Z</time></trkpt><trkpt lat="44.0811867" lon="11.7093083"><ele>380.0</ele><time>2026-04-18T11:52:57.992Z</time></trkpt><trkpt lat="44.0810783" lon="11.7092983"><ele>380.0</ele><time>2026-04-18T11:52:58.992Z</time></trkpt><trkpt lat="44.08098" lon="11.7092967"><ele>380.0</ele><time>2026-04-18T11:52:59.993Z</time></trkpt><trkpt lat="44.08089" lon="11.7092833"><ele>380.0</ele><time>2026-04-18T11:53:00.992Z</time></trkpt><trkpt lat="44.080805" lon="11.709265"><ele>380.0</ele><time>2026-04-18T11:53:01.992Z</time></trkpt><trkpt lat="44.08073" lon="11.709245"><ele>380.5</ele><time>2026-04-18T11:53:02.992Z</time></trkpt><trkpt lat="44.0806633" lon="11.7092317"><ele>381.0</ele><time>2026-04-18T11:53:03.993Z</time></trkpt><trkpt lat="44.0806017" lon="11.7092117"><ele>381.5</ele><time>2026-04-18T11:53:04.993Z</time></trkpt><trkpt lat="44.0805" lon="11.70915"><ele>382.0</ele><time>2026-04-18T11:53:06.993Z</time></trkpt><trkpt lat="44.0804317" lon="11.7090867"><ele>382.5</ele><time>2026-04-18T11:53:08.993Z</time></trkpt><trkpt lat="44.0804017" lon="11.70896"><ele>383.0</ele><time>2026-04-18T11:53:10.992Z</time></trkpt><trkpt lat="44.080395" lon="11.7088683"><ele>383.0</ele><time>2026-04-18T11:53:11.994Z</time></trkpt><trkpt lat="44.0803883" lon="11.7087533"><ele>383.0</ele><time>2026-04-18T11:53:12.992Z</time></trkpt><trkpt lat="44.080385" lon="11.708625"><ele>383.0</ele><time>2026-04-18T11:53:13.993Z</time></trkpt><trkpt lat="44.080385" lon="11.7084883"><ele>383.0</ele><time>2026-04-18T11:53:14.993Z</time></trkpt><trkpt lat="44.0803883" lon="11.70835"><ele>383.0</ele><time>2026-04-18T11:53:15.993Z</time></trkpt><trkpt lat="44.0803933" lon="11.7082"><ele>383.0</ele><time>2026-04-18T11:53:16.992Z</time></trkpt><trkpt lat="44.0804017" lon="11.708035"><ele>383.0</ele><time>2026-04-18T11:53:17.992Z</time></trkpt><trkpt lat="44.0804067" lon="11.707875"><ele>383.0</ele><time>2026-04-18T11:53:18.993Z</time></trkpt><trkpt lat="44.0804133" lon="11.707715"><ele>383.0</ele><time>2026-04-18T11:53:19.996Z</time></trkpt><trkpt lat="44.0804217" lon="11.70754"><ele>383.0</ele><time>2026-04-18T11:53:20.993Z</time></trkpt><trkpt lat="44.08043" lon="11.70736"><ele>383.0</ele><time>2026-04-18T11:53:21.995Z</time></trkpt><trkpt lat="44.0804333" lon="11.707175"><ele>383.0</ele><time>2026-04-18T11:53:22.993Z</time></trkpt><trkpt lat="44.08043" lon="11.70698"><ele>383.0</ele><time>2026-04-18T11:53:23.992Z</time></trkpt><trkpt lat="44.0804233" lon="11.7067817"><ele>383.0</ele><time>2026-04-18T11:53:24.993Z</time></trkpt><trkpt lat="44.0804167" lon="11.7065817"><ele>383.0</ele><time>2026-04-18T11:53:25.993Z</time></trkpt><trkpt lat="44.08042" lon="11.70639"><ele>383.0</ele><time>2026-04-18T11:53:26.992Z</time></trkpt><trkpt lat="44.0804317" lon="11.7062033"><ele>383.0</ele><time>2026-04-18T11:53:27.992Z</time></trkpt><trkpt lat="44.0804567" lon="11.7060133"><ele>383.5</ele><time>2026-04-18T11:53:28.992Z</time></trkpt><trkpt lat="44.08049" lon="11.70582"><ele>384.0</ele><time>2026-04-18T11:53:29.993Z</time></trkpt><trkpt lat="44.0805283" lon="11.7056233"><ele>384.5</ele><time>2026-04-18T11:53:30.994Z</time></trkpt><trkpt lat="44.08057" lon="11.7054183"><ele>385.0</ele><time>2026-04-18T11:53:31.993Z</time></trkpt><trkpt lat="44.0806117" lon="11.7052083"><ele>385.6666666666667</ele><time>2026-04-18T11:53:32.994Z</time></trkpt><trkpt lat="44.080655" lon="11.704995"><ele>386.33333333333337</ele><time>2026-04-18T11:53:33.992Z</time></trkpt><trkpt lat="44.0807" lon="11.7047833"><ele>387.0</ele><time>2026-04-18T11:53:34.993Z</time></trkpt><trkpt lat="44.0807433" lon="11.70457"><ele>388.0</ele><time>2026-04-18T11:53:35.992Z</time></trkpt><trkpt lat="44.08079" lon="11.704355"><ele>389.0</ele><time>2026-04-18T11:53:36.993Z</time></trkpt><trkpt lat="44.080835" lon="11.7041417"><ele>390.0</ele><time>2026-04-18T11:53:37.993Z</time></trkpt><trkpt lat="44.08088" lon="11.7039283"><ele>390.0</ele><time>2026-04-18T11:53:38.993Z</time></trkpt><trkpt lat="44.0809217" lon="11.703715"><ele>390.0</ele><time>2026-04-18T11:53:39.993Z</time></trkpt><trkpt lat="44.0809633" lon="11.7035017"><ele>390.0</ele><time>2026-04-18T11:53:40.993Z</time></trkpt><trkpt lat="44.081005" lon="11.7032917"><ele>389.66666666666663</ele><time>2026-04-18T11:53:41.992Z</time></trkpt><trkpt lat="44.0810367" lon="11.7030783"><ele>389.3333333333333</ele><time>2026-04-18T11:53:42.994Z</time></trkpt><trkpt lat="44.0810533" lon="11.7028633"><ele>389.0</ele><time>2026-04-18T11:53:43.993Z</time></trkpt><trkpt lat="44.081055" lon="11.702645"><ele>390.0</ele><time>2026-04-18T11:53:44.993Z</time></trkpt><trkpt lat="44.0810533" lon="11.7024217"><ele>391.0</ele><time>2026-04-18T11:53:45.993Z</time></trkpt><trkpt lat="44.0810617" lon="11.7021983"><ele>392.0</ele><time>2026-04-18T11:53:46.993Z</time></trkpt><trkpt lat="44.081075" lon="11.7019917"><ele>392.75</ele><time>2026-04-18T11:53:47.993Z</time></trkpt><trkpt lat="44.0810917" lon="11.7017967"><ele>393.5</ele><time>2026-04-18T11:53:48.993Z</time></trkpt><trkpt lat="44.0811" lon="11.7016217"><ele>394.25</ele><time>2026-04-18T11:53:49.993Z</time></trkpt><trkpt lat="44.08109" lon="11.7014767"><ele>395.0</ele><time>2026-04-18T11:53:50.993Z</time></trkpt><trkpt lat="44.0810583" lon="11.7013617"><ele>395.0</ele><time>2026-04-18T11:53:51.993Z</time></trkpt><trkpt lat="44.081005" lon="11.7012733"><ele>395.0</ele><time>2026-04-18T11:53:52.993Z</time></trkpt><trkpt lat="44.0809333" lon="11.701205"><ele>395.0</ele><time>2026-04-18T11:53:53.993Z</time></trkpt><trkpt lat="44.080845" lon="11.701135"><ele>395.0</ele><time>2026-04-18T11:53:54.992Z</time></trkpt><trkpt lat="44.0807517" lon="11.7010383"><ele>395.0</ele><time>2026-04-18T11:53:55.992Z</time></trkpt><trkpt lat="44.0806667" lon="11.7009117"><ele>394.5</ele><time>2026-04-18T11:53:56.992Z</time></trkpt><trkpt lat="44.0805833" lon="11.7007667"><ele>394.0</ele><time>2026-04-18T11:53:57.993Z</time></trkpt><trkpt lat="44.080505" lon="11.7006117"><ele>393.5</ele><time>2026-04-18T11:53:58.993Z</time></trkpt><trkpt lat="44.08043" lon="11.7004467"><ele>393.0</ele><time>2026-04-18T11:53:59.993Z</time></trkpt><trkpt lat="44.08036" lon="11.7002733"><ele>394.0</ele><time>2026-04-18T11:54:00.992Z</time></trkpt><trkpt lat="44.080285" lon="11.7000967"><ele>395.0</ele><time>2026-04-18T11:54:01.993Z</time></trkpt><trkpt lat="44.0802133" lon="11.699915"><ele>396.0</ele><time>2026-04-18T11:54:02.993Z</time></trkpt><trkpt lat="44.0801433" lon="11.69973"><ele>397.0</ele><time>2026-04-18T11:54:03.992Z</time></trkpt><trkpt lat="44.0800617" lon="11.699545"><ele>396.6666666666667</ele><time>2026-04-18T11:54:04.993Z</time></trkpt><trkpt lat="44.0799717" lon="11.6993733"><ele>396.33333333333337</ele><time>2026-04-18T11:54:05.993Z</time></trkpt><trkpt lat="44.079875" lon="11.6992017"><ele>396.0</ele><time>2026-04-18T11:54:06.992Z</time></trkpt><trkpt lat="44.07978" lon="11.6990217"><ele>396.0</ele><time>2026-04-18T11:54:07.993Z</time></trkpt><trkpt lat="44.0796867" lon="11.698835"><ele>396.0</ele><time>2026-04-18T11:54:08.992Z</time></trkpt><trkpt lat="44.0795933" lon="11.698645"><ele>396.0</ele><time>2026-04-18T11:54:09.993Z</time></trkpt><trkpt lat="44.0794983" lon="11.6984617"><ele>398.66666666666663</ele><time>2026-04-18T11:54:10.993Z</time></trkpt><trkpt lat="44.0794067" lon="11.6982817"><ele>401.3333333333333</ele><time>2026-04-18T11:54:11.992Z</time></trkpt><trkpt lat="44.07931" lon="11.6981067"><ele>404.0</ele><time>2026-04-18T11:54:12.992Z</time></trkpt><trkpt lat="44.0792083" lon="11.69794"><ele>404.0</ele><time>2026-04-18T11:54:13.992Z</time></trkpt><trkpt lat="44.0791017" lon="11.6977983"><ele>404.0</ele><time>2026-04-18T11:54:14.993Z</time></trkpt><trkpt lat="44.0789933" lon="11.6976467"><ele>404.0</ele><time>2026-04-18T11:54:15.992Z</time></trkpt><trkpt lat="44.0788883" lon="11.6974833"><ele>403.25</ele><time>2026-04-18T11:54:16.992Z</time></trkpt><trkpt lat="44.0787883" lon="11.69733"><ele>402.5</ele><time>2026-04-18T11:54:17.992Z</time></trkpt><trkpt lat="44.0786967" lon="11.6971817"><ele>401.75</ele><time>2026-04-18T11:54:18.992Z</time></trkpt><trkpt lat="44.078605" lon="11.6970267"><ele>401.0</ele><time>2026-04-18T11:54:19.994Z</time></trkpt><trkpt lat="44.07851" lon="11.6968683"><ele>400.3333333333333</ele><time>2026-04-18T11:54:20.993Z</time></trkpt><trkpt lat="44.0784117" lon="11.696705"><ele>399.66666666666663</ele><time>2026-04-18T11:54:21.992Z</time></trkpt><trkpt lat="44.07831" lon="11.6965417"><ele>399.0</ele><time>2026-04-18T11:54:22.993Z</time></trkpt><trkpt lat="44.0782117" lon="11.6963767"><ele>399.0</ele><time>2026-04-18T11:54:23.993Z</time></trkpt><trkpt lat="44.07811" lon="11.69621"><ele>399.0</ele><time>2026-04-18T11:54:24.994Z</time></trkpt><trkpt lat="44.0780133" lon="11.6960533"><ele>399.0</ele><time>2026-04-18T11:54:25.993Z</time></trkpt><trkpt lat="44.0779217" lon="11.69591"><ele>399.0</ele><time>2026-04-18T11:54:26.993Z</time></trkpt><trkpt lat="44.077855" lon="11.6957733"><ele>400.2</ele><time>2026-04-18T11:54:27.992Z</time></trkpt><trkpt lat="44.07781" lon="11.6956617"><ele>401.4</ele><time>2026-04-18T11:54:28.993Z</time></trkpt><trkpt lat="44.077785" lon="11.6955417"><ele>402.6</ele><time>2026-04-18T11:54:29.992Z</time></trkpt><trkpt lat="44.077785" lon="11.695415"><ele>403.8</ele><time>2026-04-18T11:54:30.992Z</time></trkpt><trkpt lat="44.07781" lon="11.69528"><ele>405.0</ele><time>2026-04-18T11:54:31.993Z</time></trkpt><trkpt lat="44.0778333" lon="11.695135"><ele>406.4</ele><time>2026-04-18T11:54:32.993Z</time></trkpt><trkpt lat="44.0778367" lon="11.694985"><ele>407.8</ele><time>2026-04-18T11:54:33.993Z</time></trkpt><trkpt lat="44.077815" lon="11.6948483"><ele>409.20000000000005</ele><time>2026-04-18T11:54:34.992Z</time></trkpt><trkpt lat="44.07777" lon="11.694745"><ele>410.6</ele><time>2026-04-18T11:54:35.992Z</time></trkpt><trkpt lat="44.077705" lon="11.6946767"><ele>412.0</ele><time>2026-04-18T11:54:36.993Z</time></trkpt><trkpt lat="44.0776217" lon="11.6946317"><ele>412.0</ele><time>2026-04-18T11:54:37.993Z</time></trkpt><trkpt lat="44.077525" lon="11.694605"><ele>412.0</ele><time>2026-04-18T11:54:38.994Z</time></trkpt><trkpt lat="44.0774267" lon="11.6945467"><ele>412.0</ele><time>2026-04-18T11:54:39.992Z</time></trkpt><trkpt lat="44.0773483" lon="11.69446"><ele>412.0</ele><time>2026-04-18T11:54:40.992Z</time></trkpt><trkpt lat="44.0772783" lon="11.6943417"><ele>412.0</ele><time>2026-04-18T11:54:41.992Z</time></trkpt><trkpt lat="44.0772033" lon="11.6941933"><ele>413.6666666666667</ele><time>2026-04-18T11:54:42.993Z</time></trkpt><trkpt lat="44.0771267" lon="11.69403"><ele>415.33333333333337</ele><time>2026-04-18T11:54:43.993Z</time></trkpt><trkpt lat="44.0770417" lon="11.6938533"><ele>417.0</ele><time>2026-04-18T11:54:44.992Z</time></trkpt><trkpt lat="44.0769483" lon="11.6936617"><ele>421.33333333333337</ele><time>2026-04-18T11:54:45.992Z</time></trkpt><trkpt lat="44.0768533" lon="11.69347"><ele>425.6666666666667</ele><time>2026-04-18T11:54:46.993Z</time></trkpt><trkpt lat="44.0767567" lon="11.6932717"><ele>430.0</ele><time>2026-04-18T11:54:47.992Z</time></trkpt><trkpt lat="44.0766567" lon="11.6930733"><ele>426.75</ele><time>2026-04-18T11:54:48.993Z</time></trkpt><trkpt lat="44.07656" lon="11.6928883"><ele>423.5</ele><time>2026-04-18T11:54:49.993Z</time></trkpt><trkpt lat="44.076475" lon="11.6927267"><ele>420.25</ele><time>2026-04-18T11:54:50.992Z</time></trkpt><trkpt lat="44.0764133" lon="11.6925883"><ele>417.0</ele><time>2026-04-18T11:54:51.993Z</time></trkpt><trkpt lat="44.0763767" lon="11.692445"><ele>417.0</ele><time>2026-04-18T11:54:52.991Z</time></trkpt><trkpt lat="44.0763583" lon="11.6922733"><ele>417.0</ele><time>2026-04-18T11:54:53.993Z</time></trkpt><trkpt lat="44.076335" lon="11.6920983"><ele>417.0</ele><time>2026-04-18T11:54:54.992Z</time></trkpt><trkpt lat="44.0762833" lon="11.6919467"><ele>417.0</ele><time>2026-04-18T11:54:55.992Z</time></trkpt><trkpt lat="44.0762083" lon="11.69182"><ele>417.0</ele><time>2026-04-18T11:54:56.992Z</time></trkpt><trkpt lat="44.0761033" lon="11.691705"><ele>417.0</ele><time>2026-04-18T11:54:57.993Z</time></trkpt><trkpt lat="44.075985" lon="11.6915883"><ele>417.0</ele><time>2026-04-18T11:54:58.993Z</time></trkpt><trkpt lat="44.0758683" lon="11.6914533"><ele>417.0</ele><time>2026-04-18T11:54:59.992Z</time></trkpt><trkpt lat="44.0757633" lon="11.691305"><ele>417.0</ele><time>2026-04-18T11:55:00.993Z</time></trkpt><trkpt lat="44.0756567" lon="11.691145"><ele>417.0</ele><time>2026-04-18T11:55:01.993Z</time></trkpt><trkpt lat="44.07555" lon="11.6909817"><ele>417.0</ele><time>2026-04-18T11:55:02.992Z</time></trkpt><trkpt lat="44.075445" lon="11.6908117"><ele>422.0</ele><time>2026-04-18T11:55:03.992Z</time></trkpt><trkpt lat="44.075335" lon="11.69064"><ele>427.0</ele><time>2026-04-18T11:55:04.992Z</time></trkpt><trkpt lat="44.07522" lon="11.69047"><ele>432.0</ele><time>2026-04-18T11:55:05.992Z</time></trkpt><trkpt lat="44.0751067" lon="11.6903133"><ele>430.0</ele><time>2026-04-18T11:55:06.992Z</time></trkpt><trkpt lat="44.0749967" lon="11.6901817"><ele>428.0</ele><time>2026-04-18T11:55:07.993Z</time></trkpt><trkpt lat="44.0748933" lon="11.6900783"><ele>426.0</ele><time>2026-04-18T11:55:08.994Z</time></trkpt><trkpt lat="44.0748017" lon="11.68999"><ele>424.0</ele><time>2026-04-18T11:55:09.992Z</time></trkpt><trkpt lat="44.074735" lon="11.6899183"><ele>424.0</ele><time>2026-04-18T11:55:10.992Z</time></trkpt><trkpt lat="44.0746667" lon="11.6898333"><ele>424.0</ele><time>2026-04-18T11:55:12.993Z</time></trkpt><trkpt lat="44.0746067" lon="11.6896683"><ele>424.0</ele><time>2026-04-18T11:55:54.992Z</time></trkpt><trkpt lat="44.07453" lon="11.689515"><ele>424.0</ele><time>2026-04-18T11:55:56.993Z</time></trkpt><trkpt lat="44.0744917" lon="11.6894167"><ele>424.0</ele><time>2026-04-18T11:55:57.994Z</time></trkpt><trkpt lat="44.0744833" lon="11.6893267"><ele>425.5714285714286</ele><time>2026-04-18T11:55:58.992Z</time></trkpt><trkpt lat="44.0744983" lon="11.68924"><ele>427.1428571428571</ele><time>2026-04-18T11:55:59.992Z</time></trkpt><trkpt lat="44.0745233" lon="11.6891517"><ele>428.7142857142857</ele><time>2026-04-18T11:56:00.993Z</time></trkpt><trkpt lat="44.074555" lon="11.6890533"><ele>430.28571428571433</ele><time>2026-04-18T11:56:01.992Z</time></trkpt><trkpt lat="44.0746" lon="11.6889733"><ele>431.8571428571429</ele><time>2026-04-18T11:56:02.994Z</time></trkpt><trkpt lat="44.0746917" lon="11.6889267"><ele>433.42857142857144</ele><time>2026-04-18T11:56:04.992Z</time></trkpt><trkpt lat="44.07474" lon="11.6889833"><ele>435.0</ele><time>2026-04-18T11:56:06.992Z</time></trkpt><trkpt lat="44.0747167" lon="11.689085"><ele>435.0</ele><time>2026-04-18T11:56:08.994Z</time></trkpt><trkpt lat="44.0746933" lon="11.68925"><ele>435.0</ele><time>2026-04-18T11:56:10.993Z</time></trkpt><trkpt lat="44.0746883" lon="11.6893417"><ele>435.0</ele><time>2026-04-18T11:56:11.993Z</time></trkpt><trkpt lat="44.0746917" lon="11.6894367"><ele>435.0</ele><time>2026-04-18T11:56:12.993Z</time></trkpt><trkpt lat="44.0747517" lon="11.689595"><ele>435.0</ele><time>2026-04-18T11:56:14.993Z</time></trkpt><trkpt lat="44.0748083" lon="11.6896683"><ele>432.8</ele><time>2026-04-18T11:56:15.994Z</time></trkpt><trkpt lat="44.0748633" lon="11.689735"><ele>430.6</ele><time>2026-04-18T11:56:16.993Z</time></trkpt><trkpt lat="44.0749217" lon="11.6898117"><ele>428.4</ele><time>2026-04-18T11:56:17.992Z</time></trkpt><trkpt lat="44.0750183" lon="11.6898733"><ele>426.2</ele><time>2026-04-18T11:56:18.992Z</time></trkpt><trkpt lat="44.0751233" lon="11.6899483"><ele>424.0</ele><time>2026-04-18T11:56:19.993Z</time></trkpt><trkpt lat="44.0752133" lon="11.690035"><ele>426.0</ele><time>2026-04-18T11:56:20.994Z</time></trkpt><trkpt lat="44.07531" lon="11.69014"><ele>428.0</ele><time>2026-04-18T11:56:21.992Z</time></trkpt><trkpt lat="44.0754133" lon="11.690235"><ele>430.0</ele><time>2026-04-18T11:56:22.992Z</time></trkpt><trkpt lat="44.0755183" lon="11.6903217"><ele>432.0</ele><time>2026-04-18T11:56:23.993Z</time></trkpt><trkpt lat="44.07562" lon="11.6904117"><ele>432.0</ele><time>2026-04-18T11:56:24.995Z</time></trkpt><trkpt lat="44.0757167" lon="11.6905183"><ele>432.00000000000006</ele><time>2026-04-18T11:56:25.995Z</time></trkpt><trkpt lat="44.0758" lon="11.6906267"><ele>432.00000000000006</ele><time>2026-04-18T11:56:26.993Z</time></trkpt><trkpt lat="44.0758667" lon="11.690725"><ele>432.0</ele><time>2026-04-18T11:56:27.993Z</time></trkpt><trkpt lat="44.0759233" lon="11.6907967"><ele>432.0</ele><time>2026-04-18T11:56:28.992Z</time></trkpt><trkpt lat="44.0760333" lon="11.6908167"><ele>436.40000000000003</ele><time>2026-04-18T11:56:30.993Z</time></trkpt><trkpt lat="44.0761233" lon="11.690715"><ele>440.80000000000007</ele><time>2026-04-18T11:56:32.992Z</time></trkpt><trkpt lat="44.0761667" lon="11.6906283"><ele>445.2</ele><time>2026-04-18T11:56:33.993Z</time></trkpt><trkpt lat="44.0762133" lon="11.6905317"><ele>449.6</ele><time>2026-04-18T11:56:34.992Z</time></trkpt><trkpt lat="44.076245" lon="11.690415"><ele>454.0</ele><time>2026-04-18T11:56:35.993Z</time></trkpt><trkpt lat="44.0762467" lon="11.6902867"><ele>457.79999999999995</ele><time>2026-04-18T11:56:36.992Z</time></trkpt><trkpt lat="44.0762333" lon="11.690155"><ele>461.59999999999997</ele><time>2026-04-18T11:56:37.992Z</time></trkpt><trkpt lat="44.0762217" lon="11.6900167"><ele>465.4</ele><time>2026-04-18T11:56:38.993Z</time></trkpt><trkpt lat="44.0761967" lon="11.6898733"><ele>469.2</ele><time>2026-04-18T11:56:39.993Z</time></trkpt><trkpt lat="44.0761767" lon="11.6897217"><ele>473.0</ele><time>2026-04-18T11:56:40.993Z</time></trkpt><trkpt lat="44.07617" lon="11.689555"><ele>473.75</ele><time>2026-04-18T11:56:41.992Z</time></trkpt><trkpt lat="44.0761767" lon="11.6893833"><ele>474.5</ele><time>2026-04-18T11:56:42.993Z</time></trkpt><trkpt lat="44.0761917" lon="11.6892083"><ele>475.25</ele><time>2026-04-18T11:56:43.993Z</time></trkpt><trkpt lat="44.076215" lon="11.68904"><ele>476.0</ele><time>2026-04-18T11:56:44.992Z</time></trkpt><trkpt lat="44.0762417" lon="11.6888667"><ele>476.0</ele><time>2026-04-18T11:56:45.994Z</time></trkpt><trkpt lat="44.07627" lon="11.688685"><ele>476.0</ele><time>2026-04-18T11:56:46.993Z</time></trkpt><trkpt lat="44.0763083" lon="11.6885017"><ele>476.0</ele><time>2026-04-18T11:56:47.992Z</time></trkpt><trkpt lat="44.0763517" lon="11.6883217"><ele>476.0</ele><time>2026-04-18T11:56:48.993Z</time></trkpt><trkpt lat="44.07639" lon="11.6881533"><ele>475.5</ele><time>2026-04-18T11:56:49.992Z</time></trkpt><trkpt lat="44.0764183" lon="11.6879883"><ele>475.0</ele><time>2026-04-18T11:56:50.993Z</time></trkpt><trkpt lat="44.0764617" lon="11.6878483"><ele>474.5</ele><time>2026-04-18T11:56:51.992Z</time></trkpt><trkpt lat="44.076525" lon="11.6877183"><ele>474.0</ele><time>2026-04-18T11:56:52.992Z</time></trkpt><trkpt lat="44.0766033" lon="11.687585"><ele>474.0</ele><time>2026-04-18T11:56:53.992Z</time></trkpt><trkpt lat="44.0766817" lon="11.6874433"><ele>474.0</ele><time>2026-04-18T11:56:54.993Z</time></trkpt><trkpt lat="44.076755" lon="11.6872917"><ele>474.0</ele><time>2026-04-18T11:56:55.992Z</time></trkpt><trkpt lat="44.0768183" lon="11.6871317"><ele>474.0</ele><time>2026-04-18T11:56:56.992Z</time></trkpt><trkpt lat="44.0768733" lon="11.686975"><ele>472.75</ele><time>2026-04-18T11:56:57.993Z</time></trkpt><trkpt lat="44.0769333" lon="11.6868183"><ele>471.5</ele><time>2026-04-18T11:56:58.992Z</time></trkpt><trkpt lat="44.0769983" lon="11.6866483"><ele>470.25</ele><time>2026-04-18T11:56:59.993Z</time></trkpt><trkpt lat="44.0770583" lon="11.6864717"><ele>469.0</ele><time>2026-04-18T11:57:00.992Z</time></trkpt><trkpt lat="44.077115" lon="11.6862833"><ele>469.5</ele><time>2026-04-18T11:57:01.992Z</time></trkpt><trkpt lat="44.0771817" lon="11.6860917"><ele>470.0</ele><time>2026-04-18T11:57:02.993Z</time></trkpt><trkpt lat="44.0772567" lon="11.685915"><ele>470.5</ele><time>2026-04-18T11:57:03.992Z</time></trkpt><trkpt lat="44.0773083" lon="11.685755"><ele>471.0</ele><time>2026-04-18T11:57:04.993Z</time></trkpt><trkpt lat="44.0773317" lon="11.6856117"><ele>471.0</ele><time>2026-04-18T11:57:05.993Z</time></trkpt><trkpt lat="44.0773567" lon="11.685495"><ele>471.0</ele><time>2026-04-18T11:57:06.992Z</time></trkpt><trkpt lat="44.0774333" lon="11.6853733"><ele>471.0</ele><time>2026-04-18T11:57:08.994Z</time></trkpt><trkpt lat="44.0774883" lon="11.6853267"><ele>471.0</ele><time>2026-04-18T11:57:09.993Z</time></trkpt><trkpt lat="44.0775683" lon="11.68526"><ele>471.0</ele><time>2026-04-18T11:57:10.992Z</time></trkpt><trkpt lat="44.0776517" lon="11.6851817"><ele>476.5</ele><time>2026-04-18T11:57:11.993Z</time></trkpt><trkpt lat="44.0777183" lon="11.68507"><ele>482.0</ele><time>2026-04-18T11:57:12.993Z</time></trkpt><trkpt lat="44.07778" lon="11.6849333"><ele>487.5</ele><time>2026-04-18T11:57:13.993Z</time></trkpt><trkpt lat="44.0778283" lon="11.68478"><ele>493.0</ele><time>2026-04-18T11:57:14.992Z</time></trkpt><trkpt lat="44.077865" lon="11.6846083"><ele>493.0</ele><time>2026-04-18T11:57:15.993Z</time></trkpt><trkpt lat="44.0778917" lon="11.6844467"><ele>492.99999999999994</ele><time>2026-04-18T11:57:16.992Z</time></trkpt><trkpt lat="44.07789" lon="11.6843033"><ele>492.99999999999994</ele><time>2026-04-18T11:57:17.992Z</time></trkpt><trkpt lat="44.0778683" lon="11.6841633"><ele>493.0</ele><time>2026-04-18T11:57:18.992Z</time></trkpt><trkpt lat="44.077825" lon="11.684025"><ele>493.0</ele><time>2026-04-18T11:57:19.992Z</time></trkpt><trkpt lat="44.0777883" lon="11.683905"><ele>492.79999999999995</ele><time>2026-04-18T11:57:20.992Z</time></trkpt><trkpt lat="44.0777817" lon="11.6838033"><ele>492.59999999999997</ele><time>2026-04-18T11:57:21.992Z</time></trkpt><trkpt lat="44.0777883" lon="11.6836417"><ele>492.40000000000003</ele><time>2026-04-18T11:57:23.994Z</time></trkpt><trkpt lat="44.0778267" lon="11.6835567"><ele>492.20000000000005</ele><time>2026-04-18T11:57:24.995Z</time></trkpt><trkpt lat="44.0779483" lon="11.683465"><ele>492.0</ele><time>2026-04-18T11:57:25.992Z</time></trkpt><trkpt lat="44.0780283" lon="11.68339"><ele>491.5</ele><time>2026-04-18T11:57:26.994Z</time></trkpt><trkpt lat="44.07812" lon="11.6833117"><ele>491.0</ele><time>2026-04-18T11:57:27.993Z</time></trkpt><trkpt lat="44.0782017" lon="11.6832383"><ele>490.5</ele><time>2026-04-18T11:57:28.993Z</time></trkpt><trkpt lat="44.0782817" lon="11.6832067"><ele>490.0</ele><time>2026-04-18T11:57:29.992Z</time></trkpt><trkpt lat="44.0783617" lon="11.6832417"><ele>489.5</ele><time>2026-04-18T11:57:31.992Z</time></trkpt><trkpt lat="44.0784" lon="11.68332"><ele>489.0</ele><time>2026-04-18T11:57:34.994Z</time></trkpt><trkpt lat="44.0782883" lon="11.6834317"><ele>489.0</ele><time>2026-04-18T11:57:36.993Z</time></trkpt><trkpt lat="44.078225" lon="11.6835083"><ele>489.0</ele><time>2026-04-18T11:57:37.993Z</time></trkpt><trkpt lat="44.078175" lon="11.6835983"><ele>489.0</ele><time>2026-04-18T11:57:38.992Z</time></trkpt><trkpt lat="44.0781667" lon="11.6837633"><ele>489.0</ele><time>2026-04-18T11:57:40.992Z</time></trkpt><trkpt lat="44.0782433" lon="11.6839483"><ele>489.0</ele><time>2026-04-18T11:57:42.992Z</time></trkpt><trkpt lat="44.0783183" lon="11.68406"><ele>496.2</ele><time>2026-04-18T11:57:43.992Z</time></trkpt><trkpt lat="44.0783817" lon="11.6841767"><ele>503.4</ele><time>2026-04-18T11:57:44.993Z</time></trkpt><trkpt lat="44.0784283" lon="11.68428"><ele>510.6</ele><time>2026-04-18T11:57:45.992Z</time></trkpt><trkpt lat="44.0784717" lon="11.6843717"><ele>517.8</ele><time>2026-04-18T11:57:46.993Z</time></trkpt><trkpt lat="44.0785183" lon="11.6844783"><ele>525.0</ele><time>2026-04-18T11:57:47.992Z</time></trkpt><trkpt lat="44.0784967" lon="11.6846667"><ele>525.0</ele><time>2026-04-18T11:57:48.993Z</time></trkpt><trkpt lat="44.0784833" lon="11.684835"><ele>525.0</ele><time>2026-04-18T11:57:49.992Z</time></trkpt><trkpt lat="44.0784667" lon="11.6849967"><ele>525.0</ele><time>2026-04-18T11:57:50.992Z</time></trkpt><trkpt lat="44.0784433" lon="11.68512"><ele>525.0</ele><time>2026-04-18T11:57:51.993Z</time></trkpt><trkpt lat="44.07844" lon="11.685215"><ele>525.0</ele><time>2026-04-18T11:57:52.994Z</time></trkpt><trkpt lat="44.078495" lon="11.6852933"><ele>525.0</ele><time>2026-04-18T11:57:54.992Z</time></trkpt><trkpt lat="44.0784667" lon="11.6851817"><ele>525.0</ele><time>2026-04-18T11:57:57.992Z</time></trkpt><trkpt lat="44.0784633" lon="11.6850283"><ele>525.0</ele><time>2026-04-18T11:57:59.992Z</time></trkpt><trkpt lat="44.078535" lon="11.684905"><ele>525.0</ele><time>2026-04-18T11:58:00.992Z</time></trkpt><trkpt lat="44.0785933" lon="11.6847783"><ele>525.0</ele><time>2026-04-18T11:58:01.993Z</time></trkpt><trkpt lat="44.07865" lon="11.68463"><ele>525.0</ele><time>2026-04-18T11:58:02.994Z</time></trkpt><trkpt lat="44.078685" lon="11.6844667"><ele>525.0</ele><time>2026-04-18T11:58:03.994Z</time></trkpt><trkpt lat="44.0786883" lon="11.684305"><ele>525.0</ele><time>2026-04-18T11:58:04.995Z</time></trkpt><trkpt lat="44.07866" lon="11.6841633"><ele>525.0</ele><time>2026-04-18T11:58:05.994Z</time></trkpt><trkpt lat="44.0786467" lon="11.684045"><ele>525.0</ele><time>2026-04-18T11:58:06.992Z</time></trkpt><trkpt lat="44.0786467" lon="11.6839067"><ele>525.3333333333334</ele><time>2026-04-18T11:58:08.992Z</time></trkpt><trkpt lat="44.0786667" lon="11.6837983"><ele>525.6666666666666</ele><time>2026-04-18T11:58:10.993Z</time></trkpt><trkpt lat="44.0787417" lon="11.683745"><ele>526.0</ele><time>2026-04-18T11:58:11.994Z</time></trkpt><trkpt lat="44.0788067" lon="11.6836883"><ele>526.3333333333333</ele><time>2026-04-18T11:58:12.994Z</time></trkpt><trkpt lat="44.07889" lon="11.6836417"><ele>526.6666666666666</ele><time>2026-04-18T11:58:13.994Z</time></trkpt><trkpt lat="44.0789667" lon="11.6836083"><ele>527.0</ele><time>2026-04-18T11:58:14.993Z</time></trkpt><trkpt lat="44.0790417" lon="11.6835733"><ele>531.6666666666666</ele><time>2026-04-18T11:58:15.992Z</time></trkpt><trkpt lat="44.079105" lon="11.6835417"><ele>536.3333333333333</ele><time>2026-04-18T11:58:16.992Z</time></trkpt><trkpt lat="44.07918" lon="11.6834883"><ele>541.0</ele><time>2026-04-18T11:58:18.992Z</time></trkpt><trkpt lat="44.0792467" lon="11.6834267"><ele>545.6666666666666</ele><time>2026-04-18T11:58:21.992Z</time></trkpt><trkpt lat="44.079285" lon="11.6833217"><ele>550.3333333333334</ele><time>2026-04-18T11:58:23.993Z</time></trkpt><trkpt lat="44.0792883" lon="11.68319"><ele>555.0</ele><time>2026-04-18T11:58:25.992Z</time></trkpt><trkpt lat="44.0792617" lon="11.6830383"><ele>555.0</ele><time>2026-04-18T11:58:27.992Z</time></trkpt><trkpt lat="44.07922" lon="11.6828767"><ele>555.0</ele><time>2026-04-18T11:58:29.993Z</time></trkpt><trkpt lat="44.0792033" lon="11.6827283"><ele>555.0</ele><time>2026-04-18T11:58:31.995Z</time></trkpt><trkpt lat="44.079245" lon="11.6825667"><ele>555.0</ele><time>2026-04-18T11:58:33.992Z</time></trkpt><trkpt lat="44.07929" lon="11.682475"><ele>555.0</ele><time>2026-04-18T11:58:34.993Z</time></trkpt><trkpt lat="44.07934" lon="11.682385"><ele>554.4</ele><time>2026-04-18T11:58:35.993Z</time></trkpt><trkpt lat="44.079385" lon="11.68228"><ele>553.8</ele><time>2026-04-18T11:58:36.996Z</time></trkpt><trkpt lat="44.0794433" lon="11.68217"><ele>553.2</ele><time>2026-04-18T11:58:37.992Z</time></trkpt><trkpt lat="44.07951" lon="11.6820517"><ele>552.6</ele><time>2026-04-18T11:58:38.994Z</time></trkpt><trkpt lat="44.079565" lon="11.6819083"><ele>552.0</ele><time>2026-04-18T11:58:39.993Z</time></trkpt><trkpt lat="44.0795883" lon="11.6817517"><ele>551.75</ele><time>2026-04-18T11:58:40.992Z</time></trkpt><trkpt lat="44.079605" lon="11.6815883"><ele>551.5</ele><time>2026-04-18T11:58:41.993Z</time></trkpt><trkpt lat="44.079615" lon="11.6814183"><ele>551.25</ele><time>2026-04-18T11:58:42.993Z</time></trkpt><trkpt lat="44.0796283" lon="11.68125"><ele>551.0</ele><time>2026-04-18T11:58:43.992Z</time></trkpt><trkpt lat="44.0796333" lon="11.6810783"><ele>551.6</ele><time>2026-04-18T11:58:44.994Z</time></trkpt><trkpt lat="44.079625" lon="11.680925"><ele>552.2</ele><time>2026-04-18T11:58:45.993Z</time></trkpt><trkpt lat="44.0796267" lon="11.680775"><ele>552.8</ele><time>2026-04-18T11:58:46.993Z</time></trkpt><trkpt lat="44.07963" lon="11.68064"><ele>553.4</ele><time>2026-04-18T11:58:47.992Z</time></trkpt><trkpt lat="44.07962" lon="11.6805033"><ele>554.0</ele><time>2026-04-18T11:58:48.992Z</time></trkpt><trkpt lat="44.0795933" lon="11.6803767"><ele>554.4</ele><time>2026-04-18T11:58:49.993Z</time></trkpt><trkpt lat="44.07957" lon="11.6802517"><ele>554.8</ele><time>2026-04-18T11:58:50.993Z</time></trkpt><trkpt lat="44.0795633" lon="11.6801233"><ele>555.2</ele><time>2026-04-18T11:58:51.993Z</time></trkpt><trkpt lat="44.0795633" lon="11.680005"><ele>555.6</ele><time>2026-04-18T11:58:52.993Z</time></trkpt><trkpt lat="44.0795717" lon="11.6799067"><ele>556.0</ele><time>2026-04-18T11:58:53.993Z</time></trkpt><trkpt lat="44.07964" lon="11.6797733"><ele>556.0</ele><time>2026-04-18T11:58:55.992Z</time></trkpt><trkpt lat="44.0797067" lon="11.6797167"><ele>556.0</ele><time>2026-04-18T11:58:56.992Z</time></trkpt><trkpt lat="44.079785" lon="11.6796533"><ele>556.0</ele><time>2026-04-18T11:58:57.992Z</time></trkpt><trkpt lat="44.0798533" lon="11.67957"><ele>556.0</ele><time>2026-04-18T11:58:58.993Z</time></trkpt><trkpt lat="44.0799117" lon="11.67947"><ele>556.0</ele><time>2026-04-18T11:58:59.994Z</time></trkpt><trkpt lat="44.079955" lon="11.6793467"><ele>554.6</ele><time>2026-04-18T11:59:00.992Z</time></trkpt><trkpt lat="44.0799867" lon="11.6792317"><ele>553.2</ele><time>2026-04-18T11:59:01.993Z</time></trkpt><trkpt lat="44.0799817" lon="11.6791017"><ele>551.8</ele><time>2026-04-18T11:59:02.993Z</time></trkpt><trkpt lat="44.0799483" lon="11.67897"><ele>550.4</ele><time>2026-04-18T11:59:03.993Z</time></trkpt><trkpt lat="44.07991" lon="11.6788467"><ele>549.0</ele><time>2026-04-18T11:59:04.993Z</time></trkpt><trkpt lat="44.0798783" lon="11.678725"><ele>551.25</ele><time>2026-04-18T11:59:05.993Z</time></trkpt><trkpt lat="44.0798267" lon="11.6785817"><ele>553.5</ele><time>2026-04-18T11:59:06.993Z</time></trkpt><trkpt lat="44.0797667" lon="11.6784183"><ele>555.75</ele><time>2026-04-18T11:59:07.993Z</time></trkpt><trkpt lat="44.0797017" lon="11.6782883"><ele>558.0</ele><time>2026-04-18T11:59:08.994Z</time></trkpt><trkpt lat="44.0796633" lon="11.6781483"><ele>558.0</ele><time>2026-04-18T11:59:09.993Z</time></trkpt><trkpt lat="44.0796283" lon="11.6779983"><ele>558.0</ele><time>2026-04-18T11:59:10.993Z</time></trkpt><trkpt lat="44.0796083" lon="11.67787"><ele>558.0</ele><time>2026-04-18T11:59:11.993Z</time></trkpt><trkpt lat="44.0795983" lon="11.67775"><ele>558.0</ele><time>2026-04-18T11:59:12.993Z</time></trkpt><trkpt lat="44.0796033" lon="11.677615"><ele>558.0</ele><time>2026-04-18T11:59:13.994Z</time></trkpt><trkpt lat="44.0796317" lon="11.6774567"><ele>561.1999999999999</ele><time>2026-04-18T11:59:14.994Z</time></trkpt><trkpt lat="44.07966" lon="11.6772983"><ele>564.4</ele><time>2026-04-18T11:59:15.993Z</time></trkpt><trkpt lat="44.0796667" lon="11.6771483"><ele>567.5999999999999</ele><time>2026-04-18T11:59:16.998Z</time></trkpt><trkpt lat="44.07966" lon="11.6770133"><ele>570.8</ele><time>2026-04-18T11:59:17.993Z</time></trkpt><trkpt lat="44.0796483" lon="11.6768983"><ele>574.0</ele><time>2026-04-18T11:59:18.993Z</time></trkpt><trkpt lat="44.079635" lon="11.6768033"><ele>577.0</ele><time>2026-04-18T11:59:19.993Z</time></trkpt><trkpt lat="44.07958" lon="11.6767"><ele>580.0</ele><time>2026-04-18T11:59:20.994Z</time></trkpt><trkpt lat="44.07957" lon="11.6765967"><ele>583.0</ele><time>2026-04-18T11:59:21.994Z</time></trkpt><trkpt lat="44.07954" lon="11.67649"><ele>586.0</ele><time>2026-04-18T11:59:22.992Z</time></trkpt><trkpt lat="44.0794767" lon="11.676405"><ele>589.0</ele><time>2026-04-18T11:59:23.995Z</time></trkpt><trkpt lat="44.0794083" lon="11.6763183"><ele>592.0</ele><time>2026-04-18T11:59:24.993Z</time></trkpt><trkpt lat="44.07933" lon="11.6762117"><ele>592.0</ele><time>2026-04-18T11:59:25.992Z</time></trkpt><trkpt lat="44.07924" lon="11.6761233"><ele>592.0</ele><time>2026-04-18T11:59:26.993Z</time></trkpt><trkpt lat="44.07915" lon="11.6760333"><ele>592.0</ele><time>2026-04-18T11:59:27.993Z</time></trkpt><trkpt lat="44.0790617" lon="11.67593"><ele>592.0</ele><time>2026-04-18T11:59:28.992Z</time></trkpt><trkpt lat="44.0789783" lon="11.67582"><ele>590.6</ele><time>2026-04-18T11:59:29.995Z</time></trkpt><trkpt lat="44.0789133" lon="11.67571"><ele>589.2</ele><time>2026-04-18T11:59:30.992Z</time></trkpt><trkpt lat="44.0788533" lon="11.675585"><ele>587.8</ele><time>2026-04-18T11:59:31.993Z</time></trkpt><trkpt lat="44.0788167" lon="11.6754483"><ele>586.4</ele><time>2026-04-18T11:59:32.993Z</time></trkpt><trkpt lat="44.0787867" lon="11.67529"><ele>585.0</ele><time>2026-04-18T11:59:33.992Z</time></trkpt><trkpt lat="44.0787567" lon="11.675125"><ele>589.5</ele><time>2026-04-18T11:59:34.992Z</time></trkpt><trkpt lat="44.0787083" lon="11.6749667"><ele>594.0</ele><time>2026-04-18T11:59:35.993Z</time></trkpt><trkpt lat="44.0786567" lon="11.6748117"><ele>598.5</ele><time>2026-04-18T11:59:36.993Z</time></trkpt><trkpt lat="44.0786" lon="11.6746583"><ele>603.0</ele><time>2026-04-18T11:59:37.993Z</time></trkpt><trkpt lat="44.0785383" lon="11.67451"><ele>604.0</ele><time>2026-04-18T11:59:38.994Z</time></trkpt><trkpt lat="44.0784783" lon="11.6743633"><ele>605.0</ele><time>2026-04-18T11:59:39.993Z</time></trkpt><trkpt lat="44.0784083" lon="11.6742267"><ele>606.0</ele><time>2026-04-18T11:59:40.993Z</time></trkpt><trkpt lat="44.0783283" lon="11.6741083"><ele>607.0</ele><time>2026-04-18T11:59:41.994Z</time></trkpt><trkpt lat="44.0782433" lon="11.6739967"><ele>607.0</ele><time>2026-04-18T11:59:42.993Z</time></trkpt><trkpt lat="44.0781567" lon="11.673875"><ele>607.0</ele><time>2026-04-18T11:59:43.993Z</time></trkpt><trkpt lat="44.078035" lon="11.6737517"><ele>607.0</ele><time>2026-04-18T11:59:44.994Z</time></trkpt><trkpt lat="44.0779367" lon="11.6736367"><ele>607.0</ele><time>2026-04-18T11:59:45.994Z</time></trkpt><trkpt lat="44.0778383" lon="11.6735317"><ele>613.0</ele><time>2026-04-18T11:59:46.992Z</time></trkpt><trkpt lat="44.0777167" lon="11.6734783"><ele>619.0</ele><time>2026-04-18T11:59:47.992Z</time></trkpt><trkpt lat="44.077595" lon="11.6734467"><ele>625.0</ele><time>2026-04-18T11:59:48.993Z</time></trkpt><trkpt lat="44.0774683" lon="11.6734533"><ele>631.0</ele><time>2026-04-18T11:59:49.994Z</time></trkpt><trkpt lat="44.0773367" lon="11.67347"><ele>631.0</ele><time>2026-04-18T11:59:50.994Z</time></trkpt><trkpt lat="44.0772133" lon="11.673475"><ele>631.0</ele><time>2026-04-18T11:59:51.993Z</time></trkpt><trkpt lat="44.0771117" lon="11.673435"><ele>631.0</ele><time>2026-04-18T11:59:52.993Z</time></trkpt><trkpt lat="44.0770183" lon="11.673385"><ele>631.0</ele><time>2026-04-18T11:59:53.994Z</time></trkpt><trkpt lat="44.0769433" lon="11.6733183"><ele>631.0</ele><time>2026-04-18T11:59:54.992Z</time></trkpt><trkpt lat="44.0768867" lon="11.6732567"><ele>631.0</ele><time>2026-04-18T11:59:55.993Z</time></trkpt><trkpt lat="44.0768433" lon="11.6731883"><ele>631.0</ele><time>2026-04-18T11:59:56.993Z</time></trkpt><trkpt lat="44.0768067" lon="11.673115"><ele>631.0</ele><time>2026-04-18T11:59:57.993Z</time></trkpt><trkpt lat="44.076755" lon="11.6730467"><ele>631.0</ele><time>2026-04-18T11:59:58.992Z</time></trkpt><trkpt lat="44.076705" lon="11.6729733"><ele>631.0</ele><time>2026-04-18T11:59:59.992Z</time></trkpt><trkpt lat="44.0766383" lon="11.6729117"><ele>631.0</ele><time>2026-04-18T12:00:00.993Z</time></trkpt><trkpt lat="44.0765783" lon="11.672865"><ele>631.0</ele><time>2026-04-18T12:00:01.992Z</time></trkpt><trkpt lat="44.0764767" lon="11.672805"><ele>634.3333333333334</ele><time>2026-04-18T12:00:03.993Z</time></trkpt><trkpt lat="44.0764133" lon="11.6727267"><ele>637.6666666666667</ele><time>2026-04-18T12:00:05.993Z</time></trkpt><trkpt lat="44.076365" lon="11.672615"><ele>641.0</ele><time>2026-04-18T12:00:07.993Z</time></trkpt><trkpt lat="44.0763333" lon="11.6724567"><ele>644.3333333333334</ele><time>2026-04-18T12:00:09.992Z</time></trkpt><trkpt lat="44.0763233" lon="11.67236"><ele>647.6666666666666</ele><time>2026-04-18T12:00:10.992Z</time></trkpt><trkpt lat="44.0763133" lon="11.6722717"><ele>651.0</ele><time>2026-04-18T12:00:11.993Z</time></trkpt><trkpt lat="44.0762633" lon="11.6721333"><ele>651.0</ele><time>2026-04-18T12:00:13.993Z</time></trkpt><trkpt lat="44.0761733" lon="11.6720283"><ele>651.0</ele><time>2026-04-18T12:00:15.993Z</time></trkpt><trkpt lat="44.076115" lon="11.67197"><ele>651.0</ele><time>2026-04-18T12:00:16.993Z</time></trkpt><trkpt lat="44.0760467" lon="11.6719067"><ele>651.0</ele><time>2026-04-18T12:00:17.993Z</time></trkpt><trkpt lat="44.0759767" lon="11.67183"><ele>651.0</ele><time>2026-04-18T12:00:18.994Z</time></trkpt><trkpt lat="44.0759033" lon="11.6717483"><ele>647.8</ele><time>2026-04-18T12:00:19.992Z</time></trkpt><trkpt lat="44.0758283" lon="11.6716433"><ele>644.5999999999999</ele><time>2026-04-18T12:00:20.993Z</time></trkpt><trkpt lat="44.0757583" lon="11.67152"><ele>641.4</ele><time>2026-04-18T12:00:21.993Z</time></trkpt><trkpt lat="44.07569" lon="11.6713867"><ele>638.2</ele><time>2026-04-18T12:00:22.992Z</time></trkpt><trkpt lat="44.07564" lon="11.6712717"><ele>635.0</ele><time>2026-04-18T12:00:23.995Z</time></trkpt><trkpt lat="44.0756167" lon="11.6711683"><ele>639.6666666666666</ele><time>2026-04-18T12:00:24.993Z</time></trkpt><trkpt lat="44.0756167" lon="11.6710667"><ele>644.3333333333333</ele><time>2026-04-18T12:00:25.992Z</time></trkpt><trkpt lat="44.0756367" lon="11.670965"><ele>649.0</ele><time>2026-04-18T12:00:26.993Z</time></trkpt><trkpt lat="44.0756633" lon="11.6708467"><ele>653.6666666666666</ele><time>2026-04-18T12:00:27.993Z</time></trkpt><trkpt lat="44.0756833" lon="11.670715"><ele>658.3333333333334</ele><time>2026-04-18T12:00:28.993Z</time></trkpt><trkpt lat="44.075695" lon="11.6705567"><ele>663.0</ele><time>2026-04-18T12:00:29.993Z</time></trkpt><trkpt lat="44.075695" lon="11.6703917"><ele>663.25</ele><time>2026-04-18T12:00:30.994Z</time></trkpt><trkpt lat="44.0756867" lon="11.6702133"><ele>663.5</ele><time>2026-04-18T12:00:31.993Z</time></trkpt><trkpt lat="44.0756767" lon="11.670045"><ele>663.75</ele><time>2026-04-18T12:00:32.994Z</time></trkpt><trkpt lat="44.0756867" lon="11.66989"><ele>664.0</ele><time>2026-04-18T12:00:33.992Z</time></trkpt><trkpt lat="44.07572" lon="11.6697417"><ele>656.75</ele><time>2026-04-18T12:00:34.992Z</time></trkpt><trkpt lat="44.075775" lon="11.6695983"><ele>649.5</ele><time>2026-04-18T12:00:35.992Z</time></trkpt><trkpt lat="44.0758467" lon="11.6694633"><ele>642.25</ele><time>2026-04-18T12:00:36.993Z</time></trkpt><trkpt lat="44.0759317" lon="11.6693367"><ele>635.0</ele><time>2026-04-18T12:00:37.992Z</time></trkpt><trkpt lat="44.0760067" lon="11.66921"><ele>635.0</ele><time>2026-04-18T12:00:38.993Z</time></trkpt><trkpt lat="44.0760633" lon="11.6690817"><ele>635.0</ele><time>2026-04-18T12:00:39.994Z</time></trkpt><trkpt lat="44.076105" lon="11.6689633"><ele>635.0</ele><time>2026-04-18T12:00:40.992Z</time></trkpt><trkpt lat="44.07612" lon="11.66885"><ele>635.0</ele><time>2026-04-18T12:00:41.992Z</time></trkpt><trkpt lat="44.0761117" lon="11.668755"><ele>635.0</ele><time>2026-04-18T12:00:42.992Z</time></trkpt><trkpt lat="44.0760733" lon="11.668685"><ele>635.0</ele><time>2026-04-18T12:00:43.992Z</time></trkpt><trkpt lat="44.0759833" lon="11.6685717"><ele>635.0</ele><time>2026-04-18T12:00:45.992Z</time></trkpt><trkpt lat="44.0759533" lon="11.668485"><ele>635.0</ele><time>2026-04-18T12:00:46.992Z</time></trkpt><trkpt lat="44.0759267" lon="11.668395"><ele>635.0</ele><time>2026-04-18T12:00:47.993Z</time></trkpt><trkpt lat="44.0758967" lon="11.6682433"><ele>635.0</ele><time>2026-04-18T12:00:48.992Z</time></trkpt><trkpt lat="44.0758817" lon="11.6680833"><ele>635.0</ele><time>2026-04-18T12:00:49.992Z</time></trkpt><trkpt lat="44.075875" lon="11.6679033"><ele>634.3333333333333</ele><time>2026-04-18T12:00:50.993Z</time></trkpt><trkpt lat="44.0758583" lon="11.667755"><ele>633.6666666666666</ele><time>2026-04-18T12:00:51.994Z</time></trkpt><trkpt lat="44.0758467" lon="11.6676317"><ele>633.0</ele><time>2026-04-18T12:00:52.992Z</time></trkpt><trkpt lat="44.0758483" lon="11.6675233"><ele>632.3333333333334</ele><time>2026-04-18T12:00:53.993Z</time></trkpt><trkpt lat="44.07587" lon="11.667435"><ele>631.6666666666667</ele><time>2026-04-18T12:00:54.993Z</time></trkpt><trkpt lat="44.0759017" lon="11.6673533"><ele>631.0</ele><time>2026-04-18T12:00:55.993Z</time></trkpt><trkpt lat="44.0759367" lon="11.66727"><ele>631.0</ele><time>2026-04-18T12:00:56.994Z</time></trkpt><trkpt lat="44.075975" lon="11.6671567"><ele>631.0</ele><time>2026-04-18T12:00:57.993Z</time></trkpt><trkpt lat="44.0760367" lon="11.667015"><ele>631.0</ele><time>2026-04-18T12:00:58.992Z</time></trkpt><trkpt lat="44.0760983" lon="11.66686"><ele>631.0</ele><time>2026-04-18T12:00:59.994Z</time></trkpt><trkpt lat="44.0761467" lon="11.6666817"><ele>631.75</ele><time>2026-04-18T12:01:00.995Z</time></trkpt><trkpt lat="44.0761883" lon="11.6664883"><ele>632.5</ele><time>2026-04-18T12:01:01.992Z</time></trkpt><trkpt lat="44.076215" lon="11.66629"><ele>633.25</ele><time>2026-04-18T12:01:02.994Z</time></trkpt><trkpt lat="44.076235" lon="11.66609"><ele>634.0</ele><time>2026-04-18T12:01:03.992Z</time></trkpt><trkpt lat="44.0762583" lon="11.6658883"><ele>636.6666666666667</ele><time>2026-04-18T12:01:04.993Z</time></trkpt><trkpt lat="44.07628" lon="11.665685"><ele>639.3333333333334</ele><time>2026-04-18T12:01:05.992Z</time></trkpt><trkpt lat="44.0762983" lon="11.665475"><ele>642.0</ele><time>2026-04-18T12:01:06.993Z</time></trkpt><trkpt lat="44.0763083" lon="11.665265"><ele>645.0</ele><time>2026-04-18T12:01:07.993Z</time></trkpt><trkpt lat="44.0763267" lon="11.66506"><ele>648.0</ele><time>2026-04-18T12:01:08.992Z</time></trkpt><trkpt lat="44.0763383" lon="11.664855"><ele>651.0</ele><time>2026-04-18T12:01:09.992Z</time></trkpt><trkpt lat="44.07635" lon="11.664655"><ele>654.0</ele><time>2026-04-18T12:01:10.993Z</time></trkpt><trkpt lat="44.0763617" lon="11.664465"><ele>654.25</ele><time>2026-04-18T12:01:11.992Z</time></trkpt><trkpt lat="44.0763747" lon="11.6642825"><ele>654.5</ele><time>2026-04-18T12:01:12.992Z</time></trkpt><trkpt lat="44.0763904" lon="11.6641079"><ele>654.75</ele><time>2026-04-18T12:01:13.992Z</time></trkpt><trkpt lat="44.0764104" lon="11.6639499"><ele>655.0</ele><time>2026-04-18T12:01:14.994Z</time></trkpt><trkpt lat="44.0764329" lon="11.6638097"><ele>655.0</ele><time>2026-04-18T12:01:15.992Z</time></trkpt><trkpt lat="44.0764723" lon="11.6637079"><ele>655.0</ele><time>2026-04-18T12:01:16.994Z</time></trkpt><trkpt lat="44.0765354" lon="11.6636387"><ele>655.0</ele><time>2026-04-18T12:01:17.992Z</time></trkpt><trkpt lat="44.0766143" lon="11.6635784"><ele>655.0</ele><time>2026-04-18T12:01:18.993Z</time></trkpt><trkpt lat="44.0767365" lon="11.6635369"><ele>655.0</ele><time>2026-04-18T12:01:19.993Z</time></trkpt><trkpt lat="44.0768877" lon="11.6635041"><ele>650.2</ele><time>2026-04-18T12:01:20.992Z</time></trkpt><trkpt lat="44.077007" lon="11.6634603"><ele>645.4</ele><time>2026-04-18T12:01:21.992Z</time></trkpt><trkpt lat="44.0770956" lon="11.6633914"><ele>640.6</ele><time>2026-04-18T12:01:22.992Z</time></trkpt><trkpt lat="44.0771592" lon="11.6632982"><ele>635.8</ele><time>2026-04-18T12:01:23.993Z</time></trkpt><trkpt lat="44.0771995" lon="11.6631835"><ele>631.0</ele><time>2026-04-18T12:01:24.993Z</time></trkpt><trkpt lat="44.0772298" lon="11.6630305"><ele>631.0</ele><time>2026-04-18T12:01:25.996Z</time></trkpt><trkpt lat="44.0772649" lon="11.6628824"><ele>631.0</ele><time>2026-04-18T12:01:26.992Z</time></trkpt><trkpt lat="44.0773191" lon="11.6627743"><ele>631.0</ele><time>2026-04-18T12:01:27.992Z</time></trkpt><trkpt lat="44.077378" lon="11.6626919"><ele>631.0</ele><time>2026-04-18T12:01:28.994Z</time></trkpt><trkpt lat="44.0775014" lon="11.6626599"><ele>631.0</ele><time>2026-04-18T12:01:30.994Z</time></trkpt><trkpt lat="44.0775673" lon="11.6626559"><ele>630.5</ele><time>2026-04-18T12:01:31.993Z</time></trkpt><trkpt lat="44.0776356" lon="11.6626792"><ele>630.0</ele><time>2026-04-18T12:01:32.993Z</time></trkpt><trkpt lat="44.0777051" lon="11.6627157"><ele>629.5</ele><time>2026-04-18T12:01:33.994Z</time></trkpt><trkpt lat="44.0777872" lon="11.6627605"><ele>629.0</ele><time>2026-04-18T12:01:34.993Z</time></trkpt><trkpt lat="44.0778802" lon="11.6628175"><ele>628.5</ele><time>2026-04-18T12:01:35.994Z</time></trkpt><trkpt lat="44.077984" lon="11.6628795"><ele>628.0</ele><time>2026-04-18T12:01:36.993Z</time></trkpt><trkpt lat="44.0781032" lon="11.6629303"><ele>626.3333333333334</ele><time>2026-04-18T12:01:37.994Z</time></trkpt><trkpt lat="44.0782038" lon="11.6629709"><ele>624.6666666666667</ele><time>2026-04-18T12:01:38.993Z</time></trkpt><trkpt lat="44.078287" lon="11.6629809"><ele>623.0</ele><time>2026-04-18T12:01:39.993Z</time></trkpt><trkpt lat="44.0783578" lon="11.6629544"><ele>621.3333333333334</ele><time>2026-04-18T12:01:40.993Z</time></trkpt><trkpt lat="44.0784221" lon="11.6628914"><ele>619.6666666666666</ele><time>2026-04-18T12:01:41.993Z</time></trkpt><trkpt lat="44.0784798" lon="11.66282"><ele>618.0</ele><time>2026-04-18T12:01:42.993Z</time></trkpt><trkpt lat="44.0785393" lon="11.6627149"><ele>618.0</ele><time>2026-04-18T12:01:43.992Z</time></trkpt><trkpt lat="44.0786072" lon="11.6625884"><ele>618.0</ele><time>2026-04-18T12:01:44.993Z</time></trkpt><trkpt lat="44.0786787" lon="11.6624284"><ele>618.0</ele><time>2026-04-18T12:01:45.992Z</time></trkpt><trkpt lat="44.0787353" lon="11.6622651"><ele>618.0</ele><time>2026-04-18T12:01:46.992Z</time></trkpt><trkpt lat="44.0787778" lon="11.6620877"><ele>617.8</ele><time>2026-04-18T12:01:47.993Z</time></trkpt><trkpt lat="44.0788174" lon="11.661914"><ele>617.5999999999999</ele><time>2026-04-18T12:01:48.993Z</time></trkpt><trkpt lat="44.078862" lon="11.6617623"><ele>617.4000000000001</ele><time>2026-04-18T12:01:49.993Z</time></trkpt><trkpt lat="44.0789171" lon="11.6616354"><ele>617.2</ele><time>2026-04-18T12:01:50.992Z</time></trkpt><trkpt lat="44.0789817" lon="11.6615467"><ele>617.0</ele><time>2026-04-18T12:01:51.992Z</time></trkpt><trkpt lat="44.079025" lon="11.66148"><ele>617.0</ele><time>2026-04-18T12:01:52.992Z</time></trkpt><trkpt lat="44.0790833" lon="11.6613933"><ele>617.0</ele><time>2026-04-18T12:01:54.992Z</time></trkpt><trkpt lat="44.0791367" lon="11.6613167"><ele>617.0</ele><time>2026-04-18T12:01:56.992Z</time></trkpt><trkpt lat="44.0791967" lon="11.6612283"><ele>617.0</ele><time>2026-04-18T12:01:58.993Z</time></trkpt><trkpt lat="44.0792533" lon="11.6611567"><ele>617.0</ele><time>2026-04-18T12:02:00.992Z</time></trkpt><trkpt lat="44.07931" lon="11.6610967"><ele>617.0</ele><time>2026-04-18T12:02:02.993Z</time></trkpt><trkpt lat="44.079365" lon="11.6610217"><ele>613.5</ele><time>2026-04-18T12:02:04.993Z</time></trkpt><trkpt lat="44.0794067" lon="11.6609483"><ele>610.0</ele><time>2026-04-18T12:02:06.993Z</time></trkpt><trkpt lat="44.0794117" lon="11.66083"><ele>606.5</ele><time>2026-04-18T12:02:09.993Z</time></trkpt><trkpt lat="44.0793383" lon="11.660805"><ele>603.0</ele><time>2026-04-18T12:02:12.993Z</time></trkpt><trkpt lat="44.0792817" lon="11.660875"><ele>599.5</ele><time>2026-04-18T12:02:14.994Z</time></trkpt><trkpt lat="44.0791933" lon="11.6609533"><ele>596.0</ele><time>2026-04-18T12:02:16.993Z</time></trkpt><trkpt lat="44.0791317" lon="11.660985"><ele>597.0</ele><time>2026-04-18T12:02:17.993Z</time></trkpt><trkpt lat="44.079065" lon="11.6610233"><ele>598.0</ele><time>2026-04-18T12:02:18.992Z</time></trkpt><trkpt lat="44.0789967" lon="11.66105"><ele>599.0</ele><time>2026-04-18T12:02:19.992Z</time></trkpt><trkpt lat="44.0789317" lon="11.6610733"><ele>600.0</ele><time>2026-04-18T12:02:20.993Z</time></trkpt><trkpt lat="44.0788667" lon="11.6611033"><ele>601.0</ele><time>2026-04-18T12:02:21.992Z</time></trkpt><trkpt lat="44.0787933" lon="11.6611383"><ele>602.0</ele><time>2026-04-18T12:02:22.992Z</time></trkpt><trkpt lat="44.078695" lon="11.6611817"><ele>602.0</ele><time>2026-04-18T12:02:23.993Z</time></trkpt><trkpt lat="44.078595" lon="11.6612133"><ele>602.0</ele><time>2026-04-18T12:02:24.992Z</time></trkpt><trkpt lat="44.0785067" lon="11.66121"><ele>602.0</ele><time>2026-04-18T12:02:25.992Z</time></trkpt><trkpt lat="44.078435" lon="11.6611817"><ele>602.0</ele><time>2026-04-18T12:02:26.993Z</time></trkpt><trkpt lat="44.078375" lon="11.66112"><ele>602.0</ele><time>2026-04-18T12:02:27.992Z</time></trkpt><trkpt lat="44.0783167" lon="11.6609417"><ele>602.0</ele><time>2026-04-18T12:02:29.994Z</time></trkpt><trkpt lat="44.07834" lon="11.6608067"><ele>602.0</ele><time>2026-04-18T12:02:30.992Z</time></trkpt><trkpt lat="44.0783867" lon="11.6606617"><ele>602.0</ele><time>2026-04-18T12:02:31.994Z</time></trkpt><trkpt lat="44.07842" lon="11.66054"><ele>602.0</ele><time>2026-04-18T12:02:32.993Z</time></trkpt><trkpt lat="44.0784417" lon="11.6604283"><ele>602.0</ele><time>2026-04-18T12:02:33.992Z</time></trkpt><trkpt lat="44.0784383" lon="11.6603317"><ele>600.5</ele><time>2026-04-18T12:02:34.992Z</time></trkpt><trkpt lat="44.0784267" lon="11.6602433"><ele>599.0</ele><time>2026-04-18T12:02:35.992Z</time></trkpt><trkpt lat="44.0783983" lon="11.66008"><ele>597.5</ele><time>2026-04-18T12:02:37.993Z</time></trkpt><trkpt lat="44.0783733" lon="11.65998"><ele>596.0</ele><time>2026-04-18T12:02:38.992Z</time></trkpt><trkpt lat="44.0783533" lon="11.6598817"><ele>594.5</ele><time>2026-04-18T12:02:39.993Z</time></trkpt><trkpt lat="44.078335" lon="11.65977"><ele>593.0</ele><time>2026-04-18T12:02:40.992Z</time></trkpt><trkpt lat="44.0783217" lon="11.6596467"><ele>593.0</ele><time>2026-04-18T12:02:41.993Z</time></trkpt><trkpt lat="44.07834" lon="11.65953"><ele>593.0</ele><time>2026-04-18T12:02:42.993Z</time></trkpt><trkpt lat="44.0783767" lon="11.65944"><ele>593.0</ele><time>2026-04-18T12:02:43.994Z</time></trkpt><trkpt lat="44.0784617" lon="11.6593567"><ele>593.0</ele><time>2026-04-18T12:02:45.992Z</time></trkpt><trkpt lat="44.0785517" lon="11.6593267"><ele>593.0</ele><time>2026-04-18T12:02:46.992Z</time></trkpt><trkpt lat="44.0786833" lon="11.6593017"><ele>595.0</ele><time>2026-04-18T12:02:47.992Z</time></trkpt><trkpt lat="44.0788067" lon="11.6592633"><ele>597.0</ele><time>2026-04-18T12:02:48.992Z</time></trkpt><trkpt lat="44.0789317" lon="11.6592183"><ele>599.0</ele><time>2026-04-18T12:02:49.994Z</time></trkpt><trkpt lat="44.07903" lon="11.6591783"><ele>601.0</ele><time>2026-04-18T12:02:50.993Z</time></trkpt><trkpt lat="44.07912" lon="11.65913"><ele>595.2</ele><time>2026-04-18T12:02:51.992Z</time></trkpt><trkpt lat="44.0791933" lon="11.6590717"><ele>589.4000000000001</ele><time>2026-04-18T12:02:52.993Z</time></trkpt><trkpt lat="44.0792533" lon="11.6589833"><ele>583.6</ele><time>2026-04-18T12:02:53.992Z</time></trkpt><trkpt lat="44.0793117" lon="11.65887"><ele>577.8000000000001</ele><time>2026-04-18T12:02:54.992Z</time></trkpt><trkpt lat="44.07938" lon="11.6587483"><ele>572.0</ele><time>2026-04-18T12:02:55.992Z</time></trkpt><trkpt lat="44.0794383" lon="11.65862"><ele>574.8000000000001</ele><time>2026-04-18T12:02:56.992Z</time></trkpt><trkpt lat="44.0794817" lon="11.658485"><ele>577.6</ele><time>2026-04-18T12:02:57.994Z</time></trkpt><trkpt lat="44.0795367" lon="11.6583533"><ele>580.4000000000001</ele><time>2026-04-18T12:02:58.993Z</time></trkpt><trkpt lat="44.0796067" lon="11.6582383"><ele>583.2</ele><time>2026-04-18T12:02:59.993Z</time></trkpt><trkpt lat="44.079685" lon="11.6581467"><ele>586.0</ele><time>2026-04-18T12:03:00.993Z</time></trkpt><trkpt lat="44.0797733" lon="11.6580683"><ele>586.0</ele><time>2026-04-18T12:03:01.992Z</time></trkpt><trkpt lat="44.0798533" lon="11.6579783"><ele>586.0</ele><time>2026-04-18T12:03:02.992Z</time></trkpt><trkpt lat="44.07992" lon="11.6578817"><ele>586.0</ele><time>2026-04-18T12:03:03.993Z</time></trkpt><trkpt lat="44.0799783" lon="11.65777"><ele>586.0</ele><time>2026-04-18T12:03:04.993Z</time></trkpt><trkpt lat="44.0800183" lon="11.6576267"><ele>586.0</ele><time>2026-04-18T12:03:05.992Z</time></trkpt><trkpt lat="44.0800517" lon="11.6574617"><ele>581.0</ele><time>2026-04-18T12:03:06.993Z</time></trkpt><trkpt lat="44.0800817" lon="11.657285"><ele>576.0</ele><time>2026-04-18T12:03:07.992Z</time></trkpt><trkpt lat="44.0801217" lon="11.657095"><ele>571.0</ele><time>2026-04-18T12:03:08.992Z</time></trkpt><trkpt lat="44.0801667" lon="11.656905"><ele>566.0</ele><time>2026-04-18T12:03:09.993Z</time></trkpt><trkpt lat="44.0802117" lon="11.6567333"><ele>566.0</ele><time>2026-04-18T12:03:10.992Z</time></trkpt><trkpt lat="44.0802533" lon="11.6565717"><ele>566.0</ele><time>2026-04-18T12:03:11.992Z</time></trkpt><trkpt lat="44.0802883" lon="11.656425"><ele>566.0</ele><time>2026-04-18T12:03:12.993Z</time></trkpt><trkpt lat="44.0802967" lon="11.65627"><ele>566.0</ele><time>2026-04-18T12:03:13.993Z</time></trkpt><trkpt lat="44.080275" lon="11.6561117"><ele>565.0</ele><time>2026-04-18T12:03:14.992Z</time></trkpt><trkpt lat="44.080225" lon="11.655945"><ele>564.0</ele><time>2026-04-18T12:03:15.992Z</time></trkpt><trkpt lat="44.0801633" lon="11.6557617"><ele>563.0</ele><time>2026-04-18T12:03:16.992Z</time></trkpt><trkpt lat="44.0801017" lon="11.6555683"><ele>562.0</ele><time>2026-04-18T12:03:17.993Z</time></trkpt><trkpt lat="44.080055" lon="11.6553867"><ele>558.25</ele><time>2026-04-18T12:03:18.992Z</time></trkpt><trkpt lat="44.0800233" lon="11.6552"><ele>554.5</ele><time>2026-04-18T12:03:19.993Z</time></trkpt><trkpt lat="44.0800033" lon="11.6550283"><ele>550.75</ele><time>2026-04-18T12:03:20.992Z</time></trkpt><trkpt lat="44.079995" lon="11.6548617"><ele>547.0</ele><time>2026-04-18T12:03:21.993Z</time></trkpt><trkpt lat="44.0799917" lon="11.6547117"><ele>547.0</ele><time>2026-04-18T12:03:22.993Z</time></trkpt><trkpt lat="44.07996" lon="11.654585"><ele>547.0</ele><time>2026-04-18T12:03:23.994Z</time></trkpt><trkpt lat="44.079925" lon="11.6544733"><ele>547.0</ele><time>2026-04-18T12:03:24.994Z</time></trkpt><trkpt lat="44.0798917" lon="11.654385"><ele>547.0</ele><time>2026-04-18T12:03:25.992Z</time></trkpt><trkpt lat="44.0798267" lon="11.654275"><ele>547.0</ele><time>2026-04-18T12:03:27.994Z</time></trkpt><trkpt lat="44.0797817" lon="11.6542017"><ele>547.0</ele><time>2026-04-18T12:03:29.993Z</time></trkpt><trkpt lat="44.0797367" lon="11.6541183"><ele>544.6666666666667</ele><time>2026-04-18T12:03:31.993Z</time></trkpt><trkpt lat="44.0797133" lon="11.6540183"><ele>542.3333333333334</ele><time>2026-04-18T12:03:33.992Z</time></trkpt><trkpt lat="44.0797617" lon="11.6539383"><ele>540.0</ele><time>2026-04-18T12:03:36.993Z</time></trkpt><trkpt lat="44.0798283" lon="11.653995"><ele>537.6666666666666</ele><time>2026-04-18T12:03:40.994Z</time></trkpt><trkpt lat="44.0798633" lon="11.65408"><ele>535.3333333333333</ele><time>2026-04-18T12:03:42.993Z</time></trkpt><trkpt lat="44.0799083" lon="11.6541667"><ele>533.0</ele><time>2026-04-18T12:03:43.993Z</time></trkpt><trkpt lat="44.0799617" lon="11.6542583"><ele>533.0</ele><time>2026-04-18T12:03:44.993Z</time></trkpt><trkpt lat="44.0800467" lon="11.654365"><ele>533.0</ele><time>2026-04-18T12:03:45.992Z</time></trkpt><trkpt lat="44.0801383" lon="11.6544667"><ele>533.0</ele><time>2026-04-18T12:03:46.992Z</time></trkpt><trkpt lat="44.0802433" lon="11.6545733"><ele>533.0</ele><time>2026-04-18T12:03:47.992Z</time></trkpt><trkpt lat="44.0803467" lon="11.6546967"><ele>536.5</ele><time>2026-04-18T12:03:48.992Z</time></trkpt><trkpt lat="44.0804383" lon="11.6548433"><ele>540.0</ele><time>2026-04-18T12:03:49.993Z</time></trkpt><trkpt lat="44.0805383" lon="11.6549933"><ele>543.5</ele><time>2026-04-18T12:03:50.993Z</time></trkpt><trkpt lat="44.0806267" lon="11.6551267"><ele>547.0</ele><time>2026-04-18T12:03:51.992Z</time></trkpt><trkpt lat="44.0807267" lon="11.65525"><ele>542.2</ele><time>2026-04-18T12:03:52.992Z</time></trkpt><trkpt lat="44.08082" lon="11.6553733"><ele>537.4000000000001</ele><time>2026-04-18T12:03:53.996Z</time></trkpt><trkpt lat="44.0808833" lon="11.6555083"><ele>532.5999999999999</ele><time>2026-04-18T12:03:54.992Z</time></trkpt><trkpt lat="44.080925" lon="11.6556217"><ele>527.8</ele><time>2026-04-18T12:03:55.993Z</time></trkpt><trkpt lat="44.0809717" lon="11.655705"><ele>523.0</ele><time>2026-04-18T12:03:56.993Z</time></trkpt><trkpt lat="44.0810583" lon="11.65576"><ele>523.0</ele><time>2026-04-18T12:03:58.993Z</time></trkpt><trkpt lat="44.081085" lon="11.6556567"><ele>523.0</ele><time>2026-04-18T12:04:00.994Z</time></trkpt><trkpt lat="44.0810817" lon="11.6555667"><ele>523.0</ele><time>2026-04-18T12:04:01.994Z</time></trkpt><trkpt lat="44.0810567" lon="11.6554117"><ele>523.0</ele><time>2026-04-18T12:04:02.994Z</time></trkpt><trkpt lat="44.0810133" lon="11.6552317"><ele>523.0</ele><time>2026-04-18T12:04:03.992Z</time></trkpt><trkpt lat="44.0809633" lon="11.655035"><ele>520.6666666666667</ele><time>2026-04-18T12:04:04.992Z</time></trkpt><trkpt lat="44.080905" lon="11.6548233"><ele>518.3333333333334</ele><time>2026-04-18T12:04:05.993Z</time></trkpt><trkpt lat="44.0808383" lon="11.6545983"><ele>516.0</ele><time>2026-04-18T12:04:06.993Z</time></trkpt><trkpt lat="44.08077" lon="11.6543817"><ele>521.6666666666666</ele><time>2026-04-18T12:04:07.994Z</time></trkpt><trkpt lat="44.0806967" lon="11.6541717"><ele>527.3333333333333</ele><time>2026-04-18T12:04:08.993Z</time></trkpt><trkpt lat="44.080625" lon="11.6539667"><ele>533.0</ele><time>2026-04-18T12:04:09.992Z</time></trkpt><trkpt lat="44.0805567" lon="11.653765"><ele>528.3333333333333</ele><time>2026-04-18T12:04:10.993Z</time></trkpt><trkpt lat="44.080505" lon="11.653555"><ele>523.6666666666666</ele><time>2026-04-18T12:04:11.992Z</time></trkpt><trkpt lat="44.08047" lon="11.6533267"><ele>519.0</ele><time>2026-04-18T12:04:12.993Z</time></trkpt><trkpt lat="44.080445" lon="11.6530933"><ele>519.0</ele><time>2026-04-18T12:04:13.993Z</time></trkpt><trkpt lat="44.0804083" lon="11.6528583"><ele>519.0</ele><time>2026-04-18T12:04:14.992Z</time></trkpt><trkpt lat="44.0803667" lon="11.6526133"><ele>519.0</ele><time>2026-04-18T12:04:15.993Z</time></trkpt><trkpt lat="44.0803283" lon="11.6523683"><ele>515.3333333333334</ele><time>2026-04-18T12:04:16.993Z</time></trkpt><trkpt lat="44.080295" lon="11.65213"><ele>511.6666666666667</ele><time>2026-04-18T12:04:17.994Z</time></trkpt><trkpt lat="44.0802567" lon="11.651915"><ele>508.0</ele><time>2026-04-18T12:04:18.992Z</time></trkpt><trkpt lat="44.080225" lon="11.6517033"><ele>505.25</ele><time>2026-04-18T12:04:19.993Z</time></trkpt><trkpt lat="44.0801967" lon="11.651505"><ele>502.5</ele><time>2026-04-18T12:04:20.994Z</time></trkpt><trkpt lat="44.080175" lon="11.65132"><ele>499.75</ele><time>2026-04-18T12:04:21.993Z</time></trkpt><trkpt lat="44.080155" lon="11.651155"><ele>497.0</ele><time>2026-04-18T12:04:22.992Z</time></trkpt><trkpt lat="44.0801083" lon="11.6510217"><ele>496.20000000000005</ele><time>2026-04-18T12:04:23.994Z</time></trkpt><trkpt lat="44.08004" lon="11.6509167"><ele>495.40000000000003</ele><time>2026-04-18T12:04:24.992Z</time></trkpt><trkpt lat="44.0799433" lon="11.65083"><ele>494.59999999999997</ele><time>2026-04-18T12:04:25.994Z</time></trkpt><trkpt lat="44.0798583" lon="11.6507717"><ele>493.79999999999995</ele><time>2026-04-18T12:04:26.993Z</time></trkpt><trkpt lat="44.079795" lon="11.6507117"><ele>493.0</ele><time>2026-04-18T12:04:27.993Z</time></trkpt><trkpt lat="44.0797733" lon="11.6506033"><ele>493.00000000000006</ele><time>2026-04-18T12:04:29.993Z</time></trkpt><trkpt lat="44.079855" lon="11.6505617"><ele>493.0</ele><time>2026-04-18T12:04:31.993Z</time></trkpt><trkpt lat="44.0799467" lon="11.65058"><ele>493.0</ele><time>2026-04-18T12:04:32.994Z</time></trkpt><trkpt lat="44.0800383" lon="11.6506133"><ele>493.0</ele><time>2026-04-18T12:04:33.993Z</time></trkpt><trkpt lat="44.0801233" lon="11.65064"><ele>493.00000000000006</ele><time>2026-04-18T12:04:34.992Z</time></trkpt><trkpt lat="44.0801933" lon="11.65065"><ele>493.0</ele><time>2026-04-18T12:04:35.992Z</time></trkpt><trkpt lat="44.0802633" lon="11.6505717"><ele>491.0</ele><time>2026-04-18T12:04:37.993Z</time></trkpt><trkpt lat="44.08026" lon="11.6504817"><ele>488.99999999999994</ele><time>2026-04-18T12:04:38.993Z</time></trkpt><trkpt lat="44.080215" lon="11.6504"><ele>486.99999999999994</ele><time>2026-04-18T12:04:39.994Z</time></trkpt><trkpt lat="44.08014" lon="11.6503283"><ele>485.0</ele><time>2026-04-18T12:04:40.992Z</time></trkpt><trkpt lat="44.0800567" lon="11.65028"><ele>483.0</ele><time>2026-04-18T12:04:41.994Z</time></trkpt><trkpt lat="44.0799283" lon="11.6502383"><ele>479.4</ele><time>2026-04-18T12:04:42.992Z</time></trkpt><trkpt lat="44.0798033" lon="11.650205"><ele>475.79999999999995</ele><time>2026-04-18T12:04:43.993Z</time></trkpt><trkpt lat="44.0797133" lon="11.6501717"><ele>472.2</ele><time>2026-04-18T12:04:44.993Z</time></trkpt><trkpt lat="44.07965" lon="11.6501433"><ele>468.6</ele><time>2026-04-18T12:04:45.993Z</time></trkpt><trkpt lat="44.079665" lon="11.650005"><ele>465.0</ele><time>2026-04-18T12:04:48.995Z</time></trkpt><trkpt lat="44.07977" lon="11.6498967"><ele>465.0</ele><time>2026-04-18T12:04:50.992Z</time></trkpt><trkpt lat="44.0798767" lon="11.6498733"><ele>465.0</ele><time>2026-04-18T12:04:51.992Z</time></trkpt><trkpt lat="44.0800083" lon="11.6498817"><ele>465.0</ele><time>2026-04-18T12:04:52.993Z</time></trkpt><trkpt lat="44.0801533" lon="11.6499083"><ele>465.0</ele><time>2026-04-18T12:04:53.993Z</time></trkpt><trkpt lat="44.0803067" lon="11.6499317"><ele>463.75</ele><time>2026-04-18T12:04:54.994Z</time></trkpt><trkpt lat="44.08045" lon="11.6499567"><ele>462.5</ele><time>2026-04-18T12:04:55.993Z</time></trkpt><trkpt lat="44.0805817" lon="11.65"><ele>461.25</ele><time>2026-04-18T12:04:56.994Z</time></trkpt><trkpt lat="44.0807" lon="11.6500367"><ele>460.0</ele><time>2026-04-18T12:04:57.992Z</time></trkpt><trkpt lat="44.0808183" lon="11.6500433"><ele>458.0</ele><time>2026-04-18T12:04:58.994Z</time></trkpt><trkpt lat="44.0809483" lon="11.6500217"><ele>456.0</ele><time>2026-04-18T12:04:59.992Z</time></trkpt><trkpt lat="44.0810767" lon="11.6499733"><ele>454.0</ele><time>2026-04-18T12:05:00.992Z</time></trkpt><trkpt lat="44.0812067" lon="11.6498917"><ele>452.0</ele><time>2026-04-18T12:05:02.08Z</time></trkpt><trkpt lat="44.0813167" lon="11.6498117"><ele>452.0</ele><time>2026-04-18T12:05:02.993Z</time></trkpt><trkpt lat="44.08141" lon="11.6497483"><ele>452.00000000000006</ele><time>2026-04-18T12:05:03.993Z</time></trkpt><trkpt lat="44.0814917" lon="11.6497133"><ele>452.00000000000006</ele><time>2026-04-18T12:05:04.992Z</time></trkpt><trkpt lat="44.0815567" lon="11.6497033"><ele>452.0</ele><time>2026-04-18T12:05:05.993Z</time></trkpt><trkpt lat="44.0816683" lon="11.6497783"><ele>452.0</ele><time>2026-04-18T12:05:07.994Z</time></trkpt><trkpt lat="44.0817183" lon="11.6498967"><ele>450.75</ele><time>2026-04-18T12:05:08.993Z</time></trkpt><trkpt lat="44.081765" lon="11.6500217"><ele>449.5</ele><time>2026-04-18T12:05:09.993Z</time></trkpt><trkpt lat="44.0818483" lon="11.650225"><ele>448.25</ele><time>2026-04-18T12:05:10.995Z</time></trkpt><trkpt lat="44.0819433" lon="11.650415"><ele>447.0</ele><time>2026-04-18T12:05:11.993Z</time></trkpt><trkpt lat="44.0820283" lon="11.6505983"><ele>447.0</ele><time>2026-04-18T12:05:12.993Z</time></trkpt><trkpt lat="44.0820983" lon="11.65076"><ele>447.0</ele><time>2026-04-18T12:05:13.994Z</time></trkpt><trkpt lat="44.0821483" lon="11.6509033"><ele>447.0</ele><time>2026-04-18T12:05:14.993Z</time></trkpt><trkpt lat="44.0821683" lon="11.6510483"><ele>447.0</ele><time>2026-04-18T12:05:15.992Z</time></trkpt><trkpt lat="44.08218" lon="11.651195"><ele>448.6666666666667</ele><time>2026-04-18T12:05:16.992Z</time></trkpt><trkpt lat="44.08221" lon="11.6513217"><ele>450.33333333333337</ele><time>2026-04-18T12:05:17.993Z</time></trkpt><trkpt lat="44.0822383" lon="11.6514183"><ele>452.0</ele><time>2026-04-18T12:05:18.993Z</time></trkpt><trkpt lat="44.0822667" lon="11.6514983"><ele>453.6666666666667</ele><time>2026-04-18T12:05:19.992Z</time></trkpt><trkpt lat="44.082305" lon="11.6515933"><ele>455.33333333333337</ele><time>2026-04-18T12:05:20.993Z</time></trkpt><trkpt lat="44.0823867" lon="11.6517083"><ele>457.0</ele><time>2026-04-18T12:05:21.993Z</time></trkpt><trkpt lat="44.0824467" lon="11.6518333"><ele>454.40000000000003</ele><time>2026-04-18T12:05:22.993Z</time></trkpt><trkpt lat="44.082485" lon="11.651975"><ele>451.80000000000007</ele><time>2026-04-18T12:05:23.992Z</time></trkpt><trkpt lat="44.0825167" lon="11.65211"><ele>449.2</ele><time>2026-04-18T12:05:24.992Z</time></trkpt><trkpt lat="44.0825583" lon="11.6522233"><ele>446.6</ele><time>2026-04-18T12:05:25.992Z</time></trkpt><trkpt lat="44.082625" lon="11.6522967"><ele>444.0</ele><time>2026-04-18T12:05:26.993Z</time></trkpt><trkpt lat="44.0827233" lon="11.652285"><ele>444.0</ele><time>2026-04-18T12:05:28.992Z</time></trkpt><trkpt lat="44.0827783" lon="11.6521367"><ele>444.0</ele><time>2026-04-18T12:05:30.994Z</time></trkpt><trkpt lat="44.082775" lon="11.6520283"><ele>444.0</ele><time>2026-04-18T12:05:31.994Z</time></trkpt><trkpt lat="44.0827333" lon="11.6519083"><ele>444.0</ele><time>2026-04-18T12:05:32.993Z</time></trkpt><trkpt lat="44.08267" lon="11.6517733"><ele>444.0</ele><time>2026-04-18T12:05:33.994Z</time></trkpt><trkpt lat="44.08261" lon="11.6516183"><ele>441.0</ele><time>2026-04-18T12:05:34.993Z</time></trkpt><trkpt lat="44.0825633" lon="11.65145"><ele>438.0</ele><time>2026-04-18T12:05:35.992Z</time></trkpt><trkpt lat="44.0825283" lon="11.65129"><ele>435.0</ele><time>2026-04-18T12:05:36.993Z</time></trkpt><trkpt lat="44.08249" lon="11.6511467"><ele>432.0</ele><time>2026-04-18T12:05:37.992Z</time></trkpt><trkpt lat="44.08246" lon="11.6510167"><ele>429.40000000000003</ele><time>2026-04-18T12:05:38.992Z</time></trkpt><trkpt lat="44.0824533" lon="11.6509"><ele>426.80000000000007</ele><time>2026-04-18T12:05:39.992Z</time></trkpt><trkpt lat="44.0825033" lon="11.6507733"><ele>424.2</ele><time>2026-04-18T12:05:41.993Z</time></trkpt><trkpt lat="44.0825867" lon="11.6508017"><ele>421.6</ele><time>2026-04-18T12:05:43.992Z</time></trkpt><trkpt lat="44.0826583" lon="11.650875"><ele>419.0</ele><time>2026-04-18T12:05:44.993Z</time></trkpt><trkpt lat="44.08274" lon="11.650935"><ele>418.99999999999994</ele><time>2026-04-18T12:05:45.992Z</time></trkpt><trkpt lat="44.0828183" lon="11.650965"><ele>419.0</ele><time>2026-04-18T12:05:46.992Z</time></trkpt><trkpt lat="44.08291" lon="11.6509733"><ele>419.0</ele><time>2026-04-18T12:05:47.993Z</time></trkpt><trkpt lat="44.08298" lon="11.6509467"><ele>419.0</ele><time>2026-04-18T12:05:48.993Z</time></trkpt><trkpt lat="44.0830567" lon="11.6508767"><ele>418.99999999999994</ele><time>2026-04-18T12:05:49.992Z</time></trkpt><trkpt lat="44.0831" lon="11.65079"><ele>419.0</ele><time>2026-04-18T12:05:50.992Z</time></trkpt><trkpt lat="44.08314" lon="11.6506667"><ele>419.0</ele><time>2026-04-18T12:05:51.992Z</time></trkpt><trkpt lat="44.0831433" lon="11.65053"><ele>419.0</ele><time>2026-04-18T12:05:52.992Z</time></trkpt><trkpt lat="44.083135" lon="11.6503883"><ele>419.0</ele><time>2026-04-18T12:05:53.993Z</time></trkpt><trkpt lat="44.0831283" lon="11.6502417"><ele>419.0</ele><time>2026-04-18T12:05:54.992Z</time></trkpt><trkpt lat="44.083135" lon="11.6501133"><ele>419.0</ele><time>2026-04-18T12:05:55.992Z</time></trkpt><trkpt lat="44.083155" lon="11.6499917"><ele>415.79999999999995</ele><time>2026-04-18T12:05:56.992Z</time></trkpt><trkpt lat="44.0832067" lon="11.6498633"><ele>412.59999999999997</ele><time>2026-04-18T12:05:57.992Z</time></trkpt><trkpt lat="44.0832717" lon="11.6497367"><ele>409.4</ele><time>2026-04-18T12:05:58.993Z</time></trkpt><trkpt lat="44.0833467" lon="11.6496417"><ele>406.2</ele><time>2026-04-18T12:05:59.993Z</time></trkpt><trkpt lat="44.08343" lon="11.6495783"><ele>403.0</ele><time>2026-04-18T12:06:00.993Z</time></trkpt><trkpt lat="44.0835017" lon="11.6495583"><ele>403.00000000000006</ele><time>2026-04-18T12:06:01.993Z</time></trkpt><trkpt lat="44.083565" lon="11.6495817"><ele>403.0</ele><time>2026-04-18T12:06:02.995Z</time></trkpt><trkpt lat="44.0836283" lon="11.6496317"><ele>403.0</ele><time>2026-04-18T12:06:03.994Z</time></trkpt><trkpt lat="44.0836967" lon="11.6497117"><ele>403.0</ele><time>2026-04-18T12:06:04.994Z</time></trkpt><trkpt lat="44.0837733" lon="11.64983"><ele>403.00000000000006</ele><time>2026-04-18T12:06:05.994Z</time></trkpt><trkpt lat="44.0838433" lon="11.6499317"><ele>403.0</ele><time>2026-04-18T12:06:06.995Z</time></trkpt><trkpt lat="44.08394" lon="11.64999"><ele>403.0</ele><time>2026-04-18T12:06:08.993Z</time></trkpt><trkpt lat="44.0840067" lon="11.6499833"><ele>403.0</ele><time>2026-04-18T12:06:09.993Z</time></trkpt><trkpt lat="44.0840933" lon="11.6499367"><ele>403.0</ele><time>2026-04-18T12:06:10.995Z</time></trkpt><trkpt lat="44.08417" lon="11.6498717"><ele>403.0</ele><time>2026-04-18T12:06:11.993Z</time></trkpt><trkpt lat="44.0842517" lon="11.649775"><ele>403.0</ele><time>2026-04-18T12:06:12.993Z</time></trkpt><trkpt lat="44.0843183" lon="11.6496517"><ele>402.4</ele><time>2026-04-18T12:06:13.994Z</time></trkpt><trkpt lat="44.0843667" lon="11.6495083"><ele>401.79999999999995</ele><time>2026-04-18T12:06:14.995Z</time></trkpt><trkpt lat="44.08441" lon="11.6493717"><ele>401.2</ele><time>2026-04-18T12:06:15.993Z</time></trkpt><trkpt lat="44.0844567" lon="11.6492717"><ele>400.6</ele><time>2026-04-18T12:06:16.993Z</time></trkpt><trkpt lat="44.0845167" lon="11.6491867"><ele>400.0</ele><time>2026-04-18T12:06:17.993Z</time></trkpt><trkpt lat="44.0845867" lon="11.6491133"><ele>397.4</ele><time>2026-04-18T12:06:18.993Z</time></trkpt><trkpt lat="44.0846667" lon="11.64906"><ele>394.8</ele><time>2026-04-18T12:06:19.994Z</time></trkpt><trkpt lat="44.08477" lon="11.6490083"><ele>392.20000000000005</ele><time>2026-04-18T12:06:20.995Z</time></trkpt><trkpt lat="44.0848867" lon="11.648955"><ele>389.6</ele><time>2026-04-18T12:06:21.993Z</time></trkpt><trkpt lat="44.0849983" lon="11.64891"><ele>387.0</ele><time>2026-04-18T12:06:22.994Z</time></trkpt><trkpt lat="44.0851033" lon="11.64889"><ele>387.0</ele><time>2026-04-18T12:06:23.994Z</time></trkpt><trkpt lat="44.0852117" lon="11.6489033"><ele>387.0</ele><time>2026-04-18T12:06:24.994Z</time></trkpt><trkpt lat="44.085335" lon="11.6489367"><ele>387.0</ele><time>2026-04-18T12:06:25.994Z</time></trkpt><trkpt lat="44.0854567" lon="11.6489883"><ele>387.0</ele><time>2026-04-18T12:06:26.994Z</time></trkpt><trkpt lat="44.0855583" lon="11.6490233"><ele>387.0</ele><time>2026-04-18T12:06:27.993Z</time></trkpt><trkpt lat="44.0856567" lon="11.6490183"><ele>387.0</ele><time>2026-04-18T12:06:28.993Z</time></trkpt><trkpt lat="44.085745" lon="11.648995"><ele>387.0</ele><time>2026-04-18T12:06:29.994Z</time></trkpt><trkpt lat="44.0858317" lon="11.6489267"><ele>387.0</ele><time>2026-04-18T12:06:30.994Z</time></trkpt><trkpt lat="44.0859217" lon="11.64884"><ele>387.0</ele><time>2026-04-18T12:06:31.994Z</time></trkpt><trkpt lat="44.08601" lon="11.6487433"><ele>386.75</ele><time>2026-04-18T12:06:32.994Z</time></trkpt><trkpt lat="44.0861067" lon="11.6486517"><ele>386.5</ele><time>2026-04-18T12:06:33.994Z</time></trkpt><trkpt lat="44.086225" lon="11.6485683"><ele>386.25</ele><time>2026-04-18T12:06:34.994Z</time></trkpt><trkpt lat="44.0863617" lon="11.6485"><ele>386.0</ele><time>2026-04-18T12:06:35.994Z</time></trkpt><trkpt lat="44.0865083" lon="11.6484367"><ele>376.66666666666663</ele><time>2026-04-18T12:06:36.994Z</time></trkpt><trkpt lat="44.0866667" lon="11.6483667"><ele>367.3333333333333</ele><time>2026-04-18T12:06:37.994Z</time></trkpt><trkpt lat="44.0868233" lon="11.6482817"><ele>358.0</ele><time>2026-04-18T12:06:38.994Z</time></trkpt><trkpt lat="44.0869717" lon="11.6482017"><ele>358.0</ele><time>2026-04-18T12:06:39.994Z</time></trkpt><trkpt lat="44.08711" lon="11.6481267"><ele>358.0</ele><time>2026-04-18T12:06:40.994Z</time></trkpt><trkpt lat="44.0872367" lon="11.648065"><ele>358.0</ele><time>2026-04-18T12:06:41.993Z</time></trkpt><trkpt lat="44.0873383" lon="11.6480183"><ele>358.0</ele><time>2026-04-18T12:06:42.994Z</time></trkpt><trkpt lat="44.0874233" lon="11.648015"><ele>357.79999999999995</ele><time>2026-04-18T12:06:43.993Z</time></trkpt><trkpt lat="44.087495" lon="11.6480383"><ele>357.6</ele><time>2026-04-18T12:06:44.993Z</time></trkpt><trkpt lat="44.08757" lon="11.648095"><ele>357.4</ele><time>2026-04-18T12:06:45.995Z</time></trkpt><trkpt lat="44.0876467" lon="11.6481867"><ele>357.20000000000005</ele><time>2026-04-18T12:06:46.993Z</time></trkpt><trkpt lat="44.087725" lon="11.64832"><ele>357.0</ele><time>2026-04-18T12:06:47.994Z</time></trkpt><trkpt lat="44.0877983" lon="11.6484817"><ele>361.6</ele><time>2026-04-18T12:06:48.993Z</time></trkpt><trkpt lat="44.08787" lon="11.6486317"><ele>366.20000000000005</ele><time>2026-04-18T12:06:49.994Z</time></trkpt><trkpt lat="44.0879283" lon="11.6487517"><ele>370.8</ele><time>2026-04-18T12:06:50.993Z</time></trkpt><trkpt lat="44.0879767" lon="11.6488333"><ele>375.4</ele><time>2026-04-18T12:06:51.993Z</time></trkpt><trkpt lat="44.0880267" lon="11.6488883"><ele>380.0</ele><time>2026-04-18T12:06:52.994Z</time></trkpt><trkpt lat="44.088125" lon="11.6489017"><ele>380.0</ele><time>2026-04-18T12:06:54.993Z</time></trkpt><trkpt lat="44.0881367" lon="11.6487517"><ele>380.0</ele><time>2026-04-18T12:06:56.995Z</time></trkpt><trkpt lat="44.088125" lon="11.6486317"><ele>380.0</ele><time>2026-04-18T12:06:57.994Z</time></trkpt><trkpt lat="44.0881" lon="11.6484717"><ele>380.0</ele><time>2026-04-18T12:06:58.994Z</time></trkpt><trkpt lat="44.0880583" lon="11.648295"><ele>380.0</ele><time>2026-04-18T12:06:59.996Z</time></trkpt><trkpt lat="44.0880233" lon="11.6481117"><ele>375.4</ele><time>2026-04-18T12:07:00.995Z</time></trkpt><trkpt lat="44.0879967" lon="11.6479567"><ele>370.8</ele><time>2026-04-18T12:07:01.994Z</time></trkpt><trkpt lat="44.0879833" lon="11.647815"><ele>366.20000000000005</ele><time>2026-04-18T12:07:02.994Z</time></trkpt><trkpt lat="44.0879933" lon="11.6477"><ele>361.6</ele><time>2026-04-18T12:07:03.993Z</time></trkpt><trkpt lat="44.0880217" lon="11.6476033"><ele>357.0</ele><time>2026-04-18T12:07:04.993Z</time></trkpt><trkpt lat="44.0880783" lon="11.6474833"><ele>353.5</ele><time>2026-04-18T12:07:05.995Z</time></trkpt><trkpt lat="44.0881633" lon="11.64738"><ele>350.0</ele><time>2026-04-18T12:07:06.993Z</time></trkpt><trkpt lat="44.08827" lon="11.6473"><ele>346.5</ele><time>2026-04-18T12:07:07.994Z</time></trkpt><trkpt lat="44.0883917" lon="11.6472283"><ele>343.0</ele><time>2026-04-18T12:07:08.993Z</time></trkpt><trkpt lat="44.0885217" lon="11.6471717"><ele>343.0</ele><time>2026-04-18T12:07:09.995Z</time></trkpt><trkpt lat="44.088655" lon="11.6471117"><ele>343.0</ele><time>2026-04-18T12:07:10.994Z</time></trkpt><trkpt lat="44.08879" lon="11.6470683"><ele>343.0</ele><time>2026-04-18T12:07:11.993Z</time></trkpt><trkpt lat="44.0889233" lon="11.6470383"><ele>343.0</ele><time>2026-04-18T12:07:12.994Z</time></trkpt><trkpt lat="44.08904" lon="11.6469983"><ele>338.0</ele><time>2026-04-18T12:07:13.994Z</time></trkpt><trkpt lat="44.089155" lon="11.6469583"><ele>333.0</ele><time>2026-04-18T12:07:14.994Z</time></trkpt><trkpt lat="44.0892667" lon="11.646905"><ele>328.0</ele><time>2026-04-18T12:07:15.995Z</time></trkpt><trkpt lat="44.0893733" lon="11.646845"><ele>323.0</ele><time>2026-04-18T12:07:16.993Z</time></trkpt><trkpt lat="44.089475" lon="11.6467833"><ele>323.0</ele><time>2026-04-18T12:07:17.993Z</time></trkpt><trkpt lat="44.0895833" lon="11.64672"><ele>323.0</ele><time>2026-04-18T12:07:18.994Z</time></trkpt><trkpt lat="44.089695" lon="11.6466683"><ele>323.0</ele><time>2026-04-18T12:07:19.994Z</time></trkpt><trkpt lat="44.0898033" lon="11.646605"><ele>323.0</ele><time>2026-04-18T12:07:20.995Z</time></trkpt><trkpt lat="44.0899117" lon="11.64655"><ele>325.2</ele><time>2026-04-18T12:07:21.994Z</time></trkpt><trkpt lat="44.0900167" lon="11.6465017"><ele>327.4</ele><time>2026-04-18T12:07:22.994Z</time></trkpt><trkpt lat="44.09012" lon="11.6464583"><ele>329.59999999999997</ele><time>2026-04-18T12:07:23.994Z</time></trkpt><trkpt lat="44.0902217" lon="11.64641"><ele>331.79999999999995</ele><time>2026-04-18T12:07:24.994Z</time></trkpt><trkpt lat="44.0903167" lon="11.6463567"><ele>334.0</ele><time>2026-04-18T12:07:25.994Z</time></trkpt><trkpt lat="44.0904067" lon="11.6463"><ele>334.0</ele><time>2026-04-18T12:07:26.994Z</time></trkpt><trkpt lat="44.090495" lon="11.64624"><ele>334.0</ele><time>2026-04-18T12:07:27.993Z</time></trkpt><trkpt lat="44.09058" lon="11.646155"><ele>334.0</ele><time>2026-04-18T12:07:28.993Z</time></trkpt><trkpt lat="44.09066" lon="11.646055"><ele>334.0</ele><time>2026-04-18T12:07:29.993Z</time></trkpt><trkpt lat="44.0907433" lon="11.6459467"><ele>334.0</ele><time>2026-04-18T12:07:30.993Z</time></trkpt><trkpt lat="44.0908367" lon="11.64584"><ele>331.0</ele><time>2026-04-18T12:07:31.995Z</time></trkpt><trkpt lat="44.0909317" lon="11.6457333"><ele>328.0</ele><time>2026-04-18T12:07:32.994Z</time></trkpt><trkpt lat="44.0910217" lon="11.6456267"><ele>325.0</ele><time>2026-04-18T12:07:33.993Z</time></trkpt><trkpt lat="44.0911167" lon="11.645535"><ele>322.0</ele><time>2026-04-18T12:07:34.994Z</time></trkpt><trkpt lat="44.0912133" lon="11.6454517"><ele>322.0</ele><time>2026-04-18T12:07:35.995Z</time></trkpt><trkpt lat="44.09131" lon="11.6453667"><ele>322.0</ele><time>2026-04-18T12:07:36.994Z</time></trkpt><trkpt lat="44.091405" lon="11.645285"><ele>322.0</ele><time>2026-04-18T12:07:37.994Z</time></trkpt><trkpt lat="44.0914917" lon="11.6451917"><ele>322.0</ele><time>2026-04-18T12:07:38.994Z</time></trkpt><trkpt lat="44.0915667" lon="11.6450783"><ele>322.0</ele><time>2026-04-18T12:07:39.994Z</time></trkpt><trkpt lat="44.0916417" lon="11.644965"><ele>320.5</ele><time>2026-04-18T12:07:40.993Z</time></trkpt><trkpt lat="44.0917233" lon="11.644855"><ele>319.0</ele><time>2026-04-18T12:07:41.993Z</time></trkpt><trkpt lat="44.0918167" lon="11.64475"><ele>317.5</ele><time>2026-04-18T12:07:42.994Z</time></trkpt><trkpt lat="44.0919133" lon="11.6446483"><ele>316.0</ele><time>2026-04-18T12:07:43.994Z</time></trkpt><trkpt lat="44.09201" lon="11.6445433"><ele>312.75</ele><time>2026-04-18T12:07:44.994Z</time></trkpt><trkpt lat="44.092105" lon="11.644435"><ele>309.5</ele><time>2026-04-18T12:07:45.993Z</time></trkpt><trkpt lat="44.0922017" lon="11.64433"><ele>306.25</ele><time>2026-04-18T12:07:46.993Z</time></trkpt><trkpt lat="44.0922933" lon="11.6442233"><ele>303.0</ele><time>2026-04-18T12:07:47.994Z</time></trkpt><trkpt lat="44.0923867" lon="11.6441183"><ele>305.75</ele><time>2026-04-18T12:07:48.998Z</time></trkpt><trkpt lat="44.0924817" lon="11.644015"><ele>308.5</ele><time>2026-04-18T12:07:49.993Z</time></trkpt><trkpt lat="44.0925817" lon="11.6439117"><ele>311.25</ele><time>2026-04-18T12:07:50.993Z</time></trkpt><trkpt lat="44.0926733" lon="11.6438133"><ele>314.0</ele><time>2026-04-18T12:07:51.993Z</time></trkpt><trkpt lat="44.0927633" lon="11.6437083"><ele>310.4</ele><time>2026-04-18T12:07:52.994Z</time></trkpt><trkpt lat="44.09284" lon="11.6435933"><ele>306.79999999999995</ele><time>2026-04-18T12:07:53.995Z</time></trkpt><trkpt lat="44.0929117" lon="11.6434783"><ele>303.20000000000005</ele><time>2026-04-18T12:07:54.993Z</time></trkpt><trkpt lat="44.0929783" lon="11.64336"><ele>299.6</ele><time>2026-04-18T12:07:55.993Z</time></trkpt><trkpt lat="44.0930433" lon="11.6432367"><ele>296.0</ele><time>2026-04-18T12:07:56.994Z</time></trkpt><trkpt lat="44.0931133" lon="11.6431083"><ele>296.0</ele><time>2026-04-18T12:07:57.994Z</time></trkpt><trkpt lat="44.0931883" lon="11.642975"><ele>296.0</ele><time>2026-04-18T12:07:58.994Z</time></trkpt><trkpt lat="44.093265" lon="11.642845"><ele>296.0</ele><time>2026-04-18T12:07:59.994Z</time></trkpt><trkpt lat="44.0933467" lon="11.642725"><ele>296.0</ele><time>2026-04-18T12:08:00.994Z</time></trkpt><trkpt lat="44.0934267" lon="11.6426067"><ele>294.8</ele><time>2026-04-18T12:08:01.994Z</time></trkpt><trkpt lat="44.0934983" lon="11.64248"><ele>293.6</ele><time>2026-04-18T12:08:02.994Z</time></trkpt><trkpt lat="44.0935583" lon="11.6423483"><ele>292.4</ele><time>2026-04-18T12:08:03.993Z</time></trkpt><trkpt lat="44.0936167" lon="11.6422167"><ele>291.2</ele><time>2026-04-18T12:08:04.993Z</time></trkpt><trkpt lat="44.093675" lon="11.6420883"><ele>290.0</ele><time>2026-04-18T12:08:05.993Z</time></trkpt><trkpt lat="44.0937333" lon="11.6419617"><ele>289.4</ele><time>2026-04-18T12:08:06.995Z</time></trkpt><trkpt lat="44.0937883" lon="11.6418367"><ele>288.8</ele><time>2026-04-18T12:08:07.995Z</time></trkpt><trkpt lat="44.0938467" lon="11.6417183"><ele>288.2</ele><time>2026-04-18T12:08:08.995Z</time></trkpt><trkpt lat="44.0939133" lon="11.64161"><ele>287.6</ele><time>2026-04-18T12:08:09.993Z</time></trkpt><trkpt lat="44.0939833" lon="11.64151"><ele>287.0</ele><time>2026-04-18T12:08:10.993Z</time></trkpt><trkpt lat="44.0940533" lon="11.641405"><ele>286.4</ele><time>2026-04-18T12:08:11.994Z</time></trkpt><trkpt lat="44.0941267" lon="11.6412967"><ele>285.79999999999995</ele><time>2026-04-18T12:08:12.994Z</time></trkpt><trkpt lat="44.0942033" lon="11.6411833"><ele>285.2</ele><time>2026-04-18T12:08:13.993Z</time></trkpt><trkpt lat="44.0942783" lon="11.6410667"><ele>284.59999999999997</ele><time>2026-04-18T12:08:14.993Z</time></trkpt><trkpt lat="44.094345" lon="11.6409483"><ele>284.0</ele><time>2026-04-18T12:08:15.993Z</time></trkpt><trkpt lat="44.0944133" lon="11.6408333"><ele>283.6666666666667</ele><time>2026-04-18T12:08:16.993Z</time></trkpt><trkpt lat="44.0944867" lon="11.6407333"><ele>283.33333333333337</ele><time>2026-04-18T12:08:17.993Z</time></trkpt><trkpt lat="44.0945583" lon="11.6406367"><ele>283.0</ele><time>2026-04-18T12:08:18.994Z</time></trkpt><trkpt lat="44.0946217" lon="11.6405417"><ele>282.6666666666667</ele><time>2026-04-18T12:08:19.993Z</time></trkpt><trkpt lat="44.094675" lon="11.6404583"><ele>282.3333333333333</ele><time>2026-04-18T12:08:20.995Z</time></trkpt><trkpt lat="44.0947167" lon="11.64039"><ele>282.0</ele><time>2026-04-18T12:08:21.993Z</time></trkpt><trkpt lat="44.094765" lon="11.640315"><ele>282.0</ele><time>2026-04-18T12:08:24.993Z</time></trkpt><trkpt lat="44.0947983" lon="11.6401883"><ele>280.0</ele><time>2026-04-18T12:08:27.993Z</time></trkpt><trkpt lat="44.09485" lon="11.6401033"><ele>280.0</ele><time>2026-04-18T12:08:31.994Z</time></trkpt><trkpt lat="44.0948733" lon="11.64002"><ele>280.0</ele><time>2026-04-18T12:08:33.994Z</time></trkpt></trkseg><trkseg><trkpt lat="44.0948183" lon="11.6400633"><ele>280.0</ele><time>2026-04-18T13:10:42.993Z</time></trkpt><trkpt lat="44.0947733" lon="11.64015"><ele>280.0</ele><time>2026-04-18T13:10:48.994Z</time></trkpt><trkpt lat="44.09479" lon="11.6402367"><ele>280.0</ele><time>2026-04-18T13:10:49.995Z</time></trkpt><trkpt lat="44.09482" lon="11.6403417"><ele>280.0</ele><time>2026-04-18T13:10:50.995Z</time></trkpt><trkpt lat="44.09486" lon="11.64048"><ele>280.0</ele><time>2026-04-18T13:10:51.994Z</time></trkpt><trkpt lat="44.0949283" lon="11.64068"><ele>280.0</ele><time>2026-04-18T13:10:52.995Z</time></trkpt><trkpt lat="44.0950267" lon="11.6409067"><ele>280.0</ele><time>2026-04-18T13:10:53.994Z</time></trkpt><trkpt lat="44.095135" lon="11.6411483"><ele>280.0</ele><time>2026-04-18T13:10:54.994Z</time></trkpt><trkpt lat="44.0952483" lon="11.6413883"><ele>280.3333333333333</ele><time>2026-04-18T13:10:55.994Z</time></trkpt><trkpt lat="44.0953583" lon="11.6416333"><ele>280.6666666666667</ele><time>2026-04-18T13:10:56.993Z</time></trkpt><trkpt lat="44.095475" lon="11.6419"><ele>281.0</ele><time>2026-04-18T13:10:57.995Z</time></trkpt><trkpt lat="44.09559" lon="11.64217"><ele>281.5</ele><time>2026-04-18T13:10:58.993Z</time></trkpt><trkpt lat="44.0957083" lon="11.6424483"><ele>282.0</ele><time>2026-04-18T13:10:59.994Z</time></trkpt><trkpt lat="44.095835" lon="11.6427317"><ele>280.6666666666667</ele><time>2026-04-18T13:11:00.994Z</time></trkpt><trkpt lat="44.0959467" lon="11.6430117"><ele>279.33333333333337</ele><time>2026-04-18T13:11:01.993Z</time></trkpt><trkpt lat="44.0960567" lon="11.6432683"><ele>278.0</ele><time>2026-04-18T13:11:02.994Z</time></trkpt><trkpt lat="44.0961567" lon="11.6435117"><ele>278.0</ele><time>2026-04-18T13:11:03.993Z</time></trkpt><trkpt lat="44.096255" lon="11.64374"><ele>278.0</ele><time>2026-04-18T13:11:04.994Z</time></trkpt><trkpt lat="44.0963467" lon="11.6439633"><ele>278.0</ele><time>2026-04-18T13:11:05.994Z</time></trkpt><trkpt lat="44.0964317" lon="11.644195"><ele>278.0</ele><time>2026-04-18T13:11:06.993Z</time></trkpt><trkpt lat="44.0965067" lon="11.6444467"><ele>278.0</ele><time>2026-04-18T13:11:07.993Z</time></trkpt><trkpt lat="44.0965767" lon="11.6447067"><ele>278.0</ele><time>2026-04-18T13:11:08.994Z</time></trkpt><trkpt lat="44.09665" lon="11.64497"><ele>277.6666666666667</ele><time>2026-04-18T13:11:09.994Z</time></trkpt><trkpt lat="44.096735" lon="11.64523"><ele>277.3333333333333</ele><time>2026-04-18T13:11:10.993Z</time></trkpt><trkpt lat="44.0968283" lon="11.64547"><ele>277.0</ele><time>2026-04-18T13:11:11.994Z</time></trkpt><trkpt lat="44.0969317" lon="11.6456917"><ele>278.0</ele><time>2026-04-18T13:11:12.994Z</time></trkpt><trkpt lat="44.09704" lon="11.6458867"><ele>279.0</ele><time>2026-04-18T13:11:13.993Z</time></trkpt><trkpt lat="44.0971483" lon="11.6460533"><ele>280.0</ele><time>2026-04-18T13:11:14.994Z</time></trkpt><trkpt lat="44.0972417" lon="11.6461883"><ele>280.16666666666663</ele><time>2026-04-18T13:11:15.994Z</time></trkpt><trkpt lat="44.0973217" lon="11.6463"><ele>280.3333333333333</ele><time>2026-04-18T13:11:16.994Z</time></trkpt><trkpt lat="44.09739" lon="11.6463883"><ele>280.5</ele><time>2026-04-18T13:11:17.994Z</time></trkpt><trkpt lat="44.0974617" lon="11.6464517"><ele>280.6666666666667</ele><time>2026-04-18T13:11:18.994Z</time></trkpt><trkpt lat="44.0975283" lon="11.6464683"><ele>280.83333333333337</ele><time>2026-04-18T13:11:19.994Z</time></trkpt><trkpt lat="44.097605" lon="11.6464633"><ele>281.0</ele><time>2026-04-18T13:11:20.995Z</time></trkpt><trkpt lat="44.097695" lon="11.6463817"><ele>279.75</ele><time>2026-04-18T13:11:21.994Z</time></trkpt><trkpt lat="44.0977917" lon="11.6463067"><ele>278.5</ele><time>2026-04-18T13:11:22.994Z</time></trkpt><trkpt lat="44.0979133" lon="11.646235"><ele>277.25</ele><time>2026-04-18T13:11:23.995Z</time></trkpt><trkpt lat="44.0980467" lon="11.6461417"><ele>276.0</ele><time>2026-04-18T13:11:24.994Z</time></trkpt><trkpt lat="44.0981667" lon="11.646045"><ele>274.0</ele><time>2026-04-18T13:11:25.994Z</time></trkpt><trkpt lat="44.0982767" lon="11.64595"><ele>272.0</ele><time>2026-04-18T13:11:27Z</time></trkpt><trkpt lat="44.0983783" lon="11.6458667"><ele>270.0</ele><time>2026-04-18T13:11:27.994Z</time></trkpt><trkpt lat="44.0984767" lon="11.6457867"><ele>268.0</ele><time>2026-04-18T13:11:28.994Z</time></trkpt><trkpt lat="44.098575" lon="11.6457067"><ele>268.0</ele><time>2026-04-18T13:11:29.993Z</time></trkpt><trkpt lat="44.0986767" lon="11.64562"><ele>268.0</ele><time>2026-04-18T13:11:30.994Z</time></trkpt><trkpt lat="44.0987833" lon="11.6455283"><ele>268.0</ele><time>2026-04-18T13:11:31.994Z</time></trkpt><trkpt lat="44.0988917" lon="11.6454367"><ele>268.0</ele><time>2026-04-18T13:11:32.994Z</time></trkpt><trkpt lat="44.098995" lon="11.6453467"><ele>268.8</ele><time>2026-04-18T13:11:33.994Z</time></trkpt><trkpt lat="44.0990883" lon="11.6452683"><ele>269.6</ele><time>2026-04-18T13:11:34.994Z</time></trkpt><trkpt lat="44.0991783" lon="11.6452167"><ele>270.4</ele><time>2026-04-18T13:11:35.994Z</time></trkpt><trkpt lat="44.0992617" lon="11.6452"><ele>271.2</ele><time>2026-04-18T13:11:36.994Z</time></trkpt><trkpt lat="44.0993467" lon="11.6452183"><ele>272.0</ele><time>2026-04-18T13:11:37.994Z</time></trkpt><trkpt lat="44.099425" lon="11.6452717"><ele>271.25</ele><time>2026-04-18T13:11:38.995Z</time></trkpt><trkpt lat="44.0994683" lon="11.64542"><ele>270.5</ele><time>2026-04-18T13:11:39.994Z</time></trkpt><trkpt lat="44.0995183" lon="11.6455733"><ele>269.75</ele><time>2026-04-18T13:11:40.994Z</time></trkpt><trkpt lat="44.099575" lon="11.645735"><ele>269.0</ele><time>2026-04-18T13:11:41.994Z</time></trkpt><trkpt lat="44.09964" lon="11.6459067"><ele>269.0</ele><time>2026-04-18T13:11:42.995Z</time></trkpt><trkpt lat="44.0997133" lon="11.6460883"><ele>269.0</ele><time>2026-04-18T13:11:43.994Z</time></trkpt><trkpt lat="44.0997883" lon="11.6462767"><ele>269.0</ele><time>2026-04-18T13:11:44.994Z</time></trkpt><trkpt lat="44.099865" lon="11.64647"><ele>269.0</ele><time>2026-04-18T13:11:45.992Z</time></trkpt><trkpt lat="44.09994" lon="11.6466617"><ele>269.0</ele><time>2026-04-18T13:11:46.994Z</time></trkpt><trkpt lat="44.1000117" lon="11.6468533"><ele>269.0</ele><time>2026-04-18T13:11:47.994Z</time></trkpt><trkpt lat="44.100085" lon="11.64704"><ele>269.0</ele><time>2026-04-18T13:11:48.993Z</time></trkpt><trkpt lat="44.1001567" lon="11.6472233"><ele>269.0</ele><time>2026-04-18T13:11:49.994Z</time></trkpt><trkpt lat="44.1002367" lon="11.6474"><ele>269.0</ele><time>2026-04-18T13:11:50.996Z</time></trkpt><trkpt lat="44.1003133" lon="11.647575"><ele>269.0</ele><time>2026-04-18T13:11:51.996Z</time></trkpt><trkpt lat="44.100385" lon="11.6477467"><ele>267.75</ele><time>2026-04-18T13:11:52.993Z</time></trkpt><trkpt lat="44.1004567" lon="11.6479183"><ele>266.5</ele><time>2026-04-18T13:11:53.994Z</time></trkpt><trkpt lat="44.1005283" lon="11.6480883"><ele>265.25</ele><time>2026-04-18T13:11:54.994Z</time></trkpt><trkpt lat="44.1006" lon="11.6482583"><ele>264.0</ele><time>2026-04-18T13:11:55.994Z</time></trkpt><trkpt lat="44.1006717" lon="11.648425"><ele>264.0</ele><time>2026-04-18T13:11:56.995Z</time></trkpt><trkpt lat="44.1007467" lon="11.6485983"><ele>264.0</ele><time>2026-04-18T13:11:57.994Z</time></trkpt><trkpt lat="44.100825" lon="11.6487717"><ele>264.0</ele><time>2026-04-18T13:11:58.993Z</time></trkpt><trkpt lat="44.1009033" lon="11.64895"><ele>264.0</ele><time>2026-04-18T13:11:59.993Z</time></trkpt><trkpt lat="44.1009783" lon="11.6491167"><ele>264.25</ele><time>2026-04-18T13:12:00.993Z</time></trkpt><trkpt lat="44.1010517" lon="11.6492767"><ele>264.5</ele><time>2026-04-18T13:12:01.993Z</time></trkpt><trkpt lat="44.10112" lon="11.6494367"><ele>264.75</ele><time>2026-04-18T13:12:02.995Z</time></trkpt><trkpt lat="44.10119" lon="11.6496"><ele>265.0</ele><time>2026-04-18T13:12:03.994Z</time></trkpt><trkpt lat="44.10126" lon="11.649765"><ele>265.0</ele><time>2026-04-18T13:12:04.993Z</time></trkpt><trkpt lat="44.1013317" lon="11.649935"><ele>265.0</ele><time>2026-04-18T13:12:05.994Z</time></trkpt><trkpt lat="44.1014067" lon="11.650105"><ele>265.0</ele><time>2026-04-18T13:12:06.993Z</time></trkpt><trkpt lat="44.1014783" lon="11.6502667"><ele>265.0</ele><time>2026-04-18T13:12:07.993Z</time></trkpt><trkpt lat="44.1015583" lon="11.650425"><ele>263.3333333333333</ele><time>2026-04-18T13:12:08.994Z</time></trkpt><trkpt lat="44.1016517" lon="11.6505817"><ele>261.6666666666667</ele><time>2026-04-18T13:12:09.993Z</time></trkpt><trkpt lat="44.101765" lon="11.6507283"><ele>260.0</ele><time>2026-04-18T13:12:10.993Z</time></trkpt><trkpt lat="44.1018933" lon="11.650865"><ele>260.0</ele><time>2026-04-18T13:12:11.994Z</time></trkpt><trkpt lat="44.1020267" lon="11.650995"><ele>260.0</ele><time>2026-04-18T13:12:12.994Z</time></trkpt><trkpt lat="44.1021633" lon="11.65112"><ele>260.0</ele><time>2026-04-18T13:12:13.993Z</time></trkpt><trkpt lat="44.1022917" lon="11.6512367"><ele>259.75</ele><time>2026-04-18T13:12:14.994Z</time></trkpt><trkpt lat="44.1024117" lon="11.65135"><ele>259.5</ele><time>2026-04-18T13:12:15.993Z</time></trkpt><trkpt lat="44.1025267" lon="11.651465"><ele>259.25</ele><time>2026-04-18T13:12:16.995Z</time></trkpt><trkpt lat="44.1026317" lon="11.651585"><ele>259.0</ele><time>2026-04-18T13:12:17.993Z</time></trkpt><trkpt lat="44.1027333" lon="11.6517133"><ele>259.0</ele><time>2026-04-18T13:12:18.994Z</time></trkpt><trkpt lat="44.1028217" lon="11.6518583"><ele>259.0</ele><time>2026-04-18T13:12:19.994Z</time></trkpt><trkpt lat="44.1029033" lon="11.6520167"><ele>259.0</ele><time>2026-04-18T13:12:20.993Z</time></trkpt><trkpt lat="44.10298" lon="11.6521817"><ele>259.0</ele><time>2026-04-18T13:12:21.993Z</time></trkpt><trkpt lat="44.1030533" lon="11.6523533"><ele>258.3333333333333</ele><time>2026-04-18T13:12:22.993Z</time></trkpt><trkpt lat="44.1031283" lon="11.65253"><ele>257.6666666666667</ele><time>2026-04-18T13:12:23.993Z</time></trkpt><trkpt lat="44.103205" lon="11.65271"><ele>257.0</ele><time>2026-04-18T13:12:24.993Z</time></trkpt><trkpt lat="44.1032867" lon="11.652895"><ele>257.0</ele><time>2026-04-18T13:12:25.995Z</time></trkpt><trkpt lat="44.10337" lon="11.65309"><ele>257.0</ele><time>2026-04-18T13:12:26.994Z</time></trkpt><trkpt lat="44.103455" lon="11.6532933"><ele>257.0</ele><time>2026-04-18T13:12:27.993Z</time></trkpt><trkpt lat="44.1035483" lon="11.6535033"><ele>256.33333333333337</ele><time>2026-04-18T13:12:28.993Z</time></trkpt><trkpt lat="44.1036367" lon="11.65372"><ele>255.66666666666669</ele><time>2026-04-18T13:12:29.993Z</time></trkpt><trkpt lat="44.1037233" lon="11.6539383"><ele>255.0</ele><time>2026-04-18T13:12:30.993Z</time></trkpt><trkpt lat="44.103815" lon="11.6541517"><ele>255.0</ele><time>2026-04-18T13:12:31.994Z</time></trkpt><trkpt lat="44.1039083" lon="11.65436"><ele>255.0</ele><time>2026-04-18T13:12:32.994Z</time></trkpt><trkpt lat="44.1040017" lon="11.6545517"><ele>255.0</ele><time>2026-04-18T13:12:33.994Z</time></trkpt><trkpt lat="44.1040933" lon="11.6547283"><ele>255.25</ele><time>2026-04-18T13:12:34.992Z</time></trkpt><trkpt lat="44.1041817" lon="11.6549017"><ele>255.5</ele><time>2026-04-18T13:12:35.993Z</time></trkpt><trkpt lat="44.1042617" lon="11.655065"><ele>255.75</ele><time>2026-04-18T13:12:36.994Z</time></trkpt><trkpt lat="44.1043333" lon="11.65522"><ele>256.0</ele><time>2026-04-18T13:12:37.994Z</time></trkpt><trkpt lat="44.1043917" lon="11.6553617"><ele>256.0</ele><time>2026-04-18T13:12:38.995Z</time></trkpt><trkpt lat="44.1044467" lon="11.6554833"><ele>256.0</ele><time>2026-04-18T13:12:39.993Z</time></trkpt><trkpt lat="44.104505" lon="11.6555883"><ele>256.0</ele><time>2026-04-18T13:12:40.994Z</time></trkpt><trkpt lat="44.104565" lon="11.655685"><ele>256.0</ele><time>2026-04-18T13:12:41.993Z</time></trkpt><trkpt lat="44.104615" lon="11.6557783"><ele>256.0</ele><time>2026-04-18T13:12:42.993Z</time></trkpt><trkpt lat="44.1046667" lon="11.6558783"><ele>256.0</ele><time>2026-04-18T13:12:43.994Z</time></trkpt><trkpt lat="44.104715" lon="11.6559883"><ele>256.0</ele><time>2026-04-18T13:12:44.994Z</time></trkpt><trkpt lat="44.10477" lon="11.6561017"><ele>256.0</ele><time>2026-04-18T13:12:45.993Z</time></trkpt><trkpt lat="44.1048283" lon="11.6562217"><ele>256.0</ele><time>2026-04-18T13:12:46.993Z</time></trkpt><trkpt lat="44.1048933" lon="11.6563517"><ele>256.0</ele><time>2026-04-18T13:12:47.993Z</time></trkpt><trkpt lat="44.1049583" lon="11.6564817"><ele>256.25</ele><time>2026-04-18T13:12:48.994Z</time></trkpt><trkpt lat="44.1050317" lon="11.6566183"><ele>256.5</ele><time>2026-04-18T13:12:49.994Z</time></trkpt><trkpt lat="44.105105" lon="11.6567617"><ele>256.75</ele><time>2026-04-18T13:12:50.994Z</time></trkpt><trkpt lat="44.105185" lon="11.6569067"><ele>257.0</ele><time>2026-04-18T13:12:51.994Z</time></trkpt><trkpt lat="44.1052633" lon="11.6570583"><ele>256.5</ele><time>2026-04-18T13:12:52.995Z</time></trkpt><trkpt lat="44.1053417" lon="11.6572117"><ele>256.0</ele><time>2026-04-18T13:12:53.993Z</time></trkpt><trkpt lat="44.1054217" lon="11.6573617"><ele>255.5</ele><time>2026-04-18T13:12:54.994Z</time></trkpt><trkpt lat="44.1055033" lon="11.657515"><ele>255.0</ele><time>2026-04-18T13:12:55.994Z</time></trkpt><trkpt lat="44.1055833" lon="11.657675"><ele>254.5</ele><time>2026-04-18T13:12:56.995Z</time></trkpt><trkpt lat="44.105665" lon="11.657835"><ele>254.0</ele><time>2026-04-18T13:12:57.993Z</time></trkpt><trkpt lat="44.1057483" lon="11.658"><ele>253.5</ele><time>2026-04-18T13:12:58.992Z</time></trkpt><trkpt lat="44.1058317" lon="11.6581667"><ele>253.0</ele><time>2026-04-18T13:12:59.993Z</time></trkpt><trkpt lat="44.1059183" lon="11.6583367"><ele>253.0</ele><time>2026-04-18T13:13:00.993Z</time></trkpt><trkpt lat="44.1060067" lon="11.65851"><ele>253.0</ele><time>2026-04-18T13:13:01.994Z</time></trkpt><trkpt lat="44.1060983" lon="11.6586833"><ele>253.0</ele><time>2026-04-18T13:13:02.995Z</time></trkpt><trkpt lat="44.1061883" lon="11.6588617"><ele>253.0</ele><time>2026-04-18T13:13:03.994Z</time></trkpt><trkpt lat="44.106285" lon="11.6590433"><ele>253.0</ele><time>2026-04-18T13:13:04.993Z</time></trkpt><trkpt lat="44.10638" lon="11.6592267"><ele>253.0</ele><time>2026-04-18T13:13:05.993Z</time></trkpt><trkpt lat="44.1064733" lon="11.6594117"><ele>253.33333333333331</ele><time>2026-04-18T13:13:06.993Z</time></trkpt><trkpt lat="44.1065717" lon="11.6595967"><ele>253.66666666666669</ele><time>2026-04-18T13:13:07.993Z</time></trkpt><trkpt lat="44.106675" lon="11.65978"><ele>254.0</ele><time>2026-04-18T13:13:08.994Z</time></trkpt><trkpt lat="44.10678" lon="11.6599667"><ele>254.0</ele><time>2026-04-18T13:13:09.993Z</time></trkpt><trkpt lat="44.1068833" lon="11.6601467"><ele>254.0</ele><time>2026-04-18T13:13:10.995Z</time></trkpt><trkpt lat="44.1069783" lon="11.66032"><ele>254.0</ele><time>2026-04-18T13:13:11.994Z</time></trkpt><trkpt lat="44.1070667" lon="11.66048"><ele>253.0</ele><time>2026-04-18T13:13:12.993Z</time></trkpt><trkpt lat="44.1071567" lon="11.660635"><ele>252.0</ele><time>2026-04-18T13:13:13.993Z</time></trkpt><trkpt lat="44.10725" lon="11.6607933"><ele>251.0</ele><time>2026-04-18T13:13:14.993Z</time></trkpt><trkpt lat="44.1073467" lon="11.6609567"><ele>250.0</ele><time>2026-04-18T13:13:15.994Z</time></trkpt><trkpt lat="44.107445" lon="11.6611233"><ele>250.0</ele><time>2026-04-18T13:13:16.993Z</time></trkpt><trkpt lat="44.107545" lon="11.6612933"><ele>250.0</ele><time>2026-04-18T13:13:17.993Z</time></trkpt><trkpt lat="44.10765" lon="11.6614683"><ele>250.0</ele><time>2026-04-18T13:13:18.994Z</time></trkpt><trkpt lat="44.1077567" lon="11.6616467"><ele>250.0</ele><time>2026-04-18T13:13:19.994Z</time></trkpt><trkpt lat="44.1078583" lon="11.6618267"><ele>250.0</ele><time>2026-04-18T13:13:20.995Z</time></trkpt><trkpt lat="44.1079583" lon="11.6620033"><ele>250.0</ele><time>2026-04-18T13:13:21.993Z</time></trkpt><trkpt lat="44.108055" lon="11.6621733"><ele>249.75</ele><time>2026-04-18T13:13:22.995Z</time></trkpt><trkpt lat="44.1081467" lon="11.6623333"><ele>249.5</ele><time>2026-04-18T13:13:23.994Z</time></trkpt><trkpt lat="44.10824" lon="11.6624833"><ele>249.25</ele><time>2026-04-18T13:13:24.993Z</time></trkpt><trkpt lat="44.1083333" lon="11.6626283"><ele>249.0</ele><time>2026-04-18T13:13:25.993Z</time></trkpt><trkpt lat="44.108435" lon="11.6627667"><ele>248.75</ele><time>2026-04-18T13:13:26.995Z</time></trkpt><trkpt lat="44.1085433" lon="11.6629"><ele>248.5</ele><time>2026-04-18T13:13:27.993Z</time></trkpt><trkpt lat="44.1086517" lon="11.6630183"><ele>248.25</ele><time>2026-04-18T13:13:28.993Z</time></trkpt><trkpt lat="44.1087583" lon="11.6631283"><ele>248.0</ele><time>2026-04-18T13:13:29.994Z</time></trkpt><trkpt lat="44.1088633" lon="11.6631983"><ele>248.0</ele><time>2026-04-18T13:13:30.994Z</time></trkpt><trkpt lat="44.108975" lon="11.6632367"><ele>248.0</ele><time>2026-04-18T13:13:31.994Z</time></trkpt><trkpt lat="44.1090933" lon="11.6632817"><ele>248.0</ele><time>2026-04-18T13:13:32.995Z</time></trkpt><trkpt lat="44.1092117" lon="11.6633433"><ele>248.0</ele><time>2026-04-18T13:13:33.993Z</time></trkpt><trkpt lat="44.1093183" lon="11.6634233"><ele>247.5</ele><time>2026-04-18T13:13:34.994Z</time></trkpt><trkpt lat="44.109425" lon="11.6635117"><ele>247.0</ele><time>2026-04-18T13:13:35.992Z</time></trkpt><trkpt lat="44.109535" lon="11.6636067"><ele>246.5</ele><time>2026-04-18T13:13:36.993Z</time></trkpt><trkpt lat="44.109645" lon="11.6637"><ele>246.0</ele><time>2026-04-18T13:13:37.994Z</time></trkpt><trkpt lat="44.1097433" lon="11.6637817"><ele>246.0</ele><time>2026-04-18T13:13:38.993Z</time></trkpt><trkpt lat="44.109835" lon="11.6638533"><ele>246.00000000000003</ele><time>2026-04-18T13:13:39.993Z</time></trkpt><trkpt lat="44.1099133" lon="11.663925"><ele>246.00000000000003</ele><time>2026-04-18T13:13:40.994Z</time></trkpt><trkpt lat="44.10997" lon="11.66401"><ele>246.0</ele><time>2026-04-18T13:13:41.993Z</time></trkpt><trkpt lat="44.110015" lon="11.664115"><ele>246.0</ele><time>2026-04-18T13:13:42.994Z</time></trkpt><trkpt lat="44.1100533" lon="11.6642417"><ele>246.0</ele><time>2026-04-18T13:13:43.993Z</time></trkpt><trkpt lat="44.1100967" lon="11.66438"><ele>246.0</ele><time>2026-04-18T13:13:44.993Z</time></trkpt><trkpt lat="44.1101417" lon="11.6645183"><ele>246.0</ele><time>2026-04-18T13:13:45.994Z</time></trkpt><trkpt lat="44.1101933" lon="11.6646617"><ele>246.0</ele><time>2026-04-18T13:13:46.993Z</time></trkpt><trkpt lat="44.1102533" lon="11.66481"><ele>246.0</ele><time>2026-04-18T13:13:47.993Z</time></trkpt><trkpt lat="44.11031" lon="11.6649483"><ele>246.00000000000003</ele><time>2026-04-18T13:13:48.993Z</time></trkpt><trkpt lat="44.11036" lon="11.6650833"><ele>246.00000000000003</ele><time>2026-04-18T13:13:49.993Z</time></trkpt><trkpt lat="44.1104" lon="11.6652167"><ele>246.0</ele><time>2026-04-18T13:13:50.995Z</time></trkpt><trkpt lat="44.110435" lon="11.6653417"><ele>246.0</ele><time>2026-04-18T13:13:51.994Z</time></trkpt><trkpt lat="44.1104717" lon="11.665465"><ele>245.8</ele><time>2026-04-18T13:13:52.994Z</time></trkpt><trkpt lat="44.1105083" lon="11.6655883"><ele>245.60000000000002</ele><time>2026-04-18T13:13:53.993Z</time></trkpt><trkpt lat="44.1105517" lon="11.6657067"><ele>245.4</ele><time>2026-04-18T13:13:54.994Z</time></trkpt><trkpt lat="44.11061" lon="11.665815"><ele>245.2</ele><time>2026-04-18T13:13:55.996Z</time></trkpt><trkpt lat="44.110675" lon="11.6659167"><ele>245.0</ele><time>2026-04-18T13:13:56.993Z</time></trkpt><trkpt lat="44.11075" lon="11.6660083"><ele>245.0</ele><time>2026-04-18T13:13:57.994Z</time></trkpt><trkpt lat="44.1108333" lon="11.6660967"><ele>245.0</ele><time>2026-04-18T13:13:58.994Z</time></trkpt><trkpt lat="44.1109233" lon="11.6661883"><ele>245.0</ele><time>2026-04-18T13:13:59.995Z</time></trkpt><trkpt lat="44.1110183" lon="11.6662767"><ele>245.0</ele><time>2026-04-18T13:14:00.993Z</time></trkpt><trkpt lat="44.1111133" lon="11.6663683"><ele>245.0</ele><time>2026-04-18T13:14:01.993Z</time></trkpt><trkpt lat="44.11121" lon="11.66646"><ele>245.0</ele><time>2026-04-18T13:14:02.994Z</time></trkpt><trkpt lat="44.1113017" lon="11.6665517"><ele>245.0</ele><time>2026-04-18T13:14:03.995Z</time></trkpt><trkpt lat="44.1113867" lon="11.6666333"><ele>245.0</ele><time>2026-04-18T13:14:04.994Z</time></trkpt><trkpt lat="44.1114683" lon="11.6667067"><ele>245.0</ele><time>2026-04-18T13:14:05.994Z</time></trkpt><trkpt lat="44.111545" lon="11.6667733"><ele>245.0</ele><time>2026-04-18T13:14:06.995Z</time></trkpt><trkpt lat="44.1116217" lon="11.66684"><ele>245.0</ele><time>2026-04-18T13:14:07.994Z</time></trkpt><trkpt lat="44.1116983" lon="11.6669083"><ele>245.0</ele><time>2026-04-18T13:14:08.995Z</time></trkpt><trkpt lat="44.1117817" lon="11.6669817"><ele>245.0</ele><time>2026-04-18T13:14:09.993Z</time></trkpt><trkpt lat="44.11187" lon="11.667055"><ele>245.0</ele><time>2026-04-18T13:14:10.993Z</time></trkpt><trkpt lat="44.1119617" lon="11.6671267"><ele>245.0</ele><time>2026-04-18T13:14:11.993Z</time></trkpt><trkpt lat="44.112055" lon="11.6672033"><ele>245.0</ele><time>2026-04-18T13:14:12.994Z</time></trkpt><trkpt lat="44.1121517" lon="11.66728"><ele>245.0</ele><time>2026-04-18T13:14:13.993Z</time></trkpt><trkpt lat="44.1122533" lon="11.6673583"><ele>245.0</ele><time>2026-04-18T13:14:14.993Z</time></trkpt><trkpt lat="44.1123517" lon="11.6674417"><ele>245.0</ele><time>2026-04-18T13:14:15.993Z</time></trkpt><trkpt lat="44.1124533" lon="11.6675267"><ele>244.5</ele><time>2026-04-18T13:14:16.994Z</time></trkpt><trkpt lat="44.112555" lon="11.667615"><ele>244.0</ele><time>2026-04-18T13:14:17.995Z</time></trkpt><trkpt lat="44.11266" lon="11.6677067"><ele>243.5</ele><time>2026-04-18T13:14:18.993Z</time></trkpt><trkpt lat="44.112765" lon="11.667805"><ele>243.0</ele><time>2026-04-18T13:14:19.994Z</time></trkpt><trkpt lat="44.11287" lon="11.6679083"><ele>243.0</ele><time>2026-04-18T13:14:20.993Z</time></trkpt><trkpt lat="44.1129733" lon="11.668015"><ele>243.0</ele><time>2026-04-18T13:14:21.994Z</time></trkpt><trkpt lat="44.1130767" lon="11.6681267"><ele>243.0</ele><time>2026-04-18T13:14:22.993Z</time></trkpt><trkpt lat="44.1131833" lon="11.6682333"><ele>243.0</ele><time>2026-04-18T13:14:23.997Z</time></trkpt><trkpt lat="44.1132933" lon="11.66834"><ele>243.0</ele><time>2026-04-18T13:14:24.993Z</time></trkpt><trkpt lat="44.1134017" lon="11.6684483"><ele>243.0</ele><time>2026-04-18T13:14:25.993Z</time></trkpt><trkpt lat="44.113515" lon="11.66856"><ele>243.0</ele><time>2026-04-18T13:14:26.996Z</time></trkpt><trkpt lat="44.113625" lon="11.6686733"><ele>243.0</ele><time>2026-04-18T13:14:27.995Z</time></trkpt><trkpt lat="44.1137333" lon="11.668795"><ele>243.0</ele><time>2026-04-18T13:14:28.996Z</time></trkpt><trkpt lat="44.11384" lon="11.6689283"><ele>243.0</ele><time>2026-04-18T13:14:29.994Z</time></trkpt><trkpt lat="44.1139433" lon="11.6690733"><ele>243.0</ele><time>2026-04-18T13:14:30.993Z</time></trkpt><trkpt lat="44.1140383" lon="11.6692233"><ele>243.0</ele><time>2026-04-18T13:14:31.993Z</time></trkpt><trkpt lat="44.1141233" lon="11.6693733"><ele>244.75</ele><time>2026-04-18T13:14:32.994Z</time></trkpt><trkpt lat="44.1142033" lon="11.669535"><ele>246.5</ele><time>2026-04-18T13:14:33.994Z</time></trkpt><trkpt lat="44.1142783" lon="11.6696933"><ele>248.25</ele><time>2026-04-18T13:14:34.994Z</time></trkpt><trkpt lat="44.1143517" lon="11.6698533"><ele>250.0</ele><time>2026-04-18T13:14:35.993Z</time></trkpt><trkpt lat="44.1144283" lon="11.6700133"><ele>250.0</ele><time>2026-04-18T13:14:36.994Z</time></trkpt><trkpt lat="44.1145017" lon="11.6701717"><ele>250.0</ele><time>2026-04-18T13:14:37.993Z</time></trkpt><trkpt lat="44.114575" lon="11.6703267"><ele>250.0</ele><time>2026-04-18T13:14:38.994Z</time></trkpt><trkpt lat="44.1146517" lon="11.6704733"><ele>250.0</ele><time>2026-04-18T13:14:39.994Z</time></trkpt><trkpt lat="44.1147317" lon="11.6705933"><ele>250.49999999999997</ele><time>2026-04-18T13:14:40.994Z</time></trkpt><trkpt lat="44.11481" lon="11.6706717"><ele>251.0</ele><time>2026-04-18T13:14:41.994Z</time></trkpt><trkpt lat="44.1148833" lon="11.6707133"><ele>251.5</ele><time>2026-04-18T13:14:42.995Z</time></trkpt><trkpt lat="44.1149533" lon="11.6707417"><ele>252.0</ele><time>2026-04-18T13:14:43.993Z</time></trkpt><trkpt lat="44.1150217" lon="11.6707733"><ele>252.49999999999997</ele><time>2026-04-18T13:14:44.994Z</time></trkpt><trkpt lat="44.1150933" lon="11.670815"><ele>253.0</ele><time>2026-04-18T13:14:45.993Z</time></trkpt><trkpt lat="44.1151667" lon="11.670865"><ele>253.0</ele><time>2026-04-18T13:14:46.993Z</time></trkpt><trkpt lat="44.1152483" lon="11.6709233"><ele>253.0</ele><time>2026-04-18T13:14:47.993Z</time></trkpt><trkpt lat="44.1153367" lon="11.6709833"><ele>253.0</ele><time>2026-04-18T13:14:48.995Z</time></trkpt><trkpt lat="44.115435" lon="11.6710417"><ele>253.0</ele><time>2026-04-18T13:14:49.995Z</time></trkpt><trkpt lat="44.1155417" lon="11.6711"><ele>253.0</ele><time>2026-04-18T13:14:50.994Z</time></trkpt><trkpt lat="44.115655" lon="11.6711617"><ele>252.2</ele><time>2026-04-18T13:14:51.995Z</time></trkpt><trkpt lat="44.11577" lon="11.6712267"><ele>251.4</ele><time>2026-04-18T13:14:52.994Z</time></trkpt><trkpt lat="44.11588" lon="11.6712917"><ele>250.59999999999997</ele><time>2026-04-18T13:14:53.993Z</time></trkpt><trkpt lat="44.1159783" lon="11.6713533"><ele>249.79999999999998</ele><time>2026-04-18T13:14:54.994Z</time></trkpt><trkpt lat="44.1160583" lon="11.6714233"><ele>249.0</ele><time>2026-04-18T13:14:55.992Z</time></trkpt><trkpt lat="44.1161217" lon="11.6714867"><ele>249.0</ele><time>2026-04-18T13:14:56.994Z</time></trkpt><trkpt lat="44.11618" lon="11.6715467"><ele>249.0</ele><time>2026-04-18T13:14:57.996Z</time></trkpt><trkpt lat="44.1162333" lon="11.671605"><ele>249.0</ele><time>2026-04-18T13:14:58.993Z</time></trkpt><trkpt lat="44.11633" lon="11.671675"><ele>249.0</ele><time>2026-04-18T13:15:00.994Z</time></trkpt><trkpt lat="44.1164217" lon="11.671665"><ele>249.0</ele><time>2026-04-18T13:15:02.994Z</time></trkpt><trkpt lat="44.1164867" lon="11.6715917"><ele>249.0</ele><time>2026-04-18T13:15:04.993Z</time></trkpt><trkpt lat="44.1165917" lon="11.6715917"><ele>249.16666666666666</ele><time>2026-04-18T13:15:06.994Z</time></trkpt><trkpt lat="44.11671" lon="11.6716133"><ele>249.33333333333331</ele><time>2026-04-18T13:15:08.994Z</time></trkpt><trkpt lat="44.11678" lon="11.671645"><ele>249.5</ele><time>2026-04-18T13:15:09.993Z</time></trkpt><trkpt lat="44.11684" lon="11.6716883"><ele>249.66666666666666</ele><time>2026-04-18T13:15:10.993Z</time></trkpt><trkpt lat="44.1168933" lon="11.6717483"><ele>249.83333333333331</ele><time>2026-04-18T13:15:11.994Z</time></trkpt><trkpt lat="44.1169383" lon="11.6718117"><ele>250.0</ele><time>2026-04-18T13:15:12.993Z</time></trkpt><trkpt lat="44.117005" lon="11.6719233"><ele>249.99999999999997</ele><time>2026-04-18T13:15:14.996Z</time></trkpt><trkpt lat="44.1170567" lon="11.671985"><ele>250.0</ele><time>2026-04-18T13:15:16.995Z</time></trkpt><trkpt lat="44.1171467" lon="11.67193"><ele>250.0</ele><time>2026-04-18T13:15:18.995Z</time></trkpt><trkpt lat="44.11725" lon="11.6718467"><ele>250.0</ele><time>2026-04-18T13:15:20.993Z</time></trkpt><trkpt lat="44.1173467" lon="11.6718533"><ele>249.99999999999997</ele><time>2026-04-18T13:15:22.994Z</time></trkpt><trkpt lat="44.1174033" lon="11.6718983"><ele>250.0</ele><time>2026-04-18T13:15:23.993Z</time></trkpt><trkpt lat="44.1174617" lon="11.67196"><ele>251.83333333333331</ele><time>2026-04-18T13:15:24.993Z</time></trkpt><trkpt lat="44.11751" lon="11.6720167"><ele>253.66666666666666</ele><time>2026-04-18T13:15:25.994Z</time></trkpt><trkpt lat="44.1175633" lon="11.6720967"><ele>255.5</ele><time>2026-04-18T13:15:26.994Z</time></trkpt><trkpt lat="44.1176083" lon="11.6721817"><ele>257.3333333333333</ele><time>2026-04-18T13:15:27.995Z</time></trkpt><trkpt lat="44.1176417" lon="11.6722667"><ele>259.1666666666667</ele><time>2026-04-18T13:15:28.994Z</time></trkpt><trkpt lat="44.1176733" lon="11.67235"><ele>261.0</ele><time>2026-04-18T13:15:29.994Z</time></trkpt><trkpt lat="44.1177333" lon="11.67249"><ele>261.0</ele><time>2026-04-18T13:15:31.993Z</time></trkpt><trkpt lat="44.1177967" lon="11.672615"><ele>261.0</ele><time>2026-04-18T13:15:33.993Z</time></trkpt><trkpt lat="44.1178367" lon="11.6726917"><ele>261.0</ele><time>2026-04-18T13:15:34.993Z</time></trkpt><trkpt lat="44.1178717" lon="11.6727833"><ele>261.0</ele><time>2026-04-18T13:15:35.992Z</time></trkpt><trkpt lat="44.117905" lon="11.6728933"><ele>261.0</ele><time>2026-04-18T13:15:36.992Z</time></trkpt><trkpt lat="44.11794" lon="11.6730083"><ele>261.0</ele><time>2026-04-18T13:15:37.994Z</time></trkpt><trkpt lat="44.1179833" lon="11.67312"><ele>261.0</ele><time>2026-04-18T13:15:38.993Z</time></trkpt><trkpt lat="44.1180233" lon="11.67322"><ele>261.0</ele><time>2026-04-18T13:15:39.992Z</time></trkpt><trkpt lat="44.11807" lon="11.6733133"><ele>261.0</ele><time>2026-04-18T13:15:40.993Z</time></trkpt><trkpt lat="44.1181183" lon="11.673405"><ele>261.0</ele><time>2026-04-18T13:15:41.993Z</time></trkpt><trkpt lat="44.1181733" lon="11.6734867"><ele>261.0</ele><time>2026-04-18T13:15:42.994Z</time></trkpt><trkpt lat="44.1182367" lon="11.67355"><ele>261.0</ele><time>2026-04-18T13:15:43.993Z</time></trkpt><trkpt lat="44.1183067" lon="11.6735983"><ele>259.0</ele><time>2026-04-18T13:15:44.994Z</time></trkpt><trkpt lat="44.11838" lon="11.6736467"><ele>257.0</ele><time>2026-04-18T13:15:45.994Z</time></trkpt><trkpt lat="44.1184483" lon="11.6737033"><ele>255.0</ele><time>2026-04-18T13:15:46.994Z</time></trkpt><trkpt lat="44.1185017" lon="11.6737967"><ele>253.0</ele><time>2026-04-18T13:15:47.993Z</time></trkpt><trkpt lat="44.1185267" lon="11.6739083"><ele>251.0</ele><time>2026-04-18T13:15:48.994Z</time></trkpt><trkpt lat="44.1185283" lon="11.67403"><ele>249.0</ele><time>2026-04-18T13:15:49.993Z</time></trkpt><trkpt lat="44.1185267" lon="11.6741533"><ele>249.0</ele><time>2026-04-18T13:15:50.994Z</time></trkpt><trkpt lat="44.1185183" lon="11.67427"><ele>249.0</ele><time>2026-04-18T13:15:51.994Z</time></trkpt><trkpt lat="44.118505" lon="11.6743833"><ele>249.0</ele><time>2026-04-18T13:15:52.994Z</time></trkpt><trkpt lat="44.1184967" lon="11.6745033"><ele>249.0</ele><time>2026-04-18T13:15:53.994Z</time></trkpt><trkpt lat="44.1184917" lon="11.67463"><ele>249.0</ele><time>2026-04-18T13:15:54.994Z</time></trkpt><trkpt lat="44.1184983" lon="11.6747617"><ele>249.0</ele><time>2026-04-18T13:15:55.994Z</time></trkpt><trkpt lat="44.1185133" lon="11.6748967"><ele>247.2</ele><time>2026-04-18T13:15:56.993Z</time></trkpt><trkpt lat="44.11854" lon="11.6750333"><ele>245.39999999999998</ele><time>2026-04-18T13:15:57.994Z</time></trkpt><trkpt lat="44.118585" lon="11.6751733"><ele>243.6</ele><time>2026-04-18T13:15:58.993Z</time></trkpt><trkpt lat="44.1186367" lon="11.67532"><ele>241.8</ele><time>2026-04-18T13:15:59.994Z</time></trkpt><trkpt lat="44.1186783" lon="11.6754717"><ele>240.0</ele><time>2026-04-18T13:16:00.993Z</time></trkpt><trkpt lat="44.1187183" lon="11.6756217"><ele>238.75</ele><time>2026-04-18T13:16:01.993Z</time></trkpt><trkpt lat="44.1187667" lon="11.6757733"><ele>237.5</ele><time>2026-04-18T13:16:02.993Z</time></trkpt><trkpt lat="44.1188417" lon="11.67592"><ele>236.25</ele><time>2026-04-18T13:16:03.994Z</time></trkpt><trkpt lat="44.11894" lon="11.6760633"><ele>235.0</ele><time>2026-04-18T13:16:04.995Z</time></trkpt><trkpt lat="44.1190517" lon="11.6761967"><ele>235.66666666666666</ele><time>2026-04-18T13:16:05.993Z</time></trkpt><trkpt lat="44.1191733" lon="11.6763317"><ele>236.33333333333331</ele><time>2026-04-18T13:16:06.993Z</time></trkpt><trkpt lat="44.1193" lon="11.67645"><ele>237.0</ele><time>2026-04-18T13:16:07.994Z</time></trkpt><trkpt lat="44.1194383" lon="11.6765667"><ele>237.0</ele><time>2026-04-18T13:16:08.994Z</time></trkpt><trkpt lat="44.1195867" lon="11.6766783"><ele>237.0</ele><time>2026-04-18T13:16:09.993Z</time></trkpt><trkpt lat="44.1197483" lon="11.67679"><ele>237.0</ele><time>2026-04-18T13:16:10.994Z</time></trkpt><trkpt lat="44.1199133" lon="11.676895"><ele>236.33333333333331</ele><time>2026-04-18T13:16:11.992Z</time></trkpt><trkpt lat="44.1200867" lon="11.676995"><ele>235.66666666666666</ele><time>2026-04-18T13:16:12.994Z</time></trkpt><trkpt lat="44.1202617" lon="11.6770883"><ele>235.0</ele><time>2026-04-18T13:16:13.993Z</time></trkpt><trkpt lat="44.1204383" lon="11.677175"><ele>235.0</ele><time>2026-04-18T13:16:14.994Z</time></trkpt><trkpt lat="44.1206033" lon="11.67725"><ele>235.0</ele><time>2026-04-18T13:16:15.994Z</time></trkpt><trkpt lat="44.1207533" lon="11.6773233"><ele>235.0</ele><time>2026-04-18T13:16:16.993Z</time></trkpt><trkpt lat="44.1208917" lon="11.67738"><ele>235.5</ele><time>2026-04-18T13:16:17.995Z</time></trkpt><trkpt lat="44.1210267" lon="11.677405"><ele>236.0</ele><time>2026-04-18T13:16:18.994Z</time></trkpt><trkpt lat="44.12116" lon="11.6773833"><ele>236.5</ele><time>2026-04-18T13:16:19.994Z</time></trkpt><trkpt lat="44.1212833" lon="11.67732"><ele>237.0</ele><time>2026-04-18T13:16:20.994Z</time></trkpt><trkpt lat="44.121405" lon="11.67726"><ele>237.0</ele><time>2026-04-18T13:16:21.993Z</time></trkpt><trkpt lat="44.12152" lon="11.67722"><ele>237.0</ele><time>2026-04-18T13:16:22.993Z</time></trkpt><trkpt lat="44.1216317" lon="11.6772167"><ele>237.0</ele><time>2026-04-18T13:16:23.993Z</time></trkpt><trkpt lat="44.12175" lon="11.6772533"><ele>237.0</ele><time>2026-04-18T13:16:24.993Z</time></trkpt><trkpt lat="44.1218767" lon="11.677335"><ele>237.0</ele><time>2026-04-18T13:16:25.994Z</time></trkpt><trkpt lat="44.1220133" lon="11.6774267"><ele>237.0</ele><time>2026-04-18T13:16:26.994Z</time></trkpt><trkpt lat="44.12216" lon="11.67752"><ele>237.0</ele><time>2026-04-18T13:16:27.995Z</time></trkpt><trkpt lat="44.1223117" lon="11.677615"><ele>238.33333333333331</ele><time>2026-04-18T13:16:28.994Z</time></trkpt><trkpt lat="44.12247" lon="11.6777083"><ele>239.66666666666666</ele><time>2026-04-18T13:16:29.995Z</time></trkpt><trkpt lat="44.1226283" lon="11.6778017"><ele>241.0</ele><time>2026-04-18T13:16:30.993Z</time></trkpt><trkpt lat="44.1227783" lon="11.6778867"><ele>239.25</ele><time>2026-04-18T13:16:31.993Z</time></trkpt><trkpt lat="44.1229217" lon="11.6779667"><ele>237.5</ele><time>2026-04-18T13:16:32.995Z</time></trkpt><trkpt lat="44.1230567" lon="11.6780467"><ele>235.75</ele><time>2026-04-18T13:16:33.992Z</time></trkpt><trkpt lat="44.1231833" lon="11.6781233"><ele>234.0</ele><time>2026-04-18T13:16:34.995Z</time></trkpt><trkpt lat="44.1232933" lon="11.6781983"><ele>234.0</ele><time>2026-04-18T13:16:35.993Z</time></trkpt><trkpt lat="44.1233817" lon="11.67827"><ele>234.0</ele><time>2026-04-18T13:16:36.993Z</time></trkpt><trkpt lat="44.12345" lon="11.678335"><ele>234.0</ele><time>2026-04-18T13:16:37.993Z</time></trkpt><trkpt lat="44.12351" lon="11.6783917"><ele>234.0</ele><time>2026-04-18T13:16:38.993Z</time></trkpt><trkpt lat="44.1235767" lon="11.6784433"><ele>234.0</ele><time>2026-04-18T13:16:39.993Z</time></trkpt><trkpt lat="44.123655" lon="11.67848"><ele>234.0</ele><time>2026-04-18T13:16:40.993Z</time></trkpt><trkpt lat="44.1237633" lon="11.678515"><ele>234.0</ele><time>2026-04-18T13:16:41.994Z</time></trkpt><trkpt lat="44.1238917" lon="11.6785683"><ele>234.0</ele><time>2026-04-18T13:16:42.993Z</time></trkpt><trkpt lat="44.1240233" lon="11.6786433"><ele>234.0</ele><time>2026-04-18T13:16:43.993Z</time></trkpt><trkpt lat="44.1241583" lon="11.6787367"><ele>234.0</ele><time>2026-04-18T13:16:44.994Z</time></trkpt><trkpt lat="44.1242967" lon="11.6788417"><ele>233.66666666666669</ele><time>2026-04-18T13:16:45.994Z</time></trkpt><trkpt lat="44.1244383" lon="11.6789433"><ele>233.33333333333334</ele><time>2026-04-18T13:16:46.993Z</time></trkpt><trkpt lat="44.1245733" lon="11.6790417"><ele>233.0</ele><time>2026-04-18T13:16:47.995Z</time></trkpt><trkpt lat="44.1247033" lon="11.6791383"><ele>233.0</ele><time>2026-04-18T13:16:48.992Z</time></trkpt><trkpt lat="44.12483" lon="11.6792317"><ele>233.0</ele><time>2026-04-18T13:16:49.994Z</time></trkpt><trkpt lat="44.124955" lon="11.6793267"><ele>233.0</ele><time>2026-04-18T13:16:50.994Z</time></trkpt><trkpt lat="44.1250833" lon="11.6794117"><ele>233.0</ele><time>2026-04-18T13:16:51.993Z</time></trkpt><trkpt lat="44.12522" lon="11.6794783"><ele>232.0</ele><time>2026-04-18T13:16:52.994Z</time></trkpt><trkpt lat="44.125365" lon="11.6795183"><ele>231.0</ele><time>2026-04-18T13:16:53.995Z</time></trkpt><trkpt lat="44.12551" lon="11.6795133"><ele>230.0</ele><time>2026-04-18T13:16:54.993Z</time></trkpt><trkpt lat="44.1256567" lon="11.6794717"><ele>229.0</ele><time>2026-04-18T13:16:55.993Z</time></trkpt><trkpt lat="44.1258033" lon="11.6794067"><ele>234.66666666666666</ele><time>2026-04-18T13:16:56.995Z</time></trkpt><trkpt lat="44.12595" lon="11.6793417"><ele>240.33333333333331</ele><time>2026-04-18T13:16:57.993Z</time></trkpt><trkpt lat="44.1261017" lon="11.6792983"><ele>246.0</ele><time>2026-04-18T13:16:58.995Z</time></trkpt><trkpt lat="44.12626" lon="11.6792917"><ele>246.0</ele><time>2026-04-18T13:16:59.993Z</time></trkpt><trkpt lat="44.12642" lon="11.6793133"><ele>246.0</ele><time>2026-04-18T13:17:00.993Z</time></trkpt><trkpt lat="44.1265783" lon="11.6793567"><ele>246.0</ele><time>2026-04-18T13:17:01.995Z</time></trkpt><trkpt lat="44.1267417" lon="11.6794033"><ele>247.0</ele><time>2026-04-18T13:17:02.995Z</time></trkpt><trkpt lat="44.12691" lon="11.679435"><ele>248.0</ele><time>2026-04-18T13:17:03.995Z</time></trkpt><trkpt lat="44.1270767" lon="11.67943"><ele>249.0</ele><time>2026-04-18T13:17:04.994Z</time></trkpt><trkpt lat="44.1272467" lon="11.6794033"><ele>253.66666666666669</ele><time>2026-04-18T13:17:05.994Z</time></trkpt><trkpt lat="44.127415" lon="11.6793733"><ele>258.33333333333337</ele><time>2026-04-18T13:17:06.993Z</time></trkpt><trkpt lat="44.127585" lon="11.67936"><ele>263.0</ele><time>2026-04-18T13:17:07.994Z</time></trkpt><trkpt lat="44.127755" lon="11.6793717"><ele>263.0</ele><time>2026-04-18T13:17:08.995Z</time></trkpt><trkpt lat="44.1279117" lon="11.6794067"><ele>263.0</ele><time>2026-04-18T13:17:09.994Z</time></trkpt><trkpt lat="44.1280583" lon="11.6794683"><ele>263.0</ele><time>2026-04-18T13:17:10.996Z</time></trkpt><trkpt lat="44.1281983" lon="11.6795583"><ele>257.0</ele><time>2026-04-18T13:17:11.993Z</time></trkpt><trkpt lat="44.12833" lon="11.6796783"><ele>251.0</ele><time>2026-04-18T13:17:12.993Z</time></trkpt><trkpt lat="44.128435" lon="11.679825"><ele>245.0</ele><time>2026-04-18T13:17:13.993Z</time></trkpt><trkpt lat="44.12852" lon="11.6799967"><ele>245.0</ele><time>2026-04-18T13:17:14.994Z</time></trkpt><trkpt lat="44.1285867" lon="11.6801867"><ele>245.0</ele><time>2026-04-18T13:17:15.993Z</time></trkpt><trkpt lat="44.1286517" lon="11.6803733"><ele>245.0</ele><time>2026-04-18T13:17:16.993Z</time></trkpt><trkpt lat="44.12872" lon="11.680545"><ele>245.0</ele><time>2026-04-18T13:17:17.993Z</time></trkpt><trkpt lat="44.1288017" lon="11.6806933"><ele>246.0</ele><time>2026-04-18T13:17:18.993Z</time></trkpt><trkpt lat="44.1289017" lon="11.6808167"><ele>247.0</ele><time>2026-04-18T13:17:19.994Z</time></trkpt><trkpt lat="44.1290183" lon="11.68092"><ele>248.0</ele><time>2026-04-18T13:17:20.994Z</time></trkpt><trkpt lat="44.1291433" lon="11.681005"><ele>249.0</ele><time>2026-04-18T13:17:21.994Z</time></trkpt><trkpt lat="44.1292783" lon="11.6810767"><ele>245.25</ele><time>2026-04-18T13:17:22.994Z</time></trkpt><trkpt lat="44.12942" lon="11.681135"><ele>241.5</ele><time>2026-04-18T13:17:23.994Z</time></trkpt><trkpt lat="44.1295633" lon="11.6811817"><ele>237.75</ele><time>2026-04-18T13:17:24.994Z</time></trkpt><trkpt lat="44.1297067" lon="11.6812133"><ele>234.0</ele><time>2026-04-18T13:17:25.993Z</time></trkpt><trkpt lat="44.1298517" lon="11.681235"><ele>235.75</ele><time>2026-04-18T13:17:26.994Z</time></trkpt><trkpt lat="44.1299967" lon="11.6812367"><ele>237.5</ele><time>2026-04-18T13:17:27.994Z</time></trkpt><trkpt lat="44.1301433" lon="11.6812067"><ele>239.25</ele><time>2026-04-18T13:17:28.995Z</time></trkpt><trkpt lat="44.1302867" lon="11.6811433"><ele>241.0</ele><time>2026-04-18T13:17:29.994Z</time></trkpt><trkpt lat="44.1304283" lon="11.681045"><ele>241.33333333333331</ele><time>2026-04-18T13:17:30.996Z</time></trkpt><trkpt lat="44.1305683" lon="11.6809233"><ele>241.66666666666669</ele><time>2026-04-18T13:17:31.994Z</time></trkpt><trkpt lat="44.1307117" lon="11.6807983"><ele>242.0</ele><time>2026-04-18T13:17:32.993Z</time></trkpt><trkpt lat="44.1308617" lon="11.68067"><ele>242.0</ele><time>2026-04-18T13:17:33.994Z</time></trkpt><trkpt lat="44.13102" lon="11.68055"><ele>242.0</ele><time>2026-04-18T13:17:34.993Z</time></trkpt><trkpt lat="44.1311767" lon="11.6804317"><ele>242.0</ele><time>2026-04-18T13:17:35.993Z</time></trkpt><trkpt lat="44.1313283" lon="11.68032"><ele>245.0</ele><time>2026-04-18T13:17:36.995Z</time></trkpt><trkpt lat="44.1314817" lon="11.680235"><ele>248.0</ele><time>2026-04-18T13:17:37.995Z</time></trkpt><trkpt lat="44.131635" lon="11.6801817"><ele>251.0</ele><time>2026-04-18T13:17:38.995Z</time></trkpt><trkpt lat="44.1317883" lon="11.6801583"><ele>251.0</ele><time>2026-04-18T13:17:39.995Z</time></trkpt><trkpt lat="44.1319417" lon="11.6801633"><ele>251.0</ele><time>2026-04-18T13:17:40.995Z</time></trkpt><trkpt lat="44.1320917" lon="11.6801733"><ele>251.0</ele><time>2026-04-18T13:17:41.993Z</time></trkpt><trkpt lat="44.1322417" lon="11.6801883"><ele>251.0</ele><time>2026-04-18T13:17:42.994Z</time></trkpt><trkpt lat="44.1323867" lon="11.6802017"><ele>251.0</ele><time>2026-04-18T13:17:43.993Z</time></trkpt><trkpt lat="44.1325233" lon="11.6802167"><ele>251.0</ele><time>2026-04-18T13:17:44.994Z</time></trkpt><trkpt lat="44.1326533" lon="11.6802283"><ele>251.0</ele><time>2026-04-18T13:17:45.994Z</time></trkpt><trkpt lat="44.13278" lon="11.68025"><ele>246.25</ele><time>2026-04-18T13:17:46.993Z</time></trkpt><trkpt lat="44.1329067" lon="11.6802983"><ele>241.5</ele><time>2026-04-18T13:17:47.994Z</time></trkpt><trkpt lat="44.1330233" lon="11.6803667"><ele>236.75</ele><time>2026-04-18T13:17:48.994Z</time></trkpt><trkpt lat="44.133125" lon="11.680455"><ele>232.0</ele><time>2026-04-18T13:17:49.993Z</time></trkpt><trkpt lat="44.133215" lon="11.6805517"><ele>233.75</ele><time>2026-04-18T13:17:50.994Z</time></trkpt><trkpt lat="44.1333083" lon="11.6806533"><ele>235.5</ele><time>2026-04-18T13:17:51.994Z</time></trkpt><trkpt lat="44.1334067" lon="11.68076"><ele>237.25</ele><time>2026-04-18T13:17:52.993Z</time></trkpt><trkpt lat="44.133505" lon="11.6808633"><ele>239.0</ele><time>2026-04-18T13:17:53.994Z</time></trkpt><trkpt lat="44.1336017" lon="11.68097"><ele>239.0</ele><time>2026-04-18T13:17:54.993Z</time></trkpt><trkpt lat="44.1336883" lon="11.68109"><ele>239.0</ele><time>2026-04-18T13:17:55.993Z</time></trkpt><trkpt lat="44.13376" lon="11.6812283"><ele>239.0</ele><time>2026-04-18T13:17:56.994Z</time></trkpt><trkpt lat="44.1338167" lon="11.68138"><ele>239.0</ele><time>2026-04-18T13:17:57.992Z</time></trkpt><trkpt lat="44.1338583" lon="11.6815433"><ele>236.75</ele><time>2026-04-18T13:17:58.993Z</time></trkpt><trkpt lat="44.13389" lon="11.6817017"><ele>234.5</ele><time>2026-04-18T13:17:59.993Z</time></trkpt><trkpt lat="44.1339333" lon="11.681845"><ele>232.25</ele><time>2026-04-18T13:18:00.993Z</time></trkpt><trkpt lat="44.1339983" lon="11.6819717"><ele>230.0</ele><time>2026-04-18T13:18:01.993Z</time></trkpt><trkpt lat="44.13408" lon="11.6820817"><ele>230.0</ele><time>2026-04-18T13:18:02.993Z</time></trkpt><trkpt lat="44.1341783" lon="11.6821817"><ele>230.0</ele><time>2026-04-18T13:18:03.993Z</time></trkpt><trkpt lat="44.13429" lon="11.6822767"><ele>230.0</ele><time>2026-04-18T13:18:04.995Z</time></trkpt><trkpt lat="44.1344117" lon="11.682355"><ele>230.0</ele><time>2026-04-18T13:18:05.993Z</time></trkpt><trkpt lat="44.1345467" lon="11.6823967"><ele>230.0</ele><time>2026-04-18T13:18:06.993Z</time></trkpt><trkpt lat="44.13469" lon="11.6824017"><ele>230.0</ele><time>2026-04-18T13:18:07.994Z</time></trkpt><trkpt lat="44.1348433" lon="11.682395"><ele>230.0</ele><time>2026-04-18T13:18:08.993Z</time></trkpt><trkpt lat="44.1350083" lon="11.6823917"><ele>233.0</ele><time>2026-04-18T13:18:09.995Z</time></trkpt><trkpt lat="44.1352" lon="11.6824017"><ele>236.0</ele><time>2026-04-18T13:18:10.993Z</time></trkpt><trkpt lat="44.1354017" lon="11.68244"><ele>239.0</ele><time>2026-04-18T13:18:11.993Z</time></trkpt><trkpt lat="44.135605" lon="11.6825"><ele>240.66666666666669</ele><time>2026-04-18T13:18:12.993Z</time></trkpt><trkpt lat="44.1358" lon="11.682575"><ele>242.33333333333331</ele><time>2026-04-18T13:18:13.993Z</time></trkpt><trkpt lat="44.1359783" lon="11.6826567"><ele>244.0</ele><time>2026-04-18T13:18:14.993Z</time></trkpt><trkpt lat="44.1361467" lon="11.6827583"><ele>242.33333333333331</ele><time>2026-04-18T13:18:15.993Z</time></trkpt><trkpt lat="44.1363033" lon="11.6828767"><ele>240.66666666666669</ele><time>2026-04-18T13:18:16.993Z</time></trkpt><trkpt lat="44.136455" lon="11.6830017"><ele>239.0</ele><time>2026-04-18T13:18:17.993Z</time></trkpt><trkpt lat="44.136605" lon="11.6831217"><ele>239.0</ele><time>2026-04-18T13:18:18.993Z</time></trkpt><trkpt lat="44.1367517" lon="11.6832333"><ele>239.0</ele><time>2026-04-18T13:18:19.992Z</time></trkpt><trkpt lat="44.1368967" lon="11.6833267"><ele>239.0</ele><time>2026-04-18T13:18:20.993Z</time></trkpt><trkpt lat="44.1370617" lon="11.6833883"><ele>239.0</ele><time>2026-04-18T13:18:21.994Z</time></trkpt><trkpt lat="44.1372583" lon="11.6834433"><ele>239.0</ele><time>2026-04-18T13:18:22.997Z</time></trkpt><trkpt lat="44.13748" lon="11.683485"><ele>239.0</ele><time>2026-04-18T13:18:23.994Z</time></trkpt><trkpt lat="44.1377117" lon="11.6835417"><ele>239.0</ele><time>2026-04-18T13:18:24.993Z</time></trkpt><trkpt lat="44.1379267" lon="11.68362"><ele>239.0</ele><time>2026-04-18T13:18:25.993Z</time></trkpt><trkpt lat="44.13813" lon="11.6836967"><ele>239.0</ele><time>2026-04-18T13:18:26.994Z</time></trkpt><trkpt lat="44.13831" lon="11.6837717"><ele>239.0</ele><time>2026-04-18T13:18:27.994Z</time></trkpt><trkpt lat="44.1384767" lon="11.6838383"><ele>239.0</ele><time>2026-04-18T13:18:28.993Z</time></trkpt><trkpt lat="44.1386467" lon="11.68391"><ele>239.0</ele><time>2026-04-18T13:18:29.994Z</time></trkpt><trkpt lat="44.1388333" lon="11.6839917"><ele>239.0</ele><time>2026-04-18T13:18:30.993Z</time></trkpt><trkpt lat="44.1390317" lon="11.6840933"><ele>239.0</ele><time>2026-04-18T13:18:31.993Z</time></trkpt><trkpt lat="44.139235" lon="11.6842183"><ele>239.0</ele><time>2026-04-18T13:18:32.993Z</time></trkpt><trkpt lat="44.1394517" lon="11.6843683"><ele>237.5</ele><time>2026-04-18T13:18:33.994Z</time></trkpt><trkpt lat="44.13967" lon="11.684525"><ele>236.0</ele><time>2026-04-18T13:18:34.993Z</time></trkpt><trkpt lat="44.1398917" lon="11.6846667"><ele>236.0</ele><time>2026-04-18T13:18:35.994Z</time></trkpt><trkpt lat="44.1401167" lon="11.6847817"><ele>236.0</ele><time>2026-04-18T13:18:36.993Z</time></trkpt><trkpt lat="44.1403483" lon="11.6848633"><ele>236.0</ele><time>2026-04-18T13:18:37.994Z</time></trkpt><trkpt lat="44.1405867" lon="11.6849133"><ele>236.0</ele><time>2026-04-18T13:18:38.995Z</time></trkpt><trkpt lat="44.1408383" lon="11.6849517"><ele>236.5</ele><time>2026-04-18T13:18:39.993Z</time></trkpt><trkpt lat="44.1411017" lon="11.6849767"><ele>237.0</ele><time>2026-04-18T13:18:40.994Z</time></trkpt><trkpt lat="44.1413717" lon="11.6849933"><ele>238.0</ele><time>2026-04-18T13:18:41.993Z</time></trkpt><trkpt lat="44.1416467" lon="11.6850083"><ele>239.0</ele><time>2026-04-18T13:18:42.993Z</time></trkpt><trkpt lat="44.14192" lon="11.685025"><ele>239.0</ele><time>2026-04-18T13:18:43.995Z</time></trkpt><trkpt lat="44.1421917" lon="11.6850533"><ele>239.0</ele><time>2026-04-18T13:18:44.993Z</time></trkpt><trkpt lat="44.14246" lon="11.6850883"><ele>238.5</ele><time>2026-04-18T13:18:45.994Z</time></trkpt><trkpt lat="44.1427083" lon="11.6851233"><ele>238.0</ele><time>2026-04-18T13:18:46.994Z</time></trkpt><trkpt lat="44.14294" lon="11.6851567"><ele>238.0</ele><time>2026-04-18T13:18:47.993Z</time></trkpt><trkpt lat="44.143155" lon="11.6851883"><ele>238.0</ele><time>2026-04-18T13:18:48.993Z</time></trkpt><trkpt lat="44.1433583" lon="11.6852333"><ele>238.0</ele><time>2026-04-18T13:18:49.994Z</time></trkpt><trkpt lat="44.143555" lon="11.6852983"><ele>237.0</ele><time>2026-04-18T13:18:50.995Z</time></trkpt><trkpt lat="44.1437483" lon="11.6853867"><ele>236.0</ele><time>2026-04-18T13:18:51.993Z</time></trkpt><trkpt lat="44.1439433" lon="11.6854983"><ele>235.0</ele><time>2026-04-18T13:18:52.993Z</time></trkpt><trkpt lat="44.144135" lon="11.6856217"><ele>235.0</ele><time>2026-04-18T13:18:53.993Z</time></trkpt><trkpt lat="44.1443167" lon="11.6857483"><ele>235.0</ele><time>2026-04-18T13:18:54.996Z</time></trkpt><trkpt lat="44.1445017" lon="11.685875"><ele>235.0</ele><time>2026-04-18T13:18:55.994Z</time></trkpt><trkpt lat="44.14469" lon="11.6860017"><ele>232.66666666666666</ele><time>2026-04-18T13:18:56.994Z</time></trkpt><trkpt lat="44.1448817" lon="11.6861317"><ele>230.33333333333331</ele><time>2026-04-18T13:18:57.993Z</time></trkpt><trkpt lat="44.1450817" lon="11.686265"><ele>228.0</ele><time>2026-04-18T13:18:58.994Z</time></trkpt><trkpt lat="44.1452833" lon="11.6864"><ele>228.0</ele><time>2026-04-18T13:18:59.994Z</time></trkpt><trkpt lat="44.145485" lon="11.6865367"><ele>228.0</ele><time>2026-04-18T13:19:00.993Z</time></trkpt><trkpt lat="44.1456883" lon="11.6866717"><ele>228.0</ele><time>2026-04-18T13:19:01.994Z</time></trkpt><trkpt lat="44.1458867" lon="11.6867983"><ele>226.33333333333331</ele><time>2026-04-18T13:19:02.997Z</time></trkpt><trkpt lat="44.1460717" lon="11.6869183"><ele>224.66666666666666</ele><time>2026-04-18T13:19:03.994Z</time></trkpt><trkpt lat="44.146245" lon="11.68704"><ele>223.0</ele><time>2026-04-18T13:19:04.995Z</time></trkpt><trkpt lat="44.1464083" lon="11.6871633"><ele>226.66666666666666</ele><time>2026-04-18T13:19:05.994Z</time></trkpt><trkpt lat="44.1465517" lon="11.6873"><ele>230.33333333333331</ele><time>2026-04-18T13:19:06.994Z</time></trkpt><trkpt lat="44.1466767" lon="11.6874517"><ele>234.0</ele><time>2026-04-18T13:19:07.995Z</time></trkpt><trkpt lat="44.1467917" lon="11.6876167"><ele>230.5</ele><time>2026-04-18T13:19:08.994Z</time></trkpt><trkpt lat="44.1468967" lon="11.6877867"><ele>227.0</ele><time>2026-04-18T13:19:09.994Z</time></trkpt><trkpt lat="44.1469933" lon="11.687945"><ele>223.5</ele><time>2026-04-18T13:19:10.994Z</time></trkpt><trkpt lat="44.1470817" lon="11.6880883"><ele>220.0</ele><time>2026-04-18T13:19:11.995Z</time></trkpt><trkpt lat="44.147165" lon="11.6882233"><ele>220.0</ele><time>2026-04-18T13:19:12.994Z</time></trkpt><trkpt lat="44.147245" lon="11.688345"><ele>220.0</ele><time>2026-04-18T13:19:13.994Z</time></trkpt><trkpt lat="44.14732" lon="11.68845"><ele>220.0</ele><time>2026-04-18T13:19:14.993Z</time></trkpt><trkpt lat="44.1474017" lon="11.6885483"><ele>220.0</ele><time>2026-04-18T13:19:15.994Z</time></trkpt><trkpt lat="44.14749" lon="11.6886283"><ele>220.0</ele><time>2026-04-18T13:19:16.994Z</time></trkpt><trkpt lat="44.14758" lon="11.6886917"><ele>221.16666666666666</ele><time>2026-04-18T13:19:17.994Z</time></trkpt><trkpt lat="44.1476633" lon="11.6887333"><ele>222.33333333333331</ele><time>2026-04-18T13:19:18.994Z</time></trkpt><trkpt lat="44.1477383" lon="11.68876"><ele>223.5</ele><time>2026-04-18T13:19:19.994Z</time></trkpt><trkpt lat="44.147805" lon="11.688755"><ele>224.66666666666669</ele><time>2026-04-18T13:19:20.995Z</time></trkpt><trkpt lat="44.147865" lon="11.6887133"><ele>225.83333333333334</ele><time>2026-04-18T13:19:21.993Z</time></trkpt><trkpt lat="44.14792" lon="11.6886517"><ele>227.0</ele><time>2026-04-18T13:19:22.993Z</time></trkpt><trkpt lat="44.1479783" lon="11.6885683"><ele>227.8</ele><time>2026-04-18T13:19:23.993Z</time></trkpt><trkpt lat="44.1480333" lon="11.6884783"><ele>228.6</ele><time>2026-04-18T13:19:24.993Z</time></trkpt><trkpt lat="44.1480883" lon="11.6883833"><ele>229.40000000000003</ele><time>2026-04-18T13:19:25.995Z</time></trkpt><trkpt lat="44.1481433" lon="11.6882783"><ele>230.20000000000002</ele><time>2026-04-18T13:19:26.994Z</time></trkpt><trkpt lat="44.148195" lon="11.6881667"><ele>231.0</ele><time>2026-04-18T13:19:27.993Z</time></trkpt><trkpt lat="44.1482433" lon="11.6880433"><ele>231.0</ele><time>2026-04-18T13:19:28.993Z</time></trkpt><trkpt lat="44.1482867" lon="11.6879133"><ele>231.00000000000003</ele><time>2026-04-18T13:19:29.993Z</time></trkpt><trkpt lat="44.14833" lon="11.687785"><ele>231.00000000000003</ele><time>2026-04-18T13:19:30.993Z</time></trkpt><trkpt lat="44.14836" lon="11.687665"><ele>231.0</ele><time>2026-04-18T13:19:31.994Z</time></trkpt><trkpt lat="44.1483767" lon="11.6875517"><ele>231.0</ele><time>2026-04-18T13:19:32.994Z</time></trkpt><trkpt lat="44.1483783" lon="11.6874283"><ele>232.83333333333334</ele><time>2026-04-18T13:19:33.994Z</time></trkpt><trkpt lat="44.14837" lon="11.6873083"><ele>234.66666666666669</ele><time>2026-04-18T13:19:34.994Z</time></trkpt><trkpt lat="44.1483467" lon="11.6871933"><ele>236.5</ele><time>2026-04-18T13:19:35.995Z</time></trkpt><trkpt lat="44.1483133" lon="11.68707"><ele>238.33333333333334</ele><time>2026-04-18T13:19:36.994Z</time></trkpt><trkpt lat="44.14829" lon="11.6869433"><ele>240.16666666666669</ele><time>2026-04-18T13:19:37.993Z</time></trkpt><trkpt lat="44.148275" lon="11.6868217"><ele>242.0</ele><time>2026-04-18T13:19:38.994Z</time></trkpt><trkpt lat="44.1482733" lon="11.6866967"><ele>243.33333333333334</ele><time>2026-04-18T13:19:39.994Z</time></trkpt><trkpt lat="44.148275" lon="11.686575"><ele>244.66666666666669</ele><time>2026-04-18T13:19:41.002Z</time></trkpt><trkpt lat="44.1482767" lon="11.6864533"><ele>246.0</ele><time>2026-04-18T13:19:41.993Z</time></trkpt><trkpt lat="44.1482817" lon="11.686335"><ele>247.33333333333331</ele><time>2026-04-18T13:19:42.999Z</time></trkpt><trkpt lat="44.148285" lon="11.686215"><ele>248.66666666666666</ele><time>2026-04-18T13:19:43.994Z</time></trkpt><trkpt lat="44.1482917" lon="11.6861"><ele>250.0</ele><time>2026-04-18T13:19:44.995Z</time></trkpt><trkpt lat="44.1483017" lon="11.6859867"><ele>251.33333333333331</ele><time>2026-04-18T13:19:45.994Z</time></trkpt><trkpt lat="44.148305" lon="11.6858767"><ele>252.66666666666666</ele><time>2026-04-18T13:19:46.993Z</time></trkpt><trkpt lat="44.1482967" lon="11.68577"><ele>254.0</ele><time>2026-04-18T13:19:47.993Z</time></trkpt><trkpt lat="44.1482767" lon="11.685655"><ele>255.33333333333331</ele><time>2026-04-18T13:19:48.995Z</time></trkpt><trkpt lat="44.1482433" lon="11.6855383"><ele>256.6666666666667</ele><time>2026-04-18T13:19:49.993Z</time></trkpt><trkpt lat="44.1482217" lon="11.685415"><ele>258.0</ele><time>2026-04-18T13:19:50.993Z</time></trkpt><trkpt lat="44.1481983" lon="11.685285"><ele>272.0</ele><time>2026-04-18T13:19:51.994Z</time></trkpt><trkpt lat="44.1481783" lon="11.6851333"><ele>286.0</ele><time>2026-04-18T13:19:52.994Z</time></trkpt><trkpt lat="44.1481667" lon="11.684975"><ele>300.0</ele><time>2026-04-18T13:19:53.993Z</time></trkpt><trkpt lat="44.1481717" lon="11.6848083"><ele>314.0</ele><time>2026-04-18T13:19:54.993Z</time></trkpt><trkpt lat="44.1481767" lon="11.6846367"><ele>314.0</ele><time>2026-04-18T13:19:55.994Z</time></trkpt><trkpt lat="44.148185" lon="11.6844617"><ele>314.0</ele><time>2026-04-18T13:19:56.994Z</time></trkpt><trkpt lat="44.1481767" lon="11.6842917"><ele>314.0</ele><time>2026-04-18T13:19:57.994Z</time></trkpt><trkpt lat="44.1481817" lon="11.6841367"><ele>314.0</ele><time>2026-04-18T13:19:58.993Z</time></trkpt><trkpt lat="44.14819" lon="11.6839917"><ele>314.59999999999997</ele><time>2026-04-18T13:19:59.993Z</time></trkpt><trkpt lat="44.1481967" lon="11.68386"><ele>315.2</ele><time>2026-04-18T13:20:00.995Z</time></trkpt><trkpt lat="44.148205" lon="11.6837283"><ele>315.79999999999995</ele><time>2026-04-18T13:20:01.994Z</time></trkpt><trkpt lat="44.1482183" lon="11.6836083"><ele>316.4</ele><time>2026-04-18T13:20:02.995Z</time></trkpt><trkpt lat="44.1482283" lon="11.6834867"><ele>317.0</ele><time>2026-04-18T13:20:03.993Z</time></trkpt><trkpt lat="44.1482433" lon="11.68337"><ele>310.83333333333337</ele><time>2026-04-18T13:20:04.994Z</time></trkpt><trkpt lat="44.1482567" lon="11.68325"><ele>304.6666666666667</ele><time>2026-04-18T13:20:05.993Z</time></trkpt><trkpt lat="44.1482617" lon="11.6831417"><ele>298.5</ele><time>2026-04-18T13:20:06.993Z</time></trkpt><trkpt lat="44.148265" lon="11.6830367"><ele>292.3333333333333</ele><time>2026-04-18T13:20:07.994Z</time></trkpt><trkpt lat="44.1482683" lon="11.68294"><ele>286.16666666666663</ele><time>2026-04-18T13:20:08.995Z</time></trkpt><trkpt lat="44.1482833" lon="11.6827867"><ele>280.0</ele><time>2026-04-18T13:20:10.994Z</time></trkpt><trkpt lat="44.1482917" lon="11.6826983"><ele>280.0</ele><time>2026-04-18T13:20:11.993Z</time></trkpt><trkpt lat="44.1483033" lon="11.682605"><ele>280.0</ele><time>2026-04-18T13:20:12.994Z</time></trkpt><trkpt lat="44.1483167" lon="11.6825"><ele>280.0</ele><time>2026-04-18T13:20:13.994Z</time></trkpt><trkpt lat="44.1483233" lon="11.6823833"><ele>280.0</ele><time>2026-04-18T13:20:14.995Z</time></trkpt><trkpt lat="44.1483317" lon="11.682255"><ele>280.0</ele><time>2026-04-18T13:20:15.993Z</time></trkpt><trkpt lat="44.14834" lon="11.68212"><ele>280.0</ele><time>2026-04-18T13:20:16.994Z</time></trkpt><trkpt lat="44.1483467" lon="11.68198"><ele>280.6</ele><time>2026-04-18T13:20:17.994Z</time></trkpt><trkpt lat="44.1483533" lon="11.68183"><ele>281.2</ele><time>2026-04-18T13:20:18.994Z</time></trkpt><trkpt lat="44.1483533" lon="11.6816817"><ele>281.8</ele><time>2026-04-18T13:20:19.993Z</time></trkpt><trkpt lat="44.14836" lon="11.6815383"><ele>282.4</ele><time>2026-04-18T13:20:20.995Z</time></trkpt><trkpt lat="44.1483717" lon="11.6813933"><ele>283.0</ele><time>2026-04-18T13:20:21.994Z</time></trkpt><trkpt lat="44.1483833" lon="11.6812517"><ele>283.0</ele><time>2026-04-18T13:20:22.993Z</time></trkpt><trkpt lat="44.14839" lon="11.6811217"><ele>283.0</ele><time>2026-04-18T13:20:23.993Z</time></trkpt><trkpt lat="44.1484233" lon="11.6810067"><ele>283.0</ele><time>2026-04-18T13:20:24.994Z</time></trkpt><trkpt lat="44.1484617" lon="11.6809017"><ele>283.0</ele><time>2026-04-18T13:20:25.994Z</time></trkpt><trkpt lat="44.1485283" lon="11.680805"><ele>283.0</ele><time>2026-04-18T13:20:26.994Z</time></trkpt><trkpt lat="44.1486017" lon="11.6807067"><ele>284.8</ele><time>2026-04-18T13:20:27.993Z</time></trkpt><trkpt lat="44.1486667" lon="11.680605"><ele>286.6</ele><time>2026-04-18T13:20:28.994Z</time></trkpt><trkpt lat="44.1487333" lon="11.6804983"><ele>288.4</ele><time>2026-04-18T13:20:29.993Z</time></trkpt><trkpt lat="44.148805" lon="11.6803867"><ele>290.2</ele><time>2026-04-18T13:20:30.992Z</time></trkpt><trkpt lat="44.1488667" lon="11.6802717"><ele>292.0</ele><time>2026-04-18T13:20:31.993Z</time></trkpt><trkpt lat="44.1489267" lon="11.6801733"><ele>294.6</ele><time>2026-04-18T13:20:32.995Z</time></trkpt><trkpt lat="44.1489883" lon="11.6800783"><ele>297.2</ele><time>2026-04-18T13:20:33.993Z</time></trkpt><trkpt lat="44.1490617" lon="11.6799867"><ele>299.8</ele><time>2026-04-18T13:20:34.993Z</time></trkpt><trkpt lat="44.1491417" lon="11.67989"><ele>302.4</ele><time>2026-04-18T13:20:35.994Z</time></trkpt><trkpt lat="44.149215" lon="11.6797967"><ele>305.0</ele><time>2026-04-18T13:20:36.993Z</time></trkpt><trkpt lat="44.1492983" lon="11.6797133"><ele>302.6</ele><time>2026-04-18T13:20:37.995Z</time></trkpt><trkpt lat="44.1493667" lon="11.67962"><ele>300.2</ele><time>2026-04-18T13:20:38.994Z</time></trkpt><trkpt lat="44.149435" lon="11.6795217"><ele>297.8</ele><time>2026-04-18T13:20:39.994Z</time></trkpt><trkpt lat="44.14949" lon="11.6794017"><ele>295.4</ele><time>2026-04-18T13:20:40.993Z</time></trkpt><trkpt lat="44.1495333" lon="11.6792783"><ele>293.0</ele><time>2026-04-18T13:20:41.992Z</time></trkpt><trkpt lat="44.1495867" lon="11.679145"><ele>293.0</ele><time>2026-04-18T13:20:42.993Z</time></trkpt><trkpt lat="44.1496383" lon="11.6790117"><ele>293.0</ele><time>2026-04-18T13:20:43.994Z</time></trkpt><trkpt lat="44.14969" lon="11.6788967"><ele>293.0</ele><time>2026-04-18T13:20:44.993Z</time></trkpt><trkpt lat="44.149755" lon="11.67879"><ele>293.0</ele><time>2026-04-18T13:20:45.993Z</time></trkpt><trkpt lat="44.1498317" lon="11.6786933"><ele>293.0</ele><time>2026-04-18T13:20:46.993Z</time></trkpt><trkpt lat="44.1498933" lon="11.6786"><ele>292.1666666666667</ele><time>2026-04-18T13:20:47.993Z</time></trkpt><trkpt lat="44.1499517" lon="11.67851"><ele>291.33333333333337</ele><time>2026-04-18T13:20:48.994Z</time></trkpt><trkpt lat="44.1499917" lon="11.6784117"><ele>290.5</ele><time>2026-04-18T13:20:49.994Z</time></trkpt><trkpt lat="44.150035" lon="11.6783083"><ele>289.6666666666667</ele><time>2026-04-18T13:20:50.994Z</time></trkpt><trkpt lat="44.1500733" lon="11.678205"><ele>288.8333333333333</ele><time>2026-04-18T13:20:51.993Z</time></trkpt><trkpt lat="44.1501067" lon="11.6781017"><ele>288.0</ele><time>2026-04-18T13:20:52.993Z</time></trkpt><trkpt lat="44.1501317" lon="11.6779983"><ele>288.0</ele><time>2026-04-18T13:20:53.993Z</time></trkpt><trkpt lat="44.1501583" lon="11.67789"><ele>288.0</ele><time>2026-04-18T13:20:54.992Z</time></trkpt><trkpt lat="44.150175" lon="11.6777833"><ele>288.0</ele><time>2026-04-18T13:20:55.992Z</time></trkpt><trkpt lat="44.1501883" lon="11.6776783"><ele>288.0</ele><time>2026-04-18T13:20:56.993Z</time></trkpt><trkpt lat="44.1502033" lon="11.6775767"><ele>288.0</ele><time>2026-04-18T13:20:57.994Z</time></trkpt><trkpt lat="44.150225" lon="11.67747"><ele>288.0</ele><time>2026-04-18T13:20:58.994Z</time></trkpt><trkpt lat="44.150245" lon="11.6773617"><ele>289.7142857142857</ele><time>2026-04-18T13:20:59.993Z</time></trkpt><trkpt lat="44.1502667" lon="11.67726"><ele>291.42857142857144</ele><time>2026-04-18T13:21:00.993Z</time></trkpt><trkpt lat="44.1502933" lon="11.6771617"><ele>293.1428571428571</ele><time>2026-04-18T13:21:01.993Z</time></trkpt><trkpt lat="44.1503117" lon="11.6770633"><ele>294.8571428571429</ele><time>2026-04-18T13:21:02.995Z</time></trkpt><trkpt lat="44.15033" lon="11.6769683"><ele>296.57142857142856</ele><time>2026-04-18T13:21:03.993Z</time></trkpt><trkpt lat="44.150345" lon="11.6768717"><ele>298.2857142857143</ele><time>2026-04-18T13:21:04.993Z</time></trkpt><trkpt lat="44.150355" lon="11.67677"><ele>300.0</ele><time>2026-04-18T13:21:05.993Z</time></trkpt><trkpt lat="44.1503633" lon="11.6766667"><ele>301.8333333333333</ele><time>2026-04-18T13:21:06.994Z</time></trkpt><trkpt lat="44.15037" lon="11.6765567"><ele>303.6666666666667</ele><time>2026-04-18T13:21:07.994Z</time></trkpt><trkpt lat="44.1503717" lon="11.6764483"><ele>305.5</ele><time>2026-04-18T13:21:08.995Z</time></trkpt><trkpt lat="44.1503783" lon="11.6763333"><ele>307.33333333333337</ele><time>2026-04-18T13:21:10Z</time></trkpt><trkpt lat="44.1503833" lon="11.6762017"><ele>309.1666666666667</ele><time>2026-04-18T13:21:10.993Z</time></trkpt><trkpt lat="44.150385" lon="11.6760667"><ele>311.0</ele><time>2026-04-18T13:21:11.994Z</time></trkpt><trkpt lat="44.1503917" lon="11.6759317"><ele>312.6</ele><time>2026-04-18T13:21:12.995Z</time></trkpt><trkpt lat="44.1504" lon="11.675795"><ele>314.20000000000005</ele><time>2026-04-18T13:21:13.993Z</time></trkpt><trkpt lat="44.1504117" lon="11.6756517"><ele>315.79999999999995</ele><time>2026-04-18T13:21:14.994Z</time></trkpt><trkpt lat="44.1504217" lon="11.6755117"><ele>317.4</ele><time>2026-04-18T13:21:15.995Z</time></trkpt><trkpt lat="44.1504267" lon="11.675385"><ele>319.0</ele><time>2026-04-18T13:21:16.993Z</time></trkpt><trkpt lat="44.15043" lon="11.6752633"><ele>319.4</ele><time>2026-04-18T13:21:17.994Z</time></trkpt><trkpt lat="44.1504267" lon="11.675145"><ele>319.79999999999995</ele><time>2026-04-18T13:21:18.995Z</time></trkpt><trkpt lat="44.1504233" lon="11.675025"><ele>320.20000000000005</ele><time>2026-04-18T13:21:19.993Z</time></trkpt><trkpt lat="44.1504" lon="11.674905"><ele>320.6</ele><time>2026-04-18T13:21:20.994Z</time></trkpt><trkpt lat="44.15037" lon="11.6747783"><ele>321.0</ele><time>2026-04-18T13:21:21.994Z</time></trkpt><trkpt lat="44.150335" lon="11.6746483"><ele>321.0</ele><time>2026-04-18T13:21:22.995Z</time></trkpt><trkpt lat="44.1502983" lon="11.67451"><ele>321.0</ele><time>2026-04-18T13:21:23.994Z</time></trkpt><trkpt lat="44.1502633" lon="11.6743683"><ele>321.0</ele><time>2026-04-18T13:21:24.996Z</time></trkpt><trkpt lat="44.1502283" lon="11.67423"><ele>321.0</ele><time>2026-04-18T13:21:25.994Z</time></trkpt><trkpt lat="44.1501983" lon="11.6740833"><ele>321.0</ele><time>2026-04-18T13:21:26.996Z</time></trkpt><trkpt lat="44.1501567" lon="11.67393"><ele>319.40000000000003</ele><time>2026-04-18T13:21:27.995Z</time></trkpt><trkpt lat="44.1501267" lon="11.67378"><ele>317.8</ele><time>2026-04-18T13:21:28.995Z</time></trkpt><trkpt lat="44.1500983" lon="11.6736367"><ele>316.20000000000005</ele><time>2026-04-18T13:21:29.994Z</time></trkpt><trkpt lat="44.150065" lon="11.6734833"><ele>314.6</ele><time>2026-04-18T13:21:30.996Z</time></trkpt><trkpt lat="44.1500317" lon="11.6733333"><ele>313.0</ele><time>2026-04-18T13:21:31.996Z</time></trkpt><trkpt lat="44.1499967" lon="11.6731783"><ele>310.75</ele><time>2026-04-18T13:21:32.995Z</time></trkpt><trkpt lat="44.14996" lon="11.673005"><ele>308.5</ele><time>2026-04-18T13:21:33.996Z</time></trkpt><trkpt lat="44.1499433" lon="11.6728317"><ele>306.25</ele><time>2026-04-18T13:21:34.995Z</time></trkpt><trkpt lat="44.1499167" lon="11.6726567"><ele>304.0</ele><time>2026-04-18T13:21:35.994Z</time></trkpt><trkpt lat="44.1498917" lon="11.67248"><ele>312.0</ele><time>2026-04-18T13:21:36.995Z</time></trkpt><trkpt lat="44.1498617" lon="11.6723017"><ele>320.0</ele><time>2026-04-18T13:21:37.994Z</time></trkpt><trkpt lat="44.149835" lon="11.6721183"><ele>328.0</ele><time>2026-04-18T13:21:38.995Z</time></trkpt><trkpt lat="44.14981" lon="11.671935"><ele>336.0</ele><time>2026-04-18T13:21:39.998Z</time></trkpt><trkpt lat="44.1497833" lon="11.6717483"><ele>336.0</ele><time>2026-04-18T13:21:40.996Z</time></trkpt><trkpt lat="44.149755" lon="11.6715617"><ele>336.0</ele><time>2026-04-18T13:21:41.994Z</time></trkpt><trkpt lat="44.1497233" lon="11.67137"><ele>336.0</ele><time>2026-04-18T13:21:42.995Z</time></trkpt><trkpt lat="44.1497" lon="11.6711933"><ele>336.0</ele><time>2026-04-18T13:21:43.995Z</time></trkpt><trkpt lat="44.1496683" lon="11.6710267"><ele>333.5</ele><time>2026-04-18T13:21:44.996Z</time></trkpt><trkpt lat="44.14966" lon="11.67088"><ele>331.0</ele><time>2026-04-18T13:21:45.993Z</time></trkpt><trkpt lat="44.1496817" lon="11.6707567"><ele>328.5</ele><time>2026-04-18T13:21:46.993Z</time></trkpt><trkpt lat="44.1497167" lon="11.67065"><ele>326.0</ele><time>2026-04-18T13:21:47.993Z</time></trkpt><trkpt lat="44.1497617" lon="11.6705517"><ele>323.5</ele><time>2026-04-18T13:21:48.993Z</time></trkpt><trkpt lat="44.149825" lon="11.67048"><ele>321.0</ele><time>2026-04-18T13:21:49.994Z</time></trkpt><trkpt lat="44.1499117" lon="11.67043"><ele>322.5</ele><time>2026-04-18T13:21:50.994Z</time></trkpt><trkpt lat="44.1500017" lon="11.6703567"><ele>324.0</ele><time>2026-04-18T13:21:51.994Z</time></trkpt><trkpt lat="44.1501067" lon="11.670295"><ele>325.5</ele><time>2026-04-18T13:21:52.992Z</time></trkpt><trkpt lat="44.1502267" lon="11.6702283"><ele>327.0</ele><time>2026-04-18T13:21:53.994Z</time></trkpt><trkpt lat="44.1503233" lon="11.6701483"><ele>327.0</ele><time>2026-04-18T13:21:54.993Z</time></trkpt><trkpt lat="44.150415" lon="11.670055"><ele>327.0</ele><time>2026-04-18T13:21:55.993Z</time></trkpt><trkpt lat="44.1504967" lon="11.6699533"><ele>327.0</ele><time>2026-04-18T13:21:56.995Z</time></trkpt><trkpt lat="44.1505783" lon="11.669855"><ele>327.0</ele><time>2026-04-18T13:21:57.993Z</time></trkpt><trkpt lat="44.150675" lon="11.6697717"><ele>327.0</ele><time>2026-04-18T13:21:58.994Z</time></trkpt><trkpt lat="44.1507683" lon="11.6696967"><ele>323.20000000000005</ele><time>2026-04-18T13:21:59.993Z</time></trkpt><trkpt lat="44.1508567" lon="11.6696267"><ele>319.40000000000003</ele><time>2026-04-18T13:22:00.994Z</time></trkpt><trkpt lat="44.150945" lon="11.669565"><ele>315.6</ele><time>2026-04-18T13:22:01.994Z</time></trkpt><trkpt lat="44.15103" lon="11.6694967"><ele>311.8</ele><time>2026-04-18T13:22:02.995Z</time></trkpt><trkpt lat="44.1511183" lon="11.6694317"><ele>308.0</ele><time>2026-04-18T13:22:03.994Z</time></trkpt><trkpt lat="44.1512" lon="11.669365"><ele>310.2</ele><time>2026-04-18T13:22:04.993Z</time></trkpt><trkpt lat="44.15129" lon="11.6693"><ele>312.4</ele><time>2026-04-18T13:22:05.994Z</time></trkpt><trkpt lat="44.15138" lon="11.669265"><ele>314.59999999999997</ele><time>2026-04-18T13:22:06.993Z</time></trkpt><trkpt lat="44.1514833" lon="11.6692567"><ele>316.8</ele><time>2026-04-18T13:22:07.994Z</time></trkpt><trkpt lat="44.1515783" lon="11.6692533"><ele>319.0</ele><time>2026-04-18T13:22:08.993Z</time></trkpt><trkpt lat="44.1516717" lon="11.6692433"><ele>319.0</ele><time>2026-04-18T13:22:09.994Z</time></trkpt><trkpt lat="44.151745" lon="11.6692083"><ele>319.0</ele><time>2026-04-18T13:22:10.993Z</time></trkpt><trkpt lat="44.151815" lon="11.66916"><ele>319.0</ele><time>2026-04-18T13:22:11.993Z</time></trkpt><trkpt lat="44.1518483" lon="11.6690383"><ele>319.0</ele><time>2026-04-18T13:22:12.994Z</time></trkpt><trkpt lat="44.1518833" lon="11.6689117"><ele>319.0</ele><time>2026-04-18T13:22:13.993Z</time></trkpt><trkpt lat="44.1519033" lon="11.66876"><ele>320.4</ele><time>2026-04-18T13:22:14.995Z</time></trkpt><trkpt lat="44.1518983" lon="11.6685917"><ele>321.79999999999995</ele><time>2026-04-18T13:22:15.993Z</time></trkpt><trkpt lat="44.1519183" lon="11.668445"><ele>323.20000000000005</ele><time>2026-04-18T13:22:16.993Z</time></trkpt><trkpt lat="44.1519083" lon="11.6683083"><ele>324.6</ele><time>2026-04-18T13:22:17.993Z</time></trkpt><trkpt lat="44.15188" lon="11.6681733"><ele>326.0</ele><time>2026-04-18T13:22:18.994Z</time></trkpt><trkpt lat="44.1518417" lon="11.6680533"><ele>326.0</ele><time>2026-04-18T13:22:19.994Z</time></trkpt><trkpt lat="44.1517917" lon="11.6679417"><ele>326.0</ele><time>2026-04-18T13:22:20.994Z</time></trkpt><trkpt lat="44.15173" lon="11.6678483"><ele>326.0</ele><time>2026-04-18T13:22:21.994Z</time></trkpt><trkpt lat="44.1516683" lon="11.6677633"><ele>326.0</ele><time>2026-04-18T13:22:22.993Z</time></trkpt><trkpt lat="44.1516133" lon="11.667675"><ele>326.0</ele><time>2026-04-18T13:22:23.995Z</time></trkpt><trkpt lat="44.1515717" lon="11.6675833"><ele>326.0</ele><time>2026-04-18T13:22:24.995Z</time></trkpt><trkpt lat="44.1515417" lon="11.667485"><ele>325.8</ele><time>2026-04-18T13:22:25.994Z</time></trkpt><trkpt lat="44.1515267" lon="11.6673683"><ele>325.6</ele><time>2026-04-18T13:22:26.995Z</time></trkpt><trkpt lat="44.1515233" lon="11.6672367"><ele>325.4</ele><time>2026-04-18T13:22:27.993Z</time></trkpt><trkpt lat="44.151535" lon="11.667095"><ele>325.2</ele><time>2026-04-18T13:22:28.993Z</time></trkpt><trkpt lat="44.1515867" lon="11.66694"><ele>325.0</ele><time>2026-04-18T13:22:29.995Z</time></trkpt><trkpt lat="44.1516283" lon="11.6667967"><ele>325.0</ele><time>2026-04-18T13:22:30.993Z</time></trkpt><trkpt lat="44.1516567" lon="11.66666"><ele>325.0</ele><time>2026-04-18T13:22:31.994Z</time></trkpt><trkpt lat="44.15167" lon="11.6665383"><ele>325.0</ele><time>2026-04-18T13:22:32.994Z</time></trkpt><trkpt lat="44.15167" lon="11.6664367"><ele>325.0</ele><time>2026-04-18T13:22:33.994Z</time></trkpt><trkpt lat="44.1516317" lon="11.66636"><ele>325.0</ele><time>2026-04-18T13:22:34.994Z</time></trkpt><trkpt lat="44.1515817" lon="11.6663"><ele>325.0</ele><time>2026-04-18T13:22:35.993Z</time></trkpt><trkpt lat="44.15152" lon="11.6662483"><ele>327.16666666666663</ele><time>2026-04-18T13:22:36.994Z</time></trkpt><trkpt lat="44.1514633" lon="11.666195"><ele>329.3333333333333</ele><time>2026-04-18T13:22:37.993Z</time></trkpt><trkpt lat="44.151415" lon="11.666135"><ele>331.5</ele><time>2026-04-18T13:22:38.995Z</time></trkpt><trkpt lat="44.1514033" lon="11.666025"><ele>333.6666666666667</ele><time>2026-04-18T13:22:40.994Z</time></trkpt><trkpt lat="44.1514033" lon="11.6658867"><ele>335.83333333333337</ele><time>2026-04-18T13:22:42.998Z</time></trkpt><trkpt lat="44.1513417" lon="11.6657617"><ele>338.0</ele><time>2026-04-18T13:22:44.993Z</time></trkpt><trkpt lat="44.1512867" lon="11.6657033"><ele>338.0</ele><time>2026-04-18T13:22:45.993Z</time></trkpt><trkpt lat="44.1512333" lon="11.6656467"><ele>338.0</ele><time>2026-04-18T13:22:46.993Z</time></trkpt><trkpt lat="44.1511683" lon="11.6655783"><ele>338.0</ele><time>2026-04-18T13:22:47.993Z</time></trkpt><trkpt lat="44.1511133" lon="11.6655033"><ele>338.0</ele><time>2026-04-18T13:22:48.995Z</time></trkpt><trkpt lat="44.1510633" lon="11.66541"><ele>338.0</ele><time>2026-04-18T13:22:49.993Z</time></trkpt><trkpt lat="44.151035" lon="11.665305"><ele>338.0</ele><time>2026-04-18T13:22:50.993Z</time></trkpt><trkpt lat="44.151005" lon="11.6651917"><ele>337.59999999999997</ele><time>2026-04-18T13:22:51.993Z</time></trkpt><trkpt lat="44.15096" lon="11.6650633"><ele>337.2</ele><time>2026-04-18T13:22:52.994Z</time></trkpt><trkpt lat="44.1509267" lon="11.6649283"><ele>336.8</ele><time>2026-04-18T13:22:53.994Z</time></trkpt><trkpt lat="44.1509067" lon="11.6648167"><ele>336.4</ele><time>2026-04-18T13:22:54.994Z</time></trkpt><trkpt lat="44.15089" lon="11.664685"><ele>336.0</ele><time>2026-04-18T13:22:55.994Z</time></trkpt><trkpt lat="44.1508717" lon="11.664545"><ele>336.0</ele><time>2026-04-18T13:22:56.993Z</time></trkpt><trkpt lat="44.15085" lon="11.66441"><ele>336.0</ele><time>2026-04-18T13:22:57.993Z</time></trkpt><trkpt lat="44.1508217" lon="11.6642883"><ele>336.0</ele><time>2026-04-18T13:22:58.997Z</time></trkpt><trkpt lat="44.1508017" lon="11.6641733"><ele>336.0</ele><time>2026-04-18T13:22:59.997Z</time></trkpt><trkpt lat="44.1507883" lon="11.664055"><ele>336.0</ele><time>2026-04-18T13:23:00.995Z</time></trkpt><trkpt lat="44.1507817" lon="11.6639283"><ele>336.0</ele><time>2026-04-18T13:23:01.996Z</time></trkpt><trkpt lat="44.15079" lon="11.6637967"><ele>336.0</ele><time>2026-04-18T13:23:02.994Z</time></trkpt><trkpt lat="44.150815" lon="11.6636683"><ele>336.0</ele><time>2026-04-18T13:23:03.994Z</time></trkpt><trkpt lat="44.15083" lon="11.663545"><ele>336.0</ele><time>2026-04-18T13:23:04.993Z</time></trkpt><trkpt lat="44.1508383" lon="11.6634283"><ele>336.0</ele><time>2026-04-18T13:23:05.994Z</time></trkpt><trkpt lat="44.1508433" lon="11.66331"><ele>336.0</ele><time>2026-04-18T13:23:06.994Z</time></trkpt><trkpt lat="44.15085" lon="11.66319"><ele>336.8333333333333</ele><time>2026-04-18T13:23:07.993Z</time></trkpt><trkpt lat="44.1508617" lon="11.6630733"><ele>337.6666666666667</ele><time>2026-04-18T13:23:08.993Z</time></trkpt><trkpt lat="44.1508767" lon="11.6629567"><ele>338.5</ele><time>2026-04-18T13:23:09.992Z</time></trkpt><trkpt lat="44.1509017" lon="11.662845"><ele>339.33333333333337</ele><time>2026-04-18T13:23:10.993Z</time></trkpt><trkpt lat="44.1509317" lon="11.662735"><ele>340.1666666666667</ele><time>2026-04-18T13:23:11.993Z</time></trkpt><trkpt lat="44.15097" lon="11.6626283"><ele>341.0</ele><time>2026-04-18T13:23:12.994Z</time></trkpt><trkpt lat="44.151005" lon="11.6625167"><ele>341.83333333333337</ele><time>2026-04-18T13:23:13.993Z</time></trkpt><trkpt lat="44.1510383" lon="11.6624033"><ele>342.6666666666667</ele><time>2026-04-18T13:23:14.993Z</time></trkpt><trkpt lat="44.15106" lon="11.6622867"><ele>343.5</ele><time>2026-04-18T13:23:15.993Z</time></trkpt><trkpt lat="44.15107" lon="11.662175"><ele>344.3333333333333</ele><time>2026-04-18T13:23:16.994Z</time></trkpt><trkpt lat="44.15107" lon="11.6620617"><ele>345.16666666666663</ele><time>2026-04-18T13:23:17.993Z</time></trkpt><trkpt lat="44.1510533" lon="11.6619367"><ele>346.0</ele><time>2026-04-18T13:23:18.995Z</time></trkpt><trkpt lat="44.151035" lon="11.6618083"><ele>347.0</ele><time>2026-04-18T13:23:19.993Z</time></trkpt><trkpt lat="44.1510183" lon="11.6616833"><ele>348.0</ele><time>2026-04-18T13:23:20.995Z</time></trkpt><trkpt lat="44.1510067" lon="11.6615733"><ele>349.0</ele><time>2026-04-18T13:23:21.995Z</time></trkpt><trkpt lat="44.15101" lon="11.66147"><ele>350.0</ele><time>2026-04-18T13:23:22.994Z</time></trkpt><trkpt lat="44.1510367" lon="11.66137"><ele>351.0</ele><time>2026-04-18T13:23:23.994Z</time></trkpt><trkpt lat="44.1510883" lon="11.6612783"><ele>352.0</ele><time>2026-04-18T13:23:24.993Z</time></trkpt><trkpt lat="44.1511517" lon="11.6611933"><ele>352.0</ele><time>2026-04-18T13:23:25.994Z</time></trkpt><trkpt lat="44.1512217" lon="11.661115"><ele>352.0</ele><time>2026-04-18T13:23:26.995Z</time></trkpt><trkpt lat="44.1512933" lon="11.6610317"><ele>352.0</ele><time>2026-04-18T13:23:27.993Z</time></trkpt><trkpt lat="44.151365" lon="11.6609467"><ele>352.0</ele><time>2026-04-18T13:23:28.995Z</time></trkpt><trkpt lat="44.15144" lon="11.6608667"><ele>352.0</ele><time>2026-04-18T13:23:29.995Z</time></trkpt><trkpt lat="44.1515083" lon="11.6607683"><ele>352.8</ele><time>2026-04-18T13:23:30.993Z</time></trkpt><trkpt lat="44.1515717" lon="11.6606633"><ele>353.6</ele><time>2026-04-18T13:23:31.994Z</time></trkpt><trkpt lat="44.1516267" lon="11.6605567"><ele>354.40000000000003</ele><time>2026-04-18T13:23:32.996Z</time></trkpt><trkpt lat="44.1516867" lon="11.66045"><ele>355.20000000000005</ele><time>2026-04-18T13:23:33.993Z</time></trkpt><trkpt lat="44.1517483" lon="11.6603367"><ele>356.0</ele><time>2026-04-18T13:23:34.993Z</time></trkpt><trkpt lat="44.1518" lon="11.6602233"><ele>356.0</ele><time>2026-04-18T13:23:35.993Z</time></trkpt><trkpt lat="44.1518417" lon="11.6601117"><ele>356.0</ele><time>2026-04-18T13:23:36.995Z</time></trkpt><trkpt lat="44.1518767" lon="11.6600017"><ele>356.0</ele><time>2026-04-18T13:23:37.994Z</time></trkpt><trkpt lat="44.151915" lon="11.65991"><ele>356.0</ele><time>2026-04-18T13:23:38.995Z</time></trkpt><trkpt lat="44.1519667" lon="11.6598333"><ele>356.0</ele><time>2026-04-18T13:23:39.997Z</time></trkpt><trkpt lat="44.15202" lon="11.6597783"><ele>356.0</ele><time>2026-04-18T13:23:40.997Z</time></trkpt><trkpt lat="44.15208" lon="11.6597467"><ele>356.0</ele><time>2026-04-18T13:23:41.995Z</time></trkpt><trkpt lat="44.1521583" lon="11.6597467"><ele>356.0</ele><time>2026-04-18T13:23:42.994Z</time></trkpt><trkpt lat="44.1522467" lon="11.6597533"><ele>356.0</ele><time>2026-04-18T13:23:43.993Z</time></trkpt><trkpt lat="44.1523383" lon="11.6597433"><ele>356.0</ele><time>2026-04-18T13:23:44.993Z</time></trkpt><trkpt lat="44.1524317" lon="11.65972"><ele>356.0</ele><time>2026-04-18T13:23:45.994Z</time></trkpt><trkpt lat="44.1525367" lon="11.6597"><ele>361.0</ele><time>2026-04-18T13:23:46.994Z</time></trkpt><trkpt lat="44.1526383" lon="11.6596567"><ele>366.0</ele><time>2026-04-18T13:23:47.993Z</time></trkpt><trkpt lat="44.1527467" lon="11.6596183"><ele>371.0</ele><time>2026-04-18T13:23:48.994Z</time></trkpt><trkpt lat="44.1528467" lon="11.65959"><ele>376.0</ele><time>2026-04-18T13:23:49.994Z</time></trkpt><trkpt lat="44.1529467" lon="11.6595817"><ele>381.0</ele><time>2026-04-18T13:23:50.994Z</time></trkpt><trkpt lat="44.153055" lon="11.6596033"><ele>381.0</ele><time>2026-04-18T13:23:51.993Z</time></trkpt><trkpt lat="44.1531633" lon="11.6596233"><ele>381.0</ele><time>2026-04-18T13:23:52.995Z</time></trkpt><trkpt lat="44.1532783" lon="11.65965"><ele>381.0</ele><time>2026-04-18T13:23:53.993Z</time></trkpt><trkpt lat="44.1534033" lon="11.659675"><ele>381.0</ele><time>2026-04-18T13:23:54.994Z</time></trkpt><trkpt lat="44.15353" lon="11.6597033"><ele>382.20000000000005</ele><time>2026-04-18T13:23:55.995Z</time></trkpt><trkpt lat="44.1536533" lon="11.6597233"><ele>383.40000000000003</ele><time>2026-04-18T13:23:56.993Z</time></trkpt><trkpt lat="44.1537683" lon="11.6597517"><ele>384.6</ele><time>2026-04-18T13:23:57.993Z</time></trkpt><trkpt lat="44.1538667" lon="11.659785"><ele>385.8</ele><time>2026-04-18T13:23:58.993Z</time></trkpt><trkpt lat="44.1539567" lon="11.65983"><ele>387.0</ele><time>2026-04-18T13:23:59.994Z</time></trkpt><trkpt lat="44.1540367" lon="11.6598533"><ele>387.0</ele><time>2026-04-18T13:24:00.995Z</time></trkpt><trkpt lat="44.1541" lon="11.6598433"><ele>387.0</ele><time>2026-04-18T13:24:01.995Z</time></trkpt><trkpt lat="44.1541733" lon="11.6597417"><ele>387.0</ele><time>2026-04-18T13:24:03.993Z</time></trkpt><trkpt lat="44.1541633" lon="11.65965"><ele>387.0</ele><time>2026-04-18T13:24:04.994Z</time></trkpt><trkpt lat="44.15408" lon="11.6595483"><ele>387.0</ele><time>2026-04-18T13:24:05.994Z</time></trkpt><trkpt lat="44.1540033" lon="11.6594717"><ele>387.0</ele><time>2026-04-18T13:24:06.993Z</time></trkpt><trkpt lat="44.15391" lon="11.6594083"><ele>384.6</ele><time>2026-04-18T13:24:07.994Z</time></trkpt><trkpt lat="44.153815" lon="11.6593467"><ele>382.20000000000005</ele><time>2026-04-18T13:24:08.993Z</time></trkpt><trkpt lat="44.153725" lon="11.6592933"><ele>379.8</ele><time>2026-04-18T13:24:09.993Z</time></trkpt><trkpt lat="44.15364" lon="11.6592383"><ele>377.4</ele><time>2026-04-18T13:24:10.995Z</time></trkpt><trkpt lat="44.153555" lon="11.6591733"><ele>375.0</ele><time>2026-04-18T13:24:11.996Z</time></trkpt><trkpt lat="44.153475" lon="11.6590967"><ele>375.0</ele><time>2026-04-18T13:24:12.994Z</time></trkpt><trkpt lat="44.1534167" lon="11.6590083"><ele>375.0</ele><time>2026-04-18T13:24:13.993Z</time></trkpt><trkpt lat="44.1533667" lon="11.658905"><ele>375.0</ele><time>2026-04-18T13:24:14.993Z</time></trkpt><trkpt lat="44.1533333" lon="11.6587883"><ele>375.0</ele><time>2026-04-18T13:24:15.993Z</time></trkpt><trkpt lat="44.1533133" lon="11.658665"><ele>375.0</ele><time>2026-04-18T13:24:16.996Z</time></trkpt><trkpt lat="44.1532867" lon="11.6585317"><ele>375.4</ele><time>2026-04-18T13:24:17.993Z</time></trkpt><trkpt lat="44.1532617" lon="11.6583967"><ele>375.8</ele><time>2026-04-18T13:24:18.994Z</time></trkpt><trkpt lat="44.1532367" lon="11.65826"><ele>376.20000000000005</ele><time>2026-04-18T13:24:19.996Z</time></trkpt><trkpt lat="44.1532117" lon="11.65813"><ele>376.6</ele><time>2026-04-18T13:24:20.993Z</time></trkpt><trkpt lat="44.1531917" lon="11.6580033"><ele>377.0</ele><time>2026-04-18T13:24:21.994Z</time></trkpt><trkpt lat="44.15319" lon="11.6578767"><ele>378.33333333333337</ele><time>2026-04-18T13:24:22.994Z</time></trkpt><trkpt lat="44.1531967" lon="11.65776"><ele>379.6666666666667</ele><time>2026-04-18T13:24:23.993Z</time></trkpt><trkpt lat="44.153205" lon="11.6576617"><ele>381.0</ele><time>2026-04-18T13:24:24.994Z</time></trkpt><trkpt lat="44.1532133" lon="11.6575733"><ele>382.33333333333337</ele><time>2026-04-18T13:24:25.993Z</time></trkpt><trkpt lat="44.153245" lon="11.65745"><ele>383.6666666666667</ele><time>2026-04-18T13:24:27.993Z</time></trkpt><trkpt lat="44.153305" lon="11.65742"><ele>385.0</ele><time>2026-04-18T13:24:29.993Z</time></trkpt><trkpt lat="44.15335" lon="11.6575033"><ele>385.0</ele><time>2026-04-18T13:24:31.993Z</time></trkpt><trkpt lat="44.1533533" lon="11.6576217"><ele>385.0</ele><time>2026-04-18T13:24:33.993Z</time></trkpt><trkpt lat="44.1533383" lon="11.6577567"><ele>385.0</ele><time>2026-04-18T13:24:35.993Z</time></trkpt><trkpt lat="44.1533283" lon="11.6579117"><ele>385.0</ele><time>2026-04-18T13:24:37.993Z</time></trkpt><trkpt lat="44.153375" lon="11.65807"><ele>385.0</ele><time>2026-04-18T13:24:39.993Z</time></trkpt><trkpt lat="44.1534167" lon="11.6581417"><ele>385.00000000000006</ele><time>2026-04-18T13:24:40.994Z</time></trkpt><trkpt lat="44.1534667" lon="11.6582217"><ele>385.0</ele><time>2026-04-18T13:24:41.993Z</time></trkpt><trkpt lat="44.153515" lon="11.6583083"><ele>385.0</ele><time>2026-04-18T13:24:42.994Z</time></trkpt><trkpt lat="44.15356" lon="11.6583967"><ele>385.0</ele><time>2026-04-18T13:24:43.993Z</time></trkpt><trkpt lat="44.153605" lon="11.6584933"><ele>385.00000000000006</ele><time>2026-04-18T13:24:44.993Z</time></trkpt><trkpt lat="44.1536417" lon="11.658595"><ele>385.0</ele><time>2026-04-18T13:24:45.993Z</time></trkpt><trkpt lat="44.15367" lon="11.6586983"><ele>383.33333333333337</ele><time>2026-04-18T13:24:46.994Z</time></trkpt><trkpt lat="44.1537033" lon="11.6587967"><ele>381.6666666666667</ele><time>2026-04-18T13:24:47.993Z</time></trkpt><trkpt lat="44.1537433" lon="11.658875"><ele>380.0</ele><time>2026-04-18T13:24:48.994Z</time></trkpt><trkpt lat="44.1538483" lon="11.6589417"><ele>378.33333333333337</ele><time>2026-04-18T13:24:50.993Z</time></trkpt><trkpt lat="44.1539117" lon="11.658925"><ele>376.6666666666667</ele><time>2026-04-18T13:24:51.994Z</time></trkpt><trkpt lat="44.15398" lon="11.658905"><ele>375.0</ele><time>2026-04-18T13:24:52.993Z</time></trkpt><trkpt lat="44.1540533" lon="11.6588883"><ele>379.6666666666667</ele><time>2026-04-18T13:24:53.994Z</time></trkpt><trkpt lat="44.1541267" lon="11.6588867"><ele>384.33333333333337</ele><time>2026-04-18T13:24:54.996Z</time></trkpt><trkpt lat="44.1542033" lon="11.65891"><ele>389.0</ele><time>2026-04-18T13:24:55.994Z</time></trkpt><trkpt lat="44.1542667" lon="11.6589483"><ele>393.6666666666667</ele><time>2026-04-18T13:24:56.994Z</time></trkpt><trkpt lat="44.1543317" lon="11.6590117"><ele>398.33333333333337</ele><time>2026-04-18T13:24:57.992Z</time></trkpt><trkpt lat="44.1544033" lon="11.65908"><ele>403.0</ele><time>2026-04-18T13:24:58.993Z</time></trkpt><trkpt lat="44.1544783" lon="11.6591367"><ele>403.00000000000006</ele><time>2026-04-18T13:24:59.993Z</time></trkpt><trkpt lat="44.1545567" lon="11.6591883"><ele>403.0</ele><time>2026-04-18T13:25:00.993Z</time></trkpt><trkpt lat="44.1546333" lon="11.659235"><ele>403.0</ele><time>2026-04-18T13:25:01.993Z</time></trkpt><trkpt lat="44.1547017" lon="11.65928"><ele>403.0</ele><time>2026-04-18T13:25:02.995Z</time></trkpt><trkpt lat="44.154765" lon="11.6593133"><ele>403.00000000000006</ele><time>2026-04-18T13:25:03.994Z</time></trkpt><trkpt lat="44.1548783" lon="11.65933"><ele>403.0</ele><time>2026-04-18T13:25:05.993Z</time></trkpt><trkpt lat="44.1549783" lon="11.659275"><ele>408.25</ele><time>2026-04-18T13:25:07.992Z</time></trkpt><trkpt lat="44.15507" lon="11.6591883"><ele>413.5</ele><time>2026-04-18T13:25:09.993Z</time></trkpt><trkpt lat="44.155165" lon="11.65909"><ele>418.75</ele><time>2026-04-18T13:25:11.993Z</time></trkpt><trkpt lat="44.15526" lon="11.658995"><ele>424.0</ele><time>2026-04-18T13:25:13.994Z</time></trkpt><trkpt lat="44.155365" lon="11.658895"><ele>424.0</ele><time>2026-04-18T13:25:15.994Z</time></trkpt><trkpt lat="44.1554233" lon="11.6588517"><ele>424.0</ele><time>2026-04-18T13:25:16.995Z</time></trkpt><trkpt lat="44.1554833" lon="11.6588067"><ele>424.0</ele><time>2026-04-18T13:25:17.994Z</time></trkpt><trkpt lat="44.1555433" lon="11.658755"><ele>424.0</ele><time>2026-04-18T13:25:18.993Z</time></trkpt><trkpt lat="44.155605" lon="11.6587067"><ele>424.0</ele><time>2026-04-18T13:25:19.993Z</time></trkpt><trkpt lat="44.1556633" lon="11.6586517"><ele>424.0</ele><time>2026-04-18T13:25:20.994Z</time></trkpt><trkpt lat="44.155715" lon="11.6585917"><ele>424.0</ele><time>2026-04-18T13:25:21.993Z</time></trkpt><trkpt lat="44.15577" lon="11.65854"><ele>427.2857142857143</ele><time>2026-04-18T13:25:22.994Z</time></trkpt><trkpt lat="44.1558267" lon="11.6584833"><ele>430.57142857142856</ele><time>2026-04-18T13:25:23.993Z</time></trkpt><trkpt lat="44.1558817" lon="11.6584233"><ele>433.85714285714283</ele><time>2026-04-18T13:25:24.993Z</time></trkpt><trkpt lat="44.155935" lon="11.65836"><ele>437.1428571428571</ele><time>2026-04-18T13:25:25.993Z</time></trkpt><trkpt lat="44.1559867" lon="11.6583"><ele>440.42857142857144</ele><time>2026-04-18T13:25:26.994Z</time></trkpt><trkpt lat="44.1560367" lon="11.6582417"><ele>443.71428571428567</ele><time>2026-04-18T13:25:27.996Z</time></trkpt><trkpt lat="44.1560967" lon="11.6581917"><ele>447.0</ele><time>2026-04-18T13:25:28.993Z</time></trkpt><trkpt lat="44.15616" lon="11.6581483"><ele>446.99999999999994</ele><time>2026-04-18T13:25:29.992Z</time></trkpt><trkpt lat="44.156225" lon="11.658115"><ele>447.0</ele><time>2026-04-18T13:25:30.993Z</time></trkpt><trkpt lat="44.156285" lon="11.6580833"><ele>447.0</ele><time>2026-04-18T13:25:31.993Z</time></trkpt><trkpt lat="44.15635" lon="11.6580517"><ele>447.0</ele><time>2026-04-18T13:25:32.993Z</time></trkpt><trkpt lat="44.1564133" lon="11.6580133"><ele>447.0</ele><time>2026-04-18T13:25:33.993Z</time></trkpt><trkpt lat="44.1564633" lon="11.6579583"><ele>446.99999999999994</ele><time>2026-04-18T13:25:34.993Z</time></trkpt><trkpt lat="44.1565183" lon="11.6579"><ele>447.0</ele><time>2026-04-18T13:25:35.994Z</time></trkpt><trkpt lat="44.1565783" lon="11.65785"><ele>447.1428571428571</ele><time>2026-04-18T13:25:36.994Z</time></trkpt><trkpt lat="44.1566417" lon="11.6578183"><ele>447.2857142857143</ele><time>2026-04-18T13:25:37.994Z</time></trkpt><trkpt lat="44.1567083" lon="11.657815"><ele>447.42857142857144</ele><time>2026-04-18T13:25:38.994Z</time></trkpt><trkpt lat="44.156775" lon="11.6578067"><ele>447.57142857142856</ele><time>2026-04-18T13:25:39.995Z</time></trkpt><trkpt lat="44.156845" lon="11.6577933"><ele>447.7142857142857</ele><time>2026-04-18T13:25:40.994Z</time></trkpt><trkpt lat="44.1569133" lon="11.6577783"><ele>447.85714285714283</ele><time>2026-04-18T13:25:41.995Z</time></trkpt><trkpt lat="44.15698" lon="11.657755"><ele>448.0</ele><time>2026-04-18T13:25:42.994Z</time></trkpt><trkpt lat="44.1570467" lon="11.6577283"><ele>452.83333333333337</ele><time>2026-04-18T13:25:43.994Z</time></trkpt><trkpt lat="44.157115" lon="11.6576933"><ele>457.6666666666667</ele><time>2026-04-18T13:25:44.995Z</time></trkpt><trkpt lat="44.1571833" lon="11.6576617"><ele>462.5</ele><time>2026-04-18T13:25:45.994Z</time></trkpt><trkpt lat="44.1572517" lon="11.6576433"><ele>467.33333333333337</ele><time>2026-04-18T13:25:46.994Z</time></trkpt><trkpt lat="44.157325" lon="11.65765"><ele>472.1666666666667</ele><time>2026-04-18T13:25:47.995Z</time></trkpt><trkpt lat="44.1574033" lon="11.657675"><ele>477.0</ele><time>2026-04-18T13:25:48.994Z</time></trkpt><trkpt lat="44.1574867" lon="11.6577"><ele>478.3333333333333</ele><time>2026-04-18T13:25:49.994Z</time></trkpt><trkpt lat="44.157565" lon="11.657705"><ele>479.66666666666663</ele><time>2026-04-18T13:25:50.995Z</time></trkpt><trkpt lat="44.1576467" lon="11.6577167"><ele>481.0</ele><time>2026-04-18T13:25:51.993Z</time></trkpt><trkpt lat="44.157725" lon="11.6577217"><ele>482.3333333333333</ele><time>2026-04-18T13:25:52.993Z</time></trkpt><trkpt lat="44.157805" lon="11.657725"><ele>483.66666666666663</ele><time>2026-04-18T13:25:53.994Z</time></trkpt><trkpt lat="44.1578767" lon="11.65773"><ele>485.0</ele><time>2026-04-18T13:25:54.993Z</time></trkpt><trkpt lat="44.1579583" lon="11.657745"><ele>484.99999999999994</ele><time>2026-04-18T13:25:55.992Z</time></trkpt><trkpt lat="44.1580367" lon="11.6577533"><ele>485.0</ele><time>2026-04-18T13:25:56.993Z</time></trkpt><trkpt lat="44.1581133" lon="11.6577617"><ele>485.0</ele><time>2026-04-18T13:25:57.994Z</time></trkpt><trkpt lat="44.1581917" lon="11.6577767"><ele>485.0</ele><time>2026-04-18T13:25:58.994Z</time></trkpt><trkpt lat="44.1582533" lon="11.657805"><ele>484.99999999999994</ele><time>2026-04-18T13:25:59.993Z</time></trkpt><trkpt lat="44.1583033" lon="11.6579483"><ele>485.0</ele><time>2026-04-18T13:26:01.994Z</time></trkpt><trkpt lat="44.15828" lon="11.6580517"><ele>483.6</ele><time>2026-04-18T13:26:02.993Z</time></trkpt><trkpt lat="44.158245" lon="11.6581583"><ele>482.2</ele><time>2026-04-18T13:26:03.994Z</time></trkpt><trkpt lat="44.158195" lon="11.6582783"><ele>480.79999999999995</ele><time>2026-04-18T13:26:04.993Z</time></trkpt><trkpt lat="44.1581483" lon="11.658405"><ele>479.4</ele><time>2026-04-18T13:26:05.995Z</time></trkpt><trkpt lat="44.1580933" lon="11.6585283"><ele>478.0</ele><time>2026-04-18T13:26:06.993Z</time></trkpt><trkpt lat="44.1580283" lon="11.65864"><ele>478.0</ele><time>2026-04-18T13:26:07.994Z</time></trkpt><trkpt lat="44.1579617" lon="11.658755"><ele>477.99999999999994</ele><time>2026-04-18T13:26:08.993Z</time></trkpt><trkpt lat="44.15789" lon="11.6588617"><ele>477.99999999999994</ele><time>2026-04-18T13:26:09.994Z</time></trkpt><trkpt lat="44.1578167" lon="11.6589617"><ele>478.0</ele><time>2026-04-18T13:26:10.993Z</time></trkpt><trkpt lat="44.1577417" lon="11.6590517"><ele>478.0</ele><time>2026-04-18T13:26:11.995Z</time></trkpt><trkpt lat="44.1576717" lon="11.65914"><ele>478.00000000000006</ele><time>2026-04-18T13:26:12.993Z</time></trkpt><trkpt lat="44.1576167" lon="11.65923"><ele>478.0</ele><time>2026-04-18T13:26:13.995Z</time></trkpt><trkpt lat="44.1575583" lon="11.65931"><ele>478.0</ele><time>2026-04-18T13:26:14.996Z</time></trkpt><trkpt lat="44.1575283" lon="11.65939"><ele>478.0</ele><time>2026-04-18T13:26:15.993Z</time></trkpt><trkpt lat="44.1575317" lon="11.65954"><ele>478.00000000000006</ele><time>2026-04-18T13:26:17.994Z</time></trkpt><trkpt lat="44.1576233" lon="11.6595967"><ele>478.0</ele><time>2026-04-18T13:26:19.994Z</time></trkpt><trkpt lat="44.1577" lon="11.6595733"><ele>478.00000000000006</ele><time>2026-04-18T13:26:20.993Z</time></trkpt><trkpt lat="44.1577367" lon="11.6595017"><ele>478.0</ele><time>2026-04-18T13:26:21.993Z</time></trkpt><trkpt lat="44.1577767" lon="11.6594183"><ele>478.00000000000006</ele><time>2026-04-18T13:26:22.994Z</time></trkpt><trkpt lat="44.15781" lon="11.65932"><ele>478.00000000000006</ele><time>2026-04-18T13:26:23.994Z</time></trkpt><trkpt lat="44.1578583" lon="11.6592367"><ele>478.0</ele><time>2026-04-18T13:26:24.993Z</time></trkpt><trkpt lat="44.157915" lon="11.6591617"><ele>478.00000000000006</ele><time>2026-04-18T13:26:25.994Z</time></trkpt><trkpt lat="44.1579767" lon="11.6591017"><ele>478.00000000000006</ele><time>2026-04-18T13:26:26.998Z</time></trkpt><trkpt lat="44.1580483" lon="11.6590483"><ele>478.00000000000006</ele><time>2026-04-18T13:26:27.993Z</time></trkpt><trkpt lat="44.1581267" lon="11.6590033"><ele>478.0</ele><time>2026-04-18T13:26:28.994Z</time></trkpt><trkpt lat="44.158205" lon="11.6589533"><ele>478.0</ele><time>2026-04-18T13:26:29.994Z</time></trkpt><trkpt lat="44.15828" lon="11.6588933"><ele>478.0</ele><time>2026-04-18T13:26:30.994Z</time></trkpt><trkpt lat="44.1583467" lon="11.65882"><ele>478.00000000000006</ele><time>2026-04-18T13:26:31.993Z</time></trkpt><trkpt lat="44.15841" lon="11.6587417"><ele>478.0</ele><time>2026-04-18T13:26:32.994Z</time></trkpt><trkpt lat="44.1584667" lon="11.658655"><ele>481.33333333333337</ele><time>2026-04-18T13:26:33.993Z</time></trkpt><trkpt lat="44.1585233" lon="11.6585667"><ele>484.6666666666667</ele><time>2026-04-18T13:26:34.993Z</time></trkpt><trkpt lat="44.1585717" lon="11.6584783"><ele>488.0</ele><time>2026-04-18T13:26:35.994Z</time></trkpt><trkpt lat="44.15861" lon="11.6583917"><ele>491.33333333333337</ele><time>2026-04-18T13:26:36.993Z</time></trkpt><trkpt lat="44.1586433" lon="11.6583"><ele>494.6666666666667</ele><time>2026-04-18T13:26:37.993Z</time></trkpt><trkpt lat="44.1586783" lon="11.6582083"><ele>498.0</ele><time>2026-04-18T13:26:38.995Z</time></trkpt><trkpt lat="44.158715" lon="11.6581167"><ele>498.0</ele><time>2026-04-18T13:26:39.994Z</time></trkpt><trkpt lat="44.1587633" lon="11.658035"><ele>498.0</ele><time>2026-04-18T13:26:40.993Z</time></trkpt><trkpt lat="44.1588217" lon="11.6579583"><ele>498.0</ele><time>2026-04-18T13:26:41.994Z</time></trkpt><trkpt lat="44.1588767" lon="11.6578867"><ele>498.0</ele><time>2026-04-18T13:26:42.993Z</time></trkpt><trkpt lat="44.158925" lon="11.657805"><ele>498.0</ele><time>2026-04-18T13:26:43.994Z</time></trkpt><trkpt lat="44.15897" lon="11.6577217"><ele>498.0</ele><time>2026-04-18T13:26:44.993Z</time></trkpt><trkpt lat="44.1590067" lon="11.6576317"><ele>504.5</ele><time>2026-04-18T13:26:45.996Z</time></trkpt><trkpt lat="44.1590433" lon="11.6575383"><ele>511.0</ele><time>2026-04-18T13:26:46.994Z</time></trkpt><trkpt lat="44.1590783" lon="11.6574483"><ele>517.5</ele><time>2026-04-18T13:26:47.994Z</time></trkpt><trkpt lat="44.15911" lon="11.6573483"><ele>524.0</ele><time>2026-04-18T13:26:48.993Z</time></trkpt><trkpt lat="44.1591333" lon="11.6572433"><ele>530.5</ele><time>2026-04-18T13:26:49.994Z</time></trkpt><trkpt lat="44.159145" lon="11.6571317"><ele>537.0</ele><time>2026-04-18T13:26:50.994Z</time></trkpt><trkpt lat="44.1591483" lon="11.6570317"><ele>539.4</ele><time>2026-04-18T13:26:51.994Z</time></trkpt><trkpt lat="44.1591333" lon="11.6569367"><ele>541.8000000000001</ele><time>2026-04-18T13:26:52.994Z</time></trkpt><trkpt lat="44.15911" lon="11.65685"><ele>544.2</ele><time>2026-04-18T13:26:53.994Z</time></trkpt><trkpt lat="44.1590883" lon="11.65672"><ele>546.6</ele><time>2026-04-18T13:26:55.994Z</time></trkpt><trkpt lat="44.1591667" lon="11.6566883"><ele>549.0</ele><time>2026-04-18T13:26:58.994Z</time></trkpt><trkpt lat="44.15922" lon="11.6568667"><ele>547.0</ele><time>2026-04-18T13:27:00.993Z</time></trkpt><trkpt lat="44.1592333" lon="11.6569717"><ele>545.0</ele><time>2026-04-18T13:27:01.994Z</time></trkpt><trkpt lat="44.1592383" lon="11.6570983"><ele>543.0</ele><time>2026-04-18T13:27:02.995Z</time></trkpt><trkpt lat="44.1592283" lon="11.6572233"><ele>541.0</ele><time>2026-04-18T13:27:03.994Z</time></trkpt><trkpt lat="44.1592067" lon="11.6573517"><ele>539.0</ele><time>2026-04-18T13:27:04.993Z</time></trkpt><trkpt lat="44.159185" lon="11.6574817"><ele>537.0</ele><time>2026-04-18T13:27:05.993Z</time></trkpt><trkpt lat="44.15916" lon="11.6576117"><ele>537.0</ele><time>2026-04-18T13:27:06.994Z</time></trkpt><trkpt lat="44.159145" lon="11.6577317"><ele>537.0</ele><time>2026-04-18T13:27:07.993Z</time></trkpt><trkpt lat="44.1591367" lon="11.65784"><ele>537.0</ele><time>2026-04-18T13:27:08.993Z</time></trkpt><trkpt lat="44.15914" lon="11.6579417"><ele>537.0</ele><time>2026-04-18T13:27:09.993Z</time></trkpt><trkpt lat="44.1592017" lon="11.658055"><ele>537.0</ele><time>2026-04-18T13:27:11.993Z</time></trkpt><trkpt lat="44.15933" lon="11.65804"><ele>535.3333333333334</ele><time>2026-04-18T13:27:13.993Z</time></trkpt><trkpt lat="44.1594067" lon="11.65802"><ele>533.6666666666666</ele><time>2026-04-18T13:27:14.994Z</time></trkpt><trkpt lat="44.1594733" lon="11.6580033"><ele>532.0</ele><time>2026-04-18T13:27:15.993Z</time></trkpt><trkpt lat="44.159555" lon="11.6579917"><ele>530.3333333333333</ele><time>2026-04-18T13:27:16.994Z</time></trkpt><trkpt lat="44.159635" lon="11.657985"><ele>528.6666666666666</ele><time>2026-04-18T13:27:17.994Z</time></trkpt><trkpt lat="44.1597217" lon="11.6579833"><ele>527.0</ele><time>2026-04-18T13:27:18.994Z</time></trkpt><trkpt lat="44.159805" lon="11.65798"><ele>530.0</ele><time>2026-04-18T13:27:19.994Z</time></trkpt><trkpt lat="44.15989" lon="11.6579817"><ele>533.0</ele><time>2026-04-18T13:27:20.993Z</time></trkpt><trkpt lat="44.1599717" lon="11.65797"><ele>536.0</ele><time>2026-04-18T13:27:21.994Z</time></trkpt><trkpt lat="44.1600517" lon="11.657955"><ele>539.0</ele><time>2026-04-18T13:27:22.993Z</time></trkpt><trkpt lat="44.160125" lon="11.657945"><ele>542.0</ele><time>2026-04-18T13:27:23.993Z</time></trkpt><trkpt lat="44.1602417" lon="11.6579883"><ele>545.0</ele><time>2026-04-18T13:27:25.993Z</time></trkpt><trkpt lat="44.16031" lon="11.6581333"><ele>545.0</ele><time>2026-04-18T13:27:27.994Z</time></trkpt><trkpt lat="44.1603433" lon="11.6582317"><ele>545.0</ele><time>2026-04-18T13:27:28.994Z</time></trkpt><trkpt lat="44.16038" lon="11.6583183"><ele>545.0</ele><time>2026-04-18T13:27:29.993Z</time></trkpt><trkpt lat="44.1604317" lon="11.6583867"><ele>545.0</ele><time>2026-04-18T13:27:30.994Z</time></trkpt><trkpt lat="44.16049" lon="11.6584233"><ele>545.0</ele><time>2026-04-18T13:27:31.996Z</time></trkpt><trkpt lat="44.1605633" lon="11.658415"><ele>545.0</ele><time>2026-04-18T13:27:32.996Z</time></trkpt><trkpt lat="44.16064" lon="11.6583983"><ele>545.0</ele><time>2026-04-18T13:27:33.994Z</time></trkpt><trkpt lat="44.1607117" lon="11.658395"><ele>546.6666666666666</ele><time>2026-04-18T13:27:34.993Z</time></trkpt><trkpt lat="44.1607783" lon="11.6584033"><ele>548.3333333333333</ele><time>2026-04-18T13:27:35.993Z</time></trkpt><trkpt lat="44.16084" lon="11.6584367"><ele>550.0</ele><time>2026-04-18T13:27:36.993Z</time></trkpt><trkpt lat="44.1608933" lon="11.6584983"><ele>551.6666666666666</ele><time>2026-04-18T13:27:37.994Z</time></trkpt><trkpt lat="44.1609367" lon="11.6585967"><ele>553.3333333333334</ele><time>2026-04-18T13:27:38.993Z</time></trkpt><trkpt lat="44.1609667" lon="11.65871"><ele>555.0</ele><time>2026-04-18T13:27:39.993Z</time></trkpt><trkpt lat="44.1609983" lon="11.6588417"><ele>555.0</ele><time>2026-04-18T13:27:40.993Z</time></trkpt><trkpt lat="44.1610267" lon="11.65898"><ele>555.0</ele><time>2026-04-18T13:27:41.994Z</time></trkpt><trkpt lat="44.1610517" lon="11.6591183"><ele>555.0</ele><time>2026-04-18T13:27:42.995Z</time></trkpt><trkpt lat="44.16106" lon="11.659255"><ele>555.0</ele><time>2026-04-18T13:27:43.993Z</time></trkpt><trkpt lat="44.16105" lon="11.6593917"><ele>555.0</ele><time>2026-04-18T13:27:44.995Z</time></trkpt><trkpt lat="44.1610233" lon="11.6595117"><ele>554.0</ele><time>2026-04-18T13:27:45.993Z</time></trkpt><trkpt lat="44.16099" lon="11.6596117"><ele>553.0</ele><time>2026-04-18T13:27:46.994Z</time></trkpt><trkpt lat="44.160965" lon="11.659695"><ele>552.0</ele><time>2026-04-18T13:27:47.993Z</time></trkpt><trkpt lat="44.1609583" lon="11.65982"><ele>551.0</ele><time>2026-04-18T13:27:49.993Z</time></trkpt><trkpt lat="44.1610483" lon="11.6598617"><ele>550.0</ele><time>2026-04-18T13:27:52.995Z</time></trkpt><trkpt lat="44.1611133" lon="11.659815"><ele>549.0</ele><time>2026-04-18T13:27:53.993Z</time></trkpt><trkpt lat="44.161195" lon="11.6597767"><ele>549.0</ele><time>2026-04-18T13:27:54.994Z</time></trkpt><trkpt lat="44.161285" lon="11.6597583"><ele>549.0</ele><time>2026-04-18T13:27:55.994Z</time></trkpt><trkpt lat="44.1613633" lon="11.6597483"><ele>549.0</ele><time>2026-04-18T13:27:56.994Z</time></trkpt><trkpt lat="44.1614433" lon="11.65974"><ele>549.0</ele><time>2026-04-18T13:27:57.993Z</time></trkpt><trkpt lat="44.1615233" lon="11.659725"><ele>549.0</ele><time>2026-04-18T13:27:58.995Z</time></trkpt><trkpt lat="44.1616" lon="11.659705"><ele>549.0</ele><time>2026-04-18T13:27:59.994Z</time></trkpt><trkpt lat="44.16168" lon="11.65968"><ele>551.8571428571429</ele><time>2026-04-18T13:28:00.996Z</time></trkpt><trkpt lat="44.1617583" lon="11.6596533"><ele>554.7142857142858</ele><time>2026-04-18T13:28:01.995Z</time></trkpt><trkpt lat="44.1618333" lon="11.659635"><ele>557.5714285714287</ele><time>2026-04-18T13:28:02.993Z</time></trkpt><trkpt lat="44.1618983" lon="11.6596367"><ele>560.4285714285714</ele><time>2026-04-18T13:28:03.993Z</time></trkpt><trkpt lat="44.1619583" lon="11.6596883"><ele>563.2857142857143</ele><time>2026-04-18T13:28:04.994Z</time></trkpt><trkpt lat="44.1619967" lon="11.6597717"><ele>566.1428571428572</ele><time>2026-04-18T13:28:05.993Z</time></trkpt><trkpt lat="44.1620283" lon="11.6598633"><ele>569.0</ele><time>2026-04-18T13:28:06.993Z</time></trkpt><trkpt lat="44.16205" lon="11.6599867"><ele>569.0</ele><time>2026-04-18T13:28:07.993Z</time></trkpt><trkpt lat="44.1620833" lon="11.6600917"><ele>569.0</ele><time>2026-04-18T13:28:08.993Z</time></trkpt><trkpt lat="44.1621267" lon="11.660195"><ele>569.0</ele><time>2026-04-18T13:28:09.993Z</time></trkpt><trkpt lat="44.16217" lon="11.660295"><ele>569.0</ele><time>2026-04-18T13:28:10.995Z</time></trkpt><trkpt lat="44.1622383" lon="11.6603517"><ele>569.0</ele><time>2026-04-18T13:28:11.993Z</time></trkpt><trkpt lat="44.1623117" lon="11.6603983"><ele>569.0</ele><time>2026-04-18T13:28:12.994Z</time></trkpt><trkpt lat="44.1623733" lon="11.66046"><ele>573.2</ele><time>2026-04-18T13:28:13.994Z</time></trkpt><trkpt lat="44.1624183" lon="11.6605367"><ele>577.4</ele><time>2026-04-18T13:28:14.994Z</time></trkpt><trkpt lat="44.1624633" lon="11.6606933"><ele>581.6</ele><time>2026-04-18T13:28:16.994Z</time></trkpt><trkpt lat="44.1625433" lon="11.6608167"><ele>585.8</ele><time>2026-04-18T13:28:18.994Z</time></trkpt><trkpt lat="44.1626083" lon="11.6608533"><ele>590.0</ele><time>2026-04-18T13:28:19.995Z</time></trkpt><trkpt lat="44.1626733" lon="11.660895"><ele>590.0</ele><time>2026-04-18T13:28:20.993Z</time></trkpt><trkpt lat="44.16272" lon="11.6609583"><ele>590.0</ele><time>2026-04-18T13:28:21.994Z</time></trkpt><trkpt lat="44.1627467" lon="11.661045"><ele>590.0</ele><time>2026-04-18T13:28:22.992Z</time></trkpt><trkpt lat="44.1627483" lon="11.661145"><ele>590.0</ele><time>2026-04-18T13:28:23.993Z</time></trkpt><trkpt lat="44.16272" lon="11.6612617"><ele>590.0</ele><time>2026-04-18T13:28:24.993Z</time></trkpt><trkpt lat="44.16268" lon="11.6613617"><ele>590.0</ele><time>2026-04-18T13:28:25.994Z</time></trkpt><trkpt lat="44.1626333" lon="11.66146"><ele>588.2</ele><time>2026-04-18T13:28:26.994Z</time></trkpt><trkpt lat="44.1625933" lon="11.6615533"><ele>586.4</ele><time>2026-04-18T13:28:27.994Z</time></trkpt><trkpt lat="44.1625683" lon="11.661635"><ele>584.6</ele><time>2026-04-18T13:28:28.995Z</time></trkpt><trkpt lat="44.16259" lon="11.661755"><ele>582.8</ele><time>2026-04-18T13:28:30.994Z</time></trkpt><trkpt lat="44.1627267" lon="11.661725"><ele>581.0</ele><time>2026-04-18T13:28:32.996Z</time></trkpt><trkpt lat="44.1628067" lon="11.661705"><ele>581.0</ele><time>2026-04-18T13:28:33.996Z</time></trkpt><trkpt lat="44.1628783" lon="11.66169"><ele>581.0</ele><time>2026-04-18T13:28:34.995Z</time></trkpt><trkpt lat="44.162955" lon="11.6616817"><ele>581.0</ele><time>2026-04-18T13:28:35.993Z</time></trkpt><trkpt lat="44.163025" lon="11.661655"><ele>581.0</ele><time>2026-04-18T13:28:36.994Z</time></trkpt><trkpt lat="44.1631017" lon="11.6616217"><ele>581.0</ele><time>2026-04-18T13:28:37.993Z</time></trkpt><trkpt lat="44.1631733" lon="11.66157"><ele>581.0</ele><time>2026-04-18T13:28:38.994Z</time></trkpt><trkpt lat="44.1632433" lon="11.661515"><ele>583.4285714285714</ele><time>2026-04-18T13:28:39.994Z</time></trkpt><trkpt lat="44.1633083" lon="11.66146"><ele>585.8571428571429</ele><time>2026-04-18T13:28:40.993Z</time></trkpt><trkpt lat="44.163375" lon="11.6614217"><ele>588.2857142857142</ele><time>2026-04-18T13:28:41.994Z</time></trkpt><trkpt lat="44.1634483" lon="11.6613967"><ele>590.7142857142858</ele><time>2026-04-18T13:28:42.994Z</time></trkpt><trkpt lat="44.1635217" lon="11.661375"><ele>593.1428571428571</ele><time>2026-04-18T13:28:43.993Z</time></trkpt><trkpt lat="44.1635917" lon="11.66135"><ele>595.5714285714286</ele><time>2026-04-18T13:28:44.994Z</time></trkpt><trkpt lat="44.16366" lon="11.6613267"><ele>598.0</ele><time>2026-04-18T13:28:45.994Z</time></trkpt><trkpt lat="44.16373" lon="11.6613067"><ele>598.0</ele><time>2026-04-18T13:28:46.994Z</time></trkpt><trkpt lat="44.1638033" lon="11.66129"><ele>598.0</ele><time>2026-04-18T13:28:47.993Z</time></trkpt><trkpt lat="44.1638783" lon="11.6612683"><ele>598.0</ele><time>2026-04-18T13:28:48.993Z</time></trkpt><trkpt lat="44.1639517" lon="11.6612383"><ele>598.0</ele><time>2026-04-18T13:28:49.993Z</time></trkpt><trkpt lat="44.1640133" lon="11.6611967"><ele>598.0</ele><time>2026-04-18T13:28:50.993Z</time></trkpt><trkpt lat="44.1640833" lon="11.6610883"><ele>598.0</ele><time>2026-04-18T13:28:52.995Z</time></trkpt><trkpt lat="44.1640683" lon="11.66093"><ele>600.6666666666667</ele><time>2026-04-18T13:28:54.995Z</time></trkpt><trkpt lat="44.1640417" lon="11.6608333"><ele>603.3333333333334</ele><time>2026-04-18T13:28:55.994Z</time></trkpt><trkpt lat="44.164015" lon="11.66072"><ele>606.0</ele><time>2026-04-18T13:28:56.994Z</time></trkpt><trkpt lat="44.1640067" lon="11.6606117"><ele>608.6666666666666</ele><time>2026-04-18T13:28:57.995Z</time></trkpt><trkpt lat="44.164015" lon="11.6604917"><ele>611.3333333333333</ele><time>2026-04-18T13:28:58.995Z</time></trkpt><trkpt lat="44.1640433" lon="11.6603717"><ele>614.0</ele><time>2026-04-18T13:28:59.996Z</time></trkpt><trkpt lat="44.1640883" lon="11.660265"><ele>614.0</ele><time>2026-04-18T13:29:00.994Z</time></trkpt><trkpt lat="44.1641283" lon="11.6601683"><ele>614.0</ele><time>2026-04-18T13:29:01.993Z</time></trkpt><trkpt lat="44.164155" lon="11.66008"><ele>614.0</ele><time>2026-04-18T13:29:02.994Z</time></trkpt><trkpt lat="44.1641633" lon="11.6599867"><ele>614.0</ele><time>2026-04-18T13:29:03.993Z</time></trkpt><trkpt lat="44.164115" lon="11.659835"><ele>614.0</ele><time>2026-04-18T13:29:05.995Z</time></trkpt><trkpt lat="44.16406" lon="11.659775"><ele>614.0</ele><time>2026-04-18T13:29:06.993Z</time></trkpt><trkpt lat="44.1639917" lon="11.6596967"><ele>617.6666666666666</ele><time>2026-04-18T13:29:07.993Z</time></trkpt><trkpt lat="44.16392" lon="11.65962"><ele>621.3333333333333</ele><time>2026-04-18T13:29:08.994Z</time></trkpt><trkpt lat="44.1638567" lon="11.6595483"><ele>625.0</ele><time>2026-04-18T13:29:09.995Z</time></trkpt><trkpt lat="44.1637967" lon="11.6594767"><ele>628.6666666666666</ele><time>2026-04-18T13:29:10.995Z</time></trkpt><trkpt lat="44.16374" lon="11.659395"><ele>632.3333333333334</ele><time>2026-04-18T13:29:11.994Z</time></trkpt><trkpt lat="44.1636917" lon="11.6593017"><ele>636.0</ele><time>2026-04-18T13:29:12.994Z</time></trkpt><trkpt lat="44.16367" lon="11.65919"><ele>635.5</ele><time>2026-04-18T13:29:13.994Z</time></trkpt><trkpt lat="44.1636533" lon="11.6590733"><ele>635.0</ele><time>2026-04-18T13:29:14.993Z</time></trkpt><trkpt lat="44.163635" lon="11.6589533"><ele>634.5</ele><time>2026-04-18T13:29:15.996Z</time></trkpt><trkpt lat="44.1636117" lon="11.6588333"><ele>634.0</ele><time>2026-04-18T13:29:16.995Z</time></trkpt><trkpt lat="44.1635983" lon="11.658715"><ele>633.5</ele><time>2026-04-18T13:29:17.993Z</time></trkpt><trkpt lat="44.1635917" lon="11.65861"><ele>633.0</ele><time>2026-04-18T13:29:18.994Z</time></trkpt><trkpt lat="44.1635767" lon="11.65851"><ele>633.0</ele><time>2026-04-18T13:29:19.994Z</time></trkpt><trkpt lat="44.1635617" lon="11.6584183"><ele>633.0</ele><time>2026-04-18T13:29:20.995Z</time></trkpt><trkpt lat="44.16354" lon="11.6582767"><ele>633.0</ele><time>2026-04-18T13:29:22.993Z</time></trkpt><trkpt lat="44.1635283" lon="11.6581667"><ele>633.0</ele><time>2026-04-18T13:29:24.995Z</time></trkpt><trkpt lat="44.1635317" lon="11.6580483"><ele>633.0</ele><time>2026-04-18T13:29:26.993Z</time></trkpt><trkpt lat="44.163535" lon="11.6578867"><ele>633.0</ele><time>2026-04-18T13:29:28.993Z</time></trkpt><trkpt lat="44.1635367" lon="11.6577983"><ele>633.0</ele><time>2026-04-18T13:29:29.994Z</time></trkpt><trkpt lat="44.16354" lon="11.6577"><ele>633.0</ele><time>2026-04-18T13:29:30.994Z</time></trkpt><trkpt lat="44.16354" lon="11.6576117"><ele>633.0</ele><time>2026-04-18T13:29:31.993Z</time></trkpt><trkpt lat="44.1635067" lon="11.6574683"><ele>633.0</ele><time>2026-04-18T13:29:33.994Z</time></trkpt><trkpt lat="44.163395" lon="11.657405"><ele>633.0</ele><time>2026-04-18T13:29:35.993Z</time></trkpt><trkpt lat="44.1633183" lon="11.6573983"><ele>633.8333333333334</ele><time>2026-04-18T13:29:36.994Z</time></trkpt><trkpt lat="44.1632383" lon="11.6574067"><ele>634.6666666666666</ele><time>2026-04-18T13:29:37.993Z</time></trkpt><trkpt lat="44.163155" lon="11.6574267"><ele>635.5</ele><time>2026-04-18T13:29:38.995Z</time></trkpt><trkpt lat="44.1630717" lon="11.6574583"><ele>636.3333333333333</ele><time>2026-04-18T13:29:39.994Z</time></trkpt><trkpt lat="44.1629867" lon="11.65748"><ele>637.1666666666666</ele><time>2026-04-18T13:29:40.994Z</time></trkpt><trkpt lat="44.1629033" lon="11.65748"><ele>638.0</ele><time>2026-04-18T13:29:41.994Z</time></trkpt><trkpt lat="44.1628217" lon="11.6574583"><ele>638.0</ele><time>2026-04-18T13:29:42.995Z</time></trkpt><trkpt lat="44.1627433" lon="11.6574183"><ele>638.0</ele><time>2026-04-18T13:29:43.995Z</time></trkpt><trkpt lat="44.1626667" lon="11.6573683"><ele>638.0</ele><time>2026-04-18T13:29:44.994Z</time></trkpt><trkpt lat="44.1625967" lon="11.6573017"><ele>638.0</ele><time>2026-04-18T13:29:45.993Z</time></trkpt><trkpt lat="44.1625417" lon="11.6572083"><ele>638.0</ele><time>2026-04-18T13:29:46.995Z</time></trkpt><trkpt lat="44.16249" lon="11.6571017"><ele>638.0</ele><time>2026-04-18T13:29:47.993Z</time></trkpt><trkpt lat="44.1624433" lon="11.6569783"><ele>634.8</ele><time>2026-04-18T13:29:48.994Z</time></trkpt><trkpt lat="44.162425" lon="11.6568517"><ele>631.5999999999999</ele><time>2026-04-18T13:29:49.993Z</time></trkpt><trkpt lat="44.1624167" lon="11.6567117"><ele>628.4000000000001</ele><time>2026-04-18T13:29:50.994Z</time></trkpt><trkpt lat="44.162415" lon="11.6565667"><ele>625.2</ele><time>2026-04-18T13:29:51.994Z</time></trkpt><trkpt lat="44.1624133" lon="11.6564217"><ele>622.0</ele><time>2026-04-18T13:29:52.994Z</time></trkpt><trkpt lat="44.1624017" lon="11.6562733"><ele>622.0</ele><time>2026-04-18T13:29:53.993Z</time></trkpt><trkpt lat="44.1623833" lon="11.65612"><ele>622.0</ele><time>2026-04-18T13:29:54.994Z</time></trkpt><trkpt lat="44.1623783" lon="11.6559633"><ele>622.0</ele><time>2026-04-18T13:29:55.993Z</time></trkpt><trkpt lat="44.1623817" lon="11.655815"><ele>622.0</ele><time>2026-04-18T13:29:56.995Z</time></trkpt><trkpt lat="44.1623917" lon="11.65567"><ele>622.0</ele><time>2026-04-18T13:29:57.993Z</time></trkpt><trkpt lat="44.1623967" lon="11.6555267"><ele>622.3333333333334</ele><time>2026-04-18T13:29:58.993Z</time></trkpt><trkpt lat="44.16239" lon="11.6553917"><ele>622.6666666666667</ele><time>2026-04-18T13:29:59.994Z</time></trkpt><trkpt lat="44.16238" lon="11.6552733"><ele>623.0</ele><time>2026-04-18T13:30:00.995Z</time></trkpt><trkpt lat="44.16237" lon="11.6551683"><ele>623.3333333333334</ele><time>2026-04-18T13:30:01.994Z</time></trkpt><trkpt lat="44.162345" lon="11.65508"><ele>623.6666666666666</ele><time>2026-04-18T13:30:02.995Z</time></trkpt><trkpt lat="44.16226" lon="11.654985"><ele>624.0</ele><time>2026-04-18T13:30:04.993Z</time></trkpt><trkpt lat="44.1621183" lon="11.6549717"><ele>626.8333333333334</ele><time>2026-04-18T13:30:06.996Z</time></trkpt><trkpt lat="44.1620383" lon="11.6549633"><ele>629.6666666666666</ele><time>2026-04-18T13:30:07.994Z</time></trkpt><trkpt lat="44.1619633" lon="11.654935"><ele>632.5</ele><time>2026-04-18T13:30:08.999Z</time></trkpt><trkpt lat="44.1618983" lon="11.6548933"><ele>635.3333333333333</ele><time>2026-04-18T13:30:09.995Z</time></trkpt><trkpt lat="44.1618383" lon="11.6548233"><ele>638.1666666666666</ele><time>2026-04-18T13:30:10.995Z</time></trkpt><trkpt lat="44.161785" lon="11.6547283"><ele>641.0</ele><time>2026-04-18T13:30:11.995Z</time></trkpt><trkpt lat="44.1617267" lon="11.6546383"><ele>641.0</ele><time>2026-04-18T13:30:12.995Z</time></trkpt><trkpt lat="44.1616617" lon="11.6545583"><ele>641.0</ele><time>2026-04-18T13:30:13.993Z</time></trkpt><trkpt lat="44.16159" lon="11.654485"><ele>641.0</ele><time>2026-04-18T13:30:14.995Z</time></trkpt><trkpt lat="44.1615267" lon="11.65441"><ele>641.0</ele><time>2026-04-18T13:30:15.993Z</time></trkpt><trkpt lat="44.16147" lon="11.6543317"><ele>641.0</ele><time>2026-04-18T13:30:16.995Z</time></trkpt><trkpt lat="44.161425" lon="11.6542367"><ele>641.0</ele><time>2026-04-18T13:30:17.993Z</time></trkpt><trkpt lat="44.161395" lon="11.6541267"><ele>643.3333333333333</ele><time>2026-04-18T13:30:18.994Z</time></trkpt><trkpt lat="44.1613583" lon="11.6540217"><ele>645.6666666666666</ele><time>2026-04-18T13:30:19.994Z</time></trkpt><trkpt lat="44.161315" lon="11.6539317"><ele>648.0</ele><time>2026-04-18T13:30:20.994Z</time></trkpt><trkpt lat="44.1612567" lon="11.65386"><ele>650.3333333333334</ele><time>2026-04-18T13:30:21.994Z</time></trkpt><trkpt lat="44.161185" lon="11.653795"><ele>652.6666666666667</ele><time>2026-04-18T13:30:22.994Z</time></trkpt><trkpt lat="44.1611183" lon="11.653735"><ele>655.0</ele><time>2026-04-18T13:30:23.994Z</time></trkpt><trkpt lat="44.1610467" lon="11.6536883"><ele>655.0</ele><time>2026-04-18T13:30:24.995Z</time></trkpt><trkpt lat="44.160975" lon="11.6536533"><ele>655.0</ele><time>2026-04-18T13:30:25.993Z</time></trkpt><trkpt lat="44.1609083" lon="11.6536117"><ele>655.0</ele><time>2026-04-18T13:30:26.994Z</time></trkpt><trkpt lat="44.160855" lon="11.6535617"><ele>655.0</ele><time>2026-04-18T13:30:27.994Z</time></trkpt><trkpt lat="44.1607983" lon="11.6534333"><ele>655.0</ele><time>2026-04-18T13:30:29.993Z</time></trkpt><trkpt lat="44.1607333" lon="11.653275"><ele>655.6</ele><time>2026-04-18T13:30:31.993Z</time></trkpt><trkpt lat="44.1607" lon="11.6531733"><ele>656.2</ele><time>2026-04-18T13:30:32.994Z</time></trkpt><trkpt lat="44.1606667" lon="11.6530567"><ele>656.8</ele><time>2026-04-18T13:30:33.993Z</time></trkpt><trkpt lat="44.1606367" lon="11.6529333"><ele>657.4</ele><time>2026-04-18T13:30:34.994Z</time></trkpt><trkpt lat="44.1606083" lon="11.6528033"><ele>658.0</ele><time>2026-04-18T13:30:35.994Z</time></trkpt><trkpt lat="44.160575" lon="11.65267"><ele>654.8</ele><time>2026-04-18T13:30:36.995Z</time></trkpt><trkpt lat="44.16054" lon="11.6525333"><ele>651.5999999999999</ele><time>2026-04-18T13:30:37.994Z</time></trkpt><trkpt lat="44.1605083" lon="11.6523967"><ele>648.4000000000001</ele><time>2026-04-18T13:30:38.994Z</time></trkpt><trkpt lat="44.160475" lon="11.6522717"><ele>645.2</ele><time>2026-04-18T13:30:39.993Z</time></trkpt><trkpt lat="44.160435" lon="11.6521533"><ele>642.0</ele><time>2026-04-18T13:30:40.993Z</time></trkpt><trkpt lat="44.1603883" lon="11.65203"><ele>640.2</ele><time>2026-04-18T13:30:41.994Z</time></trkpt><trkpt lat="44.1603417" lon="11.651905"><ele>638.4000000000001</ele><time>2026-04-18T13:30:42.995Z</time></trkpt><trkpt lat="44.1602967" lon="11.65178"><ele>636.5999999999999</ele><time>2026-04-18T13:30:43.994Z</time></trkpt><trkpt lat="44.1602567" lon="11.65165"><ele>634.8</ele><time>2026-04-18T13:30:44.994Z</time></trkpt><trkpt lat="44.1602183" lon="11.6515167"><ele>633.0</ele><time>2026-04-18T13:30:45.994Z</time></trkpt><trkpt lat="44.1601883" lon="11.65137"><ele>633.0</ele><time>2026-04-18T13:30:46.993Z</time></trkpt><trkpt lat="44.1601617" lon="11.6512233"><ele>633.0</ele><time>2026-04-18T13:30:47.994Z</time></trkpt><trkpt lat="44.1601333" lon="11.6510883"><ele>633.0</ele><time>2026-04-18T13:30:48.994Z</time></trkpt><trkpt lat="44.1601" lon="11.6509583"><ele>633.0</ele><time>2026-04-18T13:30:49.993Z</time></trkpt><trkpt lat="44.1600583" lon="11.650825"><ele>633.0</ele><time>2026-04-18T13:30:50.993Z</time></trkpt><trkpt lat="44.1600167" lon="11.650695"><ele>630.0</ele><time>2026-04-18T13:30:51.994Z</time></trkpt><trkpt lat="44.1599733" lon="11.6505617"><ele>627.0</ele><time>2026-04-18T13:30:52.993Z</time></trkpt><trkpt lat="44.1599233" lon="11.6504267"><ele>624.0</ele><time>2026-04-18T13:30:53.994Z</time></trkpt><trkpt lat="44.1598783" lon="11.6502833"><ele>621.0</ele><time>2026-04-18T13:30:54.996Z</time></trkpt><trkpt lat="44.1598333" lon="11.650135"><ele>618.0</ele><time>2026-04-18T13:30:55.993Z</time></trkpt><trkpt lat="44.1597883" lon="11.6499783"><ele>615.6</ele><time>2026-04-18T13:30:56.994Z</time></trkpt><trkpt lat="44.1597433" lon="11.6498233"><ele>613.1999999999999</ele><time>2026-04-18T13:30:57.994Z</time></trkpt><trkpt lat="44.1597067" lon="11.6496733"><ele>610.8</ele><time>2026-04-18T13:30:58.994Z</time></trkpt><trkpt lat="44.1596783" lon="11.6495333"><ele>608.4</ele><time>2026-04-18T13:30:59.994Z</time></trkpt><trkpt lat="44.15966" lon="11.6494017"><ele>606.0</ele><time>2026-04-18T13:31:00.995Z</time></trkpt><trkpt lat="44.1596617" lon="11.6492933"><ele>606.0</ele><time>2026-04-18T13:31:01.995Z</time></trkpt><trkpt lat="44.1596733" lon="11.6491917"><ele>606.0</ele><time>2026-04-18T13:31:02.996Z</time></trkpt><trkpt lat="44.159705" lon="11.649115"><ele>606.0</ele><time>2026-04-18T13:31:03.995Z</time></trkpt><trkpt lat="44.1597633" lon="11.64906"><ele>606.0</ele><time>2026-04-18T13:31:04.994Z</time></trkpt><trkpt lat="44.1598267" lon="11.6490167"><ele>606.0</ele><time>2026-04-18T13:31:05.993Z</time></trkpt><trkpt lat="44.1599167" lon="11.6489333"><ele>606.0</ele><time>2026-04-18T13:31:07.994Z</time></trkpt><trkpt lat="44.15993" lon="11.6488383"><ele>606.0</ele><time>2026-04-18T13:31:09.994Z</time></trkpt><trkpt lat="44.1598033" lon="11.64886"><ele>606.0</ele><time>2026-04-18T13:31:12.994Z</time></trkpt><trkpt lat="44.1597317" lon="11.6488683"><ele>606.0</ele><time>2026-04-18T13:31:13.994Z</time></trkpt><trkpt lat="44.15965" lon="11.6488533"><ele>606.0</ele><time>2026-04-18T13:31:14.996Z</time></trkpt><trkpt lat="44.1595833" lon="11.648815"><ele>606.0</ele><time>2026-04-18T13:31:15.994Z</time></trkpt><trkpt lat="44.1595233" lon="11.64876"><ele>606.0</ele><time>2026-04-18T13:31:16.995Z</time></trkpt><trkpt lat="44.1594583" lon="11.648635"><ele>609.4</ele><time>2026-04-18T13:31:18.994Z</time></trkpt><trkpt lat="44.1594583" lon="11.6484233"><ele>612.8</ele><time>2026-04-18T13:31:20.996Z</time></trkpt><trkpt lat="44.159475" lon="11.6483133"><ele>616.1999999999999</ele><time>2026-04-18T13:31:21.995Z</time></trkpt><trkpt lat="44.1594917" lon="11.6482117"><ele>619.6</ele><time>2026-04-18T13:31:22.994Z</time></trkpt><trkpt lat="44.1595083" lon="11.64811"><ele>623.0</ele><time>2026-04-18T13:31:23.995Z</time></trkpt><trkpt lat="44.1595283" lon="11.647985"><ele>623.0</ele><time>2026-04-18T13:31:24.996Z</time></trkpt><trkpt lat="44.1595417" lon="11.6478717"><ele>623.0</ele><time>2026-04-18T13:31:25.994Z</time></trkpt><trkpt lat="44.159555" lon="11.6477633"><ele>623.0</ele><time>2026-04-18T13:31:26.995Z</time></trkpt><trkpt lat="44.1595583" lon="11.6476567"><ele>623.0</ele><time>2026-04-18T13:31:27.995Z</time></trkpt><trkpt lat="44.1595517" lon="11.6475633"><ele>623.0</ele><time>2026-04-18T13:31:28.996Z</time></trkpt><trkpt lat="44.1595267" lon="11.6474717"><ele>623.0</ele><time>2026-04-18T13:31:29.994Z</time></trkpt><trkpt lat="44.159495" lon="11.647385"><ele>623.0</ele><time>2026-04-18T13:31:30.996Z</time></trkpt><trkpt lat="44.159435" lon="11.647295"><ele>627.5</ele><time>2026-04-18T13:31:31.994Z</time></trkpt><trkpt lat="44.15937" lon="11.647215"><ele>632.0</ele><time>2026-04-18T13:31:32.996Z</time></trkpt><trkpt lat="44.159308" lon="11.6471448"><ele>636.5</ele><time>2026-04-18T13:31:33.994Z</time></trkpt><trkpt lat="44.159247" lon="11.647069"><ele>641.0</ele><time>2026-04-18T13:31:34.993Z</time></trkpt><trkpt lat="44.1591889" lon="11.6469861"><ele>645.5</ele><time>2026-04-18T13:31:35.994Z</time></trkpt><trkpt lat="44.1591395" lon="11.6468949"><ele>650.0</ele><time>2026-04-18T13:31:36.996Z</time></trkpt><trkpt lat="44.1590977" lon="11.6467981"><ele>652.2857142857142</ele><time>2026-04-18T13:31:37.997Z</time></trkpt><trkpt lat="44.1590681" lon="11.6466962"><ele>654.5714285714287</ele><time>2026-04-18T13:31:38.994Z</time></trkpt><trkpt lat="44.159057" lon="11.6465908"><ele>656.8571428571429</ele><time>2026-04-18T13:31:39.994Z</time></trkpt><trkpt lat="44.1590533" lon="11.6464869"><ele>659.1428571428571</ele><time>2026-04-18T13:31:40.995Z</time></trkpt><trkpt lat="44.1590482" lon="11.6463802"><ele>661.4285714285713</ele><time>2026-04-18T13:31:41.994Z</time></trkpt><trkpt lat="44.1590477" lon="11.6462787"><ele>663.7142857142858</ele><time>2026-04-18T13:31:42.996Z</time></trkpt><trkpt lat="44.1590503" lon="11.6461833"><ele>666.0</ele><time>2026-04-18T13:31:43.997Z</time></trkpt><trkpt lat="44.1590711" lon="11.6460272"><ele>666.0</ele><time>2026-04-18T13:31:45.994Z</time></trkpt><trkpt lat="44.1591319" lon="11.6459115"><ele>666.0</ele><time>2026-04-18T13:31:47.997Z</time></trkpt><trkpt lat="44.1592512" lon="11.645866"><ele>666.0</ele><time>2026-04-18T13:31:49.993Z</time></trkpt><trkpt lat="44.1593319" lon="11.6458635"><ele>666.0</ele><time>2026-04-18T13:31:50.994Z</time></trkpt><trkpt lat="44.1594158" lon="11.6458708"><ele>666.0</ele><time>2026-04-18T13:31:51.994Z</time></trkpt><trkpt lat="44.1594945" lon="11.6458735"><ele>666.0</ele><time>2026-04-18T13:31:52.993Z</time></trkpt><trkpt lat="44.1595695" lon="11.6458743"><ele>666.0</ele><time>2026-04-18T13:31:53.993Z</time></trkpt><trkpt lat="44.1596423" lon="11.645868"><ele>666.0</ele><time>2026-04-18T13:31:54.994Z</time></trkpt><trkpt lat="44.1597218" lon="11.6458571"><ele>666.0</ele><time>2026-04-18T13:31:55.995Z</time></trkpt><trkpt lat="44.1598" lon="11.6458404"><ele>666.0</ele><time>2026-04-18T13:31:56.994Z</time></trkpt><trkpt lat="44.1598774" lon="11.6458195"><ele>666.0</ele><time>2026-04-18T13:31:57.993Z</time></trkpt><trkpt lat="44.159953" lon="11.6457971"><ele>670.3333333333334</ele><time>2026-04-18T13:31:58.994Z</time></trkpt><trkpt lat="44.1600292" lon="11.6457657"><ele>674.6666666666666</ele><time>2026-04-18T13:31:59.993Z</time></trkpt><trkpt lat="44.1601023" lon="11.6457254"><ele>679.0</ele><time>2026-04-18T13:32:00.995Z</time></trkpt><trkpt lat="44.1601795" lon="11.6456771"><ele>683.3333333333333</ele><time>2026-04-18T13:32:01.993Z</time></trkpt><trkpt lat="44.1602592" lon="11.6456171"><ele>687.6666666666666</ele><time>2026-04-18T13:32:02.994Z</time></trkpt><trkpt lat="44.1603327" lon="11.6455394"><ele>692.0</ele><time>2026-04-18T13:32:03.994Z</time></trkpt><trkpt lat="44.1603997" lon="11.6454467"><ele>692.0</ele><time>2026-04-18T13:32:04.994Z</time></trkpt><trkpt lat="44.1604627" lon="11.6453424"><ele>692.0</ele><time>2026-04-18T13:32:05.994Z</time></trkpt><trkpt lat="44.1605119" lon="11.6452286"><ele>692.0</ele><time>2026-04-18T13:32:06.995Z</time></trkpt><trkpt lat="44.1605567" lon="11.6451091"><ele>692.0</ele><time>2026-04-18T13:32:07.994Z</time></trkpt><trkpt lat="44.1605995" lon="11.6449848"><ele>692.0</ele><time>2026-04-18T13:32:08.996Z</time></trkpt><trkpt lat="44.1606456" lon="11.6448631"><ele>693.4000000000001</ele><time>2026-04-18T13:32:09.996Z</time></trkpt><trkpt lat="44.1606833" lon="11.6447404"><ele>694.8000000000001</ele><time>2026-04-18T13:32:10.994Z</time></trkpt><trkpt lat="44.1607141" lon="11.644618"><ele>696.2</ele><time>2026-04-18T13:32:11.993Z</time></trkpt><trkpt lat="44.1607384" lon="11.6444928"><ele>697.6</ele><time>2026-04-18T13:32:12.995Z</time></trkpt><trkpt lat="44.1607484" lon="11.6443621"><ele>699.0</ele><time>2026-04-18T13:32:13.994Z</time></trkpt><trkpt lat="44.1607475" lon="11.6442448"><ele>699.0</ele><time>2026-04-18T13:32:14.993Z</time></trkpt><trkpt lat="44.1607469" lon="11.6441316"><ele>699.0</ele><time>2026-04-18T13:32:15.993Z</time></trkpt><trkpt lat="44.1607454" lon="11.6440181"><ele>699.0</ele><time>2026-04-18T13:32:16.993Z</time></trkpt><trkpt lat="44.1607379" lon="11.6439177"><ele>699.0</ele><time>2026-04-18T13:32:17.994Z</time></trkpt><trkpt lat="44.1607154" lon="11.6438233"><ele>699.0</ele><time>2026-04-18T13:32:18.993Z</time></trkpt><trkpt lat="44.1606856" lon="11.6437372"><ele>699.0</ele><time>2026-04-18T13:32:19.994Z</time></trkpt><trkpt lat="44.1606117" lon="11.6436033"><ele>697.5714285714286</ele><time>2026-04-18T13:32:21.993Z</time></trkpt><trkpt lat="44.1605683" lon="11.643535"><ele>696.1428571428572</ele><time>2026-04-18T13:32:22.994Z</time></trkpt><trkpt lat="44.1605133" lon="11.6434667"><ele>694.7142857142858</ele><time>2026-04-18T13:32:23.995Z</time></trkpt><trkpt lat="44.1604533" lon="11.643405"><ele>693.2857142857142</ele><time>2026-04-18T13:32:24.995Z</time></trkpt><trkpt lat="44.1603933" lon="11.643345"><ele>691.8571428571429</ele><time>2026-04-18T13:32:25.994Z</time></trkpt><trkpt lat="44.16034" lon="11.643285"><ele>690.4285714285714</ele><time>2026-04-18T13:32:26.993Z</time></trkpt><trkpt lat="44.1602883" lon="11.64321"><ele>689.0</ele><time>2026-04-18T13:32:27.994Z</time></trkpt><trkpt lat="44.16023" lon="11.6431217"><ele>689.0</ele><time>2026-04-18T13:32:28.995Z</time></trkpt><trkpt lat="44.1601683" lon="11.6430317"><ele>689.0</ele><time>2026-04-18T13:32:29.997Z</time></trkpt><trkpt lat="44.1601017" lon="11.6429533"><ele>689.0</ele><time>2026-04-18T13:32:30.995Z</time></trkpt><trkpt lat="44.1600333" lon="11.64288"><ele>689.0</ele><time>2026-04-18T13:32:31.993Z</time></trkpt><trkpt lat="44.1599633" lon="11.6428083"><ele>689.0</ele><time>2026-04-18T13:32:32.996Z</time></trkpt><trkpt lat="44.1598883" lon="11.6427217"><ele>689.0</ele><time>2026-04-18T13:32:33.993Z</time></trkpt><trkpt lat="44.1598167" lon="11.642625"><ele>688.4000000000001</ele><time>2026-04-18T13:32:34.993Z</time></trkpt><trkpt lat="44.15975" lon="11.6425167"><ele>687.8</ele><time>2026-04-18T13:32:35.994Z</time></trkpt><trkpt lat="44.1596883" lon="11.64242"><ele>687.2</ele><time>2026-04-18T13:32:36.993Z</time></trkpt><trkpt lat="44.1596283" lon="11.64233"><ele>686.5999999999999</ele><time>2026-04-18T13:32:37.993Z</time></trkpt><trkpt lat="44.159575" lon="11.64223"><ele>686.0</ele><time>2026-04-18T13:32:38.994Z</time></trkpt><trkpt lat="44.15952" lon="11.6421333"><ele>686.0</ele><time>2026-04-18T13:32:39.994Z</time></trkpt><trkpt lat="44.1594533" lon="11.6420533"><ele>686.0</ele><time>2026-04-18T13:32:40.994Z</time></trkpt><trkpt lat="44.15937" lon="11.641995"><ele>686.0</ele><time>2026-04-18T13:32:41.996Z</time></trkpt><trkpt lat="44.1592817" lon="11.6419667"><ele>686.0</ele><time>2026-04-18T13:32:42.997Z</time></trkpt><trkpt lat="44.15919" lon="11.6419483"><ele>686.0</ele><time>2026-04-18T13:32:43.994Z</time></trkpt><trkpt lat="44.1590967" lon="11.6419483"><ele>688.3333333333333</ele><time>2026-04-18T13:32:44.994Z</time></trkpt><trkpt lat="44.1590017" lon="11.6419483"><ele>690.6666666666666</ele><time>2026-04-18T13:32:45.993Z</time></trkpt><trkpt lat="44.1589083" lon="11.6419483"><ele>693.0</ele><time>2026-04-18T13:32:46.995Z</time></trkpt><trkpt lat="44.1588233" lon="11.6419433"><ele>695.3333333333334</ele><time>2026-04-18T13:32:47.993Z</time></trkpt><trkpt lat="44.1587483" lon="11.641925"><ele>697.6666666666667</ele><time>2026-04-18T13:32:48.993Z</time></trkpt><trkpt lat="44.158675" lon="11.64188"><ele>700.0</ele><time>2026-04-18T13:32:49.993Z</time></trkpt><trkpt lat="44.15861" lon="11.6418183"><ele>700.0</ele><time>2026-04-18T13:32:50.994Z</time></trkpt><trkpt lat="44.1585583" lon="11.6417383"><ele>700.0</ele><time>2026-04-18T13:32:51.993Z</time></trkpt><trkpt lat="44.158505" lon="11.6416533"><ele>700.0</ele><time>2026-04-18T13:32:52.994Z</time></trkpt><trkpt lat="44.15845" lon="11.6415567"><ele>700.0</ele><time>2026-04-18T13:32:53.994Z</time></trkpt><trkpt lat="44.1583867" lon="11.6414533"><ele>700.0</ele><time>2026-04-18T13:32:54.994Z</time></trkpt><trkpt lat="44.1583167" lon="11.64137"><ele>700.0</ele><time>2026-04-18T13:32:55.993Z</time></trkpt><trkpt lat="44.1582333" lon="11.6413133"><ele>699.8</ele><time>2026-04-18T13:32:56.993Z</time></trkpt><trkpt lat="44.1581417" lon="11.6412783"><ele>699.6</ele><time>2026-04-18T13:32:58.068Z</time></trkpt><trkpt lat="44.1580483" lon="11.64127"><ele>699.4000000000001</ele><time>2026-04-18T13:32:58.996Z</time></trkpt><trkpt lat="44.157955" lon="11.6412617"><ele>699.2</ele><time>2026-04-18T13:32:59.995Z</time></trkpt><trkpt lat="44.1578617" lon="11.6412367"><ele>699.0</ele><time>2026-04-18T13:33:01.068Z</time></trkpt><trkpt lat="44.1577767" lon="11.641205"><ele>699.0</ele><time>2026-04-18T13:33:01.995Z</time></trkpt><trkpt lat="44.1576833" lon="11.6411683"><ele>699.0</ele><time>2026-04-18T13:33:02.995Z</time></trkpt><trkpt lat="44.1575867" lon="11.6411317"><ele>699.0</ele><time>2026-04-18T13:33:04.067Z</time></trkpt><trkpt lat="44.1574967" lon="11.6410917"><ele>699.0</ele><time>2026-04-18T13:33:04.994Z</time></trkpt><trkpt lat="44.157405" lon="11.6410517"><ele>699.0</ele><time>2026-04-18T13:33:05.996Z</time></trkpt><trkpt lat="44.1573133" lon="11.6410383"><ele>700.0</ele><time>2026-04-18T13:33:07.067Z</time></trkpt><trkpt lat="44.1572217" lon="11.6410567"><ele>701.0</ele><time>2026-04-18T13:33:07.995Z</time></trkpt><trkpt lat="44.157125" lon="11.6410883"><ele>702.0</ele><time>2026-04-18T13:33:08.996Z</time></trkpt><trkpt lat="44.15702" lon="11.6411217"><ele>703.0</ele><time>2026-04-18T13:33:10.067Z</time></trkpt><trkpt lat="44.1569167" lon="11.6411483"><ele>704.0</ele><time>2026-04-18T13:33:10.996Z</time></trkpt><trkpt lat="44.1568167" lon="11.64117"><ele>704.0</ele><time>2026-04-18T13:33:11.996Z</time></trkpt><trkpt lat="44.1567217" lon="11.641195"><ele>704.0</ele><time>2026-04-18T13:33:13.068Z</time></trkpt><trkpt lat="44.156625" lon="11.641235"><ele>704.0</ele><time>2026-04-18T13:33:13.994Z</time></trkpt><trkpt lat="44.156535" lon="11.6412883"><ele>704.0</ele><time>2026-04-18T13:33:14.994Z</time></trkpt><trkpt lat="44.156445" lon="11.64135"><ele>704.0</ele><time>2026-04-18T13:33:16.068Z</time></trkpt><trkpt lat="44.1563583" lon="11.6414183"><ele>703.8000000000001</ele><time>2026-04-18T13:33:16.993Z</time></trkpt><trkpt lat="44.1562717" lon="11.641495"><ele>703.6</ele><time>2026-04-18T13:33:17.994Z</time></trkpt><trkpt lat="44.156185" lon="11.6415733"><ele>703.4</ele><time>2026-04-18T13:33:19.068Z</time></trkpt><trkpt lat="44.1560983" lon="11.641655"><ele>703.2</ele><time>2026-04-18T13:33:19.993Z</time></trkpt><trkpt lat="44.1560133" lon="11.6417367"><ele>703.0</ele><time>2026-04-18T13:33:20.994Z</time></trkpt><trkpt lat="44.15594" lon="11.64182"><ele>703.0</ele><time>2026-04-18T13:33:21.993Z</time></trkpt><trkpt lat="44.15587" lon="11.6418983"><ele>703.0</ele><time>2026-04-18T13:33:22.995Z</time></trkpt><trkpt lat="44.1557983" lon="11.6419633"><ele>703.0</ele><time>2026-04-18T13:33:23.994Z</time></trkpt><trkpt lat="44.1557217" lon="11.6420067"><ele>703.0</ele><time>2026-04-18T13:33:24.993Z</time></trkpt><trkpt lat="44.1556383" lon="11.6420267"><ele>703.0</ele><time>2026-04-18T13:33:25.993Z</time></trkpt><trkpt lat="44.1555567" lon="11.6420433"><ele>703.0</ele><time>2026-04-18T13:33:26.999Z</time></trkpt><trkpt lat="44.1554783" lon="11.64207"><ele>698.8333333333334</ele><time>2026-04-18T13:33:27.995Z</time></trkpt><trkpt lat="44.1554033" lon="11.64212"><ele>694.6666666666667</ele><time>2026-04-18T13:33:28.996Z</time></trkpt><trkpt lat="44.1553317" lon="11.6421917"><ele>690.5</ele><time>2026-04-18T13:33:29.996Z</time></trkpt><trkpt lat="44.155265" lon="11.64227"><ele>686.3333333333334</ele><time>2026-04-18T13:33:30.993Z</time></trkpt><trkpt lat="44.1552067" lon="11.64234"><ele>682.1666666666666</ele><time>2026-04-18T13:33:31.994Z</time></trkpt><trkpt lat="44.1551517" lon="11.6423933"><ele>678.0</ele><time>2026-04-18T13:33:32.993Z</time></trkpt><trkpt lat="44.15506" lon="11.642425"><ele>678.0</ele><time>2026-04-18T13:33:34.993Z</time></trkpt><trkpt lat="44.155" lon="11.6423567"><ele>678.0</ele><time>2026-04-18T13:33:36.993Z</time></trkpt><trkpt lat="44.155" lon="11.64224"><ele>678.0</ele><time>2026-04-18T13:33:38.995Z</time></trkpt><trkpt lat="44.1550267" lon="11.6421567"><ele>678.0</ele><time>2026-04-18T13:33:39.994Z</time></trkpt><trkpt lat="44.1550917" lon="11.6420533"><ele>678.0</ele><time>2026-04-18T13:33:40.994Z</time></trkpt><trkpt lat="44.155135" lon="11.6419617"><ele>678.0</ele><time>2026-04-18T13:33:41.993Z</time></trkpt><trkpt lat="44.1551717" lon="11.641885"><ele>676.0</ele><time>2026-04-18T13:33:42.994Z</time></trkpt><trkpt lat="44.1552" lon="11.6417533"><ele>674.0</ele><time>2026-04-18T13:33:44.994Z</time></trkpt><trkpt lat="44.1550983" lon="11.6417783"><ele>672.0</ele><time>2026-04-18T13:33:47.993Z</time></trkpt><trkpt lat="44.1550183" lon="11.641835"><ele>670.0</ele><time>2026-04-18T13:33:48.994Z</time></trkpt><trkpt lat="44.154925" lon="11.6418917"><ele>668.0</ele><time>2026-04-18T13:33:49.993Z</time></trkpt><trkpt lat="44.154835" lon="11.6419433"><ele>663.4</ele><time>2026-04-18T13:33:50.995Z</time></trkpt><trkpt lat="44.1547483" lon="11.6420067"><ele>658.8</ele><time>2026-04-18T13:33:51.993Z</time></trkpt><trkpt lat="44.1546717" lon="11.6420883"><ele>654.2</ele><time>2026-04-18T13:33:52.993Z</time></trkpt><trkpt lat="44.1546017" lon="11.6421883"><ele>649.6</ele><time>2026-04-18T13:33:53.993Z</time></trkpt><trkpt lat="44.1545367" lon="11.6423033"><ele>645.0</ele><time>2026-04-18T13:33:54.995Z</time></trkpt><trkpt lat="44.154465" lon="11.6424133"><ele>645.0</ele><time>2026-04-18T13:33:55.994Z</time></trkpt><trkpt lat="44.1543917" lon="11.6425183"><ele>645.0</ele><time>2026-04-18T13:33:56.995Z</time></trkpt><trkpt lat="44.1543117" lon="11.6426117"><ele>645.0</ele><time>2026-04-18T13:33:57.996Z</time></trkpt><trkpt lat="44.1542333" lon="11.6427083"><ele>645.0</ele><time>2026-04-18T13:33:58.994Z</time></trkpt><trkpt lat="44.15417" lon="11.6428083"><ele>645.0</ele><time>2026-04-18T13:33:59.995Z</time></trkpt><trkpt lat="44.1541183" lon="11.642905"><ele>644.1666666666666</ele><time>2026-04-18T13:34:00.995Z</time></trkpt><trkpt lat="44.1540817" lon="11.643"><ele>643.3333333333334</ele><time>2026-04-18T13:34:01.993Z</time></trkpt><trkpt lat="44.154055" lon="11.6430833"><ele>642.5</ele><time>2026-04-18T13:34:02.994Z</time></trkpt><trkpt lat="44.1539983" lon="11.64319"><ele>641.6666666666667</ele><time>2026-04-18T13:34:04.994Z</time></trkpt><trkpt lat="44.1539317" lon="11.6431917"><ele>640.8333333333334</ele><time>2026-04-18T13:34:06.996Z</time></trkpt><trkpt lat="44.1539467" lon="11.64305"><ele>640.0</ele><time>2026-04-18T13:34:08.995Z</time></trkpt><trkpt lat="44.1539883" lon="11.6429383"><ele>641.0</ele><time>2026-04-18T13:34:09.996Z</time></trkpt><trkpt lat="44.1540383" lon="11.642825"><ele>642.0</ele><time>2026-04-18T13:34:10.995Z</time></trkpt><trkpt lat="44.1540867" lon="11.6427033"><ele>643.0</ele><time>2026-04-18T13:34:11.994Z</time></trkpt><trkpt lat="44.154135" lon="11.6425683"><ele>644.0</ele><time>2026-04-18T13:34:12.996Z</time></trkpt><trkpt lat="44.1541733" lon="11.6424333"><ele>645.0</ele><time>2026-04-18T13:34:13.994Z</time></trkpt><trkpt lat="44.1542017" lon="11.6422967"><ele>645.0</ele><time>2026-04-18T13:34:14.996Z</time></trkpt><trkpt lat="44.1542267" lon="11.642155"><ele>645.0</ele><time>2026-04-18T13:34:15.994Z</time></trkpt><trkpt lat="44.1542567" lon="11.6420117"><ele>645.0</ele><time>2026-04-18T13:34:16.994Z</time></trkpt><trkpt lat="44.154285" lon="11.6418667"><ele>645.0</ele><time>2026-04-18T13:34:17.993Z</time></trkpt><trkpt lat="44.15431" lon="11.64174"><ele>645.0</ele><time>2026-04-18T13:34:18.995Z</time></trkpt><trkpt lat="44.154335" lon="11.6416267"><ele>644.3333333333334</ele><time>2026-04-18T13:34:19.993Z</time></trkpt><trkpt lat="44.1543683" lon="11.6415233"><ele>643.6666666666666</ele><time>2026-04-18T13:34:20.995Z</time></trkpt><trkpt lat="44.15442" lon="11.64143"><ele>643.0</ele><time>2026-04-18T13:34:21.994Z</time></trkpt><trkpt lat="44.1544717" lon="11.6413333"><ele>642.3333333333333</ele><time>2026-04-18T13:34:22.994Z</time></trkpt><trkpt lat="44.1545083" lon="11.6412383"><ele>641.6666666666666</ele><time>2026-04-18T13:34:23.993Z</time></trkpt><trkpt lat="44.1545367" lon="11.641085"><ele>641.0</ele><time>2026-04-18T13:34:25.993Z</time></trkpt><trkpt lat="44.1544517" lon="11.6410083"><ele>641.0</ele><time>2026-04-18T13:34:27.993Z</time></trkpt><trkpt lat="44.1543867" lon="11.64097"><ele>641.0</ele><time>2026-04-18T13:34:28.994Z</time></trkpt><trkpt lat="44.1542933" lon="11.640955"><ele>641.0</ele><time>2026-04-18T13:34:29.993Z</time></trkpt><trkpt lat="44.154185" lon="11.640975"><ele>641.0</ele><time>2026-04-18T13:34:30.993Z</time></trkpt><trkpt lat="44.154065" lon="11.6410083"><ele>641.0</ele><time>2026-04-18T13:34:31.993Z</time></trkpt><trkpt lat="44.1539533" lon="11.6410333"><ele>636.8</ele><time>2026-04-18T13:34:32.993Z</time></trkpt><trkpt lat="44.1538483" lon="11.6410383"><ele>632.5999999999999</ele><time>2026-04-18T13:34:33.993Z</time></trkpt><trkpt lat="44.1537433" lon="11.6410267"><ele>628.4</ele><time>2026-04-18T13:34:34.994Z</time></trkpt><trkpt lat="44.15364" lon="11.6410133"><ele>624.2</ele><time>2026-04-18T13:34:35.993Z</time></trkpt><trkpt lat="44.153545" lon="11.6410017"><ele>620.0</ele><time>2026-04-18T13:34:36.993Z</time></trkpt><trkpt lat="44.153455" lon="11.64099"><ele>620.0</ele><time>2026-04-18T13:34:37.994Z</time></trkpt><trkpt lat="44.1533733" lon="11.64097"><ele>620.0</ele><time>2026-04-18T13:34:38.994Z</time></trkpt><trkpt lat="44.1533017" lon="11.6409283"><ele>620.0</ele><time>2026-04-18T13:34:39.995Z</time></trkpt><trkpt lat="44.1532333" lon="11.640875"><ele>620.0</ele><time>2026-04-18T13:34:40.993Z</time></trkpt><trkpt lat="44.153165" lon="11.6408383"><ele>620.0</ele><time>2026-04-18T13:34:41.994Z</time></trkpt><trkpt lat="44.1531017" lon="11.6408283"><ele>620.0</ele><time>2026-04-18T13:34:42.993Z</time></trkpt><trkpt lat="44.1530283" lon="11.6408533"><ele>616.8333333333333</ele><time>2026-04-18T13:34:43.994Z</time></trkpt><trkpt lat="44.1529433" lon="11.64092"><ele>613.6666666666666</ele><time>2026-04-18T13:34:44.994Z</time></trkpt><trkpt lat="44.1528533" lon="11.6409833"><ele>610.5</ele><time>2026-04-18T13:34:45.993Z</time></trkpt><trkpt lat="44.1527717" lon="11.6410383"><ele>607.3333333333334</ele><time>2026-04-18T13:34:46.994Z</time></trkpt><trkpt lat="44.1526983" lon="11.641085"><ele>604.1666666666667</ele><time>2026-04-18T13:34:47.993Z</time></trkpt><trkpt lat="44.15263" lon="11.6411117"><ele>601.0</ele><time>2026-04-18T13:34:48.994Z</time></trkpt><trkpt lat="44.15253" lon="11.6410733"><ele>601.0</ele><time>2026-04-18T13:34:50.995Z</time></trkpt><trkpt lat="44.15247" lon="11.6409333"><ele>601.0</ele><time>2026-04-18T13:34:52.993Z</time></trkpt><trkpt lat="44.152445" lon="11.640795"><ele>601.0</ele><time>2026-04-18T13:34:53.993Z</time></trkpt><trkpt lat="44.15242" lon="11.64067"><ele>601.0</ele><time>2026-04-18T13:34:54.994Z</time></trkpt><trkpt lat="44.152395" lon="11.6405633"><ele>601.0</ele><time>2026-04-18T13:34:55.994Z</time></trkpt><trkpt lat="44.152305" lon="11.6404883"><ele>603.8</ele><time>2026-04-18T13:34:57.993Z</time></trkpt><trkpt lat="44.1522033" lon="11.6406067"><ele>606.6</ele><time>2026-04-18T13:34:59.994Z</time></trkpt><trkpt lat="44.1521417" lon="11.640695"><ele>609.4</ele><time>2026-04-18T13:35:00.993Z</time></trkpt><trkpt lat="44.1520717" lon="11.6407983"><ele>612.2</ele><time>2026-04-18T13:35:01.994Z</time></trkpt><trkpt lat="44.152" lon="11.6409"><ele>615.0</ele><time>2026-04-18T13:35:02.999Z</time></trkpt><trkpt lat="44.151925" lon="11.6409933"><ele>615.0</ele><time>2026-04-18T13:35:03.994Z</time></trkpt><trkpt lat="44.1518433" lon="11.64108"><ele>615.0</ele><time>2026-04-18T13:35:04.994Z</time></trkpt><trkpt lat="44.1517583" lon="11.6411483"><ele>615.0</ele><time>2026-04-18T13:35:05.993Z</time></trkpt><trkpt lat="44.15167" lon="11.64121"><ele>615.0</ele><time>2026-04-18T13:35:06.994Z</time></trkpt><trkpt lat="44.1515817" lon="11.6412833"><ele>615.0</ele><time>2026-04-18T13:35:07.993Z</time></trkpt><trkpt lat="44.151495" lon="11.6413583"><ele>608.0</ele><time>2026-04-18T13:35:08.994Z</time></trkpt><trkpt lat="44.1514167" lon="11.641415"><ele>601.0</ele><time>2026-04-18T13:35:09.994Z</time></trkpt><trkpt lat="44.1513467" lon="11.64146"><ele>594.0</ele><time>2026-04-18T13:35:10.993Z</time></trkpt><trkpt lat="44.151285" lon="11.6414883"><ele>587.0</ele><time>2026-04-18T13:35:11.994Z</time></trkpt><trkpt lat="44.15117" lon="11.641445"><ele>580.0</ele><time>2026-04-18T13:35:13.993Z</time></trkpt><trkpt lat="44.1511083" lon="11.6412633"><ele>580.0</ele><time>2026-04-18T13:35:15.993Z</time></trkpt><trkpt lat="44.15109" lon="11.6411617"><ele>580.0</ele><time>2026-04-18T13:35:16.993Z</time></trkpt><trkpt lat="44.15108" lon="11.6410517"><ele>580.0</ele><time>2026-04-18T13:35:17.993Z</time></trkpt><trkpt lat="44.151075" lon="11.6409133"><ele>580.0</ele><time>2026-04-18T13:35:18.993Z</time></trkpt><trkpt lat="44.1510767" lon="11.64074"><ele>580.0</ele><time>2026-04-18T13:35:19.994Z</time></trkpt><trkpt lat="44.1510767" lon="11.6405717"><ele>581.5</ele><time>2026-04-18T13:35:20.995Z</time></trkpt><trkpt lat="44.1510817" lon="11.6404117"><ele>583.0</ele><time>2026-04-18T13:35:21.997Z</time></trkpt><trkpt lat="44.1511017" lon="11.64025"><ele>584.5</ele><time>2026-04-18T13:35:22.996Z</time></trkpt><trkpt lat="44.1511317" lon="11.640085"><ele>586.0</ele><time>2026-04-18T13:35:23.993Z</time></trkpt><trkpt lat="44.151175" lon="11.639935"><ele>587.6</ele><time>2026-04-18T13:35:24.995Z</time></trkpt><trkpt lat="44.1512267" lon="11.6397933"><ele>589.2</ele><time>2026-04-18T13:35:25.994Z</time></trkpt><trkpt lat="44.151275" lon="11.6396483"><ele>590.8</ele><time>2026-04-18T13:35:26.994Z</time></trkpt><trkpt lat="44.1513217" lon="11.6395183"><ele>592.4</ele><time>2026-04-18T13:35:27.994Z</time></trkpt><trkpt lat="44.1513617" lon="11.6393983"><ele>594.0</ele><time>2026-04-18T13:35:28.993Z</time></trkpt><trkpt lat="44.1513833" lon="11.6392933"><ele>595.6</ele><time>2026-04-18T13:35:29.994Z</time></trkpt><trkpt lat="44.1513933" lon="11.639135"><ele>597.2</ele><time>2026-04-18T13:35:31.994Z</time></trkpt><trkpt lat="44.1513733" lon="11.639005"><ele>598.8000000000001</ele><time>2026-04-18T13:35:33.996Z</time></trkpt><trkpt lat="44.151325" lon="11.6388933"><ele>600.4</ele><time>2026-04-18T13:35:35.995Z</time></trkpt><trkpt lat="44.1512567" lon="11.638775"><ele>602.0</ele><time>2026-04-18T13:35:37.994Z</time></trkpt><trkpt lat="44.151195" lon="11.638645"><ele>605.8000000000001</ele><time>2026-04-18T13:35:39.993Z</time></trkpt><trkpt lat="44.151155" lon="11.6384917"><ele>609.6</ele><time>2026-04-18T13:35:41.994Z</time></trkpt><trkpt lat="44.1511217" lon="11.638335"><ele>613.4000000000001</ele><time>2026-04-18T13:35:43.993Z</time></trkpt><trkpt lat="44.1510667" lon="11.6381917"><ele>617.2</ele><time>2026-04-18T13:35:45.993Z</time></trkpt><trkpt lat="44.1510133" lon="11.6381283"><ele>621.0</ele><time>2026-04-18T13:35:46.993Z</time></trkpt><trkpt lat="44.1509467" lon="11.6380767"><ele>621.0</ele><time>2026-04-18T13:35:47.993Z</time></trkpt><trkpt lat="44.1508717" lon="11.6380217"><ele>621.0</ele><time>2026-04-18T13:35:48.993Z</time></trkpt><trkpt lat="44.1507867" lon="11.6379867"><ele>621.0</ele><time>2026-04-18T13:35:49.994Z</time></trkpt><trkpt lat="44.1507" lon="11.6379667"><ele>621.0</ele><time>2026-04-18T13:35:50.994Z</time></trkpt><trkpt lat="44.150605" lon="11.6379467"><ele>621.0</ele><time>2026-04-18T13:35:51.993Z</time></trkpt><trkpt lat="44.1505017" lon="11.637935"><ele>619.0</ele><time>2026-04-18T13:35:52.993Z</time></trkpt><trkpt lat="44.150395" lon="11.637925"><ele>617.0</ele><time>2026-04-18T13:35:53.994Z</time></trkpt><trkpt lat="44.150285" lon="11.637905"><ele>615.0</ele><time>2026-04-18T13:35:54.994Z</time></trkpt><trkpt lat="44.1501733" lon="11.6379033"><ele>613.0</ele><time>2026-04-18T13:35:55.994Z</time></trkpt><trkpt lat="44.1500717" lon="11.6378867"><ele>611.0</ele><time>2026-04-18T13:35:56.993Z</time></trkpt><trkpt lat="44.1499767" lon="11.6378533"><ele>616.6666666666666</ele><time>2026-04-18T13:35:57.992Z</time></trkpt><trkpt lat="44.1498833" lon="11.6377883"><ele>622.3333333333333</ele><time>2026-04-18T13:35:58.995Z</time></trkpt><trkpt lat="44.1498067" lon="11.6377233"><ele>628.0</ele><time>2026-04-18T13:35:59.994Z</time></trkpt><trkpt lat="44.1497383" lon="11.637645"><ele>633.6666666666666</ele><time>2026-04-18T13:36:00.993Z</time></trkpt><trkpt lat="44.1496717" lon="11.637585"><ele>639.3333333333334</ele><time>2026-04-18T13:36:01.993Z</time></trkpt><trkpt lat="44.1496067" lon="11.637575"><ele>645.0</ele><time>2026-04-18T13:36:02.994Z</time></trkpt><trkpt lat="44.14953" lon="11.6375983"><ele>646.0</ele><time>2026-04-18T13:36:03.993Z</time></trkpt><trkpt lat="44.1494667" lon="11.6376567"><ele>647.0</ele><time>2026-04-18T13:36:05.081Z</time></trkpt><trkpt lat="44.1494" lon="11.637735"><ele>648.0</ele><time>2026-04-18T13:36:05.993Z</time></trkpt><trkpt lat="44.1493467" lon="11.6378317"><ele>649.0</ele><time>2026-04-18T13:36:06.993Z</time></trkpt><trkpt lat="44.14929" lon="11.6379317"><ele>650.0</ele><time>2026-04-18T13:36:07.993Z</time></trkpt><trkpt lat="44.14925" lon="11.6380467"><ele>651.0</ele><time>2026-04-18T13:36:08.993Z</time></trkpt><trkpt lat="44.1492233" lon="11.6381783"><ele>650.5999999999999</ele><time>2026-04-18T13:36:09.993Z</time></trkpt><trkpt lat="44.149185" lon="11.6382967"><ele>650.2</ele><time>2026-04-18T13:36:10.994Z</time></trkpt><trkpt lat="44.1491383" lon="11.63841"><ele>649.8</ele><time>2026-04-18T13:36:11.993Z</time></trkpt><trkpt lat="44.149085" lon="11.63852"><ele>649.4000000000001</ele><time>2026-04-18T13:36:12.993Z</time></trkpt><trkpt lat="44.149025" lon="11.6386167"><ele>649.0</ele><time>2026-04-18T13:36:13.994Z</time></trkpt><trkpt lat="44.1489567" lon="11.6386967"><ele>648.3333333333334</ele><time>2026-04-18T13:36:14.993Z</time></trkpt><trkpt lat="44.1488783" lon="11.63875"><ele>647.6666666666667</ele><time>2026-04-18T13:36:15.994Z</time></trkpt><trkpt lat="44.1488033" lon="11.6388"><ele>647.0</ele><time>2026-04-18T13:36:16.994Z</time></trkpt><trkpt lat="44.1487383" lon="11.63887"><ele>646.3333333333334</ele><time>2026-04-18T13:36:17.993Z</time></trkpt><trkpt lat="44.1486767" lon="11.63896"><ele>645.6666666666666</ele><time>2026-04-18T13:36:18.993Z</time></trkpt><trkpt lat="44.148625" lon="11.6390683"><ele>645.0</ele><time>2026-04-18T13:36:19.994Z</time></trkpt><trkpt lat="44.148575" lon="11.6391833"><ele>645.0</ele><time>2026-04-18T13:36:20.993Z</time></trkpt><trkpt lat="44.14853" lon="11.639305"><ele>645.0</ele><time>2026-04-18T13:36:21.993Z</time></trkpt><trkpt lat="44.1484867" lon="11.63943"><ele>645.0</ele><time>2026-04-18T13:36:22.993Z</time></trkpt><trkpt lat="44.1484417" lon="11.63955"><ele>645.0</ele><time>2026-04-18T13:36:23.994Z</time></trkpt><trkpt lat="44.148385" lon="11.63966"><ele>645.0</ele><time>2026-04-18T13:36:24.995Z</time></trkpt><trkpt lat="44.1483217" lon="11.6397567"><ele>642.8</ele><time>2026-04-18T13:36:25.995Z</time></trkpt><trkpt lat="44.1482483" lon="11.6398417"><ele>640.6</ele><time>2026-04-18T13:36:26.994Z</time></trkpt><trkpt lat="44.148175" lon="11.639915"><ele>638.4</ele><time>2026-04-18T13:36:27.995Z</time></trkpt><trkpt lat="44.1480917" lon="11.63998"><ele>636.2</ele><time>2026-04-18T13:36:28.994Z</time></trkpt><trkpt lat="44.14801" lon="11.6400367"><ele>634.0</ele><time>2026-04-18T13:36:29.994Z</time></trkpt><trkpt lat="44.147925" lon="11.6400833"><ele>633.5714285714286</ele><time>2026-04-18T13:36:30.996Z</time></trkpt><trkpt lat="44.1478433" lon="11.640105"><ele>633.1428571428571</ele><time>2026-04-18T13:36:31.995Z</time></trkpt><trkpt lat="44.1477633" lon="11.6400983"><ele>632.7142857142858</ele><time>2026-04-18T13:36:32.994Z</time></trkpt><trkpt lat="44.147685" lon="11.6400617"><ele>632.2857142857142</ele><time>2026-04-18T13:36:33.994Z</time></trkpt><trkpt lat="44.1476383" lon="11.64"><ele>631.8571428571428</ele><time>2026-04-18T13:36:34.994Z</time></trkpt><trkpt lat="44.1476167" lon="11.63991"><ele>631.4285714285714</ele><time>2026-04-18T13:36:35.993Z</time></trkpt><trkpt lat="44.147595" lon="11.63982"><ele>631.0</ele><time>2026-04-18T13:36:36.992Z</time></trkpt><trkpt lat="44.1475883" lon="11.6397167"><ele>631.0</ele><time>2026-04-18T13:36:37.993Z</time></trkpt><trkpt lat="44.1476" lon="11.63961"><ele>631.0</ele><time>2026-04-18T13:36:38.993Z</time></trkpt><trkpt lat="44.14763" lon="11.6394867"><ele>631.0</ele><time>2026-04-18T13:36:39.993Z</time></trkpt><trkpt lat="44.1476583" lon="11.63936"><ele>631.0</ele><time>2026-04-18T13:36:40.994Z</time></trkpt><trkpt lat="44.1476883" lon="11.63923"><ele>631.0</ele><time>2026-04-18T13:36:41.994Z</time></trkpt><trkpt lat="44.1477417" lon="11.6391133"><ele>632.4</ele><time>2026-04-18T13:36:42.992Z</time></trkpt><trkpt lat="44.1478" lon="11.6390067"><ele>633.8</ele><time>2026-04-18T13:36:43.993Z</time></trkpt><trkpt lat="44.1478567" lon="11.638895"><ele>635.1999999999999</ele><time>2026-04-18T13:36:44.993Z</time></trkpt><trkpt lat="44.1479" lon="11.638775"><ele>636.6</ele><time>2026-04-18T13:36:45.993Z</time></trkpt><trkpt lat="44.14793" lon="11.63864"><ele>638.0</ele><time>2026-04-18T13:36:46.993Z</time></trkpt><trkpt lat="44.1479567" lon="11.6384983"><ele>638.5999999999999</ele><time>2026-04-18T13:36:47.994Z</time></trkpt><trkpt lat="44.1479783" lon="11.6383567"><ele>639.1999999999999</ele><time>2026-04-18T13:36:48.994Z</time></trkpt><trkpt lat="44.1479917" lon="11.63822"><ele>639.8</ele><time>2026-04-18T13:36:49.993Z</time></trkpt><trkpt lat="44.1480017" lon="11.6381017"><ele>640.4</ele><time>2026-04-18T13:36:50.994Z</time></trkpt><trkpt lat="44.1479883" lon="11.6379867"><ele>641.0</ele><time>2026-04-18T13:36:51.995Z</time></trkpt><trkpt lat="44.1479617" lon="11.6378717"><ele>642.0</ele><time>2026-04-18T13:36:52.996Z</time></trkpt><trkpt lat="44.1479267" lon="11.6377467"><ele>643.0</ele><time>2026-04-18T13:36:53.994Z</time></trkpt><trkpt lat="44.1478983" lon="11.6376133"><ele>644.0</ele><time>2026-04-18T13:36:54.996Z</time></trkpt><trkpt lat="44.1478717" lon="11.6374733"><ele>645.0</ele><time>2026-04-18T13:36:55.995Z</time></trkpt><trkpt lat="44.14785" lon="11.63733"><ele>646.0</ele><time>2026-04-18T13:36:56.994Z</time></trkpt><trkpt lat="44.147815" lon="11.6371817"><ele>646.0</ele><time>2026-04-18T13:36:57.994Z</time></trkpt><trkpt lat="44.1477667" lon="11.637035"><ele>646.0</ele><time>2026-04-18T13:36:58.994Z</time></trkpt><trkpt lat="44.1477117" lon="11.6368883"><ele>646.0</ele><time>2026-04-18T13:36:59.993Z</time></trkpt><trkpt lat="44.1476567" lon="11.6367333"><ele>646.0</ele><time>2026-04-18T13:37:00.994Z</time></trkpt><trkpt lat="44.1476033" lon="11.63658"><ele>652.0</ele><time>2026-04-18T13:37:01.992Z</time></trkpt><trkpt lat="44.1475433" lon="11.636425"><ele>658.0</ele><time>2026-04-18T13:37:02.994Z</time></trkpt><trkpt lat="44.1474733" lon="11.6362783"><ele>664.0</ele><time>2026-04-18T13:37:03.994Z</time></trkpt><trkpt lat="44.1473917" lon="11.6361533"><ele>670.0</ele><time>2026-04-18T13:37:04.994Z</time></trkpt><trkpt lat="44.147305" lon="11.636065"><ele>673.4</ele><time>2026-04-18T13:37:05.994Z</time></trkpt><trkpt lat="44.14721" lon="11.636005"><ele>676.8</ele><time>2026-04-18T13:37:06.993Z</time></trkpt><trkpt lat="44.1471133" lon="11.6359783"><ele>680.2</ele><time>2026-04-18T13:37:07.993Z</time></trkpt><trkpt lat="44.147015" lon="11.635975"><ele>683.6</ele><time>2026-04-18T13:37:08.994Z</time></trkpt><trkpt lat="44.1469067" lon="11.6359833"><ele>687.0</ele><time>2026-04-18T13:37:09.994Z</time></trkpt><trkpt lat="44.1467967" lon="11.6359883"><ele>687.0</ele><time>2026-04-18T13:37:10.994Z</time></trkpt><trkpt lat="44.14669" lon="11.63599"><ele>687.0</ele><time>2026-04-18T13:37:11.994Z</time></trkpt><trkpt lat="44.1465833" lon="11.635975"><ele>687.0</ele><time>2026-04-18T13:37:12.993Z</time></trkpt><trkpt lat="44.1464767" lon="11.6359533"><ele>687.0</ele><time>2026-04-18T13:37:13.995Z</time></trkpt><trkpt lat="44.14637" lon="11.6359233"><ele>687.0</ele><time>2026-04-18T13:37:14.996Z</time></trkpt><trkpt lat="44.14626" lon="11.6358917"><ele>685.8</ele><time>2026-04-18T13:37:15.996Z</time></trkpt><trkpt lat="44.1461467" lon="11.6358633"><ele>684.6</ele><time>2026-04-18T13:37:16.995Z</time></trkpt><trkpt lat="44.1460417" lon="11.6358467"><ele>683.4</ele><time>2026-04-18T13:37:17.995Z</time></trkpt><trkpt lat="44.1459483" lon="11.635835"><ele>682.1999999999999</ele><time>2026-04-18T13:37:18.993Z</time></trkpt><trkpt lat="44.1458683" lon="11.6358233"><ele>681.0</ele><time>2026-04-18T13:37:19.995Z</time></trkpt><trkpt lat="44.1457967" lon="11.63581"><ele>683.0</ele><time>2026-04-18T13:37:20.994Z</time></trkpt><trkpt lat="44.1456867" lon="11.63578"><ele>685.0</ele><time>2026-04-18T13:37:22.993Z</time></trkpt><trkpt lat="44.1456017" lon="11.6357033"><ele>687.0</ele><time>2026-04-18T13:37:25.082Z</time></trkpt><trkpt lat="44.1455767" lon="11.6355483"><ele>689.0</ele><time>2026-04-18T13:37:26.996Z</time></trkpt><trkpt lat="44.1456067" lon="11.6353817"><ele>687.4000000000001</ele><time>2026-04-18T13:37:28.996Z</time></trkpt><trkpt lat="44.1456433" lon="11.6352833"><ele>685.8</ele><time>2026-04-18T13:37:29.996Z</time></trkpt><trkpt lat="44.1457033" lon="11.6351783"><ele>684.2</ele><time>2026-04-18T13:37:30.995Z</time></trkpt><trkpt lat="44.1457717" lon="11.6350783"><ele>682.5999999999999</ele><time>2026-04-18T13:37:31.994Z</time></trkpt><trkpt lat="44.1458367" lon="11.6349633"><ele>681.0</ele><time>2026-04-18T13:37:32.995Z</time></trkpt><trkpt lat="44.1458933" lon="11.6348433"><ele>681.0</ele><time>2026-04-18T13:37:33.995Z</time></trkpt><trkpt lat="44.1459433" lon="11.63471"><ele>681.0</ele><time>2026-04-18T13:37:34.993Z</time></trkpt><trkpt lat="44.146" lon="11.6345733"><ele>681.0</ele><time>2026-04-18T13:37:35.993Z</time></trkpt><trkpt lat="44.1460533" lon="11.6344483"><ele>681.0</ele><time>2026-04-18T13:37:36.994Z</time></trkpt><trkpt lat="44.1461083" lon="11.6343283"><ele>681.0</ele><time>2026-04-18T13:37:37.994Z</time></trkpt><trkpt lat="44.14616" lon="11.6342167"><ele>678.1999999999999</ele><time>2026-04-18T13:37:38.993Z</time></trkpt><trkpt lat="44.1462133" lon="11.634115"><ele>675.4</ele><time>2026-04-18T13:37:39.993Z</time></trkpt><trkpt lat="44.14627" lon="11.6340067"><ele>672.6</ele><time>2026-04-18T13:37:40.993Z</time></trkpt><trkpt lat="44.1463283" lon="11.6338983"><ele>669.8</ele><time>2026-04-18T13:37:41.994Z</time></trkpt><trkpt lat="44.1463867" lon="11.633795"><ele>667.0</ele><time>2026-04-18T13:37:42.993Z</time></trkpt><trkpt lat="44.1464383" lon="11.6336917"><ele>665.0</ele><time>2026-04-18T13:37:43.994Z</time></trkpt><trkpt lat="44.1464783" lon="11.6335767"><ele>663.0</ele><time>2026-04-18T13:37:44.993Z</time></trkpt><trkpt lat="44.14651" lon="11.6334517"><ele>661.0</ele><time>2026-04-18T13:37:45.993Z</time></trkpt><trkpt lat="44.1465367" lon="11.6333267"><ele>659.0</ele><time>2026-04-18T13:37:46.994Z</time></trkpt><trkpt lat="44.146565" lon="11.6332117"><ele>657.0</ele><time>2026-04-18T13:37:47.993Z</time></trkpt><trkpt lat="44.1466017" lon="11.63309"><ele>662.0</ele><time>2026-04-18T13:37:48.994Z</time></trkpt><trkpt lat="44.14665" lon="11.632965"><ele>667.0</ele><time>2026-04-18T13:37:49.996Z</time></trkpt><trkpt lat="44.1467" lon="11.632845"><ele>672.0</ele><time>2026-04-18T13:37:50.994Z</time></trkpt><trkpt lat="44.1467417" lon="11.632715"><ele>677.0</ele><time>2026-04-18T13:37:51.994Z</time></trkpt><trkpt lat="44.1467683" lon="11.6325833"><ele>682.0</ele><time>2026-04-18T13:37:52.995Z</time></trkpt><trkpt lat="44.14678" lon="11.6324583"><ele>682.0</ele><time>2026-04-18T13:37:53.995Z</time></trkpt><trkpt lat="44.146795" lon="11.6323383"><ele>682.0</ele><time>2026-04-18T13:37:54.994Z</time></trkpt><trkpt lat="44.1467967" lon="11.6322433"><ele>682.0</ele><time>2026-04-18T13:37:55.995Z</time></trkpt><trkpt lat="44.14687" lon="11.632095"><ele>682.0</ele><time>2026-04-18T13:37:57.994Z</time></trkpt><trkpt lat="44.1469383" lon="11.6320267"><ele>682.0</ele><time>2026-04-18T13:37:58.993Z</time></trkpt><trkpt lat="44.1470217" lon="11.6319433"><ele>679.8</ele><time>2026-04-18T13:37:59.994Z</time></trkpt><trkpt lat="44.1470717" lon="11.6318333"><ele>677.6</ele><time>2026-04-18T13:38:00.994Z</time></trkpt><trkpt lat="44.1471083" lon="11.6317133"><ele>675.4</ele><time>2026-04-18T13:38:01.995Z</time></trkpt><trkpt lat="44.1471317" lon="11.6315833"><ele>673.1999999999999</ele><time>2026-04-18T13:38:02.993Z</time></trkpt><trkpt lat="44.1471517" lon="11.631455"><ele>671.0</ele><time>2026-04-18T13:38:03.994Z</time></trkpt><trkpt lat="44.1471883" lon="11.63133"><ele>671.0</ele><time>2026-04-18T13:38:04.993Z</time></trkpt><trkpt lat="44.147215" lon="11.631205"><ele>671.0</ele><time>2026-04-18T13:38:05.994Z</time></trkpt><trkpt lat="44.1472283" lon="11.631075"><ele>671.0</ele><time>2026-04-18T13:38:06.993Z</time></trkpt><trkpt lat="44.14723" lon="11.6309383"><ele>671.0</ele><time>2026-04-18T13:38:07.996Z</time></trkpt><trkpt lat="44.1472133" lon="11.630805"><ele>671.0</ele><time>2026-04-18T13:38:08.993Z</time></trkpt><trkpt lat="44.1471733" lon="11.6306733"><ele>671.4</ele><time>2026-04-18T13:38:09.994Z</time></trkpt><trkpt lat="44.1471283" lon="11.6305383"><ele>671.8</ele><time>2026-04-18T13:38:10.993Z</time></trkpt><trkpt lat="44.1470733" lon="11.63042"><ele>672.1999999999999</ele><time>2026-04-18T13:38:11.993Z</time></trkpt><trkpt lat="44.147" lon="11.63032"><ele>672.5999999999999</ele><time>2026-04-18T13:38:12.994Z</time></trkpt><trkpt lat="44.1469133" lon="11.6302267"><ele>673.0</ele><time>2026-04-18T13:38:13.993Z</time></trkpt><trkpt lat="44.14683" lon="11.6301433"><ele>675.2</ele><time>2026-04-18T13:38:14.995Z</time></trkpt><trkpt lat="44.14678" lon="11.6300683"><ele>677.4</ele><time>2026-04-18T13:38:15.993Z</time></trkpt><trkpt lat="44.1467083" lon="11.62993"><ele>679.6</ele><time>2026-04-18T13:38:17.994Z</time></trkpt><trkpt lat="44.146675" lon="11.6297583"><ele>681.8000000000001</ele><time>2026-04-18T13:38:19.993Z</time></trkpt><trkpt lat="44.1466633" lon="11.6296567"><ele>684.0</ele><time>2026-04-18T13:38:20.994Z</time></trkpt><trkpt lat="44.1466933" lon="11.6295383"><ele>684.0</ele><time>2026-04-18T13:38:21.993Z</time></trkpt><trkpt lat="44.1467333" lon="11.6294383"><ele>684.0</ele><time>2026-04-18T13:38:22.994Z</time></trkpt><trkpt lat="44.1467683" lon="11.6293467"><ele>684.0</ele><time>2026-04-18T13:38:23.994Z</time></trkpt><trkpt lat="44.1468167" lon="11.629275"><ele>684.0</ele><time>2026-04-18T13:38:24.994Z</time></trkpt><trkpt lat="44.14692" lon="11.629225"><ele>684.0</ele><time>2026-04-18T13:38:26.994Z</time></trkpt><trkpt lat="44.14698" lon="11.6292867"><ele>684.0</ele><time>2026-04-18T13:38:27.994Z</time></trkpt><trkpt lat="44.14705" lon="11.6294083"><ele>684.0</ele><time>2026-04-18T13:38:28.992Z</time></trkpt><trkpt lat="44.14712" lon="11.6295117"><ele>684.0</ele><time>2026-04-18T13:38:29.993Z</time></trkpt><trkpt lat="44.1471833" lon="11.6295817"><ele>684.0</ele><time>2026-04-18T13:38:30.993Z</time></trkpt><trkpt lat="44.14725" lon="11.62963"><ele>684.0</ele><time>2026-04-18T13:38:31.994Z</time></trkpt><trkpt lat="44.1473317" lon="11.6296667"><ele>684.0</ele><time>2026-04-18T13:38:32.995Z</time></trkpt><trkpt lat="44.1474283" lon="11.629695"><ele>684.0</ele><time>2026-04-18T13:38:33.994Z</time></trkpt><trkpt lat="44.14751" lon="11.6297317"><ele>686.0</ele><time>2026-04-18T13:38:34.994Z</time></trkpt><trkpt lat="44.1475933" lon="11.62976"><ele>688.0</ele><time>2026-04-18T13:38:35.995Z</time></trkpt><trkpt lat="44.1476783" lon="11.629775"><ele>690.0</ele><time>2026-04-18T13:38:36.995Z</time></trkpt><trkpt lat="44.1477683" lon="11.629775"><ele>692.0</ele><time>2026-04-18T13:38:37.995Z</time></trkpt><trkpt lat="44.147855" lon="11.62977"><ele>694.0</ele><time>2026-04-18T13:38:38.996Z</time></trkpt><trkpt lat="44.147935" lon="11.6297767"><ele>696.0</ele><time>2026-04-18T13:38:39.995Z</time></trkpt><trkpt lat="44.1480067" lon="11.629815"><ele>696.0</ele><time>2026-04-18T13:38:40.996Z</time></trkpt><trkpt lat="44.1480783" lon="11.6298767"><ele>696.0</ele><time>2026-04-18T13:38:41.995Z</time></trkpt><trkpt lat="44.1481417" lon="11.6299683"><ele>696.0</ele><time>2026-04-18T13:38:42.995Z</time></trkpt><trkpt lat="44.1481983" lon="11.6300733"><ele>696.0</ele><time>2026-04-18T13:38:43.995Z</time></trkpt><trkpt lat="44.1482483" lon="11.6301833"><ele>696.0</ele><time>2026-04-18T13:38:44.993Z</time></trkpt><trkpt lat="44.1482967" lon="11.6302867"><ele>696.3333333333334</ele><time>2026-04-18T13:38:45.995Z</time></trkpt><trkpt lat="44.148345" lon="11.6303717"><ele>696.6666666666666</ele><time>2026-04-18T13:38:46.994Z</time></trkpt><trkpt lat="44.1484" lon="11.6304467"><ele>697.0</ele><time>2026-04-18T13:38:47.993Z</time></trkpt><trkpt lat="44.148465" lon="11.6305"><ele>697.3333333333333</ele><time>2026-04-18T13:38:48.995Z</time></trkpt><trkpt lat="44.14853" lon="11.6305317"><ele>697.6666666666666</ele><time>2026-04-18T13:38:49.994Z</time></trkpt><trkpt lat="44.1486067" lon="11.6305333"><ele>698.0</ele><time>2026-04-18T13:38:50.994Z</time></trkpt><trkpt lat="44.1486883" lon="11.63051"><ele>698.0</ele><time>2026-04-18T13:38:51.993Z</time></trkpt><trkpt lat="44.14878" lon="11.6304667"><ele>698.0</ele><time>2026-04-18T13:38:52.994Z</time></trkpt><trkpt lat="44.1488767" lon="11.630415"><ele>698.0</ele><time>2026-04-18T13:38:53.993Z</time></trkpt><trkpt lat="44.1489567" lon="11.630345"><ele>698.0</ele><time>2026-04-18T13:38:54.994Z</time></trkpt><trkpt lat="44.149025" lon="11.6302683"><ele>698.0</ele><time>2026-04-18T13:38:55.993Z</time></trkpt><trkpt lat="44.1490817" lon="11.6301783"><ele>692.5</ele><time>2026-04-18T13:38:56.993Z</time></trkpt><trkpt lat="44.1491467" lon="11.6300967"><ele>687.0</ele><time>2026-04-18T13:38:57.993Z</time></trkpt><trkpt lat="44.1492133" lon="11.6300333"><ele>681.5</ele><time>2026-04-18T13:38:58.993Z</time></trkpt><trkpt lat="44.1492833" lon="11.6299683"><ele>676.0</ele><time>2026-04-18T13:38:59.993Z</time></trkpt><trkpt lat="44.1493433" lon="11.6298717"><ele>670.5</ele><time>2026-04-18T13:39:00.993Z</time></trkpt><trkpt lat="44.1493967" lon="11.6297467"><ele>665.0</ele><time>2026-04-18T13:39:01.993Z</time></trkpt><trkpt lat="44.1494533" lon="11.6296467"><ele>665.0</ele><time>2026-04-18T13:39:02.996Z</time></trkpt><trkpt lat="44.149515" lon="11.629555"><ele>665.0</ele><time>2026-04-18T13:39:03.993Z</time></trkpt><trkpt lat="44.149575" lon="11.6294733"><ele>665.0</ele><time>2026-04-18T13:39:04.994Z</time></trkpt><trkpt lat="44.14965" lon="11.6294133"><ele>665.0</ele><time>2026-04-18T13:39:05.993Z</time></trkpt><trkpt lat="44.14973" lon="11.6293483"><ele>665.0</ele><time>2026-04-18T13:39:06.995Z</time></trkpt><trkpt lat="44.1498067" lon="11.629315"><ele>665.0</ele><time>2026-04-18T13:39:07.993Z</time></trkpt><trkpt lat="44.1498733" lon="11.6293117"><ele>659.8</ele><time>2026-04-18T13:39:08.993Z</time></trkpt><trkpt lat="44.1499983" lon="11.629335"><ele>654.6</ele><time>2026-04-18T13:39:10.993Z</time></trkpt><trkpt lat="44.1500933" lon="11.629315"><ele>649.4</ele><time>2026-04-18T13:39:12.993Z</time></trkpt><trkpt lat="44.1501083" lon="11.6292117"><ele>644.2</ele><time>2026-04-18T13:39:15.995Z</time></trkpt><trkpt lat="44.1500233" lon="11.6290933"><ele>639.0</ele><time>2026-04-18T13:39:18.993Z</time></trkpt><trkpt lat="44.1499533" lon="11.6290067"><ele>638.2</ele><time>2026-04-18T13:39:19.993Z</time></trkpt><trkpt lat="44.1498567" lon="11.6289267"><ele>637.4</ele><time>2026-04-18T13:39:20.994Z</time></trkpt><trkpt lat="44.1497617" lon="11.62888"><ele>636.6</ele><time>2026-04-18T13:39:21.994Z</time></trkpt><trkpt lat="44.14967" lon="11.62886"><ele>635.8</ele><time>2026-04-18T13:39:22.994Z</time></trkpt><trkpt lat="44.1495817" lon="11.6288717"><ele>635.0</ele><time>2026-04-18T13:39:23.994Z</time></trkpt><trkpt lat="44.14948" lon="11.628915"><ele>635.0</ele><time>2026-04-18T13:39:24.993Z</time></trkpt><trkpt lat="44.1493717" lon="11.6289783"><ele>635.0</ele><time>2026-04-18T13:39:25.993Z</time></trkpt><trkpt lat="44.1492667" lon="11.6290383"><ele>635.0</ele><time>2026-04-18T13:39:26.993Z</time></trkpt><trkpt lat="44.1491683" lon="11.6291133"><ele>635.0</ele><time>2026-04-18T13:39:27.994Z</time></trkpt><trkpt lat="44.1490733" lon="11.6291983"><ele>637.3333333333333</ele><time>2026-04-18T13:39:28.995Z</time></trkpt><trkpt lat="44.1489917" lon="11.6292733"><ele>639.6666666666666</ele><time>2026-04-18T13:39:29.994Z</time></trkpt><trkpt lat="44.14893" lon="11.62933"><ele>642.0</ele><time>2026-04-18T13:39:30.993Z</time></trkpt><trkpt lat="44.1488317" lon="11.62937"><ele>644.3333333333334</ele><time>2026-04-18T13:39:32.994Z</time></trkpt><trkpt lat="44.1488816" lon="11.6292849"><ele>646.6666666666667</ele><time>2026-04-18T13:39:35.993Z</time></trkpt><trkpt lat="44.1489247" lon="11.6292148"><ele>649.0</ele><time>2026-04-18T13:39:36.994Z</time></trkpt><trkpt lat="44.1489981" lon="11.6291219"><ele>645.5</ele><time>2026-04-18T13:39:37.993Z</time></trkpt><trkpt lat="44.1490819" lon="11.6290162"><ele>642.0</ele><time>2026-04-18T13:39:38.993Z</time></trkpt><trkpt lat="44.1491652" lon="11.6288992"><ele>638.5</ele><time>2026-04-18T13:39:39.994Z</time></trkpt><trkpt lat="44.1492309" lon="11.6287582"><ele>635.0</ele><time>2026-04-18T13:39:40.994Z</time></trkpt><trkpt lat="44.1492992" lon="11.6286152"><ele>629.8</ele><time>2026-04-18T13:39:41.993Z</time></trkpt><trkpt lat="44.149365" lon="11.6284811"><ele>624.6</ele><time>2026-04-18T13:39:42.995Z</time></trkpt><trkpt lat="44.1494246" lon="11.6283575"><ele>619.4</ele><time>2026-04-18T13:39:43.992Z</time></trkpt><trkpt lat="44.1494873" lon="11.6282531"><ele>614.2</ele><time>2026-04-18T13:39:44.994Z</time></trkpt><trkpt lat="44.1495578" lon="11.6281606"><ele>609.0</ele><time>2026-04-18T13:39:45.993Z</time></trkpt><trkpt lat="44.1496322" lon="11.6280832"><ele>609.0</ele><time>2026-04-18T13:39:46.994Z</time></trkpt><trkpt lat="44.1497065" lon="11.6280281"><ele>609.0</ele><time>2026-04-18T13:39:47.993Z</time></trkpt><trkpt lat="44.1497811" lon="11.6279952"><ele>609.0</ele><time>2026-04-18T13:39:48.994Z</time></trkpt><trkpt lat="44.1498571" lon="11.6279872"><ele>609.0</ele><time>2026-04-18T13:39:49.993Z</time></trkpt><trkpt lat="44.1499339" lon="11.6279956"><ele>609.0</ele><time>2026-04-18T13:39:50.993Z</time></trkpt><trkpt lat="44.1500051" lon="11.628029"><ele>609.0</ele><time>2026-04-18T13:39:51.995Z</time></trkpt><trkpt lat="44.1500969" lon="11.6280963"><ele>610.25</ele><time>2026-04-18T13:39:52.994Z</time></trkpt><trkpt lat="44.1501942" lon="11.6281395"><ele>611.5</ele><time>2026-04-18T13:39:53.993Z</time></trkpt><trkpt lat="44.1502957" lon="11.6281622"><ele>612.75</ele><time>2026-04-18T13:39:54.994Z</time></trkpt><trkpt lat="44.1504259" lon="11.6282"><ele>614.0</ele><time>2026-04-18T13:39:55.993Z</time></trkpt><trkpt lat="44.150544" lon="11.6282167"><ele>614.0</ele><time>2026-04-18T13:39:56.993Z</time></trkpt><trkpt lat="44.1506443" lon="11.6282202"><ele>614.0</ele><time>2026-04-18T13:39:57.994Z</time></trkpt><trkpt lat="44.150729" lon="11.6282344"><ele>614.0</ele><time>2026-04-18T13:39:58.993Z</time></trkpt><trkpt lat="44.1507974" lon="11.6282527"><ele>614.0</ele><time>2026-04-18T13:39:59.994Z</time></trkpt><trkpt lat="44.1508722" lon="11.6282936"><ele>614.0</ele><time>2026-04-18T13:40:00.995Z</time></trkpt><trkpt lat="44.1509485" lon="11.6283591"><ele>614.0</ele><time>2026-04-18T13:40:01.993Z</time></trkpt><trkpt lat="44.151026" lon="11.6284467"><ele>613.8</ele><time>2026-04-18T13:40:02.995Z</time></trkpt><trkpt lat="44.1510989" lon="11.6285414"><ele>613.5999999999999</ele><time>2026-04-18T13:40:03.995Z</time></trkpt><trkpt lat="44.1511716" lon="11.6286265"><ele>613.4</ele><time>2026-04-18T13:40:04.993Z</time></trkpt><trkpt lat="44.1512521" lon="11.6287017"><ele>613.1999999999999</ele><time>2026-04-18T13:40:05.993Z</time></trkpt><trkpt lat="44.1513525" lon="11.6287627"><ele>613.0</ele><time>2026-04-18T13:40:06.995Z</time></trkpt><trkpt lat="44.1514602" lon="11.6288095"><ele>608.0</ele><time>2026-04-18T13:40:07.993Z</time></trkpt><trkpt lat="44.1515701" lon="11.6288516"><ele>603.0</ele><time>2026-04-18T13:40:08.996Z</time></trkpt><trkpt lat="44.1516735" lon="11.6288848"><ele>598.0</ele><time>2026-04-18T13:40:09.994Z</time></trkpt><trkpt lat="44.1517707" lon="11.6289193"><ele>593.0</ele><time>2026-04-18T13:40:10.994Z</time></trkpt><trkpt lat="44.1518609" lon="11.6289701"><ele>588.0</ele><time>2026-04-18T13:40:11.993Z</time></trkpt><trkpt lat="44.1519515" lon="11.6290451"><ele>588.0</ele><time>2026-04-18T13:40:12.994Z</time></trkpt><trkpt lat="44.1520388" lon="11.629137"><ele>588.0</ele><time>2026-04-18T13:40:13.993Z</time></trkpt><trkpt lat="44.1521236" lon="11.6292305"><ele>588.0</ele><time>2026-04-18T13:40:14.994Z</time></trkpt><trkpt lat="44.1521962" lon="11.6293203"><ele>588.0</ele><time>2026-04-18T13:40:15.993Z</time></trkpt><trkpt lat="44.1522653" lon="11.6293871"><ele>588.0</ele><time>2026-04-18T13:40:16.994Z</time></trkpt><trkpt lat="44.1523404" lon="11.6294186"><ele>587.8</ele><time>2026-04-18T13:40:17.993Z</time></trkpt><trkpt lat="44.1524058" lon="11.629421"><ele>587.5999999999999</ele><time>2026-04-18T13:40:18.994Z</time></trkpt><trkpt lat="44.1524622" lon="11.6292575"><ele>587.4000000000001</ele><time>2026-04-18T13:40:20.995Z</time></trkpt><trkpt lat="44.1524848" lon="11.6291335"><ele>587.2</ele><time>2026-04-18T13:40:21.995Z</time></trkpt><trkpt lat="44.152505" lon="11.6289983"><ele>587.0</ele><time>2026-04-18T13:40:22.994Z</time></trkpt><trkpt lat="44.15253" lon="11.62891"><ele>587.0</ele><time>2026-04-18T13:40:23.993Z</time></trkpt><trkpt lat="44.152595" lon="11.6288417"><ele>587.0</ele><time>2026-04-18T13:40:24.994Z</time></trkpt><trkpt lat="44.1526617" lon="11.6287883"><ele>587.0</ele><time>2026-04-18T13:40:25.994Z</time></trkpt><trkpt lat="44.1527217" lon="11.62872"><ele>587.0</ele><time>2026-04-18T13:40:26.993Z</time></trkpt><trkpt lat="44.15276" lon="11.628635"><ele>587.0</ele><time>2026-04-18T13:40:27.994Z</time></trkpt><trkpt lat="44.1527883" lon="11.62854"><ele>587.0</ele><time>2026-04-18T13:40:28.995Z</time></trkpt><trkpt lat="44.1527667" lon="11.6284433"><ele>585.4</ele><time>2026-04-18T13:40:29.993Z</time></trkpt><trkpt lat="44.1527217" lon="11.6283267"><ele>583.8000000000001</ele><time>2026-04-18T13:40:30.994Z</time></trkpt><trkpt lat="44.1526633" lon="11.628205"><ele>582.2</ele><time>2026-04-18T13:40:31.996Z</time></trkpt><trkpt lat="44.1526133" lon="11.628095"><ele>580.6</ele><time>2026-04-18T13:40:32.996Z</time></trkpt><trkpt lat="44.152565" lon="11.6279783"><ele>579.0</ele><time>2026-04-18T13:40:33.994Z</time></trkpt><trkpt lat="44.1525383" lon="11.6278517"><ele>579.8</ele><time>2026-04-18T13:40:34.993Z</time></trkpt><trkpt lat="44.152535" lon="11.6277067"><ele>580.5999999999999</ele><time>2026-04-18T13:40:35.994Z</time></trkpt><trkpt lat="44.1525683" lon="11.6275617"><ele>581.4</ele><time>2026-04-18T13:40:36.994Z</time></trkpt><trkpt lat="44.1526167" lon="11.6274533"><ele>582.1999999999999</ele><time>2026-04-18T13:40:37.993Z</time></trkpt><trkpt lat="44.1526783" lon="11.627345"><ele>583.0</ele><time>2026-04-18T13:40:38.993Z</time></trkpt><trkpt lat="44.152735" lon="11.6272283"><ele>583.0</ele><time>2026-04-18T13:40:39.993Z</time></trkpt><trkpt lat="44.152775" lon="11.6271067"><ele>583.0</ele><time>2026-04-18T13:40:40.995Z</time></trkpt><trkpt lat="44.15279" lon="11.6269767"><ele>583.0</ele><time>2026-04-18T13:40:41.995Z</time></trkpt><trkpt lat="44.1527817" lon="11.6268367"><ele>583.0</ele><time>2026-04-18T13:40:42.993Z</time></trkpt><trkpt lat="44.152755" lon="11.626705"><ele>583.0</ele><time>2026-04-18T13:40:43.994Z</time></trkpt><trkpt lat="44.15272" lon="11.626575"><ele>581.8</ele><time>2026-04-18T13:40:44.994Z</time></trkpt><trkpt lat="44.1526733" lon="11.6264617"><ele>580.5999999999999</ele><time>2026-04-18T13:40:45.995Z</time></trkpt><trkpt lat="44.1526067" lon="11.6263633"><ele>579.4000000000001</ele><time>2026-04-18T13:40:46.993Z</time></trkpt><trkpt lat="44.152525" lon="11.6262867"><ele>578.2</ele><time>2026-04-18T13:40:47.993Z</time></trkpt><trkpt lat="44.1524283" lon="11.6262367"><ele>577.0</ele><time>2026-04-18T13:40:48.994Z</time></trkpt><trkpt lat="44.1523233" lon="11.6261917"><ele>580.8000000000001</ele><time>2026-04-18T13:40:49.994Z</time></trkpt><trkpt lat="44.1522233" lon="11.62614"><ele>584.6</ele><time>2026-04-18T13:40:50.994Z</time></trkpt><trkpt lat="44.15214" lon="11.6260833"><ele>588.4000000000001</ele><time>2026-04-18T13:40:51.994Z</time></trkpt><trkpt lat="44.15206" lon="11.626025"><ele>592.2</ele><time>2026-04-18T13:40:52.993Z</time></trkpt><trkpt lat="44.1519833" lon="11.6259833"><ele>596.0</ele><time>2026-04-18T13:40:53.993Z</time></trkpt><trkpt lat="44.1519117" lon="11.6259317"><ele>596.0</ele><time>2026-04-18T13:40:54.994Z</time></trkpt><trkpt lat="44.1518517" lon="11.6258683"><ele>596.0</ele><time>2026-04-18T13:40:55.993Z</time></trkpt><trkpt lat="44.151805" lon="11.6257883"><ele>596.0</ele><time>2026-04-18T13:40:56.993Z</time></trkpt><trkpt lat="44.151785" lon="11.62569"><ele>596.0</ele><time>2026-04-18T13:40:57.993Z</time></trkpt><trkpt lat="44.1517783" lon="11.625565"><ele>596.0</ele><time>2026-04-18T13:40:58.993Z</time></trkpt><trkpt lat="44.1517683" lon="11.6254517"><ele>596.0</ele><time>2026-04-18T13:40:59.994Z</time></trkpt><trkpt lat="44.1517833" lon="11.6253317"><ele>597.0</ele><time>2026-04-18T13:41:00.993Z</time></trkpt><trkpt lat="44.15179" lon="11.62522"><ele>598.0</ele><time>2026-04-18T13:41:01.994Z</time></trkpt><trkpt lat="44.1518317" lon="11.6251167"><ele>599.0</ele><time>2026-04-18T13:41:02.994Z</time></trkpt><trkpt lat="44.151875" lon="11.62501"><ele>600.0</ele><time>2026-04-18T13:41:03.994Z</time></trkpt><trkpt lat="44.1519317" lon="11.6248917"><ele>601.0</ele><time>2026-04-18T13:41:04.993Z</time></trkpt><trkpt lat="44.1519783" lon="11.6247683"><ele>601.0</ele><time>2026-04-18T13:41:05.995Z</time></trkpt><trkpt lat="44.15201" lon="11.6246517"><ele>601.0</ele><time>2026-04-18T13:41:06.993Z</time></trkpt><trkpt lat="44.1520383" lon="11.624535"><ele>601.0</ele><time>2026-04-18T13:41:07.996Z</time></trkpt><trkpt lat="44.152065" lon="11.6244317"><ele>601.0</ele><time>2026-04-18T13:41:08.993Z</time></trkpt><trkpt lat="44.15208" lon="11.6243283"><ele>601.0</ele><time>2026-04-18T13:41:09.994Z</time></trkpt><trkpt lat="44.1520883" lon="11.6242317"><ele>601.0</ele><time>2026-04-18T13:41:10.994Z</time></trkpt><trkpt lat="44.152095" lon="11.6241417"><ele>600.4</ele><time>2026-04-18T13:41:11.994Z</time></trkpt><trkpt lat="44.1521067" lon="11.6240517"><ele>599.8</ele><time>2026-04-18T13:41:12.994Z</time></trkpt><trkpt lat="44.15211" lon="11.6239067"><ele>599.1999999999999</ele><time>2026-04-18T13:41:14.993Z</time></trkpt><trkpt lat="44.1521233" lon="11.6237783"><ele>598.6</ele><time>2026-04-18T13:41:16.993Z</time></trkpt><trkpt lat="44.152125" lon="11.6236233"><ele>598.0</ele><time>2026-04-18T13:41:18.994Z</time></trkpt><trkpt lat="44.152165" lon="11.6234533"><ele>597.4285714285714</ele><time>2026-04-18T13:41:20.993Z</time></trkpt><trkpt lat="44.1521917" lon="11.62337"><ele>596.8571428571429</ele><time>2026-04-18T13:41:21.994Z</time></trkpt><trkpt lat="44.1522183" lon="11.62329"><ele>596.2857142857143</ele><time>2026-04-18T13:41:22.994Z</time></trkpt><trkpt lat="44.152255" lon="11.6232067"><ele>595.7142857142858</ele><time>2026-04-18T13:41:23.993Z</time></trkpt><trkpt lat="44.1522967" lon="11.6231283"><ele>595.1428571428572</ele><time>2026-04-18T13:41:24.994Z</time></trkpt><trkpt lat="44.152345" lon="11.6230367"><ele>594.5714285714286</ele><time>2026-04-18T13:41:25.993Z</time></trkpt><trkpt lat="44.152395" lon="11.6229433"><ele>594.0</ele><time>2026-04-18T13:41:26.996Z</time></trkpt><trkpt lat="44.1524483" lon="11.62285"><ele>596.0</ele><time>2026-04-18T13:41:27.993Z</time></trkpt><trkpt lat="44.1524983" lon="11.62276"><ele>598.0</ele><time>2026-04-18T13:41:28.993Z</time></trkpt><trkpt lat="44.1525483" lon="11.6226683"><ele>600.0</ele><time>2026-04-18T13:41:29.993Z</time></trkpt><trkpt lat="44.1525883" lon="11.62259"><ele>602.0</ele><time>2026-04-18T13:41:30.993Z</time></trkpt><trkpt lat="44.1526283" lon="11.6225117"><ele>604.0</ele><time>2026-04-18T13:41:31.994Z</time></trkpt><trkpt lat="44.1526633" lon="11.622435"><ele>606.0</ele><time>2026-04-18T13:41:32.995Z</time></trkpt><trkpt lat="44.152695" lon="11.6223533"><ele>608.0</ele><time>2026-04-18T13:41:33.993Z</time></trkpt><trkpt lat="44.1527267" lon="11.62227"><ele>608.0</ele><time>2026-04-18T13:41:34.993Z</time></trkpt><trkpt lat="44.15276" lon="11.622175"><ele>608.0</ele><time>2026-04-18T13:41:35.993Z</time></trkpt><trkpt lat="44.1527967" lon="11.622065"><ele>608.0</ele><time>2026-04-18T13:41:36.993Z</time></trkpt><trkpt lat="44.1528267" lon="11.6219533"><ele>608.0</ele><time>2026-04-18T13:41:37.994Z</time></trkpt><trkpt lat="44.1528233" lon="11.6218433"><ele>608.0</ele><time>2026-04-18T13:41:38.994Z</time></trkpt><trkpt lat="44.1528117" lon="11.6217283"><ele>608.0</ele><time>2026-04-18T13:41:39.994Z</time></trkpt><trkpt lat="44.1527967" lon="11.6216233"><ele>606.5</ele><time>2026-04-18T13:41:40.994Z</time></trkpt><trkpt lat="44.1527817" lon="11.621535"><ele>605.0</ele><time>2026-04-18T13:41:41.993Z</time></trkpt><trkpt lat="44.1527417" lon="11.621415"><ele>603.5</ele><time>2026-04-18T13:41:43.995Z</time></trkpt><trkpt lat="44.152715" lon="11.6212983"><ele>602.0</ele><time>2026-04-18T13:41:45.994Z</time></trkpt><trkpt lat="44.1527067" lon="11.621185"><ele>600.5</ele><time>2026-04-18T13:41:47.993Z</time></trkpt><trkpt lat="44.1527467" lon="11.621065"><ele>599.0</ele><time>2026-04-18T13:41:49.995Z</time></trkpt><trkpt lat="44.1528267" lon="11.6209817"><ele>598.4</ele><time>2026-04-18T13:41:51.993Z</time></trkpt><trkpt lat="44.1528867" lon="11.620945"><ele>597.8</ele><time>2026-04-18T13:41:52.993Z</time></trkpt><trkpt lat="44.1529767" lon="11.62092"><ele>597.2</ele><time>2026-04-18T13:41:53.993Z</time></trkpt><trkpt lat="44.1530733" lon="11.6208767"><ele>596.6</ele><time>2026-04-18T13:41:54.994Z</time></trkpt><trkpt lat="44.153175" lon="11.6208267"><ele>596.0</ele><time>2026-04-18T13:41:55.994Z</time></trkpt><trkpt lat="44.1532717" lon="11.620765"><ele>597.4</ele><time>2026-04-18T13:41:56.993Z</time></trkpt><trkpt lat="44.1533667" lon="11.6206983"><ele>598.8</ele><time>2026-04-18T13:41:57.994Z</time></trkpt><trkpt lat="44.1534533" lon="11.62063"><ele>600.1999999999999</ele><time>2026-04-18T13:41:58.994Z</time></trkpt><trkpt lat="44.15354" lon="11.6205583"><ele>601.6</ele><time>2026-04-18T13:41:59.993Z</time></trkpt><trkpt lat="44.1536167" lon="11.6204683"><ele>603.0</ele><time>2026-04-18T13:42:00.993Z</time></trkpt><trkpt lat="44.1536933" lon="11.6203817"><ele>599.8</ele><time>2026-04-18T13:42:01.994Z</time></trkpt><trkpt lat="44.1537667" lon="11.6203033"><ele>596.5999999999999</ele><time>2026-04-18T13:42:02.994Z</time></trkpt><trkpt lat="44.15384" lon="11.6202267"><ele>593.4000000000001</ele><time>2026-04-18T13:42:03.994Z</time></trkpt><trkpt lat="44.1539033" lon="11.62014"><ele>590.2</ele><time>2026-04-18T13:42:04.994Z</time></trkpt><trkpt lat="44.1539717" lon="11.620055"><ele>587.0</ele><time>2026-04-18T13:42:05.994Z</time></trkpt><trkpt lat="44.1540467" lon="11.619985"><ele>587.0</ele><time>2026-04-18T13:42:06.994Z</time></trkpt><trkpt lat="44.15412" lon="11.61993"><ele>587.0</ele><time>2026-04-18T13:42:07.993Z</time></trkpt><trkpt lat="44.1542" lon="11.6199033"><ele>587.0</ele><time>2026-04-18T13:42:08.993Z</time></trkpt><trkpt lat="44.1542967" lon="11.61991"><ele>587.0</ele><time>2026-04-18T13:42:09.994Z</time></trkpt><trkpt lat="44.1543817" lon="11.6199267"><ele>587.0</ele><time>2026-04-18T13:42:10.993Z</time></trkpt><trkpt lat="44.154475" lon="11.619935"><ele>587.0</ele><time>2026-04-18T13:42:11.995Z</time></trkpt><trkpt lat="44.1545967" lon="11.6199817"><ele>587.0</ele><time>2026-04-18T13:42:12.993Z</time></trkpt><trkpt lat="44.1547167" lon="11.6200417"><ele>587.0</ele><time>2026-04-18T13:42:13.993Z</time></trkpt><trkpt lat="44.1548317" lon="11.6200883"><ele>587.0</ele><time>2026-04-18T13:42:14.994Z</time></trkpt><trkpt lat="44.1549383" lon="11.6200967"><ele>587.0</ele><time>2026-04-18T13:42:15.994Z</time></trkpt><trkpt lat="44.1550467" lon="11.6200983"><ele>587.0</ele><time>2026-04-18T13:42:16.994Z</time></trkpt><trkpt lat="44.1551417" lon="11.620065"><ele>587.0</ele><time>2026-04-18T13:42:17.994Z</time></trkpt><trkpt lat="44.1552183" lon="11.619975"><ele>587.0</ele><time>2026-04-18T13:42:18.993Z</time></trkpt><trkpt lat="44.1552783" lon="11.619855"><ele>587.0</ele><time>2026-04-18T13:42:19.994Z</time></trkpt><trkpt lat="44.1553183" lon="11.6197017"><ele>587.0</ele><time>2026-04-18T13:42:20.995Z</time></trkpt><trkpt lat="44.1553633" lon="11.619555"><ele>583.8000000000001</ele><time>2026-04-18T13:42:21.996Z</time></trkpt><trkpt lat="44.1554117" lon="11.6194033"><ele>580.6</ele><time>2026-04-18T13:42:22.993Z</time></trkpt><trkpt lat="44.1554617" lon="11.619255"><ele>577.4000000000001</ele><time>2026-04-18T13:42:23.994Z</time></trkpt><trkpt lat="44.155505" lon="11.61913"><ele>574.2</ele><time>2026-04-18T13:42:24.993Z</time></trkpt><trkpt lat="44.1555417" lon="11.6190283"><ele>571.0</ele><time>2026-04-18T13:42:25.993Z</time></trkpt><trkpt lat="44.1555667" lon="11.61894"><ele>571.0</ele><time>2026-04-18T13:42:26.993Z</time></trkpt><trkpt lat="44.15563" lon="11.6188233"><ele>571.0</ele><time>2026-04-18T13:42:28.995Z</time></trkpt><trkpt lat="44.155675" lon="11.6187217"><ele>571.0</ele><time>2026-04-18T13:42:30.993Z</time></trkpt><trkpt lat="44.1556783" lon="11.6186333"><ele>571.0</ele><time>2026-04-18T13:42:32.996Z</time></trkpt><trkpt lat="44.1556283" lon="11.6185517"><ele>571.0</ele><time>2026-04-18T13:42:34.994Z</time></trkpt><trkpt lat="44.1555533" lon="11.6185583"><ele>571.0</ele><time>2026-04-18T13:42:36.995Z</time></trkpt><trkpt lat="44.15545" lon="11.61866"><ele>571.0</ele><time>2026-04-18T13:42:38.995Z</time></trkpt><trkpt lat="44.1553983" lon="11.6187383"><ele>571.0</ele><time>2026-04-18T13:42:39.994Z</time></trkpt><trkpt lat="44.155335" lon="11.6188417"><ele>571.0</ele><time>2026-04-18T13:42:40.994Z</time></trkpt><trkpt lat="44.1552533" lon="11.6189433"><ele>571.0</ele><time>2026-04-18T13:42:41.994Z</time></trkpt><trkpt lat="44.1551633" lon="11.6190133"><ele>571.0</ele><time>2026-04-18T13:42:42.993Z</time></trkpt><trkpt lat="44.1550733" lon="11.6190517"><ele>571.0</ele><time>2026-04-18T13:42:43.993Z</time></trkpt><trkpt lat="44.1549883" lon="11.619065"><ele>571.0</ele><time>2026-04-18T13:42:44.994Z</time></trkpt><trkpt lat="44.1548983" lon="11.6190317"><ele>571.0</ele><time>2026-04-18T13:42:45.993Z</time></trkpt><trkpt lat="44.154805" lon="11.618985"><ele>571.0</ele><time>2026-04-18T13:42:46.994Z</time></trkpt><trkpt lat="44.1547183" lon="11.6189233"><ele>571.0</ele><time>2026-04-18T13:42:47.994Z</time></trkpt><trkpt lat="44.1546117" lon="11.6188583"><ele>570.0</ele><time>2026-04-18T13:42:48.995Z</time></trkpt><trkpt lat="44.15452" lon="11.6188017"><ele>569.0</ele><time>2026-04-18T13:42:49.993Z</time></trkpt><trkpt lat="44.1544233" lon="11.6187383"><ele>568.0</ele><time>2026-04-18T13:42:50.993Z</time></trkpt><trkpt lat="44.154345" lon="11.6187067"><ele>567.0</ele><time>2026-04-18T13:42:51.994Z</time></trkpt><trkpt lat="44.1542717" lon="11.6186717"><ele>566.0</ele><time>2026-04-18T13:42:52.994Z</time></trkpt><trkpt lat="44.1542033" lon="11.6186117"><ele>565.0</ele><time>2026-04-18T13:42:53.993Z</time></trkpt><trkpt lat="44.1541483" lon="11.61856"><ele>560.2</ele><time>2026-04-18T13:42:54.993Z</time></trkpt><trkpt lat="44.15417" lon="11.6184683"><ele>555.4</ele><time>2026-04-18T13:42:56.995Z</time></trkpt><trkpt lat="44.1542533" lon="11.6184283"><ele>550.6</ele><time>2026-04-18T13:42:58.993Z</time></trkpt><trkpt lat="44.1543267" lon="11.6184383"><ele>545.8</ele><time>2026-04-18T13:42:59.993Z</time></trkpt><trkpt lat="44.154445" lon="11.6184883"><ele>541.0</ele><time>2026-04-18T13:43:00.994Z</time></trkpt><trkpt lat="44.1545767" lon="11.6185333"><ele>541.0</ele><time>2026-04-18T13:43:01.994Z</time></trkpt><trkpt lat="44.1547083" lon="11.6185483"><ele>541.0</ele><time>2026-04-18T13:43:02.993Z</time></trkpt><trkpt lat="44.1548167" lon="11.6185167"><ele>541.0</ele><time>2026-04-18T13:43:03.995Z</time></trkpt><trkpt lat="44.1548983" lon="11.618455"><ele>541.0</ele><time>2026-04-18T13:43:04.993Z</time></trkpt><trkpt lat="44.1549633" lon="11.6183633"><ele>541.0</ele><time>2026-04-18T13:43:05.994Z</time></trkpt><trkpt lat="44.1550083" lon="11.6182467"><ele>543.25</ele><time>2026-04-18T13:43:06.994Z</time></trkpt><trkpt lat="44.1550417" lon="11.618085"><ele>545.5</ele><time>2026-04-18T13:43:07.993Z</time></trkpt><trkpt lat="44.155075" lon="11.6179183"><ele>547.75</ele><time>2026-04-18T13:43:08.994Z</time></trkpt><trkpt lat="44.1551217" lon="11.6177633"><ele>550.0</ele><time>2026-04-18T13:43:09.994Z</time></trkpt><trkpt lat="44.1551783" lon="11.61762"><ele>545.8</ele><time>2026-04-18T13:43:10.993Z</time></trkpt><trkpt lat="44.1552383" lon="11.6174917"><ele>541.6</ele><time>2026-04-18T13:43:11.994Z</time></trkpt><trkpt lat="44.1553083" lon="11.6173767"><ele>537.4</ele><time>2026-04-18T13:43:12.994Z</time></trkpt><trkpt lat="44.1553767" lon="11.6172683"><ele>533.2</ele><time>2026-04-18T13:43:13.994Z</time></trkpt><trkpt lat="44.1554517" lon="11.6171783"><ele>529.0</ele><time>2026-04-18T13:43:14.994Z</time></trkpt><trkpt lat="44.1555217" lon="11.6170933"><ele>529.0</ele><time>2026-04-18T13:43:15.993Z</time></trkpt><trkpt lat="44.1555817" lon="11.6170217"><ele>529.0</ele><time>2026-04-18T13:43:16.994Z</time></trkpt><trkpt lat="44.1556383" lon="11.61696"><ele>529.0</ele><time>2026-04-18T13:43:17.993Z</time></trkpt><trkpt lat="44.1557133" lon="11.61693"><ele>529.0</ele><time>2026-04-18T13:43:18.994Z</time></trkpt><trkpt lat="44.155795" lon="11.6169033"><ele>529.0</ele><time>2026-04-18T13:43:19.993Z</time></trkpt><trkpt lat="44.1558917" lon="11.6168833"><ele>529.0</ele><time>2026-04-18T13:43:20.994Z</time></trkpt><trkpt lat="44.155985" lon="11.6168467"><ele>527.8333333333334</ele><time>2026-04-18T13:43:21.993Z</time></trkpt><trkpt lat="44.1560767" lon="11.616805"><ele>526.6666666666667</ele><time>2026-04-18T13:43:22.994Z</time></trkpt><trkpt lat="44.15617" lon="11.61677"><ele>525.5</ele><time>2026-04-18T13:43:23.995Z</time></trkpt><trkpt lat="44.1562533" lon="11.6167433"><ele>524.3333333333334</ele><time>2026-04-18T13:43:24.994Z</time></trkpt><trkpt lat="44.156325" lon="11.6167483"><ele>523.1666666666666</ele><time>2026-04-18T13:43:25.994Z</time></trkpt><trkpt lat="44.1563917" lon="11.6167867"><ele>522.0</ele><time>2026-04-18T13:43:26.993Z</time></trkpt><trkpt lat="44.1564667" lon="11.61685"><ele>522.0</ele><time>2026-04-18T13:43:27.993Z</time></trkpt><trkpt lat="44.1565283" lon="11.6169467"><ele>522.0</ele><time>2026-04-18T13:43:28.993Z</time></trkpt><trkpt lat="44.156585" lon="11.6170533"><ele>522.0</ele><time>2026-04-18T13:43:29.995Z</time></trkpt><trkpt lat="44.1566217" lon="11.6172"><ele>522.0</ele><time>2026-04-18T13:43:30.993Z</time></trkpt><trkpt lat="44.1566633" lon="11.6173417"><ele>522.0</ele><time>2026-04-18T13:43:31.992Z</time></trkpt><trkpt lat="44.1567183" lon="11.6174883"><ele>522.5</ele><time>2026-04-18T13:43:32.993Z</time></trkpt><trkpt lat="44.1567783" lon="11.61763"><ele>523.0</ele><time>2026-04-18T13:43:33.994Z</time></trkpt><trkpt lat="44.1568433" lon="11.617775"><ele>523.5</ele><time>2026-04-18T13:43:34.994Z</time></trkpt><trkpt lat="44.1569083" lon="11.617925"><ele>524.0</ele><time>2026-04-18T13:43:35.993Z</time></trkpt><trkpt lat="44.1569683" lon="11.61807"><ele>523.2</ele><time>2026-04-18T13:43:36.993Z</time></trkpt><trkpt lat="44.1570233" lon="11.61819"><ele>522.4</ele><time>2026-04-18T13:43:37.993Z</time></trkpt><trkpt lat="44.1570583" lon="11.6182817"><ele>521.6</ele><time>2026-04-18T13:43:38.993Z</time></trkpt><trkpt lat="44.15714" lon="11.6183833"><ele>520.8</ele><time>2026-04-18T13:43:40.994Z</time></trkpt><trkpt lat="44.1572583" lon="11.6183567"><ele>520.0</ele><time>2026-04-18T13:43:42.993Z</time></trkpt><trkpt lat="44.1574033" lon="11.6182067"><ele>520.0</ele><time>2026-04-18T13:43:44.994Z</time></trkpt><trkpt lat="44.15749" lon="11.61812"><ele>520.0</ele><time>2026-04-18T13:43:45.993Z</time></trkpt><trkpt lat="44.1575633" lon="11.6180483"><ele>520.0</ele><time>2026-04-18T13:43:46.993Z</time></trkpt><trkpt lat="44.157635" lon="11.617995"><ele>520.0</ele><time>2026-04-18T13:43:47.994Z</time></trkpt><trkpt lat="44.15773" lon="11.6179767"><ele>520.0</ele><time>2026-04-18T13:43:48.994Z</time></trkpt><trkpt lat="44.157805" lon="11.6179767"><ele>520.0</ele><time>2026-04-18T13:43:49.993Z</time></trkpt><trkpt lat="44.1578767" lon="11.6180167"><ele>520.0</ele><time>2026-04-18T13:43:50.994Z</time></trkpt><trkpt lat="44.157955" lon="11.61806"><ele>520.0</ele><time>2026-04-18T13:43:51.993Z</time></trkpt><trkpt lat="44.1580517" lon="11.6181417"><ele>520.0</ele><time>2026-04-18T13:43:52.993Z</time></trkpt><trkpt lat="44.15817" lon="11.6182533"><ele>520.0</ele><time>2026-04-18T13:43:53.995Z</time></trkpt><trkpt lat="44.158275" lon="11.6183733"><ele>519.4</ele><time>2026-04-18T13:43:54.993Z</time></trkpt><trkpt lat="44.158345" lon="11.6185033"><ele>518.8</ele><time>2026-04-18T13:43:55.993Z</time></trkpt><trkpt lat="44.1584167" lon="11.6186217"><ele>518.2</ele><time>2026-04-18T13:43:56.993Z</time></trkpt><trkpt lat="44.1584917" lon="11.6187283"><ele>517.6</ele><time>2026-04-18T13:43:57.993Z</time></trkpt><trkpt lat="44.1585767" lon="11.6188167"><ele>517.0</ele><time>2026-04-18T13:43:58.993Z</time></trkpt><trkpt lat="44.1586717" lon="11.6188833"><ele>517.0</ele><time>2026-04-18T13:43:59.994Z</time></trkpt><trkpt lat="44.1587667" lon="11.6189483"><ele>517.0</ele><time>2026-04-18T13:44:00.994Z</time></trkpt><trkpt lat="44.15886" lon="11.619035"><ele>517.0</ele><time>2026-04-18T13:44:01.993Z</time></trkpt><trkpt lat="44.15894" lon="11.6191283"><ele>517.0</ele><time>2026-04-18T13:44:02.994Z</time></trkpt><trkpt lat="44.1590067" lon="11.61925"><ele>517.0</ele><time>2026-04-18T13:44:03.993Z</time></trkpt><trkpt lat="44.1590683" lon="11.61939"><ele>512.4</ele><time>2026-04-18T13:44:04.993Z</time></trkpt><trkpt lat="44.1591317" lon="11.6195183"><ele>507.80000000000007</ele><time>2026-04-18T13:44:05.993Z</time></trkpt><trkpt lat="44.1592017" lon="11.6196567"><ele>503.2</ele><time>2026-04-18T13:44:06.995Z</time></trkpt><trkpt lat="44.15926" lon="11.6197883"><ele>498.6</ele><time>2026-04-18T13:44:07.994Z</time></trkpt><trkpt lat="44.1593083" lon="11.6199117"><ele>494.0</ele><time>2026-04-18T13:44:08.994Z</time></trkpt><trkpt lat="44.15935" lon="11.6200167"><ele>493.99999999999994</ele><time>2026-04-18T13:44:09.994Z</time></trkpt><trkpt lat="44.1594017" lon="11.6200983"><ele>494.0</ele><time>2026-04-18T13:44:10.995Z</time></trkpt><trkpt lat="44.15945" lon="11.62016"><ele>494.0</ele><time>2026-04-18T13:44:11.993Z</time></trkpt><trkpt lat="44.159515" lon="11.6202183"><ele>494.0</ele><time>2026-04-18T13:44:12.993Z</time></trkpt><trkpt lat="44.1595783" lon="11.6202767"><ele>493.99999999999994</ele><time>2026-04-18T13:44:13.993Z</time></trkpt><trkpt lat="44.1596433" lon="11.620365"><ele>494.0</ele><time>2026-04-18T13:44:14.995Z</time></trkpt><trkpt lat="44.1597017" lon="11.6204783"><ele>496.0</ele><time>2026-04-18T13:44:15.994Z</time></trkpt><trkpt lat="44.15976" lon="11.6206133"><ele>498.0</ele><time>2026-04-18T13:44:16.993Z</time></trkpt><trkpt lat="44.1598083" lon="11.62075"><ele>500.0</ele><time>2026-04-18T13:44:17.993Z</time></trkpt><trkpt lat="44.15984" lon="11.6208783"><ele>502.0</ele><time>2026-04-18T13:44:18.995Z</time></trkpt><trkpt lat="44.1598567" lon="11.62099"><ele>504.0</ele><time>2026-04-18T13:44:19.993Z</time></trkpt><trkpt lat="44.1598617" lon="11.6210883"><ele>502.1666666666667</ele><time>2026-04-18T13:44:20.993Z</time></trkpt><trkpt lat="44.1598267" lon="11.621175"><ele>500.33333333333337</ele><time>2026-04-18T13:44:21.994Z</time></trkpt><trkpt lat="44.1597567" lon="11.6212483"><ele>498.5</ele><time>2026-04-18T13:44:22.995Z</time></trkpt><trkpt lat="44.1597" lon="11.6213217"><ele>496.6666666666667</ele><time>2026-04-18T13:44:23.993Z</time></trkpt><trkpt lat="44.1596567" lon="11.6213967"><ele>494.83333333333337</ele><time>2026-04-18T13:44:24.994Z</time></trkpt><trkpt lat="44.159625" lon="11.6215317"><ele>493.0</ele><time>2026-04-18T13:44:26.995Z</time></trkpt><trkpt lat="44.159675" lon="11.6216183"><ele>493.0</ele><time>2026-04-18T13:44:28.993Z</time></trkpt><trkpt lat="44.1598283" lon="11.6215983"><ele>492.99999999999994</ele><time>2026-04-18T13:44:30.993Z</time></trkpt><trkpt lat="44.1599117" lon="11.62157"><ele>492.99999999999994</ele><time>2026-04-18T13:44:31.992Z</time></trkpt><trkpt lat="44.1600017" lon="11.621555"><ele>493.0</ele><time>2026-04-18T13:44:32.993Z</time></trkpt><trkpt lat="44.160085" lon="11.62155"><ele>493.0</ele><time>2026-04-18T13:44:33.993Z</time></trkpt><trkpt lat="44.1601683" lon="11.6215733"><ele>488.2</ele><time>2026-04-18T13:44:34.994Z</time></trkpt><trkpt lat="44.1602367" lon="11.6216167"><ele>483.4</ele><time>2026-04-18T13:44:35.993Z</time></trkpt><trkpt lat="44.1603167" lon="11.6216833"><ele>478.59999999999997</ele><time>2026-04-18T13:44:36.993Z</time></trkpt><trkpt lat="44.1604117" lon="11.6217483"><ele>473.79999999999995</ele><time>2026-04-18T13:44:37.993Z</time></trkpt><trkpt lat="44.160515" lon="11.6217983"><ele>469.0</ele><time>2026-04-18T13:44:38.993Z</time></trkpt><trkpt lat="44.1606183" lon="11.62185"><ele>467.79999999999995</ele><time>2026-04-18T13:44:39.994Z</time></trkpt><trkpt lat="44.16072" lon="11.6218817"><ele>466.59999999999997</ele><time>2026-04-18T13:44:40.994Z</time></trkpt><trkpt lat="44.16082" lon="11.62193"><ele>465.4</ele><time>2026-04-18T13:44:41.994Z</time></trkpt><trkpt lat="44.160905" lon="11.621995"><ele>464.2</ele><time>2026-04-18T13:44:42.993Z</time></trkpt><trkpt lat="44.1609883" lon="11.62207"><ele>463.0</ele><time>2026-04-18T13:44:43.993Z</time></trkpt><trkpt lat="44.1610733" lon="11.62212"><ele>463.0</ele><time>2026-04-18T13:44:44.994Z</time></trkpt><trkpt lat="44.1611617" lon="11.622145"><ele>462.99999999999994</ele><time>2026-04-18T13:44:45.993Z</time></trkpt><trkpt lat="44.1612617" lon="11.6221517"><ele>462.99999999999994</ele><time>2026-04-18T13:44:46.993Z</time></trkpt><trkpt lat="44.1613617" lon="11.62216"><ele>463.0</ele><time>2026-04-18T13:44:47.993Z</time></trkpt><trkpt lat="44.1614533" lon="11.6221833"><ele>463.0</ele><time>2026-04-18T13:44:48.993Z</time></trkpt><trkpt lat="44.1615333" lon="11.6222383"><ele>461.59999999999997</ele><time>2026-04-18T13:44:49.994Z</time></trkpt><trkpt lat="44.161605" lon="11.6223083"><ele>460.19999999999993</ele><time>2026-04-18T13:44:50.994Z</time></trkpt><trkpt lat="44.161665" lon="11.6224017"><ele>458.8</ele><time>2026-04-18T13:44:51.994Z</time></trkpt><trkpt lat="44.16169" lon="11.6225317"><ele>457.4</ele><time>2026-04-18T13:44:52.993Z</time></trkpt><trkpt lat="44.16171" lon="11.6226883"><ele>456.0</ele><time>2026-04-18T13:44:53.993Z</time></trkpt><trkpt lat="44.1617233" lon="11.6228433"><ele>456.0</ele><time>2026-04-18T13:44:54.993Z</time></trkpt><trkpt lat="44.1617383" lon="11.6229917"><ele>456.0</ele><time>2026-04-18T13:44:55.993Z</time></trkpt><trkpt lat="44.16175" lon="11.623105"><ele>456.0</ele><time>2026-04-18T13:44:56.994Z</time></trkpt><trkpt lat="44.1617717" lon="11.6232017"><ele>456.0</ele><time>2026-04-18T13:44:57.994Z</time></trkpt><trkpt lat="44.161805" lon="11.623285"><ele>456.0</ele><time>2026-04-18T13:44:58.994Z</time></trkpt><trkpt lat="44.1618983" lon="11.6233767"><ele>456.0</ele><time>2026-04-18T13:45:00.994Z</time></trkpt><trkpt lat="44.16197" lon="11.6234017"><ele>456.0</ele><time>2026-04-18T13:45:01.994Z</time></trkpt><trkpt lat="44.16204" lon="11.6234367"><ele>456.0</ele><time>2026-04-18T13:45:02.994Z</time></trkpt><trkpt lat="44.1621083" lon="11.6234917"><ele>456.0</ele><time>2026-04-18T13:45:03.993Z</time></trkpt><trkpt lat="44.1621667" lon="11.623595"><ele>456.0</ele><time>2026-04-18T13:45:04.994Z</time></trkpt><trkpt lat="44.1622083" lon="11.6237283"><ele>456.0</ele><time>2026-04-18T13:45:05.993Z</time></trkpt><trkpt lat="44.1622367" lon="11.6238517"><ele>456.0</ele><time>2026-04-18T13:45:06.993Z</time></trkpt><trkpt lat="44.162265" lon="11.6239783"><ele>457.4</ele><time>2026-04-18T13:45:07.992Z</time></trkpt><trkpt lat="44.1623" lon="11.6240967"><ele>458.8</ele><time>2026-04-18T13:45:08.993Z</time></trkpt><trkpt lat="44.1623367" lon="11.6242067"><ele>460.19999999999993</ele><time>2026-04-18T13:45:09.994Z</time></trkpt><trkpt lat="44.1623817" lon="11.624305"><ele>461.59999999999997</ele><time>2026-04-18T13:45:10.993Z</time></trkpt><trkpt lat="44.162445" lon="11.62439"><ele>463.0</ele><time>2026-04-18T13:45:11.993Z</time></trkpt><trkpt lat="44.16253" lon="11.6244767"><ele>459.2</ele><time>2026-04-18T13:45:12.993Z</time></trkpt><trkpt lat="44.1626067" lon="11.6245633"><ele>455.4</ele><time>2026-04-18T13:45:13.993Z</time></trkpt><trkpt lat="44.162685" lon="11.6246433"><ele>451.59999999999997</ele><time>2026-04-18T13:45:14.994Z</time></trkpt><trkpt lat="44.16277" lon="11.624715"><ele>447.79999999999995</ele><time>2026-04-18T13:45:15.994Z</time></trkpt><trkpt lat="44.16286" lon="11.62477"><ele>444.0</ele><time>2026-04-18T13:45:16.993Z</time></trkpt><trkpt lat="44.1629667" lon="11.624795"><ele>444.0</ele><time>2026-04-18T13:45:17.993Z</time></trkpt><trkpt lat="44.1630767" lon="11.6247983"><ele>444.0</ele><time>2026-04-18T13:45:18.993Z</time></trkpt><trkpt lat="44.163195" lon="11.6247867"><ele>444.0</ele><time>2026-04-18T13:45:19.994Z</time></trkpt><trkpt lat="44.1633117" lon="11.624775"><ele>444.0</ele><time>2026-04-18T13:45:20.993Z</time></trkpt><trkpt lat="44.16343" lon="11.6247767"><ele>442.25</ele><time>2026-04-18T13:45:21.995Z</time></trkpt><trkpt lat="44.16355" lon="11.624765"><ele>440.5</ele><time>2026-04-18T13:45:22.993Z</time></trkpt><trkpt lat="44.163675" lon="11.6247517"><ele>438.75</ele><time>2026-04-18T13:45:23.993Z</time></trkpt><trkpt lat="44.1638033" lon="11.62474"><ele>437.0</ele><time>2026-04-18T13:45:24.994Z</time></trkpt><trkpt lat="44.1639167" lon="11.6247367"><ele>437.0</ele><time>2026-04-18T13:45:25.998Z</time></trkpt><trkpt lat="44.1640217" lon="11.6247467"><ele>437.00000000000006</ele><time>2026-04-18T13:45:26.994Z</time></trkpt><trkpt lat="44.1641217" lon="11.6247883"><ele>437.00000000000006</ele><time>2026-04-18T13:45:27.993Z</time></trkpt><trkpt lat="44.1642" lon="11.624865"><ele>437.0</ele><time>2026-04-18T13:45:28.995Z</time></trkpt><trkpt lat="44.1642683" lon="11.6249767"><ele>437.0</ele><time>2026-04-18T13:45:29.993Z</time></trkpt><trkpt lat="44.1643367" lon="11.6251133"><ele>437.25</ele><time>2026-04-18T13:45:30.994Z</time></trkpt><trkpt lat="44.1644" lon="11.6252517"><ele>437.5</ele><time>2026-04-18T13:45:31.993Z</time></trkpt><trkpt lat="44.16447" lon="11.6253867"><ele>437.75</ele><time>2026-04-18T13:45:32.993Z</time></trkpt><trkpt lat="44.16454" lon="11.6255167"><ele>438.0</ele><time>2026-04-18T13:45:33.993Z</time></trkpt><trkpt lat="44.16461" lon="11.6256467"><ele>437.4</ele><time>2026-04-18T13:45:34.993Z</time></trkpt><trkpt lat="44.164675" lon="11.625775"><ele>436.79999999999995</ele><time>2026-04-18T13:45:35.994Z</time></trkpt><trkpt lat="44.1647317" lon="11.6258967"><ele>436.2</ele><time>2026-04-18T13:45:36.993Z</time></trkpt><trkpt lat="44.1647967" lon="11.6260083"><ele>435.6</ele><time>2026-04-18T13:45:37.993Z</time></trkpt><trkpt lat="44.1648717" lon="11.62609"><ele>435.0</ele><time>2026-04-18T13:45:38.993Z</time></trkpt><trkpt lat="44.1649417" lon="11.6261533"><ele>435.0</ele><time>2026-04-18T13:45:39.993Z</time></trkpt><trkpt lat="44.1650183" lon="11.6261917"><ele>435.0</ele><time>2026-04-18T13:45:40.994Z</time></trkpt><trkpt lat="44.1651" lon="11.62618"><ele>435.0</ele><time>2026-04-18T13:45:41.992Z</time></trkpt><trkpt lat="44.165175" lon="11.626125"><ele>435.0</ele><time>2026-04-18T13:45:42.993Z</time></trkpt><trkpt lat="44.1652433" lon="11.62604"><ele>435.0</ele><time>2026-04-18T13:45:43.992Z</time></trkpt><trkpt lat="44.1653133" lon="11.6259583"><ele>435.0</ele><time>2026-04-18T13:45:44.995Z</time></trkpt><trkpt lat="44.1653883" lon="11.6259083"><ele>435.0</ele><time>2026-04-18T13:45:45.992Z</time></trkpt><trkpt lat="44.1654567" lon="11.625855"><ele>435.0</ele><time>2026-04-18T13:45:46.994Z</time></trkpt><trkpt lat="44.16553" lon="11.6258517"><ele>435.0</ele><time>2026-04-18T13:45:47.994Z</time></trkpt><trkpt lat="44.165605" lon="11.625895"><ele>435.0</ele><time>2026-04-18T13:45:48.994Z</time></trkpt><trkpt lat="44.165675" lon="11.6259583"><ele>435.0</ele><time>2026-04-18T13:45:49.996Z</time></trkpt><trkpt lat="44.16575" lon="11.626035"><ele>435.0</ele><time>2026-04-18T13:45:50.993Z</time></trkpt><trkpt lat="44.16583" lon="11.6261183"><ele>432.8</ele><time>2026-04-18T13:45:51.992Z</time></trkpt><trkpt lat="44.165915" lon="11.6262117"><ele>430.6</ele><time>2026-04-18T13:45:52.993Z</time></trkpt><trkpt lat="44.1660017" lon="11.6262933"><ele>428.4</ele><time>2026-04-18T13:45:53.994Z</time></trkpt><trkpt lat="44.1660967" lon="11.6263733"><ele>426.2</ele><time>2026-04-18T13:45:54.993Z</time></trkpt><trkpt lat="44.16619" lon="11.626475"><ele>424.0</ele><time>2026-04-18T13:45:55.993Z</time></trkpt><trkpt lat="44.166275" lon="11.62658"><ele>424.0</ele><time>2026-04-18T13:45:56.993Z</time></trkpt><trkpt lat="44.1663617" lon="11.6266933"><ele>424.0</ele><time>2026-04-18T13:45:57.993Z</time></trkpt><trkpt lat="44.16646" lon="11.6268"><ele>424.0</ele><time>2026-04-18T13:45:58.993Z</time></trkpt><trkpt lat="44.1665583" lon="11.626915"><ele>424.0</ele><time>2026-04-18T13:45:59.993Z</time></trkpt><trkpt lat="44.1666533" lon="11.6270283"><ele>422.0</ele><time>2026-04-18T13:46:00.994Z</time></trkpt><trkpt lat="44.1667383" lon="11.6271317"><ele>420.0</ele><time>2026-04-18T13:46:01.993Z</time></trkpt><trkpt lat="44.1668067" lon="11.627225"><ele>418.0</ele><time>2026-04-18T13:46:02.993Z</time></trkpt><trkpt lat="44.1668583" lon="11.6273167"><ele>416.0</ele><time>2026-04-18T13:46:03.993Z</time></trkpt><trkpt lat="44.16689" lon="11.6274167"><ele>414.0</ele><time>2026-04-18T13:46:04.995Z</time></trkpt><trkpt lat="44.1669033" lon="11.627535"><ele>414.0</ele><time>2026-04-18T13:46:05.995Z</time></trkpt><trkpt lat="44.1668817" lon="11.6276883"><ele>414.0</ele><time>2026-04-18T13:46:06.995Z</time></trkpt><trkpt lat="44.166805" lon="11.6278683"><ele>414.0</ele><time>2026-04-18T13:46:07.994Z</time></trkpt><trkpt lat="44.1667383" lon="11.6280367"><ele>414.0</ele><time>2026-04-18T13:46:08.992Z</time></trkpt><trkpt lat="44.1666817" lon="11.6281983"><ele>414.0</ele><time>2026-04-18T13:46:09.993Z</time></trkpt><trkpt lat="44.1666267" lon="11.6283483"><ele>414.0</ele><time>2026-04-18T13:46:10.994Z</time></trkpt><trkpt lat="44.16657" lon="11.628495"><ele>414.0</ele><time>2026-04-18T13:46:11.993Z</time></trkpt><trkpt lat="44.1665233" lon="11.6286333"><ele>414.0</ele><time>2026-04-18T13:46:12.993Z</time></trkpt><trkpt lat="44.1664933" lon="11.628765"><ele>414.0</ele><time>2026-04-18T13:46:13.994Z</time></trkpt><trkpt lat="44.16648" lon="11.6289017"><ele>414.0</ele><time>2026-04-18T13:46:14.993Z</time></trkpt><trkpt lat="44.166485" lon="11.629045"><ele>414.0</ele><time>2026-04-18T13:46:15.994Z</time></trkpt><trkpt lat="44.16653" lon="11.6291683"><ele>414.0</ele><time>2026-04-18T13:46:16.994Z</time></trkpt><trkpt lat="44.1666033" lon="11.62928"><ele>414.0</ele><time>2026-04-18T13:46:17.994Z</time></trkpt><trkpt lat="44.166695" lon="11.6293933"><ele>414.0</ele><time>2026-04-18T13:46:18.994Z</time></trkpt><trkpt lat="44.166795" lon="11.6295133"><ele>415.25</ele><time>2026-04-18T13:46:19.993Z</time></trkpt><trkpt lat="44.1668933" lon="11.6296233"><ele>416.5</ele><time>2026-04-18T13:46:20.995Z</time></trkpt><trkpt lat="44.1669967" lon="11.62972"><ele>417.75</ele><time>2026-04-18T13:46:21.992Z</time></trkpt><trkpt lat="44.1671083" lon="11.6298033"><ele>419.0</ele><time>2026-04-18T13:46:22.993Z</time></trkpt><trkpt lat="44.1672317" lon="11.6298733"><ele>419.0</ele><time>2026-04-18T13:46:23.994Z</time></trkpt><trkpt lat="44.1673583" lon="11.629915"><ele>419.0</ele><time>2026-04-18T13:46:24.995Z</time></trkpt><trkpt lat="44.1674933" lon="11.629945"><ele>419.0</ele><time>2026-04-18T13:46:25.994Z</time></trkpt><trkpt lat="44.1676267" lon="11.629975"><ele>419.0</ele><time>2026-04-18T13:46:26.993Z</time></trkpt><trkpt lat="44.1677533" lon="11.6300033"><ele>417.0</ele><time>2026-04-18T13:46:27.994Z</time></trkpt><trkpt lat="44.167885" lon="11.6300167"><ele>415.0</ele><time>2026-04-18T13:46:28.993Z</time></trkpt><trkpt lat="44.1680283" lon="11.63001"><ele>413.0</ele><time>2026-04-18T13:46:29.995Z</time></trkpt><trkpt lat="44.1681733" lon="11.62999"><ele>411.0</ele><time>2026-04-18T13:46:30.994Z</time></trkpt><trkpt lat="44.1683167" lon="11.629965"><ele>410.0</ele><time>2026-04-18T13:46:31.992Z</time></trkpt><trkpt lat="44.1684633" lon="11.6299433"><ele>409.0</ele><time>2026-04-18T13:46:32.994Z</time></trkpt><trkpt lat="44.1686117" lon="11.6299317"><ele>408.0</ele><time>2026-04-18T13:46:33.993Z</time></trkpt><trkpt lat="44.1687617" lon="11.6299433"><ele>407.0</ele><time>2026-04-18T13:46:34.994Z</time></trkpt><trkpt lat="44.1689067" lon="11.62997"><ele>408.0</ele><time>2026-04-18T13:46:35.993Z</time></trkpt><trkpt lat="44.16904" lon="11.62999"><ele>409.0</ele><time>2026-04-18T13:46:36.993Z</time></trkpt><trkpt lat="44.16916" lon="11.6300183"><ele>410.0</ele><time>2026-04-18T13:46:37.993Z</time></trkpt><trkpt lat="44.1692667" lon="11.63004"><ele>411.0</ele><time>2026-04-18T13:46:38.995Z</time></trkpt><trkpt lat="44.1693567" lon="11.6300967"><ele>411.0</ele><time>2026-04-18T13:46:39.994Z</time></trkpt><trkpt lat="44.1694133" lon="11.630185"><ele>411.0</ele><time>2026-04-18T13:46:40.993Z</time></trkpt><trkpt lat="44.1694617" lon="11.6302933"><ele>411.0</ele><time>2026-04-18T13:46:41.993Z</time></trkpt><trkpt lat="44.1694783" lon="11.6304433"><ele>411.0</ele><time>2026-04-18T13:46:42.993Z</time></trkpt><trkpt lat="44.1694783" lon="11.6306383"><ele>411.0</ele><time>2026-04-18T13:46:43.994Z</time></trkpt><trkpt lat="44.1694883" lon="11.6308167"><ele>408.25</ele><time>2026-04-18T13:46:44.993Z</time></trkpt><trkpt lat="44.16949" lon="11.6309983"><ele>405.5</ele><time>2026-04-18T13:46:45.992Z</time></trkpt><trkpt lat="44.1694933" lon="11.6311717"><ele>402.75</ele><time>2026-04-18T13:46:46.992Z</time></trkpt><trkpt lat="44.1694933" lon="11.6313367"><ele>400.0</ele><time>2026-04-18T13:46:47.993Z</time></trkpt><trkpt lat="44.1694917" lon="11.6315"><ele>400.00000000000006</ele><time>2026-04-18T13:46:48.993Z</time></trkpt><trkpt lat="44.16949" lon="11.63166"><ele>400.0</ele><time>2026-04-18T13:46:49.993Z</time></trkpt><trkpt lat="44.1694933" lon="11.6317967"><ele>400.0</ele><time>2026-04-18T13:46:50.995Z</time></trkpt><trkpt lat="44.1695083" lon="11.6319133"><ele>400.0</ele><time>2026-04-18T13:46:51.992Z</time></trkpt><trkpt lat="44.16954" lon="11.63201"><ele>400.00000000000006</ele><time>2026-04-18T13:46:52.993Z</time></trkpt><trkpt lat="44.169585" lon="11.6320817"><ele>400.0</ele><time>2026-04-18T13:46:53.993Z</time></trkpt><trkpt lat="44.1696517" lon="11.63213"><ele>400.2</ele><time>2026-04-18T13:46:54.993Z</time></trkpt><trkpt lat="44.16974" lon="11.6321567"><ele>400.4</ele><time>2026-04-18T13:46:55.993Z</time></trkpt><trkpt lat="44.1698583" lon="11.6321583"><ele>400.6</ele><time>2026-04-18T13:46:56.998Z</time></trkpt><trkpt lat="44.1699733" lon="11.6321483"><ele>400.8</ele><time>2026-04-18T13:46:57.992Z</time></trkpt><trkpt lat="44.1700817" lon="11.6321317"><ele>401.0</ele><time>2026-04-18T13:46:58.993Z</time></trkpt><trkpt lat="44.170195" lon="11.6321267"><ele>401.0</ele><time>2026-04-18T13:46:59.993Z</time></trkpt><trkpt lat="44.1703217" lon="11.6321333"><ele>401.0</ele><time>2026-04-18T13:47:00.993Z</time></trkpt><trkpt lat="44.1704583" lon="11.632135"><ele>401.0</ele><time>2026-04-18T13:47:01.993Z</time></trkpt><trkpt lat="44.170605" lon="11.6321367"><ele>401.0</ele><time>2026-04-18T13:47:02.994Z</time></trkpt><trkpt lat="44.1707517" lon="11.6321417"><ele>400.25</ele><time>2026-04-18T13:47:03.993Z</time></trkpt><trkpt lat="44.1709033" lon="11.63215"><ele>399.5</ele><time>2026-04-18T13:47:04.994Z</time></trkpt><trkpt lat="44.171055" lon="11.63215"><ele>398.75</ele><time>2026-04-18T13:47:05.993Z</time></trkpt><trkpt lat="44.1712" lon="11.63216"><ele>398.0</ele><time>2026-04-18T13:47:06.992Z</time></trkpt><trkpt lat="44.17134" lon="11.6321833"><ele>398.0</ele><time>2026-04-18T13:47:07.992Z</time></trkpt><trkpt lat="44.1714733" lon="11.6322283"><ele>398.0</ele><time>2026-04-18T13:47:08.992Z</time></trkpt><trkpt lat="44.1715933" lon="11.632305"><ele>398.0</ele><time>2026-04-18T13:47:09.994Z</time></trkpt><trkpt lat="44.17171" lon="11.6323967"><ele>398.0</ele><time>2026-04-18T13:47:10.994Z</time></trkpt><trkpt lat="44.17183" lon="11.632485"><ele>398.75</ele><time>2026-04-18T13:47:11.993Z</time></trkpt><trkpt lat="44.1719567" lon="11.6325583"><ele>399.5</ele><time>2026-04-18T13:47:12.993Z</time></trkpt><trkpt lat="44.1720967" lon="11.63263"><ele>400.25</ele><time>2026-04-18T13:47:13.993Z</time></trkpt><trkpt lat="44.17225" lon="11.6327067"><ele>401.0</ele><time>2026-04-18T13:47:14.994Z</time></trkpt><trkpt lat="44.1723967" lon="11.6327817"><ele>398.5</ele><time>2026-04-18T13:47:15.992Z</time></trkpt><trkpt lat="44.1725267" lon="11.6328667"><ele>396.0</ele><time>2026-04-18T13:47:16.993Z</time></trkpt><trkpt lat="44.1726333" lon="11.632975"><ele>393.5</ele><time>2026-04-18T13:47:17.993Z</time></trkpt><trkpt lat="44.1727167" lon="11.63311"><ele>391.0</ele><time>2026-04-18T13:47:18.993Z</time></trkpt><trkpt lat="44.1727917" lon="11.6332733"><ele>391.0</ele><time>2026-04-18T13:47:19.993Z</time></trkpt><trkpt lat="44.1728617" lon="11.6334367"><ele>391.0</ele><time>2026-04-18T13:47:20.994Z</time></trkpt><trkpt lat="44.1729367" lon="11.63358"><ele>391.0</ele><time>2026-04-18T13:47:21.994Z</time></trkpt><trkpt lat="44.1730317" lon="11.633705"><ele>391.0</ele><time>2026-04-18T13:47:22.992Z</time></trkpt><trkpt lat="44.1731433" lon="11.6338217"><ele>391.0</ele><time>2026-04-18T13:47:23.993Z</time></trkpt><trkpt lat="44.1732583" lon="11.633925"><ele>391.0</ele><time>2026-04-18T13:47:24.993Z</time></trkpt><trkpt lat="44.173365" lon="11.6340417"><ele>391.0</ele><time>2026-04-18T13:47:25.993Z</time></trkpt><trkpt lat="44.1734433" lon="11.6341817"><ele>391.0</ele><time>2026-04-18T13:47:26.993Z</time></trkpt><trkpt lat="44.1735183" lon="11.63434"><ele>387.25</ele><time>2026-04-18T13:47:27.992Z</time></trkpt><trkpt lat="44.1735933" lon="11.634505"><ele>383.5</ele><time>2026-04-18T13:47:28.994Z</time></trkpt><trkpt lat="44.17368" lon="11.6346717"><ele>379.75</ele><time>2026-04-18T13:47:29.992Z</time></trkpt><trkpt lat="44.1737817" lon="11.6348317"><ele>376.0</ele><time>2026-04-18T13:47:30.993Z</time></trkpt><trkpt lat="44.1738883" lon="11.6349917"><ele>376.0</ele><time>2026-04-18T13:47:31.994Z</time></trkpt><trkpt lat="44.17401" lon="11.6351533"><ele>376.0</ele><time>2026-04-18T13:47:32.993Z</time></trkpt><trkpt lat="44.1741333" lon="11.6353167"><ele>376.0</ele><time>2026-04-18T13:47:33.994Z</time></trkpt><trkpt lat="44.1742533" lon="11.6354933"><ele>377.66666666666663</ele><time>2026-04-18T13:47:34.994Z</time></trkpt><trkpt lat="44.1743633" lon="11.63569"><ele>379.3333333333333</ele><time>2026-04-18T13:47:35.992Z</time></trkpt><trkpt lat="44.1744733" lon="11.6359"><ele>381.0</ele><time>2026-04-18T13:47:36.993Z</time></trkpt><trkpt lat="44.174575" lon="11.6361067"><ele>383.66666666666663</ele><time>2026-04-18T13:47:37.993Z</time></trkpt><trkpt lat="44.1746733" lon="11.63631"><ele>386.3333333333333</ele><time>2026-04-18T13:47:38.994Z</time></trkpt><trkpt lat="44.1747767" lon="11.636495"><ele>389.0</ele><time>2026-04-18T13:47:39.992Z</time></trkpt><trkpt lat="44.174885" lon="11.6366483"><ele>389.0</ele><time>2026-04-18T13:47:40.995Z</time></trkpt><trkpt lat="44.1749867" lon="11.6367767"><ele>389.0</ele><time>2026-04-18T13:47:41.993Z</time></trkpt><trkpt lat="44.1750633" lon="11.6368967"><ele>389.0</ele><time>2026-04-18T13:47:42.994Z</time></trkpt><trkpt lat="44.175115" lon="11.6370167"><ele>389.0</ele><time>2026-04-18T13:47:43.993Z</time></trkpt><trkpt lat="44.17515" lon="11.6371417"><ele>389.0</ele><time>2026-04-18T13:47:44.994Z</time></trkpt><trkpt lat="44.17516" lon="11.6372633"><ele>387.75</ele><time>2026-04-18T13:47:45.994Z</time></trkpt><trkpt lat="44.17512" lon="11.6373783"><ele>386.5</ele><time>2026-04-18T13:47:46.992Z</time></trkpt><trkpt lat="44.1750233" lon="11.637475"><ele>385.25</ele><time>2026-04-18T13:47:47.993Z</time></trkpt><trkpt lat="44.17491" lon="11.637575"><ele>384.0</ele><time>2026-04-18T13:47:48.993Z</time></trkpt><trkpt lat="44.1748" lon="11.6376717"><ele>382.5</ele><time>2026-04-18T13:47:49.993Z</time></trkpt><trkpt lat="44.1747133" lon="11.637765"><ele>381.0</ele><time>2026-04-18T13:47:50.995Z</time></trkpt><trkpt lat="44.174655" lon="11.637855"><ele>379.5</ele><time>2026-04-18T13:47:51.993Z</time></trkpt><trkpt lat="44.1746283" lon="11.6379583"><ele>378.0</ele><time>2026-04-18T13:47:52.995Z</time></trkpt><trkpt lat="44.1746217" lon="11.6380667"><ele>376.5</ele><time>2026-04-18T13:47:53.993Z</time></trkpt><trkpt lat="44.1746633" lon="11.6381717"><ele>375.0</ele><time>2026-04-18T13:47:54.993Z</time></trkpt><trkpt lat="44.174735" lon="11.6382717"><ele>375.0</ele><time>2026-04-18T13:47:55.994Z</time></trkpt><trkpt lat="44.174825" lon="11.6383783"><ele>375.0</ele><time>2026-04-18T13:47:56.994Z</time></trkpt><trkpt lat="44.1749883" lon="11.6384917"><ele>375.0</ele><time>2026-04-18T13:47:57.993Z</time></trkpt><trkpt lat="44.1751233" lon="11.6386067"><ele>373.3333333333333</ele><time>2026-04-18T13:47:58.993Z</time></trkpt><trkpt lat="44.1752617" lon="11.6387233"><ele>371.66666666666663</ele><time>2026-04-18T13:47:59.994Z</time></trkpt><trkpt lat="44.1754133" lon="11.6388383"><ele>370.0</ele><time>2026-04-18T13:48:00.994Z</time></trkpt><trkpt lat="44.1755567" lon="11.6389333"><ele>370.0</ele><time>2026-04-18T13:48:01.993Z</time></trkpt><trkpt lat="44.1756733" lon="11.639015"><ele>370.0</ele><time>2026-04-18T13:48:02.994Z</time></trkpt><trkpt lat="44.1757883" lon="11.6390833"><ele>370.0</ele><time>2026-04-18T13:48:03.995Z</time></trkpt><trkpt lat="44.1758917" lon="11.6391317"><ele>370.0</ele><time>2026-04-18T13:48:04.993Z</time></trkpt><trkpt lat="44.176005" lon="11.6391783"><ele>372.25</ele><time>2026-04-18T13:48:05.993Z</time></trkpt><trkpt lat="44.1761317" lon="11.6392083"><ele>374.5</ele><time>2026-04-18T13:48:06.994Z</time></trkpt><trkpt lat="44.1762667" lon="11.63923"><ele>376.75</ele><time>2026-04-18T13:48:07.993Z</time></trkpt><trkpt lat="44.1764083" lon="11.6392283"><ele>379.0</ele><time>2026-04-18T13:48:08.995Z</time></trkpt><trkpt lat="44.1765617" lon="11.6392117"><ele>380.3333333333333</ele><time>2026-04-18T13:48:09.993Z</time></trkpt><trkpt lat="44.1767167" lon="11.6391917"><ele>381.6666666666667</ele><time>2026-04-18T13:48:10.993Z</time></trkpt><trkpt lat="44.17688" lon="11.63917"><ele>383.0</ele><time>2026-04-18T13:48:11.993Z</time></trkpt><trkpt lat="44.177045" lon="11.6391417"><ele>383.0</ele><time>2026-04-18T13:48:12.994Z</time></trkpt><trkpt lat="44.1772233" lon="11.639115"><ele>383.0</ele><time>2026-04-18T13:48:13.995Z</time></trkpt><trkpt lat="44.1774133" lon="11.6391083"><ele>383.0</ele><time>2026-04-18T13:48:14.993Z</time></trkpt><trkpt lat="44.1776017" lon="11.6390967"><ele>381.0</ele><time>2026-04-18T13:48:15.994Z</time></trkpt><trkpt lat="44.1777883" lon="11.6390833"><ele>379.0</ele><time>2026-04-18T13:48:16.995Z</time></trkpt><trkpt lat="44.1779683" lon="11.63908"><ele>377.0</ele><time>2026-04-18T13:48:17.995Z</time></trkpt><trkpt lat="44.1781383" lon="11.6390917"><ele>374.6666666666667</ele><time>2026-04-18T13:48:18.993Z</time></trkpt><trkpt lat="44.1782983" lon="11.63912"><ele>372.3333333333333</ele><time>2026-04-18T13:48:19.995Z</time></trkpt><trkpt lat="44.1784567" lon="11.63916"><ele>370.0</ele><time>2026-04-18T13:48:20.993Z</time></trkpt><trkpt lat="44.178615" lon="11.6392017"><ele>370.0</ele><time>2026-04-18T13:48:21.993Z</time></trkpt><trkpt lat="44.1787783" lon="11.6392483"><ele>370.0</ele><time>2026-04-18T13:48:22.993Z</time></trkpt><trkpt lat="44.1789483" lon="11.6392783"><ele>370.0</ele><time>2026-04-18T13:48:23.993Z</time></trkpt><trkpt lat="44.17913" lon="11.6393017"><ele>369.66666666666663</ele><time>2026-04-18T13:48:24.992Z</time></trkpt><trkpt lat="44.1793167" lon="11.6393183"><ele>369.3333333333333</ele><time>2026-04-18T13:48:25.994Z</time></trkpt><trkpt lat="44.1795083" lon="11.6393333"><ele>369.0</ele><time>2026-04-18T13:48:26.994Z</time></trkpt><trkpt lat="44.1796983" lon="11.6393533"><ele>370.0</ele><time>2026-04-18T13:48:27.994Z</time></trkpt><trkpt lat="44.179875" lon="11.6393717"><ele>371.0</ele><time>2026-04-18T13:48:28.992Z</time></trkpt><trkpt lat="44.1800333" lon="11.639395"><ele>372.0</ele><time>2026-04-18T13:48:29.994Z</time></trkpt><trkpt lat="44.1801783" lon="11.6394433"><ele>364.3333333333333</ele><time>2026-04-18T13:48:30.994Z</time></trkpt><trkpt lat="44.1803133" lon="11.6395233"><ele>356.66666666666663</ele><time>2026-04-18T13:48:31.994Z</time></trkpt><trkpt lat="44.1804433" lon="11.639635"><ele>349.0</ele><time>2026-04-18T13:48:32.994Z</time></trkpt><trkpt lat="44.180575" lon="11.6397517"><ele>352.0</ele><time>2026-04-18T13:48:33.994Z</time></trkpt><trkpt lat="44.1807167" lon="11.63985"><ele>355.0</ele><time>2026-04-18T13:48:34.993Z</time></trkpt><trkpt lat="44.1808533" lon="11.6399433"><ele>358.0</ele><time>2026-04-18T13:48:35.993Z</time></trkpt><trkpt lat="44.1809783" lon="11.640035"><ele>358.0</ele><time>2026-04-18T13:48:36.993Z</time></trkpt><trkpt lat="44.1810883" lon="11.640135"><ele>358.0</ele><time>2026-04-18T13:48:37.994Z</time></trkpt><trkpt lat="44.18119" lon="11.64026"><ele>358.0</ele><time>2026-04-18T13:48:38.994Z</time></trkpt><trkpt lat="44.1812767" lon="11.6404033"><ele>358.0</ele><time>2026-04-18T13:48:39.992Z</time></trkpt><trkpt lat="44.181345" lon="11.6405567"><ele>355.0</ele><time>2026-04-18T13:48:40.993Z</time></trkpt><trkpt lat="44.1813883" lon="11.640725"><ele>352.0</ele><time>2026-04-18T13:48:41.993Z</time></trkpt><trkpt lat="44.181415" lon="11.6408983"><ele>349.0</ele><time>2026-04-18T13:48:42.992Z</time></trkpt><trkpt lat="44.181415" lon="11.6410883"><ele>346.0</ele><time>2026-04-18T13:48:43.994Z</time></trkpt><trkpt lat="44.18139" lon="11.6412917"><ele>346.0</ele><time>2026-04-18T13:48:44.994Z</time></trkpt><trkpt lat="44.181365" lon="11.64151"><ele>346.0</ele><time>2026-04-18T13:48:45.993Z</time></trkpt><trkpt lat="44.1813283" lon="11.6417367"><ele>346.0</ele><time>2026-04-18T13:48:46.994Z</time></trkpt><trkpt lat="44.1812767" lon="11.6419633"><ele>349.3333333333333</ele><time>2026-04-18T13:48:47.992Z</time></trkpt><trkpt lat="44.181215" lon="11.6421833"><ele>352.6666666666667</ele><time>2026-04-18T13:48:48.995Z</time></trkpt><trkpt lat="44.1811417" lon="11.6423883"><ele>356.0</ele><time>2026-04-18T13:48:49.992Z</time></trkpt><trkpt lat="44.1810633" lon="11.6425683"><ele>356.0</ele><time>2026-04-18T13:48:50.994Z</time></trkpt><trkpt lat="44.1809867" lon="11.6427267"><ele>356.0</ele><time>2026-04-18T13:48:51.993Z</time></trkpt><trkpt lat="44.1809267" lon="11.64287"><ele>356.0</ele><time>2026-04-18T13:48:52.993Z</time></trkpt><trkpt lat="44.1808983" lon="11.6429933"><ele>356.0</ele><time>2026-04-18T13:48:53.993Z</time></trkpt><trkpt lat="44.1808917" lon="11.6431117"><ele>356.0</ele><time>2026-04-18T13:48:54.994Z</time></trkpt><trkpt lat="44.1808983" lon="11.6432167"><ele>356.0</ele><time>2026-04-18T13:48:55.993Z</time></trkpt><trkpt lat="44.18094" lon="11.6433167"><ele>356.0</ele><time>2026-04-18T13:48:56.993Z</time></trkpt><trkpt lat="44.1810167" lon="11.64341"><ele>356.0</ele><time>2026-04-18T13:48:57.993Z</time></trkpt><trkpt lat="44.1811367" lon="11.6435083"><ele>356.0</ele><time>2026-04-18T13:48:58.994Z</time></trkpt><trkpt lat="44.1812433" lon="11.6435917"><ele>356.0</ele><time>2026-04-18T13:48:59.994Z</time></trkpt><trkpt lat="44.1813517" lon="11.6436317"><ele>353.0</ele><time>2026-04-18T13:49:00.992Z</time></trkpt><trkpt lat="44.1814717" lon="11.6436317"><ele>350.0</ele><time>2026-04-18T13:49:01.994Z</time></trkpt><trkpt lat="44.1816" lon="11.6436083"><ele>347.0</ele><time>2026-04-18T13:49:02.994Z</time></trkpt><trkpt lat="44.1817467" lon="11.6435767"><ele>344.0</ele><time>2026-04-18T13:49:03.993Z</time></trkpt><trkpt lat="44.1818933" lon="11.6435533"><ele>356.0</ele><time>2026-04-18T13:49:04.993Z</time></trkpt><trkpt lat="44.1820383" lon="11.6435367"><ele>368.0</ele><time>2026-04-18T13:49:05.992Z</time></trkpt><trkpt lat="44.18219" lon="11.6435033"><ele>380.0</ele><time>2026-04-18T13:49:06.993Z</time></trkpt><trkpt lat="44.18234" lon="11.6434417"><ele>379.33333333333337</ele><time>2026-04-18T13:49:07.994Z</time></trkpt><trkpt lat="44.18249" lon="11.6433617"><ele>378.6666666666667</ele><time>2026-04-18T13:49:08.994Z</time></trkpt><trkpt lat="44.1826317" lon="11.64328"><ele>378.0</ele><time>2026-04-18T13:49:09.993Z</time></trkpt><trkpt lat="44.1827617" lon="11.6432083"><ele>378.0</ele><time>2026-04-18T13:49:10.993Z</time></trkpt><trkpt lat="44.182885" lon="11.643165"><ele>378.0</ele><time>2026-04-18T13:49:11.994Z</time></trkpt><trkpt lat="44.1829883" lon="11.6431483"><ele>378.0</ele><time>2026-04-18T13:49:12.993Z</time></trkpt><trkpt lat="44.183075" lon="11.6431583"><ele>378.0</ele><time>2026-04-18T13:49:13.994Z</time></trkpt><trkpt lat="44.183155" lon="11.64318"><ele>378.0</ele><time>2026-04-18T13:49:14.994Z</time></trkpt><trkpt lat="44.183225" lon="11.64323"><ele>376.59999999999997</ele><time>2026-04-18T13:49:15.994Z</time></trkpt><trkpt lat="44.18327" lon="11.643315"><ele>375.2</ele><time>2026-04-18T13:49:16.993Z</time></trkpt><trkpt lat="44.183285" lon="11.6434117"><ele>373.8</ele><time>2026-04-18T13:49:17.994Z</time></trkpt><trkpt lat="44.1832633" lon="11.643515"><ele>372.4</ele><time>2026-04-18T13:49:18.993Z</time></trkpt><trkpt lat="44.1831917" lon="11.6436267"><ele>371.0</ele><time>2026-04-18T13:49:19.993Z</time></trkpt><trkpt lat="44.1830817" lon="11.6437433"><ele>367.6666666666667</ele><time>2026-04-18T13:49:20.995Z</time></trkpt><trkpt lat="44.1829567" lon="11.643855"><ele>364.3333333333333</ele><time>2026-04-18T13:49:21.992Z</time></trkpt><trkpt lat="44.1828067" lon="11.643985"><ele>361.0</ele><time>2026-04-18T13:49:22.993Z</time></trkpt><trkpt lat="44.1826617" lon="11.6441033"><ele>361.0</ele><time>2026-04-18T13:49:23.994Z</time></trkpt><trkpt lat="44.18252" lon="11.6441983"><ele>361.0</ele><time>2026-04-18T13:49:24.993Z</time></trkpt><trkpt lat="44.1824317" lon="11.6442833"><ele>361.0</ele><time>2026-04-18T13:49:25.992Z</time></trkpt><trkpt lat="44.1823683" lon="11.6443683"><ele>361.0</ele><time>2026-04-18T13:49:26.995Z</time></trkpt><trkpt lat="44.18232" lon="11.6444517"><ele>361.0</ele><time>2026-04-18T13:49:27.993Z</time></trkpt><trkpt lat="44.1823383" lon="11.644575"><ele>357.25</ele><time>2026-04-18T13:49:29.994Z</time></trkpt><trkpt lat="44.1824333" lon="11.64458"><ele>353.5</ele><time>2026-04-18T13:49:30.994Z</time></trkpt><trkpt lat="44.1825767" lon="11.644565"><ele>349.75</ele><time>2026-04-18T13:49:31.993Z</time></trkpt><trkpt lat="44.1827283" lon="11.6445783"><ele>346.0</ele><time>2026-04-18T13:49:32.993Z</time></trkpt><trkpt lat="44.1829083" lon="11.6446217"><ele>346.0</ele><time>2026-04-18T13:49:33.994Z</time></trkpt><trkpt lat="44.1830967" lon="11.6446817"><ele>346.0</ele><time>2026-04-18T13:49:34.993Z</time></trkpt><trkpt lat="44.1832867" lon="11.6447583"><ele>346.0</ele><time>2026-04-18T13:49:35.993Z</time></trkpt><trkpt lat="44.183475" lon="11.64484"><ele>346.66666666666663</ele><time>2026-04-18T13:49:36.994Z</time></trkpt><trkpt lat="44.18367" lon="11.6449167"><ele>347.3333333333333</ele><time>2026-04-18T13:49:37.993Z</time></trkpt><trkpt lat="44.183845" lon="11.6450017"><ele>348.0</ele><time>2026-04-18T13:49:38.993Z</time></trkpt><trkpt lat="44.184" lon="11.6450867"><ele>350.6666666666667</ele><time>2026-04-18T13:49:39.994Z</time></trkpt><trkpt lat="44.184145" lon="11.645175"><ele>353.33333333333337</ele><time>2026-04-18T13:49:40.992Z</time></trkpt><trkpt lat="44.1842917" lon="11.64527"><ele>356.0</ele><time>2026-04-18T13:49:41.993Z</time></trkpt><trkpt lat="44.1844133" lon="11.6453933"><ele>347.0</ele><time>2026-04-18T13:49:42.993Z</time></trkpt><trkpt lat="44.18453" lon="11.6455533"><ele>338.0</ele><time>2026-04-18T13:49:43.993Z</time></trkpt><trkpt lat="44.1846367" lon="11.6457367"><ele>329.0</ele><time>2026-04-18T13:49:44.993Z</time></trkpt><trkpt lat="44.1847417" lon="11.645945"><ele>330.6666666666667</ele><time>2026-04-18T13:49:45.992Z</time></trkpt><trkpt lat="44.18485" lon="11.6461517"><ele>332.3333333333333</ele><time>2026-04-18T13:49:46.993Z</time></trkpt><trkpt lat="44.18497" lon="11.6463367"><ele>334.0</ele><time>2026-04-18T13:49:47.992Z</time></trkpt><trkpt lat="44.1850967" lon="11.6464967"><ele>334.0</ele><time>2026-04-18T13:49:48.992Z</time></trkpt><trkpt lat="44.1852" lon="11.646655"><ele>334.0</ele><time>2026-04-18T13:49:49.993Z</time></trkpt><trkpt lat="44.1852683" lon="11.64683"><ele>334.0</ele><time>2026-04-18T13:49:50.994Z</time></trkpt><trkpt lat="44.1853183" lon="11.6470267"><ele>334.0</ele><time>2026-04-18T13:49:51.992Z</time></trkpt><trkpt lat="44.1853583" lon="11.6472217"><ele>330.25</ele><time>2026-04-18T13:49:52.994Z</time></trkpt><trkpt lat="44.1853883" lon="11.6473883"><ele>326.5</ele><time>2026-04-18T13:49:53.992Z</time></trkpt><trkpt lat="44.1854267" lon="11.64754"><ele>322.75</ele><time>2026-04-18T13:49:54.993Z</time></trkpt><trkpt lat="44.1854833" lon="11.6476733"><ele>319.0</ele><time>2026-04-18T13:49:55.994Z</time></trkpt><trkpt lat="44.1855683" lon="11.6477867"><ele>317.0</ele><time>2026-04-18T13:49:56.994Z</time></trkpt><trkpt lat="44.1856883" lon="11.6478933"><ele>315.0</ele><time>2026-04-18T13:49:57.992Z</time></trkpt><trkpt lat="44.1858183" lon="11.6480033"><ele>313.0</ele><time>2026-04-18T13:49:58.994Z</time></trkpt><trkpt lat="44.1859567" lon="11.6481083"><ele>313.0</ele><time>2026-04-18T13:49:59.993Z</time></trkpt><trkpt lat="44.1861017" lon="11.6482033"><ele>313.0</ele><time>2026-04-18T13:50:00.994Z</time></trkpt><trkpt lat="44.1862617" lon="11.6482733"><ele>313.0</ele><time>2026-04-18T13:50:01.996Z</time></trkpt><trkpt lat="44.1864333" lon="11.6483383"><ele>315.75</ele><time>2026-04-18T13:50:02.993Z</time></trkpt><trkpt lat="44.1865933" lon="11.6483717"><ele>318.5</ele><time>2026-04-18T13:50:03.994Z</time></trkpt><trkpt lat="44.1867333" lon="11.6483817"><ele>321.25</ele><time>2026-04-18T13:50:04.992Z</time></trkpt><trkpt lat="44.1868567" lon="11.648365"><ele>324.0</ele><time>2026-04-18T13:50:05.992Z</time></trkpt><trkpt lat="44.1869617" lon="11.648345"><ele>324.0</ele><time>2026-04-18T13:50:06.992Z</time></trkpt><trkpt lat="44.1870467" lon="11.648345"><ele>324.0</ele><time>2026-04-18T13:50:07.993Z</time></trkpt><trkpt lat="44.1871183" lon="11.6483717"><ele>324.0</ele><time>2026-04-18T13:50:08.995Z</time></trkpt><trkpt lat="44.1871767" lon="11.6484267"><ele>324.0</ele><time>2026-04-18T13:50:09.993Z</time></trkpt><trkpt lat="44.1871983" lon="11.64853"><ele>324.0</ele><time>2026-04-18T13:50:10.993Z</time></trkpt><trkpt lat="44.1872" lon="11.6486633"><ele>324.0</ele><time>2026-04-18T13:50:11.996Z</time></trkpt><trkpt lat="44.187225" lon="11.64881"><ele>324.25</ele><time>2026-04-18T13:50:12.993Z</time></trkpt><trkpt lat="44.1872717" lon="11.64895"><ele>324.5</ele><time>2026-04-18T13:50:13.992Z</time></trkpt><trkpt lat="44.1873317" lon="11.6490883"><ele>324.75</ele><time>2026-04-18T13:50:14.994Z</time></trkpt><trkpt lat="44.1873967" lon="11.6492117"><ele>325.0</ele><time>2026-04-18T13:50:15.995Z</time></trkpt><trkpt lat="44.187485" lon="11.6493117"><ele>325.0</ele><time>2026-04-18T13:50:16.994Z</time></trkpt><trkpt lat="44.187595" lon="11.6493833"><ele>325.0</ele><time>2026-04-18T13:50:17.994Z</time></trkpt><trkpt lat="44.187735" lon="11.64941"><ele>325.0</ele><time>2026-04-18T13:50:18.993Z</time></trkpt><trkpt lat="44.1878967" lon="11.649425"><ele>325.0</ele><time>2026-04-18T13:50:19.993Z</time></trkpt><trkpt lat="44.188075" lon="11.6494367"><ele>327.3333333333333</ele><time>2026-04-18T13:50:20.993Z</time></trkpt><trkpt lat="44.1882667" lon="11.6494583"><ele>329.6666666666667</ele><time>2026-04-18T13:50:21.994Z</time></trkpt><trkpt lat="44.18846" lon="11.6494833"><ele>332.0</ele><time>2026-04-18T13:50:22.993Z</time></trkpt><trkpt lat="44.1886467" lon="11.6495067"><ele>324.0</ele><time>2026-04-18T13:50:23.994Z</time></trkpt><trkpt lat="44.1888283" lon="11.6495283"><ele>316.0</ele><time>2026-04-18T13:50:24.992Z</time></trkpt><trkpt lat="44.1890133" lon="11.6495317"><ele>308.0</ele><time>2026-04-18T13:50:25.994Z</time></trkpt><trkpt lat="44.1892033" lon="11.6495133"><ele>307.6666666666667</ele><time>2026-04-18T13:50:26.993Z</time></trkpt><trkpt lat="44.1894033" lon="11.6494967"><ele>307.3333333333333</ele><time>2026-04-18T13:50:27.993Z</time></trkpt><trkpt lat="44.1896017" lon="11.6494967"><ele>307.0</ele><time>2026-04-18T13:50:28.992Z</time></trkpt><trkpt lat="44.1897917" lon="11.649505"><ele>306.0</ele><time>2026-04-18T13:50:29.994Z</time></trkpt><trkpt lat="44.189975" lon="11.6495083"><ele>305.0</ele><time>2026-04-18T13:50:30.993Z</time></trkpt><trkpt lat="44.190155" lon="11.6495017"><ele>304.0</ele><time>2026-04-18T13:50:31.994Z</time></trkpt><trkpt lat="44.1903417" lon="11.649485"><ele>304.0</ele><time>2026-04-18T13:50:32.993Z</time></trkpt><trkpt lat="44.1905283" lon="11.64947"><ele>304.0</ele><time>2026-04-18T13:50:33.992Z</time></trkpt><trkpt lat="44.1907033" lon="11.64946"><ele>304.0</ele><time>2026-04-18T13:50:34.993Z</time></trkpt><trkpt lat="44.1908583" lon="11.64947"><ele>302.66666666666663</ele><time>2026-04-18T13:50:35.992Z</time></trkpt><trkpt lat="44.1910067" lon="11.6495167"><ele>301.3333333333333</ele><time>2026-04-18T13:50:36.994Z</time></trkpt><trkpt lat="44.191155" lon="11.6495883"><ele>300.0</ele><time>2026-04-18T13:50:37.993Z</time></trkpt><trkpt lat="44.191305" lon="11.6496783"><ele>300.0</ele><time>2026-04-18T13:50:38.993Z</time></trkpt><trkpt lat="44.191465" lon="11.6497833"><ele>300.0</ele><time>2026-04-18T13:50:39.992Z</time></trkpt><trkpt lat="44.1916333" lon="11.6498967"><ele>300.0</ele><time>2026-04-18T13:50:40.994Z</time></trkpt><trkpt lat="44.1918083" lon="11.6500067"><ele>300.0</ele><time>2026-04-18T13:50:41.993Z</time></trkpt><trkpt lat="44.19198" lon="11.650115"><ele>300.0</ele><time>2026-04-18T13:50:42.992Z</time></trkpt><trkpt lat="44.1921367" lon="11.65022"><ele>300.0</ele><time>2026-04-18T13:50:43.993Z</time></trkpt><trkpt lat="44.192275" lon="11.65031"><ele>299.0</ele><time>2026-04-18T13:50:44.995Z</time></trkpt><trkpt lat="44.192385" lon="11.6503917"><ele>298.0</ele><time>2026-04-18T13:50:45.993Z</time></trkpt><trkpt lat="44.1924683" lon="11.6504817"><ele>297.0</ele><time>2026-04-18T13:50:46.994Z</time></trkpt><trkpt lat="44.19252" lon="11.65061"><ele>296.0</ele><time>2026-04-18T13:50:47.992Z</time></trkpt><trkpt lat="44.19257" lon="11.6507767"><ele>296.0</ele><time>2026-04-18T13:50:48.992Z</time></trkpt><trkpt lat="44.1926167" lon="11.65097"><ele>296.0</ele><time>2026-04-18T13:50:49.992Z</time></trkpt><trkpt lat="44.1926617" lon="11.6511617"><ele>296.0</ele><time>2026-04-18T13:50:50.993Z</time></trkpt><trkpt lat="44.1926933" lon="11.6513267"><ele>296.0</ele><time>2026-04-18T13:50:51.994Z</time></trkpt><trkpt lat="44.1927117" lon="11.6514567"><ele>295.1666666666667</ele><time>2026-04-18T13:50:52.993Z</time></trkpt><trkpt lat="44.192705" lon="11.65158"><ele>294.33333333333337</ele><time>2026-04-18T13:50:53.993Z</time></trkpt><trkpt lat="44.1926817" lon="11.651695"><ele>293.5</ele><time>2026-04-18T13:50:54.993Z</time></trkpt><trkpt lat="44.1926417" lon="11.6518183"><ele>292.6666666666667</ele><time>2026-04-18T13:50:55.993Z</time></trkpt><trkpt lat="44.1926167" lon="11.6519417"><ele>291.8333333333333</ele><time>2026-04-18T13:50:56.993Z</time></trkpt><trkpt lat="44.192615" lon="11.6520583"><ele>291.0</ele><time>2026-04-18T13:50:57.993Z</time></trkpt><trkpt lat="44.19263" lon="11.6521767"><ele>290.5</ele><time>2026-04-18T13:50:58.993Z</time></trkpt><trkpt lat="44.192675" lon="11.652295"><ele>290.0</ele><time>2026-04-18T13:50:59.993Z</time></trkpt><trkpt lat="44.1927667" lon="11.65242"><ele>289.5</ele><time>2026-04-18T13:51:00.995Z</time></trkpt><trkpt lat="44.1928783" lon="11.652565"><ele>289.0</ele><time>2026-04-18T13:51:01.994Z</time></trkpt><trkpt lat="44.192995" lon="11.6526983"><ele>289.3333333333333</ele><time>2026-04-18T13:51:02.994Z</time></trkpt><trkpt lat="44.1931217" lon="11.6528133"><ele>289.6666666666667</ele><time>2026-04-18T13:51:03.994Z</time></trkpt><trkpt lat="44.1932533" lon="11.6529167"><ele>290.0</ele><time>2026-04-18T13:51:04.993Z</time></trkpt><trkpt lat="44.193405" lon="11.6529983"><ele>290.0</ele><time>2026-04-18T13:51:05.993Z</time></trkpt><trkpt lat="44.1935633" lon="11.6530767"><ele>290.0</ele><time>2026-04-18T13:51:06.994Z</time></trkpt><trkpt lat="44.1937283" lon="11.6531467"><ele>290.0</ele><time>2026-04-18T13:51:07.993Z</time></trkpt><trkpt lat="44.1938967" lon="11.6532283"><ele>295.0</ele><time>2026-04-18T13:51:08.995Z</time></trkpt><trkpt lat="44.19407" lon="11.6533183"><ele>300.0</ele><time>2026-04-18T13:51:09.993Z</time></trkpt><trkpt lat="44.1942367" lon="11.6534233"><ele>305.0</ele><time>2026-04-18T13:51:10.992Z</time></trkpt><trkpt lat="44.1944083" lon="11.65353"><ele>303.33333333333337</ele><time>2026-04-18T13:51:11.993Z</time></trkpt><trkpt lat="44.19458" lon="11.6536467"><ele>301.6666666666667</ele><time>2026-04-18T13:51:12.993Z</time></trkpt><trkpt lat="44.19474" lon="11.653755"><ele>300.0</ele><time>2026-04-18T13:51:13.994Z</time></trkpt><trkpt lat="44.1949" lon="11.6538617"><ele>300.0</ele><time>2026-04-18T13:51:14.993Z</time></trkpt><trkpt lat="44.1950383" lon="11.6539883"><ele>300.0</ele><time>2026-04-18T13:51:15.993Z</time></trkpt><trkpt lat="44.1951583" lon="11.654145"><ele>300.0</ele><time>2026-04-18T13:51:16.994Z</time></trkpt><trkpt lat="44.1952767" lon="11.6543383"><ele>294.0</ele><time>2026-04-18T13:51:17.993Z</time></trkpt><trkpt lat="44.195385" lon="11.65455"><ele>288.0</ele><time>2026-04-18T13:51:18.993Z</time></trkpt><trkpt lat="44.1954867" lon="11.6547633"><ele>282.0</ele><time>2026-04-18T13:51:19.993Z</time></trkpt><trkpt lat="44.1955733" lon="11.6549633"><ele>282.0</ele><time>2026-04-18T13:51:20.993Z</time></trkpt><trkpt lat="44.1956617" lon="11.6551267"><ele>282.0</ele><time>2026-04-18T13:51:21.992Z</time></trkpt><trkpt lat="44.19576" lon="11.6552633"><ele>282.0</ele><time>2026-04-18T13:51:22.993Z</time></trkpt><trkpt lat="44.1958683" lon="11.655385"><ele>282.0</ele><time>2026-04-18T13:51:23.993Z</time></trkpt><trkpt lat="44.1959983" lon="11.6555033"><ele>283.0</ele><time>2026-04-18T13:51:24.994Z</time></trkpt><trkpt lat="44.1961417" lon="11.6556233"><ele>284.0</ele><time>2026-04-18T13:51:25.993Z</time></trkpt><trkpt lat="44.1963" lon="11.65574"><ele>285.0</ele><time>2026-04-18T13:51:26.993Z</time></trkpt><trkpt lat="44.19646" lon="11.6558533"><ele>284.0</ele><time>2026-04-18T13:51:27.993Z</time></trkpt><trkpt lat="44.1966317" lon="11.6559583"><ele>283.0</ele><time>2026-04-18T13:51:28.993Z</time></trkpt><trkpt lat="44.1968017" lon="11.6560483"><ele>282.0</ele><time>2026-04-18T13:51:29.994Z</time></trkpt><trkpt lat="44.1969617" lon="11.6561383"><ele>282.0</ele><time>2026-04-18T13:51:30.993Z</time></trkpt><trkpt lat="44.1971083" lon="11.6562267"><ele>282.0</ele><time>2026-04-18T13:51:31.993Z</time></trkpt><trkpt lat="44.19726" lon="11.6562917"><ele>282.0</ele><time>2026-04-18T13:51:32.993Z</time></trkpt><trkpt lat="44.1974267" lon="11.6563283"><ele>283.0</ele><time>2026-04-18T13:51:33.993Z</time></trkpt><trkpt lat="44.197605" lon="11.6563367"><ele>284.0</ele><time>2026-04-18T13:51:34.992Z</time></trkpt><trkpt lat="44.1977817" lon="11.656355"><ele>285.0</ele><time>2026-04-18T13:51:35.992Z</time></trkpt><trkpt lat="44.1979533" lon="11.6563917"><ele>285.0</ele><time>2026-04-18T13:51:36.992Z</time></trkpt><trkpt lat="44.1981233" lon="11.6564467"><ele>285.0</ele><time>2026-04-18T13:51:37.993Z</time></trkpt><trkpt lat="44.1982933" lon="11.6564867"><ele>285.0</ele><time>2026-04-18T13:51:38.993Z</time></trkpt><trkpt lat="44.1984517" lon="11.6565167"><ele>286.0</ele><time>2026-04-18T13:51:39.994Z</time></trkpt><trkpt lat="44.19858" lon="11.656545"><ele>287.0</ele><time>2026-04-18T13:51:40.992Z</time></trkpt><trkpt lat="44.198695" lon="11.6565517"><ele>288.0</ele><time>2026-04-18T13:51:41.992Z</time></trkpt><trkpt lat="44.1988017" lon="11.65652"><ele>289.0</ele><time>2026-04-18T13:51:42.993Z</time></trkpt><trkpt lat="44.1988917" lon="11.6564383"><ele>289.0</ele><time>2026-04-18T13:51:43.993Z</time></trkpt><trkpt lat="44.19899" lon="11.656345"><ele>289.0</ele><time>2026-04-18T13:51:44.993Z</time></trkpt><trkpt lat="44.1990767" lon="11.6562467"><ele>289.0</ele><time>2026-04-18T13:51:45.993Z</time></trkpt><trkpt lat="44.19914" lon="11.656145"><ele>289.0</ele><time>2026-04-18T13:51:46.993Z</time></trkpt><trkpt lat="44.19918" lon="11.6560383"><ele>289.0</ele><time>2026-04-18T13:51:47.993Z</time></trkpt><trkpt lat="44.1991983" lon="11.655925"><ele>289.8</ele><time>2026-04-18T13:51:48.993Z</time></trkpt><trkpt lat="44.199195" lon="11.6558017"><ele>290.59999999999997</ele><time>2026-04-18T13:51:49.993Z</time></trkpt><trkpt lat="44.1991667" lon="11.65566"><ele>291.4</ele><time>2026-04-18T13:51:50.995Z</time></trkpt><trkpt lat="44.1991483" lon="11.6555183"><ele>292.2</ele><time>2026-04-18T13:51:51.994Z</time></trkpt><trkpt lat="44.19914" lon="11.6553867"><ele>293.0</ele><time>2026-04-18T13:51:52.994Z</time></trkpt><trkpt lat="44.1991517" lon="11.655285"><ele>293.0</ele><time>2026-04-18T13:51:53.994Z</time></trkpt><trkpt lat="44.199195" lon="11.6552067"><ele>293.0</ele><time>2026-04-18T13:51:54.994Z</time></trkpt><trkpt lat="44.199305" lon="11.6551583"><ele>293.0</ele><time>2026-04-18T13:51:56.995Z</time></trkpt><trkpt lat="44.1993767" lon="11.6552183"><ele>293.0</ele><time>2026-04-18T13:51:57.994Z</time></trkpt><trkpt lat="44.1994567" lon="11.6553033"><ele>293.0</ele><time>2026-04-18T13:51:58.994Z</time></trkpt><trkpt lat="44.1995333" lon="11.65542"><ele>293.0</ele><time>2026-04-18T13:51:59.993Z</time></trkpt><trkpt lat="44.1996017" lon="11.6556233"><ele>293.0</ele><time>2026-04-18T13:52:00.993Z</time></trkpt><trkpt lat="44.1996517" lon="11.6558617"><ele>293.0</ele><time>2026-04-18T13:52:01.994Z</time></trkpt><trkpt lat="44.1996833" lon="11.6560833"><ele>291.4</ele><time>2026-04-18T13:52:02.993Z</time></trkpt><trkpt lat="44.19969" lon="11.6562567"><ele>289.8</ele><time>2026-04-18T13:52:03.993Z</time></trkpt><trkpt lat="44.1996967" lon="11.656405"><ele>288.2</ele><time>2026-04-18T13:52:04.993Z</time></trkpt><trkpt lat="44.199715" lon="11.6565417"><ele>286.6</ele><time>2026-04-18T13:52:05.994Z</time></trkpt><trkpt lat="44.1997467" lon="11.6566817"><ele>285.0</ele><time>2026-04-18T13:52:06.993Z</time></trkpt><trkpt lat="44.1997967" lon="11.6568233"><ele>286.0</ele><time>2026-04-18T13:52:07.993Z</time></trkpt><trkpt lat="44.19986" lon="11.65697"><ele>287.0</ele><time>2026-04-18T13:52:08.994Z</time></trkpt><trkpt lat="44.1999317" lon="11.6571283"><ele>288.0</ele><time>2026-04-18T13:52:09.993Z</time></trkpt><trkpt lat="44.2000083" lon="11.6572967"><ele>289.0</ele><time>2026-04-18T13:52:10.994Z</time></trkpt><trkpt lat="44.2000917" lon="11.6574783"><ele>289.0</ele><time>2026-04-18T13:52:11.993Z</time></trkpt><trkpt lat="44.2001817" lon="11.657665"><ele>289.0</ele><time>2026-04-18T13:52:12.994Z</time></trkpt><trkpt lat="44.2002817" lon="11.6578583"><ele>289.0</ele><time>2026-04-18T13:52:13.993Z</time></trkpt><trkpt lat="44.200395" lon="11.6580367"><ele>288.3333333333333</ele><time>2026-04-18T13:52:14.995Z</time></trkpt><trkpt lat="44.2005267" lon="11.6582017"><ele>287.6666666666667</ele><time>2026-04-18T13:52:15.993Z</time></trkpt><trkpt lat="44.2006633" lon="11.658355"><ele>287.0</ele><time>2026-04-18T13:52:16.992Z</time></trkpt><trkpt lat="44.2008067" lon="11.6585117"><ele>282.0</ele><time>2026-04-18T13:52:17.994Z</time></trkpt><trkpt lat="44.2009533" lon="11.6586767"><ele>277.0</ele><time>2026-04-18T13:52:18.993Z</time></trkpt><trkpt lat="44.2011017" lon="11.6588417"><ele>272.0</ele><time>2026-04-18T13:52:19.994Z</time></trkpt><trkpt lat="44.2012533" lon="11.65901"><ele>272.0</ele><time>2026-04-18T13:52:20.994Z</time></trkpt><trkpt lat="44.2013983" lon="11.6591783"><ele>272.0</ele><time>2026-04-18T13:52:21.992Z</time></trkpt><trkpt lat="44.20153" lon="11.6593433"><ele>272.0</ele><time>2026-04-18T13:52:22.992Z</time></trkpt><trkpt lat="44.2016533" lon="11.6595083"><ele>273.33333333333337</ele><time>2026-04-18T13:52:23.993Z</time></trkpt><trkpt lat="44.20177" lon="11.6596917"><ele>274.6666666666667</ele><time>2026-04-18T13:52:24.994Z</time></trkpt><trkpt lat="44.201885" lon="11.6598917"><ele>276.0</ele><time>2026-04-18T13:52:25.993Z</time></trkpt><trkpt lat="44.2019967" lon="11.6600933"><ele>273.3333333333333</ele><time>2026-04-18T13:52:26.994Z</time></trkpt><trkpt lat="44.2021133" lon="11.66029"><ele>270.66666666666663</ele><time>2026-04-18T13:52:27.993Z</time></trkpt><trkpt lat="44.202225" lon="11.6604783"><ele>268.0</ele><time>2026-04-18T13:52:28.993Z</time></trkpt><trkpt lat="44.20232" lon="11.6606467"><ele>268.2</ele><time>2026-04-18T13:52:29.993Z</time></trkpt><trkpt lat="44.2024017" lon="11.6607867"><ele>268.4</ele><time>2026-04-18T13:52:30.994Z</time></trkpt><trkpt lat="44.2024667" lon="11.66091"><ele>268.59999999999997</ele><time>2026-04-18T13:52:31.995Z</time></trkpt><trkpt lat="44.2025167" lon="11.661005"><ele>268.8</ele><time>2026-04-18T13:52:32.994Z</time></trkpt><trkpt lat="44.2025617" lon="11.6610733"><ele>269.0</ele><time>2026-04-18T13:52:33.993Z</time></trkpt><trkpt lat="44.2026217" lon="11.6611667"><ele>269.0</ele><time>2026-04-18T13:52:35.994Z</time></trkpt><trkpt lat="44.2026767" lon="11.661265"><ele>269.0</ele><time>2026-04-18T13:52:46.992Z</time></trkpt><trkpt lat="44.202775" lon="11.6613883"><ele>269.0</ele><time>2026-04-18T13:52:48.993Z</time></trkpt><trkpt lat="44.2028467" lon="11.6614867"><ele>269.0</ele><time>2026-04-18T13:52:49.993Z</time></trkpt><trkpt lat="44.20293" lon="11.6616083"><ele>269.0</ele><time>2026-04-18T13:52:50.993Z</time></trkpt><trkpt lat="44.2030233" lon="11.6617233"><ele>269.0</ele><time>2026-04-18T13:52:51.993Z</time></trkpt><trkpt lat="44.20311" lon="11.6618183"><ele>269.0</ele><time>2026-04-18T13:52:52.993Z</time></trkpt><trkpt lat="44.2032083" lon="11.6619083"><ele>269.0</ele><time>2026-04-18T13:52:53.994Z</time></trkpt><trkpt lat="44.2033167" lon="11.6620083"><ele>269.0</ele><time>2026-04-18T13:52:54.993Z</time></trkpt><trkpt lat="44.2034267" lon="11.6621183"><ele>268.33333333333337</ele><time>2026-04-18T13:52:55.994Z</time></trkpt><trkpt lat="44.203545" lon="11.66224"><ele>267.6666666666667</ele><time>2026-04-18T13:52:56.993Z</time></trkpt><trkpt lat="44.203665" lon="11.66237"><ele>267.0</ele><time>2026-04-18T13:52:57.993Z</time></trkpt><trkpt lat="44.203785" lon="11.6625033"><ele>267.0</ele><time>2026-04-18T13:52:58.994Z</time></trkpt><trkpt lat="44.20389" lon="11.6626333"><ele>267.0</ele><time>2026-04-18T13:52:59.992Z</time></trkpt><trkpt lat="44.2039867" lon="11.6627617"><ele>267.0</ele><time>2026-04-18T13:53:00.994Z</time></trkpt><trkpt lat="44.20408" lon="11.6628767"><ele>267.0</ele><time>2026-04-18T13:53:01.993Z</time></trkpt><trkpt lat="44.2041683" lon="11.6629767"><ele>265.0</ele><time>2026-04-18T13:53:02.993Z</time></trkpt><trkpt lat="44.20426" lon="11.6630517"><ele>263.0</ele><time>2026-04-18T13:53:03.992Z</time></trkpt><trkpt lat="44.204355" lon="11.66309"><ele>261.0</ele><time>2026-04-18T13:53:04.992Z</time></trkpt><trkpt lat="44.20446" lon="11.6630883"><ele>259.0</ele><time>2026-04-18T13:53:05.994Z</time></trkpt><trkpt lat="44.2045683" lon="11.6630517"><ele>257.0</ele><time>2026-04-18T13:53:06.993Z</time></trkpt><trkpt lat="44.2046833" lon="11.66298"><ele>257.0</ele><time>2026-04-18T13:53:07.993Z</time></trkpt><trkpt lat="44.2048067" lon="11.6628983"><ele>257.0</ele><time>2026-04-18T13:53:08.994Z</time></trkpt><trkpt lat="44.2049367" lon="11.662835"><ele>257.0</ele><time>2026-04-18T13:53:09.994Z</time></trkpt><trkpt lat="44.2050683" lon="11.66279"><ele>257.0</ele><time>2026-04-18T13:53:10.994Z</time></trkpt><trkpt lat="44.2052017" lon="11.662765"><ele>258.8</ele><time>2026-04-18T13:53:11.993Z</time></trkpt><trkpt lat="44.205325" lon="11.662755"><ele>260.6</ele><time>2026-04-18T13:53:12.995Z</time></trkpt><trkpt lat="44.2054367" lon="11.6627683"><ele>262.40000000000003</ele><time>2026-04-18T13:53:13.993Z</time></trkpt><trkpt lat="44.2055317" lon="11.662805"><ele>264.2</ele><time>2026-04-18T13:53:14.994Z</time></trkpt><trkpt lat="44.20561" lon="11.6628617"><ele>266.0</ele><time>2026-04-18T13:53:15.992Z</time></trkpt><trkpt lat="44.2056683" lon="11.6629217"><ele>266.0</ele><time>2026-04-18T13:53:16.993Z</time></trkpt><trkpt lat="44.2057083" lon="11.6629917"><ele>266.0</ele><time>2026-04-18T13:53:17.994Z</time></trkpt><trkpt lat="44.2056533" lon="11.6631783"><ele>266.0</ele><time>2026-04-18T13:53:19.992Z</time></trkpt><trkpt lat="44.2056217" lon="11.6632583"><ele>266.0</ele><time>2026-04-18T13:53:20.993Z</time></trkpt><trkpt lat="44.205545" lon="11.6633283"><ele>266.0</ele><time>2026-04-18T13:53:21.993Z</time></trkpt><trkpt lat="44.205445" lon="11.66339"><ele>266.0</ele><time>2026-04-18T13:53:22.994Z</time></trkpt><trkpt lat="44.2053117" lon="11.6634417"><ele>266.0</ele><time>2026-04-18T13:53:23.993Z</time></trkpt><trkpt lat="44.2051867" lon="11.663515"><ele>266.0</ele><time>2026-04-18T13:53:24.994Z</time></trkpt><trkpt lat="44.2050883" lon="11.663595"><ele>266.0</ele><time>2026-04-18T13:53:25.992Z</time></trkpt><trkpt lat="44.20502" lon="11.66369"><ele>265.0</ele><time>2026-04-18T13:53:26.994Z</time></trkpt><trkpt lat="44.2049717" lon="11.6637967"><ele>264.0</ele><time>2026-04-18T13:53:27.993Z</time></trkpt><trkpt lat="44.20494" lon="11.6639283"><ele>263.0</ele><time>2026-04-18T13:53:28.995Z</time></trkpt><trkpt lat="44.2049217" lon="11.664095"><ele>262.0</ele><time>2026-04-18T13:53:29.992Z</time></trkpt><trkpt lat="44.2048967" lon="11.664275"><ele>261.0</ele><time>2026-04-18T13:53:30.993Z</time></trkpt><trkpt lat="44.204875" lon="11.6644517"><ele>259.0</ele><time>2026-04-18T13:53:31.993Z</time></trkpt><trkpt lat="44.2048683" lon="11.6646133"><ele>257.0</ele><time>2026-04-18T13:53:32.993Z</time></trkpt><trkpt lat="44.2048867" lon="11.66477"><ele>255.0</ele><time>2026-04-18T13:53:33.994Z</time></trkpt><trkpt lat="44.2049417" lon="11.6649133"><ele>253.0</ele><time>2026-04-18T13:53:34.993Z</time></trkpt><trkpt lat="44.205035" lon="11.6650467"><ele>253.0</ele><time>2026-04-18T13:53:35.994Z</time></trkpt><trkpt lat="44.2051567" lon="11.6651733"><ele>253.0</ele><time>2026-04-18T13:53:36.994Z</time></trkpt><trkpt lat="44.2052917" lon="11.6653067"><ele>253.0</ele><time>2026-04-18T13:53:37.992Z</time></trkpt><trkpt lat="44.2054217" lon="11.6654467"><ele>250.25</ele><time>2026-04-18T13:53:38.993Z</time></trkpt><trkpt lat="44.2055267" lon="11.6655917"><ele>247.5</ele><time>2026-04-18T13:53:39.995Z</time></trkpt><trkpt lat="44.2056" lon="11.6657567"><ele>244.75</ele><time>2026-04-18T13:53:40.995Z</time></trkpt><trkpt lat="44.2056533" lon="11.6659383"><ele>242.0</ele><time>2026-04-18T13:53:41.992Z</time></trkpt><trkpt lat="44.2056867" lon="11.66613"><ele>241.25</ele><time>2026-04-18T13:53:42.995Z</time></trkpt><trkpt lat="44.2057183" lon="11.6663167"><ele>240.5</ele><time>2026-04-18T13:53:43.994Z</time></trkpt><trkpt lat="44.205755" lon="11.6664733"><ele>239.75</ele><time>2026-04-18T13:53:44.993Z</time></trkpt><trkpt lat="44.2058183" lon="11.6665983"><ele>239.0</ele><time>2026-04-18T13:53:45.995Z</time></trkpt><trkpt lat="44.20592" lon="11.6666883"><ele>239.0</ele><time>2026-04-18T13:53:46.995Z</time></trkpt><trkpt lat="44.20605" lon="11.6667567"><ele>239.0</ele><time>2026-04-18T13:53:47.994Z</time></trkpt><trkpt lat="44.2061983" lon="11.66682"><ele>239.0</ele><time>2026-04-18T13:53:48.995Z</time></trkpt><trkpt lat="44.206355" lon="11.66689"><ele>237.33333333333334</ele><time>2026-04-18T13:53:49.994Z</time></trkpt><trkpt lat="44.206505" lon="11.6669683"><ele>235.66666666666669</ele><time>2026-04-18T13:53:50.994Z</time></trkpt><trkpt lat="44.2066433" lon="11.667055"><ele>234.0</ele><time>2026-04-18T13:53:51.994Z</time></trkpt><trkpt lat="44.2067717" lon="11.667165"><ele>234.0</ele><time>2026-04-18T13:53:52.993Z</time></trkpt><trkpt lat="44.2068933" lon="11.6672967"><ele>234.0</ele><time>2026-04-18T13:53:53.994Z</time></trkpt><trkpt lat="44.2070017" lon="11.6674617"><ele>234.0</ele><time>2026-04-18T13:53:54.994Z</time></trkpt><trkpt lat="44.2071" lon="11.667655"><ele>232.33333333333331</ele><time>2026-04-18T13:53:55.992Z</time></trkpt><trkpt lat="44.2072017" lon="11.6678633"><ele>230.66666666666666</ele><time>2026-04-18T13:53:56.994Z</time></trkpt><trkpt lat="44.2073033" lon="11.6680733"><ele>229.0</ele><time>2026-04-18T13:53:57.992Z</time></trkpt><trkpt lat="44.2074" lon="11.6682867"><ele>229.0</ele><time>2026-04-18T13:53:58.993Z</time></trkpt><trkpt lat="44.2074833" lon="11.66851"><ele>229.0</ele><time>2026-04-18T13:53:59.993Z</time></trkpt><trkpt lat="44.2075617" lon="11.6687417"><ele>229.0</ele><time>2026-04-18T13:54:00.993Z</time></trkpt><trkpt lat="44.2076433" lon="11.66897"><ele>228.66666666666666</ele><time>2026-04-18T13:54:01.994Z</time></trkpt><trkpt lat="44.2077367" lon="11.6691917"><ele>228.33333333333331</ele><time>2026-04-18T13:54:02.993Z</time></trkpt><trkpt lat="44.2078417" lon="11.6694017"><ele>228.0</ele><time>2026-04-18T13:54:03.993Z</time></trkpt><trkpt lat="44.2079533" lon="11.66961"><ele>226.33333333333331</ele><time>2026-04-18T13:54:04.994Z</time></trkpt><trkpt lat="44.208065" lon="11.6698083"><ele>224.66666666666666</ele><time>2026-04-18T13:54:05.992Z</time></trkpt><trkpt lat="44.2081733" lon="11.6699933"><ele>223.0</ele><time>2026-04-18T13:54:06.993Z</time></trkpt><trkpt lat="44.208285" lon="11.67017"><ele>224.66666666666666</ele><time>2026-04-18T13:54:07.993Z</time></trkpt><trkpt lat="44.208405" lon="11.6703383"><ele>226.33333333333331</ele><time>2026-04-18T13:54:08.994Z</time></trkpt><trkpt lat="44.2085367" lon="11.6705"><ele>228.0</ele><time>2026-04-18T13:54:09.994Z</time></trkpt><trkpt lat="44.2086767" lon="11.670655"><ele>228.0</ele><time>2026-04-18T13:54:10.993Z</time></trkpt><trkpt lat="44.2088233" lon="11.6708133"><ele>228.0</ele><time>2026-04-18T13:54:11.993Z</time></trkpt><trkpt lat="44.20897" lon="11.6709767"><ele>228.0</ele><time>2026-04-18T13:54:12.994Z</time></trkpt><trkpt lat="44.2091117" lon="11.6711417"><ele>226.33333333333331</ele><time>2026-04-18T13:54:13.994Z</time></trkpt><trkpt lat="44.20924" lon="11.6713067"><ele>224.66666666666666</ele><time>2026-04-18T13:54:14.994Z</time></trkpt><trkpt lat="44.209355" lon="11.67148"><ele>223.0</ele><time>2026-04-18T13:54:15.993Z</time></trkpt><trkpt lat="44.2094617" lon="11.6716417"><ele>223.0</ele><time>2026-04-18T13:54:16.992Z</time></trkpt><trkpt lat="44.2095567" lon="11.6717933"><ele>223.0</ele><time>2026-04-18T13:54:17.992Z</time></trkpt><trkpt lat="44.2096367" lon="11.67193"><ele>223.0</ele><time>2026-04-18T13:54:18.993Z</time></trkpt><trkpt lat="44.209695" lon="11.6720517"><ele>223.0</ele><time>2026-04-18T13:54:19.993Z</time></trkpt><trkpt lat="44.2097333" lon="11.67218"><ele>224.4</ele><time>2026-04-18T13:54:20.994Z</time></trkpt><trkpt lat="44.2097533" lon="11.6723183"><ele>225.8</ele><time>2026-04-18T13:54:21.992Z</time></trkpt><trkpt lat="44.2097683" lon="11.6724683"><ele>227.2</ele><time>2026-04-18T13:54:22.994Z</time></trkpt><trkpt lat="44.2097833" lon="11.6726267"><ele>228.6</ele><time>2026-04-18T13:54:23.994Z</time></trkpt><trkpt lat="44.2098033" lon="11.67279"><ele>230.0</ele><time>2026-04-18T13:54:24.993Z</time></trkpt><trkpt lat="44.2098233" lon="11.6729567"><ele>229.25</ele><time>2026-04-18T13:54:25.992Z</time></trkpt><trkpt lat="44.2098367" lon="11.673125"><ele>228.5</ele><time>2026-04-18T13:54:26.995Z</time></trkpt><trkpt lat="44.2098583" lon="11.6732917"><ele>227.75</ele><time>2026-04-18T13:54:27.994Z</time></trkpt><trkpt lat="44.2098883" lon="11.67346"><ele>227.0</ele><time>2026-04-18T13:54:28.996Z</time></trkpt><trkpt lat="44.2099283" lon="11.6736083"><ele>229.0</ele><time>2026-04-18T13:54:29.994Z</time></trkpt><trkpt lat="44.2099967" lon="11.6737283"><ele>231.0</ele><time>2026-04-18T13:54:30.994Z</time></trkpt><trkpt lat="44.2100883" lon="11.6738233"><ele>233.0</ele><time>2026-04-18T13:54:31.995Z</time></trkpt><trkpt lat="44.210185" lon="11.67391"><ele>235.0</ele><time>2026-04-18T13:54:32.994Z</time></trkpt><trkpt lat="44.2102867" lon="11.674"><ele>235.0</ele><time>2026-04-18T13:54:33.995Z</time></trkpt><trkpt lat="44.210375" lon="11.6741033"><ele>235.0</ele><time>2026-04-18T13:54:34.995Z</time></trkpt><trkpt lat="44.210435" lon="11.6742367"><ele>235.0</ele><time>2026-04-18T13:54:35.994Z</time></trkpt><trkpt lat="44.2104683" lon="11.6743917"><ele>235.0</ele><time>2026-04-18T13:54:36.993Z</time></trkpt><trkpt lat="44.2104883" lon="11.674575"><ele>235.0</ele><time>2026-04-18T13:54:37.994Z</time></trkpt><trkpt lat="44.210505" lon="11.67477"><ele>235.0</ele><time>2026-04-18T13:54:38.995Z</time></trkpt><trkpt lat="44.2105167" lon="11.6749767"><ele>235.0</ele><time>2026-04-18T13:54:39.993Z</time></trkpt><trkpt lat="44.210515" lon="11.67519"><ele>235.0</ele><time>2026-04-18T13:54:40.993Z</time></trkpt><trkpt lat="44.2105167" lon="11.6754067"><ele>235.0</ele><time>2026-04-18T13:54:41.994Z</time></trkpt><trkpt lat="44.2105433" lon="11.6756233"><ele>235.0</ele><time>2026-04-18T13:54:42.994Z</time></trkpt><trkpt lat="44.2105967" lon="11.6758383"><ele>235.0</ele><time>2026-04-18T13:54:43.993Z</time></trkpt><trkpt lat="44.2106667" lon="11.6760417"><ele>231.0</ele><time>2026-04-18T13:54:44.995Z</time></trkpt><trkpt lat="44.2107517" lon="11.6762283"><ele>227.0</ele><time>2026-04-18T13:54:45.992Z</time></trkpt><trkpt lat="44.2108617" lon="11.6763983"><ele>223.0</ele><time>2026-04-18T13:54:46.994Z</time></trkpt><trkpt lat="44.21099" lon="11.6765567"><ele>223.0</ele><time>2026-04-18T13:54:47.993Z</time></trkpt><trkpt lat="44.2111333" lon="11.676715"><ele>223.0</ele><time>2026-04-18T13:54:48.993Z</time></trkpt><trkpt lat="44.2112867" lon="11.6768783"><ele>223.0</ele><time>2026-04-18T13:54:49.993Z</time></trkpt><trkpt lat="44.2114383" lon="11.6770417"><ele>219.66666666666666</ele><time>2026-04-18T13:54:50.992Z</time></trkpt><trkpt lat="44.211595" lon="11.67721"><ele>216.33333333333331</ele><time>2026-04-18T13:54:51.993Z</time></trkpt><trkpt lat="44.2117533" lon="11.67739"><ele>213.0</ele><time>2026-04-18T13:54:52.993Z</time></trkpt><trkpt lat="44.2119167" lon="11.6775717"><ele>213.0</ele><time>2026-04-18T13:54:53.994Z</time></trkpt><trkpt lat="44.2120767" lon="11.6777533"><ele>213.0</ele><time>2026-04-18T13:54:54.993Z</time></trkpt><trkpt lat="44.21223" lon="11.67793"><ele>213.0</ele><time>2026-04-18T13:54:55.993Z</time></trkpt><trkpt lat="44.2123683" lon="11.67809"><ele>213.0</ele><time>2026-04-18T13:54:56.993Z</time></trkpt><trkpt lat="44.2124867" lon="11.67823"><ele>213.0</ele><time>2026-04-18T13:54:57.993Z</time></trkpt><trkpt lat="44.21258" lon="11.6783583"><ele>213.0</ele><time>2026-04-18T13:54:58.994Z</time></trkpt><trkpt lat="44.212645" lon="11.678495"><ele>213.0</ele><time>2026-04-18T13:54:59.993Z</time></trkpt><trkpt lat="44.2126883" lon="11.6786533"><ele>213.0</ele><time>2026-04-18T13:55:00.994Z</time></trkpt><trkpt lat="44.2127133" lon="11.6788417"><ele>213.0</ele><time>2026-04-18T13:55:01.994Z</time></trkpt><trkpt lat="44.21274" lon="11.679045"><ele>213.0</ele><time>2026-04-18T13:55:02.994Z</time></trkpt><trkpt lat="44.2127717" lon="11.6792467"><ele>213.0</ele><time>2026-04-18T13:55:03.993Z</time></trkpt><trkpt lat="44.2127967" lon="11.6794267"><ele>212.0</ele><time>2026-04-18T13:55:04.993Z</time></trkpt><trkpt lat="44.212805" lon="11.67958"><ele>211.0</ele><time>2026-04-18T13:55:05.995Z</time></trkpt><trkpt lat="44.2127967" lon="11.6797117"><ele>210.0</ele><time>2026-04-18T13:55:06.994Z</time></trkpt><trkpt lat="44.2127633" lon="11.6798283"><ele>209.0</ele><time>2026-04-18T13:55:07.993Z</time></trkpt><trkpt lat="44.21271" lon="11.679945"><ele>208.0</ele><time>2026-04-18T13:55:08.995Z</time></trkpt><trkpt lat="44.21264" lon="11.6800583"><ele>208.0</ele><time>2026-04-18T13:55:09.994Z</time></trkpt><trkpt lat="44.2125883" lon="11.6801733"><ele>208.0</ele><time>2026-04-18T13:55:10.995Z</time></trkpt><trkpt lat="44.21256" lon="11.6802983"><ele>208.0</ele><time>2026-04-18T13:55:11.995Z</time></trkpt><trkpt lat="44.2125733" lon="11.6804217"><ele>208.0</ele><time>2026-04-18T13:55:12.995Z</time></trkpt><trkpt lat="44.2126233" lon="11.6805317"><ele>208.0</ele><time>2026-04-18T13:55:13.994Z</time></trkpt><trkpt lat="44.2127" lon="11.6806317"><ele>207.75</ele><time>2026-04-18T13:55:14.994Z</time></trkpt><trkpt lat="44.2128017" lon="11.6807417"><ele>207.5</ele><time>2026-04-18T13:55:15.994Z</time></trkpt><trkpt lat="44.2129233" lon="11.6808667"><ele>207.25</ele><time>2026-04-18T13:55:16.994Z</time></trkpt><trkpt lat="44.2130567" lon="11.681005"><ele>207.0</ele><time>2026-04-18T13:55:17.995Z</time></trkpt><trkpt lat="44.21319" lon="11.6811483"><ele>206.5</ele><time>2026-04-18T13:55:18.995Z</time></trkpt><trkpt lat="44.213325" lon="11.6812783"><ele>206.0</ele><time>2026-04-18T13:55:19.994Z</time></trkpt><trkpt lat="44.2134483" lon="11.6813867"><ele>205.5</ele><time>2026-04-18T13:55:20.995Z</time></trkpt><trkpt lat="44.2135717" lon="11.6814633"><ele>205.0</ele><time>2026-04-18T13:55:21.994Z</time></trkpt><trkpt lat="44.2137033" lon="11.68152"><ele>205.0</ele><time>2026-04-18T13:55:22.993Z</time></trkpt><trkpt lat="44.2138233" lon="11.6815683"><ele>205.0</ele><time>2026-04-18T13:55:23.993Z</time></trkpt><trkpt lat="44.2139133" lon="11.68163"><ele>205.0</ele><time>2026-04-18T13:55:24.992Z</time></trkpt><trkpt lat="44.213985" lon="11.6817067"><ele>205.0</ele><time>2026-04-18T13:55:25.994Z</time></trkpt><trkpt lat="44.2140483" lon="11.6818333"><ele>205.0</ele><time>2026-04-18T13:55:26.993Z</time></trkpt><trkpt lat="44.2141117" lon="11.6820067"><ele>206.33333333333331</ele><time>2026-04-18T13:55:27.993Z</time></trkpt><trkpt lat="44.214185" lon="11.682195"><ele>207.66666666666669</ele><time>2026-04-18T13:55:28.993Z</time></trkpt><trkpt lat="44.2142583" lon="11.682405"><ele>209.0</ele><time>2026-04-18T13:55:29.993Z</time></trkpt><trkpt lat="44.2143267" lon="11.6826267"><ele>207.66666666666669</ele><time>2026-04-18T13:55:30.993Z</time></trkpt><trkpt lat="44.2143967" lon="11.6828317"><ele>206.33333333333331</ele><time>2026-04-18T13:55:31.994Z</time></trkpt><trkpt lat="44.21448" lon="11.683015"><ele>205.0</ele><time>2026-04-18T13:55:32.994Z</time></trkpt><trkpt lat="44.214575" lon="11.683175"><ele>205.0</ele><time>2026-04-18T13:55:33.994Z</time></trkpt><trkpt lat="44.21468" lon="11.6833417"><ele>205.0</ele><time>2026-04-18T13:55:34.992Z</time></trkpt><trkpt lat="44.214795" lon="11.6835167"><ele>205.0</ele><time>2026-04-18T13:55:35.993Z</time></trkpt><trkpt lat="44.214915" lon="11.6836983"><ele>204.66666666666666</ele><time>2026-04-18T13:55:36.993Z</time></trkpt><trkpt lat="44.2150417" lon="11.6838883"><ele>204.33333333333331</ele><time>2026-04-18T13:55:37.993Z</time></trkpt><trkpt lat="44.21517" lon="11.68409"><ele>204.0</ele><time>2026-04-18T13:55:38.994Z</time></trkpt><trkpt lat="44.2152917" lon="11.6842883"><ele>201.66666666666669</ele><time>2026-04-18T13:55:39.993Z</time></trkpt><trkpt lat="44.2154117" lon="11.6844967"><ele>199.33333333333334</ele><time>2026-04-18T13:55:40.994Z</time></trkpt><trkpt lat="44.2155283" lon="11.684725"><ele>197.0</ele><time>2026-04-18T13:55:41.993Z</time></trkpt><trkpt lat="44.215645" lon="11.68496"><ele>197.0</ele><time>2026-04-18T13:55:42.994Z</time></trkpt><trkpt lat="44.2157617" lon="11.6851967"><ele>197.0</ele><time>2026-04-18T13:55:43.993Z</time></trkpt><trkpt lat="44.21588" lon="11.6854333"><ele>197.0</ele><time>2026-04-18T13:55:44.993Z</time></trkpt><trkpt lat="44.215995" lon="11.6856617"><ele>197.0</ele><time>2026-04-18T13:55:45.993Z</time></trkpt><trkpt lat="44.2161033" lon="11.6858717"><ele>197.0</ele><time>2026-04-18T13:55:46.994Z</time></trkpt><trkpt lat="44.2162017" lon="11.686065"><ele>197.0</ele><time>2026-04-18T13:55:47.993Z</time></trkpt><trkpt lat="44.2163017" lon="11.68626"><ele>198.0</ele><time>2026-04-18T13:55:48.992Z</time></trkpt><trkpt lat="44.2164017" lon="11.6864417"><ele>199.0</ele><time>2026-04-18T13:55:49.993Z</time></trkpt><trkpt lat="44.21651" lon="11.6866183"><ele>200.0</ele><time>2026-04-18T13:55:50.994Z</time></trkpt><trkpt lat="44.2166433" lon="11.686785"><ele>197.33333333333334</ele><time>2026-04-18T13:55:51.992Z</time></trkpt><trkpt lat="44.2167917" lon="11.6869467"><ele>194.66666666666669</ele><time>2026-04-18T13:55:52.993Z</time></trkpt><trkpt lat="44.2169467" lon="11.68711"><ele>192.0</ele><time>2026-04-18T13:55:53.993Z</time></trkpt><trkpt lat="44.217105" lon="11.68728"><ele>192.0</ele><time>2026-04-18T13:55:54.993Z</time></trkpt><trkpt lat="44.2172717" lon="11.6874517"><ele>192.0</ele><time>2026-04-18T13:55:55.994Z</time></trkpt><trkpt lat="44.21744" lon="11.6876267"><ele>192.0</ele><time>2026-04-18T13:55:56.993Z</time></trkpt><trkpt lat="44.2176067" lon="11.6878017"><ele>192.33333333333331</ele><time>2026-04-18T13:55:57.993Z</time></trkpt><trkpt lat="44.2177783" lon="11.6879783"><ele>192.66666666666666</ele><time>2026-04-18T13:55:58.994Z</time></trkpt><trkpt lat="44.2179617" lon="11.6881633"><ele>193.0</ele><time>2026-04-18T13:55:59.994Z</time></trkpt><trkpt lat="44.2181417" lon="11.6883483"><ele>193.0</ele><time>2026-04-18T13:56:00.993Z</time></trkpt><trkpt lat="44.2183183" lon="11.6885367"><ele>193.0</ele><time>2026-04-18T13:56:01.994Z</time></trkpt><trkpt lat="44.218485" lon="11.6887217"><ele>193.0</ele><time>2026-04-18T13:56:02.994Z</time></trkpt><trkpt lat="44.2186433" lon="11.6888983"><ele>191.66666666666666</ele><time>2026-04-18T13:56:03.993Z</time></trkpt><trkpt lat="44.2187983" lon="11.68907"><ele>190.33333333333331</ele><time>2026-04-18T13:56:04.993Z</time></trkpt><trkpt lat="44.2189467" lon="11.6892333"><ele>189.0</ele><time>2026-04-18T13:56:05.993Z</time></trkpt><trkpt lat="44.21909" lon="11.6893833"><ele>186.66666666666666</ele><time>2026-04-18T13:56:06.994Z</time></trkpt><trkpt lat="44.2192283" lon="11.6895167"><ele>184.33333333333331</ele><time>2026-04-18T13:56:07.993Z</time></trkpt><trkpt lat="44.2193633" lon="11.6896233"><ele>182.0</ele><time>2026-04-18T13:56:08.994Z</time></trkpt><trkpt lat="44.2195117" lon="11.6897167"><ele>182.0</ele><time>2026-04-18T13:56:09.994Z</time></trkpt><trkpt lat="44.21968" lon="11.6897933"><ele>182.0</ele><time>2026-04-18T13:56:10.993Z</time></trkpt><trkpt lat="44.2198583" lon="11.6898583"><ele>182.0</ele><time>2026-04-18T13:56:11.993Z</time></trkpt><trkpt lat="44.220035" lon="11.6899267"><ele>181.75</ele><time>2026-04-18T13:56:12.993Z</time></trkpt><trkpt lat="44.220195" lon="11.6899917"><ele>181.5</ele><time>2026-04-18T13:56:13.993Z</time></trkpt><trkpt lat="44.2203333" lon="11.69005"><ele>181.25</ele><time>2026-04-18T13:56:14.993Z</time></trkpt><trkpt lat="44.2204367" lon="11.690095"><ele>181.0</ele><time>2026-04-18T13:56:15.992Z</time></trkpt><trkpt lat="44.2205167" lon="11.6901567"><ele>181.0</ele><time>2026-04-18T13:56:16.993Z</time></trkpt><trkpt lat="44.2205867" lon="11.690255"><ele>181.0</ele><time>2026-04-18T13:56:17.993Z</time></trkpt><trkpt lat="44.2206567" lon="11.6904"><ele>181.0</ele><time>2026-04-18T13:56:18.994Z</time></trkpt><trkpt lat="44.2207367" lon="11.6905717"><ele>181.0</ele><time>2026-04-18T13:56:19.993Z</time></trkpt><trkpt lat="44.2208217" lon="11.6907683"><ele>181.33333333333334</ele><time>2026-04-18T13:56:20.994Z</time></trkpt><trkpt lat="44.22092" lon="11.6909683"><ele>181.66666666666666</ele><time>2026-04-18T13:56:21.993Z</time></trkpt><trkpt lat="44.2210133" lon="11.691155"><ele>182.0</ele><time>2026-04-18T13:56:22.992Z</time></trkpt><trkpt lat="44.2210917" lon="11.691315"><ele>184.0</ele><time>2026-04-18T13:56:23.993Z</time></trkpt><trkpt lat="44.2211417" lon="11.69147"><ele>186.0</ele><time>2026-04-18T13:56:24.994Z</time></trkpt><trkpt lat="44.2211567" lon="11.6916333"><ele>188.0</ele><time>2026-04-18T13:56:25.993Z</time></trkpt><trkpt lat="44.22114" lon="11.691815"><ele>190.0</ele><time>2026-04-18T13:56:26.993Z</time></trkpt><trkpt lat="44.2211083" lon="11.6920033"><ele>191.2</ele><time>2026-04-18T13:56:27.994Z</time></trkpt><trkpt lat="44.221095" lon="11.6921833"><ele>192.4</ele><time>2026-04-18T13:56:28.995Z</time></trkpt><trkpt lat="44.2210983" lon="11.69234"><ele>193.60000000000002</ele><time>2026-04-18T13:56:29.993Z</time></trkpt><trkpt lat="44.2211267" lon="11.6924733"><ele>194.8</ele><time>2026-04-18T13:56:30.993Z</time></trkpt><trkpt lat="44.221185" lon="11.692595"><ele>196.0</ele><time>2026-04-18T13:56:31.993Z</time></trkpt><trkpt lat="44.2212767" lon="11.692695"><ele>194.75</ele><time>2026-04-18T13:56:32.993Z</time></trkpt><trkpt lat="44.22137" lon="11.692775"><ele>193.5</ele><time>2026-04-18T13:56:33.993Z</time></trkpt><trkpt lat="44.2214733" lon="11.69282"><ele>192.25</ele><time>2026-04-18T13:56:34.995Z</time></trkpt><trkpt lat="44.2215983" lon="11.6928367"><ele>191.0</ele><time>2026-04-18T13:56:35.993Z</time></trkpt><trkpt lat="44.2217333" lon="11.69284"><ele>191.0</ele><time>2026-04-18T13:56:36.993Z</time></trkpt><trkpt lat="44.2218583" lon="11.69286"><ele>191.0</ele><time>2026-04-18T13:56:37.993Z</time></trkpt><trkpt lat="44.2219717" lon="11.6928983"><ele>191.0</ele><time>2026-04-18T13:56:38.993Z</time></trkpt><trkpt lat="44.222075" lon="11.6929617"><ele>191.0</ele><time>2026-04-18T13:56:39.992Z</time></trkpt><trkpt lat="44.2221767" lon="11.69307"><ele>191.0</ele><time>2026-04-18T13:56:40.993Z</time></trkpt><trkpt lat="44.22228" lon="11.69321"><ele>191.0</ele><time>2026-04-18T13:56:41.993Z</time></trkpt><trkpt lat="44.2223883" lon="11.6933667"><ele>191.0</ele><time>2026-04-18T13:56:42.993Z</time></trkpt><trkpt lat="44.222495" lon="11.6935333"><ele>187.66666666666666</ele><time>2026-04-18T13:56:43.994Z</time></trkpt><trkpt lat="44.2226" lon="11.693695"><ele>184.33333333333334</ele><time>2026-04-18T13:56:44.993Z</time></trkpt><trkpt lat="44.2227033" lon="11.69386"><ele>181.0</ele><time>2026-04-18T13:56:45.993Z</time></trkpt><trkpt lat="44.2228033" lon="11.6940117"><ele>181.0</ele><time>2026-04-18T13:56:46.992Z</time></trkpt><trkpt lat="44.2229083" lon="11.694145"><ele>181.0</ele><time>2026-04-18T13:56:47.992Z</time></trkpt><trkpt lat="44.22302" lon="11.69426"><ele>181.0</ele><time>2026-04-18T13:56:48.994Z</time></trkpt><trkpt lat="44.2231417" lon="11.694355"><ele>181.0</ele><time>2026-04-18T13:56:49.993Z</time></trkpt><trkpt lat="44.2232633" lon="11.6944433"><ele>181.25</ele><time>2026-04-18T13:56:50.993Z</time></trkpt><trkpt lat="44.2233783" lon="11.6945333"><ele>181.5</ele><time>2026-04-18T13:56:51.993Z</time></trkpt><trkpt lat="44.2234917" lon="11.69461"><ele>181.75</ele><time>2026-04-18T13:56:52.994Z</time></trkpt><trkpt lat="44.22361" lon="11.6946683"><ele>182.0</ele><time>2026-04-18T13:56:53.994Z</time></trkpt><trkpt lat="44.223735" lon="11.694705"><ele>182.0</ele><time>2026-04-18T13:56:54.994Z</time></trkpt><trkpt lat="44.2238667" lon="11.694725"><ele>182.0</ele><time>2026-04-18T13:56:55.992Z</time></trkpt><trkpt lat="44.2239967" lon="11.6947383"><ele>182.0</ele><time>2026-04-18T13:56:56.994Z</time></trkpt><trkpt lat="44.2241217" lon="11.6947483"><ele>182.0</ele><time>2026-04-18T13:56:57.993Z</time></trkpt><trkpt lat="44.2242383" lon="11.6947667"><ele>179.2</ele><time>2026-04-18T13:56:58.995Z</time></trkpt><trkpt lat="44.2243467" lon="11.694795"><ele>176.39999999999998</ele><time>2026-04-18T13:56:59.994Z</time></trkpt><trkpt lat="44.22445" lon="11.6948283"><ele>173.60000000000002</ele><time>2026-04-18T13:57:00.994Z</time></trkpt><trkpt lat="44.2245483" lon="11.69487"><ele>170.8</ele><time>2026-04-18T13:57:01.994Z</time></trkpt><trkpt lat="44.22465" lon="11.6949233"><ele>168.0</ele><time>2026-04-18T13:57:02.995Z</time></trkpt><trkpt lat="44.2247533" lon="11.6949833"><ele>167.4</ele><time>2026-04-18T13:57:03.995Z</time></trkpt><trkpt lat="44.2248467" lon="11.6950583"><ele>166.8</ele><time>2026-04-18T13:57:04.995Z</time></trkpt><trkpt lat="44.22493" lon="11.695145"><ele>166.2</ele><time>2026-04-18T13:57:05.995Z</time></trkpt><trkpt lat="44.2250067" lon="11.6952467"><ele>165.6</ele><time>2026-04-18T13:57:06.995Z</time></trkpt><trkpt lat="44.2250683" lon="11.6953567"><ele>165.0</ele><time>2026-04-18T13:57:07.993Z</time></trkpt><trkpt lat="44.2251233" lon="11.6954667"><ele>167.6</ele><time>2026-04-18T13:57:08.994Z</time></trkpt><trkpt lat="44.2251783" lon="11.6955717"><ele>170.2</ele><time>2026-04-18T13:57:09.993Z</time></trkpt><trkpt lat="44.225235" lon="11.6956817"><ele>172.8</ele><time>2026-04-18T13:57:10.993Z</time></trkpt><trkpt lat="44.2252967" lon="11.6957983"><ele>175.4</ele><time>2026-04-18T13:57:11.994Z</time></trkpt><trkpt lat="44.225365" lon="11.6959117"><ele>178.0</ele><time>2026-04-18T13:57:12.994Z</time></trkpt><trkpt lat="44.22544" lon="11.696025"><ele>177.0</ele><time>2026-04-18T13:57:13.994Z</time></trkpt><trkpt lat="44.2255283" lon="11.6961367"><ele>176.0</ele><time>2026-04-18T13:57:14.994Z</time></trkpt><trkpt lat="44.2256233" lon="11.6962383"><ele>175.0</ele><time>2026-04-18T13:57:15.992Z</time></trkpt><trkpt lat="44.225735" lon="11.6963333"><ele>174.0</ele><time>2026-04-18T13:57:16.993Z</time></trkpt><trkpt lat="44.22587" lon="11.6964167"><ele>174.0</ele><time>2026-04-18T13:57:17.993Z</time></trkpt><trkpt lat="44.2260133" lon="11.6964917"><ele>174.0</ele><time>2026-04-18T13:57:18.993Z</time></trkpt><trkpt lat="44.2261617" lon="11.6965617"><ele>174.0</ele><time>2026-04-18T13:57:19.992Z</time></trkpt><trkpt lat="44.2263167" lon="11.6966267"><ele>174.0</ele><time>2026-04-18T13:57:20.993Z</time></trkpt><trkpt lat="44.226475" lon="11.69668"><ele>174.0</ele><time>2026-04-18T13:57:21.994Z</time></trkpt><trkpt lat="44.2266333" lon="11.6967133"><ele>174.0</ele><time>2026-04-18T13:57:22.993Z</time></trkpt><trkpt lat="44.2267867" lon="11.6967267"><ele>171.75</ele><time>2026-04-18T13:57:23.992Z</time></trkpt><trkpt lat="44.2269333" lon="11.6967167"><ele>169.5</ele><time>2026-04-18T13:57:24.993Z</time></trkpt><trkpt lat="44.227065" lon="11.69669"><ele>167.25</ele><time>2026-04-18T13:57:25.993Z</time></trkpt><trkpt lat="44.22718" lon="11.696665"><ele>165.0</ele><time>2026-04-18T13:57:26.994Z</time></trkpt><trkpt lat="44.22727" lon="11.6966483"><ele>164.0</ele><time>2026-04-18T13:57:27.993Z</time></trkpt><trkpt lat="44.2273683" lon="11.6966333"><ele>163.0</ele><time>2026-04-18T13:57:29.993Z</time></trkpt><trkpt lat="44.2274367" lon="11.6966383"><ele>162.0</ele><time>2026-04-18T13:57:31.993Z</time></trkpt><trkpt lat="44.22754" lon="11.69662"><ele>161.0</ele><time>2026-04-18T13:57:33.993Z</time></trkpt><trkpt lat="44.2276017" lon="11.69658"><ele>160.0</ele><time>2026-04-18T13:57:34.993Z</time></trkpt><trkpt lat="44.227655" lon="11.6965017"><ele>159.0</ele><time>2026-04-18T13:57:35.994Z</time></trkpt><trkpt lat="44.227695" lon="11.6963933"><ele>159.0</ele><time>2026-04-18T13:57:36.994Z</time></trkpt><trkpt lat="44.2277333" lon="11.6962867"><ele>159.0</ele><time>2026-04-18T13:57:37.992Z</time></trkpt><trkpt lat="44.22777" lon="11.6961967"><ele>159.0</ele><time>2026-04-18T13:57:38.994Z</time></trkpt><trkpt lat="44.2278283" lon="11.6961"><ele>159.0</ele><time>2026-04-18T13:57:40.994Z</time></trkpt><trkpt lat="44.2279217" lon="11.6960867"><ele>159.0</ele><time>2026-04-18T13:57:42.993Z</time></trkpt><trkpt lat="44.2279833" lon="11.6961183"><ele>159.0</ele><time>2026-04-18T13:57:43.993Z</time></trkpt><trkpt lat="44.228055" lon="11.6961933"><ele>159.0</ele><time>2026-04-18T13:57:44.993Z</time></trkpt><trkpt lat="44.2281317" lon="11.6962917"><ele>159.0</ele><time>2026-04-18T13:57:45.993Z</time></trkpt><trkpt lat="44.2281917" lon="11.69644"><ele>159.0</ele><time>2026-04-18T13:57:46.992Z</time></trkpt><trkpt lat="44.22823" lon="11.6965933"><ele>159.0</ele><time>2026-04-18T13:57:47.993Z</time></trkpt><trkpt lat="44.2282283" lon="11.6967767"><ele>160.25</ele><time>2026-04-18T13:57:48.992Z</time></trkpt><trkpt lat="44.2282117" lon="11.696965"><ele>161.5</ele><time>2026-04-18T13:57:49.992Z</time></trkpt><trkpt lat="44.2282017" lon="11.6971633"><ele>162.75</ele><time>2026-04-18T13:57:50.993Z</time></trkpt><trkpt lat="44.2282117" lon="11.6973633"><ele>164.0</ele><time>2026-04-18T13:57:51.993Z</time></trkpt><trkpt lat="44.2282367" lon="11.6975833"><ele>163.0</ele><time>2026-04-18T13:57:52.993Z</time></trkpt><trkpt lat="44.2282783" lon="11.6978"><ele>162.0</ele><time>2026-04-18T13:57:53.993Z</time></trkpt><trkpt lat="44.2283317" lon="11.6980183"><ele>161.0</ele><time>2026-04-18T13:57:54.993Z</time></trkpt><trkpt lat="44.2283833" lon="11.6982417"><ele>161.0</ele><time>2026-04-18T13:57:55.994Z</time></trkpt><trkpt lat="44.2284417" lon="11.698465"><ele>161.0</ele><time>2026-04-18T13:57:56.994Z</time></trkpt><trkpt lat="44.2285017" lon="11.6986883"><ele>161.0</ele><time>2026-04-18T13:57:57.993Z</time></trkpt><trkpt lat="44.2285667" lon="11.6989183"><ele>160.66666666666666</ele><time>2026-04-18T13:57:58.993Z</time></trkpt><trkpt lat="44.2286217" lon="11.6991533"><ele>160.33333333333334</ele><time>2026-04-18T13:57:59.993Z</time></trkpt><trkpt lat="44.2286817" lon="11.6993933"><ele>160.0</ele><time>2026-04-18T13:58:00.993Z</time></trkpt><trkpt lat="44.2287433" lon="11.69964"><ele>160.0</ele><time>2026-04-18T13:58:01.993Z</time></trkpt><trkpt lat="44.2288083" lon="11.69989"><ele>160.0</ele><time>2026-04-18T13:58:02.993Z</time></trkpt><trkpt lat="44.2288817" lon="11.70014"><ele>160.0</ele><time>2026-04-18T13:58:03.993Z</time></trkpt><trkpt lat="44.22896" lon="11.7003917"><ele>158.33333333333334</ele><time>2026-04-18T13:58:04.993Z</time></trkpt><trkpt lat="44.2290433" lon="11.7006433"><ele>156.66666666666666</ele><time>2026-04-18T13:58:05.993Z</time></trkpt><trkpt lat="44.2291233" lon="11.7009033"><ele>155.0</ele><time>2026-04-18T13:58:06.994Z</time></trkpt><trkpt lat="44.2292083" lon="11.7011667"><ele>154.0</ele><time>2026-04-18T13:58:07.993Z</time></trkpt><trkpt lat="44.2292983" lon="11.70143"><ele>153.0</ele><time>2026-04-18T13:58:08.993Z</time></trkpt><trkpt lat="44.2293783" lon="11.7016917"><ele>152.0</ele><time>2026-04-18T13:58:09.993Z</time></trkpt><trkpt lat="44.2294483" lon="11.701945"><ele>151.66666666666666</ele><time>2026-04-18T13:58:10.993Z</time></trkpt><trkpt lat="44.2295017" lon="11.7021983"><ele>151.33333333333334</ele><time>2026-04-18T13:58:11.993Z</time></trkpt><trkpt lat="44.2295383" lon="11.7024617"><ele>151.0</ele><time>2026-04-18T13:58:12.993Z</time></trkpt><trkpt lat="44.2295617" lon="11.7027367"><ele>151.0</ele><time>2026-04-18T13:58:13.995Z</time></trkpt><trkpt lat="44.2295833" lon="11.703025"><ele>151.0</ele><time>2026-04-18T13:58:14.994Z</time></trkpt><trkpt lat="44.229595" lon="11.703315"><ele>151.0</ele><time>2026-04-18T13:58:15.993Z</time></trkpt><trkpt lat="44.2296067" lon="11.7036083"><ele>151.0</ele><time>2026-04-18T13:58:16.993Z</time></trkpt><trkpt lat="44.2296167" lon="11.703905"><ele>151.0</ele><time>2026-04-18T13:58:17.993Z</time></trkpt><trkpt lat="44.2296283" lon="11.7041983"><ele>151.0</ele><time>2026-04-18T13:58:18.994Z</time></trkpt><trkpt lat="44.2296417" lon="11.7044933"><ele>151.0</ele><time>2026-04-18T13:58:19.992Z</time></trkpt><trkpt lat="44.2296567" lon="11.7047883"><ele>151.0</ele><time>2026-04-18T13:58:20.994Z</time></trkpt><trkpt lat="44.2296683" lon="11.7050833"><ele>151.0</ele><time>2026-04-18T13:58:21.993Z</time></trkpt><trkpt lat="44.2296833" lon="11.7053767"><ele>151.0</ele><time>2026-04-18T13:58:22.993Z</time></trkpt><trkpt lat="44.2296983" lon="11.7056617"><ele>151.0</ele><time>2026-04-18T13:58:23.993Z</time></trkpt><trkpt lat="44.22971" lon="11.7059283"><ele>151.0</ele><time>2026-04-18T13:58:24.993Z</time></trkpt><trkpt lat="44.22972" lon="11.7061683"><ele>151.0</ele><time>2026-04-18T13:58:25.992Z</time></trkpt><trkpt lat="44.22973" lon="11.7063817"><ele>151.0</ele><time>2026-04-18T13:58:26.994Z</time></trkpt><trkpt lat="44.2297383" lon="11.7065783"><ele>151.0</ele><time>2026-04-18T13:58:27.994Z</time></trkpt><trkpt lat="44.2297517" lon="11.7067583"><ele>151.0</ele><time>2026-04-18T13:58:28.993Z</time></trkpt><trkpt lat="44.2297683" lon="11.7069267"><ele>151.25</ele><time>2026-04-18T13:58:29.994Z</time></trkpt><trkpt lat="44.229795" lon="11.7070833"><ele>151.5</ele><time>2026-04-18T13:58:30.993Z</time></trkpt><trkpt lat="44.229835" lon="11.7072267"><ele>151.75</ele><time>2026-04-18T13:58:31.996Z</time></trkpt><trkpt lat="44.2298933" lon="11.707365"><ele>152.0</ele><time>2026-04-18T13:58:32.994Z</time></trkpt><trkpt lat="44.229965" lon="11.707495"><ele>150.75</ele><time>2026-04-18T13:58:33.994Z</time></trkpt><trkpt lat="44.2300533" lon="11.7076117"><ele>149.5</ele><time>2026-04-18T13:58:34.995Z</time></trkpt><trkpt lat="44.2301567" lon="11.707725"><ele>148.25</ele><time>2026-04-18T13:58:35.994Z</time></trkpt><trkpt lat="44.2302667" lon="11.7078383"><ele>147.0</ele><time>2026-04-18T13:58:36.993Z</time></trkpt><trkpt lat="44.2303833" lon="11.7079567"><ele>147.0</ele><time>2026-04-18T13:58:37.994Z</time></trkpt><trkpt lat="44.2305067" lon="11.7080833"><ele>147.0</ele><time>2026-04-18T13:58:38.994Z</time></trkpt><trkpt lat="44.2306317" lon="11.7082133"><ele>147.0</ele><time>2026-04-18T13:58:39.993Z</time></trkpt><trkpt lat="44.23076" lon="11.708345"><ele>148.0</ele><time>2026-04-18T13:58:40.994Z</time></trkpt><trkpt lat="44.230895" lon="11.70848"><ele>149.0</ele><time>2026-04-18T13:58:41.994Z</time></trkpt><trkpt lat="44.2310333" lon="11.708615"><ele>150.0</ele><time>2026-04-18T13:58:42.994Z</time></trkpt><trkpt lat="44.2311667" lon="11.708745"><ele>150.0</ele><time>2026-04-18T13:58:43.993Z</time></trkpt><trkpt lat="44.2312933" lon="11.7088733"><ele>150.0</ele><time>2026-04-18T13:58:44.994Z</time></trkpt><trkpt lat="44.23141" lon="11.7090033"><ele>150.0</ele><time>2026-04-18T13:58:45.993Z</time></trkpt><trkpt lat="44.23151" lon="11.70915"><ele>149.5</ele><time>2026-04-18T13:58:46.995Z</time></trkpt><trkpt lat="44.231585" lon="11.709315"><ele>149.0</ele><time>2026-04-18T13:58:47.992Z</time></trkpt><trkpt lat="44.231645" lon="11.709505"><ele>148.5</ele><time>2026-04-18T13:58:48.993Z</time></trkpt><trkpt lat="44.23169" lon="11.7097117"><ele>148.0</ele><time>2026-04-18T13:58:49.992Z</time></trkpt><trkpt lat="44.2317283" lon="11.7099233"><ele>146.66666666666669</ele><time>2026-04-18T13:58:50.994Z</time></trkpt><trkpt lat="44.2317617" lon="11.7101483"><ele>145.33333333333334</ele><time>2026-04-18T13:58:51.994Z</time></trkpt><trkpt lat="44.2317983" lon="11.7103783"><ele>144.0</ele><time>2026-04-18T13:58:52.993Z</time></trkpt><trkpt lat="44.231835" lon="11.7106083"><ele>143.0</ele><time>2026-04-18T13:58:53.993Z</time></trkpt><trkpt lat="44.23187" lon="11.710815"><ele>142.0</ele><time>2026-04-18T13:58:54.993Z</time></trkpt><trkpt lat="44.2319117" lon="11.71099"><ele>141.0</ele><time>2026-04-18T13:58:55.994Z</time></trkpt><trkpt lat="44.23197" lon="11.711135"><ele>140.0</ele><time>2026-04-18T13:58:56.995Z</time></trkpt><trkpt lat="44.232045" lon="11.7112767"><ele>139.75</ele><time>2026-04-18T13:58:57.994Z</time></trkpt><trkpt lat="44.2321467" lon="11.711395"><ele>139.5</ele><time>2026-04-18T13:58:58.994Z</time></trkpt><trkpt lat="44.232275" lon="11.71148"><ele>139.25</ele><time>2026-04-18T13:58:59.992Z</time></trkpt><trkpt lat="44.2324167" lon="11.711555"><ele>139.0</ele><time>2026-04-18T13:59:00.993Z</time></trkpt><trkpt lat="44.2325667" lon="11.7116317"><ele>139.0</ele><time>2026-04-18T13:59:01.993Z</time></trkpt><trkpt lat="44.2327233" lon="11.7117167"><ele>139.0</ele><time>2026-04-18T13:59:02.993Z</time></trkpt><trkpt lat="44.2328817" lon="11.7118067"><ele>139.0</ele><time>2026-04-18T13:59:03.993Z</time></trkpt><trkpt lat="44.2330433" lon="11.7118933"><ele>139.33333333333334</ele><time>2026-04-18T13:59:04.993Z</time></trkpt><trkpt lat="44.2332067" lon="11.7119767"><ele>139.66666666666666</ele><time>2026-04-18T13:59:05.994Z</time></trkpt><trkpt lat="44.2333617" lon="11.7120583"><ele>140.0</ele><time>2026-04-18T13:59:06.993Z</time></trkpt><trkpt lat="44.2335083" lon="11.71214"><ele>140.0</ele><time>2026-04-18T13:59:07.994Z</time></trkpt><trkpt lat="44.233655" lon="11.7122233"><ele>140.0</ele><time>2026-04-18T13:59:08.995Z</time></trkpt><trkpt lat="44.2337983" lon="11.7123167"><ele>140.0</ele><time>2026-04-18T13:59:09.993Z</time></trkpt><trkpt lat="44.2339217" lon="11.7124333"><ele>140.33333333333331</ele><time>2026-04-18T13:59:10.992Z</time></trkpt><trkpt lat="44.234025" lon="11.7125783"><ele>140.66666666666666</ele><time>2026-04-18T13:59:11.992Z</time></trkpt><trkpt lat="44.2341217" lon="11.7127517"><ele>141.0</ele><time>2026-04-18T13:59:12.993Z</time></trkpt><trkpt lat="44.2342167" lon="11.7129383"><ele>143.66666666666666</ele><time>2026-04-18T13:59:13.993Z</time></trkpt><trkpt lat="44.2343267" lon="11.7131217"><ele>146.33333333333331</ele><time>2026-04-18T13:59:14.993Z</time></trkpt><trkpt lat="44.23444" lon="11.7133083"><ele>149.0</ele><time>2026-04-18T13:59:15.993Z</time></trkpt><trkpt lat="44.2345483" lon="11.71351"><ele>151.66666666666666</ele><time>2026-04-18T13:59:16.993Z</time></trkpt><trkpt lat="44.234665" lon="11.7137133"><ele>154.33333333333334</ele><time>2026-04-18T13:59:17.993Z</time></trkpt><trkpt lat="44.234795" lon="11.7139033"><ele>157.0</ele><time>2026-04-18T13:59:18.994Z</time></trkpt><trkpt lat="44.2349383" lon="11.714075"><ele>155.66666666666669</ele><time>2026-04-18T13:59:19.994Z</time></trkpt><trkpt lat="44.2350867" lon="11.7142417"><ele>154.33333333333334</ele><time>2026-04-18T13:59:20.994Z</time></trkpt><trkpt lat="44.2352417" lon="11.7144067"><ele>153.0</ele><time>2026-04-18T13:59:21.995Z</time></trkpt><trkpt lat="44.2353967" lon="11.7145683"><ele>153.0</ele><time>2026-04-18T13:59:22.994Z</time></trkpt><trkpt lat="44.2355517" lon="11.7147083"><ele>153.0</ele><time>2026-04-18T13:59:23.995Z</time></trkpt><trkpt lat="44.2356967" lon="11.714825"><ele>153.0</ele><time>2026-04-18T13:59:24.994Z</time></trkpt><trkpt lat="44.23582" lon="11.7149333"><ele>152.5</ele><time>2026-04-18T13:59:25.995Z</time></trkpt><trkpt lat="44.23592" lon="11.715055"><ele>152.0</ele><time>2026-04-18T13:59:26.994Z</time></trkpt><trkpt lat="44.236" lon="11.715195"><ele>151.5</ele><time>2026-04-18T13:59:27.994Z</time></trkpt><trkpt lat="44.2360433" lon="11.7153617"><ele>151.0</ele><time>2026-04-18T13:59:28.995Z</time></trkpt><trkpt lat="44.2360667" lon="11.71555"><ele>151.0</ele><time>2026-04-18T13:59:29.994Z</time></trkpt><trkpt lat="44.2360817" lon="11.715745"><ele>151.0</ele><time>2026-04-18T13:59:30.994Z</time></trkpt><trkpt lat="44.2361" lon="11.71594"><ele>151.0</ele><time>2026-04-18T13:59:31.994Z</time></trkpt><trkpt lat="44.236145" lon="11.7161333"><ele>151.0</ele><time>2026-04-18T13:59:32.995Z</time></trkpt><trkpt lat="44.2362233" lon="11.7163017"><ele>153.33333333333334</ele><time>2026-04-18T13:59:33.994Z</time></trkpt><trkpt lat="44.23633" lon="11.7164617"><ele>155.66666666666666</ele><time>2026-04-18T13:59:34.994Z</time></trkpt><trkpt lat="44.2364367" lon="11.7166267"><ele>158.0</ele><time>2026-04-18T13:59:35.994Z</time></trkpt><trkpt lat="44.2365183" lon="11.716805"><ele>152.66666666666666</ele><time>2026-04-18T13:59:36.993Z</time></trkpt><trkpt lat="44.2365767" lon="11.7169883"><ele>147.33333333333334</ele><time>2026-04-18T13:59:37.994Z</time></trkpt><trkpt lat="44.236605" lon="11.7171983"><ele>142.0</ele><time>2026-04-18T13:59:38.993Z</time></trkpt><trkpt lat="44.236615" lon="11.7174317"><ele>142.0</ele><time>2026-04-18T13:59:39.994Z</time></trkpt><trkpt lat="44.2366133" lon="11.717675"><ele>142.0</ele><time>2026-04-18T13:59:40.992Z</time></trkpt><trkpt lat="44.2366117" lon="11.7179267"><ele>142.0</ele><time>2026-04-18T13:59:41.993Z</time></trkpt><trkpt lat="44.2366217" lon="11.7181867"><ele>142.33333333333334</ele><time>2026-04-18T13:59:42.993Z</time></trkpt><trkpt lat="44.2366467" lon="11.7184517"><ele>142.66666666666666</ele><time>2026-04-18T13:59:43.993Z</time></trkpt><trkpt lat="44.2366883" lon="11.7187083"><ele>143.0</ele><time>2026-04-18T13:59:44.994Z</time></trkpt><trkpt lat="44.2367333" lon="11.718945"><ele>145.0</ele><time>2026-04-18T13:59:45.993Z</time></trkpt><trkpt lat="44.236765" lon="11.7191717"><ele>147.0</ele><time>2026-04-18T13:59:46.994Z</time></trkpt><trkpt lat="44.236765" lon="11.7193867"><ele>149.0</ele><time>2026-04-18T13:59:47.993Z</time></trkpt><trkpt lat="44.236735" lon="11.71959"><ele>149.33333333333331</ele><time>2026-04-18T13:59:48.993Z</time></trkpt><trkpt lat="44.2366867" lon="11.7197933"><ele>149.66666666666666</ele><time>2026-04-18T13:59:49.994Z</time></trkpt><trkpt lat="44.23663" lon="11.720005"><ele>150.0</ele><time>2026-04-18T13:59:50.994Z</time></trkpt><trkpt lat="44.2365767" lon="11.7202333"><ele>148.66666666666666</ele><time>2026-04-18T13:59:51.994Z</time></trkpt><trkpt lat="44.2365383" lon="11.7204733"><ele>147.33333333333331</ele><time>2026-04-18T13:59:52.994Z</time></trkpt><trkpt lat="44.2365167" lon="11.7207083"><ele>146.0</ele><time>2026-04-18T13:59:53.994Z</time></trkpt><trkpt lat="44.2365067" lon="11.7209033"><ele>146.0</ele><time>2026-04-18T13:59:54.994Z</time></trkpt><trkpt lat="44.2365233" lon="11.721055"><ele>146.0</ele><time>2026-04-18T13:59:55.994Z</time></trkpt><trkpt lat="44.23657" lon="11.7211767"><ele>146.0</ele><time>2026-04-18T13:59:56.994Z</time></trkpt><trkpt lat="44.2366533" lon="11.7212617"><ele>146.0</ele><time>2026-04-18T13:59:57.994Z</time></trkpt><trkpt lat="44.23677" lon="11.721315"><ele>146.0</ele><time>2026-04-18T13:59:58.994Z</time></trkpt><trkpt lat="44.2369083" lon="11.72136"><ele>144.66666666666666</ele><time>2026-04-18T13:59:59.993Z</time></trkpt><trkpt lat="44.2370633" lon="11.7214067"><ele>143.33333333333334</ele><time>2026-04-18T14:00:00.993Z</time></trkpt><trkpt lat="44.2372067" lon="11.7214633"><ele>142.0</ele><time>2026-04-18T14:00:01.993Z</time></trkpt><trkpt lat="44.2373367" lon="11.72157"><ele>142.0</ele><time>2026-04-18T14:00:02.993Z</time></trkpt><trkpt lat="44.237445" lon="11.7217167"><ele>142.0</ele><time>2026-04-18T14:00:03.993Z</time></trkpt><trkpt lat="44.2375483" lon="11.7218967"><ele>142.0</ele><time>2026-04-18T14:00:04.993Z</time></trkpt><trkpt lat="44.2376383" lon="11.7220967"><ele>144.0</ele><time>2026-04-18T14:00:05.993Z</time></trkpt><trkpt lat="44.2377083" lon="11.722315"><ele>146.0</ele><time>2026-04-18T14:00:06.992Z</time></trkpt><trkpt lat="44.237755" lon="11.7225383"><ele>148.0</ele><time>2026-04-18T14:00:07.993Z</time></trkpt><trkpt lat="44.237815" lon="11.7227383"><ele>150.33333333333334</ele><time>2026-04-18T14:00:08.993Z</time></trkpt><trkpt lat="44.237895" lon="11.722915"><ele>152.66666666666666</ele><time>2026-04-18T14:00:09.993Z</time></trkpt><trkpt lat="44.238005" lon="11.7230633"><ele>155.0</ele><time>2026-04-18T14:00:10.993Z</time></trkpt><trkpt lat="44.23814" lon="11.72319"><ele>153.0</ele><time>2026-04-18T14:00:11.994Z</time></trkpt><trkpt lat="44.2382917" lon="11.7233133"><ele>151.0</ele><time>2026-04-18T14:00:12.993Z</time></trkpt><trkpt lat="44.2384533" lon="11.7234417"><ele>149.0</ele><time>2026-04-18T14:00:13.993Z</time></trkpt><trkpt lat="44.2386233" lon="11.7235717"><ele>149.0</ele><time>2026-04-18T14:00:14.994Z</time></trkpt><trkpt lat="44.238795" lon="11.7237083"><ele>149.0</ele><time>2026-04-18T14:00:15.994Z</time></trkpt><trkpt lat="44.2389633" lon="11.72385"><ele>149.0</ele><time>2026-04-18T14:00:16.993Z</time></trkpt><trkpt lat="44.239125" lon="11.72399"><ele>144.0</ele><time>2026-04-18T14:00:17.993Z</time></trkpt><trkpt lat="44.2392783" lon="11.724115"><ele>139.0</ele><time>2026-04-18T14:00:18.993Z</time></trkpt><trkpt lat="44.2394167" lon="11.7242317"><ele>134.0</ele><time>2026-04-18T14:00:19.994Z</time></trkpt><trkpt lat="44.2395333" lon="11.7243567"><ele>134.75</ele><time>2026-04-18T14:00:20.993Z</time></trkpt><trkpt lat="44.2396133" lon="11.724505"><ele>135.5</ele><time>2026-04-18T14:00:21.995Z</time></trkpt><trkpt lat="44.2396683" lon="11.7246933"><ele>136.25</ele><time>2026-04-18T14:00:22.994Z</time></trkpt><trkpt lat="44.23972" lon="11.7249117"><ele>137.0</ele><time>2026-04-18T14:00:23.993Z</time></trkpt><trkpt lat="44.239765" lon="11.7251467"><ele>130.66666666666666</ele><time>2026-04-18T14:00:24.994Z</time></trkpt><trkpt lat="44.2398133" lon="11.7253883"><ele>124.33333333333334</ele><time>2026-04-18T14:00:25.994Z</time></trkpt><trkpt lat="44.23986" lon="11.7256133"><ele>118.0</ele><time>2026-04-18T14:00:26.996Z</time></trkpt><trkpt lat="44.2398883" lon="11.7258133"><ele>118.0</ele><time>2026-04-18T14:00:27.995Z</time></trkpt><trkpt lat="44.2398917" lon="11.7260067"><ele>118.0</ele><time>2026-04-18T14:00:28.995Z</time></trkpt><trkpt lat="44.2398567" lon="11.7262"><ele>118.0</ele><time>2026-04-18T14:00:29.994Z</time></trkpt><trkpt lat="44.23979" lon="11.7263983"><ele>118.0</ele><time>2026-04-18T14:00:30.994Z</time></trkpt><trkpt lat="44.2397017" lon="11.7265917"><ele>120.25</ele><time>2026-04-18T14:00:31.994Z</time></trkpt><trkpt lat="44.2396183" lon="11.7267733"><ele>122.5</ele><time>2026-04-18T14:00:32.994Z</time></trkpt><trkpt lat="44.2395567" lon="11.7269283"><ele>124.75</ele><time>2026-04-18T14:00:33.992Z</time></trkpt><trkpt lat="44.23954" lon="11.7270683"><ele>127.0</ele><time>2026-04-18T14:00:34.993Z</time></trkpt><trkpt lat="44.2395517" lon="11.7271717"><ele>127.00000000000001</ele><time>2026-04-18T14:00:35.993Z</time></trkpt><trkpt lat="44.239635" lon="11.72724"><ele>127.0</ele><time>2026-04-18T14:00:37.994Z</time></trkpt><trkpt lat="44.23969" lon="11.7271933"><ele>127.0</ele><time>2026-04-18T14:00:38.993Z</time></trkpt><trkpt lat="44.239745" lon="11.72712"><ele>127.0</ele><time>2026-04-18T14:00:39.993Z</time></trkpt><trkpt lat="44.23978" lon="11.72701"><ele>127.00000000000001</ele><time>2026-04-18T14:00:40.994Z</time></trkpt><trkpt lat="44.2398133" lon="11.7268967"><ele>127.0</ele><time>2026-04-18T14:00:41.994Z</time></trkpt><trkpt lat="44.2398717" lon="11.72682"><ele>124.39999999999999</ele><time>2026-04-18T14:00:42.994Z</time></trkpt><trkpt lat="44.2399667" lon="11.7268"><ele>121.79999999999998</ele><time>2026-04-18T14:00:44.995Z</time></trkpt><trkpt lat="44.2400367" lon="11.7269217"><ele>119.2</ele><time>2026-04-18T14:00:46.994Z</time></trkpt><trkpt lat="44.24005" lon="11.727055"><ele>116.6</ele><time>2026-04-18T14:00:47.994Z</time></trkpt><trkpt lat="44.240075" lon="11.72724"><ele>114.0</ele><time>2026-04-18T14:00:48.992Z</time></trkpt><trkpt lat="44.2401067" lon="11.727415"><ele>113.75</ele><time>2026-04-18T14:00:49.994Z</time></trkpt><trkpt lat="44.24015" lon="11.7275733"><ele>113.5</ele><time>2026-04-18T14:00:50.995Z</time></trkpt><trkpt lat="44.2402317" lon="11.7277217"><ele>113.25</ele><time>2026-04-18T14:00:51.993Z</time></trkpt><trkpt lat="44.2403433" lon="11.72787"><ele>113.0</ele><time>2026-04-18T14:00:52.994Z</time></trkpt><trkpt lat="44.2404717" lon="11.7280167"><ele>113.0</ele><time>2026-04-18T14:00:53.994Z</time></trkpt><trkpt lat="44.2406017" lon="11.7281683"><ele>113.0</ele><time>2026-04-18T14:00:54.993Z</time></trkpt><trkpt lat="44.240715" lon="11.7283233"><ele>113.0</ele><time>2026-04-18T14:00:55.993Z</time></trkpt><trkpt lat="44.2407983" lon="11.7284967"><ele>113.33333333333333</ele><time>2026-04-18T14:00:56.995Z</time></trkpt><trkpt lat="44.2408617" lon="11.7286967"><ele>113.66666666666666</ele><time>2026-04-18T14:00:57.993Z</time></trkpt><trkpt lat="44.2409133" lon="11.7289133"><ele>114.0</ele><time>2026-04-18T14:00:58.993Z</time></trkpt><trkpt lat="44.2409617" lon="11.7291367"><ele>114.0</ele><time>2026-04-18T14:00:59.993Z</time></trkpt><trkpt lat="44.2410117" lon="11.729365"><ele>114.0</ele><time>2026-04-18T14:01:00.994Z</time></trkpt><trkpt lat="44.2410833" lon="11.7295933"><ele>114.0</ele><time>2026-04-18T14:01:01.995Z</time></trkpt><trkpt lat="44.2411567" lon="11.729815"><ele>114.0</ele><time>2026-04-18T14:01:02.993Z</time></trkpt><trkpt lat="44.2412417" lon="11.7300267"><ele>114.0</ele><time>2026-04-18T14:01:03.994Z</time></trkpt><trkpt lat="44.2413317" lon="11.7302183"><ele>114.0</ele><time>2026-04-18T14:01:04.992Z</time></trkpt><trkpt lat="44.2414283" lon="11.73039"><ele>110.25</ele><time>2026-04-18T14:01:05.993Z</time></trkpt><trkpt lat="44.241515" lon="11.7305267"><ele>106.5</ele><time>2026-04-18T14:01:06.994Z</time></trkpt><trkpt lat="44.2416117" lon="11.73062"><ele>102.75</ele><time>2026-04-18T14:01:07.994Z</time></trkpt><trkpt lat="44.241725" lon="11.7306633"><ele>99.0</ele><time>2026-04-18T14:01:08.994Z</time></trkpt><trkpt lat="44.2418583" lon="11.7306667"><ele>99.0</ele><time>2026-04-18T14:01:09.994Z</time></trkpt><trkpt lat="44.2420083" lon="11.73064"><ele>99.0</ele><time>2026-04-18T14:01:10.992Z</time></trkpt><trkpt lat="44.2421683" lon="11.7306117"><ele>99.0</ele><time>2026-04-18T14:01:11.993Z</time></trkpt><trkpt lat="44.2423233" lon="11.7305933"><ele>97.5</ele><time>2026-04-18T14:01:12.993Z</time></trkpt><trkpt lat="44.24246" lon="11.7306033"><ele>96.0</ele><time>2026-04-18T14:01:13.994Z</time></trkpt><trkpt lat="44.24258" lon="11.7306417"><ele>94.5</ele><time>2026-04-18T14:01:14.993Z</time></trkpt><trkpt lat="44.24268" lon="11.730735"><ele>93.0</ele><time>2026-04-18T14:01:15.993Z</time></trkpt><trkpt lat="44.24276" lon="11.7308783"><ele>93.0</ele><time>2026-04-18T14:01:16.994Z</time></trkpt><trkpt lat="44.242845" lon="11.7310533"><ele>93.0</ele><time>2026-04-18T14:01:17.993Z</time></trkpt><trkpt lat="44.2429433" lon="11.731235"><ele>93.0</ele><time>2026-04-18T14:01:18.993Z</time></trkpt><trkpt lat="44.2430467" lon="11.7314233"><ele>91.66666666666667</ele><time>2026-04-18T14:01:19.993Z</time></trkpt><trkpt lat="44.243155" lon="11.7316217"><ele>90.33333333333334</ele><time>2026-04-18T14:01:20.994Z</time></trkpt><trkpt lat="44.2432667" lon="11.7318233"><ele>89.0</ele><time>2026-04-18T14:01:21.994Z</time></trkpt><trkpt lat="44.2433817" lon="11.732025"><ele>89.0</ele><time>2026-04-18T14:01:22.995Z</time></trkpt><trkpt lat="44.2434933" lon="11.732235"><ele>89.0</ele><time>2026-04-18T14:01:23.994Z</time></trkpt><trkpt lat="44.243595" lon="11.7324283"><ele>89.0</ele><time>2026-04-18T14:01:24.995Z</time></trkpt><trkpt lat="44.24369" lon="11.7326117"><ele>89.25</ele><time>2026-04-18T14:01:25.993Z</time></trkpt><trkpt lat="44.2437783" lon="11.7327883"><ele>89.5</ele><time>2026-04-18T14:01:26.995Z</time></trkpt><trkpt lat="44.2438583" lon="11.732945"><ele>89.75</ele><time>2026-04-18T14:01:27.993Z</time></trkpt><trkpt lat="44.2439233" lon="11.733075"><ele>90.0</ele><time>2026-04-18T14:01:28.993Z</time></trkpt><trkpt lat="44.24397" lon="11.7331767"><ele>90.0</ele><time>2026-04-18T14:01:29.995Z</time></trkpt><trkpt lat="44.244" lon="11.733255"><ele>90.0</ele><time>2026-04-18T14:01:30.993Z</time></trkpt><trkpt lat="44.244045" lon="11.7333583"><ele>90.0</ele><time>2026-04-18T14:01:32.994Z</time></trkpt><trkpt lat="44.2441383" lon="11.7333967"><ele>90.0</ele><time>2026-04-18T14:01:35.993Z</time></trkpt><trkpt lat="44.2441983" lon="11.7333667"><ele>90.0</ele><time>2026-04-18T14:01:36.994Z</time></trkpt><trkpt lat="44.2442683" lon="11.7333183"><ele>90.0</ele><time>2026-04-18T14:01:37.994Z</time></trkpt><trkpt lat="44.24435" lon="11.733265"><ele>90.0</ele><time>2026-04-18T14:01:38.993Z</time></trkpt><trkpt lat="44.2444383" lon="11.73319"><ele>90.0</ele><time>2026-04-18T14:01:39.994Z</time></trkpt><trkpt lat="44.2445333" lon="11.7330933"><ele>90.0</ele><time>2026-04-18T14:01:40.993Z</time></trkpt><trkpt lat="44.2446367" lon="11.7329833"><ele>90.0</ele><time>2026-04-18T14:01:41.994Z</time></trkpt><trkpt lat="44.2447517" lon="11.7328667"><ele>89.25</ele><time>2026-04-18T14:01:42.994Z</time></trkpt><trkpt lat="44.2448683" lon="11.732745"><ele>88.5</ele><time>2026-04-18T14:01:43.995Z</time></trkpt><trkpt lat="44.244975" lon="11.7326433"><ele>87.75</ele><time>2026-04-18T14:01:44.994Z</time></trkpt><trkpt lat="44.245075" lon="11.7325733"><ele>87.0</ele><time>2026-04-18T14:01:45.994Z</time></trkpt><trkpt lat="44.2451683" lon="11.732555"><ele>87.0</ele><time>2026-04-18T14:01:46.994Z</time></trkpt><trkpt lat="44.2452533" lon="11.7325717"><ele>87.0</ele><time>2026-04-18T14:01:47.994Z</time></trkpt><trkpt lat="44.245335" lon="11.732605"><ele>87.0</ele><time>2026-04-18T14:01:48.993Z</time></trkpt><trkpt lat="44.2454067" lon="11.7326683"><ele>87.0</ele><time>2026-04-18T14:01:49.992Z</time></trkpt><trkpt lat="44.2454733" lon="11.7327617"><ele>87.0</ele><time>2026-04-18T14:01:50.994Z</time></trkpt><trkpt lat="44.2455333" lon="11.7328883"><ele>87.0</ele><time>2026-04-18T14:01:51.992Z</time></trkpt><trkpt lat="44.2455983" lon="11.7330583"><ele>87.0</ele><time>2026-04-18T14:01:52.994Z</time></trkpt><trkpt lat="44.245665" lon="11.73323"><ele>87.0</ele><time>2026-04-18T14:01:53.993Z</time></trkpt><trkpt lat="44.24573" lon="11.7334117"><ele>87.0</ele><time>2026-04-18T14:01:54.993Z</time></trkpt><trkpt lat="44.245795" lon="11.7335833"><ele>88.6</ele><time>2026-04-18T14:01:55.993Z</time></trkpt><trkpt lat="44.2458567" lon="11.7337417"><ele>90.19999999999999</ele><time>2026-04-18T14:01:56.993Z</time></trkpt><trkpt lat="44.2459167" lon="11.733875"><ele>91.8</ele><time>2026-04-18T14:01:57.993Z</time></trkpt><trkpt lat="44.2459917" lon="11.7339767"><ele>93.4</ele><time>2026-04-18T14:01:58.993Z</time></trkpt><trkpt lat="44.2460783" lon="11.7340333"><ele>95.0</ele><time>2026-04-18T14:01:59.993Z</time></trkpt><trkpt lat="44.2461733" lon="11.7340417"><ele>95.0</ele><time>2026-04-18T14:02:00.993Z</time></trkpt><trkpt lat="44.246275" lon="11.734005"><ele>95.0</ele><time>2026-04-18T14:02:01.993Z</time></trkpt><trkpt lat="44.24637" lon="11.733935"><ele>95.0</ele><time>2026-04-18T14:02:02.993Z</time></trkpt><trkpt lat="44.246475" lon="11.7338333"><ele>95.0</ele><time>2026-04-18T14:02:03.993Z</time></trkpt><trkpt lat="44.2465883" lon="11.733725"><ele>98.25</ele><time>2026-04-18T14:02:04.994Z</time></trkpt><trkpt lat="44.2467033" lon="11.7336217"><ele>101.5</ele><time>2026-04-18T14:02:05.993Z</time></trkpt><trkpt lat="44.2468083" lon="11.73354"><ele>104.75</ele><time>2026-04-18T14:02:06.994Z</time></trkpt><trkpt lat="44.2469133" lon="11.73349"><ele>108.0</ele><time>2026-04-18T14:02:07.993Z</time></trkpt><trkpt lat="44.2470267" lon="11.7334783"><ele>108.0</ele><time>2026-04-18T14:02:08.994Z</time></trkpt><trkpt lat="44.247135" lon="11.7335083"><ele>108.0</ele><time>2026-04-18T14:02:09.993Z</time></trkpt><trkpt lat="44.2472367" lon="11.7335817"><ele>108.0</ele><time>2026-04-18T14:02:10.993Z</time></trkpt><trkpt lat="44.2473267" lon="11.7337"><ele>108.0</ele><time>2026-04-18T14:02:11.994Z</time></trkpt><trkpt lat="44.2474183" lon="11.7338433"><ele>111.0</ele><time>2026-04-18T14:02:12.993Z</time></trkpt><trkpt lat="44.2475167" lon="11.734"><ele>114.0</ele><time>2026-04-18T14:02:13.994Z</time></trkpt><trkpt lat="44.2476217" lon="11.7341667"><ele>117.0</ele><time>2026-04-18T14:02:14.993Z</time></trkpt><trkpt lat="44.247735" lon="11.7343317"><ele>116.66666666666666</ele><time>2026-04-18T14:02:15.993Z</time></trkpt><trkpt lat="44.2478483" lon="11.7344967"><ele>116.33333333333333</ele><time>2026-04-18T14:02:16.993Z</time></trkpt><trkpt lat="44.2479633" lon="11.7346733"><ele>116.0</ele><time>2026-04-18T14:02:17.993Z</time></trkpt><trkpt lat="44.24808" lon="11.734845"><ele>116.33333333333333</ele><time>2026-04-18T14:02:18.993Z</time></trkpt><trkpt lat="44.2482017" lon="11.7350117"><ele>116.66666666666666</ele><time>2026-04-18T14:02:19.993Z</time></trkpt><trkpt lat="44.2483317" lon="11.7351717"><ele>117.0</ele><time>2026-04-18T14:02:20.994Z</time></trkpt><trkpt lat="44.248465" lon="11.7353333"><ele>117.0</ele><time>2026-04-18T14:02:21.993Z</time></trkpt><trkpt lat="44.2486083" lon="11.7354933"><ele>117.0</ele><time>2026-04-18T14:02:22.994Z</time></trkpt><trkpt lat="44.2487583" lon="11.7356467"><ele>117.0</ele><time>2026-04-18T14:02:23.993Z</time></trkpt><trkpt lat="44.2489167" lon="11.7357917"><ele>118.0</ele><time>2026-04-18T14:02:24.993Z</time></trkpt><trkpt lat="44.24908" lon="11.7359317"><ele>119.0</ele><time>2026-04-18T14:02:25.993Z</time></trkpt><trkpt lat="44.2492433" lon="11.7360667"><ele>120.0</ele><time>2026-04-18T14:02:26.995Z</time></trkpt><trkpt lat="44.2493933" lon="11.7361967"><ele>120.33333333333334</ele><time>2026-04-18T14:02:27.993Z</time></trkpt><trkpt lat="44.2495433" lon="11.7363217"><ele>120.66666666666667</ele><time>2026-04-18T14:02:28.994Z</time></trkpt><trkpt lat="44.2496983" lon="11.7364533"><ele>121.0</ele><time>2026-04-18T14:02:29.993Z</time></trkpt><trkpt lat="44.2498517" lon="11.736585"><ele>121.0</ele><time>2026-04-18T14:02:30.993Z</time></trkpt><trkpt lat="44.25001" lon="11.7367183"><ele>121.0</ele><time>2026-04-18T14:02:31.993Z</time></trkpt><trkpt lat="44.25017" lon="11.7368483"><ele>121.0</ele><time>2026-04-18T14:02:32.995Z</time></trkpt><trkpt lat="44.25033" lon="11.7369783"><ele>121.0</ele><time>2026-04-18T14:02:33.993Z</time></trkpt><trkpt lat="44.2504883" lon="11.7371117"><ele>121.0</ele><time>2026-04-18T14:02:34.993Z</time></trkpt><trkpt lat="44.25065" lon="11.73724"><ele>121.0</ele><time>2026-04-18T14:02:35.993Z</time></trkpt><trkpt lat="44.2508133" lon="11.7373633"><ele>121.0</ele><time>2026-04-18T14:02:36.994Z</time></trkpt><trkpt lat="44.2509767" lon="11.7374867"><ele>121.0</ele><time>2026-04-18T14:02:37.993Z</time></trkpt><trkpt lat="44.2511383" lon="11.7376167"><ele>121.0</ele><time>2026-04-18T14:02:38.995Z</time></trkpt><trkpt lat="44.2513017" lon="11.7377483"><ele>118.66666666666667</ele><time>2026-04-18T14:02:39.993Z</time></trkpt><trkpt lat="44.2514683" lon="11.7378817"><ele>116.33333333333334</ele><time>2026-04-18T14:02:40.994Z</time></trkpt><trkpt lat="44.2516367" lon="11.738015"><ele>114.0</ele><time>2026-04-18T14:02:41.993Z</time></trkpt><trkpt lat="44.251805" lon="11.7381533"><ele>114.0</ele><time>2026-04-18T14:02:42.993Z</time></trkpt><trkpt lat="44.25197" lon="11.7382967"><ele>114.0</ele><time>2026-04-18T14:02:43.993Z</time></trkpt><trkpt lat="44.252135" lon="11.738435"><ele>114.0</ele><time>2026-04-18T14:02:44.994Z</time></trkpt><trkpt lat="44.2523033" lon="11.7385733"><ele>113.33333333333334</ele><time>2026-04-18T14:02:45.993Z</time></trkpt><trkpt lat="44.252465" lon="11.73871"><ele>112.66666666666667</ele><time>2026-04-18T14:02:46.993Z</time></trkpt><trkpt lat="44.252625" lon="11.7388483"><ele>112.0</ele><time>2026-04-18T14:02:47.994Z</time></trkpt><trkpt lat="44.2527817" lon="11.738995"><ele>112.0</ele><time>2026-04-18T14:02:48.992Z</time></trkpt><trkpt lat="44.2529367" lon="11.73916"><ele>112.0</ele><time>2026-04-18T14:02:49.993Z</time></trkpt><trkpt lat="44.253085" lon="11.7393367"><ele>112.0</ele><time>2026-04-18T14:02:50.994Z</time></trkpt><trkpt lat="44.25323" lon="11.739525"><ele>111.0</ele><time>2026-04-18T14:02:51.993Z</time></trkpt><trkpt lat="44.2533767" lon="11.739715"><ele>110.0</ele><time>2026-04-18T14:02:52.994Z</time></trkpt><trkpt lat="44.2535267" lon="11.739905"><ele>109.0</ele><time>2026-04-18T14:02:53.993Z</time></trkpt><trkpt lat="44.25368" lon="11.7400983"><ele>108.0</ele><time>2026-04-18T14:02:54.992Z</time></trkpt><trkpt lat="44.2538333" lon="11.7402917"><ele>107.0</ele><time>2026-04-18T14:02:55.994Z</time></trkpt><trkpt lat="44.2539867" lon="11.7404883"><ele>106.0</ele><time>2026-04-18T14:02:56.995Z</time></trkpt><trkpt lat="44.2541417" lon="11.7406867"><ele>105.33333333333334</ele><time>2026-04-18T14:02:57.994Z</time></trkpt><trkpt lat="44.2542983" lon="11.740885"><ele>104.66666666666666</ele><time>2026-04-18T14:02:58.993Z</time></trkpt><trkpt lat="44.254455" lon="11.7410883"><ele>104.0</ele><time>2026-04-18T14:02:59.993Z</time></trkpt><trkpt lat="44.2546117" lon="11.74129"><ele>103.33333333333333</ele><time>2026-04-18T14:03:00.993Z</time></trkpt><trkpt lat="44.2547683" lon="11.7414933"><ele>102.66666666666666</ele><time>2026-04-18T14:03:01.998Z</time></trkpt><trkpt lat="44.2549217" lon="11.74169"><ele>102.0</ele><time>2026-04-18T14:03:02.994Z</time></trkpt><trkpt lat="44.255065" lon="11.7418767"><ele>98.66666666666667</ele><time>2026-04-18T14:03:03.994Z</time></trkpt><trkpt lat="44.2552033" lon="11.742055"><ele>95.33333333333334</ele><time>2026-04-18T14:03:04.993Z</time></trkpt><trkpt lat="44.2553383" lon="11.7422233"><ele>92.0</ele><time>2026-04-18T14:03:05.993Z</time></trkpt><trkpt lat="44.2554717" lon="11.7423933"><ele>92.0</ele><time>2026-04-18T14:03:06.995Z</time></trkpt><trkpt lat="44.255605" lon="11.7425667"><ele>92.0</ele><time>2026-04-18T14:03:07.992Z</time></trkpt><trkpt lat="44.2557417" lon="11.742745"><ele>92.0</ele><time>2026-04-18T14:03:08.993Z</time></trkpt><trkpt lat="44.2558783" lon="11.7429217"><ele>93.0</ele><time>2026-04-18T14:03:09.993Z</time></trkpt><trkpt lat="44.25601" lon="11.7430883"><ele>94.0</ele><time>2026-04-18T14:03:10.995Z</time></trkpt><trkpt lat="44.2561367" lon="11.7432483"><ele>95.0</ele><time>2026-04-18T14:03:11.993Z</time></trkpt><trkpt lat="44.2562633" lon="11.74341"><ele>96.33333333333334</ele><time>2026-04-18T14:03:12.994Z</time></trkpt><trkpt lat="44.2563833" lon="11.74357"><ele>97.66666666666667</ele><time>2026-04-18T14:03:13.993Z</time></trkpt><trkpt lat="44.2565" lon="11.7437267"><ele>99.0</ele><time>2026-04-18T14:03:14.994Z</time></trkpt><trkpt lat="44.2566133" lon="11.7438817"><ele>99.0</ele><time>2026-04-18T14:03:15.993Z</time></trkpt><trkpt lat="44.2567283" lon="11.7440267"><ele>99.0</ele><time>2026-04-18T14:03:16.993Z</time></trkpt><trkpt lat="44.2568483" lon="11.7441517"><ele>99.0</ele><time>2026-04-18T14:03:17.993Z</time></trkpt><trkpt lat="44.2569717" lon="11.7442483"><ele>99.0</ele><time>2026-04-18T14:03:18.993Z</time></trkpt><trkpt lat="44.257085" lon="11.7442917"><ele>99.0</ele><time>2026-04-18T14:03:19.994Z</time></trkpt><trkpt lat="44.25719" lon="11.7442867"><ele>99.0</ele><time>2026-04-18T14:03:20.994Z</time></trkpt><trkpt lat="44.2572867" lon="11.7442467"><ele>99.0</ele><time>2026-04-18T14:03:21.993Z</time></trkpt><trkpt lat="44.25738" lon="11.744155"><ele>99.0</ele><time>2026-04-18T14:03:22.995Z</time></trkpt><trkpt lat="44.2574567" lon="11.7440317"><ele>99.0</ele><time>2026-04-18T14:03:23.994Z</time></trkpt><trkpt lat="44.2575017" lon="11.74387"><ele>97.33333333333333</ele><time>2026-04-18T14:03:24.994Z</time></trkpt><trkpt lat="44.2575283" lon="11.74368"><ele>95.66666666666666</ele><time>2026-04-18T14:03:25.993Z</time></trkpt><trkpt lat="44.2575483" lon="11.7434683"><ele>94.0</ele><time>2026-04-18T14:03:26.995Z</time></trkpt><trkpt lat="44.2575633" lon="11.7432383"><ele>92.66666666666666</ele><time>2026-04-18T14:03:27.994Z</time></trkpt><trkpt lat="44.2575783" lon="11.74299"><ele>91.33333333333333</ele><time>2026-04-18T14:03:28.993Z</time></trkpt><trkpt lat="44.257595" lon="11.7427267"><ele>90.0</ele><time>2026-04-18T14:03:29.993Z</time></trkpt><trkpt lat="44.257615" lon="11.742455"><ele>89.5</ele><time>2026-04-18T14:03:30.994Z</time></trkpt><trkpt lat="44.2576333" lon="11.7422117"><ele>89.0</ele><time>2026-04-18T14:03:31.994Z</time></trkpt><trkpt lat="44.2576483" lon="11.7420217"><ele>88.5</ele><time>2026-04-18T14:03:32.994Z</time></trkpt><trkpt lat="44.257675" lon="11.741855"><ele>88.0</ele><time>2026-04-18T14:03:33.995Z</time></trkpt><trkpt lat="44.2577267" lon="11.7417017"><ele>87.4</ele><time>2026-04-18T14:03:34.994Z</time></trkpt><trkpt lat="44.2577983" lon="11.7415567"><ele>86.80000000000001</ele><time>2026-04-18T14:03:35.993Z</time></trkpt><trkpt lat="44.2578683" lon="11.7414333"><ele>86.2</ele><time>2026-04-18T14:03:36.994Z</time></trkpt><trkpt lat="44.25794" lon="11.7413533"><ele>85.6</ele><time>2026-04-18T14:03:37.993Z</time></trkpt><trkpt lat="44.2580183" lon="11.7413283"><ele>85.0</ele><time>2026-04-18T14:03:38.994Z</time></trkpt><trkpt lat="44.2580917" lon="11.7413517"><ele>85.0</ele><time>2026-04-18T14:03:39.993Z</time></trkpt><trkpt lat="44.2581467" lon="11.741425"><ele>85.0</ele><time>2026-04-18T14:03:40.993Z</time></trkpt><trkpt lat="44.25819" lon="11.7415417"><ele>85.0</ele><time>2026-04-18T14:03:41.992Z</time></trkpt><trkpt lat="44.25822" lon="11.7417017"><ele>85.0</ele><time>2026-04-18T14:03:42.993Z</time></trkpt><trkpt lat="44.2582617" lon="11.741885"><ele>85.0</ele><time>2026-04-18T14:03:43.993Z</time></trkpt><trkpt lat="44.2583" lon="11.742095"><ele>85.0</ele><time>2026-04-18T14:03:44.995Z</time></trkpt><trkpt lat="44.2583517" lon="11.7423183"><ele>85.0</ele><time>2026-04-18T14:03:45.994Z</time></trkpt><trkpt lat="44.2584083" lon="11.7425367"><ele>85.0</ele><time>2026-04-18T14:03:46.992Z</time></trkpt><trkpt lat="44.2584717" lon="11.7427667"><ele>84.66666666666666</ele><time>2026-04-18T14:03:47.992Z</time></trkpt><trkpt lat="44.2585383" lon="11.7430017"><ele>84.33333333333333</ele><time>2026-04-18T14:03:48.994Z</time></trkpt><trkpt lat="44.2586167" lon="11.74324"><ele>84.0</ele><time>2026-04-18T14:03:49.993Z</time></trkpt><trkpt lat="44.25871" lon="11.7434733"><ele>82.66666666666667</ele><time>2026-04-18T14:03:50.994Z</time></trkpt><trkpt lat="44.2588233" lon="11.7436983"><ele>81.33333333333334</ele><time>2026-04-18T14:03:51.994Z</time></trkpt><trkpt lat="44.25895" lon="11.7438967"><ele>80.0</ele><time>2026-04-18T14:03:52.995Z</time></trkpt><trkpt lat="44.2590783" lon="11.74405"><ele>85.66666666666667</ele><time>2026-04-18T14:03:53.993Z</time></trkpt><trkpt lat="44.2592083" lon="11.7441683"><ele>91.33333333333334</ele><time>2026-04-18T14:03:54.994Z</time></trkpt><trkpt lat="44.2593433" lon="11.7442667"><ele>97.0</ele><time>2026-04-18T14:03:55.993Z</time></trkpt><trkpt lat="44.2594883" lon="11.7443583"><ele>97.0</ele><time>2026-04-18T14:03:56.993Z</time></trkpt><trkpt lat="44.259645" lon="11.7444517"><ele>97.0</ele><time>2026-04-18T14:03:57.993Z</time></trkpt><trkpt lat="44.2598067" lon="11.7445517"><ele>97.0</ele><time>2026-04-18T14:03:58.994Z</time></trkpt><trkpt lat="44.2599767" lon="11.74465"><ele>97.0</ele><time>2026-04-18T14:03:59.994Z</time></trkpt><trkpt lat="44.2601467" lon="11.7447483"><ele>97.0</ele><time>2026-04-18T14:04:00.993Z</time></trkpt><trkpt lat="44.2603033" lon="11.7448483"><ele>97.0</ele><time>2026-04-18T14:04:01.994Z</time></trkpt><trkpt lat="44.2604517" lon="11.744945"><ele>97.0</ele><time>2026-04-18T14:04:02.993Z</time></trkpt><trkpt lat="44.2606017" lon="11.745035"><ele>97.0</ele><time>2026-04-18T14:04:03.993Z</time></trkpt><trkpt lat="44.2607467" lon="11.7451217"><ele>97.0</ele><time>2026-04-18T14:04:04.993Z</time></trkpt><trkpt lat="44.2608867" lon="11.74521"><ele>96.0</ele><time>2026-04-18T14:04:05.993Z</time></trkpt><trkpt lat="44.26102" lon="11.7453"><ele>95.0</ele><time>2026-04-18T14:04:06.993Z</time></trkpt><trkpt lat="44.2611533" lon="11.7454033"><ele>94.0</ele><time>2026-04-18T14:04:07.997Z</time></trkpt><trkpt lat="44.2612917" lon="11.74551"><ele>94.0</ele><time>2026-04-18T14:04:08.993Z</time></trkpt><trkpt lat="44.2614333" lon="11.7456267"><ele>94.0</ele><time>2026-04-18T14:04:09.992Z</time></trkpt><trkpt lat="44.261575" lon="11.7457467"><ele>94.0</ele><time>2026-04-18T14:04:10.993Z</time></trkpt><trkpt lat="44.26171" lon="11.7458633"><ele>94.0</ele><time>2026-04-18T14:04:11.993Z</time></trkpt><trkpt lat="44.2618417" lon="11.7459767"><ele>94.0</ele><time>2026-04-18T14:04:12.995Z</time></trkpt><trkpt lat="44.2619767" lon="11.74609"><ele>94.0</ele><time>2026-04-18T14:04:13.994Z</time></trkpt><trkpt lat="44.2621183" lon="11.7462067"><ele>94.0</ele><time>2026-04-18T14:04:14.993Z</time></trkpt><trkpt lat="44.26226" lon="11.746325"><ele>94.0</ele><time>2026-04-18T14:04:15.994Z</time></trkpt><trkpt lat="44.262405" lon="11.7464483"><ele>94.0</ele><time>2026-04-18T14:04:16.992Z</time></trkpt><trkpt lat="44.262555" lon="11.7465717"><ele>93.33333333333333</ele><time>2026-04-18T14:04:17.993Z</time></trkpt><trkpt lat="44.2627017" lon="11.7466967"><ele>92.66666666666667</ele><time>2026-04-18T14:04:18.993Z</time></trkpt><trkpt lat="44.26284" lon="11.7468133"><ele>92.0</ele><time>2026-04-18T14:04:19.993Z</time></trkpt><trkpt lat="44.2629717" lon="11.7469283"><ele>92.0</ele><time>2026-04-18T14:04:20.994Z</time></trkpt><trkpt lat="44.2631067" lon="11.7470483"><ele>92.0</ele><time>2026-04-18T14:04:21.993Z</time></trkpt><trkpt lat="44.2632417" lon="11.747165"><ele>92.0</ele><time>2026-04-18T14:04:22.994Z</time></trkpt><trkpt lat="44.2633783" lon="11.7472833"><ele>91.33333333333334</ele><time>2026-04-18T14:04:23.993Z</time></trkpt><trkpt lat="44.2635133" lon="11.7474033"><ele>90.66666666666667</ele><time>2026-04-18T14:04:24.994Z</time></trkpt><trkpt lat="44.2636417" lon="11.747515"><ele>90.0</ele><time>2026-04-18T14:04:25.994Z</time></trkpt><trkpt lat="44.2637667" lon="11.747615"><ele>90.0</ele><time>2026-04-18T14:04:26.993Z</time></trkpt><trkpt lat="44.2638967" lon="11.7477033"><ele>90.0</ele><time>2026-04-18T14:04:27.993Z</time></trkpt><trkpt lat="44.26403" lon="11.7477833"><ele>90.0</ele><time>2026-04-18T14:04:28.995Z</time></trkpt><trkpt lat="44.2641533" lon="11.747845"><ele>90.0</ele><time>2026-04-18T14:04:29.994Z</time></trkpt><trkpt lat="44.2642633" lon="11.7478983"><ele>90.0</ele><time>2026-04-18T14:04:30.994Z</time></trkpt><trkpt lat="44.2643717" lon="11.747955"><ele>90.0</ele><time>2026-04-18T14:04:31.992Z</time></trkpt><trkpt lat="44.2644767" lon="11.7480333"><ele>90.0</ele><time>2026-04-18T14:04:32.995Z</time></trkpt><trkpt lat="44.2645867" lon="11.7481217"><ele>90.0</ele><time>2026-04-18T14:04:33.994Z</time></trkpt><trkpt lat="44.2646967" lon="11.7482183"><ele>89.8</ele><time>2026-04-18T14:04:34.994Z</time></trkpt><trkpt lat="44.2648067" lon="11.7483167"><ele>89.6</ele><time>2026-04-18T14:04:35.994Z</time></trkpt><trkpt lat="44.264905" lon="11.7484017"><ele>89.4</ele><time>2026-04-18T14:04:36.994Z</time></trkpt><trkpt lat="44.2649917" lon="11.7484767"><ele>89.2</ele><time>2026-04-18T14:04:37.993Z</time></trkpt><trkpt lat="44.265065" lon="11.7485467"><ele>89.0</ele><time>2026-04-18T14:04:38.994Z</time></trkpt><trkpt lat="44.2651333" lon="11.748615"><ele>88.80000000000001</ele><time>2026-04-18T14:04:39.994Z</time></trkpt><trkpt lat="44.26521" lon="11.7486967"><ele>88.60000000000001</ele><time>2026-04-18T14:04:40.993Z</time></trkpt><trkpt lat="44.2652883" lon="11.7487817"><ele>88.4</ele><time>2026-04-18T14:04:41.993Z</time></trkpt><trkpt lat="44.26537" lon="11.7488917"><ele>88.2</ele><time>2026-04-18T14:04:42.993Z</time></trkpt><trkpt lat="44.2654617" lon="11.7490067"><ele>88.0</ele><time>2026-04-18T14:04:43.996Z</time></trkpt><trkpt lat="44.2655617" lon="11.7491183"><ele>88.0</ele><time>2026-04-18T14:04:44.994Z</time></trkpt><trkpt lat="44.2656717" lon="11.74922"><ele>88.0</ele><time>2026-04-18T14:04:45.993Z</time></trkpt><trkpt lat="44.2657883" lon="11.7493317"><ele>88.0</ele><time>2026-04-18T14:04:46.993Z</time></trkpt><trkpt lat="44.26591" lon="11.7494483"><ele>88.0</ele><time>2026-04-18T14:04:47.994Z</time></trkpt><trkpt lat="44.2660283" lon="11.7495583"><ele>88.0</ele><time>2026-04-18T14:04:48.993Z</time></trkpt><trkpt lat="44.2661467" lon="11.74967"><ele>88.0</ele><time>2026-04-18T14:04:49.993Z</time></trkpt><trkpt lat="44.26626" lon="11.7497783"><ele>88.0</ele><time>2026-04-18T14:04:50.993Z</time></trkpt><trkpt lat="44.26636" lon="11.749875"><ele>88.0</ele><time>2026-04-18T14:04:51.993Z</time></trkpt><trkpt lat="44.2664533" lon="11.749945"><ele>88.0</ele><time>2026-04-18T14:04:52.994Z</time></trkpt><trkpt lat="44.2665333" lon="11.749985"><ele>88.0</ele><time>2026-04-18T14:04:53.993Z</time></trkpt><trkpt lat="44.2666117" lon="11.7499867"><ele>88.0</ele><time>2026-04-18T14:04:54.993Z</time></trkpt><trkpt lat="44.26669" lon="11.7499483"><ele>88.0</ele><time>2026-04-18T14:04:55.994Z</time></trkpt><trkpt lat="44.2667767" lon="11.7498833"><ele>88.0</ele><time>2026-04-18T14:04:56.993Z</time></trkpt><trkpt lat="44.26687" lon="11.7498117"><ele>88.0</ele><time>2026-04-18T14:04:57.994Z</time></trkpt><trkpt lat="44.2669733" lon="11.7497617"><ele>88.0</ele><time>2026-04-18T14:04:58.995Z</time></trkpt><trkpt lat="44.2670867" lon="11.7497383"><ele>88.0</ele><time>2026-04-18T14:04:59.994Z</time></trkpt><trkpt lat="44.26721" lon="11.7497317"><ele>88.0</ele><time>2026-04-18T14:05:00.993Z</time></trkpt><trkpt lat="44.2673383" lon="11.7497517"><ele>87.25</ele><time>2026-04-18T14:05:01.993Z</time></trkpt><trkpt lat="44.267465" lon="11.7498017"><ele>86.5</ele><time>2026-04-18T14:05:02.993Z</time></trkpt><trkpt lat="44.2675967" lon="11.7498783"><ele>85.75</ele><time>2026-04-18T14:05:03.994Z</time></trkpt><trkpt lat="44.2677317" lon="11.7499683"><ele>85.0</ele><time>2026-04-18T14:05:04.995Z</time></trkpt><trkpt lat="44.267875" lon="11.7500767"><ele>85.0</ele><time>2026-04-18T14:05:05.993Z</time></trkpt><trkpt lat="44.2680283" lon="11.7501667"><ele>85.0</ele><time>2026-04-18T14:05:06.995Z</time></trkpt><trkpt lat="44.2681883" lon="11.750245"><ele>85.0</ele><time>2026-04-18T14:05:07.992Z</time></trkpt><trkpt lat="44.2683383" lon="11.7503083"><ele>85.0</ele><time>2026-04-18T14:05:08.993Z</time></trkpt><trkpt lat="44.26848" lon="11.7503583"><ele>85.0</ele><time>2026-04-18T14:05:09.994Z</time></trkpt><trkpt lat="44.2686067" lon="11.750405"><ele>85.0</ele><time>2026-04-18T14:05:10.993Z</time></trkpt><trkpt lat="44.2687017" lon="11.75045"><ele>85.0</ele><time>2026-04-18T14:05:11.992Z</time></trkpt><trkpt lat="44.2687633" lon="11.7505"><ele>85.0</ele><time>2026-04-18T14:05:12.994Z</time></trkpt><trkpt lat="44.2687833" lon="11.7506517"><ele>85.0</ele><time>2026-04-18T14:05:14.995Z</time></trkpt><trkpt lat="44.268745" lon="11.7507867"><ele>85.0</ele><time>2026-04-18T14:05:15.994Z</time></trkpt><trkpt lat="44.2686867" lon="11.75095"><ele>85.0</ele><time>2026-04-18T14:05:16.993Z</time></trkpt><trkpt lat="44.268615" lon="11.7511233"><ele>85.0</ele><time>2026-04-18T14:05:17.995Z</time></trkpt><trkpt lat="44.268535" lon="11.7513167"><ele>84.66666666666666</ele><time>2026-04-18T14:05:18.993Z</time></trkpt><trkpt lat="44.2684517" lon="11.751505"><ele>84.33333333333333</ele><time>2026-04-18T14:05:19.994Z</time></trkpt><trkpt lat="44.2683667" lon="11.7517"><ele>84.0</ele><time>2026-04-18T14:05:20.995Z</time></trkpt><trkpt lat="44.26828" lon="11.7519017"><ele>83.66666666666667</ele><time>2026-04-18T14:05:21.993Z</time></trkpt><trkpt lat="44.2681967" lon="11.7521067"><ele>83.33333333333334</ele><time>2026-04-18T14:05:22.993Z</time></trkpt><trkpt lat="44.26812" lon="11.7523233"><ele>83.0</ele><time>2026-04-18T14:05:23.994Z</time></trkpt><trkpt lat="44.268065" lon="11.7525533"><ele>82.33333333333334</ele><time>2026-04-18T14:05:24.993Z</time></trkpt><trkpt lat="44.2680317" lon="11.7527933"><ele>81.66666666666667</ele><time>2026-04-18T14:05:25.994Z</time></trkpt><trkpt lat="44.2680033" lon="11.7530367"><ele>81.0</ele><time>2026-04-18T14:05:26.993Z</time></trkpt><trkpt lat="44.2679767" lon="11.7532817"><ele>81.0</ele><time>2026-04-18T14:05:27.994Z</time></trkpt><trkpt lat="44.2679483" lon="11.7535233"><ele>81.0</ele><time>2026-04-18T14:05:28.993Z</time></trkpt><trkpt lat="44.26792" lon="11.7537667"><ele>81.0</ele><time>2026-04-18T14:05:29.994Z</time></trkpt><trkpt lat="44.2678917" lon="11.75401"><ele>80.66666666666667</ele><time>2026-04-18T14:05:30.993Z</time></trkpt><trkpt lat="44.2678617" lon="11.75425"><ele>80.33333333333334</ele><time>2026-04-18T14:05:31.994Z</time></trkpt><trkpt lat="44.2678333" lon="11.7544767"><ele>80.0</ele><time>2026-04-18T14:05:32.995Z</time></trkpt><trkpt lat="44.2678117" lon="11.7546983"><ele>80.0</ele><time>2026-04-18T14:05:33.993Z</time></trkpt><trkpt lat="44.2678017" lon="11.75492"><ele>80.0</ele><time>2026-04-18T14:05:34.993Z</time></trkpt><trkpt lat="44.2678083" lon="11.7551317"><ele>80.0</ele><time>2026-04-18T14:05:35.994Z</time></trkpt><trkpt lat="44.2678317" lon="11.7553433"><ele>79.66666666666667</ele><time>2026-04-18T14:05:36.993Z</time></trkpt><trkpt lat="44.267855" lon="11.7555633"><ele>79.33333333333333</ele><time>2026-04-18T14:05:37.994Z</time></trkpt><trkpt lat="44.2678617" lon="11.7557917"><ele>79.0</ele><time>2026-04-18T14:05:38.996Z</time></trkpt><trkpt lat="44.2678583" lon="11.7560217"><ele>76.33333333333333</ele><time>2026-04-18T14:05:39.993Z</time></trkpt><trkpt lat="44.2678533" lon="11.7562533"><ele>73.66666666666667</ele><time>2026-04-18T14:05:40.993Z</time></trkpt><trkpt lat="44.2678567" lon="11.7564883"><ele>71.0</ele><time>2026-04-18T14:05:41.992Z</time></trkpt><trkpt lat="44.2678683" lon="11.756725"><ele>68.33333333333334</ele><time>2026-04-18T14:05:42.993Z</time></trkpt><trkpt lat="44.2678867" lon="11.7569617"><ele>65.66666666666667</ele><time>2026-04-18T14:05:43.993Z</time></trkpt><trkpt lat="44.267895" lon="11.7572083"><ele>63.0</ele><time>2026-04-18T14:05:44.995Z</time></trkpt><trkpt lat="44.2679" lon="11.75747"><ele>62.33333333333333</ele><time>2026-04-18T14:05:45.994Z</time></trkpt><trkpt lat="44.2679" lon="11.7577283"><ele>61.666666666666664</ele><time>2026-04-18T14:05:46.994Z</time></trkpt><trkpt lat="44.2678917" lon="11.7579733"><ele>61.0</ele><time>2026-04-18T14:05:47.993Z</time></trkpt><trkpt lat="44.2678733" lon="11.7581933"><ele>61.0</ele><time>2026-04-18T14:05:48.993Z</time></trkpt><trkpt lat="44.26784" lon="11.7583883"><ele>61.0</ele><time>2026-04-18T14:05:49.994Z</time></trkpt><trkpt lat="44.2677867" lon="11.7585717"><ele>61.0</ele><time>2026-04-18T14:05:50.994Z</time></trkpt><trkpt lat="44.2677133" lon="11.7587467"><ele>61.0</ele><time>2026-04-18T14:05:51.993Z</time></trkpt><trkpt lat="44.2676417" lon="11.7589067"><ele>60.75</ele><time>2026-04-18T14:05:52.993Z</time></trkpt><trkpt lat="44.2675917" lon="11.759055"><ele>60.5</ele><time>2026-04-18T14:05:53.993Z</time></trkpt><trkpt lat="44.2675633" lon="11.759205"><ele>60.25</ele><time>2026-04-18T14:05:54.993Z</time></trkpt><trkpt lat="44.2675617" lon="11.7593883"><ele>60.0</ele><time>2026-04-18T14:05:55.995Z</time></trkpt><trkpt lat="44.2675967" lon="11.7596017"><ele>59.0</ele><time>2026-04-18T14:05:56.994Z</time></trkpt><trkpt lat="44.2676533" lon="11.7598533"><ele>58.0</ele><time>2026-04-18T14:05:57.993Z</time></trkpt><trkpt lat="44.2677217" lon="11.760135"><ele>57.0</ele><time>2026-04-18T14:05:58.993Z</time></trkpt><trkpt lat="44.2677867" lon="11.7604483"><ele>57.0</ele><time>2026-04-18T14:05:59.994Z</time></trkpt><trkpt lat="44.2678467" lon="11.7607483"><ele>57.0</ele><time>2026-04-18T14:06:00.993Z</time></trkpt><trkpt lat="44.267905" lon="11.761025"><ele>57.0</ele><time>2026-04-18T14:06:01.994Z</time></trkpt><trkpt lat="44.2679717" lon="11.7612783"><ele>58.33333333333333</ele><time>2026-04-18T14:06:02.994Z</time></trkpt><trkpt lat="44.268065" lon="11.7615017"><ele>59.666666666666664</ele><time>2026-04-18T14:06:03.994Z</time></trkpt><trkpt lat="44.2681867" lon="11.7617067"><ele>61.0</ele><time>2026-04-18T14:06:04.993Z</time></trkpt><trkpt lat="44.2683317" lon="11.7618967"><ele>66.33333333333333</ele><time>2026-04-18T14:06:05.993Z</time></trkpt><trkpt lat="44.2684983" lon="11.76206"><ele>71.66666666666667</ele><time>2026-04-18T14:06:06.995Z</time></trkpt><trkpt lat="44.2686817" lon="11.7621967"><ele>77.0</ele><time>2026-04-18T14:06:07.993Z</time></trkpt><trkpt lat="44.2688733" lon="11.7623167"><ele>73.66666666666667</ele><time>2026-04-18T14:06:08.993Z</time></trkpt><trkpt lat="44.26905" lon="11.7624317"><ele>70.33333333333333</ele><time>2026-04-18T14:06:09.993Z</time></trkpt><trkpt lat="44.2692117" lon="11.7625533"><ele>67.0</ele><time>2026-04-18T14:06:10.994Z</time></trkpt><trkpt lat="44.2693583" lon="11.762675"><ele>67.66666666666666</ele><time>2026-04-18T14:06:11.993Z</time></trkpt><trkpt lat="44.2694967" lon="11.7628133"><ele>68.33333333333333</ele><time>2026-04-18T14:06:12.994Z</time></trkpt><trkpt lat="44.26964" lon="11.7629467"><ele>69.0</ele><time>2026-04-18T14:06:13.993Z</time></trkpt><trkpt lat="44.269795" lon="11.7630633"><ele>69.0</ele><time>2026-04-18T14:06:14.993Z</time></trkpt><trkpt lat="44.269955" lon="11.7631933"><ele>69.0</ele><time>2026-04-18T14:06:15.992Z</time></trkpt><trkpt lat="44.2701133" lon="11.763335"><ele>69.0</ele><time>2026-04-18T14:06:16.996Z</time></trkpt><trkpt lat="44.2702783" lon="11.7634933"><ele>67.66666666666667</ele><time>2026-04-18T14:06:17.994Z</time></trkpt><trkpt lat="44.2704483" lon="11.7636317"><ele>66.33333333333334</ele><time>2026-04-18T14:06:18.995Z</time></trkpt><trkpt lat="44.2706333" lon="11.7637517"><ele>65.0</ele><time>2026-04-18T14:06:19.994Z</time></trkpt><trkpt lat="44.270835" lon="11.7638617"><ele>65.0</ele><time>2026-04-18T14:06:20.995Z</time></trkpt><trkpt lat="44.2710383" lon="11.76395"><ele>65.0</ele><time>2026-04-18T14:06:21.994Z</time></trkpt><trkpt lat="44.2712433" lon="11.764015"><ele>65.0</ele><time>2026-04-18T14:06:22.994Z</time></trkpt><trkpt lat="44.2714517" lon="11.7640633"><ele>62.66666666666667</ele><time>2026-04-18T14:06:23.993Z</time></trkpt><trkpt lat="44.2716567" lon="11.7641133"><ele>60.33333333333333</ele><time>2026-04-18T14:06:24.993Z</time></trkpt><trkpt lat="44.2718483" lon="11.7641567"><ele>58.0</ele><time>2026-04-18T14:06:25.993Z</time></trkpt><trkpt lat="44.2720233" lon="11.764205"><ele>58.0</ele><time>2026-04-18T14:06:26.994Z</time></trkpt><trkpt lat="44.2721883" lon="11.764295"><ele>58.0</ele><time>2026-04-18T14:06:27.993Z</time></trkpt><trkpt lat="44.2723433" lon="11.7644267"><ele>58.0</ele><time>2026-04-18T14:06:28.994Z</time></trkpt><trkpt lat="44.272495" lon="11.7645883"><ele>57.0</ele><time>2026-04-18T14:06:29.993Z</time></trkpt><trkpt lat="44.2726533" lon="11.7647633"><ele>56.0</ele><time>2026-04-18T14:06:30.993Z</time></trkpt><trkpt lat="44.2728167" lon="11.7649467"><ele>55.0</ele><time>2026-04-18T14:06:31.993Z</time></trkpt><trkpt lat="44.272975" lon="11.76512"><ele>55.0</ele><time>2026-04-18T14:06:32.995Z</time></trkpt><trkpt lat="44.2731233" lon="11.76528"><ele>55.0</ele><time>2026-04-18T14:06:33.995Z</time></trkpt><trkpt lat="44.27325" lon="11.7654233"><ele>55.0</ele><time>2026-04-18T14:06:34.992Z</time></trkpt><trkpt lat="44.27335" lon="11.7655683"><ele>55.0</ele><time>2026-04-18T14:06:35.993Z</time></trkpt><trkpt lat="44.27342" lon="11.7657267"><ele>55.0</ele><time>2026-04-18T14:06:36.994Z</time></trkpt><trkpt lat="44.2734483" lon="11.7659033"><ele>55.0</ele><time>2026-04-18T14:06:37.994Z</time></trkpt><trkpt lat="44.2734483" lon="11.7661033"><ele>55.0</ele><time>2026-04-18T14:06:38.995Z</time></trkpt><trkpt lat="44.2734317" lon="11.766305"><ele>55.5</ele><time>2026-04-18T14:06:39.993Z</time></trkpt><trkpt lat="44.27343" lon="11.766465"><ele>56.0</ele><time>2026-04-18T14:06:40.994Z</time></trkpt><trkpt lat="44.27346" lon="11.76662"><ele>56.5</ele><time>2026-04-18T14:06:41.994Z</time></trkpt><trkpt lat="44.273525" lon="11.7667833"><ele>57.0</ele><time>2026-04-18T14:06:42.993Z</time></trkpt><trkpt lat="44.2736317" lon="11.7669533"><ele>57.33333333333333</ele><time>2026-04-18T14:06:43.992Z</time></trkpt><trkpt lat="44.273765" lon="11.7671433"><ele>57.666666666666664</ele><time>2026-04-18T14:06:44.993Z</time></trkpt><trkpt lat="44.2739033" lon="11.7673317"><ele>58.0</ele><time>2026-04-18T14:06:45.994Z</time></trkpt><trkpt lat="44.2740483" lon="11.76752"><ele>61.0</ele><time>2026-04-18T14:06:46.993Z</time></trkpt><trkpt lat="44.2742067" lon="11.767695"><ele>64.0</ele><time>2026-04-18T14:06:47.993Z</time></trkpt><trkpt lat="44.2743683" lon="11.7678617"><ele>67.0</ele><time>2026-04-18T14:06:48.994Z</time></trkpt><trkpt lat="44.274535" lon="11.76803"><ele>67.0</ele><time>2026-04-18T14:06:49.993Z</time></trkpt><trkpt lat="44.274695" lon="11.7681983"><ele>67.0</ele><time>2026-04-18T14:06:50.993Z</time></trkpt><trkpt lat="44.2748567" lon="11.7683533"><ele>67.0</ele><time>2026-04-18T14:06:51.993Z</time></trkpt><trkpt lat="44.27503" lon="11.7684683"><ele>67.0</ele><time>2026-04-18T14:06:52.998Z</time></trkpt><trkpt lat="44.27522" lon="11.7685333"><ele>67.0</ele><time>2026-04-18T14:06:53.994Z</time></trkpt><trkpt lat="44.2754117" lon="11.7685867"><ele>67.0</ele><time>2026-04-18T14:06:54.993Z</time></trkpt><trkpt lat="44.2755933" lon="11.7686667"><ele>67.0</ele><time>2026-04-18T14:06:55.994Z</time></trkpt><trkpt lat="44.2757767" lon="11.7687717"><ele>67.0</ele><time>2026-04-18T14:06:56.995Z</time></trkpt><trkpt lat="44.2759567" lon="11.768905"><ele>67.0</ele><time>2026-04-18T14:06:57.994Z</time></trkpt><trkpt lat="44.2761283" lon="11.7690583"><ele>67.0</ele><time>2026-04-18T14:06:58.993Z</time></trkpt><trkpt lat="44.2762917" lon="11.769205"><ele>67.0</ele><time>2026-04-18T14:06:59.995Z</time></trkpt><trkpt lat="44.2764483" lon="11.7693483"><ele>67.0</ele><time>2026-04-18T14:07:00.994Z</time></trkpt><trkpt lat="44.2766083" lon="11.769495"><ele>67.66666666666666</ele><time>2026-04-18T14:07:01.995Z</time></trkpt><trkpt lat="44.2767733" lon="11.769645"><ele>68.33333333333333</ele><time>2026-04-18T14:07:02.995Z</time></trkpt><trkpt lat="44.27694" lon="11.7698083"><ele>69.0</ele><time>2026-04-18T14:07:03.994Z</time></trkpt><trkpt lat="44.2771083" lon="11.769985"><ele>68.66666666666667</ele><time>2026-04-18T14:07:04.994Z</time></trkpt><trkpt lat="44.2772817" lon="11.7701683"><ele>68.33333333333334</ele><time>2026-04-18T14:07:05.993Z</time></trkpt><trkpt lat="44.2774617" lon="11.770355"><ele>68.0</ele><time>2026-04-18T14:07:06.993Z</time></trkpt><trkpt lat="44.2776433" lon="11.7705433"><ele>68.0</ele><time>2026-04-18T14:07:07.994Z</time></trkpt><trkpt lat="44.277825" lon="11.7707333"><ele>68.0</ele><time>2026-04-18T14:07:08.994Z</time></trkpt><trkpt lat="44.278005" lon="11.770925"><ele>69.0</ele><time>2026-04-18T14:07:09.993Z</time></trkpt><trkpt lat="44.2781917" lon="11.7711067"><ele>70.0</ele><time>2026-04-18T14:07:10.994Z</time></trkpt><trkpt lat="44.278385" lon="11.7712667"><ele>70.0</ele><time>2026-04-18T14:07:11.994Z</time></trkpt><trkpt lat="44.2785883" lon="11.7714033"><ele>70.0</ele><time>2026-04-18T14:07:12.993Z</time></trkpt><trkpt lat="44.278795" lon="11.7715317"><ele>69.5</ele><time>2026-04-18T14:07:13.995Z</time></trkpt><trkpt lat="44.2790017" lon="11.7716617"><ele>69.0</ele><time>2026-04-18T14:07:14.995Z</time></trkpt><trkpt lat="44.279205" lon="11.7717983"><ele>71.0</ele><time>2026-04-18T14:07:15.994Z</time></trkpt><trkpt lat="44.2794067" lon="11.7719367"><ele>73.0</ele><time>2026-04-18T14:07:16.994Z</time></trkpt><trkpt lat="44.27961" lon="11.7720783"><ele>72.66666666666666</ele><time>2026-04-18T14:07:17.994Z</time></trkpt><trkpt lat="44.279805" lon="11.7722317"><ele>72.33333333333333</ele><time>2026-04-18T14:07:18.993Z</time></trkpt><trkpt lat="44.2799967" lon="11.7723883"><ele>72.0</ele><time>2026-04-18T14:07:19.993Z</time></trkpt><trkpt lat="44.2801883" lon="11.7725483"><ele>72.0</ele><time>2026-04-18T14:07:20.995Z</time></trkpt><trkpt lat="44.2803783" lon="11.7727033"><ele>72.0</ele><time>2026-04-18T14:07:21.993Z</time></trkpt><trkpt lat="44.2805717" lon="11.7728583"><ele>72.0</ele><time>2026-04-18T14:07:22.994Z</time></trkpt><trkpt lat="44.2807667" lon="11.773005"><ele>70.66666666666667</ele><time>2026-04-18T14:07:23.993Z</time></trkpt><trkpt lat="44.280965" lon="11.7731483"><ele>69.33333333333334</ele><time>2026-04-18T14:07:24.993Z</time></trkpt><trkpt lat="44.281165" lon="11.773285"><ele>68.0</ele><time>2026-04-18T14:07:25.993Z</time></trkpt><trkpt lat="44.281365" lon="11.7734217"><ele>68.33333333333334</ele><time>2026-04-18T14:07:26.994Z</time></trkpt><trkpt lat="44.281565" lon="11.7735583"><ele>68.66666666666667</ele><time>2026-04-18T14:07:27.994Z</time></trkpt><trkpt lat="44.2817683" lon="11.77368"><ele>69.0</ele><time>2026-04-18T14:07:28.993Z</time></trkpt><trkpt lat="44.2819783" lon="11.7737883"><ele>69.0</ele><time>2026-04-18T14:07:29.993Z</time></trkpt><trkpt lat="44.2821867" lon="11.7738933"><ele>69.0</ele><time>2026-04-18T14:07:30.992Z</time></trkpt><trkpt lat="44.2823883" lon="11.7740217"><ele>69.0</ele><time>2026-04-18T14:07:31.993Z</time></trkpt><trkpt lat="44.2825817" lon="11.7741767"><ele>69.0</ele><time>2026-04-18T14:07:32.993Z</time></trkpt><trkpt lat="44.2827733" lon="11.7743367"><ele>69.0</ele><time>2026-04-18T14:07:33.993Z</time></trkpt><trkpt lat="44.2829667" lon="11.774495"><ele>69.0</ele><time>2026-04-18T14:07:34.994Z</time></trkpt><trkpt lat="44.2831617" lon="11.7746533"><ele>68.0</ele><time>2026-04-18T14:07:35.992Z</time></trkpt><trkpt lat="44.283355" lon="11.7748133"><ele>67.0</ele><time>2026-04-18T14:07:36.993Z</time></trkpt><trkpt lat="44.2835483" lon="11.7749767"><ele>67.0</ele><time>2026-04-18T14:07:37.994Z</time></trkpt><trkpt lat="44.283745" lon="11.77514"><ele>67.0</ele><time>2026-04-18T14:07:38.993Z</time></trkpt><trkpt lat="44.2839417" lon="11.775305"><ele>66.5</ele><time>2026-04-18T14:07:39.993Z</time></trkpt><trkpt lat="44.2841417" lon="11.775465"><ele>66.0</ele><time>2026-04-18T14:07:40.993Z</time></trkpt><trkpt lat="44.2843433" lon="11.7756283"><ele>66.0</ele><time>2026-04-18T14:07:41.993Z</time></trkpt><trkpt lat="44.2845417" lon="11.77579"><ele>66.0</ele><time>2026-04-18T14:07:42.994Z</time></trkpt><trkpt lat="44.2847383" lon="11.775955"><ele>65.0</ele><time>2026-04-18T14:07:43.993Z</time></trkpt><trkpt lat="44.2849383" lon="11.776115"><ele>64.0</ele><time>2026-04-18T14:07:44.993Z</time></trkpt><trkpt lat="44.2851417" lon="11.7762717"><ele>64.0</ele><time>2026-04-18T14:07:45.993Z</time></trkpt><trkpt lat="44.285345" lon="11.7764267"><ele>64.0</ele><time>2026-04-18T14:07:46.995Z</time></trkpt><trkpt lat="44.2855517" lon="11.7765833"><ele>64.0</ele><time>2026-04-18T14:07:47.997Z</time></trkpt><trkpt lat="44.2857567" lon="11.77674"><ele>64.0</ele><time>2026-04-18T14:07:48.994Z</time></trkpt><trkpt lat="44.285965" lon="11.7769017"><ele>64.0</ele><time>2026-04-18T14:07:49.994Z</time></trkpt><trkpt lat="44.2861717" lon="11.777065"><ele>64.0</ele><time>2026-04-18T14:07:50.995Z</time></trkpt><trkpt lat="44.2863783" lon="11.7772283"><ele>62.5</ele><time>2026-04-18T14:07:51.993Z</time></trkpt><trkpt lat="44.286585" lon="11.7773933"><ele>61.0</ele><time>2026-04-18T14:07:52.994Z</time></trkpt><trkpt lat="44.2867933" lon="11.7775567"><ele>61.5</ele><time>2026-04-18T14:07:53.994Z</time></trkpt><trkpt lat="44.287005" lon="11.777715"><ele>62.0</ele><time>2026-04-18T14:07:54.993Z</time></trkpt><trkpt lat="44.2872183" lon="11.777875"><ele>60.5</ele><time>2026-04-18T14:07:55.994Z</time></trkpt><trkpt lat="44.2874283" lon="11.7780417"><ele>59.0</ele><time>2026-04-18T14:07:56.993Z</time></trkpt><trkpt lat="44.287635" lon="11.7782133"><ele>59.0</ele><time>2026-04-18T14:07:57.993Z</time></trkpt><trkpt lat="44.2878417" lon="11.7783983"><ele>59.0</ele><time>2026-04-18T14:07:58.993Z</time></trkpt><trkpt lat="44.288045" lon="11.7785933"><ele>58.5</ele><time>2026-04-18T14:07:59.993Z</time></trkpt><trkpt lat="44.288245" lon="11.7787933"><ele>58.0</ele><time>2026-04-18T14:08:00.993Z</time></trkpt><trkpt lat="44.2884433" lon="11.7789967"><ele>58.0</ele><time>2026-04-18T14:08:01.993Z</time></trkpt><trkpt lat="44.2886417" lon="11.7791967"><ele>58.0</ele><time>2026-04-18T14:08:02.994Z</time></trkpt><trkpt lat="44.2888417" lon="11.7793933"><ele>59.0</ele><time>2026-04-18T14:08:03.993Z</time></trkpt><trkpt lat="44.2890383" lon="11.7795883"><ele>60.0</ele><time>2026-04-18T14:08:04.993Z</time></trkpt><trkpt lat="44.2892317" lon="11.779775"><ele>60.0</ele><time>2026-04-18T14:08:05.993Z</time></trkpt><trkpt lat="44.2894133" lon="11.7799517"><ele>60.0</ele><time>2026-04-18T14:08:06.993Z</time></trkpt><trkpt lat="44.28959" lon="11.780115"><ele>60.0</ele><time>2026-04-18T14:08:07.993Z</time></trkpt><trkpt lat="44.2897633" lon="11.780255"><ele>59.0</ele><time>2026-04-18T14:08:08.995Z</time></trkpt><trkpt lat="44.2899383" lon="11.7803517"><ele>58.0</ele><time>2026-04-18T14:08:09.994Z</time></trkpt><trkpt lat="44.2901217" lon="11.7803817"><ele>57.0</ele><time>2026-04-18T14:08:10.995Z</time></trkpt><trkpt lat="44.2903083" lon="11.7803617"><ele>57.0</ele><time>2026-04-18T14:08:11.993Z</time></trkpt><trkpt lat="44.2904917" lon="11.780345"><ele>57.0</ele><time>2026-04-18T14:08:12.994Z</time></trkpt><trkpt lat="44.2906683" lon="11.7803567"><ele>57.0</ele><time>2026-04-18T14:08:13.993Z</time></trkpt><trkpt lat="44.2908383" lon="11.7804183"><ele>57.0</ele><time>2026-04-18T14:08:14.995Z</time></trkpt><trkpt lat="44.2910117" lon="11.7805033"><ele>57.0</ele><time>2026-04-18T14:08:15.994Z</time></trkpt><trkpt lat="44.2911783" lon="11.7806133"><ele>57.0</ele><time>2026-04-18T14:08:16.994Z</time></trkpt><trkpt lat="44.2913333" lon="11.7807517"><ele>56.0</ele><time>2026-04-18T14:08:17.993Z</time></trkpt><trkpt lat="44.291465" lon="11.78093"><ele>55.0</ele><time>2026-04-18T14:08:18.995Z</time></trkpt><trkpt lat="44.2915733" lon="11.7811367"><ele>54.0</ele><time>2026-04-18T14:08:19.994Z</time></trkpt><trkpt lat="44.2916683" lon="11.781365"><ele>54.0</ele><time>2026-04-18T14:08:20.994Z</time></trkpt><trkpt lat="44.2917667" lon="11.7815883"><ele>54.0</ele><time>2026-04-18T14:08:21.994Z</time></trkpt><trkpt lat="44.2918633" lon="11.7817983"><ele>54.0</ele><time>2026-04-18T14:08:22.994Z</time></trkpt><trkpt lat="44.2919533" lon="11.7820017"><ele>54.25</ele><time>2026-04-18T14:08:23.994Z</time></trkpt><trkpt lat="44.2920417" lon="11.782185"><ele>54.5</ele><time>2026-04-18T14:08:24.994Z</time></trkpt><trkpt lat="44.292135" lon="11.782345"><ele>54.75</ele><time>2026-04-18T14:08:25.993Z</time></trkpt><trkpt lat="44.2922217" lon="11.7824767"><ele>55.0</ele><time>2026-04-18T14:08:26.993Z</time></trkpt><trkpt lat="44.2922933" lon="11.7825667"><ele>55.0</ele><time>2026-04-18T14:08:27.995Z</time></trkpt><trkpt lat="44.2923417" lon="11.7826267"><ele>55.0</ele><time>2026-04-18T14:08:28.994Z</time></trkpt><trkpt lat="44.2923683" lon="11.78277"><ele>55.0</ele><time>2026-04-18T14:08:30.994Z</time></trkpt><trkpt lat="44.29232" lon="11.78292"><ele>55.0</ele><time>2026-04-18T14:08:32.994Z</time></trkpt><trkpt lat="44.2922533" lon="11.783025"><ele>55.0</ele><time>2026-04-18T14:08:33.993Z</time></trkpt><trkpt lat="44.2921617" lon="11.7831467"><ele>56.0</ele><time>2026-04-18T14:08:34.993Z</time></trkpt><trkpt lat="44.2920583" lon="11.7832717"><ele>57.0</ele><time>2026-04-18T14:08:35.994Z</time></trkpt><trkpt lat="44.29194" lon="11.7834033"><ele>58.0</ele><time>2026-04-18T14:08:36.993Z</time></trkpt><trkpt lat="44.2918133" lon="11.78355"><ele>59.0</ele><time>2026-04-18T14:08:37.995Z</time></trkpt><trkpt lat="44.2916767" lon="11.7837033"><ele>60.0</ele><time>2026-04-18T14:08:38.993Z</time></trkpt><trkpt lat="44.291555" lon="11.7838467"><ele>61.0</ele><time>2026-04-18T14:08:39.993Z</time></trkpt><trkpt lat="44.2914583" lon="11.7839717"><ele>62.0</ele><time>2026-04-18T14:08:40.993Z</time></trkpt><trkpt lat="44.2913967" lon="11.7841033"><ele>63.0</ele><time>2026-04-18T14:08:41.993Z</time></trkpt><trkpt lat="44.2913733" lon="11.7842633"><ele>64.0</ele><time>2026-04-18T14:08:42.994Z</time></trkpt><trkpt lat="44.29139" lon="11.78443"><ele>65.0</ele><time>2026-04-18T14:08:43.994Z</time></trkpt><trkpt lat="44.2914383" lon="11.7845883"><ele>66.0</ele><time>2026-04-18T14:08:44.994Z</time></trkpt><trkpt lat="44.2914967" lon="11.7847367"><ele>67.0</ele><time>2026-04-18T14:08:45.994Z</time></trkpt><trkpt lat="44.291545" lon="11.784855"><ele>68.0</ele><time>2026-04-18T14:08:46.994Z</time></trkpt><trkpt lat="44.2915683" lon="11.7849483"><ele>69.0</ele><time>2026-04-18T14:08:47.993Z</time></trkpt><trkpt lat="44.2915467" lon="11.7850417"><ele>70.0</ele><time>2026-04-18T14:08:49.994Z</time></trkpt><trkpt lat="44.2914117" lon="11.7850367"><ele>71.75</ele><time>2026-04-18T14:08:51.994Z</time></trkpt><trkpt lat="44.2912967" lon="11.7850367"><ele>73.5</ele><time>2026-04-18T14:08:52.993Z</time></trkpt><trkpt lat="44.291175" lon="11.7850383"><ele>75.25</ele><time>2026-04-18T14:08:53.993Z</time></trkpt><trkpt lat="44.2910517" lon="11.785065"><ele>77.0</ele><time>2026-04-18T14:08:54.993Z</time></trkpt><trkpt lat="44.2909183" lon="11.785095"><ele>77.0</ele><time>2026-04-18T14:08:55.994Z</time></trkpt><trkpt lat="44.290785" lon="11.78511"><ele>77.0</ele><time>2026-04-18T14:08:56.993Z</time></trkpt><trkpt lat="44.2906533" lon="11.7851233"><ele>77.0</ele><time>2026-04-18T14:08:57.994Z</time></trkpt><trkpt lat="44.2905317" lon="11.7851617"><ele>77.0</ele><time>2026-04-18T14:08:58.995Z</time></trkpt><trkpt lat="44.29042" lon="11.7852517"><ele>82.5</ele><time>2026-04-18T14:08:59.993Z</time></trkpt><trkpt lat="44.2903067" lon="11.78538"><ele>88.0</ele><time>2026-04-18T14:09:00.993Z</time></trkpt><trkpt lat="44.29019" lon="11.7855067"><ele>93.5</ele><time>2026-04-18T14:09:01.993Z</time></trkpt><trkpt lat="44.290065" lon="11.7856167"><ele>99.0</ele><time>2026-04-18T14:09:02.994Z</time></trkpt><trkpt lat="44.289935" lon="11.7856967"><ele>99.0</ele><time>2026-04-18T14:09:03.993Z</time></trkpt><trkpt lat="44.289785" lon="11.7857517"><ele>99.0</ele><time>2026-04-18T14:09:04.993Z</time></trkpt><trkpt lat="44.28963" lon="11.7858083"><ele>99.0</ele><time>2026-04-18T14:09:05.993Z</time></trkpt><trkpt lat="44.2894717" lon="11.7858667"><ele>100.0</ele><time>2026-04-18T14:09:06.994Z</time></trkpt><trkpt lat="44.2893167" lon="11.78593"><ele>101.0</ele><time>2026-04-18T14:09:07.993Z</time></trkpt><trkpt lat="44.2891717" lon="11.7859933"><ele>102.0</ele><time>2026-04-18T14:09:08.994Z</time></trkpt><trkpt lat="44.289025" lon="11.7860467"><ele>106.0</ele><time>2026-04-18T14:09:09.993Z</time></trkpt><trkpt lat="44.2888783" lon="11.7860983"><ele>110.0</ele><time>2026-04-18T14:09:10.994Z</time></trkpt><trkpt lat="44.288735" lon="11.7861517"><ele>114.0</ele><time>2026-04-18T14:09:11.994Z</time></trkpt><trkpt lat="44.2886033" lon="11.7862"><ele>118.0</ele><time>2026-04-18T14:09:12.993Z</time></trkpt><trkpt lat="44.2884933" lon="11.786275"><ele>118.0</ele><time>2026-04-18T14:09:13.994Z</time></trkpt><trkpt lat="44.2884117" lon="11.786365"><ele>118.00000000000001</ele><time>2026-04-18T14:09:14.993Z</time></trkpt><trkpt lat="44.2883383" lon="11.7864617"><ele>118.00000000000001</ele><time>2026-04-18T14:09:15.994Z</time></trkpt><trkpt lat="44.288265" lon="11.786575"><ele>118.0</ele><time>2026-04-18T14:09:16.993Z</time></trkpt><trkpt lat="44.2881833" lon="11.7867033"><ele>118.0</ele><time>2026-04-18T14:09:17.994Z</time></trkpt><trkpt lat="44.2880933" lon="11.7868483"><ele>118.80000000000001</ele><time>2026-04-18T14:09:18.993Z</time></trkpt><trkpt lat="44.2880067" lon="11.7869833"><ele>119.60000000000001</ele><time>2026-04-18T14:09:19.993Z</time></trkpt><trkpt lat="44.2879233" lon="11.78709"><ele>120.39999999999999</ele><time>2026-04-18T14:09:20.993Z</time></trkpt><trkpt lat="44.28783" lon="11.7871417"><ele>121.19999999999999</ele><time>2026-04-18T14:09:21.993Z</time></trkpt><trkpt lat="44.2877467" lon="11.7871367"><ele>122.0</ele><time>2026-04-18T14:09:22.993Z</time></trkpt><trkpt lat="44.2876817" lon="11.7871033"><ele>122.0</ele><time>2026-04-18T14:09:23.993Z</time></trkpt><trkpt lat="44.2876117" lon="11.78701"><ele>122.0</ele><time>2026-04-18T14:09:24.993Z</time></trkpt><trkpt lat="44.2875383" lon="11.7868817"><ele>122.0</ele><time>2026-04-18T14:09:25.993Z</time></trkpt><trkpt lat="44.2874567" lon="11.78673"><ele>122.0</ele><time>2026-04-18T14:09:26.995Z</time></trkpt><trkpt lat="44.2873633" lon="11.78657"><ele>121.25</ele><time>2026-04-18T14:09:27.993Z</time></trkpt><trkpt lat="44.2872667" lon="11.786405"><ele>120.5</ele><time>2026-04-18T14:09:28.994Z</time></trkpt><trkpt lat="44.2871783" lon="11.7862467"><ele>119.75</ele><time>2026-04-18T14:09:29.993Z</time></trkpt><trkpt lat="44.2870867" lon="11.78611"><ele>119.0</ele><time>2026-04-18T14:09:30.994Z</time></trkpt><trkpt lat="44.2869933" lon="11.785995"><ele>120.5</ele><time>2026-04-18T14:09:31.994Z</time></trkpt><trkpt lat="44.2868867" lon="11.7859"><ele>122.0</ele><time>2026-04-18T14:09:32.994Z</time></trkpt><trkpt lat="44.286775" lon="11.78584"><ele>123.5</ele><time>2026-04-18T14:09:33.993Z</time></trkpt><trkpt lat="44.28667" lon="11.7858217"><ele>125.0</ele><time>2026-04-18T14:09:34.993Z</time></trkpt><trkpt lat="44.2865717" lon="11.7858467"><ele>125.0</ele><time>2026-04-18T14:09:35.994Z</time></trkpt><trkpt lat="44.2864933" lon="11.785925"><ele>125.0</ele><time>2026-04-18T14:09:36.993Z</time></trkpt><trkpt lat="44.2864317" lon="11.78604"><ele>125.0</ele><time>2026-04-18T14:09:37.993Z</time></trkpt><trkpt lat="44.2863767" lon="11.7861667"><ele>125.0</ele><time>2026-04-18T14:09:38.994Z</time></trkpt><trkpt lat="44.2863217" lon="11.7863"><ele>125.0</ele><time>2026-04-18T14:09:39.994Z</time></trkpt><trkpt lat="44.2862717" lon="11.7864267"><ele>129.6</ele><time>2026-04-18T14:09:40.993Z</time></trkpt><trkpt lat="44.2862183" lon="11.7865417"><ele>134.2</ele><time>2026-04-18T14:09:41.993Z</time></trkpt><trkpt lat="44.2861517" lon="11.7866367"><ele>138.8</ele><time>2026-04-18T14:09:42.994Z</time></trkpt><trkpt lat="44.2860667" lon="11.786715"><ele>143.4</ele><time>2026-04-18T14:09:43.994Z</time></trkpt><trkpt lat="44.2859517" lon="11.7867783"><ele>148.0</ele><time>2026-04-18T14:09:44.995Z</time></trkpt><trkpt lat="44.2858317" lon="11.786855"><ele>148.0</ele><time>2026-04-18T14:09:45.993Z</time></trkpt><trkpt lat="44.285705" lon="11.78694"><ele>148.0</ele><time>2026-04-18T14:09:46.994Z</time></trkpt><trkpt lat="44.285575" lon="11.7870217"><ele>148.0</ele><time>2026-04-18T14:09:47.993Z</time></trkpt><trkpt lat="44.285465" lon="11.7870833"><ele>148.0</ele><time>2026-04-18T14:09:48.994Z</time></trkpt><trkpt lat="44.2853767" lon="11.7871317"><ele>148.5</ele><time>2026-04-18T14:09:49.995Z</time></trkpt><trkpt lat="44.285315" lon="11.78716"><ele>149.0</ele><time>2026-04-18T14:09:50.993Z</time></trkpt><trkpt lat="44.2852383" lon="11.787255"><ele>149.5</ele><time>2026-04-18T14:09:52.994Z</time></trkpt><trkpt lat="44.2852317" lon="11.7873533"><ele>150.0</ele><time>2026-04-18T14:09:53.993Z</time></trkpt><trkpt lat="44.2852383" lon="11.78747"><ele>150.5</ele><time>2026-04-18T14:09:54.993Z</time></trkpt><trkpt lat="44.2852417" lon="11.7875767"><ele>151.0</ele><time>2026-04-18T14:09:55.992Z</time></trkpt><trkpt lat="44.2852567" lon="11.7877517"><ele>151.0</ele><time>2026-04-18T14:09:57.993Z</time></trkpt><trkpt lat="44.2852867" lon="11.787895"><ele>151.0</ele><time>2026-04-18T14:09:59.996Z</time></trkpt><trkpt lat="44.285315" lon="11.7880633"><ele>151.0</ele><time>2026-04-18T14:10:01.993Z</time></trkpt><trkpt lat="44.28533" lon="11.7881533"><ele>151.0</ele><time>2026-04-18T14:10:02.996Z</time></trkpt><trkpt lat="44.28535" lon="11.7882467"><ele>151.0</ele><time>2026-04-18T14:10:03.994Z</time></trkpt><trkpt lat="44.2853817" lon="11.7883483"><ele>151.0</ele><time>2026-04-18T14:10:04.995Z</time></trkpt><trkpt lat="44.28542" lon="11.7884517"><ele>151.4</ele><time>2026-04-18T14:10:05.994Z</time></trkpt><trkpt lat="44.2854633" lon="11.7885633"><ele>151.8</ele><time>2026-04-18T14:10:06.993Z</time></trkpt><trkpt lat="44.285505" lon="11.788695"><ele>152.20000000000002</ele><time>2026-04-18T14:10:07.993Z</time></trkpt><trkpt lat="44.2855483" lon="11.7888133"><ele>152.6</ele><time>2026-04-18T14:10:08.994Z</time></trkpt><trkpt lat="44.2855967" lon="11.78893"><ele>153.0</ele><time>2026-04-18T14:10:09.994Z</time></trkpt><trkpt lat="44.285655" lon="11.78905"><ele>153.0</ele><time>2026-04-18T14:10:10.994Z</time></trkpt><trkpt lat="44.2857217" lon="11.78916"><ele>153.0</ele><time>2026-04-18T14:10:11.994Z</time></trkpt><trkpt lat="44.285795" lon="11.7892583"><ele>153.0</ele><time>2026-04-18T14:10:12.993Z</time></trkpt><trkpt lat="44.285875" lon="11.7893567"><ele>153.0</ele><time>2026-04-18T14:10:13.993Z</time></trkpt><trkpt lat="44.2859567" lon="11.7894617"><ele>153.0</ele><time>2026-04-18T14:10:14.994Z</time></trkpt><trkpt lat="44.286045" lon="11.7895683"><ele>153.25</ele><time>2026-04-18T14:10:15.993Z</time></trkpt><trkpt lat="44.2861367" lon="11.7896783"><ele>153.5</ele><time>2026-04-18T14:10:16.995Z</time></trkpt><trkpt lat="44.286225" lon="11.7897867"><ele>153.75</ele><time>2026-04-18T14:10:17.994Z</time></trkpt><trkpt lat="44.2863167" lon="11.789885"><ele>154.0</ele><time>2026-04-18T14:10:18.993Z</time></trkpt><trkpt lat="44.2864017" lon="11.78996"><ele>154.8</ele><time>2026-04-18T14:10:19.993Z</time></trkpt><trkpt lat="44.2864883" lon="11.7900133"><ele>155.60000000000002</ele><time>2026-04-18T14:10:20.993Z</time></trkpt><trkpt lat="44.2865817" lon="11.790045"><ele>156.4</ele><time>2026-04-18T14:10:21.993Z</time></trkpt><trkpt lat="44.28668" lon="11.7900767"><ele>157.20000000000002</ele><time>2026-04-18T14:10:22.994Z</time></trkpt><trkpt lat="44.2867733" lon="11.7901083"><ele>158.0</ele><time>2026-04-18T14:10:23.993Z</time></trkpt><trkpt lat="44.2868633" lon="11.7901467"><ele>158.20000000000002</ele><time>2026-04-18T14:10:24.993Z</time></trkpt><trkpt lat="44.2869433" lon="11.7901883"><ele>158.4</ele><time>2026-04-18T14:10:25.995Z</time></trkpt><trkpt lat="44.2870217" lon="11.7902383"><ele>158.60000000000002</ele><time>2026-04-18T14:10:26.994Z</time></trkpt><trkpt lat="44.2871117" lon="11.7903083"><ele>158.8</ele><time>2026-04-18T14:10:27.993Z</time></trkpt><trkpt lat="44.2872167" lon="11.79038"><ele>159.0</ele><time>2026-04-18T14:10:28.994Z</time></trkpt><trkpt lat="44.2873333" lon="11.7904533"><ele>157.75</ele><time>2026-04-18T14:10:29.994Z</time></trkpt><trkpt lat="44.2874567" lon="11.79052"><ele>156.5</ele><time>2026-04-18T14:10:30.993Z</time></trkpt><trkpt lat="44.2875883" lon="11.790595"><ele>155.25</ele><time>2026-04-18T14:10:31.994Z</time></trkpt><trkpt lat="44.2877217" lon="11.79068"><ele>154.0</ele><time>2026-04-18T14:10:32.995Z</time></trkpt><trkpt lat="44.28785" lon="11.7907767"><ele>154.0</ele><time>2026-04-18T14:10:33.995Z</time></trkpt><trkpt lat="44.2879783" lon="11.7908733"><ele>154.0</ele><time>2026-04-18T14:10:34.993Z</time></trkpt><trkpt lat="44.2881" lon="11.7909683"><ele>154.0</ele><time>2026-04-18T14:10:35.994Z</time></trkpt><trkpt lat="44.2882133" lon="11.7910717"><ele>154.0</ele><time>2026-04-18T14:10:36.995Z</time></trkpt><trkpt lat="44.28833" lon="11.7911967"><ele>151.0</ele><time>2026-04-18T14:10:37.994Z</time></trkpt><trkpt lat="44.2884483" lon="11.7913367"><ele>148.0</ele><time>2026-04-18T14:10:38.994Z</time></trkpt><trkpt lat="44.288545" lon="11.7914717"><ele>145.0</ele><time>2026-04-18T14:10:39.994Z</time></trkpt><trkpt lat="44.2886517" lon="11.7915933"><ele>142.0</ele><time>2026-04-18T14:10:40.994Z</time></trkpt><trkpt lat="44.2887617" lon="11.7916967"><ele>142.0</ele><time>2026-04-18T14:10:41.993Z</time></trkpt><trkpt lat="44.28886" lon="11.79179"><ele>142.0</ele><time>2026-04-18T14:10:42.994Z</time></trkpt><trkpt lat="44.2889433" lon="11.7918917"><ele>142.0</ele><time>2026-04-18T14:10:43.994Z</time></trkpt><trkpt lat="44.28899" lon="11.7920133"><ele>142.0</ele><time>2026-04-18T14:10:44.993Z</time></trkpt><trkpt lat="44.2890167" lon="11.79215"><ele>142.0</ele><time>2026-04-18T14:10:45.993Z</time></trkpt><trkpt lat="44.2890567" lon="11.7922817"><ele>140.0</ele><time>2026-04-18T14:10:46.993Z</time></trkpt><trkpt lat="44.2891183" lon="11.7923867"><ele>138.0</ele><time>2026-04-18T14:10:47.994Z</time></trkpt><trkpt lat="44.28919" lon="11.792465"><ele>136.0</ele><time>2026-04-18T14:10:48.995Z</time></trkpt><trkpt lat="44.2892567" lon="11.79252"><ele>134.0</ele><time>2026-04-18T14:10:49.994Z</time></trkpt><trkpt lat="44.2893333" lon="11.7926367"><ele>132.0</ele><time>2026-04-18T14:10:51.994Z</time></trkpt><trkpt lat="44.28939" lon="11.7928067"><ele>131.0</ele><time>2026-04-18T14:10:53.995Z</time></trkpt><trkpt lat="44.2894233" lon="11.7929183"><ele>130.0</ele><time>2026-04-18T14:10:54.993Z</time></trkpt><trkpt lat="44.2894683" lon="11.79303"><ele>129.0</ele><time>2026-04-18T14:10:55.993Z</time></trkpt><trkpt lat="44.2895183" lon="11.793145"><ele>128.0</ele><time>2026-04-18T14:10:56.993Z</time></trkpt><trkpt lat="44.2895583" lon="11.793255"><ele>127.0</ele><time>2026-04-18T14:10:57.993Z</time></trkpt><trkpt lat="44.2896017" lon="11.793355"><ele>126.0</ele><time>2026-04-18T14:10:58.993Z</time></trkpt><trkpt lat="44.2896433" lon="11.7934683"><ele>124.83333333333333</ele><time>2026-04-18T14:10:59.995Z</time></trkpt><trkpt lat="44.2896983" lon="11.7935783"><ele>123.66666666666666</ele><time>2026-04-18T14:11:00.993Z</time></trkpt><trkpt lat="44.2897567" lon="11.7936883"><ele>122.5</ele><time>2026-04-18T14:11:01.994Z</time></trkpt><trkpt lat="44.2898133" lon="11.7937833"><ele>121.33333333333333</ele><time>2026-04-18T14:11:02.993Z</time></trkpt><trkpt lat="44.2898717" lon="11.7938683"><ele>120.16666666666666</ele><time>2026-04-18T14:11:03.994Z</time></trkpt><trkpt lat="44.28993" lon="11.7939483"><ele>119.0</ele><time>2026-04-18T14:11:04.994Z</time></trkpt><trkpt lat="44.2899867" lon="11.7940283"><ele>119.0</ele><time>2026-04-18T14:11:05.995Z</time></trkpt><trkpt lat="44.2900483" lon="11.7941217"><ele>119.0</ele><time>2026-04-18T14:11:06.993Z</time></trkpt><trkpt lat="44.2901133" lon="11.794215"><ele>119.0</ele><time>2026-04-18T14:11:07.993Z</time></trkpt><trkpt lat="44.2901817" lon="11.794305"><ele>119.0</ele><time>2026-04-18T14:11:08.994Z</time></trkpt><trkpt lat="44.2902583" lon="11.7943967"><ele>119.0</ele><time>2026-04-18T14:11:09.993Z</time></trkpt><trkpt lat="44.290335" lon="11.7944867"><ele>117.4</ele><time>2026-04-18T14:11:10.995Z</time></trkpt><trkpt lat="44.290415" lon="11.7945883"><ele>115.80000000000001</ele><time>2026-04-18T14:11:11.993Z</time></trkpt><trkpt lat="44.2904917" lon="11.7946933"><ele>114.19999999999999</ele><time>2026-04-18T14:11:12.994Z</time></trkpt><trkpt lat="44.2905667" lon="11.79479"><ele>112.6</ele><time>2026-04-18T14:11:13.994Z</time></trkpt><trkpt lat="44.2906433" lon="11.794885"><ele>111.0</ele><time>2026-04-18T14:11:14.994Z</time></trkpt><trkpt lat="44.2907217" lon="11.794975"><ele>111.0</ele><time>2026-04-18T14:11:15.994Z</time></trkpt><trkpt lat="44.290795" lon="11.7950583"><ele>111.0</ele><time>2026-04-18T14:11:16.994Z</time></trkpt><trkpt lat="44.2908767" lon="11.7951333"><ele>111.0</ele><time>2026-04-18T14:11:17.993Z</time></trkpt><trkpt lat="44.2909667" lon="11.7952117"><ele>111.0</ele><time>2026-04-18T14:11:18.994Z</time></trkpt><trkpt lat="44.2910467" lon="11.7952917"><ele>111.0</ele><time>2026-04-18T14:11:19.993Z</time></trkpt><trkpt lat="44.29112" lon="11.7953733"><ele>110.19999999999999</ele><time>2026-04-18T14:11:20.994Z</time></trkpt><trkpt lat="44.2911883" lon="11.7954667"><ele>109.39999999999999</ele><time>2026-04-18T14:11:21.994Z</time></trkpt><trkpt lat="44.291255" lon="11.7955767"><ele>108.6</ele><time>2026-04-18T14:11:22.993Z</time></trkpt><trkpt lat="44.2913233" lon="11.7956933"><ele>107.8</ele><time>2026-04-18T14:11:23.994Z</time></trkpt><trkpt lat="44.2913883" lon="11.7958183"><ele>107.0</ele><time>2026-04-18T14:11:24.994Z</time></trkpt><trkpt lat="44.2914467" lon="11.7959417"><ele>105.8</ele><time>2026-04-18T14:11:25.993Z</time></trkpt><trkpt lat="44.2914983" lon="11.796055"><ele>104.6</ele><time>2026-04-18T14:11:26.994Z</time></trkpt><trkpt lat="44.2915367" lon="11.796155"><ele>103.39999999999999</ele><time>2026-04-18T14:11:27.994Z</time></trkpt><trkpt lat="44.2915483" lon="11.796245"><ele>102.19999999999999</ele><time>2026-04-18T14:11:28.993Z</time></trkpt><trkpt lat="44.2915133" lon="11.7963817"><ele>101.0</ele><time>2026-04-18T14:11:30.994Z</time></trkpt><trkpt lat="44.291405" lon="11.7964467"><ele>99.83333333333333</ele><time>2026-04-18T14:11:32.996Z</time></trkpt><trkpt lat="44.2913367" lon="11.7964533"><ele>98.66666666666666</ele><time>2026-04-18T14:11:33.995Z</time></trkpt><trkpt lat="44.2912533" lon="11.7964567"><ele>97.5</ele><time>2026-04-18T14:11:34.994Z</time></trkpt><trkpt lat="44.2911683" lon="11.7964533"><ele>96.33333333333333</ele><time>2026-04-18T14:11:35.995Z</time></trkpt><trkpt lat="44.2910867" lon="11.7964367"><ele>95.16666666666666</ele><time>2026-04-18T14:11:36.994Z</time></trkpt><trkpt lat="44.29101" lon="11.7964233"><ele>94.0</ele><time>2026-04-18T14:11:37.993Z</time></trkpt><trkpt lat="44.290935" lon="11.796415"><ele>94.0</ele><time>2026-04-18T14:11:38.993Z</time></trkpt><trkpt lat="44.2908567" lon="11.796405"><ele>94.0</ele><time>2026-04-18T14:11:39.996Z</time></trkpt><trkpt lat="44.290775" lon="11.7963983"><ele>94.0</ele><time>2026-04-18T14:11:40.993Z</time></trkpt><trkpt lat="44.2906983" lon="11.796395"><ele>94.0</ele><time>2026-04-18T14:11:41.993Z</time></trkpt><trkpt lat="44.2906283" lon="11.7963933"><ele>94.0</ele><time>2026-04-18T14:11:42.994Z</time></trkpt><trkpt lat="44.2905117" lon="11.7963317"><ele>94.0</ele><time>2026-04-18T14:11:44.994Z</time></trkpt><trkpt lat="44.2904617" lon="11.7962767"><ele>93.85714285714286</ele><time>2026-04-18T14:11:45.993Z</time></trkpt><trkpt lat="44.2904217" lon="11.7962083"><ele>93.71428571428571</ele><time>2026-04-18T14:11:46.994Z</time></trkpt><trkpt lat="44.29038" lon="11.7961133"><ele>93.57142857142858</ele><time>2026-04-18T14:11:47.994Z</time></trkpt><trkpt lat="44.2903367" lon="11.7960317"><ele>93.42857142857143</ele><time>2026-04-18T14:11:48.995Z</time></trkpt><trkpt lat="44.2902983" lon="11.7959517"><ele>93.28571428571429</ele><time>2026-04-18T14:11:49.995Z</time></trkpt><trkpt lat="44.2902567" lon="11.79588"><ele>93.14285714285715</ele><time>2026-04-18T14:11:50.994Z</time></trkpt><trkpt lat="44.2902017" lon="11.7958117"><ele>93.0</ele><time>2026-04-18T14:11:51.994Z</time></trkpt><trkpt lat="44.29014" lon="11.7957417"><ele>93.00000000000001</ele><time>2026-04-18T14:11:52.993Z</time></trkpt><trkpt lat="44.2900817" lon="11.795675"><ele>93.0</ele><time>2026-04-18T14:11:53.995Z</time></trkpt><trkpt lat="44.2900283" lon="11.795605"><ele>93.0</ele><time>2026-04-18T14:11:54.993Z</time></trkpt><trkpt lat="44.289965" lon="11.79554"><ele>93.0</ele><time>2026-04-18T14:11:55.993Z</time></trkpt><trkpt lat="44.2899017" lon="11.79548"><ele>93.0</ele><time>2026-04-18T14:11:56.994Z</time></trkpt><trkpt lat="44.2898433" lon="11.7954267"><ele>93.00000000000001</ele><time>2026-04-18T14:11:57.994Z</time></trkpt><trkpt lat="44.2897833" lon="11.795395"><ele>93.0</ele><time>2026-04-18T14:11:58.995Z</time></trkpt><trkpt lat="44.2897117" lon="11.795375"><ele>93.4</ele><time>2026-04-18T14:11:59.994Z</time></trkpt><trkpt lat="44.2896467" lon="11.7953633"><ele>93.80000000000001</ele><time>2026-04-18T14:12:00.994Z</time></trkpt><trkpt lat="44.289555" lon="11.7954"><ele>94.2</ele><time>2026-04-18T14:12:02.994Z</time></trkpt><trkpt lat="44.28949" lon="11.7955167"><ele>94.6</ele><time>2026-04-18T14:12:04.993Z</time></trkpt><trkpt lat="44.2894317" lon="11.7956533"><ele>95.0</ele><time>2026-04-18T14:12:06.994Z</time></trkpt><trkpt lat="44.2893983" lon="11.7957433"><ele>95.0</ele><time>2026-04-18T14:12:07.993Z</time></trkpt><trkpt lat="44.289365" lon="11.7959083"><ele>95.0</ele><time>2026-04-18T14:12:09.994Z</time></trkpt><trkpt lat="44.2893433" lon="11.7959917"><ele>95.0</ele><time>2026-04-18T14:12:10.993Z</time></trkpt><trkpt lat="44.2893267" lon="11.796085"><ele>95.0</ele><time>2026-04-18T14:12:11.993Z</time></trkpt><trkpt lat="44.2893067" lon="11.7962417"><ele>95.0</ele><time>2026-04-18T14:12:13.993Z</time></trkpt><trkpt lat="44.2893333" lon="11.7963883"><ele>93.16666666666667</ele><time>2026-04-18T14:12:15.993Z</time></trkpt><trkpt lat="44.289345" lon="11.79648"><ele>91.33333333333334</ele><time>2026-04-18T14:12:16.993Z</time></trkpt><trkpt lat="44.289355" lon="11.7965817"><ele>89.5</ele><time>2026-04-18T14:12:17.995Z</time></trkpt><trkpt lat="44.2893567" lon="11.7966983"><ele>87.66666666666667</ele><time>2026-04-18T14:12:18.993Z</time></trkpt><trkpt lat="44.2893533" lon="11.7968333"><ele>85.83333333333333</ele><time>2026-04-18T14:12:19.993Z</time></trkpt><trkpt lat="44.2893433" lon="11.7969817"><ele>84.0</ele><time>2026-04-18T14:12:20.995Z</time></trkpt><trkpt lat="44.2893283" lon="11.7971367"><ele>82.0</ele><time>2026-04-18T14:12:21.994Z</time></trkpt><trkpt lat="44.2893133" lon="11.7972867"><ele>80.0</ele><time>2026-04-18T14:12:22.992Z</time></trkpt><trkpt lat="44.2892933" lon="11.7974217"><ele>78.0</ele><time>2026-04-18T14:12:23.994Z</time></trkpt><trkpt lat="44.289255" lon="11.7975333"><ele>76.0</ele><time>2026-04-18T14:12:24.994Z</time></trkpt><trkpt lat="44.2892017" lon="11.7976283"><ele>74.0</ele><time>2026-04-18T14:12:25.992Z</time></trkpt><trkpt lat="44.2891317" lon="11.7977133"><ele>73.4</ele><time>2026-04-18T14:12:26.994Z</time></trkpt><trkpt lat="44.289045" lon="11.7977767"><ele>72.80000000000001</ele><time>2026-04-18T14:12:27.993Z</time></trkpt><trkpt lat="44.288945" lon="11.7978183"><ele>72.19999999999999</ele><time>2026-04-18T14:12:28.992Z</time></trkpt><trkpt lat="44.2888383" lon="11.7978417"><ele>71.6</ele><time>2026-04-18T14:12:29.992Z</time></trkpt><trkpt lat="44.28873" lon="11.797855"><ele>71.0</ele><time>2026-04-18T14:12:30.994Z</time></trkpt><trkpt lat="44.2886233" lon="11.79786"><ele>71.0</ele><time>2026-04-18T14:12:31.991Z</time></trkpt><trkpt lat="44.2885217" lon="11.797865"><ele>71.0</ele><time>2026-04-18T14:12:32.993Z</time></trkpt><trkpt lat="44.2884217" lon="11.797865"><ele>71.0</ele><time>2026-04-18T14:12:33.993Z</time></trkpt><trkpt lat="44.28834" lon="11.79788"><ele>71.0</ele><time>2026-04-18T14:12:34.992Z</time></trkpt><trkpt lat="44.2882667" lon="11.7979167"><ele>71.0</ele><time>2026-04-18T14:12:35.992Z</time></trkpt><trkpt lat="44.2882083" lon="11.79798"><ele>71.0</ele><time>2026-04-18T14:12:36.993Z</time></trkpt><trkpt lat="44.2881583" lon="11.79807"><ele>71.0</ele><time>2026-04-18T14:12:37.992Z</time></trkpt><trkpt lat="44.28811" lon="11.7981933"><ele>71.0</ele><time>2026-04-18T14:12:38.993Z</time></trkpt><trkpt lat="44.28806" lon="11.7983333"><ele>71.0</ele><time>2026-04-18T14:12:39.993Z</time></trkpt><trkpt lat="44.2880067" lon="11.7984817"><ele>71.0</ele><time>2026-04-18T14:12:40.994Z</time></trkpt><trkpt lat="44.287955" lon="11.798625"><ele>71.0</ele><time>2026-04-18T14:12:41.992Z</time></trkpt><trkpt lat="44.2879083" lon="11.79876"><ele>71.0</ele><time>2026-04-18T14:12:42.992Z</time></trkpt><trkpt lat="44.287865" lon="11.798875"><ele>71.0</ele><time>2026-04-18T14:12:43.993Z</time></trkpt><trkpt lat="44.2878083" lon="11.7989583"><ele>71.0</ele><time>2026-04-18T14:12:44.993Z</time></trkpt><trkpt lat="44.2877417" lon="11.7990117"><ele>71.0</ele><time>2026-04-18T14:12:45.993Z</time></trkpt><trkpt lat="44.2876683" lon="11.7990533"><ele>71.0</ele><time>2026-04-18T14:12:46.993Z</time></trkpt><trkpt lat="44.28758" lon="11.79908"><ele>71.0</ele><time>2026-04-18T14:12:47.992Z</time></trkpt><trkpt lat="44.2874833" lon="11.799105"><ele>71.0</ele><time>2026-04-18T14:12:48.992Z</time></trkpt><trkpt lat="44.287385" lon="11.799135"><ele>71.0</ele><time>2026-04-18T14:12:49.992Z</time></trkpt><trkpt lat="44.2872817" lon="11.7991717"><ele>71.0</ele><time>2026-04-18T14:12:50.993Z</time></trkpt><trkpt lat="44.2871767" lon="11.7992167"><ele>71.0</ele><time>2026-04-18T14:12:51.992Z</time></trkpt><trkpt lat="44.2870633" lon="11.7992667"><ele>71.0</ele><time>2026-04-18T14:12:52.994Z</time></trkpt><trkpt lat="44.28695" lon="11.7993133"><ele>70.8</ele><time>2026-04-18T14:12:53.993Z</time></trkpt><trkpt lat="44.2868333" lon="11.7993533"><ele>70.6</ele><time>2026-04-18T14:12:54.993Z</time></trkpt><trkpt lat="44.2867267" lon="11.7993767"><ele>70.4</ele><time>2026-04-18T14:12:55.993Z</time></trkpt><trkpt lat="44.28663" lon="11.7993783"><ele>70.2</ele><time>2026-04-18T14:12:56.992Z</time></trkpt><trkpt lat="44.286535" lon="11.7993517"><ele>70.0</ele><time>2026-04-18T14:12:57.992Z</time></trkpt><trkpt lat="44.286445" lon="11.7993083"><ele>72.16666666666666</ele><time>2026-04-18T14:12:58.992Z</time></trkpt><trkpt lat="44.28637" lon="11.7992717"><ele>74.33333333333333</ele><time>2026-04-18T14:12:59.993Z</time></trkpt><trkpt lat="44.2862983" lon="11.7992183"><ele>76.5</ele><time>2026-04-18T14:13:00.993Z</time></trkpt><trkpt lat="44.2862267" lon="11.7991467"><ele>78.66666666666667</ele><time>2026-04-18T14:13:01.992Z</time></trkpt><trkpt lat="44.286155" lon="11.7990633"><ele>80.83333333333334</ele><time>2026-04-18T14:13:02.995Z</time></trkpt><trkpt lat="44.2860783" lon="11.7989717"><ele>83.0</ele><time>2026-04-18T14:13:03.993Z</time></trkpt><trkpt lat="44.286" lon="11.7988783"><ele>83.0</ele><time>2026-04-18T14:13:04.993Z</time></trkpt><trkpt lat="44.2859133" lon="11.79878"><ele>83.0</ele><time>2026-04-18T14:13:05.993Z</time></trkpt><trkpt lat="44.285845" lon="11.7987067"><ele>83.0</ele><time>2026-04-18T14:13:06.993Z</time></trkpt><trkpt lat="44.28578" lon="11.798635"><ele>83.0</ele><time>2026-04-18T14:13:07.993Z</time></trkpt><trkpt lat="44.2857033" lon="11.7985517"><ele>83.0</ele><time>2026-04-18T14:13:08.997Z</time></trkpt><trkpt lat="44.2856133" lon="11.7984783"><ele>86.0</ele><time>2026-04-18T14:13:09.992Z</time></trkpt><trkpt lat="44.2855133" lon="11.7983917"><ele>89.0</ele><time>2026-04-18T14:13:10.994Z</time></trkpt><trkpt lat="44.2854083" lon="11.798315"><ele>92.0</ele><time>2026-04-18T14:13:11.992Z</time></trkpt><trkpt lat="44.285305" lon="11.798245"><ele>95.0</ele><time>2026-04-18T14:13:12.991Z</time></trkpt><trkpt lat="44.2851933" lon="11.7981717"><ele>95.0</ele><time>2026-04-18T14:13:13.992Z</time></trkpt><trkpt lat="44.2850817" lon="11.7980917"><ele>95.0</ele><time>2026-04-18T14:13:14.993Z</time></trkpt><trkpt lat="44.2849667" lon="11.7980133"><ele>95.0</ele><time>2026-04-18T14:13:15.993Z</time></trkpt><trkpt lat="44.2848483" lon="11.7979333"><ele>95.0</ele><time>2026-04-18T14:13:16.993Z</time></trkpt><trkpt lat="44.2847267" lon="11.797865"><ele>99.0</ele><time>2026-04-18T14:13:17.993Z</time></trkpt><trkpt lat="44.2846017" lon="11.7978017"><ele>103.0</ele><time>2026-04-18T14:13:18.995Z</time></trkpt><trkpt lat="44.2844767" lon="11.7977467"><ele>107.0</ele><time>2026-04-18T14:13:19.993Z</time></trkpt><trkpt lat="44.2843533" lon="11.79769"><ele>111.0</ele><time>2026-04-18T14:13:20.994Z</time></trkpt><trkpt lat="44.2842267" lon="11.79762"><ele>111.25</ele><time>2026-04-18T14:13:21.992Z</time></trkpt><trkpt lat="44.2841017" lon="11.7975467"><ele>111.5</ele><time>2026-04-18T14:13:22.993Z</time></trkpt><trkpt lat="44.283985" lon="11.7974633"><ele>111.75</ele><time>2026-04-18T14:13:23.993Z</time></trkpt><trkpt lat="44.2838633" lon="11.7973883"><ele>112.0</ele><time>2026-04-18T14:13:24.993Z</time></trkpt><trkpt lat="44.2837433" lon="11.7973233"><ele>114.75</ele><time>2026-04-18T14:13:25.992Z</time></trkpt><trkpt lat="44.28362" lon="11.797275"><ele>117.5</ele><time>2026-04-18T14:13:26.994Z</time></trkpt><trkpt lat="44.2834933" lon="11.7972267"><ele>120.25</ele><time>2026-04-18T14:13:27.993Z</time></trkpt><trkpt lat="44.28337" lon="11.797165"><ele>123.0</ele><time>2026-04-18T14:13:28.993Z</time></trkpt><trkpt lat="44.2832517" lon="11.79708"><ele>123.0</ele><time>2026-04-18T14:13:29.993Z</time></trkpt><trkpt lat="44.283135" lon="11.7969733"><ele>123.0</ele><time>2026-04-18T14:13:30.992Z</time></trkpt><trkpt lat="44.2830283" lon="11.7968533"><ele>123.0</ele><time>2026-04-18T14:13:31.992Z</time></trkpt><trkpt lat="44.2829117" lon="11.79673"><ele>123.0</ele><time>2026-04-18T14:13:32.992Z</time></trkpt><trkpt lat="44.2827983" lon="11.796615"><ele>124.5</ele><time>2026-04-18T14:13:33.993Z</time></trkpt><trkpt lat="44.2826917" lon="11.7965133"><ele>126.0</ele><time>2026-04-18T14:13:34.994Z</time></trkpt><trkpt lat="44.28258" lon="11.7964033"><ele>127.5</ele><time>2026-04-18T14:13:35.992Z</time></trkpt><trkpt lat="44.2824717" lon="11.7962917"><ele>129.0</ele><time>2026-04-18T14:13:36.993Z</time></trkpt><trkpt lat="44.2823633" lon="11.796185"><ele>132.0</ele><time>2026-04-18T14:13:37.993Z</time></trkpt><trkpt lat="44.2822533" lon="11.7960783"><ele>135.0</ele><time>2026-04-18T14:13:38.993Z</time></trkpt><trkpt lat="44.282145" lon="11.7959667"><ele>138.0</ele><time>2026-04-18T14:13:39.992Z</time></trkpt><trkpt lat="44.2820417" lon="11.79585"><ele>141.0</ele><time>2026-04-18T14:13:40.992Z</time></trkpt><trkpt lat="44.281955" lon="11.7957283"><ele>142.25</ele><time>2026-04-18T14:13:41.992Z</time></trkpt><trkpt lat="44.2818867" lon="11.7955833"><ele>143.5</ele><time>2026-04-18T14:13:42.992Z</time></trkpt><trkpt lat="44.2818217" lon="11.7954267"><ele>144.75</ele><time>2026-04-18T14:13:43.993Z</time></trkpt><trkpt lat="44.2817533" lon="11.7952633"><ele>146.0</ele><time>2026-04-18T14:13:44.994Z</time></trkpt><trkpt lat="44.2816917" lon="11.7950917"><ele>146.0</ele><time>2026-04-18T14:13:45.993Z</time></trkpt><trkpt lat="44.28164" lon="11.7949117"><ele>146.0</ele><time>2026-04-18T14:13:46.993Z</time></trkpt><trkpt lat="44.281615" lon="11.7947333"><ele>146.0</ele><time>2026-04-18T14:13:47.992Z</time></trkpt><trkpt lat="44.2816067" lon="11.79457"><ele>146.0</ele><time>2026-04-18T14:13:48.994Z</time></trkpt><trkpt lat="44.2815883" lon="11.7944183"><ele>146.0</ele><time>2026-04-18T14:13:49.993Z</time></trkpt><trkpt lat="44.281545" lon="11.7942767"><ele>146.0</ele><time>2026-04-18T14:13:50.993Z</time></trkpt><trkpt lat="44.2814867" lon="11.7941333"><ele>146.0</ele><time>2026-04-18T14:13:51.992Z</time></trkpt><trkpt lat="44.2814233" lon="11.7939917"><ele>146.0</ele><time>2026-04-18T14:13:52.992Z</time></trkpt><trkpt lat="44.281345" lon="11.7938633"><ele>151.5</ele><time>2026-04-18T14:13:53.993Z</time></trkpt><trkpt lat="44.281265" lon="11.7937283"><ele>157.0</ele><time>2026-04-18T14:13:54.994Z</time></trkpt><trkpt lat="44.28119" lon="11.7936"><ele>162.5</ele><time>2026-04-18T14:13:55.992Z</time></trkpt><trkpt lat="44.28111" lon="11.7934733"><ele>168.0</ele><time>2026-04-18T14:13:56.993Z</time></trkpt><trkpt lat="44.2810133" lon="11.79336"><ele>168.0</ele><time>2026-04-18T14:13:57.992Z</time></trkpt><trkpt lat="44.2809" lon="11.793265"><ele>168.0</ele><time>2026-04-18T14:13:58.992Z</time></trkpt><trkpt lat="44.2807767" lon="11.7931883"><ele>168.0</ele><time>2026-04-18T14:13:59.992Z</time></trkpt><trkpt lat="44.2806517" lon="11.7931133"><ele>168.0</ele><time>2026-04-18T14:14:00.994Z</time></trkpt><trkpt lat="44.2805283" lon="11.7930367"><ele>172.0</ele><time>2026-04-18T14:14:01.992Z</time></trkpt><trkpt lat="44.2804033" lon="11.7929583"><ele>176.0</ele><time>2026-04-18T14:14:02.993Z</time></trkpt><trkpt lat="44.2802867" lon="11.7928883"><ele>180.0</ele><time>2026-04-18T14:14:03.993Z</time></trkpt><trkpt lat="44.28018" lon="11.7928133"><ele>184.0</ele><time>2026-04-18T14:14:04.993Z</time></trkpt><trkpt lat="44.280085" lon="11.7927317"><ele>184.39999999999998</ele><time>2026-04-18T14:14:05.992Z</time></trkpt><trkpt lat="44.2799917" lon="11.792655"><ele>184.8</ele><time>2026-04-18T14:14:06.993Z</time></trkpt><trkpt lat="44.2799067" lon="11.7925783"><ele>185.2</ele><time>2026-04-18T14:14:07.993Z</time></trkpt><trkpt lat="44.2798283" lon="11.7925083"><ele>185.60000000000002</ele><time>2026-04-18T14:14:08.993Z</time></trkpt><trkpt lat="44.2797517" lon="11.7924517"><ele>186.0</ele><time>2026-04-18T14:14:09.992Z</time></trkpt><trkpt lat="44.27967" lon="11.7924017"><ele>186.0</ele><time>2026-04-18T14:14:10.993Z</time></trkpt><trkpt lat="44.27958" lon="11.7923417"><ele>186.0</ele><time>2026-04-18T14:14:11.992Z</time></trkpt><trkpt lat="44.2794817" lon="11.7922733"><ele>186.0</ele><time>2026-04-18T14:14:12.993Z</time></trkpt><trkpt lat="44.27938" lon="11.792195"><ele>186.0</ele><time>2026-04-18T14:14:13.992Z</time></trkpt><trkpt lat="44.279285" lon="11.79211"><ele>186.0</ele><time>2026-04-18T14:14:14.994Z</time></trkpt><trkpt lat="44.2791867" lon="11.79202"><ele>186.0</ele><time>2026-04-18T14:14:15.993Z</time></trkpt><trkpt lat="44.27909" lon="11.79193"><ele>186.0</ele><time>2026-04-18T14:14:16.993Z</time></trkpt><trkpt lat="44.2789883" lon="11.7918333"><ele>186.0</ele><time>2026-04-18T14:14:17.992Z</time></trkpt><trkpt lat="44.2788867" lon="11.7917317"><ele>186.0</ele><time>2026-04-18T14:14:18.993Z</time></trkpt><trkpt lat="44.2787833" lon="11.79163"><ele>187.5</ele><time>2026-04-18T14:14:19.992Z</time></trkpt><trkpt lat="44.2786767" lon="11.791535"><ele>189.0</ele><time>2026-04-18T14:14:20.994Z</time></trkpt><trkpt lat="44.2785633" lon="11.79143"><ele>190.5</ele><time>2026-04-18T14:14:21.994Z</time></trkpt><trkpt lat="44.2784617" lon="11.79132"><ele>192.0</ele><time>2026-04-18T14:14:22.994Z</time></trkpt><trkpt lat="44.27837" lon="11.7912067"><ele>192.0</ele><time>2026-04-18T14:14:23.994Z</time></trkpt><trkpt lat="44.2782717" lon="11.7910883"><ele>192.0</ele><time>2026-04-18T14:14:24.993Z</time></trkpt><trkpt lat="44.278175" lon="11.79097"><ele>192.0</ele><time>2026-04-18T14:14:25.993Z</time></trkpt><trkpt lat="44.2780767" lon="11.790855"><ele>192.0</ele><time>2026-04-18T14:14:26.994Z</time></trkpt><trkpt lat="44.2779683" lon="11.79075"><ele>193.25</ele><time>2026-04-18T14:14:27.993Z</time></trkpt><trkpt lat="44.2778617" lon="11.7906483"><ele>194.5</ele><time>2026-04-18T14:14:28.993Z</time></trkpt><trkpt lat="44.277755" lon="11.7905683"><ele>195.75</ele><time>2026-04-18T14:14:29.992Z</time></trkpt><trkpt lat="44.277645" lon="11.7905"><ele>197.0</ele><time>2026-04-18T14:14:30.993Z</time></trkpt><trkpt lat="44.2775233" lon="11.79044"><ele>197.0</ele><time>2026-04-18T14:14:31.993Z</time></trkpt><trkpt lat="44.2773983" lon="11.79039"><ele>197.0</ele><time>2026-04-18T14:14:32.994Z</time></trkpt><trkpt lat="44.2772683" lon="11.7903333"><ele>197.0</ele><time>2026-04-18T14:14:33.992Z</time></trkpt><trkpt lat="44.2771417" lon="11.7902833"><ele>197.0</ele><time>2026-04-18T14:14:34.994Z</time></trkpt><trkpt lat="44.2770133" lon="11.7902083"><ele>195.25</ele><time>2026-04-18T14:14:35.993Z</time></trkpt><trkpt lat="44.2768917" lon="11.7901117"><ele>193.5</ele><time>2026-04-18T14:14:36.993Z</time></trkpt><trkpt lat="44.2767733" lon="11.7900033"><ele>191.75</ele><time>2026-04-18T14:14:37.995Z</time></trkpt><trkpt lat="44.2766667" lon="11.7898833"><ele>190.0</ele><time>2026-04-18T14:14:38.993Z</time></trkpt><trkpt lat="44.27656" lon="11.78976"><ele>190.0</ele><time>2026-04-18T14:14:39.992Z</time></trkpt><trkpt lat="44.27645" lon="11.7896283"><ele>190.0</ele><time>2026-04-18T14:14:40.992Z</time></trkpt><trkpt lat="44.2763467" lon="11.7894933"><ele>190.0</ele><time>2026-04-18T14:14:41.992Z</time></trkpt><trkpt lat="44.2762517" lon="11.7893767"><ele>190.0</ele><time>2026-04-18T14:14:42.992Z</time></trkpt><trkpt lat="44.27616" lon="11.7892567"><ele>190.0</ele><time>2026-04-18T14:14:43.993Z</time></trkpt><trkpt lat="44.27607" lon="11.7891333"><ele>190.0</ele><time>2026-04-18T14:14:44.993Z</time></trkpt><trkpt lat="44.27598" lon="11.789"><ele>190.0</ele><time>2026-04-18T14:14:45.991Z</time></trkpt><trkpt lat="44.2758833" lon="11.7888633"><ele>190.0</ele><time>2026-04-18T14:14:46.993Z</time></trkpt><trkpt lat="44.27578" lon="11.788725"><ele>190.0</ele><time>2026-04-18T14:14:47.993Z</time></trkpt><trkpt lat="44.2756817" lon="11.788585"><ele>190.0</ele><time>2026-04-18T14:14:48.992Z</time></trkpt><trkpt lat="44.2755783" lon="11.788455"><ele>190.0</ele><time>2026-04-18T14:14:49.993Z</time></trkpt><trkpt lat="44.2754767" lon="11.7883217"><ele>190.0</ele><time>2026-04-18T14:14:50.994Z</time></trkpt><trkpt lat="44.275375" lon="11.788185"><ele>190.5</ele><time>2026-04-18T14:14:51.994Z</time></trkpt><trkpt lat="44.2752733" lon="11.7880517"><ele>191.0</ele><time>2026-04-18T14:14:52.992Z</time></trkpt><trkpt lat="44.2751683" lon="11.7879167"><ele>191.5</ele><time>2026-04-18T14:14:53.992Z</time></trkpt><trkpt lat="44.2750633" lon="11.7877867"><ele>192.0</ele><time>2026-04-18T14:14:54.993Z</time></trkpt><trkpt lat="44.2749583" lon="11.78766"><ele>192.5</ele><time>2026-04-18T14:14:55.992Z</time></trkpt><trkpt lat="44.2748533" lon="11.7875367"><ele>193.0</ele><time>2026-04-18T14:14:56.994Z</time></trkpt><trkpt lat="44.2747517" lon="11.7874083"><ele>193.5</ele><time>2026-04-18T14:14:57.992Z</time></trkpt><trkpt lat="44.274655" lon="11.787275"><ele>194.0</ele><time>2026-04-18T14:14:58.992Z</time></trkpt><trkpt lat="44.2745617" lon="11.7871333"><ele>194.5</ele><time>2026-04-18T14:14:59.993Z</time></trkpt><trkpt lat="44.2744733" lon="11.78699"><ele>195.0</ele><time>2026-04-18T14:15:00.998Z</time></trkpt><trkpt lat="44.27438" lon="11.786855"><ele>195.5</ele><time>2026-04-18T14:15:01.992Z</time></trkpt><trkpt lat="44.2742767" lon="11.786735"><ele>196.0</ele><time>2026-04-18T14:15:02.993Z</time></trkpt><trkpt lat="44.27417" lon="11.7866317"><ele>196.5</ele><time>2026-04-18T14:15:03.992Z</time></trkpt><trkpt lat="44.2740633" lon="11.78653"><ele>197.0</ele><time>2026-04-18T14:15:04.993Z</time></trkpt><trkpt lat="44.2739683" lon="11.786415"><ele>197.5</ele><time>2026-04-18T14:15:05.993Z</time></trkpt><trkpt lat="44.2738733" lon="11.7862917"><ele>198.0</ele><time>2026-04-18T14:15:06.993Z</time></trkpt><trkpt lat="44.273785" lon="11.7861583"><ele>198.0</ele><time>2026-04-18T14:15:07.993Z</time></trkpt><trkpt lat="44.2737067" lon="11.7860217"><ele>198.0</ele><time>2026-04-18T14:15:08.994Z</time></trkpt><trkpt lat="44.273625" lon="11.785885"><ele>198.0</ele><time>2026-04-18T14:15:09.993Z</time></trkpt><trkpt lat="44.2735383" lon="11.785745"><ele>198.0</ele><time>2026-04-18T14:15:10.992Z</time></trkpt><trkpt lat="44.2734517" lon="11.7855967"><ele>197.66666666666669</ele><time>2026-04-18T14:15:11.993Z</time></trkpt><trkpt lat="44.27336" lon="11.78544"><ele>197.33333333333334</ele><time>2026-04-18T14:15:12.992Z</time></trkpt><trkpt lat="44.2732667" lon="11.78527"><ele>197.0</ele><time>2026-04-18T14:15:13.992Z</time></trkpt><trkpt lat="44.2731717" lon="11.785105"><ele>196.5</ele><time>2026-04-18T14:15:14.993Z</time></trkpt><trkpt lat="44.2730817" lon="11.784945"><ele>196.0</ele><time>2026-04-18T14:15:15.993Z</time></trkpt><trkpt lat="44.2729933" lon="11.7847867"><ele>195.5</ele><time>2026-04-18T14:15:16.994Z</time></trkpt><trkpt lat="44.2729017" lon="11.7846283"><ele>195.0</ele><time>2026-04-18T14:15:17.993Z</time></trkpt><trkpt lat="44.2728117" lon="11.78447"><ele>196.75</ele><time>2026-04-18T14:15:18.993Z</time></trkpt><trkpt lat="44.2727133" lon="11.7843167"><ele>198.5</ele><time>2026-04-18T14:15:19.993Z</time></trkpt><trkpt lat="44.2726167" lon="11.7841667"><ele>200.25</ele><time>2026-04-18T14:15:20.994Z</time></trkpt><trkpt lat="44.272525" lon="11.7840233"><ele>202.0</ele><time>2026-04-18T14:15:21.992Z</time></trkpt><trkpt lat="44.2724517" lon="11.7838767"><ele>202.0</ele><time>2026-04-18T14:15:22.993Z</time></trkpt><trkpt lat="44.2723817" lon="11.78373"><ele>202.0</ele><time>2026-04-18T14:15:23.992Z</time></trkpt><trkpt lat="44.272305" lon="11.783585"><ele>202.0</ele><time>2026-04-18T14:15:24.993Z</time></trkpt><trkpt lat="44.2722183" lon="11.7834383"><ele>202.0</ele><time>2026-04-18T14:15:25.992Z</time></trkpt><trkpt lat="44.2721317" lon="11.7832917"><ele>202.5</ele><time>2026-04-18T14:15:26.994Z</time></trkpt><trkpt lat="44.2720533" lon="11.7831417"><ele>203.0</ele><time>2026-04-18T14:15:27.992Z</time></trkpt><trkpt lat="44.2719783" lon="11.7829867"><ele>203.5</ele><time>2026-04-18T14:15:28.992Z</time></trkpt><trkpt lat="44.2719017" lon="11.78284"><ele>204.0</ele><time>2026-04-18T14:15:29.992Z</time></trkpt><trkpt lat="44.27182" lon="11.78269"><ele>206.0</ele><time>2026-04-18T14:15:30.993Z</time></trkpt><trkpt lat="44.27174" lon="11.7825483"><ele>208.0</ele><time>2026-04-18T14:15:31.994Z</time></trkpt><trkpt lat="44.2716667" lon="11.7824233"><ele>210.0</ele><time>2026-04-18T14:15:32.993Z</time></trkpt><trkpt lat="44.2715817" lon="11.7823183"><ele>212.0</ele><time>2026-04-18T14:15:33.993Z</time></trkpt><trkpt lat="44.2714833" lon="11.782225"><ele>207.5</ele><time>2026-04-18T14:15:34.993Z</time></trkpt><trkpt lat="44.271375" lon="11.782135"><ele>203.0</ele><time>2026-04-18T14:15:35.992Z</time></trkpt><trkpt lat="44.2739683" lon="11.786415"><ele>203.25</ele><time>2026-04-18T14:15:05.993Z</time></trkpt><trkpt lat="44.2738733" lon="11.7862917"><ele>203.5</ele><time>2026-04-18T14:15:06.993Z</time></trkpt><trkpt lat="44.273785" lon="11.7861583"><ele>203.75</ele><time>2026-04-18T14:15:07.993Z</time></trkpt><trkpt lat="44.2737067" lon="11.7860217"><ele>204.0</ele><time>2026-04-18T14:15:08.994Z</time></trkpt><trkpt lat="44.273625" lon="11.785885"><ele>204.0</ele><time>2026-04-18T14:15:09.993Z</time></trkpt><trkpt lat="44.2735383" lon="11.785745"><ele>204.0</ele><time>2026-04-18T14:15:10.992Z</time></trkpt><trkpt lat="44.2734517" lon="11.7855967"><ele>204.0</ele><time>2026-04-18T14:15:11.993Z</time></trkpt><trkpt lat="44.27336" lon="11.78544"><ele>204.0</ele><time>2026-04-18T14:15:12.992Z</time></trkpt><trkpt lat="44.2732667" lon="11.78527"><ele>202.25</ele><time>2026-04-18T14:15:13.992Z</time></trkpt><trkpt lat="44.2731717" lon="11.785105"><ele>200.5</ele><time>2026-04-18T14:15:14.993Z</time></trkpt><trkpt lat="44.2730817" lon="11.784945"><ele>198.75</ele><time>2026-04-18T14:15:15.993Z</time></trkpt><trkpt lat="44.2729933" lon="11.7847867"><ele>197.0</ele><time>2026-04-18T14:15:16.994Z</time></trkpt><trkpt lat="44.2729017" lon="11.7846283"><ele>196.5</ele><time>2026-04-18T14:15:17.993Z</time></trkpt><trkpt lat="44.2728117" lon="11.78447"><ele>196.0</ele><time>2026-04-18T14:15:18.993Z</time></trkpt><trkpt lat="44.2727133" lon="11.7843167"><ele>195.5</ele><time>2026-04-18T14:15:19.993Z</time></trkpt><trkpt lat="44.2726167" lon="11.7841667"><ele>195.0</ele><time>2026-04-18T14:15:20.994Z</time></trkpt><trkpt lat="44.272525" lon="11.7840233"><ele>196.75</ele><time>2026-04-18T14:15:21.992Z</time></trkpt><trkpt lat="44.2724517" lon="11.7838767"><ele>198.5</ele><time>2026-04-18T14:15:22.993Z</time></trkpt><trkpt lat="44.2723817" lon="11.78373"><ele>200.25</ele><time>2026-04-18T14:15:23.992Z</time></trkpt><trkpt lat="44.272305" lon="11.783585"><ele>202.0</ele><time>2026-04-18T14:15:24.993Z</time></trkpt><trkpt lat="44.2722183" lon="11.7834383"><ele>202.5</ele><time>2026-04-18T14:15:25.992Z</time></trkpt><trkpt lat="44.2721317" lon="11.7832917"><ele>203.0</ele><time>2026-04-18T14:15:26.994Z</time></trkpt><trkpt lat="44.2720533" lon="11.7831417"><ele>203.5</ele><time>2026-04-18T14:15:27.992Z</time></trkpt><trkpt lat="44.2719783" lon="11.7829867"><ele>204.0</ele><time>2026-04-18T14:15:28.992Z</time></trkpt><trkpt lat="44.2719017" lon="11.78284"><ele>204.0</ele><time>2026-04-18T14:15:29.992Z</time></trkpt><trkpt lat="44.27182" lon="11.78269"><ele>204.0</ele><time>2026-04-18T14:15:30.993Z</time></trkpt><trkpt lat="44.27174" lon="11.7825483"><ele>204.0</ele><time>2026-04-18T14:15:31.994Z</time></trkpt><trkpt lat="44.2716667" lon="11.7824233"><ele>204.0</ele><time>2026-04-18T14:15:32.993Z</time></trkpt><trkpt lat="44.2715817" lon="11.7823183"><ele>203.75</ele><time>2026-04-18T14:15:33.993Z</time></trkpt><trkpt lat="44.2714833" lon="11.782225"><ele>203.5</ele><time>2026-04-18T14:15:34.993Z</time></trkpt><trkpt lat="44.271375" lon="11.782135"><ele>203.25</ele><time>2026-04-18T14:15:35.992Z</time></trkpt><trkpt lat="44.27126" lon="11.7820417"><ele>203.0</ele><time>2026-04-18T14:15:36.997Z</time></trkpt><trkpt lat="44.27115" lon="11.781955"><ele>203.0</ele><time>2026-04-18T14:15:37.992Z</time></trkpt><trkpt lat="44.2710417" lon="11.7818667"><ele>203.0</ele><time>2026-04-18T14:15:38.994Z</time></trkpt><trkpt lat="44.2709367" lon="11.7817717"><ele>203.0</ele><time>2026-04-18T14:15:39.992Z</time></trkpt><trkpt lat="44.2708467" lon="11.78167"><ele>203.0</ele><time>2026-04-18T14:15:40.992Z</time></trkpt><trkpt lat="44.27076" lon="11.78156"><ele>201.75</ele><time>2026-04-18T14:15:41.994Z</time></trkpt><trkpt lat="44.2706767" lon="11.7814383"><ele>200.5</ele><time>2026-04-18T14:15:42.993Z</time></trkpt><trkpt lat="44.27059" lon="11.7813083"><ele>199.25</ele><time>2026-04-18T14:15:43.992Z</time></trkpt><trkpt lat="44.2704983" lon="11.7811667"><ele>198.0</ele><time>2026-04-18T14:15:44.993Z</time></trkpt><trkpt lat="44.2704067" lon="11.7810167"><ele>201.75</ele><time>2026-04-18T14:15:45.994Z</time></trkpt><trkpt lat="44.270315" lon="11.7808783"><ele>205.5</ele><time>2026-04-18T14:15:46.992Z</time></trkpt><trkpt lat="44.2702267" lon="11.7807567"><ele>209.25</ele><time>2026-04-18T14:15:47.993Z</time></trkpt><trkpt lat="44.2701467" lon="11.78064"><ele>213.0</ele><time>2026-04-18T14:15:48.993Z</time></trkpt><trkpt lat="44.2700783" lon="11.78053"><ele>213.0</ele><time>2026-04-18T14:15:49.995Z</time></trkpt><trkpt lat="44.2700167" lon="11.7804317"><ele>213.0</ele><time>2026-04-18T14:15:50.994Z</time></trkpt><trkpt lat="44.2699517" lon="11.780355"><ele>213.0</ele><time>2026-04-18T14:15:51.994Z</time></trkpt><trkpt lat="44.2698833" lon="11.7803033"><ele>213.0</ele><time>2026-04-18T14:15:52.993Z</time></trkpt><trkpt lat="44.2698033" lon="11.7802533"><ele>213.0</ele><time>2026-04-18T14:15:53.993Z</time></trkpt><trkpt lat="44.2697167" lon="11.780195"><ele>213.0</ele><time>2026-04-18T14:15:54.992Z</time></trkpt><trkpt lat="44.269625" lon="11.7801433"><ele>213.0</ele><time>2026-04-18T14:15:55.992Z</time></trkpt><trkpt lat="44.2695217" lon="11.7800917"><ele>213.0</ele><time>2026-04-18T14:15:56.993Z</time></trkpt><trkpt lat="44.2694183" lon="11.7800317"><ele>213.0</ele><time>2026-04-18T14:15:57.992Z</time></trkpt><trkpt lat="44.269315" lon="11.7799633"><ele>213.0</ele><time>2026-04-18T14:15:58.994Z</time></trkpt><trkpt lat="44.2692083" lon="11.7798933"><ele>213.0</ele><time>2026-04-18T14:15:59.992Z</time></trkpt><trkpt lat="44.2691" lon="11.77983"><ele>213.0</ele><time>2026-04-18T14:16:00.992Z</time></trkpt><trkpt lat="44.2689883" lon="11.7797583"><ele>213.0</ele><time>2026-04-18T14:16:01.992Z</time></trkpt><trkpt lat="44.26887" lon="11.779685"><ele>213.0</ele><time>2026-04-18T14:16:02.992Z</time></trkpt><trkpt lat="44.2687483" lon="11.7796167"><ele>215.25</ele><time>2026-04-18T14:16:03.992Z</time></trkpt><trkpt lat="44.268625" lon="11.7795533"><ele>217.5</ele><time>2026-04-18T14:16:04.993Z</time></trkpt><trkpt lat="44.2685083" lon="11.7794817"><ele>219.75</ele><time>2026-04-18T14:16:05.993Z</time></trkpt><trkpt lat="44.2683883" lon="11.77941"><ele>222.0</ele><time>2026-04-18T14:16:06.992Z</time></trkpt><trkpt lat="44.26827" lon="11.7793367"><ele>222.0</ele><time>2026-04-18T14:16:07.993Z</time></trkpt><trkpt lat="44.2681517" lon="11.7792617"><ele>222.0</ele><time>2026-04-18T14:16:08.992Z</time></trkpt><trkpt lat="44.268035" lon="11.7791883"><ele>222.0</ele><time>2026-04-18T14:16:09.992Z</time></trkpt><trkpt lat="44.26793" lon="11.7791317"><ele>222.0</ele><time>2026-04-18T14:16:10.993Z</time></trkpt><trkpt lat="44.2678533" lon="11.7790917"><ele>221.0</ele><time>2026-04-18T14:16:11.994Z</time></trkpt><trkpt lat="44.2677867" lon="11.77907"><ele>220.0</ele><time>2026-04-18T14:16:12.992Z</time></trkpt><trkpt lat="44.2677233" lon="11.77905"><ele>219.0</ele><time>2026-04-18T14:16:13.993Z</time></trkpt><trkpt lat="44.2676083" lon="11.7790083"><ele>218.0</ele><time>2026-04-18T14:16:15.993Z</time></trkpt><trkpt lat="44.2675433" lon="11.77898"><ele>217.0</ele><time>2026-04-18T14:16:16.993Z</time></trkpt><trkpt lat="44.267475" lon="11.77894"><ele>216.0</ele><time>2026-04-18T14:16:17.992Z</time></trkpt><trkpt lat="44.2674033" lon="11.7788883"><ele>216.0</ele><time>2026-04-18T14:16:18.993Z</time></trkpt><trkpt lat="44.2673233" lon="11.7788317"><ele>216.00000000000003</ele><time>2026-04-18T14:16:19.992Z</time></trkpt><trkpt lat="44.2672417" lon="11.778765"><ele>216.00000000000003</ele><time>2026-04-18T14:16:20.993Z</time></trkpt><trkpt lat="44.2671583" lon="11.7786883"><ele>216.0</ele><time>2026-04-18T14:16:21.992Z</time></trkpt><trkpt lat="44.2670717" lon="11.7786083"><ele>216.0</ele><time>2026-04-18T14:16:22.993Z</time></trkpt><trkpt lat="44.2669817" lon="11.7785233"><ele>217.0</ele><time>2026-04-18T14:16:23.992Z</time></trkpt><trkpt lat="44.266895" lon="11.7784283"><ele>218.00000000000003</ele><time>2026-04-18T14:16:24.994Z</time></trkpt><trkpt lat="44.2668117" lon="11.7783267"><ele>219.00000000000003</ele><time>2026-04-18T14:16:25.992Z</time></trkpt><trkpt lat="44.266725" lon="11.778225"><ele>220.0</ele><time>2026-04-18T14:16:26.993Z</time></trkpt><trkpt lat="44.2666417" lon="11.7781183"><ele>221.0</ele><time>2026-04-18T14:16:27.993Z</time></trkpt><trkpt lat="44.2665567" lon="11.7780167"><ele>221.0</ele><time>2026-04-18T14:16:28.992Z</time></trkpt><trkpt lat="44.2664733" lon="11.77792"><ele>221.00000000000003</ele><time>2026-04-18T14:16:29.993Z</time></trkpt><trkpt lat="44.26639" lon="11.7778333"><ele>221.00000000000003</ele><time>2026-04-18T14:16:30.992Z</time></trkpt><trkpt lat="44.2663117" lon="11.7777517"><ele>221.0</ele><time>2026-04-18T14:16:31.992Z</time></trkpt><trkpt lat="44.2662267" lon="11.7776783"><ele>221.0</ele><time>2026-04-18T14:16:32.992Z</time></trkpt><trkpt lat="44.2661383" lon="11.7776283"><ele>219.83333333333334</ele><time>2026-04-18T14:16:33.993Z</time></trkpt><trkpt lat="44.2660417" lon="11.7775983"><ele>218.66666666666669</ele><time>2026-04-18T14:16:34.992Z</time></trkpt><trkpt lat="44.2659483" lon="11.7775717"><ele>217.5</ele><time>2026-04-18T14:16:35.992Z</time></trkpt><trkpt lat="44.26586" lon="11.7775433"><ele>216.33333333333331</ele><time>2026-04-18T14:16:36.992Z</time></trkpt><trkpt lat="44.26578" lon="11.7775233"><ele>215.16666666666666</ele><time>2026-04-18T14:16:37.992Z</time></trkpt><trkpt lat="44.2657" lon="11.7775183"><ele>214.0</ele><time>2026-04-18T14:16:38.995Z</time></trkpt><trkpt lat="44.2656167" lon="11.7775333"><ele>212.79999999999998</ele><time>2026-04-18T14:16:39.994Z</time></trkpt><trkpt lat="44.26553" lon="11.777575"><ele>211.59999999999997</ele><time>2026-04-18T14:16:40.992Z</time></trkpt><trkpt lat="44.2654367" lon="11.777635"><ele>210.4</ele><time>2026-04-18T14:16:41.992Z</time></trkpt><trkpt lat="44.26534" lon="11.77771"><ele>209.2</ele><time>2026-04-18T14:16:42.992Z</time></trkpt><trkpt lat="44.2652417" lon="11.7777983"><ele>208.0</ele><time>2026-04-18T14:16:43.993Z</time></trkpt><trkpt lat="44.26515" lon="11.7778767"><ele>208.0</ele><time>2026-04-18T14:16:44.994Z</time></trkpt><trkpt lat="44.2650717" lon="11.777925"><ele>208.0</ele><time>2026-04-18T14:16:45.994Z</time></trkpt><trkpt lat="44.2649933" lon="11.7779517"><ele>208.0</ele><time>2026-04-18T14:16:46.992Z</time></trkpt><trkpt lat="44.2649083" lon="11.7779817"><ele>208.0</ele><time>2026-04-18T14:16:47.992Z</time></trkpt><trkpt lat="44.264815" lon="11.7780283"><ele>208.0</ele><time>2026-04-18T14:16:48.993Z</time></trkpt><trkpt lat="44.2647183" lon="11.7781"><ele>208.0</ele><time>2026-04-18T14:16:49.992Z</time></trkpt><trkpt lat="44.26463" lon="11.778185"><ele>208.0</ele><time>2026-04-18T14:16:50.994Z</time></trkpt><trkpt lat="44.2645383" lon="11.7782667"><ele>208.0</ele><time>2026-04-18T14:16:51.992Z</time></trkpt><trkpt lat="44.26444" lon="11.77833"><ele>208.0</ele><time>2026-04-18T14:16:52.993Z</time></trkpt><trkpt lat="44.264335" lon="11.778385"><ele>208.0</ele><time>2026-04-18T14:16:53.992Z</time></trkpt><trkpt lat="44.2642367" lon="11.77844"><ele>208.0</ele><time>2026-04-18T14:16:54.992Z</time></trkpt><trkpt lat="44.2641433" lon="11.7784967"><ele>208.0</ele><time>2026-04-18T14:16:55.993Z</time></trkpt><trkpt lat="44.2640533" lon="11.7785567"><ele>208.0</ele><time>2026-04-18T14:16:56.994Z</time></trkpt><trkpt lat="44.2639517" lon="11.7786117"><ele>208.0</ele><time>2026-04-18T14:16:57.992Z</time></trkpt><trkpt lat="44.2638433" lon="11.77867"><ele>208.0</ele><time>2026-04-18T14:16:58.993Z</time></trkpt><trkpt lat="44.2637267" lon="11.778735"><ele>206.5</ele><time>2026-04-18T14:16:59.992Z</time></trkpt><trkpt lat="44.263605" lon="11.7787967"><ele>205.0</ele><time>2026-04-18T14:17:00.992Z</time></trkpt><trkpt lat="44.2634867" lon="11.7788617"><ele>203.5</ele><time>2026-04-18T14:17:01.992Z</time></trkpt><trkpt lat="44.2633717" lon="11.7789233"><ele>202.0</ele><time>2026-04-18T14:17:02.993Z</time></trkpt><trkpt lat="44.2632567" lon="11.77898"><ele>202.0</ele><time>2026-04-18T14:17:03.992Z</time></trkpt><trkpt lat="44.2631483" lon="11.779035"><ele>202.0</ele><time>2026-04-18T14:17:04.992Z</time></trkpt><trkpt lat="44.2630517" lon="11.7790867"><ele>202.0</ele><time>2026-04-18T14:17:05.993Z</time></trkpt><trkpt lat="44.2629733" lon="11.7791367"><ele>202.0</ele><time>2026-04-18T14:17:06.993Z</time></trkpt><trkpt lat="44.2629167" lon="11.779195"><ele>202.0</ele><time>2026-04-18T14:17:07.993Z</time></trkpt><trkpt lat="44.2628633" lon="11.77936"><ele>197.83333333333331</ele><time>2026-04-18T14:17:09.992Z</time></trkpt><trkpt lat="44.2628567" lon="11.7794717"><ele>193.66666666666666</ele><time>2026-04-18T14:17:10.992Z</time></trkpt><trkpt lat="44.26285" lon="11.7795883"><ele>189.5</ele><time>2026-04-18T14:17:11.993Z</time></trkpt><trkpt lat="44.2628417" lon="11.7797017"><ele>185.33333333333331</ele><time>2026-04-18T14:17:12.992Z</time></trkpt><trkpt lat="44.26282" lon="11.7798083"><ele>181.16666666666666</ele><time>2026-04-18T14:17:13.992Z</time></trkpt><trkpt lat="44.26279" lon="11.7799267"><ele>177.0</ele><time>2026-04-18T14:17:14.992Z</time></trkpt><trkpt lat="44.2627667" lon="11.7800567"><ele>177.6</ele><time>2026-04-18T14:17:15.993Z</time></trkpt><trkpt lat="44.2627467" lon="11.7801967"><ele>178.2</ele><time>2026-04-18T14:17:16.994Z</time></trkpt><trkpt lat="44.262735" lon="11.7803417"><ele>178.8</ele><time>2026-04-18T14:17:17.993Z</time></trkpt><trkpt lat="44.2627333" lon="11.7804867"><ele>179.4</ele><time>2026-04-18T14:17:18.992Z</time></trkpt><trkpt lat="44.262735" lon="11.7806333"><ele>180.0</ele><time>2026-04-18T14:17:19.994Z</time></trkpt><trkpt lat="44.2627383" lon="11.7807883"><ele>180.0</ele><time>2026-04-18T14:17:20.993Z</time></trkpt><trkpt lat="44.2627483" lon="11.7809467"><ele>180.0</ele><time>2026-04-18T14:17:21.993Z</time></trkpt><trkpt lat="44.2627583" lon="11.7811067"><ele>180.0</ele><time>2026-04-18T14:17:22.992Z</time></trkpt><trkpt lat="44.2627733" lon="11.7812533"><ele>180.0</ele><time>2026-04-18T14:17:23.992Z</time></trkpt><trkpt lat="44.2628" lon="11.7813917"><ele>180.0</ele><time>2026-04-18T14:17:24.995Z</time></trkpt><trkpt lat="44.2628367" lon="11.7815367"><ele>182.75</ele><time>2026-04-18T14:17:25.993Z</time></trkpt><trkpt lat="44.2628767" lon="11.7816817"><ele>185.5</ele><time>2026-04-18T14:17:26.993Z</time></trkpt><trkpt lat="44.2629183" lon="11.7818267"><ele>188.25</ele><time>2026-04-18T14:17:27.992Z</time></trkpt><trkpt lat="44.2629617" lon="11.7819833"><ele>191.0</ele><time>2026-04-18T14:17:28.993Z</time></trkpt><trkpt lat="44.2630033" lon="11.7821367"><ele>194.0</ele><time>2026-04-18T14:17:29.992Z</time></trkpt><trkpt lat="44.2630433" lon="11.7822917"><ele>197.0</ele><time>2026-04-18T14:17:30.993Z</time></trkpt><trkpt lat="44.26309" lon="11.7824467"><ele>200.0</ele><time>2026-04-18T14:17:31.992Z</time></trkpt><trkpt lat="44.2631417" lon="11.782595"><ele>203.0</ele><time>2026-04-18T14:17:32.992Z</time></trkpt><trkpt lat="44.263195" lon="11.7827417"><ele>204.8</ele><time>2026-04-18T14:17:33.993Z</time></trkpt><trkpt lat="44.2632433" lon="11.7828817"><ele>206.60000000000002</ele><time>2026-04-18T14:17:34.993Z</time></trkpt><trkpt lat="44.26328" lon="11.783005"><ele>208.39999999999998</ele><time>2026-04-18T14:17:35.993Z</time></trkpt><trkpt lat="44.26331" lon="11.7831233"><ele>210.2</ele><time>2026-04-18T14:17:36.992Z</time></trkpt><trkpt lat="44.2633367" lon="11.7832533"><ele>212.0</ele><time>2026-04-18T14:17:37.992Z</time></trkpt><trkpt lat="44.2633567" lon="11.7833933"><ele>212.25</ele><time>2026-04-18T14:17:38.992Z</time></trkpt><trkpt lat="44.26337" lon="11.78355"><ele>212.5</ele><time>2026-04-18T14:17:39.992Z</time></trkpt><trkpt lat="44.26338" lon="11.7837167"><ele>212.75</ele><time>2026-04-18T14:17:40.993Z</time></trkpt><trkpt lat="44.2633883" lon="11.7838783"><ele>213.0</ele><time>2026-04-18T14:17:41.993Z</time></trkpt><trkpt lat="44.2633967" lon="11.7840417"><ele>213.0</ele><time>2026-04-18T14:17:42.993Z</time></trkpt><trkpt lat="44.2634083" lon="11.7842067"><ele>213.0</ele><time>2026-04-18T14:17:43.993Z</time></trkpt><trkpt lat="44.26342" lon="11.784375"><ele>213.0</ele><time>2026-04-18T14:17:44.992Z</time></trkpt><trkpt lat="44.2634317" lon="11.7845417"><ele>213.0</ele><time>2026-04-18T14:17:45.992Z</time></trkpt><trkpt lat="44.2634417" lon="11.7847117"><ele>214.25</ele><time>2026-04-18T14:17:46.993Z</time></trkpt><trkpt lat="44.2634533" lon="11.7848817"><ele>215.5</ele><time>2026-04-18T14:17:47.993Z</time></trkpt><trkpt lat="44.263475" lon="11.7850517"><ele>216.75</ele><time>2026-04-18T14:17:48.994Z</time></trkpt><trkpt lat="44.2635017" lon="11.785225"><ele>218.0</ele><time>2026-04-18T14:17:49.993Z</time></trkpt><trkpt lat="44.263535" lon="11.7854033"><ele>219.75</ele><time>2026-04-18T14:17:50.993Z</time></trkpt><trkpt lat="44.2635767" lon="11.7855767"><ele>221.5</ele><time>2026-04-18T14:17:51.992Z</time></trkpt><trkpt lat="44.2636167" lon="11.7857533"><ele>223.25</ele><time>2026-04-18T14:17:52.993Z</time></trkpt><trkpt lat="44.2636617" lon="11.7859133"><ele>225.0</ele><time>2026-04-18T14:17:53.993Z</time></trkpt><trkpt lat="44.2637017" lon="11.7860617"><ele>225.0</ele><time>2026-04-18T14:17:54.994Z</time></trkpt><trkpt lat="44.2637367" lon="11.7861933"><ele>225.0</ele><time>2026-04-18T14:17:55.993Z</time></trkpt><trkpt lat="44.2637683" lon="11.7863167"><ele>225.0</ele><time>2026-04-18T14:17:56.993Z</time></trkpt><trkpt lat="44.2638017" lon="11.7864283"><ele>225.0</ele><time>2026-04-18T14:17:57.992Z</time></trkpt><trkpt lat="44.26383" lon="11.78654"><ele>225.0</ele><time>2026-04-18T14:17:58.993Z</time></trkpt><trkpt lat="44.2638533" lon="11.786635"><ele>225.0</ele><time>2026-04-18T14:17:59.992Z</time></trkpt><trkpt lat="44.2638933" lon="11.7867817"><ele>222.2</ele><time>2026-04-18T14:18:01.992Z</time></trkpt><trkpt lat="44.2639533" lon="11.78693"><ele>219.4</ele><time>2026-04-18T14:18:03.993Z</time></trkpt><trkpt lat="44.263995" lon="11.7870433"><ele>216.60000000000002</ele><time>2026-04-18T14:18:04.994Z</time></trkpt><trkpt lat="44.264035" lon="11.787175"><ele>213.8</ele><time>2026-04-18T14:18:05.992Z</time></trkpt><trkpt lat="44.2640833" lon="11.7873183"><ele>211.0</ele><time>2026-04-18T14:18:06.992Z</time></trkpt><trkpt lat="44.26414" lon="11.787475"><ele>211.0</ele><time>2026-04-18T14:18:07.994Z</time></trkpt><trkpt lat="44.264205" lon="11.78764"><ele>211.0</ele><time>2026-04-18T14:18:08.993Z</time></trkpt><trkpt lat="44.26427" lon="11.7878133"><ele>211.0</ele><time>2026-04-18T14:18:09.994Z</time></trkpt><trkpt lat="44.2643317" lon="11.7879983"><ele>211.0</ele><time>2026-04-18T14:18:10.993Z</time></trkpt><trkpt lat="44.2643967" lon="11.788185"><ele>208.66666666666666</ele><time>2026-04-18T14:18:11.993Z</time></trkpt><trkpt lat="44.264465" lon="11.7883733"><ele>206.33333333333331</ele><time>2026-04-18T14:18:12.994Z</time></trkpt><trkpt lat="44.2645367" lon="11.78856"><ele>204.0</ele><time>2026-04-18T14:18:13.993Z</time></trkpt><trkpt lat="44.2646133" lon="11.7887533"><ele>203.75</ele><time>2026-04-18T14:18:14.993Z</time></trkpt><trkpt lat="44.2646933" lon="11.788945"><ele>203.5</ele><time>2026-04-18T14:18:15.993Z</time></trkpt><trkpt lat="44.2647783" lon="11.7891133"><ele>203.25</ele><time>2026-04-18T14:18:16.993Z</time></trkpt><trkpt lat="44.2648683" lon="11.789265"><ele>203.0</ele><time>2026-04-18T14:18:17.992Z</time></trkpt><trkpt lat="44.26497" lon="11.7894067"><ele>204.25</ele><time>2026-04-18T14:18:18.993Z</time></trkpt><trkpt lat="44.26508" lon="11.7895417"><ele>205.5</ele><time>2026-04-18T14:18:19.992Z</time></trkpt><trkpt lat="44.2651867" lon="11.7896783"><ele>206.75</ele><time>2026-04-18T14:18:20.994Z</time></trkpt><trkpt lat="44.2652967" lon="11.7898167"><ele>208.0</ele><time>2026-04-18T14:18:21.994Z</time></trkpt><trkpt lat="44.2654083" lon="11.78995"><ele>208.0</ele><time>2026-04-18T14:18:22.993Z</time></trkpt><trkpt lat="44.2655317" lon="11.79007"><ele>208.0</ele><time>2026-04-18T14:18:23.993Z</time></trkpt><trkpt lat="44.2656617" lon="11.7901717"><ele>208.0</ele><time>2026-04-18T14:18:24.994Z</time></trkpt><trkpt lat="44.265795" lon="11.7902617"><ele>208.0</ele><time>2026-04-18T14:18:25.992Z</time></trkpt><trkpt lat="44.2659333" lon="11.7903533"><ele>209.66666666666666</ele><time>2026-04-18T14:18:26.993Z</time></trkpt><trkpt lat="44.2660717" lon="11.7904467"><ele>211.33333333333331</ele><time>2026-04-18T14:18:27.993Z</time></trkpt><trkpt lat="44.2662083" lon="11.7905417"><ele>213.0</ele><time>2026-04-18T14:18:28.992Z</time></trkpt><trkpt lat="44.2663417" lon="11.7906317"><ele>213.0</ele><time>2026-04-18T14:18:29.993Z</time></trkpt><trkpt lat="44.26648" lon="11.7907333"><ele>213.0</ele><time>2026-04-18T14:18:30.993Z</time></trkpt><trkpt lat="44.2666133" lon="11.7908233"><ele>213.0</ele><time>2026-04-18T14:18:31.994Z</time></trkpt><trkpt lat="44.2667367" lon="11.790905"><ele>213.0</ele><time>2026-04-18T14:18:32.993Z</time></trkpt><trkpt lat="44.2668483" lon="11.7909733"><ele>213.25</ele><time>2026-04-18T14:18:33.994Z</time></trkpt><trkpt lat="44.2669567" lon="11.7910483"><ele>213.5</ele><time>2026-04-18T14:18:34.993Z</time></trkpt><trkpt lat="44.2670583" lon="11.7911317"><ele>213.75</ele><time>2026-04-18T14:18:35.993Z</time></trkpt><trkpt lat="44.267145" lon="11.7912417"><ele>214.0</ele><time>2026-04-18T14:18:36.992Z</time></trkpt><trkpt lat="44.267215" lon="11.79137"><ele>214.0</ele><time>2026-04-18T14:18:37.992Z</time></trkpt><trkpt lat="44.267275" lon="11.7915217"><ele>214.0</ele><time>2026-04-18T14:18:38.994Z</time></trkpt><trkpt lat="44.2673417" lon="11.79168"><ele>214.0</ele><time>2026-04-18T14:18:39.993Z</time></trkpt><trkpt lat="44.2674" lon="11.7918483"><ele>214.0</ele><time>2026-04-18T14:18:40.992Z</time></trkpt><trkpt lat="44.2674617" lon="11.7920183"><ele>213.5</ele><time>2026-04-18T14:18:41.993Z</time></trkpt><trkpt lat="44.267535" lon="11.7921667"><ele>213.0</ele><time>2026-04-18T14:18:42.992Z</time></trkpt><trkpt lat="44.267625" lon="11.79231"><ele>212.5</ele><time>2026-04-18T14:18:43.993Z</time></trkpt><trkpt lat="44.2677217" lon="11.7924567"><ele>212.0</ele><time>2026-04-18T14:18:44.994Z</time></trkpt><trkpt lat="44.2678183" lon="11.7925983"><ele>210.0</ele><time>2026-04-18T14:18:45.994Z</time></trkpt><trkpt lat="44.2679167" lon="11.792735"><ele>208.0</ele><time>2026-04-18T14:18:46.993Z</time></trkpt><trkpt lat="44.2680183" lon="11.7928633"><ele>206.0</ele><time>2026-04-18T14:18:47.993Z</time></trkpt><trkpt lat="44.2681267" lon="11.7929783"><ele>204.0</ele><time>2026-04-18T14:18:48.993Z</time></trkpt><trkpt lat="44.2682317" lon="11.7930683"><ele>204.0</ele><time>2026-04-18T14:18:49.992Z</time></trkpt><trkpt lat="44.2683333" lon="11.7931533"><ele>204.0</ele><time>2026-04-18T14:18:50.993Z</time></trkpt><trkpt lat="44.2684233" lon="11.79324"><ele>204.0</ele><time>2026-04-18T14:18:51.991Z</time></trkpt><trkpt lat="44.268495" lon="11.7933133"><ele>204.0</ele><time>2026-04-18T14:18:52.992Z</time></trkpt><trkpt lat="44.26854" lon="11.7933867"><ele>204.0</ele><time>2026-04-18T14:18:53.992Z</time></trkpt><trkpt lat="44.26859" lon="11.7935617"><ele>203.33333333333334</ele><time>2026-04-18T14:18:55.992Z</time></trkpt><trkpt lat="44.268615" lon="11.793655"><ele>202.66666666666669</ele><time>2026-04-18T14:18:56.994Z</time></trkpt><trkpt lat="44.2686417" lon="11.793755"><ele>202.0</ele><time>2026-04-18T14:18:57.994Z</time></trkpt><trkpt lat="44.2686633" lon="11.7938567"><ele>201.33333333333334</ele><time>2026-04-18T14:18:58.993Z</time></trkpt><trkpt lat="44.2686933" lon="11.7939717"><ele>200.66666666666669</ele><time>2026-04-18T14:18:59.992Z</time></trkpt><trkpt lat="44.268725" lon="11.7940967"><ele>200.0</ele><time>2026-04-18T14:19:00.993Z</time></trkpt><trkpt lat="44.2687633" lon="11.7942283"><ele>198.0</ele><time>2026-04-18T14:19:01.992Z</time></trkpt><trkpt lat="44.2688033" lon="11.794375"><ele>196.0</ele><time>2026-04-18T14:19:02.992Z</time></trkpt><trkpt lat="44.2688467" lon="11.7945267"><ele>194.0</ele><time>2026-04-18T14:19:03.992Z</time></trkpt><trkpt lat="44.268895" lon="11.7946717"><ele>192.0</ele><time>2026-04-18T14:19:04.992Z</time></trkpt><trkpt lat="44.26895" lon="11.794815"><ele>192.0</ele><time>2026-04-18T14:19:05.992Z</time></trkpt><trkpt lat="44.26901" lon="11.7949567"><ele>192.0</ele><time>2026-04-18T14:19:06.992Z</time></trkpt><trkpt lat="44.2690733" lon="11.795105"><ele>192.0</ele><time>2026-04-18T14:19:07.993Z</time></trkpt><trkpt lat="44.2691367" lon="11.79526"><ele>192.0</ele><time>2026-04-18T14:19:08.993Z</time></trkpt><trkpt lat="44.2692033" lon="11.795415"><ele>191.25</ele><time>2026-04-18T14:19:09.993Z</time></trkpt><trkpt lat="44.26927" lon="11.795575"><ele>190.5</ele><time>2026-04-18T14:19:10.992Z</time></trkpt><trkpt lat="44.269335" lon="11.79574"><ele>189.75</ele><time>2026-04-18T14:19:11.992Z</time></trkpt><trkpt lat="44.269405" lon="11.7959067"><ele>189.0</ele><time>2026-04-18T14:19:12.993Z</time></trkpt><trkpt lat="44.2694733" lon="11.7960817"><ele>187.25</ele><time>2026-04-18T14:19:13.993Z</time></trkpt><trkpt lat="44.2695417" lon="11.7962517"><ele>185.5</ele><time>2026-04-18T14:19:14.994Z</time></trkpt><trkpt lat="44.2696033" lon="11.79642"><ele>183.75</ele><time>2026-04-18T14:19:15.992Z</time></trkpt><trkpt lat="44.2696633" lon="11.7965867"><ele>182.0</ele><time>2026-04-18T14:19:16.994Z</time></trkpt><trkpt lat="44.269725" lon="11.7967483"><ele>181.25</ele><time>2026-04-18T14:19:17.992Z</time></trkpt><trkpt lat="44.2697867" lon="11.796905"><ele>180.5</ele><time>2026-04-18T14:19:18.996Z</time></trkpt><trkpt lat="44.2698517" lon="11.7970517"><ele>179.75</ele><time>2026-04-18T14:19:19.992Z</time></trkpt><trkpt lat="44.2699183" lon="11.797195"><ele>179.0</ele><time>2026-04-18T14:19:20.993Z</time></trkpt><trkpt lat="44.2699867" lon="11.797335"><ele>179.0</ele><time>2026-04-18T14:19:21.993Z</time></trkpt><trkpt lat="44.2700617" lon="11.7974767"><ele>179.0</ele><time>2026-04-18T14:19:22.992Z</time></trkpt><trkpt lat="44.2701417" lon="11.7976167"><ele>179.0</ele><time>2026-04-18T14:19:23.993Z</time></trkpt><trkpt lat="44.2702267" lon="11.7977567"><ele>179.0</ele><time>2026-04-18T14:19:24.992Z</time></trkpt><trkpt lat="44.27031" lon="11.7979033"><ele>178.5</ele><time>2026-04-18T14:19:25.993Z</time></trkpt><trkpt lat="44.2703967" lon="11.7980517"><ele>178.0</ele><time>2026-04-18T14:19:26.994Z</time></trkpt><trkpt lat="44.2704783" lon="11.7982033"><ele>177.5</ele><time>2026-04-18T14:19:27.993Z</time></trkpt><trkpt lat="44.2705583" lon="11.7983633"><ele>177.0</ele><time>2026-04-18T14:19:28.993Z</time></trkpt><trkpt lat="44.2706317" lon="11.7985267"><ele>178.0</ele><time>2026-04-18T14:19:29.993Z</time></trkpt><trkpt lat="44.2706983" lon="11.7986933"><ele>179.0</ele><time>2026-04-18T14:19:30.994Z</time></trkpt><trkpt lat="44.2707683" lon="11.7988583"><ele>180.0</ele><time>2026-04-18T14:19:31.993Z</time></trkpt><trkpt lat="44.2708517" lon="11.799015"><ele>181.0</ele><time>2026-04-18T14:19:32.993Z</time></trkpt><trkpt lat="44.270945" lon="11.7991633"><ele>181.0</ele><time>2026-04-18T14:19:33.993Z</time></trkpt><trkpt lat="44.2710483" lon="11.7993033"><ele>181.0</ele><time>2026-04-18T14:19:34.993Z</time></trkpt><trkpt lat="44.2711517" lon="11.7994417"><ele>181.0</ele><time>2026-04-18T14:19:35.994Z</time></trkpt><trkpt lat="44.2712483" lon="11.7995767"><ele>181.0</ele><time>2026-04-18T14:19:36.993Z</time></trkpt><trkpt lat="44.271335" lon="11.79971"><ele>181.0</ele><time>2026-04-18T14:19:37.993Z</time></trkpt><trkpt lat="44.2714117" lon="11.7998383"><ele>181.0</ele><time>2026-04-18T14:19:38.992Z</time></trkpt><trkpt lat="44.27148" lon="11.7999633"><ele>181.0</ele><time>2026-04-18T14:19:39.994Z</time></trkpt><trkpt lat="44.27153" lon="11.800085"><ele>181.0</ele><time>2026-04-18T14:19:40.993Z</time></trkpt><trkpt lat="44.27156" lon="11.8002117"><ele>181.0</ele><time>2026-04-18T14:19:41.992Z</time></trkpt><trkpt lat="44.2715867" lon="11.8003533"><ele>181.0</ele><time>2026-04-18T14:19:42.993Z</time></trkpt><trkpt lat="44.27161" lon="11.8005017"><ele>181.0</ele><time>2026-04-18T14:19:43.992Z</time></trkpt><trkpt lat="44.2716317" lon="11.8006417"><ele>181.0</ele><time>2026-04-18T14:19:44.993Z</time></trkpt><trkpt lat="44.2716483" lon="11.80077"><ele>181.0</ele><time>2026-04-18T14:19:45.992Z</time></trkpt><trkpt lat="44.2716617" lon="11.80089"><ele>181.0</ele><time>2026-04-18T14:19:46.993Z</time></trkpt><trkpt lat="44.2716717" lon="11.8009917"><ele>180.8</ele><time>2026-04-18T14:19:47.995Z</time></trkpt><trkpt lat="44.271675" lon="11.8011483"><ele>180.60000000000002</ele><time>2026-04-18T14:19:49.994Z</time></trkpt><trkpt lat="44.2717017" lon="11.80132"><ele>180.4</ele><time>2026-04-18T14:20:26.993Z</time></trkpt><trkpt lat="44.2717717" lon="11.8013467"><ele>180.2</ele><time>2026-04-18T14:20:28.995Z</time></trkpt><trkpt lat="44.271895" lon="11.8014333"><ele>180.0</ele><time>2026-04-18T14:20:30.994Z</time></trkpt><trkpt lat="44.2719717" lon="11.8014967"><ele>180.0</ele><time>2026-04-18T14:20:31.992Z</time></trkpt><trkpt lat="44.2720567" lon="11.8015717"><ele>180.0</ele><time>2026-04-18T14:20:32.994Z</time></trkpt><trkpt lat="44.2721583" lon="11.8016483"><ele>180.0</ele><time>2026-04-18T14:20:33.993Z</time></trkpt><trkpt lat="44.2722667" lon="11.8017383"><ele>180.0</ele><time>2026-04-18T14:20:34.993Z</time></trkpt><trkpt lat="44.2723833" lon="11.8018267"><ele>182.5</ele><time>2026-04-18T14:20:35.993Z</time></trkpt><trkpt lat="44.2725083" lon="11.801895"><ele>185.0</ele><time>2026-04-18T14:20:36.993Z</time></trkpt><trkpt lat="44.2726333" lon="11.8019583"><ele>187.5</ele><time>2026-04-18T14:20:37.993Z</time></trkpt><trkpt lat="44.2727583" lon="11.8020267"><ele>190.0</ele><time>2026-04-18T14:20:38.994Z</time></trkpt><trkpt lat="44.2728717" lon="11.8020917"><ele>190.0</ele><time>2026-04-18T14:20:39.992Z</time></trkpt><trkpt lat="44.2729783" lon="11.8021567"><ele>190.0</ele><time>2026-04-18T14:20:40.993Z</time></trkpt><trkpt lat="44.2730783" lon="11.8022283"><ele>190.0</ele><time>2026-04-18T14:20:41.993Z</time></trkpt><trkpt lat="44.27316" lon="11.8023133"><ele>190.0</ele><time>2026-04-18T14:20:42.993Z</time></trkpt><trkpt lat="44.2732233" lon="11.8024217"><ele>190.0</ele><time>2026-04-18T14:20:43.993Z</time></trkpt><trkpt lat="44.273275" lon="11.80255"><ele>190.25</ele><time>2026-04-18T14:20:44.993Z</time></trkpt><trkpt lat="44.2733267" lon="11.8026983"><ele>190.5</ele><time>2026-04-18T14:20:45.993Z</time></trkpt><trkpt lat="44.2733933" lon="11.8028333"><ele>190.75</ele><time>2026-04-18T14:20:46.992Z</time></trkpt><trkpt lat="44.27347" lon="11.8029583"><ele>191.0</ele><time>2026-04-18T14:20:47.993Z</time></trkpt><trkpt lat="44.2735667" lon="11.8030767"><ele>191.0</ele><time>2026-04-18T14:20:48.994Z</time></trkpt><trkpt lat="44.27368" lon="11.8031767"><ele>191.0</ele><time>2026-04-18T14:20:49.993Z</time></trkpt><trkpt lat="44.2737933" lon="11.8032817"><ele>191.0</ele><time>2026-04-18T14:20:50.993Z</time></trkpt><trkpt lat="44.273915" lon="11.8033833"><ele>191.0</ele><time>2026-04-18T14:20:51.993Z</time></trkpt><trkpt lat="44.2740433" lon="11.8034767"><ele>192.25</ele><time>2026-04-18T14:20:52.993Z</time></trkpt><trkpt lat="44.2741617" lon="11.80357"><ele>193.5</ele><time>2026-04-18T14:20:53.992Z</time></trkpt><trkpt lat="44.2742817" lon="11.8036667"><ele>194.75</ele><time>2026-04-18T14:20:54.993Z</time></trkpt><trkpt lat="44.2744117" lon="11.80376"><ele>196.0</ele><time>2026-04-18T14:20:55.992Z</time></trkpt><trkpt lat="44.27455" lon="11.803845"><ele>196.0</ele><time>2026-04-18T14:20:56.993Z</time></trkpt><trkpt lat="44.27469" lon="11.8039167"><ele>196.0</ele><time>2026-04-18T14:20:57.993Z</time></trkpt><trkpt lat="44.274825" lon="11.8039817"><ele>196.0</ele><time>2026-04-18T14:20:58.993Z</time></trkpt><trkpt lat="44.2749667" lon="11.80404"><ele>196.0</ele><time>2026-04-18T14:20:59.992Z</time></trkpt><trkpt lat="44.275095" lon="11.80409"><ele>191.25</ele><time>2026-04-18T14:21:00.994Z</time></trkpt><trkpt lat="44.2752233" lon="11.8041317"><ele>186.5</ele><time>2026-04-18T14:21:01.993Z</time></trkpt><trkpt lat="44.275345" lon="11.8041733"><ele>181.75</ele><time>2026-04-18T14:21:02.994Z</time></trkpt><trkpt lat="44.2754517" lon="11.8042317"><ele>177.0</ele><time>2026-04-18T14:21:03.992Z</time></trkpt><trkpt lat="44.2755467" lon="11.8042983"><ele>175.8</ele><time>2026-04-18T14:21:04.992Z</time></trkpt><trkpt lat="44.2756233" lon="11.8043767"><ele>174.6</ele><time>2026-04-18T14:21:05.992Z</time></trkpt><trkpt lat="44.27569" lon="11.8044733"><ele>173.4</ele><time>2026-04-18T14:21:06.994Z</time></trkpt><trkpt lat="44.275755" lon="11.8045883"><ele>172.20000000000002</ele><time>2026-04-18T14:21:07.992Z</time></trkpt><trkpt lat="44.27582" lon="11.8047217"><ele>171.0</ele><time>2026-04-18T14:21:08.992Z</time></trkpt><trkpt lat="44.2758883" lon="11.80487"><ele>171.0</ele><time>2026-04-18T14:21:09.992Z</time></trkpt><trkpt lat="44.2759583" lon="11.8050283"><ele>171.0</ele><time>2026-04-18T14:21:10.993Z</time></trkpt><trkpt lat="44.27603" lon="11.80519"><ele>171.0</ele><time>2026-04-18T14:21:11.993Z</time></trkpt><trkpt lat="44.2761017" lon="11.8053617"><ele>171.0</ele><time>2026-04-18T14:21:12.992Z</time></trkpt><trkpt lat="44.27618" lon="11.8055333"><ele>173.33333333333334</ele><time>2026-04-18T14:21:13.993Z</time></trkpt><trkpt lat="44.2762683" lon="11.805705"><ele>175.66666666666669</ele><time>2026-04-18T14:21:14.993Z</time></trkpt><trkpt lat="44.27637" lon="11.80587"><ele>178.0</ele><time>2026-04-18T14:21:15.992Z</time></trkpt><trkpt lat="44.27647" lon="11.8060267"><ele>174.25</ele><time>2026-04-18T14:21:16.992Z</time></trkpt><trkpt lat="44.276565" lon="11.80617"><ele>170.5</ele><time>2026-04-18T14:21:17.994Z</time></trkpt><trkpt lat="44.2766517" lon="11.8063033"><ele>166.75</ele><time>2026-04-18T14:21:18.992Z</time></trkpt><trkpt lat="44.2767217" lon="11.8064367"><ele>163.0</ele><time>2026-04-18T14:21:19.994Z</time></trkpt><trkpt lat="44.2767617" lon="11.8065833"><ele>163.0</ele><time>2026-04-18T14:21:20.993Z</time></trkpt><trkpt lat="44.276775" lon="11.8067533"><ele>163.0</ele><time>2026-04-18T14:21:21.993Z</time></trkpt><trkpt lat="44.2767583" lon="11.806935"><ele>163.0</ele><time>2026-04-18T14:21:22.993Z</time></trkpt><trkpt lat="44.2767067" lon="11.8071067"><ele>163.0</ele><time>2026-04-18T14:21:23.993Z</time></trkpt><trkpt lat="44.2766533" lon="11.8072767"><ele>163.0</ele><time>2026-04-18T14:21:24.992Z</time></trkpt><trkpt lat="44.2766383" lon="11.8074433"><ele>163.0</ele><time>2026-04-18T14:21:25.993Z</time></trkpt><trkpt lat="44.276655" lon="11.8076067"><ele>163.0</ele><time>2026-04-18T14:21:26.994Z</time></trkpt><trkpt lat="44.2767017" lon="11.8077633"><ele>163.0</ele><time>2026-04-18T14:21:27.992Z</time></trkpt><trkpt lat="44.2767717" lon="11.8079217"><ele>163.0</ele><time>2026-04-18T14:21:28.993Z</time></trkpt><trkpt lat="44.2768383" lon="11.808075"><ele>163.0</ele><time>2026-04-18T14:21:29.992Z</time></trkpt><trkpt lat="44.2768717" lon="11.808225"><ele>163.0</ele><time>2026-04-18T14:21:30.993Z</time></trkpt><trkpt lat="44.2768867" lon="11.8083617"><ele>163.0</ele><time>2026-04-18T14:21:31.992Z</time></trkpt><trkpt lat="44.2768867" lon="11.808505"><ele>163.0</ele><time>2026-04-18T14:21:32.993Z</time></trkpt><trkpt lat="44.27689" lon="11.80867"><ele>165.0</ele><time>2026-04-18T14:21:33.993Z</time></trkpt><trkpt lat="44.27691" lon="11.80884"><ele>167.0</ele><time>2026-04-18T14:21:34.992Z</time></trkpt><trkpt lat="44.2769583" lon="11.8090183"><ele>169.0</ele><time>2026-04-18T14:21:35.992Z</time></trkpt><trkpt lat="44.2770433" lon="11.8091833"><ele>171.0</ele><time>2026-04-18T14:21:36.993Z</time></trkpt><trkpt lat="44.2771333" lon="11.8093533"><ele>172.0</ele><time>2026-04-18T14:21:37.993Z</time></trkpt><trkpt lat="44.27722" lon="11.80953"><ele>173.0</ele><time>2026-04-18T14:21:38.993Z</time></trkpt><trkpt lat="44.277305" lon="11.809715"><ele>174.0</ele><time>2026-04-18T14:21:39.993Z</time></trkpt><trkpt lat="44.2773983" lon="11.8099033"><ele>169.33333333333334</ele><time>2026-04-18T14:21:40.994Z</time></trkpt><trkpt lat="44.277495" lon="11.8100983"><ele>164.66666666666669</ele><time>2026-04-18T14:21:41.993Z</time></trkpt><trkpt lat="44.27759" lon="11.810295"><ele>160.0</ele><time>2026-04-18T14:21:42.992Z</time></trkpt><trkpt lat="44.2776883" lon="11.8104983"><ele>160.0</ele><time>2026-04-18T14:21:43.992Z</time></trkpt><trkpt lat="44.2777817" lon="11.8106933"><ele>160.0</ele><time>2026-04-18T14:21:44.994Z</time></trkpt><trkpt lat="44.2778667" lon="11.81088"><ele>160.0</ele><time>2026-04-18T14:21:45.992Z</time></trkpt><trkpt lat="44.27796" lon="11.811065"><ele>158.33333333333334</ele><time>2026-04-18T14:21:46.993Z</time></trkpt><trkpt lat="44.27806" lon="11.811245"><ele>156.66666666666666</ele><time>2026-04-18T14:21:47.993Z</time></trkpt><trkpt lat="44.2781717" lon="11.8114183"><ele>155.0</ele><time>2026-04-18T14:21:48.993Z</time></trkpt><trkpt lat="44.2782817" lon="11.81158"><ele>152.33333333333331</ele><time>2026-04-18T14:21:49.992Z</time></trkpt><trkpt lat="44.27839" lon="11.8117383"><ele>149.66666666666666</ele><time>2026-04-18T14:21:50.993Z</time></trkpt><trkpt lat="44.27849" lon="11.811895"><ele>147.0</ele><time>2026-04-18T14:21:51.993Z</time></trkpt><trkpt lat="44.2785867" lon="11.8120617"><ele>146.0</ele><time>2026-04-18T14:21:52.995Z</time></trkpt><trkpt lat="44.2786883" lon="11.8122417"><ele>145.0</ele><time>2026-04-18T14:21:53.993Z</time></trkpt><trkpt lat="44.2787933" lon="11.8124333"><ele>144.0</ele><time>2026-04-18T14:21:54.992Z</time></trkpt><trkpt lat="44.2789067" lon="11.8126333"><ele>141.66666666666666</ele><time>2026-04-18T14:21:55.993Z</time></trkpt><trkpt lat="44.2790233" lon="11.81284"><ele>139.33333333333331</ele><time>2026-04-18T14:21:56.992Z</time></trkpt><trkpt lat="44.2791433" lon="11.8130517"><ele>137.0</ele><time>2026-04-18T14:21:57.993Z</time></trkpt><trkpt lat="44.2792633" lon="11.8132633"><ele>137.0</ele><time>2026-04-18T14:21:58.992Z</time></trkpt><trkpt lat="44.279385" lon="11.8134833"><ele>137.0</ele><time>2026-04-18T14:21:59.993Z</time></trkpt><trkpt lat="44.2795033" lon="11.8137033"><ele>137.0</ele><time>2026-04-18T14:22:00.993Z</time></trkpt><trkpt lat="44.27962" lon="11.8139183"><ele>134.66666666666666</ele><time>2026-04-18T14:22:01.993Z</time></trkpt><trkpt lat="44.279735" lon="11.81413"><ele>132.33333333333334</ele><time>2026-04-18T14:22:02.993Z</time></trkpt><trkpt lat="44.2798533" lon="11.8143433"><ele>130.0</ele><time>2026-04-18T14:22:03.993Z</time></trkpt><trkpt lat="44.2799767" lon="11.8145633"><ele>130.0</ele><time>2026-04-18T14:22:04.993Z</time></trkpt><trkpt lat="44.2801" lon="11.8147833"><ele>130.0</ele><time>2026-04-18T14:22:05.993Z</time></trkpt><trkpt lat="44.28022" lon="11.8149983"><ele>130.0</ele><time>2026-04-18T14:22:06.993Z</time></trkpt><trkpt lat="44.280335" lon="11.8152067"><ele>129.66666666666669</ele><time>2026-04-18T14:22:07.993Z</time></trkpt><trkpt lat="44.2804483" lon="11.8154117"><ele>129.33333333333334</ele><time>2026-04-18T14:22:08.992Z</time></trkpt><trkpt lat="44.28056" lon="11.815625"><ele>129.0</ele><time>2026-04-18T14:22:09.992Z</time></trkpt><trkpt lat="44.280675" lon="11.8158433"><ele>126.33333333333334</ele><time>2026-04-18T14:22:10.992Z</time></trkpt><trkpt lat="44.280795" lon="11.81606"><ele>123.66666666666667</ele><time>2026-04-18T14:22:11.992Z</time></trkpt><trkpt lat="44.280915" lon="11.8162783"><ele>121.0</ele><time>2026-04-18T14:22:12.993Z</time></trkpt><trkpt lat="44.2810333" lon="11.8165017"><ele>121.0</ele><time>2026-04-18T14:22:13.993Z</time></trkpt><trkpt lat="44.2811567" lon="11.816725"><ele>121.0</ele><time>2026-04-18T14:22:14.992Z</time></trkpt><trkpt lat="44.2812817" lon="11.8169483"><ele>121.0</ele><time>2026-04-18T14:22:15.993Z</time></trkpt><trkpt lat="44.2814067" lon="11.8171683"><ele>119.33333333333334</ele><time>2026-04-18T14:22:16.992Z</time></trkpt><trkpt lat="44.2815283" lon="11.8173817"><ele>117.66666666666666</ele><time>2026-04-18T14:22:17.992Z</time></trkpt><trkpt lat="44.2816417" lon="11.81758"><ele>116.0</ele><time>2026-04-18T14:22:18.993Z</time></trkpt><trkpt lat="44.2817417" lon="11.8177617"><ele>115.0</ele><time>2026-04-18T14:22:19.992Z</time></trkpt><trkpt lat="44.281835" lon="11.81794"><ele>114.0</ele><time>2026-04-18T14:22:20.993Z</time></trkpt><trkpt lat="44.2819083" lon="11.818135"><ele>113.0</ele><time>2026-04-18T14:22:21.993Z</time></trkpt><trkpt lat="44.281965" lon="11.818355"><ele>113.0</ele><time>2026-04-18T14:22:22.994Z</time></trkpt><trkpt lat="44.2820167" lon="11.81859"><ele>113.0</ele><time>2026-04-18T14:22:23.993Z</time></trkpt><trkpt lat="44.2820683" lon="11.818835"><ele>113.0</ele><time>2026-04-18T14:22:24.992Z</time></trkpt><trkpt lat="44.2821217" lon="11.8190883"><ele>112.66666666666666</ele><time>2026-04-18T14:22:25.992Z</time></trkpt><trkpt lat="44.282175" lon="11.8193517"><ele>112.33333333333334</ele><time>2026-04-18T14:22:26.993Z</time></trkpt><trkpt lat="44.2822283" lon="11.8196183"><ele>112.0</ele><time>2026-04-18T14:22:27.992Z</time></trkpt><trkpt lat="44.2822833" lon="11.8198933"><ele>110.33333333333334</ele><time>2026-04-18T14:22:28.994Z</time></trkpt><trkpt lat="44.2823333" lon="11.8201617"><ele>108.66666666666666</ele><time>2026-04-18T14:22:29.993Z</time></trkpt><trkpt lat="44.2823833" lon="11.8204233"><ele>107.0</ele><time>2026-04-18T14:22:30.995Z</time></trkpt><trkpt lat="44.2824283" lon="11.8206667"><ele>107.0</ele><time>2026-04-18T14:22:31.993Z</time></trkpt><trkpt lat="44.28247" lon="11.8208933"><ele>107.0</ele><time>2026-04-18T14:22:32.992Z</time></trkpt><trkpt lat="44.282495" lon="11.8211083"><ele>107.0</ele><time>2026-04-18T14:22:33.992Z</time></trkpt><trkpt lat="44.2824967" lon="11.82132"><ele>106.33333333333333</ele><time>2026-04-18T14:22:34.993Z</time></trkpt><trkpt lat="44.2824717" lon="11.821535"><ele>105.66666666666666</ele><time>2026-04-18T14:22:35.992Z</time></trkpt><trkpt lat="44.2824283" lon="11.8217533"><ele>105.0</ele><time>2026-04-18T14:22:36.992Z</time></trkpt><trkpt lat="44.2823967" lon="11.8219783"><ele>104.0</ele><time>2026-04-18T14:22:37.992Z</time></trkpt><trkpt lat="44.2823817" lon="11.8221967"><ele>103.0</ele><time>2026-04-18T14:22:38.992Z</time></trkpt><trkpt lat="44.2823783" lon="11.8224117"><ele>102.0</ele><time>2026-04-18T14:22:39.992Z</time></trkpt><trkpt lat="44.2823933" lon="11.82264"><ele>101.0</ele><time>2026-04-18T14:22:40.992Z</time></trkpt><trkpt lat="44.2824233" lon="11.8228733"><ele>100.0</ele><time>2026-04-18T14:22:41.993Z</time></trkpt><trkpt lat="44.2824617" lon="11.82311"><ele>99.0</ele><time>2026-04-18T14:22:42.992Z</time></trkpt><trkpt lat="44.282505" lon="11.823335"><ele>98.33333333333334</ele><time>2026-04-18T14:22:43.993Z</time></trkpt><trkpt lat="44.28255" lon="11.8235617"><ele>97.66666666666667</ele><time>2026-04-18T14:22:44.993Z</time></trkpt><trkpt lat="44.2826" lon="11.8237933"><ele>97.0</ele><time>2026-04-18T14:22:45.994Z</time></trkpt><trkpt lat="44.2826533" lon="11.824035"><ele>97.0</ele><time>2026-04-18T14:22:46.992Z</time></trkpt><trkpt lat="44.2827117" lon="11.8242783"><ele>97.0</ele><time>2026-04-18T14:22:47.992Z</time></trkpt><trkpt lat="44.28278" lon="11.8245183"><ele>97.0</ele><time>2026-04-18T14:22:48.992Z</time></trkpt><trkpt lat="44.2828533" lon="11.8247483"><ele>96.66666666666667</ele><time>2026-04-18T14:22:49.993Z</time></trkpt><trkpt lat="44.282935" lon="11.8249733"><ele>96.33333333333334</ele><time>2026-04-18T14:22:50.993Z</time></trkpt><trkpt lat="44.28303" lon="11.8251933"><ele>96.0</ele><time>2026-04-18T14:22:51.993Z</time></trkpt><trkpt lat="44.2831267" lon="11.8254183"><ele>94.0</ele><time>2026-04-18T14:22:52.994Z</time></trkpt><trkpt lat="44.28323" lon="11.82565"><ele>92.0</ele><time>2026-04-18T14:22:53.994Z</time></trkpt><trkpt lat="44.2833333" lon="11.8258867"><ele>90.0</ele><time>2026-04-18T14:22:54.993Z</time></trkpt><trkpt lat="44.283435" lon="11.826125"><ele>89.66666666666667</ele><time>2026-04-18T14:22:55.993Z</time></trkpt><trkpt lat="44.2835283" lon="11.8263567"><ele>89.33333333333334</ele><time>2026-04-18T14:22:56.994Z</time></trkpt><trkpt lat="44.2836167" lon="11.8265817"><ele>89.0</ele><time>2026-04-18T14:22:57.992Z</time></trkpt><trkpt lat="44.2837017" lon="11.826805"><ele>88.33333333333334</ele><time>2026-04-18T14:22:58.994Z</time></trkpt><trkpt lat="44.2837833" lon="11.82704"><ele>87.66666666666667</ele><time>2026-04-18T14:22:59.992Z</time></trkpt><trkpt lat="44.2838567" lon="11.827285"><ele>87.0</ele><time>2026-04-18T14:23:00.993Z</time></trkpt><trkpt lat="44.2839167" lon="11.827545"><ele>85.66666666666667</ele><time>2026-04-18T14:23:01.993Z</time></trkpt><trkpt lat="44.2839667" lon="11.8278133"><ele>84.33333333333334</ele><time>2026-04-18T14:23:02.993Z</time></trkpt><trkpt lat="44.2840117" lon="11.8280867"><ele>83.0</ele><time>2026-04-18T14:23:03.992Z</time></trkpt><trkpt lat="44.284055" lon="11.8283467"><ele>82.66666666666667</ele><time>2026-04-18T14:23:04.992Z</time></trkpt><trkpt lat="44.2840967" lon="11.8285967"><ele>82.33333333333333</ele><time>2026-04-18T14:23:05.992Z</time></trkpt><trkpt lat="44.2841367" lon="11.8288383"><ele>82.0</ele><time>2026-04-18T14:23:06.992Z</time></trkpt><trkpt lat="44.284175" lon="11.8290783"><ele>82.0</ele><time>2026-04-18T14:23:07.992Z</time></trkpt><trkpt lat="44.2842133" lon="11.8293017"><ele>82.0</ele><time>2026-04-18T14:23:08.993Z</time></trkpt><trkpt lat="44.2842617" lon="11.8295083"><ele>82.0</ele><time>2026-04-18T14:23:09.992Z</time></trkpt><trkpt lat="44.2843317" lon="11.8297033"><ele>81.0</ele><time>2026-04-18T14:23:10.992Z</time></trkpt><trkpt lat="44.2844217" lon="11.829895"><ele>80.0</ele><time>2026-04-18T14:23:11.992Z</time></trkpt><trkpt lat="44.284525" lon="11.83009"><ele>79.0</ele><time>2026-04-18T14:23:12.992Z</time></trkpt><trkpt lat="44.28464" lon="11.8302883"><ele>77.0</ele><time>2026-04-18T14:23:13.994Z</time></trkpt><trkpt lat="44.2847533" lon="11.8304883"><ele>75.0</ele><time>2026-04-18T14:23:14.992Z</time></trkpt><trkpt lat="44.2848567" lon="11.8306917"><ele>73.0</ele><time>2026-04-18T14:23:15.992Z</time></trkpt><trkpt lat="44.2849467" lon="11.8308983"><ele>71.66666666666666</ele><time>2026-04-18T14:23:16.993Z</time></trkpt><trkpt lat="44.2850333" lon="11.8311067"><ele>70.33333333333333</ele><time>2026-04-18T14:23:17.992Z</time></trkpt><trkpt lat="44.2851133" lon="11.8313267"><ele>69.0</ele><time>2026-04-18T14:23:18.993Z</time></trkpt><trkpt lat="44.2851967" lon="11.8315567"><ele>69.0</ele><time>2026-04-18T14:23:19.994Z</time></trkpt><trkpt lat="44.28528" lon="11.8317933"><ele>69.0</ele><time>2026-04-18T14:23:20.992Z</time></trkpt><trkpt lat="44.2853533" lon="11.8320367"><ele>69.0</ele><time>2026-04-18T14:23:21.992Z</time></trkpt><trkpt lat="44.2854183" lon="11.8322817"><ele>67.0</ele><time>2026-04-18T14:23:22.993Z</time></trkpt><trkpt lat="44.285485" lon="11.8325283"><ele>65.0</ele><time>2026-04-18T14:23:23.992Z</time></trkpt><trkpt lat="44.285555" lon="11.8327783"><ele>63.0</ele><time>2026-04-18T14:23:24.993Z</time></trkpt><trkpt lat="44.2856417" lon="11.833025"><ele>61.66666666666667</ele><time>2026-04-18T14:23:25.993Z</time></trkpt><trkpt lat="44.285725" lon="11.83328"><ele>60.333333333333336</ele><time>2026-04-18T14:23:26.994Z</time></trkpt><trkpt lat="44.2858167" lon="11.8335383"><ele>59.0</ele><time>2026-04-18T14:23:27.993Z</time></trkpt><trkpt lat="44.285905" lon="11.83381"><ele>58.66666666666667</ele><time>2026-04-18T14:23:28.992Z</time></trkpt><trkpt lat="44.2859867" lon="11.834095"><ele>58.33333333333333</ele><time>2026-04-18T14:23:29.993Z</time></trkpt><trkpt lat="44.2860667" lon="11.8343883"><ele>58.0</ele><time>2026-04-18T14:23:30.993Z</time></trkpt><trkpt lat="44.2861433" lon="11.8346667"><ele>58.0</ele><time>2026-04-18T14:23:31.994Z</time></trkpt><trkpt lat="44.2862183" lon="11.8349217"><ele>58.0</ele><time>2026-04-18T14:23:32.993Z</time></trkpt><trkpt lat="44.286285" lon="11.8351567"><ele>58.0</ele><time>2026-04-18T14:23:33.994Z</time></trkpt><trkpt lat="44.2863317" lon="11.8353833"><ele>58.666666666666664</ele><time>2026-04-18T14:23:34.994Z</time></trkpt><trkpt lat="44.2863567" lon="11.8356283"><ele>59.33333333333333</ele><time>2026-04-18T14:23:35.992Z</time></trkpt><trkpt lat="44.286355" lon="11.83588"><ele>60.0</ele><time>2026-04-18T14:23:36.992Z</time></trkpt><trkpt lat="44.286335" lon="11.836135"><ele>59.66666666666667</ele><time>2026-04-18T14:23:37.992Z</time></trkpt><trkpt lat="44.28631" lon="11.8363983"><ele>59.333333333333336</ele><time>2026-04-18T14:23:38.993Z</time></trkpt><trkpt lat="44.28628" lon="11.8366467"><ele>59.0</ele><time>2026-04-18T14:23:39.992Z</time></trkpt><trkpt lat="44.2862483" lon="11.836855"><ele>59.0</ele><time>2026-04-18T14:23:40.993Z</time></trkpt><trkpt lat="44.2862233" lon="11.8370333"><ele>59.0</ele><time>2026-04-18T14:23:41.991Z</time></trkpt><trkpt lat="44.28621" lon="11.8371967"><ele>59.0</ele><time>2026-04-18T14:23:42.993Z</time></trkpt><trkpt lat="44.2862133" lon="11.8373717"><ele>59.0</ele><time>2026-04-18T14:23:43.991Z</time></trkpt><trkpt lat="44.2862367" lon="11.83756"><ele>59.0</ele><time>2026-04-18T14:23:44.994Z</time></trkpt><trkpt lat="44.2862733" lon="11.8377583"><ele>59.0</ele><time>2026-04-18T14:23:45.992Z</time></trkpt><trkpt lat="44.2863167" lon="11.8379517"><ele>59.0</ele><time>2026-04-18T14:23:46.994Z</time></trkpt><trkpt lat="44.2863717" lon="11.8381283"><ele>59.0</ele><time>2026-04-18T14:23:47.993Z</time></trkpt><trkpt lat="44.2864483" lon="11.8382767"><ele>59.0</ele><time>2026-04-18T14:23:48.993Z</time></trkpt><trkpt lat="44.2865483" lon="11.8383967"><ele>59.0</ele><time>2026-04-18T14:23:49.994Z</time></trkpt><trkpt lat="44.2866617" lon="11.8385067"><ele>59.0</ele><time>2026-04-18T14:23:50.994Z</time></trkpt><trkpt lat="44.2867783" lon="11.8386183"><ele>59.0</ele><time>2026-04-18T14:23:51.993Z</time></trkpt><trkpt lat="44.28689" lon="11.8387183"><ele>58.6</ele><time>2026-04-18T14:23:52.993Z</time></trkpt><trkpt lat="44.2870017" lon="11.83881"><ele>58.2</ele><time>2026-04-18T14:23:53.992Z</time></trkpt><trkpt lat="44.287095" lon="11.8388983"><ele>57.800000000000004</ele><time>2026-04-18T14:23:54.993Z</time></trkpt><trkpt lat="44.2871683" lon="11.8389717"><ele>57.400000000000006</ele><time>2026-04-18T14:23:55.992Z</time></trkpt><trkpt lat="44.2872283" lon="11.8390567"><ele>57.0</ele><time>2026-04-18T14:23:57.993Z</time></trkpt><trkpt lat="44.2872983" lon="11.8390583"><ele>56.6</ele><time>2026-04-18T14:23:59.993Z</time></trkpt><trkpt lat="44.2873633" lon="11.8390317"><ele>56.2</ele><time>2026-04-18T14:24:00.992Z</time></trkpt><trkpt lat="44.2874383" lon="11.8389767"><ele>55.8</ele><time>2026-04-18T14:24:01.993Z</time></trkpt><trkpt lat="44.2875333" lon="11.8388983"><ele>55.4</ele><time>2026-04-18T14:24:02.994Z</time></trkpt><trkpt lat="44.287645" lon="11.8388"><ele>55.0</ele><time>2026-04-18T14:24:03.994Z</time></trkpt><trkpt lat="44.2877667" lon="11.8386917"><ele>55.0</ele><time>2026-04-18T14:24:04.993Z</time></trkpt><trkpt lat="44.2878983" lon="11.8385717"><ele>55.0</ele><time>2026-04-18T14:24:05.993Z</time></trkpt><trkpt lat="44.2880333" lon="11.8384483"><ele>55.0</ele><time>2026-04-18T14:24:06.992Z</time></trkpt><trkpt lat="44.2881717" lon="11.83832"><ele>55.33333333333333</ele><time>2026-04-18T14:24:07.993Z</time></trkpt><trkpt lat="44.2883117" lon="11.83818"><ele>55.66666666666667</ele><time>2026-04-18T14:24:08.994Z</time></trkpt><trkpt lat="44.2884583" lon="11.8380383"><ele>56.0</ele><time>2026-04-18T14:24:09.992Z</time></trkpt><trkpt lat="44.2886167" lon="11.837895"><ele>56.0</ele><time>2026-04-18T14:24:10.992Z</time></trkpt><trkpt lat="44.2887783" lon="11.8377517"><ele>56.0</ele><time>2026-04-18T14:24:11.992Z</time></trkpt><trkpt lat="44.2889333" lon="11.8376017"><ele>56.0</ele><time>2026-04-18T14:24:12.992Z</time></trkpt><trkpt lat="44.2890833" lon="11.8374617"><ele>55.333333333333336</ele><time>2026-04-18T14:24:13.992Z</time></trkpt><trkpt lat="44.2892267" lon="11.8373217"><ele>54.66666666666667</ele><time>2026-04-18T14:24:14.992Z</time></trkpt><trkpt lat="44.2893667" lon="11.837185"><ele>54.0</ele><time>2026-04-18T14:24:15.993Z</time></trkpt><trkpt lat="44.2895083" lon="11.8370483"><ele>54.0</ele><time>2026-04-18T14:24:16.993Z</time></trkpt><trkpt lat="44.28965" lon="11.83691"><ele>54.0</ele><time>2026-04-18T14:24:17.992Z</time></trkpt><trkpt lat="44.2897917" lon="11.8367717"><ele>54.0</ele><time>2026-04-18T14:24:18.992Z</time></trkpt><trkpt lat="44.2899333" lon="11.8366317"><ele>54.0</ele><time>2026-04-18T14:24:19.992Z</time></trkpt><trkpt lat="44.2900717" lon="11.8365"><ele>54.0</ele><time>2026-04-18T14:24:20.994Z</time></trkpt><trkpt lat="44.2902017" lon="11.8363733"><ele>54.0</ele><time>2026-04-18T14:24:21.992Z</time></trkpt><trkpt lat="44.2903283" lon="11.8362517"><ele>54.0</ele><time>2026-04-18T14:24:22.993Z</time></trkpt><trkpt lat="44.2904483" lon="11.8361317"><ele>54.0</ele><time>2026-04-18T14:24:23.993Z</time></trkpt><trkpt lat="44.2905633" lon="11.836015"><ele>54.0</ele><time>2026-04-18T14:24:24.992Z</time></trkpt><trkpt lat="44.2906767" lon="11.835905"><ele>54.0</ele><time>2026-04-18T14:24:25.993Z</time></trkpt><trkpt lat="44.2907917" lon="11.8357967"><ele>53.5</ele><time>2026-04-18T14:24:26.993Z</time></trkpt><trkpt lat="44.2909117" lon="11.83569"><ele>53.0</ele><time>2026-04-18T14:24:27.993Z</time></trkpt><trkpt lat="44.29103" lon="11.8355967"><ele>52.5</ele><time>2026-04-18T14:24:28.993Z</time></trkpt><trkpt lat="44.2911417" lon="11.8355067"><ele>52.0</ele><time>2026-04-18T14:24:29.993Z</time></trkpt><trkpt lat="44.29126" lon="11.83541"><ele>52.0</ele><time>2026-04-18T14:24:30.993Z</time></trkpt><trkpt lat="44.2913817" lon="11.8353117"><ele>52.0</ele><time>2026-04-18T14:24:31.992Z</time></trkpt><trkpt lat="44.2914983" lon="11.835195"><ele>52.0</ele><time>2026-04-18T14:24:32.992Z</time></trkpt><trkpt lat="44.2916083" lon="11.83505"><ele>52.0</ele><time>2026-04-18T14:24:33.993Z</time></trkpt><trkpt lat="44.2917167" lon="11.8348867"><ele>52.0</ele><time>2026-04-18T14:24:34.993Z</time></trkpt><trkpt lat="44.2918283" lon="11.8347117"><ele>52.0</ele><time>2026-04-18T14:24:35.995Z</time></trkpt><trkpt lat="44.2919417" lon="11.8345417"><ele>52.0</ele><time>2026-04-18T14:24:36.994Z</time></trkpt><trkpt lat="44.2920517" lon="11.834385"><ele>52.0</ele><time>2026-04-18T14:24:37.992Z</time></trkpt><trkpt lat="44.2921633" lon="11.8342317"><ele>52.0</ele><time>2026-04-18T14:24:38.993Z</time></trkpt><trkpt lat="44.2922867" lon="11.8340883"><ele>52.0</ele><time>2026-04-18T14:24:39.992Z</time></trkpt><trkpt lat="44.29242" lon="11.833965"><ele>51.0</ele><time>2026-04-18T14:24:40.992Z</time></trkpt><trkpt lat="44.2925617" lon="11.8338433"><ele>50.0</ele><time>2026-04-18T14:24:41.992Z</time></trkpt><trkpt lat="44.2927067" lon="11.8337167"><ele>49.0</ele><time>2026-04-18T14:24:42.992Z</time></trkpt><trkpt lat="44.2928567" lon="11.833585"><ele>48.666666666666664</ele><time>2026-04-18T14:24:43.993Z</time></trkpt><trkpt lat="44.29301" lon="11.83345"><ele>48.33333333333333</ele><time>2026-04-18T14:24:44.993Z</time></trkpt><trkpt lat="44.2931683" lon="11.8333133"><ele>48.0</ele><time>2026-04-18T14:24:45.992Z</time></trkpt><trkpt lat="44.2933183" lon="11.8331817"><ele>47.666666666666664</ele><time>2026-04-18T14:24:46.992Z</time></trkpt><trkpt lat="44.2934617" lon="11.8330533"><ele>47.33333333333333</ele><time>2026-04-18T14:24:47.994Z</time></trkpt><trkpt lat="44.2935967" lon="11.8329117"><ele>47.0</ele><time>2026-04-18T14:24:48.994Z</time></trkpt><trkpt lat="44.293725" lon="11.8327517"><ele>47.33333333333333</ele><time>2026-04-18T14:24:49.993Z</time></trkpt><trkpt lat="44.29385" lon="11.8325717"><ele>47.666666666666664</ele><time>2026-04-18T14:24:50.992Z</time></trkpt><trkpt lat="44.2939767" lon="11.8323833"><ele>48.0</ele><time>2026-04-18T14:24:51.992Z</time></trkpt><trkpt lat="44.29411" lon="11.8321883"><ele>47.333333333333336</ele><time>2026-04-18T14:24:52.994Z</time></trkpt><trkpt lat="44.2942433" lon="11.8319867"><ele>46.66666666666667</ele><time>2026-04-18T14:24:53.993Z</time></trkpt><trkpt lat="44.2943767" lon="11.83178"><ele>46.0</ele><time>2026-04-18T14:24:54.993Z</time></trkpt><trkpt lat="44.2945133" lon="11.8315717"><ele>46.0</ele><time>2026-04-18T14:24:55.992Z</time></trkpt><trkpt lat="44.2946533" lon="11.8313617"><ele>46.0</ele><time>2026-04-18T14:24:56.995Z</time></trkpt><trkpt lat="44.2947933" lon="11.8311483"><ele>46.0</ele><time>2026-04-18T14:24:57.992Z</time></trkpt><trkpt lat="44.2949367" lon="11.83094"><ele>46.333333333333336</ele><time>2026-04-18T14:24:58.992Z</time></trkpt><trkpt lat="44.2950833" lon="11.8307383"><ele>46.666666666666664</ele><time>2026-04-18T14:24:59.993Z</time></trkpt><trkpt lat="44.295235" lon="11.83054"><ele>47.0</ele><time>2026-04-18T14:25:00.994Z</time></trkpt><trkpt lat="44.2953883" lon="11.830345"><ele>47.0</ele><time>2026-04-18T14:25:01.993Z</time></trkpt><trkpt lat="44.295545" lon="11.8301517"><ele>47.0</ele><time>2026-04-18T14:25:02.994Z</time></trkpt><trkpt lat="44.2957033" lon="11.8299567"><ele>47.0</ele><time>2026-04-18T14:25:03.994Z</time></trkpt><trkpt lat="44.295865" lon="11.8297517"><ele>46.666666666666664</ele><time>2026-04-18T14:25:04.993Z</time></trkpt><trkpt lat="44.2960217" lon="11.829545"><ele>46.333333333333336</ele><time>2026-04-18T14:25:05.994Z</time></trkpt><trkpt lat="44.2961767" lon="11.8293333"><ele>46.0</ele><time>2026-04-18T14:25:06.993Z</time></trkpt><trkpt lat="44.296325" lon="11.8291217"><ele>45.0</ele><time>2026-04-18T14:25:07.992Z</time></trkpt><trkpt lat="44.2964633" lon="11.8289167"><ele>44.0</ele><time>2026-04-18T14:25:08.994Z</time></trkpt><trkpt lat="44.2965883" lon="11.8287383"><ele>43.0</ele><time>2026-04-18T14:25:09.993Z</time></trkpt><trkpt lat="44.2966983" lon="11.82857"><ele>43.0</ele><time>2026-04-18T14:25:10.993Z</time></trkpt><trkpt lat="44.2967917" lon="11.8283983"><ele>43.0</ele><time>2026-04-18T14:25:11.993Z</time></trkpt><trkpt lat="44.29687" lon="11.8282083"><ele>43.0</ele><time>2026-04-18T14:25:12.994Z</time></trkpt><trkpt lat="44.2969417" lon="11.8279967"><ele>43.0</ele><time>2026-04-18T14:25:13.994Z</time></trkpt><trkpt lat="44.2970217" lon="11.8277767"><ele>43.0</ele><time>2026-04-18T14:25:14.994Z</time></trkpt><trkpt lat="44.2971167" lon="11.8275583"><ele>43.0</ele><time>2026-04-18T14:25:15.992Z</time></trkpt><trkpt lat="44.2972233" lon="11.82734"><ele>42.333333333333336</ele><time>2026-04-18T14:25:16.994Z</time></trkpt><trkpt lat="44.2973417" lon="11.827115"><ele>41.666666666666664</ele><time>2026-04-18T14:25:17.993Z</time></trkpt><trkpt lat="44.29746" lon="11.826885"><ele>41.0</ele><time>2026-04-18T14:25:18.994Z</time></trkpt><trkpt lat="44.2975817" lon="11.8266483"><ele>41.0</ele><time>2026-04-18T14:25:19.994Z</time></trkpt><trkpt lat="44.2977083" lon="11.8264067"><ele>41.0</ele><time>2026-04-18T14:25:20.994Z</time></trkpt><trkpt lat="44.2978367" lon="11.8261617"><ele>41.0</ele><time>2026-04-18T14:25:21.993Z</time></trkpt><trkpt lat="44.2979667" lon="11.8259133"><ele>40.666666666666664</ele><time>2026-04-18T14:25:22.993Z</time></trkpt><trkpt lat="44.2980967" lon="11.825665"><ele>40.333333333333336</ele><time>2026-04-18T14:25:23.994Z</time></trkpt><trkpt lat="44.29822" lon="11.8254267"><ele>40.0</ele><time>2026-04-18T14:25:24.992Z</time></trkpt><trkpt lat="44.2983383" lon="11.8252033"><ele>40.333333333333336</ele><time>2026-04-18T14:25:25.994Z</time></trkpt><trkpt lat="44.2984517" lon="11.8249883"><ele>40.666666666666664</ele><time>2026-04-18T14:25:26.996Z</time></trkpt><trkpt lat="44.2985517" lon="11.8247767"><ele>41.0</ele><time>2026-04-18T14:25:27.993Z</time></trkpt><trkpt lat="44.2986367" lon="11.82456"><ele>41.0</ele><time>2026-04-18T14:25:28.995Z</time></trkpt><trkpt lat="44.2987117" lon="11.8243267"><ele>41.0</ele><time>2026-04-18T14:25:29.993Z</time></trkpt><trkpt lat="44.2987817" lon="11.8240783"><ele>41.0</ele><time>2026-04-18T14:25:30.993Z</time></trkpt><trkpt lat="44.2988517" lon="11.823815"><ele>41.0</ele><time>2026-04-18T14:25:31.993Z</time></trkpt><trkpt lat="44.2989233" lon="11.8235467"><ele>41.0</ele><time>2026-04-18T14:25:32.993Z</time></trkpt><trkpt lat="44.298995" lon="11.823275"><ele>41.0</ele><time>2026-04-18T14:25:33.995Z</time></trkpt><trkpt lat="44.29907" lon="11.822995"><ele>41.0</ele><time>2026-04-18T14:25:34.992Z</time></trkpt><trkpt lat="44.299145" lon="11.8227133"><ele>41.0</ele><time>2026-04-18T14:25:35.993Z</time></trkpt><trkpt lat="44.29922" lon="11.8224367"><ele>41.0</ele><time>2026-04-18T14:25:36.993Z</time></trkpt><trkpt lat="44.2993017" lon="11.8221683"><ele>41.666666666666664</ele><time>2026-04-18T14:25:37.993Z</time></trkpt><trkpt lat="44.299395" lon="11.8219083"><ele>42.333333333333336</ele><time>2026-04-18T14:25:38.995Z</time></trkpt><trkpt lat="44.2994983" lon="11.8216533"><ele>43.0</ele><time>2026-04-18T14:25:39.992Z</time></trkpt><trkpt lat="44.2996017" lon="11.8214"><ele>43.0</ele><time>2026-04-18T14:25:40.995Z</time></trkpt><trkpt lat="44.2996917" lon="11.82114"><ele>43.0</ele><time>2026-04-18T14:25:41.993Z</time></trkpt><trkpt lat="44.2997767" lon="11.8208767"><ele>43.0</ele><time>2026-04-18T14:25:42.993Z</time></trkpt><trkpt lat="44.2998583" lon="11.8206117"><ele>43.0</ele><time>2026-04-18T14:25:43.993Z</time></trkpt><trkpt lat="44.299935" lon="11.8203567"><ele>43.0</ele><time>2026-04-18T14:25:44.993Z</time></trkpt><trkpt lat="44.3000067" lon="11.8201133"><ele>43.0</ele><time>2026-04-18T14:25:45.993Z</time></trkpt><trkpt lat="44.3000767" lon="11.819885"><ele>43.66666666666667</ele><time>2026-04-18T14:25:46.993Z</time></trkpt><trkpt lat="44.3001467" lon="11.819665"><ele>44.333333333333336</ele><time>2026-04-18T14:25:47.992Z</time></trkpt><trkpt lat="44.3002217" lon="11.8194467"><ele>45.0</ele><time>2026-04-18T14:25:48.992Z</time></trkpt><trkpt lat="44.300305" lon="11.819225"><ele>45.0</ele><time>2026-04-18T14:25:49.992Z</time></trkpt><trkpt lat="44.3003967" lon="11.819005"><ele>45.0</ele><time>2026-04-18T14:25:50.992Z</time></trkpt><trkpt lat="44.3004933" lon="11.81878"><ele>45.0</ele><time>2026-04-18T14:25:51.992Z</time></trkpt><trkpt lat="44.3005933" lon="11.8185533"><ele>45.0</ele><time>2026-04-18T14:25:52.994Z</time></trkpt><trkpt lat="44.3006917" lon="11.8183283"><ele>45.0</ele><time>2026-04-18T14:25:53.993Z</time></trkpt><trkpt lat="44.3007933" lon="11.818105"><ele>45.0</ele><time>2026-04-18T14:25:54.992Z</time></trkpt><trkpt lat="44.3009" lon="11.8178767"><ele>45.666666666666664</ele><time>2026-04-18T14:25:55.992Z</time></trkpt><trkpt lat="44.301005" lon="11.817645"><ele>46.33333333333333</ele><time>2026-04-18T14:25:56.994Z</time></trkpt><trkpt lat="44.3011017" lon="11.8174217"><ele>47.0</ele><time>2026-04-18T14:25:57.994Z</time></trkpt><trkpt lat="44.301195" lon="11.8172083"><ele>47.0</ele><time>2026-04-18T14:25:58.992Z</time></trkpt><trkpt lat="44.3012783" lon="11.8170233"><ele>47.0</ele><time>2026-04-18T14:25:59.994Z</time></trkpt><trkpt lat="44.3013617" lon="11.816865"><ele>47.0</ele><time>2026-04-18T14:26:00.993Z</time></trkpt><trkpt lat="44.3014567" lon="11.8167267"><ele>47.0</ele><time>2026-04-18T14:26:01.994Z</time></trkpt><trkpt lat="44.30156" lon="11.8166083"><ele>46.25</ele><time>2026-04-18T14:26:02.994Z</time></trkpt><trkpt lat="44.301665" lon="11.816505"><ele>45.5</ele><time>2026-04-18T14:26:03.992Z</time></trkpt><trkpt lat="44.30177" lon="11.81641"><ele>44.75</ele><time>2026-04-18T14:26:04.992Z</time></trkpt><trkpt lat="44.30188" lon="11.8163133"><ele>44.0</ele><time>2026-04-18T14:26:05.992Z</time></trkpt><trkpt lat="44.30198" lon="11.816175"><ele>44.0</ele><time>2026-04-18T14:26:06.992Z</time></trkpt><trkpt lat="44.302065" lon="11.816005"><ele>44.0</ele><time>2026-04-18T14:26:07.992Z</time></trkpt><trkpt lat="44.3021583" lon="11.8158317"><ele>44.0</ele><time>2026-04-18T14:26:08.992Z</time></trkpt><trkpt lat="44.3022517" lon="11.815645"><ele>44.666666666666664</ele><time>2026-04-18T14:26:09.992Z</time></trkpt><trkpt lat="44.3023317" lon="11.8154383"><ele>45.333333333333336</ele><time>2026-04-18T14:26:10.993Z</time></trkpt><trkpt lat="44.3023917" lon="11.8152167"><ele>46.0</ele><time>2026-04-18T14:26:11.992Z</time></trkpt><trkpt lat="44.302435" lon="11.8149933"><ele>46.66666666666667</ele><time>2026-04-18T14:26:12.994Z</time></trkpt><trkpt lat="44.30247" lon="11.8147783"><ele>47.333333333333336</ele><time>2026-04-18T14:26:13.994Z</time></trkpt><trkpt lat="44.3024983" lon="11.8145583"><ele>48.0</ele><time>2026-04-18T14:26:14.992Z</time></trkpt><trkpt lat="44.3025133" lon="11.8143333"><ele>48.33333333333333</ele><time>2026-04-18T14:26:15.993Z</time></trkpt><trkpt lat="44.3025167" lon="11.8141033"><ele>48.666666666666664</ele><time>2026-04-18T14:26:16.994Z</time></trkpt><trkpt lat="44.3025083" lon="11.8138617"><ele>49.0</ele><time>2026-04-18T14:26:17.993Z</time></trkpt><trkpt lat="44.3024917" lon="11.8136167"><ele>49.666666666666664</ele><time>2026-04-18T14:26:18.992Z</time></trkpt><trkpt lat="44.30246" lon="11.8133717"><ele>50.33333333333333</ele><time>2026-04-18T14:26:19.993Z</time></trkpt><trkpt lat="44.302415" lon="11.8131317"><ele>51.0</ele><time>2026-04-18T14:26:20.993Z</time></trkpt><trkpt lat="44.30237" lon="11.81289"><ele>51.0</ele><time>2026-04-18T14:26:21.992Z</time></trkpt><trkpt lat="44.30234" lon="11.8126417"><ele>51.0</ele><time>2026-04-18T14:26:22.994Z</time></trkpt><trkpt lat="44.3023267" lon="11.8123883"><ele>51.0</ele><time>2026-04-18T14:26:23.993Z</time></trkpt><trkpt lat="44.30232" lon="11.812125"><ele>51.0</ele><time>2026-04-18T14:26:24.992Z</time></trkpt><trkpt lat="44.30232" lon="11.8118567"><ele>51.0</ele><time>2026-04-18T14:26:25.993Z</time></trkpt><trkpt lat="44.3023233" lon="11.8115833"><ele>51.0</ele><time>2026-04-18T14:26:26.994Z</time></trkpt><trkpt lat="44.30233" lon="11.81131"><ele>51.33333333333333</ele><time>2026-04-18T14:26:27.992Z</time></trkpt><trkpt lat="44.3023333" lon="11.8110433"><ele>51.666666666666664</ele><time>2026-04-18T14:26:28.992Z</time></trkpt><trkpt lat="44.3023233" lon="11.8107933"><ele>52.0</ele><time>2026-04-18T14:26:29.992Z</time></trkpt><trkpt lat="44.30229" lon="11.81055"><ele>53.33333333333333</ele><time>2026-04-18T14:26:30.992Z</time></trkpt><trkpt lat="44.3022367" lon="11.8103133"><ele>54.66666666666667</ele><time>2026-04-18T14:26:31.993Z</time></trkpt><trkpt lat="44.302175" lon="11.810065"><ele>56.0</ele><time>2026-04-18T14:26:32.994Z</time></trkpt><trkpt lat="44.3021167" lon="11.8098067"><ele>57.0</ele><time>2026-04-18T14:26:33.992Z</time></trkpt><trkpt lat="44.3020533" lon="11.8095433"><ele>58.0</ele><time>2026-04-18T14:26:34.992Z</time></trkpt><trkpt lat="44.3019767" lon="11.8092833"><ele>59.0</ele><time>2026-04-18T14:26:35.992Z</time></trkpt><trkpt lat="44.3018783" lon="11.8090367"><ele>59.0</ele><time>2026-04-18T14:26:36.993Z</time></trkpt><trkpt lat="44.301775" lon="11.8087967"><ele>59.0</ele><time>2026-04-18T14:26:37.994Z</time></trkpt><trkpt lat="44.3016783" lon="11.8085383"><ele>59.0</ele><time>2026-04-18T14:26:38.994Z</time></trkpt><trkpt lat="44.301595" lon="11.80827"><ele>60.0</ele><time>2026-04-18T14:26:39.992Z</time></trkpt><trkpt lat="44.3015183" lon="11.80802"><ele>61.0</ele><time>2026-04-18T14:26:40.993Z</time></trkpt><trkpt lat="44.3014483" lon="11.8077933"><ele>62.0</ele><time>2026-04-18T14:26:41.992Z</time></trkpt><trkpt lat="44.3013967" lon="11.8075983"><ele>62.0</ele><time>2026-04-18T14:26:42.992Z</time></trkpt><trkpt lat="44.3013767" lon="11.807415"><ele>62.0</ele><time>2026-04-18T14:26:43.993Z</time></trkpt><trkpt lat="44.301395" lon="11.8072383"><ele>62.0</ele><time>2026-04-18T14:26:44.993Z</time></trkpt><trkpt lat="44.3014533" lon="11.807075"><ele>62.0</ele><time>2026-04-18T14:26:45.992Z</time></trkpt><trkpt lat="44.3015383" lon="11.80692"><ele>62.75</ele><time>2026-04-18T14:26:46.994Z</time></trkpt><trkpt lat="44.30164" lon="11.806765"><ele>63.5</ele><time>2026-04-18T14:26:47.993Z</time></trkpt><trkpt lat="44.301735" lon="11.806605"><ele>64.25</ele><time>2026-04-18T14:26:48.994Z</time></trkpt><trkpt lat="44.3018" lon="11.8064433"><ele>65.0</ele><time>2026-04-18T14:26:49.992Z</time></trkpt><trkpt lat="44.3018233" lon="11.8062833"><ele>65.0</ele><time>2026-04-18T14:26:50.993Z</time></trkpt><trkpt lat="44.3018017" lon="11.806125"><ele>65.0</ele><time>2026-04-18T14:26:51.993Z</time></trkpt><trkpt lat="44.3017283" lon="11.8059733"><ele>65.0</ele><time>2026-04-18T14:26:52.992Z</time></trkpt><trkpt lat="44.3016233" lon="11.8058267"><ele>65.0</ele><time>2026-04-18T14:26:53.992Z</time></trkpt><trkpt lat="44.301505" lon="11.80567"><ele>65.33333333333334</ele><time>2026-04-18T14:26:54.992Z</time></trkpt><trkpt lat="44.30138" lon="11.8055067"><ele>65.66666666666667</ele><time>2026-04-18T14:26:55.993Z</time></trkpt><trkpt lat="44.301245" lon="11.8053367"><ele>66.0</ele><time>2026-04-18T14:26:56.993Z</time></trkpt><trkpt lat="44.301105" lon="11.8051567"><ele>66.66666666666667</ele><time>2026-04-18T14:26:57.994Z</time></trkpt><trkpt lat="44.3009583" lon="11.8049717"><ele>67.33333333333334</ele><time>2026-04-18T14:26:58.992Z</time></trkpt><trkpt lat="44.3008067" lon="11.8047817"><ele>68.0</ele><time>2026-04-18T14:26:59.995Z</time></trkpt><trkpt lat="44.3006533" lon="11.8045967"><ele>69.33333333333334</ele><time>2026-04-18T14:27:00.993Z</time></trkpt><trkpt lat="44.3005017" lon="11.8044167"><ele>70.66666666666667</ele><time>2026-04-18T14:27:01.995Z</time></trkpt><trkpt lat="44.30035" lon="11.80424"><ele>72.0</ele><time>2026-04-18T14:27:02.993Z</time></trkpt><trkpt lat="44.3002033" lon="11.8040783"><ele>72.0</ele><time>2026-04-18T14:27:03.993Z</time></trkpt><trkpt lat="44.30005" lon="11.8039467"><ele>72.0</ele><time>2026-04-18T14:27:04.993Z</time></trkpt><trkpt lat="44.2998817" lon="11.8038433"><ele>72.0</ele><time>2026-04-18T14:27:05.992Z</time></trkpt><trkpt lat="44.2997033" lon="11.8037533"><ele>72.66666666666667</ele><time>2026-04-18T14:27:06.992Z</time></trkpt><trkpt lat="44.2995167" lon="11.8036633"><ele>73.33333333333334</ele><time>2026-04-18T14:27:07.992Z</time></trkpt><trkpt lat="44.2993267" lon="11.8035733"><ele>74.0</ele><time>2026-04-18T14:27:08.993Z</time></trkpt><trkpt lat="44.2991417" lon="11.80349"><ele>74.0</ele><time>2026-04-18T14:27:09.992Z</time></trkpt><trkpt lat="44.2989767" lon="11.8034233"><ele>74.0</ele><time>2026-04-18T14:27:10.992Z</time></trkpt><trkpt lat="44.2988383" lon="11.8033667"><ele>74.0</ele><time>2026-04-18T14:27:11.993Z</time></trkpt><trkpt lat="44.2987233" lon="11.8033183"><ele>74.0</ele><time>2026-04-18T14:27:12.993Z</time></trkpt><trkpt lat="44.298635" lon="11.80327"><ele>74.66666666666667</ele><time>2026-04-18T14:27:13.993Z</time></trkpt><trkpt lat="44.2985767" lon="11.8031917"><ele>75.33333333333334</ele><time>2026-04-18T14:27:14.993Z</time></trkpt><trkpt lat="44.29856" lon="11.8030917"><ele>76.0</ele><time>2026-04-18T14:27:15.992Z</time></trkpt><trkpt lat="44.298585" lon="11.8029917"><ele>76.66666666666667</ele><time>2026-04-18T14:27:16.992Z</time></trkpt><trkpt lat="44.2986367" lon="11.8029083"><ele>77.33333333333333</ele><time>2026-04-18T14:27:17.992Z</time></trkpt><trkpt lat="44.298705" lon="11.8028317"><ele>78.0</ele><time>2026-04-18T14:27:18.993Z</time></trkpt><trkpt lat="44.2987783" lon="11.8027517"><ele>78.0</ele><time>2026-04-18T14:27:19.993Z</time></trkpt><trkpt lat="44.2988583" lon="11.8026667"><ele>78.0</ele><time>2026-04-18T14:27:20.994Z</time></trkpt><trkpt lat="44.298925" lon="11.8025933"><ele>78.0</ele><time>2026-04-18T14:27:21.992Z</time></trkpt><trkpt lat="44.2989767" lon="11.8025383"><ele>78.0</ele><time>2026-04-18T14:27:22.993Z</time></trkpt><trkpt lat="44.299055" lon="11.8024467"><ele>78.0</ele><time>2026-04-18T14:27:24.993Z</time></trkpt><trkpt lat="44.2991133" lon="11.8023717"><ele>78.0</ele><time>2026-04-18T14:27:26.995Z</time></trkpt><trkpt lat="44.2991783" lon="11.802285"><ele>76.8</ele><time>2026-04-18T14:27:29.992Z</time></trkpt><trkpt lat="44.2992433" lon="11.8022117"><ele>75.6</ele><time>2026-04-18T14:27:32.994Z</time></trkpt><trkpt lat="44.2992933" lon="11.8021383"><ele>74.4</ele><time>2026-04-18T14:27:35.992Z</time></trkpt><trkpt lat="44.2993433" lon="11.8020683"><ele>73.2</ele><time>2026-04-18T14:27:38.992Z</time></trkpt><trkpt lat="44.29943" lon="11.80194"><ele>72.0</ele><time>2026-04-18T14:28:04.993Z</time></trkpt><trkpt lat="44.2995233" lon="11.8017983"><ele>72.0</ele><time>2026-04-18T14:28:06.993Z</time></trkpt><trkpt lat="44.2995867" lon="11.8017133"><ele>72.0</ele><time>2026-04-18T14:28:07.992Z</time></trkpt><trkpt lat="44.2996517" lon="11.8016283"><ele>72.0</ele><time>2026-04-18T14:28:08.993Z</time></trkpt><trkpt lat="44.2997117" lon="11.8015467"><ele>72.0</ele><time>2026-04-18T14:28:09.991Z</time></trkpt><trkpt lat="44.299765" lon="11.8014633"><ele>72.0</ele><time>2026-04-18T14:28:10.992Z</time></trkpt><trkpt lat="44.2998033" lon="11.8013733"><ele>72.0</ele><time>2026-04-18T14:28:11.992Z</time></trkpt><trkpt lat="44.2998133" lon="11.8012683"><ele>72.0</ele><time>2026-04-18T14:28:12.993Z</time></trkpt><trkpt lat="44.29979" lon="11.8011683"><ele>72.0</ele><time>2026-04-18T14:28:13.993Z</time></trkpt><trkpt lat="44.2997467" lon="11.8010817"><ele>72.0</ele><time>2026-04-18T14:28:14.993Z</time></trkpt><trkpt lat="44.2996933" lon="11.8010017"><ele>72.0</ele><time>2026-04-18T14:28:15.993Z</time></trkpt><trkpt lat="44.299635" lon="11.80093"><ele>72.0</ele><time>2026-04-18T14:28:16.993Z</time></trkpt><trkpt lat="44.29957" lon="11.80085"><ele>72.0</ele><time>2026-04-18T14:28:17.992Z</time></trkpt><trkpt lat="44.2994933" lon="11.8007583"><ele>70.0</ele><time>2026-04-18T14:28:18.993Z</time></trkpt><trkpt lat="44.2994083" lon="11.8006633"><ele>68.0</ele><time>2026-04-18T14:28:19.994Z</time></trkpt><trkpt lat="44.299315" lon="11.80057"><ele>66.0</ele><time>2026-04-18T14:28:20.992Z</time></trkpt><trkpt lat="44.2992167" lon="11.80047"><ele>64.0</ele><time>2026-04-18T14:28:21.992Z</time></trkpt><trkpt lat="44.2991133" lon="11.8003633"><ele>64.0</ele><time>2026-04-18T14:28:22.994Z</time></trkpt><trkpt lat="44.299005" lon="11.8002683"><ele>64.0</ele><time>2026-04-18T14:28:23.995Z</time></trkpt><trkpt lat="44.2988983" lon="11.8001783"><ele>64.0</ele><time>2026-04-18T14:28:24.993Z</time></trkpt><trkpt lat="44.29879" lon="11.80009"><ele>64.0</ele><time>2026-04-18T14:28:25.993Z</time></trkpt><trkpt lat="44.298675" lon="11.8"><ele>62.0</ele><time>2026-04-18T14:28:26.994Z</time></trkpt><trkpt lat="44.2985567" lon="11.7999083"><ele>60.0</ele><time>2026-04-18T14:28:27.994Z</time></trkpt><trkpt lat="44.29843" lon="11.7998167"><ele>58.0</ele><time>2026-04-18T14:28:28.993Z</time></trkpt><trkpt lat="44.2983017" lon="11.7997233"><ele>56.0</ele><time>2026-04-18T14:28:29.993Z</time></trkpt><trkpt lat="44.2981717" lon="11.7996217"><ele>56.333333333333336</ele><time>2026-04-18T14:28:30.995Z</time></trkpt><trkpt lat="44.2980367" lon="11.7995233"><ele>56.66666666666667</ele><time>2026-04-18T14:28:31.993Z</time></trkpt><trkpt lat="44.2979017" lon="11.79943"><ele>57.0</ele><time>2026-04-18T14:28:32.994Z</time></trkpt><trkpt lat="44.2977683" lon="11.79933"><ele>57.0</ele><time>2026-04-18T14:28:33.992Z</time></trkpt><trkpt lat="44.297635" lon="11.79923"><ele>57.0</ele><time>2026-04-18T14:28:34.993Z</time></trkpt><trkpt lat="44.2975133" lon="11.7991367"><ele>57.0</ele><time>2026-04-18T14:28:35.993Z</time></trkpt><trkpt lat="44.2974033" lon="11.79905"><ele>57.0</ele><time>2026-04-18T14:28:36.992Z</time></trkpt><trkpt lat="44.297305" lon="11.798975"><ele>58.0</ele><time>2026-04-18T14:28:37.993Z</time></trkpt><trkpt lat="44.2972183" lon="11.79891"><ele>59.0</ele><time>2026-04-18T14:28:38.993Z</time></trkpt><trkpt lat="44.2971433" lon="11.7988717"><ele>60.0</ele><time>2026-04-18T14:28:39.992Z</time></trkpt><trkpt lat="44.2970233" lon="11.7988917"><ele>61.0</ele><time>2026-04-18T14:28:41.992Z</time></trkpt><trkpt lat="44.29691" lon="11.7989933"><ele>62.0</ele><time>2026-04-18T14:28:43.993Z</time></trkpt><trkpt lat="44.2968383" lon="11.799055"><ele>62.0</ele><time>2026-04-18T14:28:44.994Z</time></trkpt><trkpt lat="44.2967483" lon="11.79912"><ele>62.0</ele><time>2026-04-18T14:28:45.992Z</time></trkpt><trkpt lat="44.2966383" lon="11.79918"><ele>62.0</ele><time>2026-04-18T14:28:46.994Z</time></trkpt><trkpt lat="44.2965167" lon="11.7992367"><ele>62.0</ele><time>2026-04-18T14:28:47.993Z</time></trkpt><trkpt lat="44.2963967" lon="11.7992817"><ele>60.5</ele><time>2026-04-18T14:28:48.993Z</time></trkpt><trkpt lat="44.296275" lon="11.79934"><ele>59.0</ele><time>2026-04-18T14:28:49.994Z</time></trkpt><trkpt lat="44.2961533" lon="11.7994067"><ele>57.5</ele><time>2026-04-18T14:28:50.993Z</time></trkpt><trkpt lat="44.2960367" lon="11.7994967"><ele>56.0</ele><time>2026-04-18T14:28:51.992Z</time></trkpt><trkpt lat="44.2959217" lon="11.7995967"><ele>56.0</ele><time>2026-04-18T14:28:52.993Z</time></trkpt><trkpt lat="44.2958083" lon="11.79969"><ele>56.0</ele><time>2026-04-18T14:28:53.994Z</time></trkpt><trkpt lat="44.2956933" lon="11.79977"><ele>56.0</ele><time>2026-04-18T14:28:54.993Z</time></trkpt><trkpt lat="44.2955783" lon="11.7998283"><ele>56.0</ele><time>2026-04-18T14:28:55.994Z</time></trkpt><trkpt lat="44.295465" lon="11.7998633"><ele>56.0</ele><time>2026-04-18T14:28:56.993Z</time></trkpt><trkpt lat="44.2953533" lon="11.7998833"><ele>55.99999999999999</ele><time>2026-04-18T14:28:57.994Z</time></trkpt><trkpt lat="44.2952433" lon="11.7998983"><ele>55.99999999999999</ele><time>2026-04-18T14:28:58.993Z</time></trkpt><trkpt lat="44.29514" lon="11.7999167"><ele>56.0</ele><time>2026-04-18T14:28:59.994Z</time></trkpt><trkpt lat="44.2950483" lon="11.799935"><ele>56.0</ele><time>2026-04-18T14:29:00.992Z</time></trkpt><trkpt lat="44.29496" lon="11.79995"><ele>56.00000000000001</ele><time>2026-04-18T14:29:01.994Z</time></trkpt><trkpt lat="44.294885" lon="11.7999617"><ele>56.0</ele><time>2026-04-18T14:29:02.994Z</time></trkpt><trkpt lat="44.29477" lon="11.799975"><ele>56.0</ele><time>2026-04-18T14:29:04.994Z</time></trkpt><trkpt lat="44.29468" lon="11.7999717"><ele>56.0</ele><time>2026-04-18T14:29:06.993Z</time></trkpt><trkpt lat="44.2946117" lon="11.7999367"><ele>56.00000000000001</ele><time>2026-04-18T14:29:08.993Z</time></trkpt><trkpt lat="44.2945633" lon="11.7998333"><ele>56.0</ele><time>2026-04-18T14:29:11.992Z</time></trkpt><trkpt lat="44.2945033" lon="11.7997617"><ele>55.714285714285715</ele><time>2026-04-18T14:29:13.992Z</time></trkpt><trkpt lat="44.2944483" lon="11.7997183"><ele>55.42857142857143</ele><time>2026-04-18T14:29:15.993Z</time></trkpt><trkpt lat="44.2943817" lon="11.799645"><ele>55.14285714285714</ele><time>2026-04-18T14:29:18.992Z</time></trkpt><trkpt lat="44.2943133" lon="11.7996183"><ele>54.85714285714286</ele><time>2026-04-18T14:29:20.992Z</time></trkpt><trkpt lat="44.2942467" lon="11.799675"><ele>54.57142857142857</ele><time>2026-04-18T14:29:22.994Z</time></trkpt><trkpt lat="44.294195" lon="11.7997267"><ele>54.285714285714285</ele><time>2026-04-18T14:29:25.992Z</time></trkpt><trkpt lat="44.2941467" lon="11.7998"><ele>54.0</ele><time>2026-04-18T14:29:28.993Z</time></trkpt><trkpt lat="44.2941567" lon="11.79992"><ele>54.0</ele><time>2026-04-18T14:29:31.992Z</time></trkpt><trkpt lat="44.2942017" lon="11.7999883"><ele>54.0</ele><time>2026-04-18T14:29:33.992Z</time></trkpt><trkpt lat="44.2942683" lon="11.80004"><ele>54.0</ele><time>2026-04-18T14:29:35.994Z</time></trkpt><trkpt lat="44.2943417" lon="11.8000867"><ele>54.0</ele><time>2026-04-18T14:29:37.992Z</time></trkpt><trkpt lat="44.294335" lon="11.8001767"><ele>54.0</ele><time>2026-04-18T14:29:39.992Z</time></trkpt><trkpt lat="44.2942767" lon="11.8002617"><ele>54.0</ele><time>2026-04-18T14:29:41.993Z</time></trkpt><trkpt lat="44.2941817" lon="11.8003283"><ele>55.0</ele><time>2026-04-18T14:29:43.993Z</time></trkpt><trkpt lat="44.294095" lon="11.80036"><ele>55.0</ele><time>2026-04-18T14:29:45.992Z</time></trkpt><trkpt lat="44.2940333" lon="11.8003817"><ele>55.0</ele><time>2026-04-18T14:29:47.993Z</time></trkpt><trkpt lat="44.2939483" lon="11.8003933"><ele>55.0</ele><time>2026-04-18T14:29:50.994Z</time></trkpt></trkseg></trk></gpx>